<?xml version="1.0" encoding="UTF-8" standalone="no" ?>
<gpx xmlns="http://www.topografix.com/GPX/1/1" xmlns:xsi="http://www.w3.org/2001/XMLSchema-instance" xsi:schemaLocation="http://www.topografix.com/GPX/1/1 http://www.topografix.com/GPX/1/1/gpx.xsd" version="1.1" creator="VisuGPX - https://www.visugpx.com">
  <metadata>
    <name>rigol hard 2017</name>
    <desc><![CDATA[zzz]]></desc>
  </metadata>
  <trk>
    <name><![CDATA[aaa]]></name>
    <trkseg>
      <trkpt lat="47.44686" lon="6.58238">
        <ele>341.7</ele>
        <time>2017-06-11T06:37:38.999Z</time>
      </trkpt>
      <trkpt lat="47.44682" lon="6.58234">
        <ele>343.8</ele>
        <time>2017-06-11T06:37:39.999Z</time>
      </trkpt>
      <trkpt lat="47.44676" lon="6.58232">
        <ele>342.4</ele>
        <time>2017-06-11T06:37:40.999Z</time>
      </trkpt>
      <trkpt lat="47.44671" lon="6.58231">
        <ele>344.9</ele>
        <time>2017-06-11T06:37:41.999Z</time>
      </trkpt>
      <trkpt lat="47.44667" lon="6.5823">
        <ele>344.3</ele>
        <time>2017-06-11T06:37:42.999Z</time>
      </trkpt>
      <trkpt lat="47.44663" lon="6.58228">
        <ele>343.4</ele>
        <time>2017-06-11T06:37:43.999Z</time>
      </trkpt>
      <trkpt lat="47.44659" lon="6.58226">
        <ele>342.5</ele>
        <time>2017-06-11T06:37:44.999Z</time>
      </trkpt>
      <trkpt lat="47.44655" lon="6.58224">
        <ele>341.7</ele>
        <time>2017-06-11T06:37:45.999Z</time>
      </trkpt>
      <trkpt lat="47.44652" lon="6.58223">
        <ele>341.8</ele>
        <time>2017-06-11T06:37:46.999Z</time>
      </trkpt>
      <trkpt lat="47.44648" lon="6.58219">
        <ele>342.1</ele>
        <time>2017-06-11T06:37:47.999Z</time>
      </trkpt>
      <trkpt lat="47.44645" lon="6.58216">
        <ele>341.9</ele>
        <time>2017-06-11T06:37:48.999Z</time>
      </trkpt>
      <trkpt lat="47.44641" lon="6.58212">
        <ele>340.7</ele>
        <time>2017-06-11T06:37:49.999Z</time>
      </trkpt>
      <trkpt lat="47.44636" lon="6.58206">
        <ele>339.5</ele>
        <time>2017-06-11T06:37:50.999Z</time>
      </trkpt>
      <trkpt lat="47.44633" lon="6.58204">
        <ele>340.7</ele>
        <time>2017-06-11T06:37:51.999Z</time>
      </trkpt>
      <trkpt lat="47.44629" lon="6.58203">
        <ele>341.3</ele>
        <time>2017-06-11T06:37:52.999Z</time>
      </trkpt>
      <trkpt lat="47.44623" lon="6.58202">
        <ele>340.7</ele>
        <time>2017-06-11T06:37:53.999Z</time>
      </trkpt>
      <trkpt lat="47.44619" lon="6.582">
        <ele>340.7</ele>
        <time>2017-06-11T06:37:54.999Z</time>
      </trkpt>
      <trkpt lat="47.44615" lon="6.58197">
        <ele>341.4</ele>
        <time>2017-06-11T06:37:55.999Z</time>
      </trkpt>
      <trkpt lat="47.44611" lon="6.58195">
        <ele>341.5</ele>
        <time>2017-06-11T06:37:56.999Z</time>
      </trkpt>
      <trkpt lat="47.44608" lon="6.58193">
        <ele>341.5</ele>
        <time>2017-06-11T06:37:57.999Z</time>
      </trkpt>
      <trkpt lat="47.44605" lon="6.58192">
        <ele>341.6</ele>
        <time>2017-06-11T06:37:58.999Z</time>
      </trkpt>
      <trkpt lat="47.446" lon="6.58189">
        <ele>341.7</ele>
        <time>2017-06-11T06:37:59.999Z</time>
      </trkpt>
      <trkpt lat="47.44596" lon="6.58188">
        <ele>341.8</ele>
        <time>2017-06-11T06:38:00.999Z</time>
      </trkpt>
      <trkpt lat="47.44591" lon="6.58185">
        <ele>342.1</ele>
        <time>2017-06-11T06:38:01.999Z</time>
      </trkpt>
      <trkpt lat="47.44585" lon="6.58182">
        <ele>342.1</ele>
        <time>2017-06-11T06:38:02.999Z</time>
      </trkpt>
      <trkpt lat="47.4458" lon="6.58179">
        <ele>341.7</ele>
        <time>2017-06-11T06:38:03.999Z</time>
      </trkpt>
      <trkpt lat="47.44576" lon="6.58177">
        <ele>342.3</ele>
        <time>2017-06-11T06:38:04.999Z</time>
      </trkpt>
      <trkpt lat="47.44571" lon="6.58175">
        <ele>342.9</ele>
        <time>2017-06-11T06:38:05.999Z</time>
      </trkpt>
      <trkpt lat="47.44567" lon="6.58172">
        <ele>343.2</ele>
        <time>2017-06-11T06:38:06.999Z</time>
      </trkpt>
      <trkpt lat="47.44562" lon="6.5817">
        <ele>343.1</ele>
        <time>2017-06-11T06:38:07.999Z</time>
      </trkpt>
      <trkpt lat="47.44557" lon="6.58167">
        <ele>343.3</ele>
        <time>2017-06-11T06:38:08.999Z</time>
      </trkpt>
      <trkpt lat="47.44553" lon="6.58165">
        <ele>344</ele>
        <time>2017-06-11T06:38:09.999Z</time>
      </trkpt>
      <trkpt lat="47.44549" lon="6.58162">
        <ele>345</ele>
        <time>2017-06-11T06:38:10.999Z</time>
      </trkpt>
      <trkpt lat="47.44544" lon="6.58159">
        <ele>345.7</ele>
        <time>2017-06-11T06:38:11.999Z</time>
      </trkpt>
      <trkpt lat="47.4454" lon="6.58157">
        <ele>345.9</ele>
        <time>2017-06-11T06:38:12.999Z</time>
      </trkpt>
      <trkpt lat="47.44536" lon="6.58154">
        <ele>345.8</ele>
        <time>2017-06-11T06:38:13.999Z</time>
      </trkpt>
      <trkpt lat="47.44531" lon="6.58153">
        <ele>345.9</ele>
        <time>2017-06-11T06:38:14.999Z</time>
      </trkpt>
      <trkpt lat="47.44527" lon="6.58152">
        <ele>345.8</ele>
        <time>2017-06-11T06:38:15.999Z</time>
      </trkpt>
      <trkpt lat="47.44523" lon="6.58151">
        <ele>345.9</ele>
        <time>2017-06-11T06:38:16.999Z</time>
      </trkpt>
      <trkpt lat="47.4452" lon="6.58152">
        <ele>345.5</ele>
        <time>2017-06-11T06:38:17.999Z</time>
      </trkpt>
      <trkpt lat="47.44516" lon="6.58156">
        <ele>345.7</ele>
        <time>2017-06-11T06:38:18.999Z</time>
      </trkpt>
      <trkpt lat="47.44514" lon="6.5816">
        <ele>345.6</ele>
        <time>2017-06-11T06:38:19.999Z</time>
      </trkpt>
      <trkpt lat="47.44511" lon="6.58164">
        <ele>345</ele>
        <time>2017-06-11T06:38:20.999Z</time>
      </trkpt>
      <trkpt lat="47.44508" lon="6.58168">
        <ele>344.3</ele>
        <time>2017-06-11T06:38:21.999Z</time>
      </trkpt>
      <trkpt lat="47.44506" lon="6.58172">
        <ele>343.7</ele>
        <time>2017-06-11T06:38:22.999Z</time>
      </trkpt>
      <trkpt lat="47.44503" lon="6.58176">
        <ele>343.4</ele>
        <time>2017-06-11T06:38:23.999Z</time>
      </trkpt>
      <trkpt lat="47.44501" lon="6.58181">
        <ele>342.8</ele>
        <time>2017-06-11T06:38:24.999Z</time>
      </trkpt>
      <trkpt lat="47.44498" lon="6.58184">
        <ele>342</ele>
        <time>2017-06-11T06:38:25.999Z</time>
      </trkpt>
      <trkpt lat="47.44496" lon="6.58188">
        <ele>341.8</ele>
        <time>2017-06-11T06:38:26.999Z</time>
      </trkpt>
      <trkpt lat="47.44493" lon="6.58192">
        <ele>341.6</ele>
        <time>2017-06-11T06:38:27.999Z</time>
      </trkpt>
      <trkpt lat="47.4449" lon="6.58198">
        <ele>341.4</ele>
        <time>2017-06-11T06:38:28.999Z</time>
      </trkpt>
      <trkpt lat="47.44488" lon="6.58203">
        <ele>341.5</ele>
        <time>2017-06-11T06:38:29.999Z</time>
      </trkpt>
      <trkpt lat="47.44486" lon="6.58207">
        <ele>341.4</ele>
        <time>2017-06-11T06:38:30.999Z</time>
      </trkpt>
      <trkpt lat="47.44482" lon="6.58211">
        <ele>340.8</ele>
        <time>2017-06-11T06:38:31.999Z</time>
      </trkpt>
      <trkpt lat="47.44478" lon="6.58215">
        <ele>340.8</ele>
        <time>2017-06-11T06:38:32.999Z</time>
      </trkpt>
      <trkpt lat="47.44476" lon="6.58218">
        <ele>341.4</ele>
        <time>2017-06-11T06:38:33.999Z</time>
      </trkpt>
      <trkpt lat="47.44473" lon="6.58222">
        <ele>341.5</ele>
        <time>2017-06-11T06:38:34.999Z</time>
      </trkpt>
      <trkpt lat="47.44472" lon="6.58226">
        <ele>341.5</ele>
        <time>2017-06-11T06:38:35.999Z</time>
      </trkpt>
      <trkpt lat="47.4447" lon="6.58228">
        <ele>341.6</ele>
        <time>2017-06-11T06:38:36.999Z</time>
      </trkpt>
      <trkpt lat="47.44466" lon="6.58229">
        <ele>341.7</ele>
        <time>2017-06-11T06:38:37.999Z</time>
      </trkpt>
      <trkpt lat="47.44463" lon="6.58227">
        <ele>341.7</ele>
        <time>2017-06-11T06:38:38.999Z</time>
      </trkpt>
      <trkpt lat="47.44459" lon="6.58226">
        <ele>341.8</ele>
        <time>2017-06-11T06:38:39.999Z</time>
      </trkpt>
      <trkpt lat="47.44456" lon="6.58225">
        <ele>341.9</ele>
        <time>2017-06-11T06:38:40.999Z</time>
      </trkpt>
      <trkpt lat="47.44453" lon="6.58225">
        <ele>342</ele>
        <time>2017-06-11T06:38:41.999Z</time>
      </trkpt>
      <trkpt lat="47.4445" lon="6.58225">
        <ele>342.1</ele>
        <time>2017-06-11T06:38:42.999Z</time>
      </trkpt>
      <trkpt lat="47.44446" lon="6.58225">
        <ele>342.3</ele>
        <time>2017-06-11T06:38:43.999Z</time>
      </trkpt>
      <trkpt lat="47.44443" lon="6.58227">
        <ele>342.4</ele>
        <time>2017-06-11T06:38:44.999Z</time>
      </trkpt>
      <trkpt lat="47.44439" lon="6.58228">
        <ele>342.4</ele>
        <time>2017-06-11T06:38:45.999Z</time>
      </trkpt>
      <trkpt lat="47.44435" lon="6.5823">
        <ele>342.2</ele>
        <time>2017-06-11T06:38:46.999Z</time>
      </trkpt>
      <trkpt lat="47.44432" lon="6.58232">
        <ele>342.2</ele>
        <time>2017-06-11T06:38:47.999Z</time>
      </trkpt>
      <trkpt lat="47.44428" lon="6.58234">
        <ele>342.3</ele>
        <time>2017-06-11T06:38:48.999Z</time>
      </trkpt>
      <trkpt lat="47.44426" lon="6.58236">
        <ele>342.3</ele>
        <time>2017-06-11T06:38:49.999Z</time>
      </trkpt>
      <trkpt lat="47.44423" lon="6.58238">
        <ele>342.4</ele>
        <time>2017-06-11T06:38:50.999Z</time>
      </trkpt>
      <trkpt lat="47.44419" lon="6.58239">
        <ele>342.4</ele>
        <time>2017-06-11T06:38:51.999Z</time>
      </trkpt>
      <trkpt lat="47.44416" lon="6.5824">
        <ele>342.4</ele>
        <time>2017-06-11T06:38:52.999Z</time>
      </trkpt>
      <trkpt lat="47.44413" lon="6.58242">
        <ele>342.3</ele>
        <time>2017-06-11T06:38:53.999Z</time>
      </trkpt>
      <trkpt lat="47.44409" lon="6.58243">
        <ele>342.3</ele>
        <time>2017-06-11T06:38:54.999Z</time>
      </trkpt>
      <trkpt lat="47.44405" lon="6.58244">
        <ele>342.2</ele>
        <time>2017-06-11T06:38:55.999Z</time>
      </trkpt>
      <trkpt lat="47.44401" lon="6.58245">
        <ele>342.2</ele>
        <time>2017-06-11T06:38:56.999Z</time>
      </trkpt>
      <trkpt lat="47.44397" lon="6.58246">
        <ele>342.2</ele>
        <time>2017-06-11T06:38:57.999Z</time>
      </trkpt>
      <trkpt lat="47.44394" lon="6.58247">
        <ele>342.1</ele>
        <time>2017-06-11T06:38:58.999Z</time>
      </trkpt>
      <trkpt lat="47.4439" lon="6.58248">
        <ele>342.1</ele>
        <time>2017-06-11T06:38:59.999Z</time>
      </trkpt>
      <trkpt lat="47.44387" lon="6.58247">
        <ele>341.9</ele>
        <time>2017-06-11T06:39:00.999Z</time>
      </trkpt>
      <trkpt lat="47.44384" lon="6.58246">
        <ele>341.8</ele>
        <time>2017-06-11T06:39:01.999Z</time>
      </trkpt>
      <trkpt lat="47.44381" lon="6.58245">
        <ele>341.9</ele>
        <time>2017-06-11T06:39:02.999Z</time>
      </trkpt>
      <trkpt lat="47.44377" lon="6.58243">
        <ele>341.9</ele>
        <time>2017-06-11T06:39:03.999Z</time>
      </trkpt>
      <trkpt lat="47.44374" lon="6.58242">
        <ele>342</ele>
        <time>2017-06-11T06:39:04.999Z</time>
      </trkpt>
      <trkpt lat="47.44371" lon="6.58241">
        <ele>342</ele>
        <time>2017-06-11T06:39:05.999Z</time>
      </trkpt>
      <trkpt lat="47.44368" lon="6.58241">
        <ele>342</ele>
        <time>2017-06-11T06:39:06.999Z</time>
      </trkpt>
      <trkpt lat="47.44365" lon="6.58241">
        <ele>342.1</ele>
        <time>2017-06-11T06:39:07.999Z</time>
      </trkpt>
      <trkpt lat="47.44362" lon="6.58241">
        <ele>342.2</ele>
        <time>2017-06-11T06:39:08.999Z</time>
      </trkpt>
      <trkpt lat="47.44359" lon="6.58241">
        <ele>342.3</ele>
        <time>2017-06-11T06:39:09.999Z</time>
      </trkpt>
      <trkpt lat="47.44355" lon="6.58242">
        <ele>342.4</ele>
        <time>2017-06-11T06:39:10.999Z</time>
      </trkpt>
      <trkpt lat="47.44351" lon="6.58243">
        <ele>342.5</ele>
        <time>2017-06-11T06:39:11.999Z</time>
      </trkpt>
      <trkpt lat="47.44347" lon="6.58244">
        <ele>342.6</ele>
        <time>2017-06-11T06:39:12.999Z</time>
      </trkpt>
      <trkpt lat="47.44343" lon="6.58246">
        <ele>342.8</ele>
        <time>2017-06-11T06:39:13.999Z</time>
      </trkpt>
      <trkpt lat="47.4434" lon="6.58247">
        <ele>342.9</ele>
        <time>2017-06-11T06:39:14.999Z</time>
      </trkpt>
      <trkpt lat="47.44337" lon="6.58248">
        <ele>343</ele>
        <time>2017-06-11T06:39:15.999Z</time>
      </trkpt>
      <trkpt lat="47.44334" lon="6.5825">
        <ele>343.2</ele>
        <time>2017-06-11T06:39:16.999Z</time>
      </trkpt>
      <trkpt lat="47.44331" lon="6.58251">
        <ele>343.3</ele>
        <time>2017-06-11T06:39:17.999Z</time>
      </trkpt>
      <trkpt lat="47.44328" lon="6.58252">
        <ele>343.5</ele>
        <time>2017-06-11T06:39:18.999Z</time>
      </trkpt>
      <trkpt lat="47.44325" lon="6.58253">
        <ele>343.6</ele>
        <time>2017-06-11T06:39:19.999Z</time>
      </trkpt>
      <trkpt lat="47.44323" lon="6.58254">
        <ele>343.7</ele>
        <time>2017-06-11T06:39:20.999Z</time>
      </trkpt>
      <trkpt lat="47.4432" lon="6.58254">
        <ele>343.8</ele>
        <time>2017-06-11T06:39:21.999Z</time>
      </trkpt>
      <trkpt lat="47.44318" lon="6.58255">
        <ele>343.8</ele>
        <time>2017-06-11T06:39:22.999Z</time>
      </trkpt>
      <trkpt lat="47.44315" lon="6.58256">
        <ele>343.9</ele>
        <time>2017-06-11T06:39:23.999Z</time>
      </trkpt>
      <trkpt lat="47.44313" lon="6.58257">
        <ele>343.9</ele>
        <time>2017-06-11T06:39:24.999Z</time>
      </trkpt>
      <trkpt lat="47.4431" lon="6.58258">
        <ele>343.9</ele>
        <time>2017-06-11T06:39:25.999Z</time>
      </trkpt>
      <trkpt lat="47.44307" lon="6.5826">
        <ele>344</ele>
        <time>2017-06-11T06:39:26.999Z</time>
      </trkpt>
      <trkpt lat="47.44304" lon="6.58262">
        <ele>344</ele>
        <time>2017-06-11T06:39:27.999Z</time>
      </trkpt>
      <trkpt lat="47.44301" lon="6.58263">
        <ele>344</ele>
        <time>2017-06-11T06:39:28.999Z</time>
      </trkpt>
      <trkpt lat="47.44297" lon="6.58264">
        <ele>344.1</ele>
        <time>2017-06-11T06:39:29.999Z</time>
      </trkpt>
      <trkpt lat="47.44294" lon="6.58265">
        <ele>344.1</ele>
        <time>2017-06-11T06:39:30.999Z</time>
      </trkpt>
      <trkpt lat="47.44291" lon="6.58265">
        <ele>344.1</ele>
        <time>2017-06-11T06:39:31.999Z</time>
      </trkpt>
      <trkpt lat="47.44288" lon="6.58265">
        <ele>344</ele>
        <time>2017-06-11T06:39:32.999Z</time>
      </trkpt>
      <trkpt lat="47.44285" lon="6.58265">
        <ele>344.1</ele>
        <time>2017-06-11T06:39:33.999Z</time>
      </trkpt>
      <trkpt lat="47.44282" lon="6.58265">
        <ele>344</ele>
        <time>2017-06-11T06:39:34.999Z</time>
      </trkpt>
      <trkpt lat="47.44279" lon="6.58266">
        <ele>344.1</ele>
        <time>2017-06-11T06:39:35.999Z</time>
      </trkpt>
      <trkpt lat="47.44277" lon="6.58266">
        <ele>344.1</ele>
        <time>2017-06-11T06:39:36.999Z</time>
      </trkpt>
      <trkpt lat="47.44274" lon="6.58266">
        <ele>344.2</ele>
        <time>2017-06-11T06:39:37.999Z</time>
      </trkpt>
      <trkpt lat="47.44271" lon="6.58266">
        <ele>344.2</ele>
        <time>2017-06-11T06:39:38.999Z</time>
      </trkpt>
      <trkpt lat="47.44268" lon="6.58267">
        <ele>344.1</ele>
        <time>2017-06-11T06:39:39.999Z</time>
      </trkpt>
      <trkpt lat="47.44264" lon="6.58268">
        <ele>344.1</ele>
        <time>2017-06-11T06:39:40.999Z</time>
      </trkpt>
      <trkpt lat="47.44261" lon="6.58268">
        <ele>344.2</ele>
        <time>2017-06-11T06:39:41.999Z</time>
      </trkpt>
      <trkpt lat="47.44258" lon="6.58269">
        <ele>344.2</ele>
        <time>2017-06-11T06:39:42.999Z</time>
      </trkpt>
      <trkpt lat="47.44255" lon="6.5827">
        <ele>344.1</ele>
        <time>2017-06-11T06:39:43.999Z</time>
      </trkpt>
      <trkpt lat="47.44252" lon="6.58271">
        <ele>344.1</ele>
        <time>2017-06-11T06:39:44.999Z</time>
      </trkpt>
      <trkpt lat="47.44249" lon="6.58273">
        <ele>344.2</ele>
        <time>2017-06-11T06:39:45.999Z</time>
      </trkpt>
      <trkpt lat="47.44246" lon="6.58274">
        <ele>344.2</ele>
        <time>2017-06-11T06:39:46.999Z</time>
      </trkpt>
      <trkpt lat="47.44243" lon="6.58276">
        <ele>344.2</ele>
        <time>2017-06-11T06:39:47.999Z</time>
      </trkpt>
      <trkpt lat="47.44241" lon="6.58277">
        <ele>344.2</ele>
        <time>2017-06-11T06:39:48.999Z</time>
      </trkpt>
      <trkpt lat="47.44238" lon="6.58277">
        <ele>344.2</ele>
        <time>2017-06-11T06:39:49.999Z</time>
      </trkpt>
      <trkpt lat="47.44235" lon="6.58278">
        <ele>344.3</ele>
        <time>2017-06-11T06:39:50.999Z</time>
      </trkpt>
      <trkpt lat="47.44232" lon="6.58277">
        <ele>344.4</ele>
        <time>2017-06-11T06:39:51.999Z</time>
      </trkpt>
      <trkpt lat="47.4423" lon="6.58274">
        <ele>344.4</ele>
        <time>2017-06-11T06:39:52.999Z</time>
      </trkpt>
      <trkpt lat="47.44228" lon="6.58271">
        <ele>344.5</ele>
        <time>2017-06-11T06:39:53.999Z</time>
      </trkpt>
      <trkpt lat="47.44226" lon="6.58268">
        <ele>344.5</ele>
        <time>2017-06-11T06:39:54.999Z</time>
      </trkpt>
      <trkpt lat="47.44224" lon="6.58265">
        <ele>344.6</ele>
        <time>2017-06-11T06:39:55.999Z</time>
      </trkpt>
      <trkpt lat="47.44221" lon="6.58263">
        <ele>344.7</ele>
        <time>2017-06-11T06:39:56.999Z</time>
      </trkpt>
      <trkpt lat="47.44217" lon="6.58263">
        <ele>344.7</ele>
        <time>2017-06-11T06:39:57.999Z</time>
      </trkpt>
      <trkpt lat="47.44213" lon="6.58265">
        <ele>344.6</ele>
        <time>2017-06-11T06:39:58.999Z</time>
      </trkpt>
      <trkpt lat="47.44211" lon="6.58268">
        <ele>344.6</ele>
        <time>2017-06-11T06:39:59.999Z</time>
      </trkpt>
      <trkpt lat="47.44209" lon="6.58271">
        <ele>344.7</ele>
        <time>2017-06-11T06:40:00.999Z</time>
      </trkpt>
      <trkpt lat="47.44206" lon="6.58274">
        <ele>344.7</ele>
        <time>2017-06-11T06:40:01.999Z</time>
      </trkpt>
      <trkpt lat="47.44204" lon="6.58277">
        <ele>344.8</ele>
        <time>2017-06-11T06:40:02.999Z</time>
      </trkpt>
      <trkpt lat="47.44201" lon="6.58279">
        <ele>344.9</ele>
        <time>2017-06-11T06:40:03.999Z</time>
      </trkpt>
      <trkpt lat="47.44199" lon="6.58281">
        <ele>344.8</ele>
        <time>2017-06-11T06:40:04.999Z</time>
      </trkpt>
      <trkpt lat="47.44196" lon="6.58284">
        <ele>344.9</ele>
        <time>2017-06-11T06:40:05.999Z</time>
      </trkpt>
      <trkpt lat="47.44193" lon="6.58287">
        <ele>344.9</ele>
        <time>2017-06-11T06:40:06.999Z</time>
      </trkpt>
      <trkpt lat="47.44191" lon="6.58289">
        <ele>345</ele>
        <time>2017-06-11T06:40:07.999Z</time>
      </trkpt>
      <trkpt lat="47.44188" lon="6.58291">
        <ele>345</ele>
        <time>2017-06-11T06:40:08.999Z</time>
      </trkpt>
      <trkpt lat="47.44185" lon="6.58293">
        <ele>345</ele>
        <time>2017-06-11T06:40:09.999Z</time>
      </trkpt>
      <trkpt lat="47.44182" lon="6.58295">
        <ele>345.1</ele>
        <time>2017-06-11T06:40:10.999Z</time>
      </trkpt>
      <trkpt lat="47.44178" lon="6.58297">
        <ele>345.1</ele>
        <time>2017-06-11T06:40:11.999Z</time>
      </trkpt>
      <trkpt lat="47.44175" lon="6.58299">
        <ele>345</ele>
        <time>2017-06-11T06:40:12.999Z</time>
      </trkpt>
      <trkpt lat="47.44172" lon="6.58301">
        <ele>345</ele>
        <time>2017-06-11T06:40:13.999Z</time>
      </trkpt>
      <trkpt lat="47.44169" lon="6.58302">
        <ele>345</ele>
        <time>2017-06-11T06:40:14.999Z</time>
      </trkpt>
      <trkpt lat="47.44166" lon="6.58303">
        <ele>345</ele>
        <time>2017-06-11T06:40:15.999Z</time>
      </trkpt>
      <trkpt lat="47.44162" lon="6.58304">
        <ele>345</ele>
        <time>2017-06-11T06:40:16.999Z</time>
      </trkpt>
      <trkpt lat="47.44159" lon="6.58305">
        <ele>345</ele>
        <time>2017-06-11T06:40:17.999Z</time>
      </trkpt>
      <trkpt lat="47.44156" lon="6.58306">
        <ele>345.1</ele>
        <time>2017-06-11T06:40:18.999Z</time>
      </trkpt>
      <trkpt lat="47.44153" lon="6.58308">
        <ele>345.1</ele>
        <time>2017-06-11T06:40:19.999Z</time>
      </trkpt>
      <trkpt lat="47.44149" lon="6.58309">
        <ele>345.1</ele>
        <time>2017-06-11T06:40:20.999Z</time>
      </trkpt>
      <trkpt lat="47.44147" lon="6.5831">
        <ele>345.1</ele>
        <time>2017-06-11T06:40:21.999Z</time>
      </trkpt>
      <trkpt lat="47.44144" lon="6.58311">
        <ele>345.1</ele>
        <time>2017-06-11T06:40:22.999Z</time>
      </trkpt>
      <trkpt lat="47.44141" lon="6.58312">
        <ele>345.1</ele>
        <time>2017-06-11T06:40:23.999Z</time>
      </trkpt>
      <trkpt lat="47.44138" lon="6.58313">
        <ele>345.1</ele>
        <time>2017-06-11T06:40:24.999Z</time>
      </trkpt>
      <trkpt lat="47.44135" lon="6.58314">
        <ele>345.2</ele>
        <time>2017-06-11T06:40:25.999Z</time>
      </trkpt>
      <trkpt lat="47.44132" lon="6.58315">
        <ele>345.3</ele>
        <time>2017-06-11T06:40:26.999Z</time>
      </trkpt>
      <trkpt lat="47.44128" lon="6.58316">
        <ele>345.3</ele>
        <time>2017-06-11T06:40:27.999Z</time>
      </trkpt>
      <trkpt lat="47.44125" lon="6.58317">
        <ele>345.3</ele>
        <time>2017-06-11T06:40:28.999Z</time>
      </trkpt>
      <trkpt lat="47.44121" lon="6.58318">
        <ele>345.3</ele>
        <time>2017-06-11T06:40:29.999Z</time>
      </trkpt>
      <trkpt lat="47.44118" lon="6.58319">
        <ele>345.4</ele>
        <time>2017-06-11T06:40:30.999Z</time>
      </trkpt>
      <trkpt lat="47.44114" lon="6.5832">
        <ele>345.5</ele>
        <time>2017-06-11T06:40:31.999Z</time>
      </trkpt>
      <trkpt lat="47.44111" lon="6.58321">
        <ele>345.6</ele>
        <time>2017-06-11T06:40:32.999Z</time>
      </trkpt>
      <trkpt lat="47.44109" lon="6.58322">
        <ele>345.6</ele>
        <time>2017-06-11T06:40:33.999Z</time>
      </trkpt>
      <trkpt lat="47.44105" lon="6.58324">
        <ele>345.7</ele>
        <time>2017-06-11T06:40:34.999Z</time>
      </trkpt>
      <trkpt lat="47.44102" lon="6.58324">
        <ele>345.8</ele>
        <time>2017-06-11T06:40:35.999Z</time>
      </trkpt>
      <trkpt lat="47.44099" lon="6.58325">
        <ele>345.9</ele>
        <time>2017-06-11T06:40:36.999Z</time>
      </trkpt>
      <trkpt lat="47.44097" lon="6.58325">
        <ele>346.1</ele>
        <time>2017-06-11T06:40:37.999Z</time>
      </trkpt>
      <trkpt lat="47.44094" lon="6.58325">
        <ele>346.1</ele>
        <time>2017-06-11T06:40:38.999Z</time>
      </trkpt>
      <trkpt lat="47.44091" lon="6.58326">
        <ele>346.2</ele>
        <time>2017-06-11T06:40:39.999Z</time>
      </trkpt>
      <trkpt lat="47.44089" lon="6.58327">
        <ele>346.3</ele>
        <time>2017-06-11T06:40:40.999Z</time>
      </trkpt>
      <trkpt lat="47.44086" lon="6.58327">
        <ele>346.4</ele>
        <time>2017-06-11T06:40:41.999Z</time>
      </trkpt>
      <trkpt lat="47.44083" lon="6.58327">
        <ele>346.5</ele>
        <time>2017-06-11T06:40:42.999Z</time>
      </trkpt>
      <trkpt lat="47.4408" lon="6.58328">
        <ele>346.6</ele>
        <time>2017-06-11T06:40:43.999Z</time>
      </trkpt>
      <trkpt lat="47.44078" lon="6.58329">
        <ele>346.7</ele>
        <time>2017-06-11T06:40:44.999Z</time>
      </trkpt>
      <trkpt lat="47.44076" lon="6.5833">
        <ele>346.8</ele>
        <time>2017-06-11T06:40:45.999Z</time>
      </trkpt>
      <trkpt lat="47.44073" lon="6.58331">
        <ele>347</ele>
        <time>2017-06-11T06:40:46.999Z</time>
      </trkpt>
      <trkpt lat="47.44069" lon="6.58332">
        <ele>347.2</ele>
        <time>2017-06-11T06:40:48.999Z</time>
      </trkpt>
      <trkpt lat="47.44067" lon="6.58333">
        <ele>347.3</ele>
        <time>2017-06-11T06:40:49.999Z</time>
      </trkpt>
      <trkpt lat="47.44064" lon="6.58334">
        <ele>347.5</ele>
        <time>2017-06-11T06:40:50.999Z</time>
      </trkpt>
      <trkpt lat="47.44061" lon="6.58335">
        <ele>347.5</ele>
        <time>2017-06-11T06:40:51.999Z</time>
      </trkpt>
      <trkpt lat="47.44059" lon="6.58335">
        <ele>347.6</ele>
        <time>2017-06-11T06:40:52.999Z</time>
      </trkpt>
      <trkpt lat="47.44056" lon="6.58336">
        <ele>347.7</ele>
        <time>2017-06-11T06:40:53.999Z</time>
      </trkpt>
      <trkpt lat="47.44054" lon="6.58337">
        <ele>347.8</ele>
        <time>2017-06-11T06:40:54.999Z</time>
      </trkpt>
      <trkpt lat="47.44052" lon="6.58338">
        <ele>347.8</ele>
        <time>2017-06-11T06:40:55.999Z</time>
      </trkpt>
      <trkpt lat="47.44049" lon="6.58339">
        <ele>348</ele>
        <time>2017-06-11T06:40:56.999Z</time>
      </trkpt>
      <trkpt lat="47.44046" lon="6.58339">
        <ele>348</ele>
        <time>2017-06-11T06:40:57.999Z</time>
      </trkpt>
      <trkpt lat="47.44044" lon="6.58341">
        <ele>348.1</ele>
        <time>2017-06-11T06:40:58.999Z</time>
      </trkpt>
      <trkpt lat="47.44041" lon="6.58343">
        <ele>348.2</ele>
        <time>2017-06-11T06:40:59.999Z</time>
      </trkpt>
      <trkpt lat="47.44039" lon="6.58343">
        <ele>348.4</ele>
        <time>2017-06-11T06:41:00.999Z</time>
      </trkpt>
      <trkpt lat="47.44036" lon="6.58344">
        <ele>348.6</ele>
        <time>2017-06-11T06:41:01.999Z</time>
      </trkpt>
      <trkpt lat="47.44034" lon="6.58346">
        <ele>348.8</ele>
        <time>2017-06-11T06:41:02.999Z</time>
      </trkpt>
      <trkpt lat="47.44031" lon="6.58347">
        <ele>349</ele>
        <time>2017-06-11T06:41:03.999Z</time>
      </trkpt>
      <trkpt lat="47.44028" lon="6.58348">
        <ele>349.1</ele>
        <time>2017-06-11T06:41:04.999Z</time>
      </trkpt>
      <trkpt lat="47.44025" lon="6.58349">
        <ele>349.2</ele>
        <time>2017-06-11T06:41:05.999Z</time>
      </trkpt>
      <trkpt lat="47.44022" lon="6.5835">
        <ele>349.4</ele>
        <time>2017-06-11T06:41:06.999Z</time>
      </trkpt>
      <trkpt lat="47.4402" lon="6.58351">
        <ele>349.6</ele>
        <time>2017-06-11T06:41:07.999Z</time>
      </trkpt>
      <trkpt lat="47.44017" lon="6.58352">
        <ele>349.9</ele>
        <time>2017-06-11T06:41:08.999Z</time>
      </trkpt>
      <trkpt lat="47.44015" lon="6.58353">
        <ele>350.1</ele>
        <time>2017-06-11T06:41:09.999Z</time>
      </trkpt>
      <trkpt lat="47.44013" lon="6.58354">
        <ele>350.3</ele>
        <time>2017-06-11T06:41:10.999Z</time>
      </trkpt>
      <trkpt lat="47.4401" lon="6.58355">
        <ele>350.5</ele>
        <time>2017-06-11T06:41:11.999Z</time>
      </trkpt>
      <trkpt lat="47.44006" lon="6.58357">
        <ele>350.9</ele>
        <time>2017-06-11T06:41:13.999Z</time>
      </trkpt>
      <trkpt lat="47.44003" lon="6.58358">
        <ele>351</ele>
        <time>2017-06-11T06:41:14.999Z</time>
      </trkpt>
      <trkpt lat="47.44001" lon="6.58359">
        <ele>351.1</ele>
        <time>2017-06-11T06:41:15.999Z</time>
      </trkpt>
      <trkpt lat="47.43999" lon="6.5836">
        <ele>351.2</ele>
        <time>2017-06-11T06:41:16.999Z</time>
      </trkpt>
      <trkpt lat="47.43996" lon="6.5836">
        <ele>351.3</ele>
        <time>2017-06-11T06:41:17.999Z</time>
      </trkpt>
      <trkpt lat="47.43993" lon="6.58361">
        <ele>351.4</ele>
        <time>2017-06-11T06:41:18.999Z</time>
      </trkpt>
      <trkpt lat="47.4399" lon="6.58362">
        <ele>351.5</ele>
        <time>2017-06-11T06:41:19.999Z</time>
      </trkpt>
      <trkpt lat="47.43988" lon="6.58363">
        <ele>351.8</ele>
        <time>2017-06-11T06:41:20.999Z</time>
      </trkpt>
      <trkpt lat="47.43986" lon="6.58363">
        <ele>352</ele>
        <time>2017-06-11T06:41:21.999Z</time>
      </trkpt>
      <trkpt lat="47.43983" lon="6.58365">
        <ele>352.2</ele>
        <time>2017-06-11T06:41:22.999Z</time>
      </trkpt>
      <trkpt lat="47.4398" lon="6.58366">
        <ele>352.3</ele>
        <time>2017-06-11T06:41:23.999Z</time>
      </trkpt>
      <trkpt lat="47.43978" lon="6.58367">
        <ele>352.5</ele>
        <time>2017-06-11T06:41:24.999Z</time>
      </trkpt>
      <trkpt lat="47.43976" lon="6.58368">
        <ele>352.7</ele>
        <time>2017-06-11T06:41:25.999Z</time>
      </trkpt>
      <trkpt lat="47.43973" lon="6.58369">
        <ele>352.9</ele>
        <time>2017-06-11T06:41:26.999Z</time>
      </trkpt>
      <trkpt lat="47.4397" lon="6.5837">
        <ele>353</ele>
        <time>2017-06-11T06:41:27.999Z</time>
      </trkpt>
      <trkpt lat="47.43967" lon="6.58372">
        <ele>353.2</ele>
        <time>2017-06-11T06:41:28.999Z</time>
      </trkpt>
      <trkpt lat="47.43965" lon="6.58374">
        <ele>353.4</ele>
        <time>2017-06-11T06:41:29.999Z</time>
      </trkpt>
      <trkpt lat="47.43962" lon="6.58375">
        <ele>353.5</ele>
        <time>2017-06-11T06:41:30.999Z</time>
      </trkpt>
      <trkpt lat="47.43959" lon="6.58375">
        <ele>353.6</ele>
        <time>2017-06-11T06:41:31.999Z</time>
      </trkpt>
      <trkpt lat="47.43957" lon="6.58376">
        <ele>353.7</ele>
        <time>2017-06-11T06:41:32.999Z</time>
      </trkpt>
      <trkpt lat="47.43954" lon="6.58377">
        <ele>353.9</ele>
        <time>2017-06-11T06:41:33.999Z</time>
      </trkpt>
      <trkpt lat="47.43951" lon="6.58378">
        <ele>354.1</ele>
        <time>2017-06-11T06:41:34.999Z</time>
      </trkpt>
      <trkpt lat="47.43948" lon="6.58379">
        <ele>354.2</ele>
        <time>2017-06-11T06:41:35.999Z</time>
      </trkpt>
      <trkpt lat="47.43945" lon="6.58381">
        <ele>354.3</ele>
        <time>2017-06-11T06:41:36.999Z</time>
      </trkpt>
      <trkpt lat="47.43942" lon="6.58382">
        <ele>354.3</ele>
        <time>2017-06-11T06:41:37.999Z</time>
      </trkpt>
      <trkpt lat="47.43939" lon="6.58382">
        <ele>354.4</ele>
        <time>2017-06-11T06:41:38.999Z</time>
      </trkpt>
      <trkpt lat="47.43937" lon="6.58383">
        <ele>354.6</ele>
        <time>2017-06-11T06:41:39.999Z</time>
      </trkpt>
      <trkpt lat="47.43933" lon="6.58385">
        <ele>354.7</ele>
        <time>2017-06-11T06:41:40.999Z</time>
      </trkpt>
      <trkpt lat="47.43931" lon="6.58386">
        <ele>354.8</ele>
        <time>2017-06-11T06:41:41.999Z</time>
      </trkpt>
      <trkpt lat="47.43928" lon="6.58387">
        <ele>354.9</ele>
        <time>2017-06-11T06:41:42.999Z</time>
      </trkpt>
      <trkpt lat="47.43925" lon="6.58388">
        <ele>355.1</ele>
        <time>2017-06-11T06:41:43.999Z</time>
      </trkpt>
      <trkpt lat="47.43923" lon="6.5839">
        <ele>355.2</ele>
        <time>2017-06-11T06:41:44.999Z</time>
      </trkpt>
      <trkpt lat="47.4392" lon="6.58391">
        <ele>355.5</ele>
        <time>2017-06-11T06:41:45.999Z</time>
      </trkpt>
      <trkpt lat="47.43918" lon="6.58392">
        <ele>355.6</ele>
        <time>2017-06-11T06:41:46.999Z</time>
      </trkpt>
      <trkpt lat="47.43916" lon="6.58393">
        <ele>355.8</ele>
        <time>2017-06-11T06:41:47.999Z</time>
      </trkpt>
      <trkpt lat="47.43913" lon="6.58394">
        <ele>356</ele>
        <time>2017-06-11T06:41:48.999Z</time>
      </trkpt>
      <trkpt lat="47.43911" lon="6.58396">
        <ele>356.2</ele>
        <time>2017-06-11T06:41:49.999Z</time>
      </trkpt>
      <trkpt lat="47.43908" lon="6.58397">
        <ele>356.4</ele>
        <time>2017-06-11T06:41:50.999Z</time>
      </trkpt>
      <trkpt lat="47.43905" lon="6.58398">
        <ele>356.6</ele>
        <time>2017-06-11T06:41:51.999Z</time>
      </trkpt>
      <trkpt lat="47.43902" lon="6.584">
        <ele>356.8</ele>
        <time>2017-06-11T06:41:52.999Z</time>
      </trkpt>
      <trkpt lat="47.43899" lon="6.58401">
        <ele>357</ele>
        <time>2017-06-11T06:41:53.999Z</time>
      </trkpt>
      <trkpt lat="47.43896" lon="6.58402">
        <ele>357.1</ele>
        <time>2017-06-11T06:41:54.999Z</time>
      </trkpt>
      <trkpt lat="47.43894" lon="6.58404">
        <ele>357.3</ele>
        <time>2017-06-11T06:41:55.999Z</time>
      </trkpt>
      <trkpt lat="47.43892" lon="6.58405">
        <ele>357.4</ele>
        <time>2017-06-11T06:41:56.999Z</time>
      </trkpt>
      <trkpt lat="47.43889" lon="6.58407">
        <ele>357.5</ele>
        <time>2017-06-11T06:41:57.999Z</time>
      </trkpt>
      <trkpt lat="47.43886" lon="6.58409">
        <ele>357.6</ele>
        <time>2017-06-11T06:41:58.999Z</time>
      </trkpt>
      <trkpt lat="47.43883" lon="6.58411">
        <ele>357.8</ele>
        <time>2017-06-11T06:41:59.999Z</time>
      </trkpt>
      <trkpt lat="47.4388" lon="6.58412">
        <ele>357.9</ele>
        <time>2017-06-11T06:42:00.999Z</time>
      </trkpt>
      <trkpt lat="47.43877" lon="6.58413">
        <ele>358.1</ele>
        <time>2017-06-11T06:42:01.999Z</time>
      </trkpt>
      <trkpt lat="47.43875" lon="6.58414">
        <ele>358.2</ele>
        <time>2017-06-11T06:42:02.999Z</time>
      </trkpt>
      <trkpt lat="47.43872" lon="6.58416">
        <ele>358.5</ele>
        <time>2017-06-11T06:42:03.999Z</time>
      </trkpt>
      <trkpt lat="47.43869" lon="6.58417">
        <ele>358.7</ele>
        <time>2017-06-11T06:42:04.999Z</time>
      </trkpt>
      <trkpt lat="47.43866" lon="6.58417">
        <ele>359</ele>
        <time>2017-06-11T06:42:05.999Z</time>
      </trkpt>
      <trkpt lat="47.43863" lon="6.58418">
        <ele>359.2</ele>
        <time>2017-06-11T06:42:06.999Z</time>
      </trkpt>
      <trkpt lat="47.4386" lon="6.58419">
        <ele>359.5</ele>
        <time>2017-06-11T06:42:07.999Z</time>
      </trkpt>
      <trkpt lat="47.43856" lon="6.5842">
        <ele>359.7</ele>
        <time>2017-06-11T06:42:08.999Z</time>
      </trkpt>
      <trkpt lat="47.43852" lon="6.58421">
        <ele>360</ele>
        <time>2017-06-11T06:42:10.999Z</time>
      </trkpt>
      <trkpt lat="47.4385" lon="6.58422">
        <ele>360.2</ele>
        <time>2017-06-11T06:42:11.999Z</time>
      </trkpt>
      <trkpt lat="47.43847" lon="6.58424">
        <ele>360.4</ele>
        <time>2017-06-11T06:42:12.999Z</time>
      </trkpt>
      <trkpt lat="47.43845" lon="6.58425">
        <ele>360.6</ele>
        <time>2017-06-11T06:42:13.999Z</time>
      </trkpt>
      <trkpt lat="47.43842" lon="6.58426">
        <ele>360.7</ele>
        <time>2017-06-11T06:42:14.999Z</time>
      </trkpt>
      <trkpt lat="47.4384" lon="6.58427">
        <ele>360.9</ele>
        <time>2017-06-11T06:42:15.999Z</time>
      </trkpt>
      <trkpt lat="47.43838" lon="6.58428">
        <ele>361</ele>
        <time>2017-06-11T06:42:16.999Z</time>
      </trkpt>
      <trkpt lat="47.43835" lon="6.58429">
        <ele>361.2</ele>
        <time>2017-06-11T06:42:17.999Z</time>
      </trkpt>
      <trkpt lat="47.43832" lon="6.5843">
        <ele>361.4</ele>
        <time>2017-06-11T06:42:18.999Z</time>
      </trkpt>
      <trkpt lat="47.4383" lon="6.58431">
        <ele>361.6</ele>
        <time>2017-06-11T06:42:19.999Z</time>
      </trkpt>
      <trkpt lat="47.43827" lon="6.58431">
        <ele>361.9</ele>
        <time>2017-06-11T06:42:20.999Z</time>
      </trkpt>
      <trkpt lat="47.43824" lon="6.58432">
        <ele>362.2</ele>
        <time>2017-06-11T06:42:21.999Z</time>
      </trkpt>
      <trkpt lat="47.4382" lon="6.58433">
        <ele>362.4</ele>
        <time>2017-06-11T06:42:22.999Z</time>
      </trkpt>
      <trkpt lat="47.43818" lon="6.58433">
        <ele>362.5</ele>
        <time>2017-06-11T06:42:23.999Z</time>
      </trkpt>
      <trkpt lat="47.43815" lon="6.58434">
        <ele>362.7</ele>
        <time>2017-06-11T06:42:24.999Z</time>
      </trkpt>
      <trkpt lat="47.43812" lon="6.58435">
        <ele>362.9</ele>
        <time>2017-06-11T06:42:25.999Z</time>
      </trkpt>
      <trkpt lat="47.43809" lon="6.58435">
        <ele>363</ele>
        <time>2017-06-11T06:42:26.999Z</time>
      </trkpt>
      <trkpt lat="47.43806" lon="6.58436">
        <ele>363.2</ele>
        <time>2017-06-11T06:42:27.999Z</time>
      </trkpt>
      <trkpt lat="47.43803" lon="6.58436">
        <ele>363.4</ele>
        <time>2017-06-11T06:42:28.999Z</time>
      </trkpt>
      <trkpt lat="47.438" lon="6.58437">
        <ele>363.6</ele>
        <time>2017-06-11T06:42:29.999Z</time>
      </trkpt>
      <trkpt lat="47.43798" lon="6.58438">
        <ele>363.8</ele>
        <time>2017-06-11T06:42:30.999Z</time>
      </trkpt>
      <trkpt lat="47.43795" lon="6.58439">
        <ele>363.8</ele>
        <time>2017-06-11T06:42:31.999Z</time>
      </trkpt>
      <trkpt lat="47.43791" lon="6.58441">
        <ele>364</ele>
        <time>2017-06-11T06:42:32.999Z</time>
      </trkpt>
      <trkpt lat="47.43789" lon="6.58442">
        <ele>364.2</ele>
        <time>2017-06-11T06:42:33.999Z</time>
      </trkpt>
      <trkpt lat="47.43786" lon="6.58444">
        <ele>364.3</ele>
        <time>2017-06-11T06:42:34.999Z</time>
      </trkpt>
      <trkpt lat="47.43783" lon="6.58445">
        <ele>364.5</ele>
        <time>2017-06-11T06:42:35.999Z</time>
      </trkpt>
      <trkpt lat="47.43779" lon="6.58445">
        <ele>364.9</ele>
        <time>2017-06-11T06:42:37.999Z</time>
      </trkpt>
      <trkpt lat="47.43777" lon="6.58442">
        <ele>365.1</ele>
        <time>2017-06-11T06:42:38.999Z</time>
      </trkpt>
      <trkpt lat="47.43776" lon="6.58438">
        <ele>365.3</ele>
        <time>2017-06-11T06:42:39.999Z</time>
      </trkpt>
      <trkpt lat="47.43775" lon="6.58434">
        <ele>365.5</ele>
        <time>2017-06-11T06:42:40.999Z</time>
      </trkpt>
      <trkpt lat="47.43775" lon="6.58429">
        <ele>365.6</ele>
        <time>2017-06-11T06:42:41.999Z</time>
      </trkpt>
      <trkpt lat="47.43773" lon="6.58423">
        <ele>368</ele>
        <time>2017-06-11T06:42:42.999Z</time>
      </trkpt>
      <trkpt lat="47.43773" lon="6.58416">
        <ele>369.5</ele>
        <time>2017-06-11T06:42:43.999Z</time>
      </trkpt>
      <trkpt lat="47.43772" lon="6.58409">
        <ele>370.4</ele>
        <time>2017-06-11T06:42:44.999Z</time>
      </trkpt>
      <trkpt lat="47.43771" lon="6.584">
        <ele>371.2</ele>
        <time>2017-06-11T06:42:45.999Z</time>
      </trkpt>
      <trkpt lat="47.43769" lon="6.58393">
        <ele>371.4</ele>
        <time>2017-06-11T06:42:46.999Z</time>
      </trkpt>
      <trkpt lat="47.43767" lon="6.58384">
        <ele>371.1</ele>
        <time>2017-06-11T06:42:47.999Z</time>
      </trkpt>
      <trkpt lat="47.43765" lon="6.58376">
        <ele>369.9</ele>
        <time>2017-06-11T06:42:48.999Z</time>
      </trkpt>
      <trkpt lat="47.43764" lon="6.58366">
        <ele>368.4</ele>
        <time>2017-06-11T06:42:49.999Z</time>
      </trkpt>
      <trkpt lat="47.43763" lon="6.58358">
        <ele>367.2</ele>
        <time>2017-06-11T06:42:50.999Z</time>
      </trkpt>
      <trkpt lat="47.43762" lon="6.58348">
        <ele>366.5</ele>
        <time>2017-06-11T06:42:51.999Z</time>
      </trkpt>
      <trkpt lat="47.43761" lon="6.58338">
        <ele>366.2</ele>
        <time>2017-06-11T06:42:52.999Z</time>
      </trkpt>
      <trkpt lat="47.4376" lon="6.58329">
        <ele>366</ele>
        <time>2017-06-11T06:42:53.999Z</time>
      </trkpt>
      <trkpt lat="47.43759" lon="6.5832">
        <ele>365.9</ele>
        <time>2017-06-11T06:42:54.999Z</time>
      </trkpt>
      <trkpt lat="47.43758" lon="6.58313">
        <ele>365.7</ele>
        <time>2017-06-11T06:42:55.999Z</time>
      </trkpt>
      <trkpt lat="47.43757" lon="6.58307">
        <ele>365.6</ele>
        <time>2017-06-11T06:42:56.999Z</time>
      </trkpt>
      <trkpt lat="47.43756" lon="6.58301">
        <ele>365.5</ele>
        <time>2017-06-11T06:42:57.999Z</time>
      </trkpt>
      <trkpt lat="47.43756" lon="6.58296">
        <ele>365.5</ele>
        <time>2017-06-11T06:42:58.999Z</time>
      </trkpt>
      <trkpt lat="47.43755" lon="6.58291">
        <ele>365.5</ele>
        <time>2017-06-11T06:42:59.999Z</time>
      </trkpt>
      <trkpt lat="47.43754" lon="6.58288">
        <ele>365.4</ele>
        <time>2017-06-11T06:43:00.999Z</time>
      </trkpt>
      <trkpt lat="47.43753" lon="6.58284">
        <ele>365.4</ele>
        <time>2017-06-11T06:43:01.999Z</time>
      </trkpt>
      <trkpt lat="47.43753" lon="6.5828">
        <ele>365.5</ele>
        <time>2017-06-11T06:43:02.999Z</time>
      </trkpt>
      <trkpt lat="47.43752" lon="6.58275">
        <ele>365.6</ele>
        <time>2017-06-11T06:43:03.999Z</time>
      </trkpt>
      <trkpt lat="47.43751" lon="6.58269">
        <ele>365.7</ele>
        <time>2017-06-11T06:43:04.999Z</time>
      </trkpt>
      <trkpt lat="47.4375" lon="6.58265">
        <ele>365.8</ele>
        <time>2017-06-11T06:43:05.999Z</time>
      </trkpt>
      <trkpt lat="47.43749" lon="6.58261">
        <ele>366</ele>
        <time>2017-06-11T06:43:06.999Z</time>
      </trkpt>
      <trkpt lat="47.43748" lon="6.58255">
        <ele>366</ele>
        <time>2017-06-11T06:43:07.999Z</time>
      </trkpt>
      <trkpt lat="47.43747" lon="6.5825">
        <ele>366.1</ele>
        <time>2017-06-11T06:43:08.999Z</time>
      </trkpt>
      <trkpt lat="47.43746" lon="6.58245">
        <ele>366.1</ele>
        <time>2017-06-11T06:43:09.999Z</time>
      </trkpt>
      <trkpt lat="47.43745" lon="6.5824">
        <ele>366.2</ele>
        <time>2017-06-11T06:43:10.999Z</time>
      </trkpt>
      <trkpt lat="47.43744" lon="6.58236">
        <ele>366.2</ele>
        <time>2017-06-11T06:43:11.999Z</time>
      </trkpt>
      <trkpt lat="47.43743" lon="6.58231">
        <ele>366.2</ele>
        <time>2017-06-11T06:43:12.999Z</time>
      </trkpt>
      <trkpt lat="47.43742" lon="6.58226">
        <ele>366.3</ele>
        <time>2017-06-11T06:43:13.999Z</time>
      </trkpt>
      <trkpt lat="47.43741" lon="6.58222">
        <ele>366.3</ele>
        <time>2017-06-11T06:43:14.999Z</time>
      </trkpt>
      <trkpt lat="47.4374" lon="6.58217">
        <ele>366.5</ele>
        <time>2017-06-11T06:43:15.999Z</time>
      </trkpt>
      <trkpt lat="47.4374" lon="6.58213">
        <ele>366.6</ele>
        <time>2017-06-11T06:43:16.999Z</time>
      </trkpt>
      <trkpt lat="47.43739" lon="6.5821">
        <ele>366.6</ele>
        <time>2017-06-11T06:43:17.999Z</time>
      </trkpt>
      <trkpt lat="47.43739" lon="6.58205">
        <ele>366.7</ele>
        <time>2017-06-11T06:43:18.999Z</time>
      </trkpt>
      <trkpt lat="47.43739" lon="6.58201">
        <ele>366.7</ele>
        <time>2017-06-11T06:43:19.999Z</time>
      </trkpt>
      <trkpt lat="47.43739" lon="6.58196">
        <ele>366.7</ele>
        <time>2017-06-11T06:43:20.999Z</time>
      </trkpt>
      <trkpt lat="47.43739" lon="6.58191">
        <ele>366.7</ele>
        <time>2017-06-11T06:43:21.999Z</time>
      </trkpt>
      <trkpt lat="47.43739" lon="6.58187">
        <ele>366.6</ele>
        <time>2017-06-11T06:43:22.999Z</time>
      </trkpt>
      <trkpt lat="47.43739" lon="6.58184">
        <ele>366.6</ele>
        <time>2017-06-11T06:43:23.999Z</time>
      </trkpt>
      <trkpt lat="47.43738" lon="6.58179">
        <ele>366.5</ele>
        <time>2017-06-11T06:43:24.999Z</time>
      </trkpt>
      <trkpt lat="47.43738" lon="6.58177">
        <ele>366.4</ele>
        <time>2017-06-11T06:43:25.999Z</time>
      </trkpt>
      <trkpt lat="47.43735" lon="6.58174">
        <ele>366.2</ele>
        <time>2017-06-11T06:43:27.999Z</time>
      </trkpt>
      <trkpt lat="47.43732" lon="6.58176">
        <ele>366.2</ele>
        <time>2017-06-11T06:43:28.999Z</time>
      </trkpt>
      <trkpt lat="47.43728" lon="6.58178">
        <ele>366.2</ele>
        <time>2017-06-11T06:43:29.999Z</time>
      </trkpt>
      <trkpt lat="47.43725" lon="6.58181">
        <ele>366.2</ele>
        <time>2017-06-11T06:43:30.999Z</time>
      </trkpt>
      <trkpt lat="47.43722" lon="6.58184">
        <ele>366.2</ele>
        <time>2017-06-11T06:43:31.999Z</time>
      </trkpt>
      <trkpt lat="47.43718" lon="6.58187">
        <ele>366.2</ele>
        <time>2017-06-11T06:43:32.999Z</time>
      </trkpt>
      <trkpt lat="47.43715" lon="6.5819">
        <ele>366.1</ele>
        <time>2017-06-11T06:43:33.999Z</time>
      </trkpt>
      <trkpt lat="47.43713" lon="6.58193">
        <ele>366.2</ele>
        <time>2017-06-11T06:43:34.999Z</time>
      </trkpt>
      <trkpt lat="47.4371" lon="6.58196">
        <ele>366.3</ele>
        <time>2017-06-11T06:43:35.999Z</time>
      </trkpt>
      <trkpt lat="47.43707" lon="6.582">
        <ele>366.3</ele>
        <time>2017-06-11T06:43:36.999Z</time>
      </trkpt>
      <trkpt lat="47.43703" lon="6.58204">
        <ele>367.5</ele>
        <time>2017-06-11T06:43:37.999Z</time>
      </trkpt>
      <trkpt lat="47.437" lon="6.58207">
        <ele>367.7</ele>
        <time>2017-06-11T06:43:38.999Z</time>
      </trkpt>
      <trkpt lat="47.43697" lon="6.58211">
        <ele>367.8</ele>
        <time>2017-06-11T06:43:39.999Z</time>
      </trkpt>
      <trkpt lat="47.43694" lon="6.58214">
        <ele>369.6</ele>
        <time>2017-06-11T06:43:40.999Z</time>
      </trkpt>
      <trkpt lat="47.4369" lon="6.58218">
        <ele>371.1</ele>
        <time>2017-06-11T06:43:41.999Z</time>
      </trkpt>
      <trkpt lat="47.43687" lon="6.5822">
        <ele>371.2</ele>
        <time>2017-06-11T06:43:42.999Z</time>
      </trkpt>
      <trkpt lat="47.43684" lon="6.58223">
        <ele>371.4</ele>
        <time>2017-06-11T06:43:43.999Z</time>
      </trkpt>
      <trkpt lat="47.4368" lon="6.58226">
        <ele>374.1</ele>
        <time>2017-06-11T06:43:44.999Z</time>
      </trkpt>
      <trkpt lat="47.43676" lon="6.5823">
        <ele>375.2</ele>
        <time>2017-06-11T06:43:45.999Z</time>
      </trkpt>
      <trkpt lat="47.43673" lon="6.58233">
        <ele>376.1</ele>
        <time>2017-06-11T06:43:46.999Z</time>
      </trkpt>
      <trkpt lat="47.4367" lon="6.58236">
        <ele>377</ele>
        <time>2017-06-11T06:43:47.999Z</time>
      </trkpt>
      <trkpt lat="47.43667" lon="6.58239">
        <ele>377.6</ele>
        <time>2017-06-11T06:43:48.999Z</time>
      </trkpt>
      <trkpt lat="47.43664" lon="6.58243">
        <ele>378.3</ele>
        <time>2017-06-11T06:43:49.999Z</time>
      </trkpt>
      <trkpt lat="47.43661" lon="6.58246">
        <ele>378.3</ele>
        <time>2017-06-11T06:43:50.999Z</time>
      </trkpt>
      <trkpt lat="47.43658" lon="6.5825">
        <ele>378.1</ele>
        <time>2017-06-11T06:43:51.999Z</time>
      </trkpt>
      <trkpt lat="47.43654" lon="6.58253">
        <ele>378.1</ele>
        <time>2017-06-11T06:43:52.999Z</time>
      </trkpt>
      <trkpt lat="47.43652" lon="6.58257">
        <ele>378</ele>
        <time>2017-06-11T06:43:53.999Z</time>
      </trkpt>
      <trkpt lat="47.43648" lon="6.5826">
        <ele>377.9</ele>
        <time>2017-06-11T06:43:54.999Z</time>
      </trkpt>
      <trkpt lat="47.43645" lon="6.58264">
        <ele>376.3</ele>
        <time>2017-06-11T06:43:55.999Z</time>
      </trkpt>
      <trkpt lat="47.43643" lon="6.58267">
        <ele>376.2</ele>
        <time>2017-06-11T06:43:56.999Z</time>
      </trkpt>
      <trkpt lat="47.4364" lon="6.5827">
        <ele>376.1</ele>
        <time>2017-06-11T06:43:57.999Z</time>
      </trkpt>
      <trkpt lat="47.43637" lon="6.58273">
        <ele>376</ele>
        <time>2017-06-11T06:43:58.999Z</time>
      </trkpt>
      <trkpt lat="47.43634" lon="6.58276">
        <ele>375.9</ele>
        <time>2017-06-11T06:43:59.999Z</time>
      </trkpt>
      <trkpt lat="47.4363" lon="6.5828">
        <ele>375.1</ele>
        <time>2017-06-11T06:44:00.999Z</time>
      </trkpt>
      <trkpt lat="47.43627" lon="6.58283">
        <ele>374.9</ele>
        <time>2017-06-11T06:44:01.999Z</time>
      </trkpt>
      <trkpt lat="47.43623" lon="6.58287">
        <ele>374.9</ele>
        <time>2017-06-11T06:44:02.999Z</time>
      </trkpt>
      <trkpt lat="47.4362" lon="6.5829">
        <ele>374.8</ele>
        <time>2017-06-11T06:44:03.999Z</time>
      </trkpt>
      <trkpt lat="47.43616" lon="6.58293">
        <ele>374.7</ele>
        <time>2017-06-11T06:44:04.999Z</time>
      </trkpt>
      <trkpt lat="47.43613" lon="6.58296">
        <ele>374.6</ele>
        <time>2017-06-11T06:44:05.999Z</time>
      </trkpt>
      <trkpt lat="47.4361" lon="6.583">
        <ele>373.9</ele>
        <time>2017-06-11T06:44:06.999Z</time>
      </trkpt>
      <trkpt lat="47.43606" lon="6.58304">
        <ele>373.9</ele>
        <time>2017-06-11T06:44:07.999Z</time>
      </trkpt>
      <trkpt lat="47.43603" lon="6.58307">
        <ele>374.2</ele>
        <time>2017-06-11T06:44:08.999Z</time>
      </trkpt>
      <trkpt lat="47.43599" lon="6.58312">
        <ele>374.8</ele>
        <time>2017-06-11T06:44:09.999Z</time>
      </trkpt>
      <trkpt lat="47.43595" lon="6.58316">
        <ele>374.5</ele>
        <time>2017-06-11T06:44:10.999Z</time>
      </trkpt>
      <trkpt lat="47.43592" lon="6.58319">
        <ele>374.7</ele>
        <time>2017-06-11T06:44:11.999Z</time>
      </trkpt>
      <trkpt lat="47.43589" lon="6.58322">
        <ele>374.2</ele>
        <time>2017-06-11T06:44:12.999Z</time>
      </trkpt>
      <trkpt lat="47.43586" lon="6.58325">
        <ele>373.9</ele>
        <time>2017-06-11T06:44:13.999Z</time>
      </trkpt>
      <trkpt lat="47.43583" lon="6.58329">
        <ele>374.1</ele>
        <time>2017-06-11T06:44:14.999Z</time>
      </trkpt>
      <trkpt lat="47.4358" lon="6.58331">
        <ele>374.2</ele>
        <time>2017-06-11T06:44:15.999Z</time>
      </trkpt>
      <trkpt lat="47.43578" lon="6.58334">
        <ele>374.2</ele>
        <time>2017-06-11T06:44:16.999Z</time>
      </trkpt>
      <trkpt lat="47.43575" lon="6.58337">
        <ele>374.6</ele>
        <time>2017-06-11T06:44:17.999Z</time>
      </trkpt>
      <trkpt lat="47.43571" lon="6.5834">
        <ele>375</ele>
        <time>2017-06-11T06:44:18.999Z</time>
      </trkpt>
      <trkpt lat="47.43568" lon="6.58344">
        <ele>375.5</ele>
        <time>2017-06-11T06:44:19.999Z</time>
      </trkpt>
      <trkpt lat="47.43565" lon="6.58348">
        <ele>375.6</ele>
        <time>2017-06-11T06:44:20.999Z</time>
      </trkpt>
      <trkpt lat="47.43562" lon="6.58352">
        <ele>376.3</ele>
        <time>2017-06-11T06:44:21.999Z</time>
      </trkpt>
      <trkpt lat="47.43559" lon="6.58355">
        <ele>376.2</ele>
        <time>2017-06-11T06:44:22.999Z</time>
      </trkpt>
      <trkpt lat="47.43556" lon="6.58359">
        <ele>376.2</ele>
        <time>2017-06-11T06:44:23.999Z</time>
      </trkpt>
      <trkpt lat="47.43554" lon="6.58362">
        <ele>376.7</ele>
        <time>2017-06-11T06:44:24.999Z</time>
      </trkpt>
      <trkpt lat="47.43552" lon="6.58367">
        <ele>376.8</ele>
        <time>2017-06-11T06:44:25.999Z</time>
      </trkpt>
      <trkpt lat="47.43549" lon="6.58371">
        <ele>376.8</ele>
        <time>2017-06-11T06:44:26.999Z</time>
      </trkpt>
      <trkpt lat="47.43545" lon="6.58374">
        <ele>376.8</ele>
        <time>2017-06-11T06:44:27.999Z</time>
      </trkpt>
      <trkpt lat="47.43542" lon="6.58377">
        <ele>376.8</ele>
        <time>2017-06-11T06:44:28.999Z</time>
      </trkpt>
      <trkpt lat="47.43539" lon="6.58381">
        <ele>376.8</ele>
        <time>2017-06-11T06:44:29.999Z</time>
      </trkpt>
      <trkpt lat="47.43536" lon="6.58384">
        <ele>376.9</ele>
        <time>2017-06-11T06:44:30.999Z</time>
      </trkpt>
      <trkpt lat="47.43533" lon="6.58388">
        <ele>376.8</ele>
        <time>2017-06-11T06:44:31.999Z</time>
      </trkpt>
      <trkpt lat="47.43531" lon="6.58392">
        <ele>376.8</ele>
        <time>2017-06-11T06:44:32.999Z</time>
      </trkpt>
      <trkpt lat="47.43527" lon="6.58396">
        <ele>376.8</ele>
        <time>2017-06-11T06:44:33.999Z</time>
      </trkpt>
      <trkpt lat="47.43524" lon="6.58399">
        <ele>376.8</ele>
        <time>2017-06-11T06:44:34.999Z</time>
      </trkpt>
      <trkpt lat="47.43521" lon="6.58402">
        <ele>376.8</ele>
        <time>2017-06-11T06:44:35.999Z</time>
      </trkpt>
      <trkpt lat="47.43519" lon="6.58405">
        <ele>376.8</ele>
        <time>2017-06-11T06:44:36.999Z</time>
      </trkpt>
      <trkpt lat="47.43516" lon="6.58408">
        <ele>376.9</ele>
        <time>2017-06-11T06:44:37.999Z</time>
      </trkpt>
      <trkpt lat="47.43513" lon="6.58411">
        <ele>376.8</ele>
        <time>2017-06-11T06:44:38.999Z</time>
      </trkpt>
      <trkpt lat="47.4351" lon="6.58414">
        <ele>376.7</ele>
        <time>2017-06-11T06:44:39.999Z</time>
      </trkpt>
      <trkpt lat="47.43507" lon="6.58418">
        <ele>377</ele>
        <time>2017-06-11T06:44:40.999Z</time>
      </trkpt>
      <trkpt lat="47.43504" lon="6.58421">
        <ele>377.2</ele>
        <time>2017-06-11T06:44:41.999Z</time>
      </trkpt>
      <trkpt lat="47.43501" lon="6.58424">
        <ele>377.3</ele>
        <time>2017-06-11T06:44:42.999Z</time>
      </trkpt>
      <trkpt lat="47.43499" lon="6.58427">
        <ele>377.2</ele>
        <time>2017-06-11T06:44:43.999Z</time>
      </trkpt>
      <trkpt lat="47.43496" lon="6.58431">
        <ele>377.5</ele>
        <time>2017-06-11T06:44:44.999Z</time>
      </trkpt>
      <trkpt lat="47.43494" lon="6.58435">
        <ele>378.5</ele>
        <time>2017-06-11T06:44:45.999Z</time>
      </trkpt>
      <trkpt lat="47.43491" lon="6.58438">
        <ele>378.6</ele>
        <time>2017-06-11T06:44:46.999Z</time>
      </trkpt>
      <trkpt lat="47.43488" lon="6.58442">
        <ele>378.7</ele>
        <time>2017-06-11T06:44:47.999Z</time>
      </trkpt>
      <trkpt lat="47.43484" lon="6.58445">
        <ele>378.8</ele>
        <time>2017-06-11T06:44:48.999Z</time>
      </trkpt>
      <trkpt lat="47.43481" lon="6.58449">
        <ele>378.9</ele>
        <time>2017-06-11T06:44:49.999Z</time>
      </trkpt>
      <trkpt lat="47.43478" lon="6.58451">
        <ele>379</ele>
        <time>2017-06-11T06:44:50.999Z</time>
      </trkpt>
      <trkpt lat="47.43476" lon="6.58453">
        <ele>379</ele>
        <time>2017-06-11T06:44:51.999Z</time>
      </trkpt>
      <trkpt lat="47.43473" lon="6.58456">
        <ele>379.1</ele>
        <time>2017-06-11T06:44:52.999Z</time>
      </trkpt>
      <trkpt lat="47.4347" lon="6.58458">
        <ele>379.2</ele>
        <time>2017-06-11T06:44:53.999Z</time>
      </trkpt>
      <trkpt lat="47.43466" lon="6.58462">
        <ele>379.3</ele>
        <time>2017-06-11T06:44:54.999Z</time>
      </trkpt>
      <trkpt lat="47.43463" lon="6.58465">
        <ele>381.2</ele>
        <time>2017-06-11T06:44:55.999Z</time>
      </trkpt>
      <trkpt lat="47.43459" lon="6.58468">
        <ele>381.4</ele>
        <time>2017-06-11T06:44:56.999Z</time>
      </trkpt>
      <trkpt lat="47.43456" lon="6.58472">
        <ele>383.1</ele>
        <time>2017-06-11T06:44:57.999Z</time>
      </trkpt>
      <trkpt lat="47.43453" lon="6.58476">
        <ele>383.1</ele>
        <time>2017-06-11T06:44:58.999Z</time>
      </trkpt>
      <trkpt lat="47.4345" lon="6.58479">
        <ele>383.2</ele>
        <time>2017-06-11T06:44:59.999Z</time>
      </trkpt>
      <trkpt lat="47.43446" lon="6.58483">
        <ele>383.2</ele>
        <time>2017-06-11T06:45:00.999Z</time>
      </trkpt>
      <trkpt lat="47.43443" lon="6.58487">
        <ele>383.6</ele>
        <time>2017-06-11T06:45:01.999Z</time>
      </trkpt>
      <trkpt lat="47.4344" lon="6.5849">
        <ele>383.9</ele>
        <time>2017-06-11T06:45:02.999Z</time>
      </trkpt>
      <trkpt lat="47.43437" lon="6.58494">
        <ele>384.9</ele>
        <time>2017-06-11T06:45:03.999Z</time>
      </trkpt>
      <trkpt lat="47.43434" lon="6.58497">
        <ele>385.4</ele>
        <time>2017-06-11T06:45:04.999Z</time>
      </trkpt>
      <trkpt lat="47.43432" lon="6.58501">
        <ele>386.4</ele>
        <time>2017-06-11T06:45:05.999Z</time>
      </trkpt>
      <trkpt lat="47.43429" lon="6.58507">
        <ele>386.4</ele>
        <time>2017-06-11T06:45:06.999Z</time>
      </trkpt>
      <trkpt lat="47.43426" lon="6.58512">
        <ele>386.8</ele>
        <time>2017-06-11T06:45:07.999Z</time>
      </trkpt>
      <trkpt lat="47.43423" lon="6.58517">
        <ele>387.7</ele>
        <time>2017-06-11T06:45:08.999Z</time>
      </trkpt>
      <trkpt lat="47.4342" lon="6.58521">
        <ele>388.5</ele>
        <time>2017-06-11T06:45:09.999Z</time>
      </trkpt>
      <trkpt lat="47.43417" lon="6.58525">
        <ele>389.5</ele>
        <time>2017-06-11T06:45:10.999Z</time>
      </trkpt>
      <trkpt lat="47.43413" lon="6.58529">
        <ele>390.3</ele>
        <time>2017-06-11T06:45:11.999Z</time>
      </trkpt>
      <trkpt lat="47.4341" lon="6.58532">
        <ele>391.4</ele>
        <time>2017-06-11T06:45:12.999Z</time>
      </trkpt>
      <trkpt lat="47.43407" lon="6.58535">
        <ele>392.3</ele>
        <time>2017-06-11T06:45:13.999Z</time>
      </trkpt>
      <trkpt lat="47.43403" lon="6.58538">
        <ele>393</ele>
        <time>2017-06-11T06:45:14.999Z</time>
      </trkpt>
      <trkpt lat="47.434" lon="6.58541">
        <ele>393</ele>
        <time>2017-06-11T06:45:15.999Z</time>
      </trkpt>
      <trkpt lat="47.43397" lon="6.58544">
        <ele>392.9</ele>
        <time>2017-06-11T06:45:16.999Z</time>
      </trkpt>
      <trkpt lat="47.43393" lon="6.58548">
        <ele>392.5</ele>
        <time>2017-06-11T06:45:17.999Z</time>
      </trkpt>
      <trkpt lat="47.43389" lon="6.58551">
        <ele>392.2</ele>
        <time>2017-06-11T06:45:18.999Z</time>
      </trkpt>
      <trkpt lat="47.43386" lon="6.58554">
        <ele>392</ele>
        <time>2017-06-11T06:45:19.999Z</time>
      </trkpt>
      <trkpt lat="47.43382" lon="6.58557">
        <ele>392.1</ele>
        <time>2017-06-11T06:45:20.999Z</time>
      </trkpt>
      <trkpt lat="47.43379" lon="6.58561">
        <ele>392.2</ele>
        <time>2017-06-11T06:45:21.999Z</time>
      </trkpt>
      <trkpt lat="47.43375" lon="6.58564">
        <ele>392</ele>
        <time>2017-06-11T06:45:22.999Z</time>
      </trkpt>
      <trkpt lat="47.43371" lon="6.58567">
        <ele>391.3</ele>
        <time>2017-06-11T06:45:23.999Z</time>
      </trkpt>
      <trkpt lat="47.43367" lon="6.58571">
        <ele>390.9</ele>
        <time>2017-06-11T06:45:24.999Z</time>
      </trkpt>
      <trkpt lat="47.43363" lon="6.58574">
        <ele>390.3</ele>
        <time>2017-06-11T06:45:25.999Z</time>
      </trkpt>
      <trkpt lat="47.43359" lon="6.58577">
        <ele>390.2</ele>
        <time>2017-06-11T06:45:26.999Z</time>
      </trkpt>
      <trkpt lat="47.43356" lon="6.5858">
        <ele>390.1</ele>
        <time>2017-06-11T06:45:27.999Z</time>
      </trkpt>
      <trkpt lat="47.43352" lon="6.58583">
        <ele>390.2</ele>
        <time>2017-06-11T06:45:28.999Z</time>
      </trkpt>
      <trkpt lat="47.43348" lon="6.58588">
        <ele>390.2</ele>
        <time>2017-06-11T06:45:29.999Z</time>
      </trkpt>
      <trkpt lat="47.43344" lon="6.58592">
        <ele>389.6</ele>
        <time>2017-06-11T06:45:30.999Z</time>
      </trkpt>
      <trkpt lat="47.4334" lon="6.58598">
        <ele>389.2</ele>
        <time>2017-06-11T06:45:31.999Z</time>
      </trkpt>
      <trkpt lat="47.43336" lon="6.58603">
        <ele>389</ele>
        <time>2017-06-11T06:45:32.999Z</time>
      </trkpt>
      <trkpt lat="47.43331" lon="6.58607">
        <ele>388.9</ele>
        <time>2017-06-11T06:45:33.999Z</time>
      </trkpt>
      <trkpt lat="47.43327" lon="6.58611">
        <ele>388.4</ele>
        <time>2017-06-11T06:45:34.999Z</time>
      </trkpt>
      <trkpt lat="47.43323" lon="6.58615">
        <ele>388.1</ele>
        <time>2017-06-11T06:45:35.999Z</time>
      </trkpt>
      <trkpt lat="47.43319" lon="6.58619">
        <ele>388.1</ele>
        <time>2017-06-11T06:45:36.999Z</time>
      </trkpt>
      <trkpt lat="47.43315" lon="6.58624">
        <ele>387.2</ele>
        <time>2017-06-11T06:45:37.999Z</time>
      </trkpt>
      <trkpt lat="47.43311" lon="6.58628">
        <ele>386.5</ele>
        <time>2017-06-11T06:45:38.999Z</time>
      </trkpt>
      <trkpt lat="47.43307" lon="6.58631">
        <ele>386.4</ele>
        <time>2017-06-11T06:45:39.999Z</time>
      </trkpt>
      <trkpt lat="47.43303" lon="6.58634">
        <ele>385.7</ele>
        <time>2017-06-11T06:45:40.999Z</time>
      </trkpt>
      <trkpt lat="47.43299" lon="6.58638">
        <ele>384.9</ele>
        <time>2017-06-11T06:45:41.999Z</time>
      </trkpt>
      <trkpt lat="47.43295" lon="6.58642">
        <ele>384.5</ele>
        <time>2017-06-11T06:45:42.999Z</time>
      </trkpt>
      <trkpt lat="47.43291" lon="6.58646">
        <ele>383.9</ele>
        <time>2017-06-11T06:45:43.999Z</time>
      </trkpt>
      <trkpt lat="47.43287" lon="6.5865">
        <ele>383.2</ele>
        <time>2017-06-11T06:45:44.999Z</time>
      </trkpt>
      <trkpt lat="47.43282" lon="6.58654">
        <ele>382.4</ele>
        <time>2017-06-11T06:45:45.999Z</time>
      </trkpt>
      <trkpt lat="47.43278" lon="6.58659">
        <ele>381.5</ele>
        <time>2017-06-11T06:45:46.999Z</time>
      </trkpt>
      <trkpt lat="47.43274" lon="6.58663">
        <ele>381.3</ele>
        <time>2017-06-11T06:45:47.999Z</time>
      </trkpt>
      <trkpt lat="47.4327" lon="6.58666">
        <ele>381.5</ele>
        <time>2017-06-11T06:45:48.999Z</time>
      </trkpt>
      <trkpt lat="47.43266" lon="6.58669">
        <ele>381.5</ele>
        <time>2017-06-11T06:45:49.999Z</time>
      </trkpt>
      <trkpt lat="47.43263" lon="6.58673">
        <ele>381.5</ele>
        <time>2017-06-11T06:45:50.999Z</time>
      </trkpt>
      <trkpt lat="47.43259" lon="6.58676">
        <ele>380.9</ele>
        <time>2017-06-11T06:45:51.999Z</time>
      </trkpt>
      <trkpt lat="47.43254" lon="6.5868">
        <ele>380.2</ele>
        <time>2017-06-11T06:45:52.999Z</time>
      </trkpt>
      <trkpt lat="47.4325" lon="6.58683">
        <ele>379.7</ele>
        <time>2017-06-11T06:45:53.999Z</time>
      </trkpt>
      <trkpt lat="47.43247" lon="6.58687">
        <ele>380.5</ele>
        <time>2017-06-11T06:45:54.999Z</time>
      </trkpt>
      <trkpt lat="47.43243" lon="6.58689">
        <ele>381.2</ele>
        <time>2017-06-11T06:45:55.999Z</time>
      </trkpt>
      <trkpt lat="47.4324" lon="6.58691">
        <ele>381.8</ele>
        <time>2017-06-11T06:45:56.999Z</time>
      </trkpt>
      <trkpt lat="47.43236" lon="6.58693">
        <ele>382.8</ele>
        <time>2017-06-11T06:45:57.999Z</time>
      </trkpt>
      <trkpt lat="47.43232" lon="6.58696">
        <ele>383.4</ele>
        <time>2017-06-11T06:45:58.999Z</time>
      </trkpt>
      <trkpt lat="47.43228" lon="6.58698">
        <ele>383.7</ele>
        <time>2017-06-11T06:45:59.999Z</time>
      </trkpt>
      <trkpt lat="47.43224" lon="6.587">
        <ele>383.7</ele>
        <time>2017-06-11T06:46:00.999Z</time>
      </trkpt>
      <trkpt lat="47.4322" lon="6.58702">
        <ele>383.8</ele>
        <time>2017-06-11T06:46:01.999Z</time>
      </trkpt>
      <trkpt lat="47.43216" lon="6.58705">
        <ele>383.7</ele>
        <time>2017-06-11T06:46:02.999Z</time>
      </trkpt>
      <trkpt lat="47.43212" lon="6.58707">
        <ele>383.9</ele>
        <time>2017-06-11T06:46:03.999Z</time>
      </trkpt>
      <trkpt lat="47.43208" lon="6.58709">
        <ele>384.1</ele>
        <time>2017-06-11T06:46:04.999Z</time>
      </trkpt>
      <trkpt lat="47.43205" lon="6.58711">
        <ele>384.2</ele>
        <time>2017-06-11T06:46:05.999Z</time>
      </trkpt>
      <trkpt lat="47.43202" lon="6.58713">
        <ele>384.1</ele>
        <time>2017-06-11T06:46:06.999Z</time>
      </trkpt>
      <trkpt lat="47.43199" lon="6.58716">
        <ele>383.8</ele>
        <time>2017-06-11T06:46:07.999Z</time>
      </trkpt>
      <trkpt lat="47.43195" lon="6.58719">
        <ele>383.5</ele>
        <time>2017-06-11T06:46:08.999Z</time>
      </trkpt>
      <trkpt lat="47.43191" lon="6.58721">
        <ele>383.3</ele>
        <time>2017-06-11T06:46:09.999Z</time>
      </trkpt>
      <trkpt lat="47.43187" lon="6.58724">
        <ele>382.8</ele>
        <time>2017-06-11T06:46:10.999Z</time>
      </trkpt>
      <trkpt lat="47.43183" lon="6.58727">
        <ele>382.2</ele>
        <time>2017-06-11T06:46:11.999Z</time>
      </trkpt>
      <trkpt lat="47.4318" lon="6.58729">
        <ele>382.1</ele>
        <time>2017-06-11T06:46:12.999Z</time>
      </trkpt>
      <trkpt lat="47.43176" lon="6.58731">
        <ele>382.2</ele>
        <time>2017-06-11T06:46:13.999Z</time>
      </trkpt>
      <trkpt lat="47.43171" lon="6.58733">
        <ele>381.8</ele>
        <time>2017-06-11T06:46:14.999Z</time>
      </trkpt>
      <trkpt lat="47.43166" lon="6.58732">
        <ele>381.6</ele>
        <time>2017-06-11T06:46:15.999Z</time>
      </trkpt>
      <trkpt lat="47.43163" lon="6.58729">
        <ele>381.5</ele>
        <time>2017-06-11T06:46:16.999Z</time>
      </trkpt>
      <trkpt lat="47.43161" lon="6.58725">
        <ele>381.4</ele>
        <time>2017-06-11T06:46:17.999Z</time>
      </trkpt>
      <trkpt lat="47.4316" lon="6.58718">
        <ele>381.1</ele>
        <time>2017-06-11T06:46:18.999Z</time>
      </trkpt>
      <trkpt lat="47.43159" lon="6.58712">
        <ele>380.5</ele>
        <time>2017-06-11T06:46:19.999Z</time>
      </trkpt>
      <trkpt lat="47.43157" lon="6.58706">
        <ele>380</ele>
        <time>2017-06-11T06:46:20.999Z</time>
      </trkpt>
      <trkpt lat="47.43155" lon="6.587">
        <ele>379.6</ele>
        <time>2017-06-11T06:46:21.999Z</time>
      </trkpt>
      <trkpt lat="47.43154" lon="6.58694">
        <ele>379.8</ele>
        <time>2017-06-11T06:46:22.999Z</time>
      </trkpt>
      <trkpt lat="47.43153" lon="6.58688">
        <ele>380.1</ele>
        <time>2017-06-11T06:46:23.999Z</time>
      </trkpt>
      <trkpt lat="47.43152" lon="6.58682">
        <ele>380.4</ele>
        <time>2017-06-11T06:46:24.999Z</time>
      </trkpt>
      <trkpt lat="47.43152" lon="6.58676">
        <ele>380.5</ele>
        <time>2017-06-11T06:46:25.999Z</time>
      </trkpt>
      <trkpt lat="47.43149" lon="6.58666">
        <ele>380.4</ele>
        <time>2017-06-11T06:46:27.999Z</time>
      </trkpt>
      <trkpt lat="47.43146" lon="6.58662">
        <ele>380.2</ele>
        <time>2017-06-11T06:46:28.999Z</time>
      </trkpt>
      <trkpt lat="47.43143" lon="6.58659">
        <ele>380</ele>
        <time>2017-06-11T06:46:29.999Z</time>
      </trkpt>
      <trkpt lat="47.43139" lon="6.58655">
        <ele>380</ele>
        <time>2017-06-11T06:46:30.999Z</time>
      </trkpt>
      <trkpt lat="47.43136" lon="6.58652">
        <ele>379.5</ele>
        <time>2017-06-11T06:46:31.999Z</time>
      </trkpt>
      <trkpt lat="47.43131" lon="6.58648">
        <ele>379.6</ele>
        <time>2017-06-11T06:46:32.999Z</time>
      </trkpt>
      <trkpt lat="47.43127" lon="6.58646">
        <ele>379.1</ele>
        <time>2017-06-11T06:46:33.999Z</time>
      </trkpt>
      <trkpt lat="47.43123" lon="6.58644">
        <ele>378.9</ele>
        <time>2017-06-11T06:46:34.999Z</time>
      </trkpt>
      <trkpt lat="47.43118" lon="6.58641">
        <ele>379.2</ele>
        <time>2017-06-11T06:46:35.999Z</time>
      </trkpt>
      <trkpt lat="47.43114" lon="6.58638">
        <ele>380.3</ele>
        <time>2017-06-11T06:46:36.999Z</time>
      </trkpt>
      <trkpt lat="47.43109" lon="6.58636">
        <ele>381.1</ele>
        <time>2017-06-11T06:46:37.999Z</time>
      </trkpt>
      <trkpt lat="47.43104" lon="6.58633">
        <ele>381.2</ele>
        <time>2017-06-11T06:46:38.999Z</time>
      </trkpt>
      <trkpt lat="47.43099" lon="6.58633">
        <ele>381</ele>
        <time>2017-06-11T06:46:39.999Z</time>
      </trkpt>
      <trkpt lat="47.43086" lon="6.58632">
        <ele>380.2</ele>
        <time>2017-06-11T06:46:42.999Z</time>
      </trkpt>
      <trkpt lat="47.43082" lon="6.58632">
        <ele>380</ele>
        <time>2017-06-11T06:46:43.999Z</time>
      </trkpt>
      <trkpt lat="47.43077" lon="6.58632">
        <ele>379.6</ele>
        <time>2017-06-11T06:46:44.999Z</time>
      </trkpt>
      <trkpt lat="47.43072" lon="6.58632">
        <ele>379.4</ele>
        <time>2017-06-11T06:46:45.999Z</time>
      </trkpt>
      <trkpt lat="47.43068" lon="6.58634">
        <ele>379</ele>
        <time>2017-06-11T06:46:46.999Z</time>
      </trkpt>
      <trkpt lat="47.43057" lon="6.58637">
        <ele>379.4</ele>
        <time>2017-06-11T06:46:49.999Z</time>
      </trkpt>
      <trkpt lat="47.43053" lon="6.58637">
        <ele>379.1</ele>
        <time>2017-06-11T06:46:50.999Z</time>
      </trkpt>
      <trkpt lat="47.43051" lon="6.58637">
        <ele>379.1</ele>
        <time>2017-06-11T06:46:51.999Z</time>
      </trkpt>
      <trkpt lat="47.43047" lon="6.58638">
        <ele>379.1</ele>
        <time>2017-06-11T06:46:52.999Z</time>
      </trkpt>
      <trkpt lat="47.43044" lon="6.58638">
        <ele>379.2</ele>
        <time>2017-06-11T06:46:53.999Z</time>
      </trkpt>
      <trkpt lat="47.43041" lon="6.58639">
        <ele>379.2</ele>
        <time>2017-06-11T06:46:54.999Z</time>
      </trkpt>
      <trkpt lat="47.43035" lon="6.58641">
        <ele>379.3</ele>
        <time>2017-06-11T06:46:56.999Z</time>
      </trkpt>
      <trkpt lat="47.43032" lon="6.5864">
        <ele>379.3</ele>
        <time>2017-06-11T06:46:57.999Z</time>
      </trkpt>
      <trkpt lat="47.43028" lon="6.58638">
        <ele>379.6</ele>
        <time>2017-06-11T06:46:58.999Z</time>
      </trkpt>
      <trkpt lat="47.43024" lon="6.58637">
        <ele>379.6</ele>
        <time>2017-06-11T06:46:59.999Z</time>
      </trkpt>
      <trkpt lat="47.4302" lon="6.58637">
        <ele>379.5</ele>
        <time>2017-06-11T06:47:00.999Z</time>
      </trkpt>
      <trkpt lat="47.43016" lon="6.58637">
        <ele>379.7</ele>
        <time>2017-06-11T06:47:01.999Z</time>
      </trkpt>
      <trkpt lat="47.43013" lon="6.58636">
        <ele>379.7</ele>
        <time>2017-06-11T06:47:02.999Z</time>
      </trkpt>
      <trkpt lat="47.43009" lon="6.58636">
        <ele>380.1</ele>
        <time>2017-06-11T06:47:03.999Z</time>
      </trkpt>
      <trkpt lat="47.43005" lon="6.58636">
        <ele>380.1</ele>
        <time>2017-06-11T06:47:04.999Z</time>
      </trkpt>
      <trkpt lat="47.43001" lon="6.58635">
        <ele>380.3</ele>
        <time>2017-06-11T06:47:05.999Z</time>
      </trkpt>
      <trkpt lat="47.42998" lon="6.58635">
        <ele>380.4</ele>
        <time>2017-06-11T06:47:06.999Z</time>
      </trkpt>
      <trkpt lat="47.42996" lon="6.58635">
        <ele>380.5</ele>
        <time>2017-06-11T06:47:07.999Z</time>
      </trkpt>
      <trkpt lat="47.42992" lon="6.58635">
        <ele>380.7</ele>
        <time>2017-06-11T06:47:08.999Z</time>
      </trkpt>
      <trkpt lat="47.42989" lon="6.58635">
        <ele>380.9</ele>
        <time>2017-06-11T06:47:09.999Z</time>
      </trkpt>
      <trkpt lat="47.42986" lon="6.58636">
        <ele>381</ele>
        <time>2017-06-11T06:47:10.999Z</time>
      </trkpt>
      <trkpt lat="47.42983" lon="6.58636">
        <ele>381.1</ele>
        <time>2017-06-11T06:47:11.999Z</time>
      </trkpt>
      <trkpt lat="47.42978" lon="6.5864">
        <ele>382.6</ele>
        <time>2017-06-11T06:47:13.999Z</time>
      </trkpt>
      <trkpt lat="47.42974" lon="6.58641">
        <ele>383</ele>
        <time>2017-06-11T06:47:14.999Z</time>
      </trkpt>
      <trkpt lat="47.42962" lon="6.58645">
        <ele>384.1</ele>
        <time>2017-06-11T06:47:17.999Z</time>
      </trkpt>
      <trkpt lat="47.42958" lon="6.58647">
        <ele>384.9</ele>
        <time>2017-06-11T06:47:18.999Z</time>
      </trkpt>
      <trkpt lat="47.42944" lon="6.58654">
        <ele>386</ele>
        <time>2017-06-11T06:47:21.999Z</time>
      </trkpt>
      <trkpt lat="47.42933" lon="6.58659">
        <ele>386.7</ele>
        <time>2017-06-11T06:47:23.999Z</time>
      </trkpt>
      <trkpt lat="47.42922" lon="6.58664">
        <ele>386.1</ele>
        <time>2017-06-11T06:47:25.999Z</time>
      </trkpt>
      <trkpt lat="47.42917" lon="6.58666">
        <ele>385.4</ele>
        <time>2017-06-11T06:47:26.999Z</time>
      </trkpt>
      <trkpt lat="47.42913" lon="6.58668">
        <ele>384.8</ele>
        <time>2017-06-11T06:47:27.999Z</time>
      </trkpt>
      <trkpt lat="47.42909" lon="6.5867">
        <ele>384.9</ele>
        <time>2017-06-11T06:47:28.999Z</time>
      </trkpt>
      <trkpt lat="47.42904" lon="6.58673">
        <ele>385.6</ele>
        <time>2017-06-11T06:47:29.999Z</time>
      </trkpt>
      <trkpt lat="47.42899" lon="6.58675">
        <ele>386.6</ele>
        <time>2017-06-11T06:47:30.999Z</time>
      </trkpt>
      <trkpt lat="47.4289" lon="6.58678">
        <ele>386.5</ele>
        <time>2017-06-11T06:47:32.999Z</time>
      </trkpt>
      <trkpt lat="47.42886" lon="6.5868">
        <ele>385.7</ele>
        <time>2017-06-11T06:47:33.999Z</time>
      </trkpt>
      <trkpt lat="47.42864" lon="6.58689">
        <ele>385</ele>
        <time>2017-06-11T06:47:38.999Z</time>
      </trkpt>
      <trkpt lat="47.4285" lon="6.58694">
        <ele>385.1</ele>
        <time>2017-06-11T06:47:41.999Z</time>
      </trkpt>
      <trkpt lat="47.42847" lon="6.58695">
        <ele>385.1</ele>
        <time>2017-06-11T06:47:42.999Z</time>
      </trkpt>
      <trkpt lat="47.42844" lon="6.58696">
        <ele>385.1</ele>
        <time>2017-06-11T06:47:43.999Z</time>
      </trkpt>
      <trkpt lat="47.42842" lon="6.58697">
        <ele>384.5</ele>
        <time>2017-06-11T06:47:44.999Z</time>
      </trkpt>
      <trkpt lat="47.42839" lon="6.58699">
        <ele>384.1</ele>
        <time>2017-06-11T06:47:45.999Z</time>
      </trkpt>
      <trkpt lat="47.42836" lon="6.587">
        <ele>384.1</ele>
        <time>2017-06-11T06:47:46.999Z</time>
      </trkpt>
      <trkpt lat="47.42834" lon="6.58701">
        <ele>384</ele>
        <time>2017-06-11T06:47:47.999Z</time>
      </trkpt>
      <trkpt lat="47.42831" lon="6.58703">
        <ele>384</ele>
        <time>2017-06-11T06:47:48.999Z</time>
      </trkpt>
      <trkpt lat="47.42825" lon="6.58705">
        <ele>383.8</ele>
        <time>2017-06-11T06:47:50.999Z</time>
      </trkpt>
      <trkpt lat="47.42813" lon="6.58708">
        <ele>383.4</ele>
        <time>2017-06-11T06:47:54.999Z</time>
      </trkpt>
      <trkpt lat="47.4281" lon="6.5871">
        <ele>383.4</ele>
        <time>2017-06-11T06:47:56.999Z</time>
      </trkpt>
      <trkpt lat="47.42807" lon="6.58711">
        <ele>383.3</ele>
        <time>2017-06-11T06:47:57.999Z</time>
      </trkpt>
      <trkpt lat="47.42804" lon="6.58712">
        <ele>383.3</ele>
        <time>2017-06-11T06:47:58.999Z</time>
      </trkpt>
      <trkpt lat="47.42802" lon="6.58712">
        <ele>383.3</ele>
        <time>2017-06-11T06:47:59.999Z</time>
      </trkpt>
      <trkpt lat="47.42797" lon="6.58713">
        <ele>383.3</ele>
        <time>2017-06-11T06:48:01.999Z</time>
      </trkpt>
      <trkpt lat="47.42794" lon="6.58714">
        <ele>383.3</ele>
        <time>2017-06-11T06:48:02.999Z</time>
      </trkpt>
      <trkpt lat="47.42791" lon="6.58715">
        <ele>383.2</ele>
        <time>2017-06-11T06:48:03.999Z</time>
      </trkpt>
      <trkpt lat="47.42788" lon="6.58715">
        <ele>383.2</ele>
        <time>2017-06-11T06:48:04.999Z</time>
      </trkpt>
      <trkpt lat="47.42785" lon="6.58715">
        <ele>383.2</ele>
        <time>2017-06-11T06:48:05.999Z</time>
      </trkpt>
      <trkpt lat="47.42783" lon="6.58716">
        <ele>383.2</ele>
        <time>2017-06-11T06:48:06.999Z</time>
      </trkpt>
      <trkpt lat="47.4278" lon="6.58718">
        <ele>383.1</ele>
        <time>2017-06-11T06:48:07.999Z</time>
      </trkpt>
      <trkpt lat="47.42771" lon="6.58722">
        <ele>383</ele>
        <time>2017-06-11T06:48:11.999Z</time>
      </trkpt>
      <trkpt lat="47.42767" lon="6.58725">
        <ele>383.1</ele>
        <time>2017-06-11T06:48:13.999Z</time>
      </trkpt>
      <trkpt lat="47.42765" lon="6.58726">
        <ele>383</ele>
        <time>2017-06-11T06:48:14.999Z</time>
      </trkpt>
      <trkpt lat="47.42762" lon="6.58728">
        <ele>383</ele>
        <time>2017-06-11T06:48:15.999Z</time>
      </trkpt>
      <trkpt lat="47.42761" lon="6.5873">
        <ele>383</ele>
        <time>2017-06-11T06:48:16.999Z</time>
      </trkpt>
      <trkpt lat="47.42757" lon="6.58731">
        <ele>383.1</ele>
        <time>2017-06-11T06:48:18.999Z</time>
      </trkpt>
      <trkpt lat="47.42756" lon="6.58733">
        <ele>383.2</ele>
        <time>2017-06-11T06:48:19.999Z</time>
      </trkpt>
      <trkpt lat="47.42753" lon="6.58734">
        <ele>383.2</ele>
        <time>2017-06-11T06:48:20.999Z</time>
      </trkpt>
      <trkpt lat="47.4275" lon="6.58736">
        <ele>383.3</ele>
        <time>2017-06-11T06:48:21.999Z</time>
      </trkpt>
      <trkpt lat="47.42748" lon="6.58737">
        <ele>383.4</ele>
        <time>2017-06-11T06:48:22.999Z</time>
      </trkpt>
      <trkpt lat="47.42745" lon="6.58737">
        <ele>383.5</ele>
        <time>2017-06-11T06:48:23.999Z</time>
      </trkpt>
      <trkpt lat="47.42743" lon="6.58738">
        <ele>383.5</ele>
        <time>2017-06-11T06:48:24.999Z</time>
      </trkpt>
      <trkpt lat="47.42741" lon="6.58741">
        <ele>383.6</ele>
        <time>2017-06-11T06:48:25.999Z</time>
      </trkpt>
      <trkpt lat="47.42736" lon="6.58744">
        <ele>383.7</ele>
        <time>2017-06-11T06:48:27.999Z</time>
      </trkpt>
      <trkpt lat="47.42732" lon="6.58747">
        <ele>384</ele>
        <time>2017-06-11T06:48:29.999Z</time>
      </trkpt>
      <trkpt lat="47.42731" lon="6.58749">
        <ele>384.1</ele>
        <time>2017-06-11T06:48:30.999Z</time>
      </trkpt>
      <trkpt lat="47.42727" lon="6.58752">
        <ele>384.4</ele>
        <time>2017-06-11T06:48:32.999Z</time>
      </trkpt>
      <trkpt lat="47.42726" lon="6.58754">
        <ele>384.6</ele>
        <time>2017-06-11T06:48:33.999Z</time>
      </trkpt>
      <trkpt lat="47.42722" lon="6.58757">
        <ele>384.9</ele>
        <time>2017-06-11T06:48:35.999Z</time>
      </trkpt>
      <trkpt lat="47.42721" lon="6.58758">
        <ele>385.2</ele>
        <time>2017-06-11T06:48:36.999Z</time>
      </trkpt>
      <trkpt lat="47.42718" lon="6.5876">
        <ele>385.4</ele>
        <time>2017-06-11T06:48:37.999Z</time>
      </trkpt>
      <trkpt lat="47.42708" lon="6.58766">
        <ele>386.8</ele>
        <time>2017-06-11T06:48:42.999Z</time>
      </trkpt>
      <trkpt lat="47.42701" lon="6.58773">
        <ele>388.2</ele>
        <time>2017-06-11T06:48:46.999Z</time>
      </trkpt>
      <trkpt lat="47.42697" lon="6.58775">
        <ele>388.9</ele>
        <time>2017-06-11T06:48:48.999Z</time>
      </trkpt>
      <trkpt lat="47.42696" lon="6.58776">
        <ele>389.2</ele>
        <time>2017-06-11T06:48:49.999Z</time>
      </trkpt>
      <trkpt lat="47.42693" lon="6.58779">
        <ele>389.6</ele>
        <time>2017-06-11T06:48:51.999Z</time>
      </trkpt>
      <trkpt lat="47.42686" lon="6.58786">
        <ele>390.7</ele>
        <time>2017-06-11T06:48:55.999Z</time>
      </trkpt>
      <trkpt lat="47.42685" lon="6.58787">
        <ele>391</ele>
        <time>2017-06-11T06:48:57.999Z</time>
      </trkpt>
      <trkpt lat="47.42682" lon="6.58789">
        <ele>391.5</ele>
        <time>2017-06-11T06:48:59.999Z</time>
      </trkpt>
      <trkpt lat="47.42678" lon="6.58791">
        <ele>391.9</ele>
        <time>2017-06-11T06:49:00.999Z</time>
      </trkpt>
      <trkpt lat="47.42676" lon="6.58792">
        <ele>392.2</ele>
        <time>2017-06-11T06:49:01.999Z</time>
      </trkpt>
      <trkpt lat="47.42673" lon="6.58794">
        <ele>392.6</ele>
        <time>2017-06-11T06:49:02.999Z</time>
      </trkpt>
      <trkpt lat="47.42671" lon="6.58795">
        <ele>392.9</ele>
        <time>2017-06-11T06:49:03.999Z</time>
      </trkpt>
      <trkpt lat="47.42667" lon="6.58797">
        <ele>394.3</ele>
        <time>2017-06-11T06:49:06.999Z</time>
      </trkpt>
      <trkpt lat="47.42666" lon="6.58797">
        <ele>394.8</ele>
        <time>2017-06-11T06:49:07.999Z</time>
      </trkpt>
      <trkpt lat="47.42662" lon="6.58799">
        <ele>396.3</ele>
        <time>2017-06-11T06:49:10.999Z</time>
      </trkpt>
      <trkpt lat="47.4266" lon="6.58801">
        <ele>396.8</ele>
        <time>2017-06-11T06:49:11.999Z</time>
      </trkpt>
      <trkpt lat="47.42657" lon="6.58802">
        <ele>398.3</ele>
        <time>2017-06-11T06:49:14.999Z</time>
      </trkpt>
      <trkpt lat="47.42653" lon="6.58803">
        <ele>399.2</ele>
        <time>2017-06-11T06:49:16.999Z</time>
      </trkpt>
      <trkpt lat="47.4265" lon="6.58803">
        <ele>400</ele>
        <time>2017-06-11T06:49:18.999Z</time>
      </trkpt>
      <trkpt lat="47.42648" lon="6.58804">
        <ele>400.3</ele>
        <time>2017-06-11T06:49:19.999Z</time>
      </trkpt>
      <trkpt lat="47.42643" lon="6.58804">
        <ele>401</ele>
        <time>2017-06-11T06:49:22.999Z</time>
      </trkpt>
      <trkpt lat="47.42641" lon="6.58805">
        <ele>401.2</ele>
        <time>2017-06-11T06:49:23.999Z</time>
      </trkpt>
      <trkpt lat="47.42638" lon="6.58805">
        <ele>401.4</ele>
        <time>2017-06-11T06:49:24.999Z</time>
      </trkpt>
      <trkpt lat="47.42636" lon="6.58806">
        <ele>401.5</ele>
        <time>2017-06-11T06:49:25.999Z</time>
      </trkpt>
      <trkpt lat="47.42632" lon="6.58805">
        <ele>401.7</ele>
        <time>2017-06-11T06:49:27.999Z</time>
      </trkpt>
      <trkpt lat="47.4263" lon="6.58805">
        <ele>401.8</ele>
        <time>2017-06-11T06:49:28.999Z</time>
      </trkpt>
      <trkpt lat="47.42627" lon="6.58804">
        <ele>401.9</ele>
        <time>2017-06-11T06:49:30.999Z</time>
      </trkpt>
      <trkpt lat="47.42625" lon="6.58803">
        <ele>402.1</ele>
        <time>2017-06-11T06:49:31.999Z</time>
      </trkpt>
      <trkpt lat="47.42623" lon="6.58801">
        <ele>402.2</ele>
        <time>2017-06-11T06:49:32.999Z</time>
      </trkpt>
      <trkpt lat="47.42621" lon="6.58801">
        <ele>402.4</ele>
        <time>2017-06-11T06:49:33.999Z</time>
      </trkpt>
      <trkpt lat="47.42618" lon="6.58798">
        <ele>402.5</ele>
        <time>2017-06-11T06:49:34.999Z</time>
      </trkpt>
      <trkpt lat="47.42617" lon="6.58797">
        <ele>402.6</ele>
        <time>2017-06-11T06:49:35.999Z</time>
      </trkpt>
      <trkpt lat="47.42614" lon="6.58796">
        <ele>402.7</ele>
        <time>2017-06-11T06:49:36.999Z</time>
      </trkpt>
      <trkpt lat="47.42612" lon="6.58795">
        <ele>402.7</ele>
        <time>2017-06-11T06:49:37.999Z</time>
      </trkpt>
      <trkpt lat="47.42609" lon="6.58793">
        <ele>403</ele>
        <time>2017-06-11T06:49:40.999Z</time>
      </trkpt>
      <trkpt lat="47.42604" lon="6.58792">
        <ele>403.2</ele>
        <time>2017-06-11T06:49:41.999Z</time>
      </trkpt>
      <trkpt lat="47.426" lon="6.58791">
        <ele>403.4</ele>
        <time>2017-06-11T06:49:42.999Z</time>
      </trkpt>
      <trkpt lat="47.42595" lon="6.58791">
        <ele>403.6</ele>
        <time>2017-06-11T06:49:43.999Z</time>
      </trkpt>
      <trkpt lat="47.42593" lon="6.58791">
        <ele>403.9</ele>
        <time>2017-06-11T06:49:44.999Z</time>
      </trkpt>
      <trkpt lat="47.4259" lon="6.58791">
        <ele>404.2</ele>
        <time>2017-06-11T06:49:45.999Z</time>
      </trkpt>
      <trkpt lat="47.42588" lon="6.5879">
        <ele>404.4</ele>
        <time>2017-06-11T06:49:46.999Z</time>
      </trkpt>
      <trkpt lat="47.42585" lon="6.58791">
        <ele>404.7</ele>
        <time>2017-06-11T06:49:47.999Z</time>
      </trkpt>
      <trkpt lat="47.42583" lon="6.58792">
        <ele>405</ele>
        <time>2017-06-11T06:49:48.999Z</time>
      </trkpt>
      <trkpt lat="47.42579" lon="6.58792">
        <ele>405.3</ele>
        <time>2017-06-11T06:49:49.999Z</time>
      </trkpt>
      <trkpt lat="47.42577" lon="6.58793">
        <ele>405.6</ele>
        <time>2017-06-11T06:49:50.999Z</time>
      </trkpt>
      <trkpt lat="47.42573" lon="6.58793">
        <ele>406.2</ele>
        <time>2017-06-11T06:49:52.999Z</time>
      </trkpt>
      <trkpt lat="47.42571" lon="6.58792">
        <ele>406.5</ele>
        <time>2017-06-11T06:49:53.999Z</time>
      </trkpt>
      <trkpt lat="47.42567" lon="6.58791">
        <ele>407.2</ele>
        <time>2017-06-11T06:49:55.999Z</time>
      </trkpt>
      <trkpt lat="47.42564" lon="6.5879">
        <ele>407.3</ele>
        <time>2017-06-11T06:49:56.999Z</time>
      </trkpt>
      <trkpt lat="47.4256" lon="6.58789">
        <ele>407.8</ele>
        <time>2017-06-11T06:49:58.999Z</time>
      </trkpt>
      <trkpt lat="47.42558" lon="6.5879">
        <ele>408</ele>
        <time>2017-06-11T06:49:59.999Z</time>
      </trkpt>
      <trkpt lat="47.42556" lon="6.58789">
        <ele>408.2</ele>
        <time>2017-06-11T06:50:00.999Z</time>
      </trkpt>
      <trkpt lat="47.42554" lon="6.58789">
        <ele>408.4</ele>
        <time>2017-06-11T06:50:01.999Z</time>
      </trkpt>
      <trkpt lat="47.42552" lon="6.58789">
        <ele>408.7</ele>
        <time>2017-06-11T06:50:02.999Z</time>
      </trkpt>
      <trkpt lat="47.42549" lon="6.58788">
        <ele>408.9</ele>
        <time>2017-06-11T06:50:03.999Z</time>
      </trkpt>
      <trkpt lat="47.42547" lon="6.58786">
        <ele>409.1</ele>
        <time>2017-06-11T06:50:04.999Z</time>
      </trkpt>
      <trkpt lat="47.42545" lon="6.58785">
        <ele>409.3</ele>
        <time>2017-06-11T06:50:05.999Z</time>
      </trkpt>
      <trkpt lat="47.42541" lon="6.58782">
        <ele>409.8</ele>
        <time>2017-06-11T06:50:07.999Z</time>
      </trkpt>
      <trkpt lat="47.42539" lon="6.5878">
        <ele>410</ele>
        <time>2017-06-11T06:50:08.999Z</time>
      </trkpt>
      <trkpt lat="47.42537" lon="6.58778">
        <ele>410.2</ele>
        <time>2017-06-11T06:50:09.999Z</time>
      </trkpt>
      <trkpt lat="47.42534" lon="6.58775">
        <ele>410.2</ele>
        <time>2017-06-11T06:50:10.999Z</time>
      </trkpt>
      <trkpt lat="47.42531" lon="6.58774">
        <ele>410.3</ele>
        <time>2017-06-11T06:50:11.999Z</time>
      </trkpt>
      <trkpt lat="47.42529" lon="6.58772">
        <ele>410.4</ele>
        <time>2017-06-11T06:50:12.999Z</time>
      </trkpt>
      <trkpt lat="47.42526" lon="6.5877">
        <ele>410.5</ele>
        <time>2017-06-11T06:50:13.999Z</time>
      </trkpt>
      <trkpt lat="47.42524" lon="6.58769">
        <ele>410.6</ele>
        <time>2017-06-11T06:50:14.999Z</time>
      </trkpt>
      <trkpt lat="47.42521" lon="6.58768">
        <ele>410.6</ele>
        <time>2017-06-11T06:50:15.999Z</time>
      </trkpt>
      <trkpt lat="47.42518" lon="6.58766">
        <ele>410.6</ele>
        <time>2017-06-11T06:50:16.999Z</time>
      </trkpt>
      <trkpt lat="47.42515" lon="6.58765">
        <ele>410.5</ele>
        <time>2017-06-11T06:50:17.999Z</time>
      </trkpt>
      <trkpt lat="47.42512" lon="6.58765">
        <ele>410.4</ele>
        <time>2017-06-11T06:50:18.999Z</time>
      </trkpt>
      <trkpt lat="47.42509" lon="6.58765">
        <ele>410.3</ele>
        <time>2017-06-11T06:50:19.999Z</time>
      </trkpt>
      <trkpt lat="47.42506" lon="6.58765">
        <ele>410.2</ele>
        <time>2017-06-11T06:50:20.999Z</time>
      </trkpt>
      <trkpt lat="47.42503" lon="6.58764">
        <ele>410.1</ele>
        <time>2017-06-11T06:50:21.999Z</time>
      </trkpt>
      <trkpt lat="47.42501" lon="6.58764">
        <ele>410.1</ele>
        <time>2017-06-11T06:50:22.999Z</time>
      </trkpt>
      <trkpt lat="47.42498" lon="6.58764">
        <ele>410.1</ele>
        <time>2017-06-11T06:50:23.999Z</time>
      </trkpt>
      <trkpt lat="47.42495" lon="6.58763">
        <ele>410.1</ele>
        <time>2017-06-11T06:50:24.999Z</time>
      </trkpt>
      <trkpt lat="47.42492" lon="6.58763">
        <ele>410</ele>
        <time>2017-06-11T06:50:25.999Z</time>
      </trkpt>
      <trkpt lat="47.42489" lon="6.58763">
        <ele>409.9</ele>
        <time>2017-06-11T06:50:26.999Z</time>
      </trkpt>
      <trkpt lat="47.42486" lon="6.58764">
        <ele>409.7</ele>
        <time>2017-06-11T06:50:27.999Z</time>
      </trkpt>
      <trkpt lat="47.42483" lon="6.58764">
        <ele>409.4</ele>
        <time>2017-06-11T06:50:28.999Z</time>
      </trkpt>
      <trkpt lat="47.4248" lon="6.58765">
        <ele>409.3</ele>
        <time>2017-06-11T06:50:29.999Z</time>
      </trkpt>
      <trkpt lat="47.42477" lon="6.58767">
        <ele>409.2</ele>
        <time>2017-06-11T06:50:30.999Z</time>
      </trkpt>
      <trkpt lat="47.42472" lon="6.58766">
        <ele>409.1</ele>
        <time>2017-06-11T06:50:31.999Z</time>
      </trkpt>
      <trkpt lat="47.42467" lon="6.58765">
        <ele>409.2</ele>
        <time>2017-06-11T06:50:32.999Z</time>
      </trkpt>
      <trkpt lat="47.42465" lon="6.58765">
        <ele>409.3</ele>
        <time>2017-06-11T06:50:33.999Z</time>
      </trkpt>
      <trkpt lat="47.42462" lon="6.58764">
        <ele>409.4</ele>
        <time>2017-06-11T06:50:34.999Z</time>
      </trkpt>
      <trkpt lat="47.4246" lon="6.58763">
        <ele>409.5</ele>
        <time>2017-06-11T06:50:35.999Z</time>
      </trkpt>
      <trkpt lat="47.42457" lon="6.58764">
        <ele>409.6</ele>
        <time>2017-06-11T06:50:36.999Z</time>
      </trkpt>
      <trkpt lat="47.42454" lon="6.58764">
        <ele>409.8</ele>
        <time>2017-06-11T06:50:37.999Z</time>
      </trkpt>
      <trkpt lat="47.42452" lon="6.58763">
        <ele>409.9</ele>
        <time>2017-06-11T06:50:38.999Z</time>
      </trkpt>
      <trkpt lat="47.42448" lon="6.5876">
        <ele>410.4</ele>
        <time>2017-06-11T06:50:40.999Z</time>
      </trkpt>
      <trkpt lat="47.42446" lon="6.58759">
        <ele>410.5</ele>
        <time>2017-06-11T06:50:41.999Z</time>
      </trkpt>
      <trkpt lat="47.42443" lon="6.58758">
        <ele>410.6</ele>
        <time>2017-06-11T06:50:42.999Z</time>
      </trkpt>
      <trkpt lat="47.42441" lon="6.58758">
        <ele>410.8</ele>
        <time>2017-06-11T06:50:43.999Z</time>
      </trkpt>
      <trkpt lat="47.42436" lon="6.58758">
        <ele>410.9</ele>
        <time>2017-06-11T06:50:44.999Z</time>
      </trkpt>
      <trkpt lat="47.42431" lon="6.5876">
        <ele>411.1</ele>
        <time>2017-06-11T06:50:45.999Z</time>
      </trkpt>
      <trkpt lat="47.42429" lon="6.5876">
        <ele>411.4</ele>
        <time>2017-06-11T06:50:46.999Z</time>
      </trkpt>
      <trkpt lat="47.42427" lon="6.5876">
        <ele>411.6</ele>
        <time>2017-06-11T06:50:47.999Z</time>
      </trkpt>
      <trkpt lat="47.42422" lon="6.58761">
        <ele>411.8</ele>
        <time>2017-06-11T06:50:48.999Z</time>
      </trkpt>
      <trkpt lat="47.42419" lon="6.58761">
        <ele>411.9</ele>
        <time>2017-06-11T06:50:49.999Z</time>
      </trkpt>
      <trkpt lat="47.42417" lon="6.5876">
        <ele>412.1</ele>
        <time>2017-06-11T06:50:50.999Z</time>
      </trkpt>
      <trkpt lat="47.42413" lon="6.58759">
        <ele>412.4</ele>
        <time>2017-06-11T06:50:51.999Z</time>
      </trkpt>
      <trkpt lat="47.42408" lon="6.5876">
        <ele>412.6</ele>
        <time>2017-06-11T06:50:52.999Z</time>
      </trkpt>
      <trkpt lat="47.42404" lon="6.58764">
        <ele>412.9</ele>
        <time>2017-06-11T06:50:53.999Z</time>
      </trkpt>
      <trkpt lat="47.42401" lon="6.58764">
        <ele>413.6</ele>
        <time>2017-06-11T06:50:56.999Z</time>
      </trkpt>
      <trkpt lat="47.42397" lon="6.58764">
        <ele>414</ele>
        <time>2017-06-11T06:50:57.999Z</time>
      </trkpt>
      <trkpt lat="47.42391" lon="6.58766">
        <ele>414.5</ele>
        <time>2017-06-11T06:50:58.999Z</time>
      </trkpt>
      <trkpt lat="47.42385" lon="6.58767">
        <ele>414.8</ele>
        <time>2017-06-11T06:50:59.999Z</time>
      </trkpt>
      <trkpt lat="47.42379" lon="6.58765">
        <ele>415</ele>
        <time>2017-06-11T06:51:00.999Z</time>
      </trkpt>
      <trkpt lat="47.42374" lon="6.58763">
        <ele>415.2</ele>
        <time>2017-06-11T06:51:01.999Z</time>
      </trkpt>
      <trkpt lat="47.42369" lon="6.58762">
        <ele>415.2</ele>
        <time>2017-06-11T06:51:02.999Z</time>
      </trkpt>
      <trkpt lat="47.42366" lon="6.58762">
        <ele>415.4</ele>
        <time>2017-06-11T06:51:03.999Z</time>
      </trkpt>
      <trkpt lat="47.4236" lon="6.58761">
        <ele>415.5</ele>
        <time>2017-06-11T06:51:04.999Z</time>
      </trkpt>
      <trkpt lat="47.42357" lon="6.58761">
        <ele>415.6</ele>
        <time>2017-06-11T06:51:05.999Z</time>
      </trkpt>
      <trkpt lat="47.42352" lon="6.58759">
        <ele>415.6</ele>
        <time>2017-06-11T06:51:06.999Z</time>
      </trkpt>
      <trkpt lat="47.42347" lon="6.58758">
        <ele>415.7</ele>
        <time>2017-06-11T06:51:07.999Z</time>
      </trkpt>
      <trkpt lat="47.42345" lon="6.58759">
        <ele>415.8</ele>
        <time>2017-06-11T06:51:08.999Z</time>
      </trkpt>
      <trkpt lat="47.42341" lon="6.58761">
        <ele>416.1</ele>
        <time>2017-06-11T06:51:09.999Z</time>
      </trkpt>
      <trkpt lat="47.42338" lon="6.58762">
        <ele>416.3</ele>
        <time>2017-06-11T06:51:10.999Z</time>
      </trkpt>
      <trkpt lat="47.42334" lon="6.58764">
        <ele>416.6</ele>
        <time>2017-06-11T06:51:11.999Z</time>
      </trkpt>
      <trkpt lat="47.42331" lon="6.58765">
        <ele>416.9</ele>
        <time>2017-06-11T06:51:12.999Z</time>
      </trkpt>
      <trkpt lat="47.42328" lon="6.58766">
        <ele>417.2</ele>
        <time>2017-06-11T06:51:13.999Z</time>
      </trkpt>
      <trkpt lat="47.42325" lon="6.58766">
        <ele>417.4</ele>
        <time>2017-06-11T06:51:14.999Z</time>
      </trkpt>
      <trkpt lat="47.42322" lon="6.58766">
        <ele>417.7</ele>
        <time>2017-06-11T06:51:15.999Z</time>
      </trkpt>
      <trkpt lat="47.42319" lon="6.58766">
        <ele>417.9</ele>
        <time>2017-06-11T06:51:16.999Z</time>
      </trkpt>
      <trkpt lat="47.42315" lon="6.58766">
        <ele>418.1</ele>
        <time>2017-06-11T06:51:17.999Z</time>
      </trkpt>
      <trkpt lat="47.42312" lon="6.58767">
        <ele>418.1</ele>
        <time>2017-06-11T06:51:18.999Z</time>
      </trkpt>
      <trkpt lat="47.42309" lon="6.58767">
        <ele>418.2</ele>
        <time>2017-06-11T06:51:19.999Z</time>
      </trkpt>
      <trkpt lat="47.42306" lon="6.58766">
        <ele>418.1</ele>
        <time>2017-06-11T06:51:20.999Z</time>
      </trkpt>
      <trkpt lat="47.42303" lon="6.58766">
        <ele>418</ele>
        <time>2017-06-11T06:51:21.999Z</time>
      </trkpt>
      <trkpt lat="47.42299" lon="6.58764">
        <ele>417.7</ele>
        <time>2017-06-11T06:51:23.999Z</time>
      </trkpt>
      <trkpt lat="47.42297" lon="6.58763">
        <ele>417.4</ele>
        <time>2017-06-11T06:51:24.999Z</time>
      </trkpt>
      <trkpt lat="47.42294" lon="6.58763">
        <ele>417.2</ele>
        <time>2017-06-11T06:51:25.999Z</time>
      </trkpt>
      <trkpt lat="47.4229" lon="6.58763">
        <ele>416.9</ele>
        <time>2017-06-11T06:51:26.999Z</time>
      </trkpt>
      <trkpt lat="47.42286" lon="6.58763">
        <ele>416.7</ele>
        <time>2017-06-11T06:51:27.999Z</time>
      </trkpt>
      <trkpt lat="47.42282" lon="6.58763">
        <ele>416.6</ele>
        <time>2017-06-11T06:51:28.999Z</time>
      </trkpt>
      <trkpt lat="47.42278" lon="6.58763">
        <ele>416.3</ele>
        <time>2017-06-11T06:51:29.999Z</time>
      </trkpt>
      <trkpt lat="47.42274" lon="6.58763">
        <ele>416.1</ele>
        <time>2017-06-11T06:51:30.999Z</time>
      </trkpt>
      <trkpt lat="47.42267" lon="6.58764">
        <ele>413.2</ele>
        <time>2017-06-11T06:51:31.999Z</time>
      </trkpt>
      <trkpt lat="47.4226" lon="6.58766">
        <ele>410.6</ele>
        <time>2017-06-11T06:51:32.999Z</time>
      </trkpt>
      <trkpt lat="47.42252" lon="6.58768">
        <ele>407.8</ele>
        <time>2017-06-11T06:51:33.999Z</time>
      </trkpt>
      <trkpt lat="47.42245" lon="6.5877">
        <ele>407.5</ele>
        <time>2017-06-11T06:51:34.999Z</time>
      </trkpt>
      <trkpt lat="47.42238" lon="6.58774">
        <ele>404.9</ele>
        <time>2017-06-11T06:51:35.999Z</time>
      </trkpt>
      <trkpt lat="47.42234" lon="6.58778">
        <ele>402.9</ele>
        <time>2017-06-11T06:51:36.999Z</time>
      </trkpt>
      <trkpt lat="47.4223" lon="6.5878">
        <ele>402.4</ele>
        <time>2017-06-11T06:51:38.999Z</time>
      </trkpt>
      <trkpt lat="47.42227" lon="6.58782">
        <ele>402.3</ele>
        <time>2017-06-11T06:51:39.999Z</time>
      </trkpt>
      <trkpt lat="47.42222" lon="6.58785">
        <ele>402.1</ele>
        <time>2017-06-11T06:51:40.999Z</time>
      </trkpt>
      <trkpt lat="47.42218" lon="6.58787">
        <ele>402.5</ele>
        <time>2017-06-11T06:51:43.999Z</time>
      </trkpt>
      <trkpt lat="47.42217" lon="6.58787">
        <ele>402.8</ele>
        <time>2017-06-11T06:51:44.999Z</time>
      </trkpt>
      <trkpt lat="47.42213" lon="6.58787">
        <ele>403.5</ele>
        <time>2017-06-11T06:51:47.999Z</time>
      </trkpt>
      <trkpt lat="47.4221" lon="6.5879">
        <ele>403.7</ele>
        <time>2017-06-11T06:51:48.999Z</time>
      </trkpt>
      <trkpt lat="47.42204" lon="6.58794">
        <ele>403.9</ele>
        <time>2017-06-11T06:51:49.999Z</time>
      </trkpt>
      <trkpt lat="47.422" lon="6.58796">
        <ele>404</ele>
        <time>2017-06-11T06:51:50.999Z</time>
      </trkpt>
      <trkpt lat="47.42197" lon="6.58796">
        <ele>405.8</ele>
        <time>2017-06-11T06:51:51.999Z</time>
      </trkpt>
      <trkpt lat="47.42192" lon="6.58796">
        <ele>406.2</ele>
        <time>2017-06-11T06:51:52.999Z</time>
      </trkpt>
      <trkpt lat="47.42186" lon="6.58795">
        <ele>408</ele>
        <time>2017-06-11T06:51:53.999Z</time>
      </trkpt>
      <trkpt lat="47.42181" lon="6.58793">
        <ele>408.6</ele>
        <time>2017-06-11T06:51:54.999Z</time>
      </trkpt>
      <trkpt lat="47.42175" lon="6.58794">
        <ele>408.9</ele>
        <time>2017-06-11T06:51:55.999Z</time>
      </trkpt>
      <trkpt lat="47.4217" lon="6.58794">
        <ele>410</ele>
        <time>2017-06-11T06:51:56.999Z</time>
      </trkpt>
      <trkpt lat="47.42165" lon="6.58793">
        <ele>411</ele>
        <time>2017-06-11T06:51:57.999Z</time>
      </trkpt>
      <trkpt lat="47.4216" lon="6.58793">
        <ele>411.9</ele>
        <time>2017-06-11T06:51:58.999Z</time>
      </trkpt>
      <trkpt lat="47.42154" lon="6.58794">
        <ele>412.1</ele>
        <time>2017-06-11T06:51:59.999Z</time>
      </trkpt>
      <trkpt lat="47.42148" lon="6.58794">
        <ele>411.8</ele>
        <time>2017-06-11T06:52:00.999Z</time>
      </trkpt>
      <trkpt lat="47.42142" lon="6.58793">
        <ele>411.4</ele>
        <time>2017-06-11T06:52:01.999Z</time>
      </trkpt>
      <trkpt lat="47.42135" lon="6.58792">
        <ele>412</ele>
        <time>2017-06-11T06:52:02.999Z</time>
      </trkpt>
      <trkpt lat="47.42129" lon="6.58792">
        <ele>413</ele>
        <time>2017-06-11T06:52:03.999Z</time>
      </trkpt>
      <trkpt lat="47.42122" lon="6.58791">
        <ele>413.7</ele>
        <time>2017-06-11T06:52:04.999Z</time>
      </trkpt>
      <trkpt lat="47.42115" lon="6.5879">
        <ele>414.3</ele>
        <time>2017-06-11T06:52:05.999Z</time>
      </trkpt>
      <trkpt lat="47.42107" lon="6.58788">
        <ele>414.8</ele>
        <time>2017-06-11T06:52:06.999Z</time>
      </trkpt>
      <trkpt lat="47.42099" lon="6.58786">
        <ele>414.9</ele>
        <time>2017-06-11T06:52:07.999Z</time>
      </trkpt>
      <trkpt lat="47.42091" lon="6.58785">
        <ele>414.4</ele>
        <time>2017-06-11T06:52:08.999Z</time>
      </trkpt>
      <trkpt lat="47.42083" lon="6.58786">
        <ele>413.7</ele>
        <time>2017-06-11T06:52:09.999Z</time>
      </trkpt>
      <trkpt lat="47.42078" lon="6.58787">
        <ele>413.4</ele>
        <time>2017-06-11T06:52:10.999Z</time>
      </trkpt>
      <trkpt lat="47.42074" lon="6.58787">
        <ele>413.5</ele>
        <time>2017-06-11T06:52:11.999Z</time>
      </trkpt>
      <trkpt lat="47.4207" lon="6.58787">
        <ele>414.1</ele>
        <time>2017-06-11T06:52:12.999Z</time>
      </trkpt>
      <trkpt lat="47.42064" lon="6.58785">
        <ele>412.9</ele>
        <time>2017-06-11T06:52:13.999Z</time>
      </trkpt>
      <trkpt lat="47.42058" lon="6.58782">
        <ele>411.4</ele>
        <time>2017-06-11T06:52:14.999Z</time>
      </trkpt>
      <trkpt lat="47.42052" lon="6.58778">
        <ele>410.2</ele>
        <time>2017-06-11T06:52:15.999Z</time>
      </trkpt>
      <trkpt lat="47.42046" lon="6.58774">
        <ele>409.6</ele>
        <time>2017-06-11T06:52:16.999Z</time>
      </trkpt>
      <trkpt lat="47.42041" lon="6.5877">
        <ele>410.1</ele>
        <time>2017-06-11T06:52:17.999Z</time>
      </trkpt>
      <trkpt lat="47.42036" lon="6.58766">
        <ele>410.7</ele>
        <time>2017-06-11T06:52:18.999Z</time>
      </trkpt>
      <trkpt lat="47.42032" lon="6.58765">
        <ele>410.5</ele>
        <time>2017-06-11T06:52:19.999Z</time>
      </trkpt>
      <trkpt lat="47.42028" lon="6.58763">
        <ele>410.5</ele>
        <time>2017-06-11T06:52:20.999Z</time>
      </trkpt>
      <trkpt lat="47.42024" lon="6.58761">
        <ele>409.5</ele>
        <time>2017-06-11T06:52:21.999Z</time>
      </trkpt>
      <trkpt lat="47.42021" lon="6.58761">
        <ele>409.1</ele>
        <time>2017-06-11T06:52:22.999Z</time>
      </trkpt>
      <trkpt lat="47.42016" lon="6.5876">
        <ele>407.8</ele>
        <time>2017-06-11T06:52:23.999Z</time>
      </trkpt>
      <trkpt lat="47.42011" lon="6.58758">
        <ele>406.7</ele>
        <time>2017-06-11T06:52:24.999Z</time>
      </trkpt>
      <trkpt lat="47.42006" lon="6.58756">
        <ele>406.7</ele>
        <time>2017-06-11T06:52:25.999Z</time>
      </trkpt>
      <trkpt lat="47.41999" lon="6.58754">
        <ele>406.9</ele>
        <time>2017-06-11T06:52:26.999Z</time>
      </trkpt>
      <trkpt lat="47.41993" lon="6.58753">
        <ele>408</ele>
        <time>2017-06-11T06:52:27.999Z</time>
      </trkpt>
      <trkpt lat="47.41987" lon="6.58751">
        <ele>408</ele>
        <time>2017-06-11T06:52:28.999Z</time>
      </trkpt>
      <trkpt lat="47.4198" lon="6.58751">
        <ele>406.8</ele>
        <time>2017-06-11T06:52:29.999Z</time>
      </trkpt>
      <trkpt lat="47.41975" lon="6.58751">
        <ele>406.2</ele>
        <time>2017-06-11T06:52:30.999Z</time>
      </trkpt>
      <trkpt lat="47.41969" lon="6.58751">
        <ele>405</ele>
        <time>2017-06-11T06:52:31.999Z</time>
      </trkpt>
      <trkpt lat="47.41963" lon="6.58752">
        <ele>402.9</ele>
        <time>2017-06-11T06:52:32.999Z</time>
      </trkpt>
      <trkpt lat="47.41961" lon="6.58755">
        <ele>400.8</ele>
        <time>2017-06-11T06:52:33.999Z</time>
      </trkpt>
      <trkpt lat="47.41961" lon="6.58758">
        <ele>400.5</ele>
        <time>2017-06-11T06:52:34.999Z</time>
      </trkpt>
      <trkpt lat="47.4196" lon="6.58764">
        <ele>396.7</ele>
        <time>2017-06-11T06:52:35.999Z</time>
      </trkpt>
      <trkpt lat="47.4196" lon="6.58772">
        <ele>396.5</ele>
        <time>2017-06-11T06:52:36.999Z</time>
      </trkpt>
      <trkpt lat="47.41958" lon="6.58779">
        <ele>396.4</ele>
        <time>2017-06-11T06:52:37.999Z</time>
      </trkpt>
      <trkpt lat="47.41957" lon="6.58783">
        <ele>396.2</ele>
        <time>2017-06-11T06:52:38.999Z</time>
      </trkpt>
      <trkpt lat="47.41956" lon="6.58789">
        <ele>395.9</ele>
        <time>2017-06-11T06:52:39.999Z</time>
      </trkpt>
      <trkpt lat="47.41956" lon="6.58796">
        <ele>395.7</ele>
        <time>2017-06-11T06:52:40.999Z</time>
      </trkpt>
      <trkpt lat="47.41955" lon="6.58805">
        <ele>395.5</ele>
        <time>2017-06-11T06:52:41.999Z</time>
      </trkpt>
      <trkpt lat="47.41954" lon="6.58816">
        <ele>393.8</ele>
        <time>2017-06-11T06:52:42.999Z</time>
      </trkpt>
      <trkpt lat="47.41952" lon="6.58824">
        <ele>393.8</ele>
        <time>2017-06-11T06:52:43.999Z</time>
      </trkpt>
      <trkpt lat="47.41952" lon="6.58832">
        <ele>393.8</ele>
        <time>2017-06-11T06:52:44.999Z</time>
      </trkpt>
      <trkpt lat="47.41952" lon="6.58837">
        <ele>393.9</ele>
        <time>2017-06-11T06:52:45.999Z</time>
      </trkpt>
      <trkpt lat="47.41952" lon="6.58843">
        <ele>394</ele>
        <time>2017-06-11T06:52:46.999Z</time>
      </trkpt>
      <trkpt lat="47.41951" lon="6.58848">
        <ele>394.2</ele>
        <time>2017-06-11T06:52:47.999Z</time>
      </trkpt>
      <trkpt lat="47.41949" lon="6.58855">
        <ele>394.3</ele>
        <time>2017-06-11T06:52:48.999Z</time>
      </trkpt>
      <trkpt lat="47.41948" lon="6.58861">
        <ele>394.6</ele>
        <time>2017-06-11T06:52:49.999Z</time>
      </trkpt>
      <trkpt lat="47.41947" lon="6.58865">
        <ele>394.8</ele>
        <time>2017-06-11T06:52:50.999Z</time>
      </trkpt>
      <trkpt lat="47.41947" lon="6.58865">
        <ele>396</ele>
        <time>2017-06-11T06:52:57.999Z</time>
      </trkpt>
      <trkpt lat="47.41944" lon="6.58882">
        <ele>396.1</ele>
        <time>2017-06-11T06:52:58.999Z</time>
      </trkpt>
      <trkpt lat="47.41944" lon="6.58882">
        <ele>396.4</ele>
        <time>2017-06-11T06:53:00.999Z</time>
      </trkpt>
      <trkpt lat="47.41946" lon="6.58893">
        <ele>396.5</ele>
        <time>2017-06-11T06:53:01.999Z</time>
      </trkpt>
      <trkpt lat="47.41946" lon="6.58897">
        <ele>396.7</ele>
        <time>2017-06-11T06:53:02.999Z</time>
      </trkpt>
      <trkpt lat="47.41946" lon="6.589">
        <ele>396.8</ele>
        <time>2017-06-11T06:53:03.999Z</time>
      </trkpt>
      <trkpt lat="47.41947" lon="6.58903">
        <ele>396.9</ele>
        <time>2017-06-11T06:53:04.999Z</time>
      </trkpt>
      <trkpt lat="47.41948" lon="6.58907">
        <ele>397</ele>
        <time>2017-06-11T06:53:05.999Z</time>
      </trkpt>
      <trkpt lat="47.41948" lon="6.58911">
        <ele>397</ele>
        <time>2017-06-11T06:53:06.999Z</time>
      </trkpt>
      <trkpt lat="47.41948" lon="6.58915">
        <ele>397.1</ele>
        <time>2017-06-11T06:53:07.999Z</time>
      </trkpt>
      <trkpt lat="47.41948" lon="6.58919">
        <ele>397.1</ele>
        <time>2017-06-11T06:53:08.999Z</time>
      </trkpt>
      <trkpt lat="47.41949" lon="6.58922">
        <ele>397.1</ele>
        <time>2017-06-11T06:53:09.999Z</time>
      </trkpt>
      <trkpt lat="47.41949" lon="6.58922">
        <ele>397.1</ele>
        <time>2017-06-11T06:53:11.999Z</time>
      </trkpt>
      <trkpt lat="47.4195" lon="6.58934">
        <ele>397.2</ele>
        <time>2017-06-11T06:53:12.999Z</time>
      </trkpt>
      <trkpt lat="47.41951" lon="6.58939">
        <ele>397.5</ele>
        <time>2017-06-11T06:53:20.999Z</time>
      </trkpt>
      <trkpt lat="47.41955" lon="6.58958">
        <ele>397.7</ele>
        <time>2017-06-11T06:53:21.999Z</time>
      </trkpt>
      <trkpt lat="47.41955" lon="6.58958">
        <ele>398.3</ele>
        <time>2017-06-11T06:53:24.999Z</time>
      </trkpt>
      <trkpt lat="47.41959" lon="6.58968">
        <ele>398.4</ele>
        <time>2017-06-11T06:53:25.999Z</time>
      </trkpt>
      <trkpt lat="47.4196" lon="6.58974">
        <ele>398.6</ele>
        <time>2017-06-11T06:53:27.999Z</time>
      </trkpt>
      <trkpt lat="47.41961" lon="6.5898">
        <ele>398.8</ele>
        <time>2017-06-11T06:53:28.999Z</time>
      </trkpt>
      <trkpt lat="47.41962" lon="6.58985">
        <ele>399</ele>
        <time>2017-06-11T06:53:29.999Z</time>
      </trkpt>
      <trkpt lat="47.41963" lon="6.58989">
        <ele>399.1</ele>
        <time>2017-06-11T06:53:30.999Z</time>
      </trkpt>
      <trkpt lat="47.41964" lon="6.58993">
        <ele>399.2</ele>
        <time>2017-06-11T06:53:31.999Z</time>
      </trkpt>
      <trkpt lat="47.41965" lon="6.58997">
        <ele>399.2</ele>
        <time>2017-06-11T06:53:32.999Z</time>
      </trkpt>
      <trkpt lat="47.41965" lon="6.58997">
        <ele>399.6</ele>
        <time>2017-06-11T06:53:37.999Z</time>
      </trkpt>
      <trkpt lat="47.4197" lon="6.59016">
        <ele>399.8</ele>
        <time>2017-06-11T06:53:38.999Z</time>
      </trkpt>
      <trkpt lat="47.4197" lon="6.59016">
        <ele>400.2</ele>
        <time>2017-06-11T06:53:40.999Z</time>
      </trkpt>
      <trkpt lat="47.41972" lon="6.59024">
        <ele>400.3</ele>
        <time>2017-06-11T06:53:41.999Z</time>
      </trkpt>
      <trkpt lat="47.41973" lon="6.59027">
        <ele>400.4</ele>
        <time>2017-06-11T06:53:42.999Z</time>
      </trkpt>
      <trkpt lat="47.41973" lon="6.59031">
        <ele>400.5</ele>
        <time>2017-06-11T06:53:43.999Z</time>
      </trkpt>
      <trkpt lat="47.41974" lon="6.59036">
        <ele>400.6</ele>
        <time>2017-06-11T06:53:44.999Z</time>
      </trkpt>
      <trkpt lat="47.41974" lon="6.59039">
        <ele>400.8</ele>
        <time>2017-06-11T06:53:45.999Z</time>
      </trkpt>
      <trkpt lat="47.41974" lon="6.59044">
        <ele>401.1</ele>
        <time>2017-06-11T06:53:47.999Z</time>
      </trkpt>
      <trkpt lat="47.41974" lon="6.59047">
        <ele>401.2</ele>
        <time>2017-06-11T06:53:48.999Z</time>
      </trkpt>
      <trkpt lat="47.41974" lon="6.59051">
        <ele>401.7</ele>
        <time>2017-06-11T06:53:52.999Z</time>
      </trkpt>
      <trkpt lat="47.41975" lon="6.59066">
        <ele>401.8</ele>
        <time>2017-06-11T06:53:53.999Z</time>
      </trkpt>
      <trkpt lat="47.41975" lon="6.59071">
        <ele>402.2</ele>
        <time>2017-06-11T06:53:55.999Z</time>
      </trkpt>
      <trkpt lat="47.41976" lon="6.59074">
        <ele>402.3</ele>
        <time>2017-06-11T06:53:56.999Z</time>
      </trkpt>
      <trkpt lat="47.41976" lon="6.59078">
        <ele>402.3</ele>
        <time>2017-06-11T06:53:57.999Z</time>
      </trkpt>
      <trkpt lat="47.41977" lon="6.59083">
        <ele>402.4</ele>
        <time>2017-06-11T06:53:58.999Z</time>
      </trkpt>
      <trkpt lat="47.41977" lon="6.59085">
        <ele>402.5</ele>
        <time>2017-06-11T06:53:59.999Z</time>
      </trkpt>
      <trkpt lat="47.41977" lon="6.59089">
        <ele>402.6</ele>
        <time>2017-06-11T06:54:00.999Z</time>
      </trkpt>
      <trkpt lat="47.41977" lon="6.59094">
        <ele>402.6</ele>
        <time>2017-06-11T06:54:01.999Z</time>
      </trkpt>
      <trkpt lat="47.41977" lon="6.59098">
        <ele>402.7</ele>
        <time>2017-06-11T06:54:02.999Z</time>
      </trkpt>
      <trkpt lat="47.41977" lon="6.59103">
        <ele>402.7</ele>
        <time>2017-06-11T06:54:04.999Z</time>
      </trkpt>
      <trkpt lat="47.41977" lon="6.59106">
        <ele>402.7</ele>
        <time>2017-06-11T06:54:05.999Z</time>
      </trkpt>
      <trkpt lat="47.41977" lon="6.59112">
        <ele>402.7</ele>
        <time>2017-06-11T06:54:07.999Z</time>
      </trkpt>
      <trkpt lat="47.41978" lon="6.59116">
        <ele>402.7</ele>
        <time>2017-06-11T06:54:08.999Z</time>
      </trkpt>
      <trkpt lat="47.41978" lon="6.59118">
        <ele>402.8</ele>
        <time>2017-06-11T06:54:09.999Z</time>
      </trkpt>
      <trkpt lat="47.41978" lon="6.59122">
        <ele>402.9</ele>
        <time>2017-06-11T06:54:10.999Z</time>
      </trkpt>
      <trkpt lat="47.41978" lon="6.59127">
        <ele>403</ele>
        <time>2017-06-11T06:54:12.999Z</time>
      </trkpt>
      <trkpt lat="47.41978" lon="6.5913">
        <ele>403</ele>
        <time>2017-06-11T06:54:13.999Z</time>
      </trkpt>
      <trkpt lat="47.41978" lon="6.59134">
        <ele>403</ele>
        <time>2017-06-11T06:54:14.999Z</time>
      </trkpt>
      <trkpt lat="47.41978" lon="6.59138">
        <ele>403.1</ele>
        <time>2017-06-11T06:54:15.999Z</time>
      </trkpt>
      <trkpt lat="47.41978" lon="6.59142">
        <ele>403.2</ele>
        <time>2017-06-11T06:54:16.999Z</time>
      </trkpt>
      <trkpt lat="47.41978" lon="6.59146">
        <ele>403.2</ele>
        <time>2017-06-11T06:54:17.999Z</time>
      </trkpt>
      <trkpt lat="47.41978" lon="6.59152">
        <ele>403.1</ele>
        <time>2017-06-11T06:54:19.999Z</time>
      </trkpt>
      <trkpt lat="47.41978" lon="6.59155">
        <ele>403</ele>
        <time>2017-06-11T06:54:20.999Z</time>
      </trkpt>
      <trkpt lat="47.41978" lon="6.59155">
        <ele>402.7</ele>
        <time>2017-06-11T06:54:25.999Z</time>
      </trkpt>
      <trkpt lat="47.41986" lon="6.59177">
        <ele>402.6</ele>
        <time>2017-06-11T06:54:26.999Z</time>
      </trkpt>
      <trkpt lat="47.41986" lon="6.59181">
        <ele>402.7</ele>
        <time>2017-06-11T06:54:27.999Z</time>
      </trkpt>
      <trkpt lat="47.41986" lon="6.59186">
        <ele>402.6</ele>
        <time>2017-06-11T06:54:28.999Z</time>
      </trkpt>
      <trkpt lat="47.41986" lon="6.59191">
        <ele>402.6</ele>
        <time>2017-06-11T06:54:29.999Z</time>
      </trkpt>
      <trkpt lat="47.41987" lon="6.59194">
        <ele>402.6</ele>
        <time>2017-06-11T06:54:30.999Z</time>
      </trkpt>
      <trkpt lat="47.41987" lon="6.59197">
        <ele>402.9</ele>
        <time>2017-06-11T06:54:38.999Z</time>
      </trkpt>
      <trkpt lat="47.41989" lon="6.59225">
        <ele>402.9</ele>
        <time>2017-06-11T06:54:39.999Z</time>
      </trkpt>
      <trkpt lat="47.41989" lon="6.59225">
        <ele>403.4</ele>
        <time>2017-06-11T06:54:42.999Z</time>
      </trkpt>
      <trkpt lat="47.4199" lon="6.5924">
        <ele>403.6</ele>
        <time>2017-06-11T06:54:43.999Z</time>
      </trkpt>
      <trkpt lat="47.41991" lon="6.59246">
        <ele>404</ele>
        <time>2017-06-11T06:54:45.999Z</time>
      </trkpt>
      <trkpt lat="47.41992" lon="6.59249">
        <ele>404.3</ele>
        <time>2017-06-11T06:54:46.999Z</time>
      </trkpt>
      <trkpt lat="47.41993" lon="6.59253">
        <ele>405.5</ele>
        <time>2017-06-11T06:54:54.999Z</time>
      </trkpt>
      <trkpt lat="47.41996" lon="6.59274">
        <ele>405.5</ele>
        <time>2017-06-11T06:54:55.999Z</time>
      </trkpt>
      <trkpt lat="47.41996" lon="6.59274">
        <ele>405.8</ele>
        <time>2017-06-11T06:54:57.999Z</time>
      </trkpt>
      <trkpt lat="47.42" lon="6.59289">
        <ele>406</ele>
        <time>2017-06-11T06:54:58.999Z</time>
      </trkpt>
      <trkpt lat="47.42001" lon="6.59295">
        <ele>406.3</ele>
        <time>2017-06-11T06:55:00.999Z</time>
      </trkpt>
      <trkpt lat="47.42001" lon="6.59298">
        <ele>406.5</ele>
        <time>2017-06-11T06:55:01.999Z</time>
      </trkpt>
      <trkpt lat="47.42002" lon="6.59301">
        <ele>406.7</ele>
        <time>2017-06-11T06:55:02.999Z</time>
      </trkpt>
      <trkpt lat="47.42002" lon="6.59305">
        <ele>406.8</ele>
        <time>2017-06-11T06:55:03.999Z</time>
      </trkpt>
      <trkpt lat="47.42003" lon="6.59309">
        <ele>406.9</ele>
        <time>2017-06-11T06:55:04.999Z</time>
      </trkpt>
      <trkpt lat="47.42004" lon="6.59312">
        <ele>407.1</ele>
        <time>2017-06-11T06:55:05.999Z</time>
      </trkpt>
      <trkpt lat="47.42004" lon="6.59312">
        <ele>408.1</ele>
        <time>2017-06-11T06:55:12.999Z</time>
      </trkpt>
      <trkpt lat="47.42014" lon="6.5934">
        <ele>408.3</ele>
        <time>2017-06-11T06:55:13.999Z</time>
      </trkpt>
      <trkpt lat="47.42015" lon="6.59345">
        <ele>408.4</ele>
        <time>2017-06-11T06:55:14.999Z</time>
      </trkpt>
      <trkpt lat="47.42017" lon="6.59349">
        <ele>408.6</ele>
        <time>2017-06-11T06:55:15.999Z</time>
      </trkpt>
      <trkpt lat="47.42018" lon="6.59352">
        <ele>408.7</ele>
        <time>2017-06-11T06:55:16.999Z</time>
      </trkpt>
      <trkpt lat="47.42019" lon="6.59355">
        <ele>409</ele>
        <time>2017-06-11T06:55:17.999Z</time>
      </trkpt>
      <trkpt lat="47.4202" lon="6.59358">
        <ele>409.2</ele>
        <time>2017-06-11T06:55:18.999Z</time>
      </trkpt>
      <trkpt lat="47.42021" lon="6.59362">
        <ele>409.4</ele>
        <time>2017-06-11T06:55:19.999Z</time>
      </trkpt>
      <trkpt lat="47.42022" lon="6.59365">
        <ele>409.6</ele>
        <time>2017-06-11T06:55:20.999Z</time>
      </trkpt>
      <trkpt lat="47.42023" lon="6.59368">
        <ele>409.8</ele>
        <time>2017-06-11T06:55:21.999Z</time>
      </trkpt>
      <trkpt lat="47.42025" lon="6.59371">
        <ele>410</ele>
        <time>2017-06-11T06:55:22.999Z</time>
      </trkpt>
      <trkpt lat="47.42026" lon="6.59374">
        <ele>410.3</ele>
        <time>2017-06-11T06:55:23.999Z</time>
      </trkpt>
      <trkpt lat="47.42028" lon="6.59379">
        <ele>410.5</ele>
        <time>2017-06-11T06:55:24.999Z</time>
      </trkpt>
      <trkpt lat="47.42028" lon="6.59382">
        <ele>410.7</ele>
        <time>2017-06-11T06:55:25.999Z</time>
      </trkpt>
      <trkpt lat="47.42026" lon="6.59387">
        <ele>411</ele>
        <time>2017-06-11T06:55:27.999Z</time>
      </trkpt>
      <trkpt lat="47.42026" lon="6.59391">
        <ele>411</ele>
        <time>2017-06-11T06:55:28.999Z</time>
      </trkpt>
      <trkpt lat="47.42027" lon="6.59395">
        <ele>411.1</ele>
        <time>2017-06-11T06:55:29.999Z</time>
      </trkpt>
      <trkpt lat="47.42027" lon="6.59398">
        <ele>411.2</ele>
        <time>2017-06-11T06:55:30.999Z</time>
      </trkpt>
      <trkpt lat="47.42028" lon="6.59403">
        <ele>411.3</ele>
        <time>2017-06-11T06:55:31.999Z</time>
      </trkpt>
      <trkpt lat="47.42029" lon="6.59407">
        <ele>411.4</ele>
        <time>2017-06-11T06:55:32.999Z</time>
      </trkpt>
      <trkpt lat="47.42028" lon="6.59411">
        <ele>411.6</ele>
        <time>2017-06-11T06:55:33.999Z</time>
      </trkpt>
      <trkpt lat="47.42028" lon="6.59417">
        <ele>411.7</ele>
        <time>2017-06-11T06:55:34.999Z</time>
      </trkpt>
      <trkpt lat="47.42028" lon="6.59421">
        <ele>411.9</ele>
        <time>2017-06-11T06:55:35.999Z</time>
      </trkpt>
      <trkpt lat="47.42027" lon="6.59425">
        <ele>412.1</ele>
        <time>2017-06-11T06:55:36.999Z</time>
      </trkpt>
      <trkpt lat="47.42026" lon="6.59431">
        <ele>412.3</ele>
        <time>2017-06-11T06:55:37.999Z</time>
      </trkpt>
      <trkpt lat="47.42025" lon="6.59435">
        <ele>412.3</ele>
        <time>2017-06-11T06:55:38.999Z</time>
      </trkpt>
      <trkpt lat="47.42025" lon="6.59441">
        <ele>412.4</ele>
        <time>2017-06-11T06:55:39.999Z</time>
      </trkpt>
      <trkpt lat="47.42025" lon="6.59446">
        <ele>412.4</ele>
        <time>2017-06-11T06:55:40.999Z</time>
      </trkpt>
      <trkpt lat="47.42025" lon="6.59451">
        <ele>412.5</ele>
        <time>2017-06-11T06:55:41.999Z</time>
      </trkpt>
      <trkpt lat="47.42025" lon="6.59457">
        <ele>412.5</ele>
        <time>2017-06-11T06:55:42.999Z</time>
      </trkpt>
      <trkpt lat="47.42026" lon="6.59462">
        <ele>412.7</ele>
        <time>2017-06-11T06:55:43.999Z</time>
      </trkpt>
      <trkpt lat="47.42027" lon="6.59465">
        <ele>413</ele>
        <time>2017-06-11T06:55:44.999Z</time>
      </trkpt>
      <trkpt lat="47.42029" lon="6.59467">
        <ele>414</ele>
        <time>2017-06-11T06:55:55.999Z</time>
      </trkpt>
      <trkpt lat="47.42046" lon="6.59476">
        <ele>414.1</ele>
        <time>2017-06-11T06:55:56.999Z</time>
      </trkpt>
      <trkpt lat="47.4205" lon="6.59476">
        <ele>414.2</ele>
        <time>2017-06-11T06:55:58.999Z</time>
      </trkpt>
      <trkpt lat="47.42052" lon="6.59476">
        <ele>414.3</ele>
        <time>2017-06-11T06:55:59.999Z</time>
      </trkpt>
      <trkpt lat="47.42054" lon="6.59477">
        <ele>414.4</ele>
        <time>2017-06-11T06:56:00.999Z</time>
      </trkpt>
      <trkpt lat="47.42057" lon="6.59478">
        <ele>414.5</ele>
        <time>2017-06-11T06:56:01.999Z</time>
      </trkpt>
      <trkpt lat="47.42059" lon="6.5948">
        <ele>414.6</ele>
        <time>2017-06-11T06:56:02.999Z</time>
      </trkpt>
      <trkpt lat="47.42062" lon="6.59481">
        <ele>414.7</ele>
        <time>2017-06-11T06:56:03.999Z</time>
      </trkpt>
      <trkpt lat="47.42064" lon="6.59481">
        <ele>414.7</ele>
        <time>2017-06-11T06:56:04.999Z</time>
      </trkpt>
      <trkpt lat="47.42067" lon="6.59481">
        <ele>414.7</ele>
        <time>2017-06-11T06:56:05.999Z</time>
      </trkpt>
      <trkpt lat="47.42069" lon="6.59483">
        <ele>414.7</ele>
        <time>2017-06-11T06:56:06.999Z</time>
      </trkpt>
      <trkpt lat="47.42071" lon="6.59484">
        <ele>414.7</ele>
        <time>2017-06-11T06:56:07.999Z</time>
      </trkpt>
      <trkpt lat="47.42074" lon="6.59486">
        <ele>414.7</ele>
        <time>2017-06-11T06:56:08.999Z</time>
      </trkpt>
      <trkpt lat="47.42075" lon="6.59488">
        <ele>414.6</ele>
        <time>2017-06-11T06:56:09.999Z</time>
      </trkpt>
      <trkpt lat="47.42079" lon="6.59491">
        <ele>414.3</ele>
        <time>2017-06-11T06:56:12.999Z</time>
      </trkpt>
      <trkpt lat="47.4208" lon="6.59492">
        <ele>414.2</ele>
        <time>2017-06-11T06:56:13.999Z</time>
      </trkpt>
      <trkpt lat="47.42083" lon="6.59495">
        <ele>414.1</ele>
        <time>2017-06-11T06:56:14.999Z</time>
      </trkpt>
      <trkpt lat="47.42087" lon="6.59498">
        <ele>413.9</ele>
        <time>2017-06-11T06:56:15.999Z</time>
      </trkpt>
      <trkpt lat="47.42088" lon="6.59502">
        <ele>413.8</ele>
        <time>2017-06-11T06:56:16.999Z</time>
      </trkpt>
      <trkpt lat="47.42089" lon="6.59507">
        <ele>413.7</ele>
        <time>2017-06-11T06:56:17.999Z</time>
      </trkpt>
      <trkpt lat="47.42092" lon="6.59512">
        <ele>413.5</ele>
        <time>2017-06-11T06:56:18.999Z</time>
      </trkpt>
      <trkpt lat="47.42095" lon="6.59516">
        <ele>413.2</ele>
        <time>2017-06-11T06:56:19.999Z</time>
      </trkpt>
      <trkpt lat="47.42097" lon="6.59519">
        <ele>412.9</ele>
        <time>2017-06-11T06:56:20.999Z</time>
      </trkpt>
      <trkpt lat="47.42098" lon="6.59523">
        <ele>414.5</ele>
        <time>2017-06-11T06:56:41.999Z</time>
      </trkpt>
      <trkpt lat="47.42078" lon="6.5954">
        <ele>414.8</ele>
        <time>2017-06-11T06:56:42.999Z</time>
      </trkpt>
      <trkpt lat="47.42078" lon="6.5954">
        <ele>415.4</ele>
        <time>2017-06-11T06:56:44.999Z</time>
      </trkpt>
      <trkpt lat="47.42069" lon="6.5954">
        <ele>415.7</ele>
        <time>2017-06-11T06:56:45.999Z</time>
      </trkpt>
      <trkpt lat="47.42067" lon="6.5954">
        <ele>416</ele>
        <time>2017-06-11T06:56:46.999Z</time>
      </trkpt>
      <trkpt lat="47.42064" lon="6.59539">
        <ele>416.3</ele>
        <time>2017-06-11T06:56:47.999Z</time>
      </trkpt>
      <trkpt lat="47.42061" lon="6.59538">
        <ele>416.4</ele>
        <time>2017-06-11T06:56:48.999Z</time>
      </trkpt>
      <trkpt lat="47.42057" lon="6.59537">
        <ele>418.3</ele>
        <time>2017-06-11T06:56:49.999Z</time>
      </trkpt>
      <trkpt lat="47.42053" lon="6.59537">
        <ele>418.5</ele>
        <time>2017-06-11T06:56:50.999Z</time>
      </trkpt>
      <trkpt lat="47.4205" lon="6.59537">
        <ele>418.6</ele>
        <time>2017-06-11T06:56:51.999Z</time>
      </trkpt>
      <trkpt lat="47.42046" lon="6.59538">
        <ele>418.7</ele>
        <time>2017-06-11T06:56:52.999Z</time>
      </trkpt>
      <trkpt lat="47.42043" lon="6.59538">
        <ele>418.8</ele>
        <time>2017-06-11T06:56:53.999Z</time>
      </trkpt>
      <trkpt lat="47.4204" lon="6.59537">
        <ele>418.9</ele>
        <time>2017-06-11T06:56:54.999Z</time>
      </trkpt>
      <trkpt lat="47.42037" lon="6.59537">
        <ele>419.1</ele>
        <time>2017-06-11T06:56:55.999Z</time>
      </trkpt>
      <trkpt lat="47.42033" lon="6.59535">
        <ele>419.2</ele>
        <time>2017-06-11T06:56:56.999Z</time>
      </trkpt>
      <trkpt lat="47.4203" lon="6.59534">
        <ele>419.3</ele>
        <time>2017-06-11T06:56:57.999Z</time>
      </trkpt>
      <trkpt lat="47.42027" lon="6.59533">
        <ele>419.6</ele>
        <time>2017-06-11T06:56:58.999Z</time>
      </trkpt>
      <trkpt lat="47.42024" lon="6.59532">
        <ele>419.7</ele>
        <time>2017-06-11T06:56:59.999Z</time>
      </trkpt>
      <trkpt lat="47.4202" lon="6.59531">
        <ele>421.3</ele>
        <time>2017-06-11T06:57:00.999Z</time>
      </trkpt>
      <trkpt lat="47.42016" lon="6.5953">
        <ele>422.2</ele>
        <time>2017-06-11T06:57:01.999Z</time>
      </trkpt>
      <trkpt lat="47.42013" lon="6.59529">
        <ele>422.6</ele>
        <time>2017-06-11T06:57:02.999Z</time>
      </trkpt>
      <trkpt lat="47.42009" lon="6.59527">
        <ele>422.8</ele>
        <time>2017-06-11T06:57:03.999Z</time>
      </trkpt>
      <trkpt lat="47.42006" lon="6.59526">
        <ele>423.2</ele>
        <time>2017-06-11T06:57:04.999Z</time>
      </trkpt>
      <trkpt lat="47.42002" lon="6.59524">
        <ele>423.5</ele>
        <time>2017-06-11T06:57:05.999Z</time>
      </trkpt>
      <trkpt lat="47.41998" lon="6.59523">
        <ele>423.3</ele>
        <time>2017-06-11T06:57:06.999Z</time>
      </trkpt>
      <trkpt lat="47.41994" lon="6.5952">
        <ele>423.2</ele>
        <time>2017-06-11T06:57:07.999Z</time>
      </trkpt>
      <trkpt lat="47.4199" lon="6.59518">
        <ele>422.8</ele>
        <time>2017-06-11T06:57:08.999Z</time>
      </trkpt>
      <trkpt lat="47.41985" lon="6.59517">
        <ele>421.9</ele>
        <time>2017-06-11T06:57:09.999Z</time>
      </trkpt>
      <trkpt lat="47.41981" lon="6.59516">
        <ele>420.3</ele>
        <time>2017-06-11T06:57:10.999Z</time>
      </trkpt>
      <trkpt lat="47.41976" lon="6.59515">
        <ele>418.3</ele>
        <time>2017-06-11T06:57:11.999Z</time>
      </trkpt>
      <trkpt lat="47.41972" lon="6.59514">
        <ele>416.4</ele>
        <time>2017-06-11T06:57:12.999Z</time>
      </trkpt>
      <trkpt lat="47.41968" lon="6.59513">
        <ele>414.9</ele>
        <time>2017-06-11T06:57:13.999Z</time>
      </trkpt>
      <trkpt lat="47.41963" lon="6.59512">
        <ele>413.9</ele>
        <time>2017-06-11T06:57:14.999Z</time>
      </trkpt>
      <trkpt lat="47.41959" lon="6.59512">
        <ele>412.9</ele>
        <time>2017-06-11T06:57:15.999Z</time>
      </trkpt>
      <trkpt lat="47.41954" lon="6.59511">
        <ele>411.7</ele>
        <time>2017-06-11T06:57:16.999Z</time>
      </trkpt>
      <trkpt lat="47.41949" lon="6.59511">
        <ele>410.7</ele>
        <time>2017-06-11T06:57:17.999Z</time>
      </trkpt>
      <trkpt lat="47.41943" lon="6.59509">
        <ele>410.3</ele>
        <time>2017-06-11T06:57:18.999Z</time>
      </trkpt>
      <trkpt lat="47.41937" lon="6.59506">
        <ele>410.2</ele>
        <time>2017-06-11T06:57:19.999Z</time>
      </trkpt>
      <trkpt lat="47.41937" lon="6.59499">
        <ele>410.1</ele>
        <time>2017-06-11T06:57:20.999Z</time>
      </trkpt>
      <trkpt lat="47.41938" lon="6.59494">
        <ele>410.5</ele>
        <time>2017-06-11T06:57:21.999Z</time>
      </trkpt>
      <trkpt lat="47.41937" lon="6.59487">
        <ele>410.5</ele>
        <time>2017-06-11T06:57:22.999Z</time>
      </trkpt>
      <trkpt lat="47.41937" lon="6.59481">
        <ele>410.7</ele>
        <time>2017-06-11T06:57:23.999Z</time>
      </trkpt>
      <trkpt lat="47.41938" lon="6.59476">
        <ele>410.7</ele>
        <time>2017-06-11T06:57:24.999Z</time>
      </trkpt>
      <trkpt lat="47.41938" lon="6.59469">
        <ele>410.7</ele>
        <time>2017-06-11T06:57:25.999Z</time>
      </trkpt>
      <trkpt lat="47.41938" lon="6.59463">
        <ele>410.7</ele>
        <time>2017-06-11T06:57:26.999Z</time>
      </trkpt>
      <trkpt lat="47.41937" lon="6.59456">
        <ele>410.8</ele>
        <time>2017-06-11T06:57:27.999Z</time>
      </trkpt>
      <trkpt lat="47.41937" lon="6.59451">
        <ele>410.8</ele>
        <time>2017-06-11T06:57:28.999Z</time>
      </trkpt>
      <trkpt lat="47.41937" lon="6.59445">
        <ele>410.8</ele>
        <time>2017-06-11T06:57:29.999Z</time>
      </trkpt>
      <trkpt lat="47.41935" lon="6.5944">
        <ele>410.9</ele>
        <time>2017-06-11T06:57:30.999Z</time>
      </trkpt>
      <trkpt lat="47.41933" lon="6.59436">
        <ele>410.9</ele>
        <time>2017-06-11T06:57:31.999Z</time>
      </trkpt>
      <trkpt lat="47.41932" lon="6.59432">
        <ele>411</ele>
        <time>2017-06-11T06:57:32.999Z</time>
      </trkpt>
      <trkpt lat="47.4193" lon="6.59428">
        <ele>411.1</ele>
        <time>2017-06-11T06:57:33.999Z</time>
      </trkpt>
      <trkpt lat="47.4193" lon="6.59425">
        <ele>411.1</ele>
        <time>2017-06-11T06:57:34.999Z</time>
      </trkpt>
      <trkpt lat="47.4193" lon="6.59419">
        <ele>411.1</ele>
        <time>2017-06-11T06:57:35.999Z</time>
      </trkpt>
      <trkpt lat="47.4193" lon="6.59415">
        <ele>411.1</ele>
        <time>2017-06-11T06:57:36.999Z</time>
      </trkpt>
      <trkpt lat="47.4193" lon="6.59411">
        <ele>411.1</ele>
        <time>2017-06-11T06:57:37.999Z</time>
      </trkpt>
      <trkpt lat="47.41931" lon="6.59407">
        <ele>411.2</ele>
        <time>2017-06-11T06:57:38.999Z</time>
      </trkpt>
      <trkpt lat="47.41931" lon="6.59404">
        <ele>411.3</ele>
        <time>2017-06-11T06:57:39.999Z</time>
      </trkpt>
      <trkpt lat="47.4193" lon="6.59398">
        <ele>411.4</ele>
        <time>2017-06-11T06:57:41.999Z</time>
      </trkpt>
      <trkpt lat="47.4193" lon="6.59394">
        <ele>411.4</ele>
        <time>2017-06-11T06:57:42.999Z</time>
      </trkpt>
      <trkpt lat="47.4193" lon="6.59391">
        <ele>411.4</ele>
        <time>2017-06-11T06:57:43.999Z</time>
      </trkpt>
      <trkpt lat="47.4193" lon="6.59388">
        <ele>411.4</ele>
        <time>2017-06-11T06:57:44.999Z</time>
      </trkpt>
      <trkpt lat="47.41928" lon="6.59381">
        <ele>411.4</ele>
        <time>2017-06-11T06:57:46.999Z</time>
      </trkpt>
      <trkpt lat="47.41928" lon="6.59377">
        <ele>411.5</ele>
        <time>2017-06-11T06:57:47.999Z</time>
      </trkpt>
      <trkpt lat="47.41927" lon="6.59373">
        <ele>411.6</ele>
        <time>2017-06-11T06:57:48.999Z</time>
      </trkpt>
      <trkpt lat="47.41926" lon="6.59368">
        <ele>411.6</ele>
        <time>2017-06-11T06:57:49.999Z</time>
      </trkpt>
      <trkpt lat="47.41926" lon="6.59363">
        <ele>411.6</ele>
        <time>2017-06-11T06:57:50.999Z</time>
      </trkpt>
      <trkpt lat="47.41925" lon="6.59357">
        <ele>411.7</ele>
        <time>2017-06-11T06:57:51.999Z</time>
      </trkpt>
      <trkpt lat="47.41924" lon="6.5935">
        <ele>411.7</ele>
        <time>2017-06-11T06:57:52.999Z</time>
      </trkpt>
      <trkpt lat="47.41923" lon="6.59342">
        <ele>411.8</ele>
        <time>2017-06-11T06:57:53.999Z</time>
      </trkpt>
      <trkpt lat="47.41921" lon="6.59333">
        <ele>411.9</ele>
        <time>2017-06-11T06:57:54.999Z</time>
      </trkpt>
      <trkpt lat="47.41918" lon="6.59326">
        <ele>412</ele>
        <time>2017-06-11T06:57:55.999Z</time>
      </trkpt>
      <trkpt lat="47.41913" lon="6.59323">
        <ele>412.1</ele>
        <time>2017-06-11T06:57:56.999Z</time>
      </trkpt>
      <trkpt lat="47.41907" lon="6.59322">
        <ele>412.2</ele>
        <time>2017-06-11T06:57:57.999Z</time>
      </trkpt>
      <trkpt lat="47.41904" lon="6.59321">
        <ele>412.2</ele>
        <time>2017-06-11T06:57:58.999Z</time>
      </trkpt>
      <trkpt lat="47.41902" lon="6.5932">
        <ele>412.3</ele>
        <time>2017-06-11T06:57:59.999Z</time>
      </trkpt>
      <trkpt lat="47.41898" lon="6.59319">
        <ele>412.4</ele>
        <time>2017-06-11T06:58:00.999Z</time>
      </trkpt>
      <trkpt lat="47.41895" lon="6.59317">
        <ele>412.5</ele>
        <time>2017-06-11T06:58:01.999Z</time>
      </trkpt>
      <trkpt lat="47.41892" lon="6.59315">
        <ele>412.5</ele>
        <time>2017-06-11T06:58:02.999Z</time>
      </trkpt>
      <trkpt lat="47.4189" lon="6.59314">
        <ele>412.6</ele>
        <time>2017-06-11T06:58:03.999Z</time>
      </trkpt>
      <trkpt lat="47.41887" lon="6.59313">
        <ele>412.6</ele>
        <time>2017-06-11T06:58:04.999Z</time>
      </trkpt>
      <trkpt lat="47.41883" lon="6.59312">
        <ele>412.7</ele>
        <time>2017-06-11T06:58:05.999Z</time>
      </trkpt>
      <trkpt lat="47.4188" lon="6.59311">
        <ele>412.6</ele>
        <time>2017-06-11T06:58:06.999Z</time>
      </trkpt>
      <trkpt lat="47.41876" lon="6.59309">
        <ele>412.5</ele>
        <time>2017-06-11T06:58:07.999Z</time>
      </trkpt>
      <trkpt lat="47.4187" lon="6.59305">
        <ele>412</ele>
        <time>2017-06-11T06:58:08.999Z</time>
      </trkpt>
      <trkpt lat="47.41865" lon="6.59301">
        <ele>410.7</ele>
        <time>2017-06-11T06:58:09.999Z</time>
      </trkpt>
      <trkpt lat="47.41862" lon="6.59301">
        <ele>410.7</ele>
        <time>2017-06-11T06:58:10.999Z</time>
      </trkpt>
      <trkpt lat="47.41855" lon="6.59304">
        <ele>410.6</ele>
        <time>2017-06-11T06:58:11.999Z</time>
      </trkpt>
      <trkpt lat="47.41849" lon="6.59308">
        <ele>410.5</ele>
        <time>2017-06-11T06:58:12.999Z</time>
      </trkpt>
      <trkpt lat="47.41843" lon="6.59311">
        <ele>410.5</ele>
        <time>2017-06-11T06:58:13.999Z</time>
      </trkpt>
      <trkpt lat="47.41838" lon="6.59313">
        <ele>410.4</ele>
        <time>2017-06-11T06:58:14.999Z</time>
      </trkpt>
      <trkpt lat="47.41836" lon="6.59314">
        <ele>410.4</ele>
        <time>2017-06-11T06:58:15.999Z</time>
      </trkpt>
      <trkpt lat="47.4183" lon="6.59316">
        <ele>410.4</ele>
        <time>2017-06-11T06:58:16.999Z</time>
      </trkpt>
      <trkpt lat="47.41827" lon="6.59319">
        <ele>410.5</ele>
        <time>2017-06-11T06:58:17.999Z</time>
      </trkpt>
      <trkpt lat="47.41825" lon="6.59319">
        <ele>410.6</ele>
        <time>2017-06-11T06:58:18.999Z</time>
      </trkpt>
      <trkpt lat="47.41822" lon="6.5932">
        <ele>410.8</ele>
        <time>2017-06-11T06:58:19.999Z</time>
      </trkpt>
      <trkpt lat="47.41819" lon="6.5932">
        <ele>410.9</ele>
        <time>2017-06-11T06:58:20.999Z</time>
      </trkpt>
      <trkpt lat="47.41816" lon="6.59321">
        <ele>411</ele>
        <time>2017-06-11T06:58:21.999Z</time>
      </trkpt>
      <trkpt lat="47.41813" lon="6.59322">
        <ele>411.2</ele>
        <time>2017-06-11T06:58:22.999Z</time>
      </trkpt>
      <trkpt lat="47.4181" lon="6.59323">
        <ele>411.4</ele>
        <time>2017-06-11T06:58:23.999Z</time>
      </trkpt>
      <trkpt lat="47.41808" lon="6.5932">
        <ele>411.8</ele>
        <time>2017-06-11T06:58:24.999Z</time>
      </trkpt>
      <trkpt lat="47.41807" lon="6.59318">
        <ele>412</ele>
        <time>2017-06-11T06:58:25.999Z</time>
      </trkpt>
      <trkpt lat="47.41805" lon="6.59314">
        <ele>412.2</ele>
        <time>2017-06-11T06:58:26.999Z</time>
      </trkpt>
      <trkpt lat="47.41804" lon="6.59309">
        <ele>412.5</ele>
        <time>2017-06-11T06:58:27.999Z</time>
      </trkpt>
      <trkpt lat="47.41804" lon="6.59303">
        <ele>415.4</ele>
        <time>2017-06-11T06:58:28.999Z</time>
      </trkpt>
      <trkpt lat="47.41804" lon="6.59299">
        <ele>415.6</ele>
        <time>2017-06-11T06:58:29.999Z</time>
      </trkpt>
      <trkpt lat="47.41803" lon="6.59294">
        <ele>415.7</ele>
        <time>2017-06-11T06:58:30.999Z</time>
      </trkpt>
      <trkpt lat="47.41804" lon="6.59289">
        <ele>415.8</ele>
        <time>2017-06-11T06:58:32.999Z</time>
      </trkpt>
      <trkpt lat="47.41804" lon="6.59286">
        <ele>415.9</ele>
        <time>2017-06-11T06:58:33.999Z</time>
      </trkpt>
      <trkpt lat="47.41805" lon="6.59281">
        <ele>415.9</ele>
        <time>2017-06-11T06:58:34.999Z</time>
      </trkpt>
      <trkpt lat="47.41805" lon="6.59274">
        <ele>416</ele>
        <time>2017-06-11T06:58:35.999Z</time>
      </trkpt>
      <trkpt lat="47.41802" lon="6.59267">
        <ele>416.9</ele>
        <time>2017-06-11T06:58:36.999Z</time>
      </trkpt>
      <trkpt lat="47.41798" lon="6.59256">
        <ele>418</ele>
        <time>2017-06-11T06:58:37.999Z</time>
      </trkpt>
      <trkpt lat="47.41793" lon="6.59249">
        <ele>418</ele>
        <time>2017-06-11T06:58:38.999Z</time>
      </trkpt>
      <trkpt lat="47.41791" lon="6.59245">
        <ele>417.9</ele>
        <time>2017-06-11T06:58:39.999Z</time>
      </trkpt>
      <trkpt lat="47.41789" lon="6.59242">
        <ele>417.8</ele>
        <time>2017-06-11T06:58:40.999Z</time>
      </trkpt>
      <trkpt lat="47.41787" lon="6.59238">
        <ele>417.6</ele>
        <time>2017-06-11T06:58:41.999Z</time>
      </trkpt>
      <trkpt lat="47.41783" lon="6.59235">
        <ele>417.5</ele>
        <time>2017-06-11T06:58:42.999Z</time>
      </trkpt>
      <trkpt lat="47.41779" lon="6.59233">
        <ele>417.4</ele>
        <time>2017-06-11T06:58:43.999Z</time>
      </trkpt>
      <trkpt lat="47.41776" lon="6.59229">
        <ele>417.3</ele>
        <time>2017-06-11T06:58:45.999Z</time>
      </trkpt>
      <trkpt lat="47.41774" lon="6.59227">
        <ele>417.3</ele>
        <time>2017-06-11T06:58:46.999Z</time>
      </trkpt>
      <trkpt lat="47.41771" lon="6.59223">
        <ele>417.3</ele>
        <time>2017-06-11T06:58:47.999Z</time>
      </trkpt>
      <trkpt lat="47.4177" lon="6.59221">
        <ele>417.4</ele>
        <time>2017-06-11T06:58:48.999Z</time>
      </trkpt>
      <trkpt lat="47.41769" lon="6.59217">
        <ele>417.4</ele>
        <time>2017-06-11T06:58:49.999Z</time>
      </trkpt>
      <trkpt lat="47.41768" lon="6.59213">
        <ele>417.5</ele>
        <time>2017-06-11T06:58:50.999Z</time>
      </trkpt>
      <trkpt lat="47.41767" lon="6.59209">
        <ele>417.7</ele>
        <time>2017-06-11T06:58:51.999Z</time>
      </trkpt>
      <trkpt lat="47.41765" lon="6.59201">
        <ele>417.7</ele>
        <time>2017-06-11T06:58:52.999Z</time>
      </trkpt>
      <trkpt lat="47.41763" lon="6.59196">
        <ele>417.7</ele>
        <time>2017-06-11T06:58:53.999Z</time>
      </trkpt>
      <trkpt lat="47.41763" lon="6.59192">
        <ele>417.8</ele>
        <time>2017-06-11T06:58:54.999Z</time>
      </trkpt>
      <trkpt lat="47.41763" lon="6.5919">
        <ele>417.8</ele>
        <time>2017-06-11T06:58:55.999Z</time>
      </trkpt>
      <trkpt lat="47.41762" lon="6.59183">
        <ele>417.8</ele>
        <time>2017-06-11T06:58:56.999Z</time>
      </trkpt>
      <trkpt lat="47.41761" lon="6.59177">
        <ele>417.9</ele>
        <time>2017-06-11T06:58:57.999Z</time>
      </trkpt>
      <trkpt lat="47.4176" lon="6.59175">
        <ele>418</ele>
        <time>2017-06-11T06:58:58.999Z</time>
      </trkpt>
      <trkpt lat="47.41759" lon="6.59171">
        <ele>418.1</ele>
        <time>2017-06-11T06:58:59.999Z</time>
      </trkpt>
      <trkpt lat="47.41758" lon="6.59168">
        <ele>418.3</ele>
        <time>2017-06-11T06:59:00.999Z</time>
      </trkpt>
      <trkpt lat="47.41756" lon="6.59165">
        <ele>418.3</ele>
        <time>2017-06-11T06:59:01.999Z</time>
      </trkpt>
      <trkpt lat="47.41753" lon="6.5916">
        <ele>418.2</ele>
        <time>2017-06-11T06:59:02.999Z</time>
      </trkpt>
      <trkpt lat="47.41752" lon="6.59155">
        <ele>418.1</ele>
        <time>2017-06-11T06:59:05.999Z</time>
      </trkpt>
      <trkpt lat="47.41751" lon="6.59151">
        <ele>418</ele>
        <time>2017-06-11T06:59:06.999Z</time>
      </trkpt>
      <trkpt lat="47.41748" lon="6.59149">
        <ele>418.1</ele>
        <time>2017-06-11T06:59:07.999Z</time>
      </trkpt>
      <trkpt lat="47.41743" lon="6.59146">
        <ele>418</ele>
        <time>2017-06-11T06:59:08.999Z</time>
      </trkpt>
      <trkpt lat="47.41738" lon="6.59144">
        <ele>418</ele>
        <time>2017-06-11T06:59:09.999Z</time>
      </trkpt>
      <trkpt lat="47.41736" lon="6.5914">
        <ele>417.9</ele>
        <time>2017-06-11T06:59:11.999Z</time>
      </trkpt>
      <trkpt lat="47.41735" lon="6.59138">
        <ele>418</ele>
        <time>2017-06-11T06:59:12.999Z</time>
      </trkpt>
      <trkpt lat="47.41733" lon="6.59136">
        <ele>418</ele>
        <time>2017-06-11T06:59:13.999Z</time>
      </trkpt>
      <trkpt lat="47.41731" lon="6.59134">
        <ele>418.1</ele>
        <time>2017-06-11T06:59:14.999Z</time>
      </trkpt>
      <trkpt lat="47.41731" lon="6.5913">
        <ele>418.3</ele>
        <time>2017-06-11T06:59:15.999Z</time>
      </trkpt>
      <trkpt lat="47.41732" lon="6.59126">
        <ele>418.4</ele>
        <time>2017-06-11T06:59:16.999Z</time>
      </trkpt>
      <trkpt lat="47.41731" lon="6.59121">
        <ele>418.6</ele>
        <time>2017-06-11T06:59:18.999Z</time>
      </trkpt>
      <trkpt lat="47.41732" lon="6.59114">
        <ele>418.8</ele>
        <time>2017-06-11T06:59:19.999Z</time>
      </trkpt>
      <trkpt lat="47.41728" lon="6.5911">
        <ele>418.9</ele>
        <time>2017-06-11T06:59:20.999Z</time>
      </trkpt>
      <trkpt lat="47.41725" lon="6.59107">
        <ele>419</ele>
        <time>2017-06-11T06:59:21.999Z</time>
      </trkpt>
      <trkpt lat="47.41722" lon="6.59103">
        <ele>419.2</ele>
        <time>2017-06-11T06:59:22.999Z</time>
      </trkpt>
      <trkpt lat="47.41721" lon="6.591">
        <ele>419.5</ele>
        <time>2017-06-11T06:59:23.999Z</time>
      </trkpt>
      <trkpt lat="47.41721" lon="6.59093">
        <ele>419.7</ele>
        <time>2017-06-11T06:59:24.999Z</time>
      </trkpt>
      <trkpt lat="47.41725" lon="6.59087">
        <ele>419.7</ele>
        <time>2017-06-11T06:59:25.999Z</time>
      </trkpt>
      <trkpt lat="47.41728" lon="6.59082">
        <ele>419.8</ele>
        <time>2017-06-11T06:59:26.999Z</time>
      </trkpt>
      <trkpt lat="47.4173" lon="6.59075">
        <ele>420</ele>
        <time>2017-06-11T06:59:27.999Z</time>
      </trkpt>
      <trkpt lat="47.41734" lon="6.59066">
        <ele>420.1</ele>
        <time>2017-06-11T06:59:28.999Z</time>
      </trkpt>
      <trkpt lat="47.41735" lon="6.59063">
        <ele>420.2</ele>
        <time>2017-06-11T06:59:29.999Z</time>
      </trkpt>
      <trkpt lat="47.41736" lon="6.5906">
        <ele>420.4</ele>
        <time>2017-06-11T06:59:30.999Z</time>
      </trkpt>
      <trkpt lat="47.41738" lon="6.59057">
        <ele>420.5</ele>
        <time>2017-06-11T06:59:31.999Z</time>
      </trkpt>
      <trkpt lat="47.41739" lon="6.59054">
        <ele>420.6</ele>
        <time>2017-06-11T06:59:32.999Z</time>
      </trkpt>
      <trkpt lat="47.41741" lon="6.5905">
        <ele>420.6</ele>
        <time>2017-06-11T06:59:33.999Z</time>
      </trkpt>
      <trkpt lat="47.41741" lon="6.59045">
        <ele>420.9</ele>
        <time>2017-06-11T06:59:34.999Z</time>
      </trkpt>
      <trkpt lat="47.41742" lon="6.5904">
        <ele>421.1</ele>
        <time>2017-06-11T06:59:35.999Z</time>
      </trkpt>
      <trkpt lat="47.41741" lon="6.59034">
        <ele>421.3</ele>
        <time>2017-06-11T06:59:36.999Z</time>
      </trkpt>
      <trkpt lat="47.41739" lon="6.59029">
        <ele>421.6</ele>
        <time>2017-06-11T06:59:37.999Z</time>
      </trkpt>
      <trkpt lat="47.41739" lon="6.59025">
        <ele>421.9</ele>
        <time>2017-06-11T06:59:38.999Z</time>
      </trkpt>
      <trkpt lat="47.41739" lon="6.59021">
        <ele>422.1</ele>
        <time>2017-06-11T06:59:39.999Z</time>
      </trkpt>
      <trkpt lat="47.41737" lon="6.59017">
        <ele>422.4</ele>
        <time>2017-06-11T06:59:40.999Z</time>
      </trkpt>
      <trkpt lat="47.41737" lon="6.59013">
        <ele>422.7</ele>
        <time>2017-06-11T06:59:41.999Z</time>
      </trkpt>
      <trkpt lat="47.41737" lon="6.59008">
        <ele>422.8</ele>
        <time>2017-06-11T06:59:42.999Z</time>
      </trkpt>
      <trkpt lat="47.41736" lon="6.59005">
        <ele>422.9</ele>
        <time>2017-06-11T06:59:43.999Z</time>
      </trkpt>
      <trkpt lat="47.41737" lon="6.59002">
        <ele>423.2</ele>
        <time>2017-06-11T06:59:44.999Z</time>
      </trkpt>
      <trkpt lat="47.41736" lon="6.58997">
        <ele>423.3</ele>
        <time>2017-06-11T06:59:45.999Z</time>
      </trkpt>
      <trkpt lat="47.41734" lon="6.58991">
        <ele>423.4</ele>
        <time>2017-06-11T06:59:46.999Z</time>
      </trkpt>
      <trkpt lat="47.41731" lon="6.58987">
        <ele>423.4</ele>
        <time>2017-06-11T06:59:47.999Z</time>
      </trkpt>
      <trkpt lat="47.41725" lon="6.58981">
        <ele>423.3</ele>
        <time>2017-06-11T06:59:48.999Z</time>
      </trkpt>
      <trkpt lat="47.41719" lon="6.58975">
        <ele>423.3</ele>
        <time>2017-06-11T06:59:49.999Z</time>
      </trkpt>
      <trkpt lat="47.41715" lon="6.58969">
        <ele>423.2</ele>
        <time>2017-06-11T06:59:50.999Z</time>
      </trkpt>
      <trkpt lat="47.41712" lon="6.58966">
        <ele>423.1</ele>
        <time>2017-06-11T06:59:51.999Z</time>
      </trkpt>
      <trkpt lat="47.4171" lon="6.58964">
        <ele>423</ele>
        <time>2017-06-11T06:59:52.999Z</time>
      </trkpt>
      <trkpt lat="47.41705" lon="6.5896">
        <ele>422.9</ele>
        <time>2017-06-11T06:59:53.999Z</time>
      </trkpt>
      <trkpt lat="47.41702" lon="6.58958">
        <ele>422.7</ele>
        <time>2017-06-11T06:59:54.999Z</time>
      </trkpt>
      <trkpt lat="47.41699" lon="6.58957">
        <ele>422.5</ele>
        <time>2017-06-11T06:59:55.999Z</time>
      </trkpt>
      <trkpt lat="47.41698" lon="6.58955">
        <ele>422.3</ele>
        <time>2017-06-11T06:59:56.999Z</time>
      </trkpt>
      <trkpt lat="47.41695" lon="6.58954">
        <ele>422.1</ele>
        <time>2017-06-11T06:59:57.999Z</time>
      </trkpt>
      <trkpt lat="47.41693" lon="6.58953">
        <ele>421.8</ele>
        <time>2017-06-11T06:59:58.999Z</time>
      </trkpt>
      <trkpt lat="47.41689" lon="6.58953">
        <ele>421.6</ele>
        <time>2017-06-11T06:59:59.999Z</time>
      </trkpt>
      <trkpt lat="47.41685" lon="6.58952">
        <ele>421.5</ele>
        <time>2017-06-11T07:00:00.999Z</time>
      </trkpt>
      <trkpt lat="47.41683" lon="6.58953">
        <ele>421.4</ele>
        <time>2017-06-11T07:00:01.999Z</time>
      </trkpt>
      <trkpt lat="47.4168" lon="6.58952">
        <ele>421.3</ele>
        <time>2017-06-11T07:00:02.999Z</time>
      </trkpt>
      <trkpt lat="47.41677" lon="6.58951">
        <ele>421.2</ele>
        <time>2017-06-11T07:00:03.999Z</time>
      </trkpt>
      <trkpt lat="47.41675" lon="6.5895">
        <ele>421.1</ele>
        <time>2017-06-11T07:00:04.999Z</time>
      </trkpt>
      <trkpt lat="47.41672" lon="6.5895">
        <ele>421</ele>
        <time>2017-06-11T07:00:05.999Z</time>
      </trkpt>
      <trkpt lat="47.41669" lon="6.5895">
        <ele>420.9</ele>
        <time>2017-06-11T07:00:06.999Z</time>
      </trkpt>
      <trkpt lat="47.41666" lon="6.58951">
        <ele>420.9</ele>
        <time>2017-06-11T07:00:07.999Z</time>
      </trkpt>
      <trkpt lat="47.41663" lon="6.58953">
        <ele>420.8</ele>
        <time>2017-06-11T07:00:08.999Z</time>
      </trkpt>
      <trkpt lat="47.41662" lon="6.58954">
        <ele>420.9</ele>
        <time>2017-06-11T07:00:09.999Z</time>
      </trkpt>
      <trkpt lat="47.41658" lon="6.58957">
        <ele>421</ele>
        <time>2017-06-11T07:00:11.999Z</time>
      </trkpt>
      <trkpt lat="47.41656" lon="6.58958">
        <ele>421.1</ele>
        <time>2017-06-11T07:00:12.999Z</time>
      </trkpt>
      <trkpt lat="47.41654" lon="6.58959">
        <ele>421.2</ele>
        <time>2017-06-11T07:00:13.999Z</time>
      </trkpt>
      <trkpt lat="47.41651" lon="6.58961">
        <ele>421.2</ele>
        <time>2017-06-11T07:00:14.999Z</time>
      </trkpt>
      <trkpt lat="47.4165" lon="6.58962">
        <ele>421.2</ele>
        <time>2017-06-11T07:00:15.999Z</time>
      </trkpt>
      <trkpt lat="47.41648" lon="6.58965">
        <ele>421.2</ele>
        <time>2017-06-11T07:00:16.999Z</time>
      </trkpt>
      <trkpt lat="47.41646" lon="6.58967">
        <ele>421.3</ele>
        <time>2017-06-11T07:00:17.999Z</time>
      </trkpt>
      <trkpt lat="47.41644" lon="6.5897">
        <ele>421.5</ele>
        <time>2017-06-11T07:00:18.999Z</time>
      </trkpt>
      <trkpt lat="47.41641" lon="6.58974">
        <ele>421.6</ele>
        <time>2017-06-11T07:00:19.999Z</time>
      </trkpt>
      <trkpt lat="47.4164" lon="6.58978">
        <ele>421.7</ele>
        <time>2017-06-11T07:00:20.999Z</time>
      </trkpt>
      <trkpt lat="47.41637" lon="6.58979">
        <ele>421.8</ele>
        <time>2017-06-11T07:00:22.999Z</time>
      </trkpt>
      <trkpt lat="47.41634" lon="6.58981">
        <ele>421.9</ele>
        <time>2017-06-11T07:00:23.999Z</time>
      </trkpt>
      <trkpt lat="47.41631" lon="6.58985">
        <ele>422.2</ele>
        <time>2017-06-11T07:00:24.999Z</time>
      </trkpt>
      <trkpt lat="47.41628" lon="6.58989">
        <ele>422.3</ele>
        <time>2017-06-11T07:00:25.999Z</time>
      </trkpt>
      <trkpt lat="47.41624" lon="6.5899">
        <ele>422.5</ele>
        <time>2017-06-11T07:00:27.999Z</time>
      </trkpt>
      <trkpt lat="47.41623" lon="6.58991">
        <ele>422.6</ele>
        <time>2017-06-11T07:00:28.999Z</time>
      </trkpt>
      <trkpt lat="47.41621" lon="6.58992">
        <ele>422.7</ele>
        <time>2017-06-11T07:00:29.999Z</time>
      </trkpt>
      <trkpt lat="47.41619" lon="6.58996">
        <ele>422.7</ele>
        <time>2017-06-11T07:00:30.999Z</time>
      </trkpt>
      <trkpt lat="47.41617" lon="6.59">
        <ele>422.6</ele>
        <time>2017-06-11T07:00:31.999Z</time>
      </trkpt>
      <trkpt lat="47.41616" lon="6.59006">
        <ele>422.5</ele>
        <time>2017-06-11T07:00:32.999Z</time>
      </trkpt>
      <trkpt lat="47.41616" lon="6.59013">
        <ele>422.4</ele>
        <time>2017-06-11T07:00:33.999Z</time>
      </trkpt>
      <trkpt lat="47.41615" lon="6.59016">
        <ele>422.3</ele>
        <time>2017-06-11T07:00:34.999Z</time>
      </trkpt>
      <trkpt lat="47.41614" lon="6.59021">
        <ele>422.2</ele>
        <time>2017-06-11T07:00:35.999Z</time>
      </trkpt>
      <trkpt lat="47.41611" lon="6.59025">
        <ele>422.1</ele>
        <time>2017-06-11T07:00:36.999Z</time>
      </trkpt>
      <trkpt lat="47.41609" lon="6.59028">
        <ele>422</ele>
        <time>2017-06-11T07:00:37.999Z</time>
      </trkpt>
      <trkpt lat="47.41608" lon="6.5903">
        <ele>421.8</ele>
        <time>2017-06-11T07:00:38.999Z</time>
      </trkpt>
      <trkpt lat="47.41606" lon="6.59037">
        <ele>421.7</ele>
        <time>2017-06-11T07:00:39.999Z</time>
      </trkpt>
      <trkpt lat="47.41605" lon="6.59041">
        <ele>421.7</ele>
        <time>2017-06-11T07:00:40.999Z</time>
      </trkpt>
      <trkpt lat="47.41604" lon="6.59044">
        <ele>421.7</ele>
        <time>2017-06-11T07:00:41.999Z</time>
      </trkpt>
      <trkpt lat="47.41602" lon="6.59048">
        <ele>421.6</ele>
        <time>2017-06-11T07:00:42.999Z</time>
      </trkpt>
      <trkpt lat="47.41601" lon="6.59051">
        <ele>421.6</ele>
        <time>2017-06-11T07:00:43.999Z</time>
      </trkpt>
      <trkpt lat="47.416" lon="6.59055">
        <ele>421.5</ele>
        <time>2017-06-11T07:00:44.999Z</time>
      </trkpt>
      <trkpt lat="47.41599" lon="6.59058">
        <ele>421.4</ele>
        <time>2017-06-11T07:00:45.999Z</time>
      </trkpt>
      <trkpt lat="47.41595" lon="6.59061">
        <ele>421.2</ele>
        <time>2017-06-11T07:00:47.999Z</time>
      </trkpt>
      <trkpt lat="47.41592" lon="6.59063">
        <ele>420.9</ele>
        <time>2017-06-11T07:00:48.999Z</time>
      </trkpt>
      <trkpt lat="47.4159" lon="6.59065">
        <ele>420.6</ele>
        <time>2017-06-11T07:00:49.999Z</time>
      </trkpt>
      <trkpt lat="47.41587" lon="6.59068">
        <ele>420.4</ele>
        <time>2017-06-11T07:00:50.999Z</time>
      </trkpt>
      <trkpt lat="47.41584" lon="6.59072">
        <ele>420</ele>
        <time>2017-06-11T07:00:51.999Z</time>
      </trkpt>
      <trkpt lat="47.41583" lon="6.59073">
        <ele>419.7</ele>
        <time>2017-06-11T07:00:52.999Z</time>
      </trkpt>
      <trkpt lat="47.41579" lon="6.59077">
        <ele>419.4</ele>
        <time>2017-06-11T07:00:53.999Z</time>
      </trkpt>
      <trkpt lat="47.41578" lon="6.59079">
        <ele>419.3</ele>
        <time>2017-06-11T07:00:54.999Z</time>
      </trkpt>
      <trkpt lat="47.41574" lon="6.59083">
        <ele>419.2</ele>
        <time>2017-06-11T07:00:55.999Z</time>
      </trkpt>
      <trkpt lat="47.41573" lon="6.59088">
        <ele>419.1</ele>
        <time>2017-06-11T07:00:57.999Z</time>
      </trkpt>
      <trkpt lat="47.41569" lon="6.59094">
        <ele>419.1</ele>
        <time>2017-06-11T07:00:58.999Z</time>
      </trkpt>
      <trkpt lat="47.41567" lon="6.59097">
        <ele>419</ele>
        <time>2017-06-11T07:00:59.999Z</time>
      </trkpt>
      <trkpt lat="47.41565" lon="6.59104">
        <ele>418.8</ele>
        <time>2017-06-11T07:01:00.999Z</time>
      </trkpt>
      <trkpt lat="47.41564" lon="6.59111">
        <ele>418.6</ele>
        <time>2017-06-11T07:01:01.999Z</time>
      </trkpt>
      <trkpt lat="47.41564" lon="6.59119">
        <ele>418.4</ele>
        <time>2017-06-11T07:01:02.999Z</time>
      </trkpt>
      <trkpt lat="47.41564" lon="6.59126">
        <ele>418.2</ele>
        <time>2017-06-11T07:01:03.999Z</time>
      </trkpt>
      <trkpt lat="47.41563" lon="6.59132">
        <ele>418</ele>
        <time>2017-06-11T07:01:04.999Z</time>
      </trkpt>
      <trkpt lat="47.41563" lon="6.59137">
        <ele>417.9</ele>
        <time>2017-06-11T07:01:05.999Z</time>
      </trkpt>
      <trkpt lat="47.41562" lon="6.59141">
        <ele>417.9</ele>
        <time>2017-06-11T07:01:06.999Z</time>
      </trkpt>
      <trkpt lat="47.41562" lon="6.59145">
        <ele>417.8</ele>
        <time>2017-06-11T07:01:07.999Z</time>
      </trkpt>
      <trkpt lat="47.41561" lon="6.59148">
        <ele>417.7</ele>
        <time>2017-06-11T07:01:08.999Z</time>
      </trkpt>
      <trkpt lat="47.41559" lon="6.59151">
        <ele>417.6</ele>
        <time>2017-06-11T07:01:10.999Z</time>
      </trkpt>
      <trkpt lat="47.41557" lon="6.59153">
        <ele>417.5</ele>
        <time>2017-06-11T07:01:11.999Z</time>
      </trkpt>
      <trkpt lat="47.41555" lon="6.59155">
        <ele>417.5</ele>
        <time>2017-06-11T07:01:12.999Z</time>
      </trkpt>
      <trkpt lat="47.41552" lon="6.59157">
        <ele>417.5</ele>
        <time>2017-06-11T07:01:13.999Z</time>
      </trkpt>
      <trkpt lat="47.4155" lon="6.59159">
        <ele>417.4</ele>
        <time>2017-06-11T07:01:14.999Z</time>
      </trkpt>
      <trkpt lat="47.41545" lon="6.59164">
        <ele>417.3</ele>
        <time>2017-06-11T07:01:15.999Z</time>
      </trkpt>
      <trkpt lat="47.41543" lon="6.59166">
        <ele>417.3</ele>
        <time>2017-06-11T07:01:16.999Z</time>
      </trkpt>
      <trkpt lat="47.4154" lon="6.59167">
        <ele>417.1</ele>
        <time>2017-06-11T07:01:17.999Z</time>
      </trkpt>
      <trkpt lat="47.41538" lon="6.59167">
        <ele>416.8</ele>
        <time>2017-06-11T07:01:18.999Z</time>
      </trkpt>
      <trkpt lat="47.41535" lon="6.59166">
        <ele>416.7</ele>
        <time>2017-06-11T07:01:19.999Z</time>
      </trkpt>
      <trkpt lat="47.41532" lon="6.59168">
        <ele>416.7</ele>
        <time>2017-06-11T07:01:20.999Z</time>
      </trkpt>
      <trkpt lat="47.41529" lon="6.5917">
        <ele>416.6</ele>
        <time>2017-06-11T07:01:21.999Z</time>
      </trkpt>
      <trkpt lat="47.41524" lon="6.59172">
        <ele>416.6</ele>
        <time>2017-06-11T07:01:22.999Z</time>
      </trkpt>
      <trkpt lat="47.41519" lon="6.59173">
        <ele>416.6</ele>
        <time>2017-06-11T07:01:23.999Z</time>
      </trkpt>
      <trkpt lat="47.41517" lon="6.59176">
        <ele>416.6</ele>
        <time>2017-06-11T07:01:24.999Z</time>
      </trkpt>
      <trkpt lat="47.41515" lon="6.59183">
        <ele>416.6</ele>
        <time>2017-06-11T07:01:25.999Z</time>
      </trkpt>
      <trkpt lat="47.41512" lon="6.59189">
        <ele>416.6</ele>
        <time>2017-06-11T07:01:26.999Z</time>
      </trkpt>
      <trkpt lat="47.41511" lon="6.59193">
        <ele>416.5</ele>
        <time>2017-06-11T07:01:27.999Z</time>
      </trkpt>
      <trkpt lat="47.41508" lon="6.59194">
        <ele>416.4</ele>
        <time>2017-06-11T07:01:28.999Z</time>
      </trkpt>
      <trkpt lat="47.41504" lon="6.59198">
        <ele>416.2</ele>
        <time>2017-06-11T07:01:29.999Z</time>
      </trkpt>
      <trkpt lat="47.41501" lon="6.592">
        <ele>416.1</ele>
        <time>2017-06-11T07:01:30.999Z</time>
      </trkpt>
      <trkpt lat="47.41498" lon="6.59201">
        <ele>416</ele>
        <time>2017-06-11T07:01:31.999Z</time>
      </trkpt>
      <trkpt lat="47.41496" lon="6.592">
        <ele>416.1</ele>
        <time>2017-06-11T07:01:32.999Z</time>
      </trkpt>
      <trkpt lat="47.41493" lon="6.59197">
        <ele>416.1</ele>
        <time>2017-06-11T07:01:33.999Z</time>
      </trkpt>
      <trkpt lat="47.4149" lon="6.59193">
        <ele>416.2</ele>
        <time>2017-06-11T07:01:34.999Z</time>
      </trkpt>
      <trkpt lat="47.41489" lon="6.59192">
        <ele>416.4</ele>
        <time>2017-06-11T07:01:35.999Z</time>
      </trkpt>
      <trkpt lat="47.41486" lon="6.5919">
        <ele>416.6</ele>
        <time>2017-06-11T07:01:37.999Z</time>
      </trkpt>
      <trkpt lat="47.41485" lon="6.5919">
        <ele>416.7</ele>
        <time>2017-06-11T07:01:38.999Z</time>
      </trkpt>
      <trkpt lat="47.41481" lon="6.59188">
        <ele>416.9</ele>
        <time>2017-06-11T07:01:39.999Z</time>
      </trkpt>
      <trkpt lat="47.41477" lon="6.59187">
        <ele>417.1</ele>
        <time>2017-06-11T07:01:40.999Z</time>
      </trkpt>
      <trkpt lat="47.41472" lon="6.59189">
        <ele>417.2</ele>
        <time>2017-06-11T07:01:41.999Z</time>
      </trkpt>
      <trkpt lat="47.4147" lon="6.59189">
        <ele>417.4</ele>
        <time>2017-06-11T07:01:42.999Z</time>
      </trkpt>
      <trkpt lat="47.41468" lon="6.59188">
        <ele>417.7</ele>
        <time>2017-06-11T07:01:43.999Z</time>
      </trkpt>
      <trkpt lat="47.41464" lon="6.59187">
        <ele>418.1</ele>
        <time>2017-06-11T07:01:45.999Z</time>
      </trkpt>
      <trkpt lat="47.41462" lon="6.59187">
        <ele>418.4</ele>
        <time>2017-06-11T07:01:46.999Z</time>
      </trkpt>
      <trkpt lat="47.4146" lon="6.59186">
        <ele>418.7</ele>
        <time>2017-06-11T07:01:47.999Z</time>
      </trkpt>
      <trkpt lat="47.41458" lon="6.59184">
        <ele>419</ele>
        <time>2017-06-11T07:01:48.999Z</time>
      </trkpt>
      <trkpt lat="47.41454" lon="6.59182">
        <ele>419.3</ele>
        <time>2017-06-11T07:01:49.999Z</time>
      </trkpt>
      <trkpt lat="47.41451" lon="6.59181">
        <ele>419.5</ele>
        <time>2017-06-11T07:01:50.999Z</time>
      </trkpt>
      <trkpt lat="47.41449" lon="6.5918">
        <ele>419.9</ele>
        <time>2017-06-11T07:01:52.999Z</time>
      </trkpt>
      <trkpt lat="47.41446" lon="6.59179">
        <ele>420.2</ele>
        <time>2017-06-11T07:01:53.999Z</time>
      </trkpt>
      <trkpt lat="47.41442" lon="6.59178">
        <ele>420.5</ele>
        <time>2017-06-11T07:01:54.999Z</time>
      </trkpt>
      <trkpt lat="47.41438" lon="6.59174">
        <ele>421.2</ele>
        <time>2017-06-11T07:01:57.999Z</time>
      </trkpt>
      <trkpt lat="47.41435" lon="6.59172">
        <ele>421.4</ele>
        <time>2017-06-11T07:01:58.999Z</time>
      </trkpt>
      <trkpt lat="47.41433" lon="6.59171">
        <ele>421.6</ele>
        <time>2017-06-11T07:01:59.999Z</time>
      </trkpt>
      <trkpt lat="47.4143" lon="6.5917">
        <ele>422</ele>
        <time>2017-06-11T07:02:00.999Z</time>
      </trkpt>
      <trkpt lat="47.41428" lon="6.59167">
        <ele>422.3</ele>
        <time>2017-06-11T07:02:01.999Z</time>
      </trkpt>
      <trkpt lat="47.41425" lon="6.59165">
        <ele>422.6</ele>
        <time>2017-06-11T07:02:02.999Z</time>
      </trkpt>
      <trkpt lat="47.41421" lon="6.59161">
        <ele>422.8</ele>
        <time>2017-06-11T07:02:03.999Z</time>
      </trkpt>
      <trkpt lat="47.41418" lon="6.59159">
        <ele>422.9</ele>
        <time>2017-06-11T07:02:04.999Z</time>
      </trkpt>
      <trkpt lat="47.41416" lon="6.59158">
        <ele>422.9</ele>
        <time>2017-06-11T07:02:05.999Z</time>
      </trkpt>
      <trkpt lat="47.41414" lon="6.59157">
        <ele>422.9</ele>
        <time>2017-06-11T07:02:06.999Z</time>
      </trkpt>
      <trkpt lat="47.41411" lon="6.59153">
        <ele>423</ele>
        <time>2017-06-11T07:02:07.999Z</time>
      </trkpt>
      <trkpt lat="47.4141" lon="6.59152">
        <ele>423.1</ele>
        <time>2017-06-11T07:02:08.999Z</time>
      </trkpt>
      <trkpt lat="47.41408" lon="6.59149">
        <ele>423.3</ele>
        <time>2017-06-11T07:02:09.999Z</time>
      </trkpt>
      <trkpt lat="47.41405" lon="6.59144">
        <ele>423.5</ele>
        <time>2017-06-11T07:02:10.999Z</time>
      </trkpt>
      <trkpt lat="47.41403" lon="6.59143">
        <ele>423.8</ele>
        <time>2017-06-11T07:02:11.999Z</time>
      </trkpt>
      <trkpt lat="47.41401" lon="6.59142">
        <ele>424.1</ele>
        <time>2017-06-11T07:02:12.999Z</time>
      </trkpt>
      <trkpt lat="47.41395" lon="6.59139">
        <ele>424.3</ele>
        <time>2017-06-11T07:02:13.999Z</time>
      </trkpt>
      <trkpt lat="47.4139" lon="6.59137">
        <ele>424.5</ele>
        <time>2017-06-11T07:02:14.999Z</time>
      </trkpt>
      <trkpt lat="47.41387" lon="6.59135">
        <ele>425</ele>
        <time>2017-06-11T07:02:16.999Z</time>
      </trkpt>
      <trkpt lat="47.41386" lon="6.59135">
        <ele>425.3</ele>
        <time>2017-06-11T07:02:17.999Z</time>
      </trkpt>
      <trkpt lat="47.41383" lon="6.59134">
        <ele>425.9</ele>
        <time>2017-06-11T07:02:19.999Z</time>
      </trkpt>
      <trkpt lat="47.41378" lon="6.59132">
        <ele>426.1</ele>
        <time>2017-06-11T07:02:20.999Z</time>
      </trkpt>
      <trkpt lat="47.41374" lon="6.59129">
        <ele>426.3</ele>
        <time>2017-06-11T07:02:21.999Z</time>
      </trkpt>
      <trkpt lat="47.41372" lon="6.59129">
        <ele>426.6</ele>
        <time>2017-06-11T07:02:22.999Z</time>
      </trkpt>
      <trkpt lat="47.41367" lon="6.5913">
        <ele>426.7</ele>
        <time>2017-06-11T07:02:23.999Z</time>
      </trkpt>
      <trkpt lat="47.41362" lon="6.59132">
        <ele>426.8</ele>
        <time>2017-06-11T07:02:24.999Z</time>
      </trkpt>
      <trkpt lat="47.41359" lon="6.59134">
        <ele>427</ele>
        <time>2017-06-11T07:02:25.999Z</time>
      </trkpt>
      <trkpt lat="47.41353" lon="6.59134">
        <ele>427.2</ele>
        <time>2017-06-11T07:02:26.999Z</time>
      </trkpt>
      <trkpt lat="47.4135" lon="6.59133">
        <ele>427.4</ele>
        <time>2017-06-11T07:02:27.999Z</time>
      </trkpt>
      <trkpt lat="47.41347" lon="6.59134">
        <ele>427.6</ele>
        <time>2017-06-11T07:02:28.999Z</time>
      </trkpt>
      <trkpt lat="47.41344" lon="6.59134">
        <ele>427.7</ele>
        <time>2017-06-11T07:02:29.999Z</time>
      </trkpt>
      <trkpt lat="47.41342" lon="6.59135">
        <ele>427.7</ele>
        <time>2017-06-11T07:02:30.999Z</time>
      </trkpt>
      <trkpt lat="47.4134" lon="6.59135">
        <ele>427.8</ele>
        <time>2017-06-11T07:02:31.999Z</time>
      </trkpt>
      <trkpt lat="47.41335" lon="6.59136">
        <ele>427.7</ele>
        <time>2017-06-11T07:02:32.999Z</time>
      </trkpt>
      <trkpt lat="47.41331" lon="6.59136">
        <ele>427.9</ele>
        <time>2017-06-11T07:02:34.999Z</time>
      </trkpt>
      <trkpt lat="47.41328" lon="6.59137">
        <ele>428.1</ele>
        <time>2017-06-11T07:02:35.999Z</time>
      </trkpt>
      <trkpt lat="47.41323" lon="6.59139">
        <ele>428.2</ele>
        <time>2017-06-11T07:02:36.999Z</time>
      </trkpt>
      <trkpt lat="47.4132" lon="6.5914">
        <ele>428.4</ele>
        <time>2017-06-11T07:02:37.999Z</time>
      </trkpt>
      <trkpt lat="47.41317" lon="6.59139">
        <ele>428.5</ele>
        <time>2017-06-11T07:02:38.999Z</time>
      </trkpt>
      <trkpt lat="47.41314" lon="6.59138">
        <ele>428.7</ele>
        <time>2017-06-11T07:02:39.999Z</time>
      </trkpt>
      <trkpt lat="47.41313" lon="6.59137">
        <ele>428.7</ele>
        <time>2017-06-11T07:02:40.999Z</time>
      </trkpt>
      <trkpt lat="47.41308" lon="6.59137">
        <ele>428.8</ele>
        <time>2017-06-11T07:02:41.999Z</time>
      </trkpt>
      <trkpt lat="47.41304" lon="6.59138">
        <ele>428.7</ele>
        <time>2017-06-11T07:02:43.999Z</time>
      </trkpt>
      <trkpt lat="47.41301" lon="6.59139">
        <ele>428.7</ele>
        <time>2017-06-11T07:02:44.999Z</time>
      </trkpt>
      <trkpt lat="47.413" lon="6.59141">
        <ele>428.7</ele>
        <time>2017-06-11T07:02:45.999Z</time>
      </trkpt>
      <trkpt lat="47.41296" lon="6.59144">
        <ele>428.7</ele>
        <time>2017-06-11T07:02:46.999Z</time>
      </trkpt>
      <trkpt lat="47.41292" lon="6.59145">
        <ele>428.6</ele>
        <time>2017-06-11T07:02:48.999Z</time>
      </trkpt>
      <trkpt lat="47.4129" lon="6.59145">
        <ele>428.6</ele>
        <time>2017-06-11T07:02:49.999Z</time>
      </trkpt>
      <trkpt lat="47.41285" lon="6.59144">
        <ele>428.5</ele>
        <time>2017-06-11T07:02:51.999Z</time>
      </trkpt>
      <trkpt lat="47.41284" lon="6.59143">
        <ele>428.5</ele>
        <time>2017-06-11T07:02:52.999Z</time>
      </trkpt>
      <trkpt lat="47.41279" lon="6.59143">
        <ele>428.5</ele>
        <time>2017-06-11T07:02:54.999Z</time>
      </trkpt>
      <trkpt lat="47.41274" lon="6.59144">
        <ele>428.7</ele>
        <time>2017-06-11T07:02:55.999Z</time>
      </trkpt>
      <trkpt lat="47.41272" lon="6.59143">
        <ele>428.9</ele>
        <time>2017-06-11T07:02:56.999Z</time>
      </trkpt>
      <trkpt lat="47.41269" lon="6.59141">
        <ele>428.9</ele>
        <time>2017-06-11T07:02:57.999Z</time>
      </trkpt>
      <trkpt lat="47.41267" lon="6.59139">
        <ele>429.1</ele>
        <time>2017-06-11T07:02:58.999Z</time>
      </trkpt>
      <trkpt lat="47.41264" lon="6.59138">
        <ele>429.2</ele>
        <time>2017-06-11T07:02:59.999Z</time>
      </trkpt>
      <trkpt lat="47.41262" lon="6.59138">
        <ele>429.3</ele>
        <time>2017-06-11T07:03:00.999Z</time>
      </trkpt>
      <trkpt lat="47.41259" lon="6.59138">
        <ele>429.4</ele>
        <time>2017-06-11T07:03:01.999Z</time>
      </trkpt>
      <trkpt lat="47.41257" lon="6.59136">
        <ele>429.5</ele>
        <time>2017-06-11T07:03:02.999Z</time>
      </trkpt>
      <trkpt lat="47.41254" lon="6.59133">
        <ele>429.7</ele>
        <time>2017-06-11T07:03:03.999Z</time>
      </trkpt>
      <trkpt lat="47.4125" lon="6.5913">
        <ele>430.9</ele>
        <time>2017-06-11T07:03:04.999Z</time>
      </trkpt>
      <trkpt lat="47.41243" lon="6.59127">
        <ele>432.2</ele>
        <time>2017-06-11T07:03:05.999Z</time>
      </trkpt>
      <trkpt lat="47.4124" lon="6.59126">
        <ele>432.3</ele>
        <time>2017-06-11T07:03:06.999Z</time>
      </trkpt>
      <trkpt lat="47.41236" lon="6.59127">
        <ele>432.4</ele>
        <time>2017-06-11T07:03:07.999Z</time>
      </trkpt>
      <trkpt lat="47.41231" lon="6.59128">
        <ele>432.4</ele>
        <time>2017-06-11T07:03:08.999Z</time>
      </trkpt>
      <trkpt lat="47.41227" lon="6.59122">
        <ele>432.5</ele>
        <time>2017-06-11T07:03:09.999Z</time>
      </trkpt>
      <trkpt lat="47.41224" lon="6.59118">
        <ele>432.4</ele>
        <time>2017-06-11T07:03:11.999Z</time>
      </trkpt>
      <trkpt lat="47.41223" lon="6.59118">
        <ele>432.4</ele>
        <time>2017-06-11T07:03:12.999Z</time>
      </trkpt>
      <trkpt lat="47.41222" lon="6.59118">
        <ele>432.5</ele>
        <time>2017-06-11T07:03:13.999Z</time>
      </trkpt>
      <trkpt lat="47.41218" lon="6.59111">
        <ele>432.5</ele>
        <time>2017-06-11T07:03:14.999Z</time>
      </trkpt>
      <trkpt lat="47.41215" lon="6.59104">
        <ele>432.6</ele>
        <time>2017-06-11T07:03:15.999Z</time>
      </trkpt>
      <trkpt lat="47.41211" lon="6.59102">
        <ele>432.6</ele>
        <time>2017-06-11T07:03:18.999Z</time>
      </trkpt>
      <trkpt lat="47.4121" lon="6.59101">
        <ele>432.7</ele>
        <time>2017-06-11T07:03:19.999Z</time>
      </trkpt>
      <trkpt lat="47.41205" lon="6.591">
        <ele>432.8</ele>
        <time>2017-06-11T07:03:20.999Z</time>
      </trkpt>
      <trkpt lat="47.41201" lon="6.59097">
        <ele>432.9</ele>
        <time>2017-06-11T07:03:21.999Z</time>
      </trkpt>
      <trkpt lat="47.41198" lon="6.59095">
        <ele>432.9</ele>
        <time>2017-06-11T07:03:22.999Z</time>
      </trkpt>
      <trkpt lat="47.41196" lon="6.59093">
        <ele>433</ele>
        <time>2017-06-11T07:03:24.999Z</time>
      </trkpt>
      <trkpt lat="47.41194" lon="6.59091">
        <ele>433</ele>
        <time>2017-06-11T07:03:25.999Z</time>
      </trkpt>
      <trkpt lat="47.41189" lon="6.59086">
        <ele>433.1</ele>
        <time>2017-06-11T07:03:26.999Z</time>
      </trkpt>
      <trkpt lat="47.41186" lon="6.59084">
        <ele>433</ele>
        <time>2017-06-11T07:03:27.999Z</time>
      </trkpt>
      <trkpt lat="47.41184" lon="6.59084">
        <ele>433</ele>
        <time>2017-06-11T07:03:28.999Z</time>
      </trkpt>
      <trkpt lat="47.41181" lon="6.59082">
        <ele>433</ele>
        <time>2017-06-11T07:03:29.999Z</time>
      </trkpt>
      <trkpt lat="47.41179" lon="6.59081">
        <ele>433</ele>
        <time>2017-06-11T07:03:30.999Z</time>
      </trkpt>
      <trkpt lat="47.41174" lon="6.59079">
        <ele>432.9</ele>
        <time>2017-06-11T07:03:31.999Z</time>
      </trkpt>
      <trkpt lat="47.41172" lon="6.59078">
        <ele>432.8</ele>
        <time>2017-06-11T07:03:32.999Z</time>
      </trkpt>
      <trkpt lat="47.41169" lon="6.59078">
        <ele>432.7</ele>
        <time>2017-06-11T07:03:33.999Z</time>
      </trkpt>
      <trkpt lat="47.41165" lon="6.59078">
        <ele>432.7</ele>
        <time>2017-06-11T07:03:35.999Z</time>
      </trkpt>
      <trkpt lat="47.41162" lon="6.5908">
        <ele>432.8</ele>
        <time>2017-06-11T07:03:36.999Z</time>
      </trkpt>
      <trkpt lat="47.4116" lon="6.5908">
        <ele>432.9</ele>
        <time>2017-06-11T07:03:37.999Z</time>
      </trkpt>
      <trkpt lat="47.41155" lon="6.59081">
        <ele>432.9</ele>
        <time>2017-06-11T07:03:38.999Z</time>
      </trkpt>
      <trkpt lat="47.41152" lon="6.59082">
        <ele>433</ele>
        <time>2017-06-11T07:03:39.999Z</time>
      </trkpt>
      <trkpt lat="47.41149" lon="6.59084">
        <ele>432.9</ele>
        <time>2017-06-11T07:03:40.999Z</time>
      </trkpt>
      <trkpt lat="47.41147" lon="6.59088">
        <ele>432.8</ele>
        <time>2017-06-11T07:03:41.999Z</time>
      </trkpt>
      <trkpt lat="47.41144" lon="6.59094">
        <ele>432.8</ele>
        <time>2017-06-11T07:03:42.999Z</time>
      </trkpt>
      <trkpt lat="47.41142" lon="6.59097">
        <ele>432.9</ele>
        <time>2017-06-11T07:03:43.999Z</time>
      </trkpt>
      <trkpt lat="47.4114" lon="6.59104">
        <ele>432.9</ele>
        <time>2017-06-11T07:03:44.999Z</time>
      </trkpt>
      <trkpt lat="47.41137" lon="6.59106">
        <ele>432.7</ele>
        <time>2017-06-11T07:03:49.999Z</time>
      </trkpt>
      <trkpt lat="47.41133" lon="6.59109">
        <ele>432.6</ele>
        <time>2017-06-11T07:03:50.999Z</time>
      </trkpt>
      <trkpt lat="47.41128" lon="6.59113">
        <ele>432.5</ele>
        <time>2017-06-11T07:03:51.999Z</time>
      </trkpt>
      <trkpt lat="47.41125" lon="6.59114">
        <ele>432.4</ele>
        <time>2017-06-11T07:03:52.999Z</time>
      </trkpt>
      <trkpt lat="47.41119" lon="6.59116">
        <ele>432.4</ele>
        <time>2017-06-11T07:03:53.999Z</time>
      </trkpt>
      <trkpt lat="47.41114" lon="6.5912">
        <ele>432.2</ele>
        <time>2017-06-11T07:03:54.999Z</time>
      </trkpt>
      <trkpt lat="47.41108" lon="6.59125">
        <ele>432</ele>
        <time>2017-06-11T07:03:55.999Z</time>
      </trkpt>
      <trkpt lat="47.41105" lon="6.59132">
        <ele>431.8</ele>
        <time>2017-06-11T07:03:56.999Z</time>
      </trkpt>
      <trkpt lat="47.41104" lon="6.59138">
        <ele>431.7</ele>
        <time>2017-06-11T07:03:57.999Z</time>
      </trkpt>
      <trkpt lat="47.41102" lon="6.59141">
        <ele>431.5</ele>
        <time>2017-06-11T07:03:58.999Z</time>
      </trkpt>
      <trkpt lat="47.41101" lon="6.59145">
        <ele>431.3</ele>
        <time>2017-06-11T07:03:59.999Z</time>
      </trkpt>
      <trkpt lat="47.41099" lon="6.59148">
        <ele>431</ele>
        <time>2017-06-11T07:04:00.999Z</time>
      </trkpt>
      <trkpt lat="47.41096" lon="6.59151">
        <ele>430.7</ele>
        <time>2017-06-11T07:04:01.999Z</time>
      </trkpt>
      <trkpt lat="47.41092" lon="6.59154">
        <ele>427.7</ele>
        <time>2017-06-11T07:04:02.999Z</time>
      </trkpt>
      <trkpt lat="47.41089" lon="6.59158">
        <ele>425.3</ele>
        <time>2017-06-11T07:04:03.999Z</time>
      </trkpt>
      <trkpt lat="47.41087" lon="6.59161">
        <ele>425.1</ele>
        <time>2017-06-11T07:04:04.999Z</time>
      </trkpt>
      <trkpt lat="47.41085" lon="6.59164">
        <ele>425</ele>
        <time>2017-06-11T07:04:05.999Z</time>
      </trkpt>
      <trkpt lat="47.4108" lon="6.59168">
        <ele>424.6</ele>
        <time>2017-06-11T07:04:06.999Z</time>
      </trkpt>
      <trkpt lat="47.41076" lon="6.5917">
        <ele>423.3</ele>
        <time>2017-06-11T07:04:07.999Z</time>
      </trkpt>
      <trkpt lat="47.41072" lon="6.59175">
        <ele>421.6</ele>
        <time>2017-06-11T07:04:08.999Z</time>
      </trkpt>
      <trkpt lat="47.41068" lon="6.5918">
        <ele>421.5</ele>
        <time>2017-06-11T07:04:09.999Z</time>
      </trkpt>
      <trkpt lat="47.41064" lon="6.59184">
        <ele>421.4</ele>
        <time>2017-06-11T07:04:11.999Z</time>
      </trkpt>
      <trkpt lat="47.41063" lon="6.59186">
        <ele>421.4</ele>
        <time>2017-06-11T07:04:12.999Z</time>
      </trkpt>
      <trkpt lat="47.41059" lon="6.59188">
        <ele>421.4</ele>
        <time>2017-06-11T07:04:14.999Z</time>
      </trkpt>
      <trkpt lat="47.41054" lon="6.59191">
        <ele>421.4</ele>
        <time>2017-06-11T07:04:15.999Z</time>
      </trkpt>
      <trkpt lat="47.41051" lon="6.59192">
        <ele>421.4</ele>
        <time>2017-06-11T07:04:17.999Z</time>
      </trkpt>
      <trkpt lat="47.41049" lon="6.59193">
        <ele>421.3</ele>
        <time>2017-06-11T07:04:18.999Z</time>
      </trkpt>
      <trkpt lat="47.41046" lon="6.59193">
        <ele>421.3</ele>
        <time>2017-06-11T07:04:20.999Z</time>
      </trkpt>
      <trkpt lat="47.41042" lon="6.5919">
        <ele>421.3</ele>
        <time>2017-06-11T07:04:21.999Z</time>
      </trkpt>
      <trkpt lat="47.41038" lon="6.59186">
        <ele>421.3</ele>
        <time>2017-06-11T07:04:22.999Z</time>
      </trkpt>
      <trkpt lat="47.41035" lon="6.59184">
        <ele>421.4</ele>
        <time>2017-06-11T07:04:23.999Z</time>
      </trkpt>
      <trkpt lat="47.41032" lon="6.5918">
        <ele>421.5</ele>
        <time>2017-06-11T07:04:24.999Z</time>
      </trkpt>
      <trkpt lat="47.41028" lon="6.59175">
        <ele>421.7</ele>
        <time>2017-06-11T07:04:25.999Z</time>
      </trkpt>
      <trkpt lat="47.41025" lon="6.59172">
        <ele>422</ele>
        <time>2017-06-11T07:04:26.999Z</time>
      </trkpt>
      <trkpt lat="47.41021" lon="6.59167">
        <ele>422.2</ele>
        <time>2017-06-11T07:04:27.999Z</time>
      </trkpt>
      <trkpt lat="47.41018" lon="6.59163">
        <ele>422.8</ele>
        <time>2017-06-11T07:04:29.999Z</time>
      </trkpt>
      <trkpt lat="47.41016" lon="6.59161">
        <ele>423</ele>
        <time>2017-06-11T07:04:30.999Z</time>
      </trkpt>
      <trkpt lat="47.41014" lon="6.59158">
        <ele>423.1</ele>
        <time>2017-06-11T07:04:31.999Z</time>
      </trkpt>
      <trkpt lat="47.4101" lon="6.59154">
        <ele>423.2</ele>
        <time>2017-06-11T07:04:32.999Z</time>
      </trkpt>
      <trkpt lat="47.41008" lon="6.59151">
        <ele>423.4</ele>
        <time>2017-06-11T07:04:33.999Z</time>
      </trkpt>
      <trkpt lat="47.41007" lon="6.5915">
        <ele>423.7</ele>
        <time>2017-06-11T07:04:34.999Z</time>
      </trkpt>
      <trkpt lat="47.41004" lon="6.59148">
        <ele>424.1</ele>
        <time>2017-06-11T07:04:36.999Z</time>
      </trkpt>
      <trkpt lat="47.41002" lon="6.59147">
        <ele>424</ele>
        <time>2017-06-11T07:04:37.999Z</time>
      </trkpt>
      <trkpt lat="47.40999" lon="6.59147">
        <ele>424.1</ele>
        <time>2017-06-11T07:04:39.999Z</time>
      </trkpt>
      <trkpt lat="47.40997" lon="6.59146">
        <ele>424</ele>
        <time>2017-06-11T07:04:40.999Z</time>
      </trkpt>
      <trkpt lat="47.40993" lon="6.59143">
        <ele>423.8</ele>
        <time>2017-06-11T07:04:42.999Z</time>
      </trkpt>
      <trkpt lat="47.40991" lon="6.59144">
        <ele>423.7</ele>
        <time>2017-06-11T07:04:43.999Z</time>
      </trkpt>
      <trkpt lat="47.40986" lon="6.59143">
        <ele>423.7</ele>
        <time>2017-06-11T07:04:44.999Z</time>
      </trkpt>
      <trkpt lat="47.40981" lon="6.59142">
        <ele>423.9</ele>
        <time>2017-06-11T07:04:46.999Z</time>
      </trkpt>
      <trkpt lat="47.4098" lon="6.59141">
        <ele>424</ele>
        <time>2017-06-11T07:04:47.999Z</time>
      </trkpt>
      <trkpt lat="47.40977" lon="6.59141">
        <ele>424.3</ele>
        <time>2017-06-11T07:04:48.999Z</time>
      </trkpt>
      <trkpt lat="47.40975" lon="6.5914">
        <ele>424.4</ele>
        <time>2017-06-11T07:04:49.999Z</time>
      </trkpt>
      <trkpt lat="47.4097" lon="6.59139">
        <ele>424.7</ele>
        <time>2017-06-11T07:04:51.999Z</time>
      </trkpt>
      <trkpt lat="47.40969" lon="6.59139">
        <ele>424.8</ele>
        <time>2017-06-11T07:04:52.999Z</time>
      </trkpt>
      <trkpt lat="47.40966" lon="6.59139">
        <ele>425.1</ele>
        <time>2017-06-11T07:04:54.999Z</time>
      </trkpt>
      <trkpt lat="47.40963" lon="6.59138">
        <ele>425.2</ele>
        <time>2017-06-11T07:04:55.999Z</time>
      </trkpt>
      <trkpt lat="47.4096" lon="6.59138">
        <ele>425.6</ele>
        <time>2017-06-11T07:04:58.999Z</time>
      </trkpt>
      <trkpt lat="47.40958" lon="6.59138">
        <ele>425.7</ele>
        <time>2017-06-11T07:04:59.999Z</time>
      </trkpt>
      <trkpt lat="47.40951" lon="6.59138">
        <ele>425.8</ele>
        <time>2017-06-11T07:05:00.999Z</time>
      </trkpt>
      <trkpt lat="47.40946" lon="6.59135">
        <ele>425.8</ele>
        <time>2017-06-11T07:05:01.999Z</time>
      </trkpt>
      <trkpt lat="47.40941" lon="6.59133">
        <ele>425.7</ele>
        <time>2017-06-11T07:05:02.999Z</time>
      </trkpt>
      <trkpt lat="47.40939" lon="6.59133">
        <ele>425.8</ele>
        <time>2017-06-11T07:05:03.999Z</time>
      </trkpt>
      <trkpt lat="47.40936" lon="6.59133">
        <ele>425.8</ele>
        <time>2017-06-11T07:05:04.999Z</time>
      </trkpt>
      <trkpt lat="47.40932" lon="6.59134">
        <ele>427.6</ele>
        <time>2017-06-11T07:05:05.999Z</time>
      </trkpt>
      <trkpt lat="47.40927" lon="6.59135">
        <ele>428.6</ele>
        <time>2017-06-11T07:05:06.999Z</time>
      </trkpt>
      <trkpt lat="47.40924" lon="6.59136">
        <ele>428.6</ele>
        <time>2017-06-11T07:05:07.999Z</time>
      </trkpt>
      <trkpt lat="47.40922" lon="6.59137">
        <ele>428.6</ele>
        <time>2017-06-11T07:05:08.999Z</time>
      </trkpt>
      <trkpt lat="47.40919" lon="6.59139">
        <ele>428.5</ele>
        <time>2017-06-11T07:05:09.999Z</time>
      </trkpt>
      <trkpt lat="47.40917" lon="6.5914">
        <ele>428.5</ele>
        <time>2017-06-11T07:05:10.999Z</time>
      </trkpt>
      <trkpt lat="47.40914" lon="6.59144">
        <ele>428.4</ele>
        <time>2017-06-11T07:05:12.999Z</time>
      </trkpt>
      <trkpt lat="47.40912" lon="6.59147">
        <ele>428.2</ele>
        <time>2017-06-11T07:05:13.999Z</time>
      </trkpt>
      <trkpt lat="47.40909" lon="6.59149">
        <ele>428.1</ele>
        <time>2017-06-11T07:05:14.999Z</time>
      </trkpt>
      <trkpt lat="47.40908" lon="6.59153">
        <ele>428</ele>
        <time>2017-06-11T07:05:15.999Z</time>
      </trkpt>
      <trkpt lat="47.40907" lon="6.59156">
        <ele>427.9</ele>
        <time>2017-06-11T07:05:16.999Z</time>
      </trkpt>
      <trkpt lat="47.40904" lon="6.5916">
        <ele>427.7</ele>
        <time>2017-06-11T07:05:17.999Z</time>
      </trkpt>
      <trkpt lat="47.40901" lon="6.59163">
        <ele>427.8</ele>
        <time>2017-06-11T07:05:18.999Z</time>
      </trkpt>
      <trkpt lat="47.40899" lon="6.59165">
        <ele>427.9</ele>
        <time>2017-06-11T07:05:19.999Z</time>
      </trkpt>
      <trkpt lat="47.40898" lon="6.59168">
        <ele>428</ele>
        <time>2017-06-11T07:05:20.999Z</time>
      </trkpt>
      <trkpt lat="47.40894" lon="6.59171">
        <ele>428.1</ele>
        <time>2017-06-11T07:05:21.999Z</time>
      </trkpt>
      <trkpt lat="47.40891" lon="6.59176">
        <ele>428.4</ele>
        <time>2017-06-11T07:05:23.999Z</time>
      </trkpt>
      <trkpt lat="47.4089" lon="6.59178">
        <ele>428.5</ele>
        <time>2017-06-11T07:05:24.999Z</time>
      </trkpt>
      <trkpt lat="47.40888" lon="6.59179">
        <ele>428.7</ele>
        <time>2017-06-11T07:05:25.999Z</time>
      </trkpt>
      <trkpt lat="47.40886" lon="6.59181">
        <ele>429</ele>
        <time>2017-06-11T07:05:26.999Z</time>
      </trkpt>
      <trkpt lat="47.40882" lon="6.59184">
        <ele>429.5</ele>
        <time>2017-06-11T07:05:29.999Z</time>
      </trkpt>
      <trkpt lat="47.4088" lon="6.59186">
        <ele>429.6</ele>
        <time>2017-06-11T07:05:30.999Z</time>
      </trkpt>
      <trkpt lat="47.40877" lon="6.59188">
        <ele>429.8</ele>
        <time>2017-06-11T07:05:32.999Z</time>
      </trkpt>
      <trkpt lat="47.40875" lon="6.59189">
        <ele>429.9</ele>
        <time>2017-06-11T07:05:33.999Z</time>
      </trkpt>
      <trkpt lat="47.40872" lon="6.59192">
        <ele>429.8</ele>
        <time>2017-06-11T07:05:35.999Z</time>
      </trkpt>
      <trkpt lat="47.40871" lon="6.59195">
        <ele>429.8</ele>
        <time>2017-06-11T07:05:36.999Z</time>
      </trkpt>
      <trkpt lat="47.40869" lon="6.59197">
        <ele>429.9</ele>
        <time>2017-06-11T07:05:37.999Z</time>
      </trkpt>
      <trkpt lat="47.40868" lon="6.592">
        <ele>429.9</ele>
        <time>2017-06-11T07:05:38.999Z</time>
      </trkpt>
      <trkpt lat="47.40866" lon="6.59205">
        <ele>429.7</ele>
        <time>2017-06-11T07:05:40.999Z</time>
      </trkpt>
      <trkpt lat="47.40866" lon="6.59208">
        <ele>429.5</ele>
        <time>2017-06-11T07:05:41.999Z</time>
      </trkpt>
      <trkpt lat="47.40865" lon="6.59214">
        <ele>429.4</ele>
        <time>2017-06-11T07:05:42.999Z</time>
      </trkpt>
      <trkpt lat="47.40865" lon="6.59222">
        <ele>429.4</ele>
        <time>2017-06-11T07:05:43.999Z</time>
      </trkpt>
      <trkpt lat="47.40865" lon="6.59226">
        <ele>429.4</ele>
        <time>2017-06-11T07:05:44.999Z</time>
      </trkpt>
      <trkpt lat="47.40865" lon="6.59231">
        <ele>429.3</ele>
        <time>2017-06-11T07:05:45.999Z</time>
      </trkpt>
      <trkpt lat="47.40865" lon="6.59236">
        <ele>429.3</ele>
        <time>2017-06-11T07:05:46.999Z</time>
      </trkpt>
      <trkpt lat="47.40865" lon="6.5924">
        <ele>429.3</ele>
        <time>2017-06-11T07:05:47.999Z</time>
      </trkpt>
      <trkpt lat="47.40865" lon="6.59245">
        <ele>429.4</ele>
        <time>2017-06-11T07:05:48.999Z</time>
      </trkpt>
      <trkpt lat="47.40866" lon="6.59249">
        <ele>429.4</ele>
        <time>2017-06-11T07:05:49.999Z</time>
      </trkpt>
      <trkpt lat="47.40866" lon="6.59252">
        <ele>429.2</ele>
        <time>2017-06-11T07:05:50.999Z</time>
      </trkpt>
      <trkpt lat="47.40866" lon="6.59256">
        <ele>429</ele>
        <time>2017-06-11T07:05:51.999Z</time>
      </trkpt>
      <trkpt lat="47.40866" lon="6.59259">
        <ele>428.8</ele>
        <time>2017-06-11T07:05:52.999Z</time>
      </trkpt>
      <trkpt lat="47.40866" lon="6.59263">
        <ele>428.7</ele>
        <time>2017-06-11T07:05:53.999Z</time>
      </trkpt>
      <trkpt lat="47.40865" lon="6.59267">
        <ele>428.5</ele>
        <time>2017-06-11T07:05:54.999Z</time>
      </trkpt>
      <trkpt lat="47.40864" lon="6.5927">
        <ele>428.2</ele>
        <time>2017-06-11T07:05:55.999Z</time>
      </trkpt>
      <trkpt lat="47.40863" lon="6.59274">
        <ele>427.8</ele>
        <time>2017-06-11T07:05:56.999Z</time>
      </trkpt>
      <trkpt lat="47.40863" lon="6.59278">
        <ele>427.5</ele>
        <time>2017-06-11T07:05:57.999Z</time>
      </trkpt>
      <trkpt lat="47.40863" lon="6.59282">
        <ele>427.1</ele>
        <time>2017-06-11T07:05:58.999Z</time>
      </trkpt>
      <trkpt lat="47.40864" lon="6.59288">
        <ele>426.7</ele>
        <time>2017-06-11T07:05:59.999Z</time>
      </trkpt>
      <trkpt lat="47.40866" lon="6.59291">
        <ele>426.4</ele>
        <time>2017-06-11T07:06:00.999Z</time>
      </trkpt>
      <trkpt lat="47.40866" lon="6.59296">
        <ele>425.9</ele>
        <time>2017-06-11T07:06:01.999Z</time>
      </trkpt>
      <trkpt lat="47.40867" lon="6.59301">
        <ele>425.5</ele>
        <time>2017-06-11T07:06:02.999Z</time>
      </trkpt>
      <trkpt lat="47.40868" lon="6.59304">
        <ele>425.1</ele>
        <time>2017-06-11T07:06:03.999Z</time>
      </trkpt>
      <trkpt lat="47.40869" lon="6.59307">
        <ele>424.5</ele>
        <time>2017-06-11T07:06:04.999Z</time>
      </trkpt>
      <trkpt lat="47.40871" lon="6.5931">
        <ele>424</ele>
        <time>2017-06-11T07:06:05.999Z</time>
      </trkpt>
      <trkpt lat="47.40874" lon="6.59315">
        <ele>423.5</ele>
        <time>2017-06-11T07:06:06.999Z</time>
      </trkpt>
      <trkpt lat="47.40877" lon="6.59319">
        <ele>422.9</ele>
        <time>2017-06-11T07:06:07.999Z</time>
      </trkpt>
      <trkpt lat="47.40881" lon="6.59323">
        <ele>422.3</ele>
        <time>2017-06-11T07:06:09.999Z</time>
      </trkpt>
      <trkpt lat="47.4088" lon="6.59326">
        <ele>421.6</ele>
        <time>2017-06-11T07:06:10.999Z</time>
      </trkpt>
      <trkpt lat="47.40879" lon="6.59332">
        <ele>421</ele>
        <time>2017-06-11T07:06:11.999Z</time>
      </trkpt>
      <trkpt lat="47.40879" lon="6.59335">
        <ele>420.6</ele>
        <time>2017-06-11T07:06:12.999Z</time>
      </trkpt>
      <trkpt lat="47.40879" lon="6.59341">
        <ele>419.8</ele>
        <time>2017-06-11T07:06:14.999Z</time>
      </trkpt>
      <trkpt lat="47.40879" lon="6.59344">
        <ele>419.6</ele>
        <time>2017-06-11T07:06:15.999Z</time>
      </trkpt>
      <trkpt lat="47.40879" lon="6.5935">
        <ele>419</ele>
        <time>2017-06-11T07:06:17.999Z</time>
      </trkpt>
      <trkpt lat="47.4088" lon="6.59352">
        <ele>418.7</ele>
        <time>2017-06-11T07:06:18.999Z</time>
      </trkpt>
      <trkpt lat="47.4088" lon="6.59356">
        <ele>418.4</ele>
        <time>2017-06-11T07:06:19.999Z</time>
      </trkpt>
      <trkpt lat="47.40881" lon="6.59359">
        <ele>418.2</ele>
        <time>2017-06-11T07:06:20.999Z</time>
      </trkpt>
      <trkpt lat="47.40882" lon="6.59366">
        <ele>417.8</ele>
        <time>2017-06-11T07:06:22.999Z</time>
      </trkpt>
      <trkpt lat="47.40883" lon="6.59373">
        <ele>417.6</ele>
        <time>2017-06-11T07:06:23.999Z</time>
      </trkpt>
      <trkpt lat="47.40883" lon="6.59376">
        <ele>417.3</ele>
        <time>2017-06-11T07:06:24.999Z</time>
      </trkpt>
      <trkpt lat="47.40884" lon="6.5938">
        <ele>417</ele>
        <time>2017-06-11T07:06:25.999Z</time>
      </trkpt>
      <trkpt lat="47.40884" lon="6.59382">
        <ele>416.6</ele>
        <time>2017-06-11T07:06:26.999Z</time>
      </trkpt>
      <trkpt lat="47.40887" lon="6.59388">
        <ele>416.5</ele>
        <time>2017-06-11T07:06:27.999Z</time>
      </trkpt>
      <trkpt lat="47.40889" lon="6.59394">
        <ele>416.5</ele>
        <time>2017-06-11T07:06:28.999Z</time>
      </trkpt>
      <trkpt lat="47.40889" lon="6.59398">
        <ele>416.5</ele>
        <time>2017-06-11T07:06:29.999Z</time>
      </trkpt>
      <trkpt lat="47.4089" lon="6.59401">
        <ele>416.5</ele>
        <time>2017-06-11T07:06:30.999Z</time>
      </trkpt>
      <trkpt lat="47.40892" lon="6.59405">
        <ele>416.7</ele>
        <time>2017-06-11T07:06:31.999Z</time>
      </trkpt>
      <trkpt lat="47.40894" lon="6.59412">
        <ele>416.8</ele>
        <time>2017-06-11T07:06:32.999Z</time>
      </trkpt>
      <trkpt lat="47.40895" lon="6.59416">
        <ele>417</ele>
        <time>2017-06-11T07:06:33.999Z</time>
      </trkpt>
      <trkpt lat="47.40896" lon="6.59419">
        <ele>417.2</ele>
        <time>2017-06-11T07:06:34.999Z</time>
      </trkpt>
      <trkpt lat="47.40897" lon="6.59422">
        <ele>417.5</ele>
        <time>2017-06-11T07:06:35.999Z</time>
      </trkpt>
      <trkpt lat="47.40899" lon="6.59428">
        <ele>417.7</ele>
        <time>2017-06-11T07:06:36.999Z</time>
      </trkpt>
      <trkpt lat="47.409" lon="6.59431">
        <ele>417.9</ele>
        <time>2017-06-11T07:06:37.999Z</time>
      </trkpt>
      <trkpt lat="47.40902" lon="6.59437">
        <ele>418.1</ele>
        <time>2017-06-11T07:06:38.999Z</time>
      </trkpt>
      <trkpt lat="47.40904" lon="6.5944">
        <ele>418.4</ele>
        <time>2017-06-11T07:06:39.999Z</time>
      </trkpt>
      <trkpt lat="47.40905" lon="6.59443">
        <ele>418.6</ele>
        <time>2017-06-11T07:06:40.999Z</time>
      </trkpt>
      <trkpt lat="47.40905" lon="6.59447">
        <ele>418.7</ele>
        <time>2017-06-11T07:06:41.999Z</time>
      </trkpt>
      <trkpt lat="47.40907" lon="6.59454">
        <ele>418.9</ele>
        <time>2017-06-11T07:06:42.999Z</time>
      </trkpt>
      <trkpt lat="47.40908" lon="6.59459">
        <ele>419.3</ele>
        <time>2017-06-11T07:06:43.999Z</time>
      </trkpt>
      <trkpt lat="47.40909" lon="6.59464">
        <ele>419.6</ele>
        <time>2017-06-11T07:06:44.999Z</time>
      </trkpt>
      <trkpt lat="47.40911" lon="6.59471">
        <ele>419.9</ele>
        <time>2017-06-11T07:06:45.999Z</time>
      </trkpt>
      <trkpt lat="47.40911" lon="6.59477">
        <ele>420.2</ele>
        <time>2017-06-11T07:06:46.999Z</time>
      </trkpt>
      <trkpt lat="47.40911" lon="6.59479">
        <ele>420.6</ele>
        <time>2017-06-11T07:06:47.999Z</time>
      </trkpt>
      <trkpt lat="47.4091" lon="6.59482">
        <ele>421.1</ele>
        <time>2017-06-11T07:06:48.999Z</time>
      </trkpt>
      <trkpt lat="47.40908" lon="6.59484">
        <ele>421.6</ele>
        <time>2017-06-11T07:06:49.999Z</time>
      </trkpt>
      <trkpt lat="47.40906" lon="6.59489">
        <ele>422.5</ele>
        <time>2017-06-11T07:06:51.999Z</time>
      </trkpt>
      <trkpt lat="47.40905" lon="6.59495">
        <ele>423</ele>
        <time>2017-06-11T07:06:52.999Z</time>
      </trkpt>
      <trkpt lat="47.40905" lon="6.59502">
        <ele>424.4</ele>
        <time>2017-06-11T07:06:55.999Z</time>
      </trkpt>
      <trkpt lat="47.40905" lon="6.59504">
        <ele>424.9</ele>
        <time>2017-06-11T07:06:56.999Z</time>
      </trkpt>
      <trkpt lat="47.40904" lon="6.59506">
        <ele>425.3</ele>
        <time>2017-06-11T07:06:57.999Z</time>
      </trkpt>
      <trkpt lat="47.40903" lon="6.59511">
        <ele>425.7</ele>
        <time>2017-06-11T07:06:58.999Z</time>
      </trkpt>
      <trkpt lat="47.40901" lon="6.59516">
        <ele>426.1</ele>
        <time>2017-06-11T07:06:59.999Z</time>
      </trkpt>
      <trkpt lat="47.40899" lon="6.59518">
        <ele>426.6</ele>
        <time>2017-06-11T07:07:00.999Z</time>
      </trkpt>
      <trkpt lat="47.40897" lon="6.59523">
        <ele>428.1</ele>
        <time>2017-06-11T07:07:03.999Z</time>
      </trkpt>
      <trkpt lat="47.40896" lon="6.59526">
        <ele>428.6</ele>
        <time>2017-06-11T07:07:04.999Z</time>
      </trkpt>
      <trkpt lat="47.40894" lon="6.59528">
        <ele>429.2</ele>
        <time>2017-06-11T07:07:05.999Z</time>
      </trkpt>
      <trkpt lat="47.40891" lon="6.59531">
        <ele>429.8</ele>
        <time>2017-06-11T07:07:06.999Z</time>
      </trkpt>
      <trkpt lat="47.40891" lon="6.59537">
        <ele>430.8</ele>
        <time>2017-06-11T07:07:08.999Z</time>
      </trkpt>
      <trkpt lat="47.40893" lon="6.59541">
        <ele>431.3</ele>
        <time>2017-06-11T07:07:09.999Z</time>
      </trkpt>
      <trkpt lat="47.40893" lon="6.59546">
        <ele>432.9</ele>
        <time>2017-06-11T07:07:12.999Z</time>
      </trkpt>
      <trkpt lat="47.40895" lon="6.59553">
        <ele>433.5</ele>
        <time>2017-06-11T07:07:13.999Z</time>
      </trkpt>
      <trkpt lat="47.409" lon="6.59557">
        <ele>434.1</ele>
        <time>2017-06-11T07:07:14.999Z</time>
      </trkpt>
      <trkpt lat="47.40903" lon="6.59558">
        <ele>434.5</ele>
        <time>2017-06-11T07:07:15.999Z</time>
      </trkpt>
      <trkpt lat="47.40905" lon="6.5956">
        <ele>435</ele>
        <time>2017-06-11T07:07:16.999Z</time>
      </trkpt>
      <trkpt lat="47.40907" lon="6.59565">
        <ele>436</ele>
        <time>2017-06-11T07:07:18.999Z</time>
      </trkpt>
      <trkpt lat="47.40908" lon="6.59568">
        <ele>436.5</ele>
        <time>2017-06-11T07:07:19.999Z</time>
      </trkpt>
      <trkpt lat="47.40905" lon="6.59573">
        <ele>437.1</ele>
        <time>2017-06-11T07:07:21.999Z</time>
      </trkpt>
      <trkpt lat="47.40903" lon="6.59577">
        <ele>437.4</ele>
        <time>2017-06-11T07:07:22.999Z</time>
      </trkpt>
      <trkpt lat="47.40902" lon="6.5958">
        <ele>437.7</ele>
        <time>2017-06-11T07:07:23.999Z</time>
      </trkpt>
      <trkpt lat="47.409" lon="6.59586">
        <ele>438</ele>
        <time>2017-06-11T07:07:24.999Z</time>
      </trkpt>
      <trkpt lat="47.40898" lon="6.59591">
        <ele>438.2</ele>
        <time>2017-06-11T07:07:25.999Z</time>
      </trkpt>
      <trkpt lat="47.40896" lon="6.59596">
        <ele>438.4</ele>
        <time>2017-06-11T07:07:26.999Z</time>
      </trkpt>
      <trkpt lat="47.40896" lon="6.59602">
        <ele>438.8</ele>
        <time>2017-06-11T07:07:29.999Z</time>
      </trkpt>
      <trkpt lat="47.40896" lon="6.59609">
        <ele>438.9</ele>
        <time>2017-06-11T07:07:30.999Z</time>
      </trkpt>
      <trkpt lat="47.40895" lon="6.59615">
        <ele>438.9</ele>
        <time>2017-06-11T07:07:31.999Z</time>
      </trkpt>
      <trkpt lat="47.40894" lon="6.59623">
        <ele>439</ele>
        <time>2017-06-11T07:07:32.999Z</time>
      </trkpt>
      <trkpt lat="47.40894" lon="6.59627">
        <ele>439.1</ele>
        <time>2017-06-11T07:07:33.999Z</time>
      </trkpt>
      <trkpt lat="47.40895" lon="6.59631">
        <ele>439.3</ele>
        <time>2017-06-11T07:07:34.999Z</time>
      </trkpt>
      <trkpt lat="47.40895" lon="6.59634">
        <ele>439.6</ele>
        <time>2017-06-11T07:07:35.999Z</time>
      </trkpt>
      <trkpt lat="47.40895" lon="6.59642">
        <ele>439.7</ele>
        <time>2017-06-11T07:07:36.999Z</time>
      </trkpt>
      <trkpt lat="47.40894" lon="6.59647">
        <ele>440</ele>
        <time>2017-06-11T07:07:37.999Z</time>
      </trkpt>
      <trkpt lat="47.40894" lon="6.5965">
        <ele>440.3</ele>
        <time>2017-06-11T07:07:38.999Z</time>
      </trkpt>
      <trkpt lat="47.40893" lon="6.59652">
        <ele>440.4</ele>
        <time>2017-06-11T07:07:39.999Z</time>
      </trkpt>
      <trkpt lat="47.40891" lon="6.59657">
        <ele>440.7</ele>
        <time>2017-06-11T07:07:40.999Z</time>
      </trkpt>
      <trkpt lat="47.40891" lon="6.5966">
        <ele>440.9</ele>
        <time>2017-06-11T07:07:41.999Z</time>
      </trkpt>
      <trkpt lat="47.40891" lon="6.59667">
        <ele>441.2</ele>
        <time>2017-06-11T07:07:42.999Z</time>
      </trkpt>
      <trkpt lat="47.40889" lon="6.59669">
        <ele>441.4</ele>
        <time>2017-06-11T07:07:43.999Z</time>
      </trkpt>
      <trkpt lat="47.40887" lon="6.59672">
        <ele>441.6</ele>
        <time>2017-06-11T07:07:44.999Z</time>
      </trkpt>
      <trkpt lat="47.40887" lon="6.59676">
        <ele>441.8</ele>
        <time>2017-06-11T07:07:45.999Z</time>
      </trkpt>
      <trkpt lat="47.40888" lon="6.5968">
        <ele>442</ele>
        <time>2017-06-11T07:07:46.999Z</time>
      </trkpt>
      <trkpt lat="47.40889" lon="6.59686">
        <ele>442.3</ele>
        <time>2017-06-11T07:07:47.999Z</time>
      </trkpt>
      <trkpt lat="47.40889" lon="6.59692">
        <ele>442.7</ele>
        <time>2017-06-11T07:07:49.999Z</time>
      </trkpt>
      <trkpt lat="47.40893" lon="6.59698">
        <ele>443</ele>
        <time>2017-06-11T07:07:50.999Z</time>
      </trkpt>
      <trkpt lat="47.40895" lon="6.59701">
        <ele>443.4</ele>
        <time>2017-06-11T07:07:51.999Z</time>
      </trkpt>
      <trkpt lat="47.40896" lon="6.59705">
        <ele>443.7</ele>
        <time>2017-06-11T07:07:52.999Z</time>
      </trkpt>
      <trkpt lat="47.40896" lon="6.59711">
        <ele>444.1</ele>
        <time>2017-06-11T07:07:53.999Z</time>
      </trkpt>
      <trkpt lat="47.40894" lon="6.59718">
        <ele>444.4</ele>
        <time>2017-06-11T07:07:54.999Z</time>
      </trkpt>
      <trkpt lat="47.40893" lon="6.59722">
        <ele>444.8</ele>
        <time>2017-06-11T07:07:55.999Z</time>
      </trkpt>
      <trkpt lat="47.40892" lon="6.59726">
        <ele>445</ele>
        <time>2017-06-11T07:07:56.999Z</time>
      </trkpt>
      <trkpt lat="47.40893" lon="6.59733">
        <ele>445.2</ele>
        <time>2017-06-11T07:07:57.999Z</time>
      </trkpt>
      <trkpt lat="47.40894" lon="6.59739">
        <ele>445.4</ele>
        <time>2017-06-11T07:07:58.999Z</time>
      </trkpt>
      <trkpt lat="47.40892" lon="6.59745">
        <ele>448.4</ele>
        <time>2017-06-11T07:07:59.999Z</time>
      </trkpt>
      <trkpt lat="47.40888" lon="6.59753">
        <ele>448.6</ele>
        <time>2017-06-11T07:08:00.999Z</time>
      </trkpt>
      <trkpt lat="47.40882" lon="6.59759">
        <ele>448.7</ele>
        <time>2017-06-11T07:08:01.999Z</time>
      </trkpt>
      <trkpt lat="47.40877" lon="6.59764">
        <ele>448.7</ele>
        <time>2017-06-11T07:08:02.999Z</time>
      </trkpt>
      <trkpt lat="47.40871" lon="6.59767">
        <ele>448.7</ele>
        <time>2017-06-11T07:08:03.999Z</time>
      </trkpt>
      <trkpt lat="47.40867" lon="6.59769">
        <ele>448.7</ele>
        <time>2017-06-11T07:08:04.999Z</time>
      </trkpt>
      <trkpt lat="47.40868" lon="6.59775">
        <ele>450.1</ele>
        <time>2017-06-11T07:08:05.999Z</time>
      </trkpt>
      <trkpt lat="47.40871" lon="6.59782">
        <ele>450.1</ele>
        <time>2017-06-11T07:08:06.999Z</time>
      </trkpt>
      <trkpt lat="47.40874" lon="6.59783">
        <ele>450.2</ele>
        <time>2017-06-11T07:08:07.999Z</time>
      </trkpt>
      <trkpt lat="47.40876" lon="6.59785">
        <ele>450.2</ele>
        <time>2017-06-11T07:08:08.999Z</time>
      </trkpt>
      <trkpt lat="47.40875" lon="6.59789">
        <ele>450</ele>
        <time>2017-06-11T07:08:09.999Z</time>
      </trkpt>
      <trkpt lat="47.40873" lon="6.59793">
        <ele>450.1</ele>
        <time>2017-06-11T07:08:10.999Z</time>
      </trkpt>
      <trkpt lat="47.40872" lon="6.59797">
        <ele>450.2</ele>
        <time>2017-06-11T07:08:11.999Z</time>
      </trkpt>
      <trkpt lat="47.4087" lon="6.59801">
        <ele>450.3</ele>
        <time>2017-06-11T07:08:12.999Z</time>
      </trkpt>
      <trkpt lat="47.4087" lon="6.59806">
        <ele>450.4</ele>
        <time>2017-06-11T07:08:13.999Z</time>
      </trkpt>
      <trkpt lat="47.4087" lon="6.59811">
        <ele>450.5</ele>
        <time>2017-06-11T07:08:14.999Z</time>
      </trkpt>
      <trkpt lat="47.4087" lon="6.59816">
        <ele>450.6</ele>
        <time>2017-06-11T07:08:15.999Z</time>
      </trkpt>
      <trkpt lat="47.40869" lon="6.5982">
        <ele>450.8</ele>
        <time>2017-06-11T07:08:16.999Z</time>
      </trkpt>
      <trkpt lat="47.40867" lon="6.59825">
        <ele>450.9</ele>
        <time>2017-06-11T07:08:17.999Z</time>
      </trkpt>
      <trkpt lat="47.40866" lon="6.59828">
        <ele>450.9</ele>
        <time>2017-06-11T07:08:18.999Z</time>
      </trkpt>
      <trkpt lat="47.40863" lon="6.59831">
        <ele>450.8</ele>
        <time>2017-06-11T07:08:19.999Z</time>
      </trkpt>
      <trkpt lat="47.40859" lon="6.59835">
        <ele>450.8</ele>
        <time>2017-06-11T07:08:20.999Z</time>
      </trkpt>
      <trkpt lat="47.40854" lon="6.59839">
        <ele>450.9</ele>
        <time>2017-06-11T07:08:21.999Z</time>
      </trkpt>
      <trkpt lat="47.40852" lon="6.59841">
        <ele>451.1</ele>
        <time>2017-06-11T07:08:22.999Z</time>
      </trkpt>
      <trkpt lat="47.4085" lon="6.59843">
        <ele>451.3</ele>
        <time>2017-06-11T07:08:23.999Z</time>
      </trkpt>
      <trkpt lat="47.40847" lon="6.59845">
        <ele>451.5</ele>
        <time>2017-06-11T07:08:24.999Z</time>
      </trkpt>
      <trkpt lat="47.40843" lon="6.59847">
        <ele>451.7</ele>
        <time>2017-06-11T07:08:25.999Z</time>
      </trkpt>
      <trkpt lat="47.4084" lon="6.59849">
        <ele>452</ele>
        <time>2017-06-11T07:08:26.999Z</time>
      </trkpt>
      <trkpt lat="47.40838" lon="6.59851">
        <ele>452.2</ele>
        <time>2017-06-11T07:08:27.999Z</time>
      </trkpt>
      <trkpt lat="47.40837" lon="6.59853">
        <ele>452.4</ele>
        <time>2017-06-11T07:08:28.999Z</time>
      </trkpt>
      <trkpt lat="47.40834" lon="6.59854">
        <ele>452.5</ele>
        <time>2017-06-11T07:08:29.999Z</time>
      </trkpt>
      <trkpt lat="47.40828" lon="6.59857">
        <ele>452.7</ele>
        <time>2017-06-11T07:08:30.999Z</time>
      </trkpt>
      <trkpt lat="47.40826" lon="6.59859">
        <ele>452.9</ele>
        <time>2017-06-11T07:08:31.999Z</time>
      </trkpt>
      <trkpt lat="47.40823" lon="6.59862">
        <ele>453</ele>
        <time>2017-06-11T07:08:32.999Z</time>
      </trkpt>
      <trkpt lat="47.4082" lon="6.59864">
        <ele>452.9</ele>
        <time>2017-06-11T07:08:33.999Z</time>
      </trkpt>
      <trkpt lat="47.40818" lon="6.59866">
        <ele>452.8</ele>
        <time>2017-06-11T07:08:34.999Z</time>
      </trkpt>
      <trkpt lat="47.40817" lon="6.5987">
        <ele>452.7</ele>
        <time>2017-06-11T07:08:35.999Z</time>
      </trkpt>
      <trkpt lat="47.40813" lon="6.59877">
        <ele>452.6</ele>
        <time>2017-06-11T07:08:36.999Z</time>
      </trkpt>
      <trkpt lat="47.40812" lon="6.5988">
        <ele>452.6</ele>
        <time>2017-06-11T07:08:37.999Z</time>
      </trkpt>
      <trkpt lat="47.4081" lon="6.59883">
        <ele>452.6</ele>
        <time>2017-06-11T07:08:38.999Z</time>
      </trkpt>
      <trkpt lat="47.40807" lon="6.59884">
        <ele>454.1</ele>
        <time>2017-06-11T07:08:39.999Z</time>
      </trkpt>
      <trkpt lat="47.40803" lon="6.59884">
        <ele>454.1</ele>
        <time>2017-06-11T07:08:40.999Z</time>
      </trkpt>
      <trkpt lat="47.408" lon="6.59882">
        <ele>454.1</ele>
        <time>2017-06-11T07:08:41.999Z</time>
      </trkpt>
      <trkpt lat="47.40796" lon="6.59877">
        <ele>454.1</ele>
        <time>2017-06-11T07:08:42.999Z</time>
      </trkpt>
      <trkpt lat="47.40794" lon="6.59874">
        <ele>454.1</ele>
        <time>2017-06-11T07:08:43.999Z</time>
      </trkpt>
      <trkpt lat="47.4079" lon="6.59873">
        <ele>454.1</ele>
        <time>2017-06-11T07:08:44.999Z</time>
      </trkpt>
      <trkpt lat="47.40784" lon="6.59871">
        <ele>454.2</ele>
        <time>2017-06-11T07:08:45.999Z</time>
      </trkpt>
      <trkpt lat="47.40778" lon="6.59869">
        <ele>454.4</ele>
        <time>2017-06-11T07:08:46.999Z</time>
      </trkpt>
      <trkpt lat="47.40775" lon="6.59867">
        <ele>454.6</ele>
        <time>2017-06-11T07:08:47.999Z</time>
      </trkpt>
      <trkpt lat="47.40772" lon="6.59865">
        <ele>454.7</ele>
        <time>2017-06-11T07:08:48.999Z</time>
      </trkpt>
      <trkpt lat="47.40767" lon="6.59861">
        <ele>454.7</ele>
        <time>2017-06-11T07:08:49.999Z</time>
      </trkpt>
      <trkpt lat="47.40764" lon="6.59858">
        <ele>454.8</ele>
        <time>2017-06-11T07:08:50.999Z</time>
      </trkpt>
      <trkpt lat="47.40758" lon="6.59854">
        <ele>454.8</ele>
        <time>2017-06-11T07:08:51.999Z</time>
      </trkpt>
      <trkpt lat="47.40755" lon="6.59851">
        <ele>454.7</ele>
        <time>2017-06-11T07:08:52.999Z</time>
      </trkpt>
      <trkpt lat="47.40752" lon="6.59848">
        <ele>454.1</ele>
        <time>2017-06-11T07:08:53.999Z</time>
      </trkpt>
      <trkpt lat="47.40748" lon="6.59843">
        <ele>453.9</ele>
        <time>2017-06-11T07:08:54.999Z</time>
      </trkpt>
      <trkpt lat="47.40746" lon="6.59838">
        <ele>453.5</ele>
        <time>2017-06-11T07:08:55.999Z</time>
      </trkpt>
      <trkpt lat="47.40743" lon="6.59833">
        <ele>452.7</ele>
        <time>2017-06-11T07:08:56.999Z</time>
      </trkpt>
      <trkpt lat="47.40738" lon="6.5983">
        <ele>452.4</ele>
        <time>2017-06-11T07:08:57.999Z</time>
      </trkpt>
      <trkpt lat="47.40733" lon="6.59827">
        <ele>452.7</ele>
        <time>2017-06-11T07:08:58.999Z</time>
      </trkpt>
      <trkpt lat="47.40729" lon="6.59823">
        <ele>452.1</ele>
        <time>2017-06-11T07:08:59.999Z</time>
      </trkpt>
      <trkpt lat="47.40725" lon="6.5982">
        <ele>452.5</ele>
        <time>2017-06-11T07:09:00.999Z</time>
      </trkpt>
      <trkpt lat="47.40721" lon="6.59818">
        <ele>452.1</ele>
        <time>2017-06-11T07:09:01.999Z</time>
      </trkpt>
      <trkpt lat="47.40716" lon="6.59822">
        <ele>452</ele>
        <time>2017-06-11T07:09:02.999Z</time>
      </trkpt>
      <trkpt lat="47.40712" lon="6.59825">
        <ele>452</ele>
        <time>2017-06-11T07:09:03.999Z</time>
      </trkpt>
      <trkpt lat="47.40708" lon="6.59826">
        <ele>452</ele>
        <time>2017-06-11T07:09:04.999Z</time>
      </trkpt>
      <trkpt lat="47.40705" lon="6.59829">
        <ele>452.1</ele>
        <time>2017-06-11T07:09:05.999Z</time>
      </trkpt>
      <trkpt lat="47.407" lon="6.59832">
        <ele>451.8</ele>
        <time>2017-06-11T07:09:06.999Z</time>
      </trkpt>
      <trkpt lat="47.40694" lon="6.59833">
        <ele>451.8</ele>
        <time>2017-06-11T07:09:07.999Z</time>
      </trkpt>
      <trkpt lat="47.4069" lon="6.59834">
        <ele>451.8</ele>
        <time>2017-06-11T07:09:08.999Z</time>
      </trkpt>
      <trkpt lat="47.40684" lon="6.59837">
        <ele>452.2</ele>
        <time>2017-06-11T07:09:09.999Z</time>
      </trkpt>
      <trkpt lat="47.40678" lon="6.59841">
        <ele>452.3</ele>
        <time>2017-06-11T07:09:10.999Z</time>
      </trkpt>
      <trkpt lat="47.40674" lon="6.59844">
        <ele>453.1</ele>
        <time>2017-06-11T07:09:11.999Z</time>
      </trkpt>
      <trkpt lat="47.40671" lon="6.59848">
        <ele>453.8</ele>
        <time>2017-06-11T07:09:12.999Z</time>
      </trkpt>
      <trkpt lat="47.40667" lon="6.59851">
        <ele>453.8</ele>
        <time>2017-06-11T07:09:13.999Z</time>
      </trkpt>
      <trkpt lat="47.40664" lon="6.59854">
        <ele>453.7</ele>
        <time>2017-06-11T07:09:14.999Z</time>
      </trkpt>
      <trkpt lat="47.40661" lon="6.59857">
        <ele>453.7</ele>
        <time>2017-06-11T07:09:15.999Z</time>
      </trkpt>
      <trkpt lat="47.40659" lon="6.59863">
        <ele>453.7</ele>
        <time>2017-06-11T07:09:16.999Z</time>
      </trkpt>
      <trkpt lat="47.40656" lon="6.59866">
        <ele>453.7</ele>
        <time>2017-06-11T07:09:17.999Z</time>
      </trkpt>
      <trkpt lat="47.40654" lon="6.59868">
        <ele>453.6</ele>
        <time>2017-06-11T07:09:18.999Z</time>
      </trkpt>
      <trkpt lat="47.4065" lon="6.5987">
        <ele>453.6</ele>
        <time>2017-06-11T07:09:19.999Z</time>
      </trkpt>
      <trkpt lat="47.40645" lon="6.59875">
        <ele>453.6</ele>
        <time>2017-06-11T07:09:20.999Z</time>
      </trkpt>
      <trkpt lat="47.40642" lon="6.59879">
        <ele>453.6</ele>
        <time>2017-06-11T07:09:21.999Z</time>
      </trkpt>
      <trkpt lat="47.40638" lon="6.59881">
        <ele>453.6</ele>
        <time>2017-06-11T07:09:22.999Z</time>
      </trkpt>
      <trkpt lat="47.40635" lon="6.59883">
        <ele>453.7</ele>
        <time>2017-06-11T07:09:23.999Z</time>
      </trkpt>
      <trkpt lat="47.40632" lon="6.59883">
        <ele>453.8</ele>
        <time>2017-06-11T07:09:24.999Z</time>
      </trkpt>
      <trkpt lat="47.40628" lon="6.59883">
        <ele>453.8</ele>
        <time>2017-06-11T07:09:25.999Z</time>
      </trkpt>
      <trkpt lat="47.40626" lon="6.59884">
        <ele>453.8</ele>
        <time>2017-06-11T07:09:26.999Z</time>
      </trkpt>
      <trkpt lat="47.40623" lon="6.59885">
        <ele>453.7</ele>
        <time>2017-06-11T07:09:27.999Z</time>
      </trkpt>
      <trkpt lat="47.4062" lon="6.59887">
        <ele>453.7</ele>
        <time>2017-06-11T07:09:28.999Z</time>
      </trkpt>
      <trkpt lat="47.40615" lon="6.59888">
        <ele>453.8</ele>
        <time>2017-06-11T07:09:29.999Z</time>
      </trkpt>
      <trkpt lat="47.40611" lon="6.59889">
        <ele>453.7</ele>
        <time>2017-06-11T07:09:31.999Z</time>
      </trkpt>
      <trkpt lat="47.40607" lon="6.5989">
        <ele>453.6</ele>
        <time>2017-06-11T07:09:32.999Z</time>
      </trkpt>
      <trkpt lat="47.40603" lon="6.59893">
        <ele>453.5</ele>
        <time>2017-06-11T07:09:33.999Z</time>
      </trkpt>
      <trkpt lat="47.40597" lon="6.59897">
        <ele>453.5</ele>
        <time>2017-06-11T07:09:34.999Z</time>
      </trkpt>
      <trkpt lat="47.40592" lon="6.59897">
        <ele>453.4</ele>
        <time>2017-06-11T07:09:35.999Z</time>
      </trkpt>
      <trkpt lat="47.40589" lon="6.59897">
        <ele>453.4</ele>
        <time>2017-06-11T07:09:36.999Z</time>
      </trkpt>
      <trkpt lat="47.40586" lon="6.59899">
        <ele>453.3</ele>
        <time>2017-06-11T07:09:37.999Z</time>
      </trkpt>
      <trkpt lat="47.40584" lon="6.59901">
        <ele>453.3</ele>
        <time>2017-06-11T07:09:38.999Z</time>
      </trkpt>
      <trkpt lat="47.40582" lon="6.59902">
        <ele>453.3</ele>
        <time>2017-06-11T07:09:39.999Z</time>
      </trkpt>
      <trkpt lat="47.40577" lon="6.59904">
        <ele>453.3</ele>
        <time>2017-06-11T07:09:40.999Z</time>
      </trkpt>
      <trkpt lat="47.40572" lon="6.59907">
        <ele>453.1</ele>
        <time>2017-06-11T07:09:41.999Z</time>
      </trkpt>
      <trkpt lat="47.40569" lon="6.59909">
        <ele>453</ele>
        <time>2017-06-11T07:09:42.999Z</time>
      </trkpt>
      <trkpt lat="47.40567" lon="6.59912">
        <ele>452.9</ele>
        <time>2017-06-11T07:09:43.999Z</time>
      </trkpt>
      <trkpt lat="47.40563" lon="6.59916">
        <ele>452.7</ele>
        <time>2017-06-11T07:09:44.999Z</time>
      </trkpt>
      <trkpt lat="47.40561" lon="6.59918">
        <ele>452.7</ele>
        <time>2017-06-11T07:09:45.999Z</time>
      </trkpt>
      <trkpt lat="47.40558" lon="6.59921">
        <ele>452.9</ele>
        <time>2017-06-11T07:09:48.999Z</time>
      </trkpt>
      <trkpt lat="47.40557" lon="6.59924">
        <ele>452.9</ele>
        <time>2017-06-11T07:09:49.999Z</time>
      </trkpt>
      <trkpt lat="47.40553" lon="6.59929">
        <ele>452.9</ele>
        <time>2017-06-11T07:09:50.999Z</time>
      </trkpt>
      <trkpt lat="47.40548" lon="6.59935">
        <ele>453</ele>
        <time>2017-06-11T07:09:51.999Z</time>
      </trkpt>
      <trkpt lat="47.40544" lon="6.59941">
        <ele>453.1</ele>
        <time>2017-06-11T07:09:52.999Z</time>
      </trkpt>
      <trkpt lat="47.40543" lon="6.59945">
        <ele>453.2</ele>
        <time>2017-06-11T07:09:53.999Z</time>
      </trkpt>
      <trkpt lat="47.40541" lon="6.5995">
        <ele>453.2</ele>
        <time>2017-06-11T07:09:54.999Z</time>
      </trkpt>
      <trkpt lat="47.40539" lon="6.59955">
        <ele>453.3</ele>
        <time>2017-06-11T07:09:55.999Z</time>
      </trkpt>
      <trkpt lat="47.40536" lon="6.59956">
        <ele>453.4</ele>
        <time>2017-06-11T07:09:56.999Z</time>
      </trkpt>
      <trkpt lat="47.40533" lon="6.59957">
        <ele>453.5</ele>
        <time>2017-06-11T07:09:57.999Z</time>
      </trkpt>
      <trkpt lat="47.40531" lon="6.59957">
        <ele>453.7</ele>
        <time>2017-06-11T07:09:58.999Z</time>
      </trkpt>
      <trkpt lat="47.40528" lon="6.59957">
        <ele>453.8</ele>
        <time>2017-06-11T07:09:59.999Z</time>
      </trkpt>
      <trkpt lat="47.40524" lon="6.59957">
        <ele>453.9</ele>
        <time>2017-06-11T07:10:00.999Z</time>
      </trkpt>
      <trkpt lat="47.40519" lon="6.59959">
        <ele>454.1</ele>
        <time>2017-06-11T07:10:01.999Z</time>
      </trkpt>
      <trkpt lat="47.40514" lon="6.59959">
        <ele>454.3</ele>
        <time>2017-06-11T07:10:02.999Z</time>
      </trkpt>
      <trkpt lat="47.40509" lon="6.59962">
        <ele>454.4</ele>
        <time>2017-06-11T07:10:03.999Z</time>
      </trkpt>
      <trkpt lat="47.40505" lon="6.59963">
        <ele>454.6</ele>
        <time>2017-06-11T07:10:04.999Z</time>
      </trkpt>
      <trkpt lat="47.40501" lon="6.59963">
        <ele>455.8</ele>
        <time>2017-06-11T07:10:05.999Z</time>
      </trkpt>
      <trkpt lat="47.40499" lon="6.59964">
        <ele>455.9</ele>
        <time>2017-06-11T07:10:06.999Z</time>
      </trkpt>
      <trkpt lat="47.40497" lon="6.59965">
        <ele>456</ele>
        <time>2017-06-11T07:10:07.999Z</time>
      </trkpt>
      <trkpt lat="47.40492" lon="6.59965">
        <ele>456.2</ele>
        <time>2017-06-11T07:10:09.999Z</time>
      </trkpt>
      <trkpt lat="47.40489" lon="6.59965">
        <ele>456.4</ele>
        <time>2017-06-11T07:10:10.999Z</time>
      </trkpt>
      <trkpt lat="47.40484" lon="6.59966">
        <ele>456.5</ele>
        <time>2017-06-11T07:10:11.999Z</time>
      </trkpt>
      <trkpt lat="47.40482" lon="6.59967">
        <ele>456.7</ele>
        <time>2017-06-11T07:10:12.999Z</time>
      </trkpt>
      <trkpt lat="47.40477" lon="6.59969">
        <ele>456.9</ele>
        <time>2017-06-11T07:10:13.999Z</time>
      </trkpt>
      <trkpt lat="47.40475" lon="6.5997">
        <ele>457.1</ele>
        <time>2017-06-11T07:10:14.999Z</time>
      </trkpt>
      <trkpt lat="47.40471" lon="6.5997">
        <ele>457.3</ele>
        <time>2017-06-11T07:10:15.999Z</time>
      </trkpt>
      <trkpt lat="47.40469" lon="6.59971">
        <ele>457.5</ele>
        <time>2017-06-11T07:10:16.999Z</time>
      </trkpt>
      <trkpt lat="47.40465" lon="6.59971">
        <ele>457.6</ele>
        <time>2017-06-11T07:10:17.999Z</time>
      </trkpt>
      <trkpt lat="47.4046" lon="6.59968">
        <ele>457.6</ele>
        <time>2017-06-11T07:10:18.999Z</time>
      </trkpt>
      <trkpt lat="47.40457" lon="6.59968">
        <ele>457.6</ele>
        <time>2017-06-11T07:10:19.999Z</time>
      </trkpt>
      <trkpt lat="47.40454" lon="6.59968">
        <ele>457.7</ele>
        <time>2017-06-11T07:10:20.999Z</time>
      </trkpt>
      <trkpt lat="47.40451" lon="6.59968">
        <ele>457.8</ele>
        <time>2017-06-11T07:10:21.999Z</time>
      </trkpt>
      <trkpt lat="47.40448" lon="6.59969">
        <ele>457.8</ele>
        <time>2017-06-11T07:10:22.999Z</time>
      </trkpt>
      <trkpt lat="47.40443" lon="6.59971">
        <ele>457.9</ele>
        <time>2017-06-11T07:10:23.999Z</time>
      </trkpt>
      <trkpt lat="47.4044" lon="6.59972">
        <ele>458</ele>
        <time>2017-06-11T07:10:24.999Z</time>
      </trkpt>
      <trkpt lat="47.40438" lon="6.59972">
        <ele>458.1</ele>
        <time>2017-06-11T07:10:25.999Z</time>
      </trkpt>
      <trkpt lat="47.40436" lon="6.59973">
        <ele>458.2</ele>
        <time>2017-06-11T07:10:26.999Z</time>
      </trkpt>
      <trkpt lat="47.40433" lon="6.59975">
        <ele>458.4</ele>
        <time>2017-06-11T07:10:27.999Z</time>
      </trkpt>
      <trkpt lat="47.40429" lon="6.59977">
        <ele>458.6</ele>
        <time>2017-06-11T07:10:29.999Z</time>
      </trkpt>
      <trkpt lat="47.40427" lon="6.59977">
        <ele>458.7</ele>
        <time>2017-06-11T07:10:30.999Z</time>
      </trkpt>
      <trkpt lat="47.40424" lon="6.59977">
        <ele>458.9</ele>
        <time>2017-06-11T07:10:31.999Z</time>
      </trkpt>
      <trkpt lat="47.40422" lon="6.5998">
        <ele>459.2</ele>
        <time>2017-06-11T07:10:32.999Z</time>
      </trkpt>
      <trkpt lat="47.40418" lon="6.59983">
        <ele>459.6</ele>
        <time>2017-06-11T07:10:33.999Z</time>
      </trkpt>
      <trkpt lat="47.40415" lon="6.59986">
        <ele>459.8</ele>
        <time>2017-06-11T07:10:34.999Z</time>
      </trkpt>
      <trkpt lat="47.40413" lon="6.59988">
        <ele>460</ele>
        <time>2017-06-11T07:10:35.999Z</time>
      </trkpt>
      <trkpt lat="47.40409" lon="6.59991">
        <ele>460.3</ele>
        <time>2017-06-11T07:10:36.999Z</time>
      </trkpt>
      <trkpt lat="47.40406" lon="6.59993">
        <ele>460.5</ele>
        <time>2017-06-11T07:10:37.999Z</time>
      </trkpt>
      <trkpt lat="47.40404" lon="6.59993">
        <ele>460.8</ele>
        <time>2017-06-11T07:10:38.999Z</time>
      </trkpt>
      <trkpt lat="47.40399" lon="6.59995">
        <ele>461</ele>
        <time>2017-06-11T07:10:39.999Z</time>
      </trkpt>
      <trkpt lat="47.40397" lon="6.59997">
        <ele>461.3</ele>
        <time>2017-06-11T07:10:40.999Z</time>
      </trkpt>
      <trkpt lat="47.40395" lon="6.59999">
        <ele>461.7</ele>
        <time>2017-06-11T07:10:41.999Z</time>
      </trkpt>
      <trkpt lat="47.40392" lon="6.60001">
        <ele>462.1</ele>
        <time>2017-06-11T07:10:42.999Z</time>
      </trkpt>
      <trkpt lat="47.4039" lon="6.60004">
        <ele>462.4</ele>
        <time>2017-06-11T07:10:43.999Z</time>
      </trkpt>
      <trkpt lat="47.40388" lon="6.60007">
        <ele>462.7</ele>
        <time>2017-06-11T07:10:44.999Z</time>
      </trkpt>
      <trkpt lat="47.40385" lon="6.6001">
        <ele>462.9</ele>
        <time>2017-06-11T07:10:45.999Z</time>
      </trkpt>
      <trkpt lat="47.40381" lon="6.60012">
        <ele>463.4</ele>
        <time>2017-06-11T07:10:47.999Z</time>
      </trkpt>
      <trkpt lat="47.40378" lon="6.60012">
        <ele>463.6</ele>
        <time>2017-06-11T07:10:48.999Z</time>
      </trkpt>
      <trkpt lat="47.40374" lon="6.60012">
        <ele>463.8</ele>
        <time>2017-06-11T07:10:49.999Z</time>
      </trkpt>
      <trkpt lat="47.40371" lon="6.60012">
        <ele>464.1</ele>
        <time>2017-06-11T07:10:50.999Z</time>
      </trkpt>
      <trkpt lat="47.40368" lon="6.60014">
        <ele>465</ele>
        <time>2017-06-11T07:10:55.999Z</time>
      </trkpt>
      <trkpt lat="47.40365" lon="6.60018">
        <ele>465.3</ele>
        <time>2017-06-11T07:10:56.999Z</time>
      </trkpt>
      <trkpt lat="47.40361" lon="6.60024">
        <ele>465.6</ele>
        <time>2017-06-11T07:10:57.999Z</time>
      </trkpt>
      <trkpt lat="47.40357" lon="6.60028">
        <ele>465.8</ele>
        <time>2017-06-11T07:10:58.999Z</time>
      </trkpt>
      <trkpt lat="47.40353" lon="6.60032">
        <ele>466</ele>
        <time>2017-06-11T07:10:59.999Z</time>
      </trkpt>
      <trkpt lat="47.40349" lon="6.60037">
        <ele>466.2</ele>
        <time>2017-06-11T07:11:00.999Z</time>
      </trkpt>
      <trkpt lat="47.40348" lon="6.6004">
        <ele>466.3</ele>
        <time>2017-06-11T07:11:01.999Z</time>
      </trkpt>
      <trkpt lat="47.40345" lon="6.60044">
        <ele>466.4</ele>
        <time>2017-06-11T07:11:02.999Z</time>
      </trkpt>
      <trkpt lat="47.40342" lon="6.60047">
        <ele>466.7</ele>
        <time>2017-06-11T07:11:04.999Z</time>
      </trkpt>
      <trkpt lat="47.40341" lon="6.60049">
        <ele>466.7</ele>
        <time>2017-06-11T07:11:05.999Z</time>
      </trkpt>
      <trkpt lat="47.4034" lon="6.60051">
        <ele>466.9</ele>
        <time>2017-06-11T07:11:06.999Z</time>
      </trkpt>
      <trkpt lat="47.40337" lon="6.60053">
        <ele>467</ele>
        <time>2017-06-11T07:11:07.999Z</time>
      </trkpt>
      <trkpt lat="47.40332" lon="6.60059">
        <ele>467.2</ele>
        <time>2017-06-11T07:11:08.999Z</time>
      </trkpt>
      <trkpt lat="47.4033" lon="6.60061">
        <ele>467.2</ele>
        <time>2017-06-11T07:11:09.999Z</time>
      </trkpt>
      <trkpt lat="47.4033" lon="6.60065">
        <ele>467.2</ele>
        <time>2017-06-11T07:11:10.999Z</time>
      </trkpt>
      <trkpt lat="47.40329" lon="6.60068">
        <ele>467.2</ele>
        <time>2017-06-11T07:11:11.999Z</time>
      </trkpt>
      <trkpt lat="47.40329" lon="6.60073">
        <ele>467.3</ele>
        <time>2017-06-11T07:11:12.999Z</time>
      </trkpt>
      <trkpt lat="47.40327" lon="6.60075">
        <ele>467.3</ele>
        <time>2017-06-11T07:11:13.999Z</time>
      </trkpt>
      <trkpt lat="47.40323" lon="6.60079">
        <ele>467.3</ele>
        <time>2017-06-11T07:11:14.999Z</time>
      </trkpt>
      <trkpt lat="47.40321" lon="6.60082">
        <ele>467.3</ele>
        <time>2017-06-11T07:11:15.999Z</time>
      </trkpt>
      <trkpt lat="47.40322" lon="6.60087">
        <ele>467.2</ele>
        <time>2017-06-11T07:11:16.999Z</time>
      </trkpt>
      <trkpt lat="47.40322" lon="6.60091">
        <ele>467.1</ele>
        <time>2017-06-11T07:11:17.999Z</time>
      </trkpt>
      <trkpt lat="47.40321" lon="6.60095">
        <ele>467</ele>
        <time>2017-06-11T07:11:18.999Z</time>
      </trkpt>
      <trkpt lat="47.40318" lon="6.60099">
        <ele>467</ele>
        <time>2017-06-11T07:11:20.999Z</time>
      </trkpt>
      <trkpt lat="47.40316" lon="6.60101">
        <ele>466.9</ele>
        <time>2017-06-11T07:11:21.999Z</time>
      </trkpt>
      <trkpt lat="47.40314" lon="6.60103">
        <ele>466.8</ele>
        <time>2017-06-11T07:11:22.999Z</time>
      </trkpt>
      <trkpt lat="47.40312" lon="6.60105">
        <ele>466.8</ele>
        <time>2017-06-11T07:11:23.999Z</time>
      </trkpt>
      <trkpt lat="47.4031" lon="6.60106">
        <ele>466.8</ele>
        <time>2017-06-11T07:11:24.999Z</time>
      </trkpt>
      <trkpt lat="47.40308" lon="6.60107">
        <ele>466.8</ele>
        <time>2017-06-11T07:11:25.999Z</time>
      </trkpt>
      <trkpt lat="47.40305" lon="6.6011">
        <ele>466.7</ele>
        <time>2017-06-11T07:11:26.999Z</time>
      </trkpt>
      <trkpt lat="47.40301" lon="6.60114">
        <ele>466.5</ele>
        <time>2017-06-11T07:11:27.999Z</time>
      </trkpt>
      <trkpt lat="47.403" lon="6.60116">
        <ele>466.4</ele>
        <time>2017-06-11T07:11:28.999Z</time>
      </trkpt>
      <trkpt lat="47.40297" lon="6.60117">
        <ele>466.2</ele>
        <time>2017-06-11T07:11:29.999Z</time>
      </trkpt>
      <trkpt lat="47.40295" lon="6.60119">
        <ele>466.2</ele>
        <time>2017-06-11T07:11:30.999Z</time>
      </trkpt>
      <trkpt lat="47.40293" lon="6.60121">
        <ele>466.1</ele>
        <time>2017-06-11T07:11:31.999Z</time>
      </trkpt>
      <trkpt lat="47.4029" lon="6.60123">
        <ele>466</ele>
        <time>2017-06-11T07:11:32.999Z</time>
      </trkpt>
      <trkpt lat="47.40287" lon="6.60126">
        <ele>465.9</ele>
        <time>2017-06-11T07:11:33.999Z</time>
      </trkpt>
      <trkpt lat="47.40283" lon="6.60124">
        <ele>465.6</ele>
        <time>2017-06-11T07:11:34.999Z</time>
      </trkpt>
      <trkpt lat="47.40281" lon="6.60124">
        <ele>465.5</ele>
        <time>2017-06-11T07:11:35.999Z</time>
      </trkpt>
      <trkpt lat="47.40277" lon="6.60121">
        <ele>465.2</ele>
        <time>2017-06-11T07:11:37.999Z</time>
      </trkpt>
      <trkpt lat="47.40271" lon="6.60121">
        <ele>464.9</ele>
        <time>2017-06-11T07:11:39.999Z</time>
      </trkpt>
      <trkpt lat="47.40267" lon="6.60124">
        <ele>464.7</ele>
        <time>2017-06-11T07:11:40.999Z</time>
      </trkpt>
      <trkpt lat="47.40266" lon="6.60124">
        <ele>464.6</ele>
        <time>2017-06-11T07:11:41.999Z</time>
      </trkpt>
      <trkpt lat="47.40263" lon="6.60122">
        <ele>464.4</ele>
        <time>2017-06-11T07:11:42.999Z</time>
      </trkpt>
      <trkpt lat="47.40259" lon="6.60119">
        <ele>464.4</ele>
        <time>2017-06-11T07:11:43.999Z</time>
      </trkpt>
      <trkpt lat="47.40255" lon="6.60119">
        <ele>464.3</ele>
        <time>2017-06-11T07:11:44.999Z</time>
      </trkpt>
      <trkpt lat="47.40252" lon="6.6012">
        <ele>464.3</ele>
        <time>2017-06-11T07:11:45.999Z</time>
      </trkpt>
      <trkpt lat="47.40248" lon="6.60125">
        <ele>464.2</ele>
        <time>2017-06-11T07:11:46.999Z</time>
      </trkpt>
      <trkpt lat="47.40244" lon="6.60128">
        <ele>464.2</ele>
        <time>2017-06-11T07:11:48.999Z</time>
      </trkpt>
      <trkpt lat="47.40243" lon="6.60129">
        <ele>464</ele>
        <time>2017-06-11T07:11:49.999Z</time>
      </trkpt>
      <trkpt lat="47.40242" lon="6.60131">
        <ele>464</ele>
        <time>2017-06-11T07:11:50.999Z</time>
      </trkpt>
      <trkpt lat="47.40239" lon="6.60135">
        <ele>463.9</ele>
        <time>2017-06-11T07:11:51.999Z</time>
      </trkpt>
      <trkpt lat="47.40238" lon="6.60136">
        <ele>463.9</ele>
        <time>2017-06-11T07:11:52.999Z</time>
      </trkpt>
      <trkpt lat="47.40234" lon="6.60137">
        <ele>463.8</ele>
        <time>2017-06-11T07:11:53.999Z</time>
      </trkpt>
      <trkpt lat="47.40232" lon="6.60138">
        <ele>463.7</ele>
        <time>2017-06-11T07:11:54.999Z</time>
      </trkpt>
      <trkpt lat="47.40228" lon="6.60137">
        <ele>463.8</ele>
        <time>2017-06-11T07:11:55.999Z</time>
      </trkpt>
      <trkpt lat="47.40225" lon="6.60136">
        <ele>463.8</ele>
        <time>2017-06-11T07:11:56.999Z</time>
      </trkpt>
      <trkpt lat="47.40223" lon="6.60135">
        <ele>463.8</ele>
        <time>2017-06-11T07:11:57.999Z</time>
      </trkpt>
      <trkpt lat="47.40221" lon="6.60134">
        <ele>463.9</ele>
        <time>2017-06-11T07:11:58.999Z</time>
      </trkpt>
      <trkpt lat="47.40217" lon="6.60134">
        <ele>463.9</ele>
        <time>2017-06-11T07:11:59.999Z</time>
      </trkpt>
      <trkpt lat="47.40213" lon="6.60132">
        <ele>464.3</ele>
        <time>2017-06-11T07:12:01.999Z</time>
      </trkpt>
      <trkpt lat="47.40211" lon="6.6013">
        <ele>464.5</ele>
        <time>2017-06-11T07:12:02.999Z</time>
      </trkpt>
      <trkpt lat="47.40207" lon="6.60127">
        <ele>464.6</ele>
        <time>2017-06-11T07:12:03.999Z</time>
      </trkpt>
      <trkpt lat="47.40206" lon="6.60126">
        <ele>464.7</ele>
        <time>2017-06-11T07:12:04.999Z</time>
      </trkpt>
      <trkpt lat="47.40203" lon="6.60122">
        <ele>464.8</ele>
        <time>2017-06-11T07:12:06.999Z</time>
      </trkpt>
      <trkpt lat="47.40201" lon="6.6012">
        <ele>464.9</ele>
        <time>2017-06-11T07:12:07.999Z</time>
      </trkpt>
      <trkpt lat="47.40196" lon="6.60117">
        <ele>465.1</ele>
        <time>2017-06-11T07:12:08.999Z</time>
      </trkpt>
      <trkpt lat="47.40193" lon="6.60115">
        <ele>465.3</ele>
        <time>2017-06-11T07:12:09.999Z</time>
      </trkpt>
      <trkpt lat="47.40191" lon="6.60111">
        <ele>465.4</ele>
        <time>2017-06-11T07:12:10.999Z</time>
      </trkpt>
      <trkpt lat="47.40188" lon="6.60105">
        <ele>465.3</ele>
        <time>2017-06-11T07:12:11.999Z</time>
      </trkpt>
      <trkpt lat="47.40185" lon="6.60102">
        <ele>465.4</ele>
        <time>2017-06-11T07:12:12.999Z</time>
      </trkpt>
      <trkpt lat="47.40183" lon="6.60098">
        <ele>465.4</ele>
        <time>2017-06-11T07:12:13.999Z</time>
      </trkpt>
      <trkpt lat="47.40181" lon="6.60093">
        <ele>465.4</ele>
        <time>2017-06-11T07:12:14.999Z</time>
      </trkpt>
      <trkpt lat="47.4018" lon="6.60089">
        <ele>465.3</ele>
        <time>2017-06-11T07:12:15.999Z</time>
      </trkpt>
      <trkpt lat="47.40177" lon="6.60085">
        <ele>465.2</ele>
        <time>2017-06-11T07:12:16.999Z</time>
      </trkpt>
      <trkpt lat="47.40175" lon="6.60081">
        <ele>465.3</ele>
        <time>2017-06-11T07:12:17.999Z</time>
      </trkpt>
      <trkpt lat="47.40173" lon="6.60077">
        <ele>465.3</ele>
        <time>2017-06-11T07:12:18.999Z</time>
      </trkpt>
      <trkpt lat="47.4017" lon="6.60076">
        <ele>465.3</ele>
        <time>2017-06-11T07:12:19.999Z</time>
      </trkpt>
      <trkpt lat="47.40167" lon="6.60075">
        <ele>465.3</ele>
        <time>2017-06-11T07:12:20.999Z</time>
      </trkpt>
      <trkpt lat="47.40165" lon="6.60076">
        <ele>465.2</ele>
        <time>2017-06-11T07:12:21.999Z</time>
      </trkpt>
      <trkpt lat="47.40163" lon="6.60079">
        <ele>465.1</ele>
        <time>2017-06-11T07:12:23.999Z</time>
      </trkpt>
      <trkpt lat="47.40161" lon="6.60082">
        <ele>465</ele>
        <time>2017-06-11T07:12:24.999Z</time>
      </trkpt>
      <trkpt lat="47.4016" lon="6.60085">
        <ele>464.9</ele>
        <time>2017-06-11T07:12:25.999Z</time>
      </trkpt>
      <trkpt lat="47.40159" lon="6.60088">
        <ele>464.8</ele>
        <time>2017-06-11T07:12:26.999Z</time>
      </trkpt>
      <trkpt lat="47.40157" lon="6.60091">
        <ele>464.8</ele>
        <time>2017-06-11T07:12:27.999Z</time>
      </trkpt>
      <trkpt lat="47.40156" lon="6.60095">
        <ele>464.7</ele>
        <time>2017-06-11T07:12:28.999Z</time>
      </trkpt>
      <trkpt lat="47.40154" lon="6.601">
        <ele>464.5</ele>
        <time>2017-06-11T07:12:30.999Z</time>
      </trkpt>
      <trkpt lat="47.40152" lon="6.60102">
        <ele>464.4</ele>
        <time>2017-06-11T07:12:31.999Z</time>
      </trkpt>
      <trkpt lat="47.40149" lon="6.60107">
        <ele>464.1</ele>
        <time>2017-06-11T07:12:33.999Z</time>
      </trkpt>
      <trkpt lat="47.40147" lon="6.60108">
        <ele>464.1</ele>
        <time>2017-06-11T07:12:34.999Z</time>
      </trkpt>
      <trkpt lat="47.40146" lon="6.6011">
        <ele>464</ele>
        <time>2017-06-11T07:12:35.999Z</time>
      </trkpt>
      <trkpt lat="47.40143" lon="6.60112">
        <ele>464</ele>
        <time>2017-06-11T07:12:36.999Z</time>
      </trkpt>
      <trkpt lat="47.40139" lon="6.60115">
        <ele>464</ele>
        <time>2017-06-11T07:12:37.999Z</time>
      </trkpt>
      <trkpt lat="47.40135" lon="6.60119">
        <ele>464</ele>
        <time>2017-06-11T07:12:39.999Z</time>
      </trkpt>
      <trkpt lat="47.40133" lon="6.6012">
        <ele>464</ele>
        <time>2017-06-11T07:12:40.999Z</time>
      </trkpt>
      <trkpt lat="47.40131" lon="6.60121">
        <ele>464.1</ele>
        <time>2017-06-11T07:12:41.999Z</time>
      </trkpt>
      <trkpt lat="47.40129" lon="6.60123">
        <ele>464.1</ele>
        <time>2017-06-11T07:12:42.999Z</time>
      </trkpt>
      <trkpt lat="47.40125" lon="6.60127">
        <ele>464.3</ele>
        <time>2017-06-11T07:12:44.999Z</time>
      </trkpt>
      <trkpt lat="47.40124" lon="6.60128">
        <ele>464.4</ele>
        <time>2017-06-11T07:12:45.999Z</time>
      </trkpt>
      <trkpt lat="47.4012" lon="6.60132">
        <ele>465</ele>
        <time>2017-06-11T07:12:48.999Z</time>
      </trkpt>
      <trkpt lat="47.40117" lon="6.60132">
        <ele>465.1</ele>
        <time>2017-06-11T07:12:49.999Z</time>
      </trkpt>
      <trkpt lat="47.40112" lon="6.60133">
        <ele>465.4</ele>
        <time>2017-06-11T07:12:51.999Z</time>
      </trkpt>
      <trkpt lat="47.40111" lon="6.60132">
        <ele>465.5</ele>
        <time>2017-06-11T07:12:52.999Z</time>
      </trkpt>
      <trkpt lat="47.40108" lon="6.60129">
        <ele>465.7</ele>
        <time>2017-06-11T07:12:54.999Z</time>
      </trkpt>
      <trkpt lat="47.40106" lon="6.60124">
        <ele>465.9</ele>
        <time>2017-06-11T07:12:55.999Z</time>
      </trkpt>
      <trkpt lat="47.40103" lon="6.60122">
        <ele>466.1</ele>
        <time>2017-06-11T07:12:57.999Z</time>
      </trkpt>
      <trkpt lat="47.40099" lon="6.60119">
        <ele>466.3</ele>
        <time>2017-06-11T07:12:58.999Z</time>
      </trkpt>
      <trkpt lat="47.40097" lon="6.60115">
        <ele>466.5</ele>
        <time>2017-06-11T07:13:00.999Z</time>
      </trkpt>
      <trkpt lat="47.40096" lon="6.60114">
        <ele>466.7</ele>
        <time>2017-06-11T07:13:01.999Z</time>
      </trkpt>
      <trkpt lat="47.40092" lon="6.60111">
        <ele>467</ele>
        <time>2017-06-11T07:13:03.999Z</time>
      </trkpt>
      <trkpt lat="47.40089" lon="6.60107">
        <ele>467.2</ele>
        <time>2017-06-11T07:13:04.999Z</time>
      </trkpt>
      <trkpt lat="47.40086" lon="6.60104">
        <ele>467.5</ele>
        <time>2017-06-11T07:13:06.999Z</time>
      </trkpt>
      <trkpt lat="47.40084" lon="6.60103">
        <ele>467.7</ele>
        <time>2017-06-11T07:13:08.000Z</time>
      </trkpt>
      <trkpt lat="47.40081" lon="6.601">
        <ele>467.9</ele>
        <time>2017-06-11T07:13:08.999Z</time>
      </trkpt>
      <trkpt lat="47.40079" lon="6.60098">
        <ele>468.1</ele>
        <time>2017-06-11T07:13:09.999Z</time>
      </trkpt>
      <trkpt lat="47.40077" lon="6.60095">
        <ele>468.2</ele>
        <time>2017-06-11T07:13:11.000Z</time>
      </trkpt>
      <trkpt lat="47.40074" lon="6.6009">
        <ele>468.4</ele>
        <time>2017-06-11T07:13:12.000Z</time>
      </trkpt>
      <trkpt lat="47.40071" lon="6.60086">
        <ele>468.8</ele>
        <time>2017-06-11T07:13:14.000Z</time>
      </trkpt>
      <trkpt lat="47.40069" lon="6.60084">
        <ele>468.9</ele>
        <time>2017-06-11T07:13:15.000Z</time>
      </trkpt>
      <trkpt lat="47.40067" lon="6.60082">
        <ele>469</ele>
        <time>2017-06-11T07:13:16.000Z</time>
      </trkpt>
      <trkpt lat="47.40065" lon="6.60076">
        <ele>469.2</ele>
        <time>2017-06-11T07:13:17.000Z</time>
      </trkpt>
      <trkpt lat="47.40064" lon="6.60075">
        <ele>469.3</ele>
        <time>2017-06-11T07:13:18.000Z</time>
      </trkpt>
      <trkpt lat="47.40061" lon="6.6007">
        <ele>469.5</ele>
        <time>2017-06-11T07:13:19.000Z</time>
      </trkpt>
      <trkpt lat="47.40057" lon="6.60068">
        <ele>469.8</ele>
        <time>2017-06-11T07:13:21.000Z</time>
      </trkpt>
      <trkpt lat="47.40056" lon="6.60067">
        <ele>469.9</ele>
        <time>2017-06-11T07:13:22.000Z</time>
      </trkpt>
      <trkpt lat="47.40052" lon="6.60064">
        <ele>470.2</ele>
        <time>2017-06-11T07:13:24.000Z</time>
      </trkpt>
      <trkpt lat="47.4005" lon="6.60062">
        <ele>470.4</ele>
        <time>2017-06-11T07:13:25.000Z</time>
      </trkpt>
      <trkpt lat="47.40048" lon="6.60061">
        <ele>470.5</ele>
        <time>2017-06-11T07:13:26.000Z</time>
      </trkpt>
      <trkpt lat="47.40046" lon="6.60059">
        <ele>470.6</ele>
        <time>2017-06-11T07:13:27.000Z</time>
      </trkpt>
      <trkpt lat="47.40044" lon="6.60057">
        <ele>470.6</ele>
        <time>2017-06-11T07:13:28.000Z</time>
      </trkpt>
      <trkpt lat="47.40042" lon="6.60055">
        <ele>470.6</ele>
        <time>2017-06-11T07:13:29.000Z</time>
      </trkpt>
      <trkpt lat="47.40038" lon="6.60051">
        <ele>470.6</ele>
        <time>2017-06-11T07:13:31.000Z</time>
      </trkpt>
      <trkpt lat="47.40037" lon="6.60049">
        <ele>470.6</ele>
        <time>2017-06-11T07:13:32.000Z</time>
      </trkpt>
      <trkpt lat="47.40033" lon="6.60047">
        <ele>470.6</ele>
        <time>2017-06-11T07:13:34.000Z</time>
      </trkpt>
      <trkpt lat="47.40031" lon="6.60046">
        <ele>470.5</ele>
        <time>2017-06-11T07:13:35.000Z</time>
      </trkpt>
      <trkpt lat="47.40029" lon="6.60045">
        <ele>470.5</ele>
        <time>2017-06-11T07:13:36.000Z</time>
      </trkpt>
      <trkpt lat="47.40026" lon="6.60044">
        <ele>470.5</ele>
        <time>2017-06-11T07:13:37.000Z</time>
      </trkpt>
      <trkpt lat="47.40023" lon="6.60043">
        <ele>470.6</ele>
        <time>2017-06-11T07:13:38.000Z</time>
      </trkpt>
      <trkpt lat="47.40019" lon="6.60043">
        <ele>470.8</ele>
        <time>2017-06-11T07:13:40.000Z</time>
      </trkpt>
      <trkpt lat="47.40017" lon="6.60042">
        <ele>470.8</ele>
        <time>2017-06-11T07:13:41.000Z</time>
      </trkpt>
      <trkpt lat="47.40014" lon="6.60042">
        <ele>470.9</ele>
        <time>2017-06-11T07:13:42.000Z</time>
      </trkpt>
      <trkpt lat="47.4001" lon="6.60041">
        <ele>470.9</ele>
        <time>2017-06-11T07:13:44.000Z</time>
      </trkpt>
      <trkpt lat="47.40008" lon="6.60041">
        <ele>470.8</ele>
        <time>2017-06-11T07:13:45.000Z</time>
      </trkpt>
      <trkpt lat="47.40003" lon="6.6004">
        <ele>470.7</ele>
        <time>2017-06-11T07:13:47.000Z</time>
      </trkpt>
      <trkpt lat="47.40001" lon="6.6004">
        <ele>470.7</ele>
        <time>2017-06-11T07:13:48.000Z</time>
      </trkpt>
      <trkpt lat="47.39997" lon="6.6004">
        <ele>470.7</ele>
        <time>2017-06-11T07:13:50.000Z</time>
      </trkpt>
      <trkpt lat="47.39995" lon="6.6004">
        <ele>470.7</ele>
        <time>2017-06-11T07:13:51.000Z</time>
      </trkpt>
      <trkpt lat="47.39993" lon="6.60039">
        <ele>470.9</ele>
        <time>2017-06-11T07:13:52.000Z</time>
      </trkpt>
      <trkpt lat="47.3999" lon="6.60038">
        <ele>470.9</ele>
        <time>2017-06-11T07:13:53.000Z</time>
      </trkpt>
      <trkpt lat="47.39986" lon="6.60038">
        <ele>471.1</ele>
        <time>2017-06-11T07:13:55.000Z</time>
      </trkpt>
      <trkpt lat="47.39983" lon="6.60037">
        <ele>471.2</ele>
        <time>2017-06-11T07:13:56.000Z</time>
      </trkpt>
      <trkpt lat="47.39979" lon="6.60038">
        <ele>471.5</ele>
        <time>2017-06-11T07:13:58.000Z</time>
      </trkpt>
      <trkpt lat="47.39976" lon="6.60038">
        <ele>471.6</ele>
        <time>2017-06-11T07:13:59.000Z</time>
      </trkpt>
      <trkpt lat="47.39973" lon="6.60037">
        <ele>471.7</ele>
        <time>2017-06-11T07:14:00.000Z</time>
      </trkpt>
      <trkpt lat="47.3997" lon="6.60036">
        <ele>471.9</ele>
        <time>2017-06-11T07:14:01.000Z</time>
      </trkpt>
      <trkpt lat="47.39968" lon="6.60035">
        <ele>472</ele>
        <time>2017-06-11T07:14:02.000Z</time>
      </trkpt>
      <trkpt lat="47.39966" lon="6.60035">
        <ele>472.1</ele>
        <time>2017-06-11T07:14:03.000Z</time>
      </trkpt>
      <trkpt lat="47.39962" lon="6.60035">
        <ele>472.3</ele>
        <time>2017-06-11T07:14:05.000Z</time>
      </trkpt>
      <trkpt lat="47.3996" lon="6.60035">
        <ele>472.4</ele>
        <time>2017-06-11T07:14:06.000Z</time>
      </trkpt>
      <trkpt lat="47.39956" lon="6.60035">
        <ele>472.5</ele>
        <time>2017-06-11T07:14:08.000Z</time>
      </trkpt>
      <trkpt lat="47.39954" lon="6.60036">
        <ele>472.5</ele>
        <time>2017-06-11T07:14:09.000Z</time>
      </trkpt>
      <trkpt lat="47.39951" lon="6.60035">
        <ele>472.6</ele>
        <time>2017-06-11T07:14:10.000Z</time>
      </trkpt>
      <trkpt lat="47.39948" lon="6.60034">
        <ele>472.7</ele>
        <time>2017-06-11T07:14:11.000Z</time>
      </trkpt>
      <trkpt lat="47.39944" lon="6.60034">
        <ele>472.7</ele>
        <time>2017-06-11T07:14:13.000Z</time>
      </trkpt>
      <trkpt lat="47.39941" lon="6.60033">
        <ele>472.6</ele>
        <time>2017-06-11T07:14:14.000Z</time>
      </trkpt>
      <trkpt lat="47.39939" lon="6.60032">
        <ele>472.6</ele>
        <time>2017-06-11T07:14:15.000Z</time>
      </trkpt>
      <trkpt lat="47.39937" lon="6.60032">
        <ele>472.6</ele>
        <time>2017-06-11T07:14:16.000Z</time>
      </trkpt>
      <trkpt lat="47.39934" lon="6.60032">
        <ele>472.6</ele>
        <time>2017-06-11T07:14:17.000Z</time>
      </trkpt>
      <trkpt lat="47.39931" lon="6.60032">
        <ele>472.7</ele>
        <time>2017-06-11T07:14:18.000Z</time>
      </trkpt>
      <trkpt lat="47.39928" lon="6.60032">
        <ele>472.7</ele>
        <time>2017-06-11T07:14:19.000Z</time>
      </trkpt>
      <trkpt lat="47.39925" lon="6.60032">
        <ele>472.7</ele>
        <time>2017-06-11T07:14:20.000Z</time>
      </trkpt>
      <trkpt lat="47.39922" lon="6.60033">
        <ele>472.8</ele>
        <time>2017-06-11T07:14:21.000Z</time>
      </trkpt>
      <trkpt lat="47.39919" lon="6.60032">
        <ele>472.9</ele>
        <time>2017-06-11T07:14:22.000Z</time>
      </trkpt>
      <trkpt lat="47.39916" lon="6.60032">
        <ele>473</ele>
        <time>2017-06-11T07:14:24.000Z</time>
      </trkpt>
      <trkpt lat="47.39914" lon="6.60032">
        <ele>473.1</ele>
        <time>2017-06-11T07:14:25.000Z</time>
      </trkpt>
      <trkpt lat="47.3991" lon="6.60032">
        <ele>473.1</ele>
        <time>2017-06-11T07:14:27.000Z</time>
      </trkpt>
      <trkpt lat="47.39907" lon="6.60032">
        <ele>473.1</ele>
        <time>2017-06-11T07:14:28.000Z</time>
      </trkpt>
      <trkpt lat="47.39904" lon="6.60033">
        <ele>473.2</ele>
        <time>2017-06-11T07:14:29.000Z</time>
      </trkpt>
      <trkpt lat="47.39902" lon="6.60033">
        <ele>473.2</ele>
        <time>2017-06-11T07:14:30.000Z</time>
      </trkpt>
      <trkpt lat="47.39899" lon="6.60034">
        <ele>473.2</ele>
        <time>2017-06-11T07:14:31.000Z</time>
      </trkpt>
      <trkpt lat="47.39896" lon="6.60035">
        <ele>473.3</ele>
        <time>2017-06-11T07:14:32.000Z</time>
      </trkpt>
      <trkpt lat="47.39893" lon="6.60035">
        <ele>473.3</ele>
        <time>2017-06-11T07:14:33.000Z</time>
      </trkpt>
      <trkpt lat="47.39889" lon="6.60036">
        <ele>473.2</ele>
        <time>2017-06-11T07:14:34.000Z</time>
      </trkpt>
      <trkpt lat="47.39887" lon="6.60036">
        <ele>473.2</ele>
        <time>2017-06-11T07:14:35.000Z</time>
      </trkpt>
      <trkpt lat="47.39884" lon="6.60036">
        <ele>473.1</ele>
        <time>2017-06-11T07:14:36.000Z</time>
      </trkpt>
      <trkpt lat="47.39882" lon="6.60036">
        <ele>473.1</ele>
        <time>2017-06-11T07:14:37.000Z</time>
      </trkpt>
      <trkpt lat="47.39879" lon="6.60034">
        <ele>473</ele>
        <time>2017-06-11T07:14:38.000Z</time>
      </trkpt>
      <trkpt lat="47.39875" lon="6.60033">
        <ele>473.1</ele>
        <time>2017-06-11T07:14:40.000Z</time>
      </trkpt>
      <trkpt lat="47.39873" lon="6.60032">
        <ele>473.1</ele>
        <time>2017-06-11T07:14:41.000Z</time>
      </trkpt>
      <trkpt lat="47.3987" lon="6.60032">
        <ele>473.1</ele>
        <time>2017-06-11T07:14:42.000Z</time>
      </trkpt>
      <trkpt lat="47.39868" lon="6.60031">
        <ele>473.1</ele>
        <time>2017-06-11T07:14:43.000Z</time>
      </trkpt>
      <trkpt lat="47.39864" lon="6.6003">
        <ele>473.1</ele>
        <time>2017-06-11T07:14:45.000Z</time>
      </trkpt>
      <trkpt lat="47.39862" lon="6.60029">
        <ele>473.1</ele>
        <time>2017-06-11T07:14:46.000Z</time>
      </trkpt>
      <trkpt lat="47.39858" lon="6.60027">
        <ele>473.3</ele>
        <time>2017-06-11T07:14:48.000Z</time>
      </trkpt>
      <trkpt lat="47.39856" lon="6.60026">
        <ele>473.5</ele>
        <time>2017-06-11T07:14:49.000Z</time>
      </trkpt>
      <trkpt lat="47.39852" lon="6.60025">
        <ele>473.7</ele>
        <time>2017-06-11T07:14:51.000Z</time>
      </trkpt>
      <trkpt lat="47.3985" lon="6.60024">
        <ele>473.8</ele>
        <time>2017-06-11T07:14:52.000Z</time>
      </trkpt>
      <trkpt lat="47.39846" lon="6.60023">
        <ele>474.2</ele>
        <time>2017-06-11T07:14:54.000Z</time>
      </trkpt>
      <trkpt lat="47.39843" lon="6.60023">
        <ele>474.4</ele>
        <time>2017-06-11T07:14:55.000Z</time>
      </trkpt>
      <trkpt lat="47.39839" lon="6.60023">
        <ele>474.6</ele>
        <time>2017-06-11T07:14:57.000Z</time>
      </trkpt>
      <trkpt lat="47.39837" lon="6.60023">
        <ele>474.8</ele>
        <time>2017-06-11T07:14:58.000Z</time>
      </trkpt>
      <trkpt lat="47.39833" lon="6.60022">
        <ele>475.1</ele>
        <time>2017-06-11T07:15:00.000Z</time>
      </trkpt>
      <trkpt lat="47.39831" lon="6.60023">
        <ele>475.2</ele>
        <time>2017-06-11T07:15:01.000Z</time>
      </trkpt>
      <trkpt lat="47.39829" lon="6.60023">
        <ele>475.3</ele>
        <time>2017-06-11T07:15:02.000Z</time>
      </trkpt>
      <trkpt lat="47.39826" lon="6.60021">
        <ele>475.4</ele>
        <time>2017-06-11T07:15:03.000Z</time>
      </trkpt>
      <trkpt lat="47.39823" lon="6.60018">
        <ele>475.5</ele>
        <time>2017-06-11T07:15:04.000Z</time>
      </trkpt>
      <trkpt lat="47.39822" lon="6.60016">
        <ele>475.5</ele>
        <time>2017-06-11T07:15:05.000Z</time>
      </trkpt>
      <trkpt lat="47.39821" lon="6.6001">
        <ele>475.8</ele>
        <time>2017-06-11T07:15:08.000Z</time>
      </trkpt>
      <trkpt lat="47.39819" lon="6.60008">
        <ele>475.9</ele>
        <time>2017-06-11T07:15:09.000Z</time>
      </trkpt>
      <trkpt lat="47.39816" lon="6.60003">
        <ele>476.6</ele>
        <time>2017-06-11T07:15:11.000Z</time>
      </trkpt>
      <trkpt lat="47.39815" lon="6.60001">
        <ele>476.9</ele>
        <time>2017-06-11T07:15:12.000Z</time>
      </trkpt>
      <trkpt lat="47.39812" lon="6.59999">
        <ele>477.5</ele>
        <time>2017-06-11T07:15:14.000Z</time>
      </trkpt>
      <trkpt lat="47.39811" lon="6.59999">
        <ele>477.8</ele>
        <time>2017-06-11T07:15:15.000Z</time>
      </trkpt>
      <trkpt lat="47.39807" lon="6.59998">
        <ele>478.1</ele>
        <time>2017-06-11T07:15:16.000Z</time>
      </trkpt>
      <trkpt lat="47.39806" lon="6.59998">
        <ele>478.4</ele>
        <time>2017-06-11T07:15:17.000Z</time>
      </trkpt>
      <trkpt lat="47.39802" lon="6.59998">
        <ele>479</ele>
        <time>2017-06-11T07:15:20.000Z</time>
      </trkpt>
      <trkpt lat="47.398" lon="6.59998">
        <ele>479.3</ele>
        <time>2017-06-11T07:15:21.000Z</time>
      </trkpt>
      <trkpt lat="47.39796" lon="6.59997">
        <ele>479.5</ele>
        <time>2017-06-11T07:15:22.000Z</time>
      </trkpt>
      <trkpt lat="47.39795" lon="6.59997">
        <ele>479.8</ele>
        <time>2017-06-11T07:15:23.000Z</time>
      </trkpt>
      <trkpt lat="47.39791" lon="6.59994">
        <ele>480.4</ele>
        <time>2017-06-11T07:15:25.000Z</time>
      </trkpt>
      <trkpt lat="47.39789" lon="6.59992">
        <ele>480.7</ele>
        <time>2017-06-11T07:15:26.000Z</time>
      </trkpt>
      <trkpt lat="47.39786" lon="6.59989">
        <ele>481.5</ele>
        <time>2017-06-11T07:15:29.000Z</time>
      </trkpt>
      <trkpt lat="47.39785" lon="6.59988">
        <ele>481.8</ele>
        <time>2017-06-11T07:15:30.000Z</time>
      </trkpt>
      <trkpt lat="47.39783" lon="6.59986">
        <ele>482.9</ele>
        <time>2017-06-11T07:15:33.000Z</time>
      </trkpt>
      <trkpt lat="47.3978" lon="6.59983">
        <ele>483.2</ele>
        <time>2017-06-11T07:15:34.000Z</time>
      </trkpt>
      <trkpt lat="47.39776" lon="6.59982">
        <ele>484.5</ele>
        <time>2017-06-11T07:15:37.000Z</time>
      </trkpt>
      <trkpt lat="47.39775" lon="6.59982">
        <ele>484.9</ele>
        <time>2017-06-11T07:15:38.000Z</time>
      </trkpt>
      <trkpt lat="47.39772" lon="6.59978">
        <ele>486.7</ele>
        <time>2017-06-11T07:15:42.000Z</time>
      </trkpt>
      <trkpt lat="47.3977" lon="6.59976">
        <ele>487.1</ele>
        <time>2017-06-11T07:15:43.000Z</time>
      </trkpt>
      <trkpt lat="47.39769" lon="6.59974">
        <ele>487.5</ele>
        <time>2017-06-11T07:15:44.000Z</time>
      </trkpt>
      <trkpt lat="47.39769" lon="6.5997">
        <ele>487.9</ele>
        <time>2017-06-11T07:15:45.000Z</time>
      </trkpt>
      <trkpt lat="47.39766" lon="6.59964">
        <ele>488.1</ele>
        <time>2017-06-11T07:15:47.000Z</time>
      </trkpt>
      <trkpt lat="47.39766" lon="6.59963">
        <ele>488.3</ele>
        <time>2017-06-11T07:15:48.000Z</time>
      </trkpt>
      <trkpt lat="47.39763" lon="6.59957">
        <ele>489.4</ele>
        <time>2017-06-11T07:15:53.000Z</time>
      </trkpt>
      <trkpt lat="47.39762" lon="6.59957">
        <ele>489.6</ele>
        <time>2017-06-11T07:15:54.000Z</time>
      </trkpt>
      <trkpt lat="47.39759" lon="6.59957">
        <ele>489.9</ele>
        <time>2017-06-11T07:15:56.000Z</time>
      </trkpt>
      <trkpt lat="47.39758" lon="6.59956">
        <ele>490.1</ele>
        <time>2017-06-11T07:15:57.000Z</time>
      </trkpt>
      <trkpt lat="47.39754" lon="6.59954">
        <ele>490.5</ele>
        <time>2017-06-11T07:15:59.000Z</time>
      </trkpt>
      <trkpt lat="47.39751" lon="6.59951">
        <ele>490.7</ele>
        <time>2017-06-11T07:16:00.000Z</time>
      </trkpt>
      <trkpt lat="47.39747" lon="6.59951">
        <ele>490.8</ele>
        <time>2017-06-11T07:16:01.000Z</time>
      </trkpt>
      <trkpt lat="47.39745" lon="6.59951">
        <ele>491</ele>
        <time>2017-06-11T07:16:02.000Z</time>
      </trkpt>
      <trkpt lat="47.39741" lon="6.59952">
        <ele>491.3</ele>
        <time>2017-06-11T07:16:04.000Z</time>
      </trkpt>
      <trkpt lat="47.39738" lon="6.59952">
        <ele>491.5</ele>
        <time>2017-06-11T07:16:05.000Z</time>
      </trkpt>
      <trkpt lat="47.39734" lon="6.59951">
        <ele>492.7</ele>
        <time>2017-06-11T07:16:06.000Z</time>
      </trkpt>
      <trkpt lat="47.3973" lon="6.59952">
        <ele>493.8</ele>
        <time>2017-06-11T07:16:07.000Z</time>
      </trkpt>
      <trkpt lat="47.39727" lon="6.59952">
        <ele>494</ele>
        <time>2017-06-11T07:16:08.000Z</time>
      </trkpt>
      <trkpt lat="47.39724" lon="6.59952">
        <ele>494.2</ele>
        <time>2017-06-11T07:16:09.000Z</time>
      </trkpt>
      <trkpt lat="47.3972" lon="6.59951">
        <ele>495.6</ele>
        <time>2017-06-11T07:16:10.000Z</time>
      </trkpt>
      <trkpt lat="47.39716" lon="6.59951">
        <ele>497.3</ele>
        <time>2017-06-11T07:16:11.000Z</time>
      </trkpt>
      <trkpt lat="47.3971" lon="6.59951">
        <ele>498</ele>
        <time>2017-06-11T07:16:12.000Z</time>
      </trkpt>
      <trkpt lat="47.39703" lon="6.59949">
        <ele>498.1</ele>
        <time>2017-06-11T07:16:13.000Z</time>
      </trkpt>
      <trkpt lat="47.39695" lon="6.5995">
        <ele>497.8</ele>
        <time>2017-06-11T07:16:14.000Z</time>
      </trkpt>
      <trkpt lat="47.39689" lon="6.59951">
        <ele>496.7</ele>
        <time>2017-06-11T07:16:15.000Z</time>
      </trkpt>
      <trkpt lat="47.39682" lon="6.59951">
        <ele>496.3</ele>
        <time>2017-06-11T07:16:16.000Z</time>
      </trkpt>
      <trkpt lat="47.39677" lon="6.59949">
        <ele>497</ele>
        <time>2017-06-11T07:16:17.000Z</time>
      </trkpt>
      <trkpt lat="47.39672" lon="6.59946">
        <ele>497</ele>
        <time>2017-06-11T07:16:18.000Z</time>
      </trkpt>
      <trkpt lat="47.39666" lon="6.59944">
        <ele>495.9</ele>
        <time>2017-06-11T07:16:19.000Z</time>
      </trkpt>
      <trkpt lat="47.39659" lon="6.59942">
        <ele>494.8</ele>
        <time>2017-06-11T07:16:20.000Z</time>
      </trkpt>
      <trkpt lat="47.39654" lon="6.5994">
        <ele>494.3</ele>
        <time>2017-06-11T07:16:21.000Z</time>
      </trkpt>
      <trkpt lat="47.39649" lon="6.59938">
        <ele>493.9</ele>
        <time>2017-06-11T07:16:22.000Z</time>
      </trkpt>
      <trkpt lat="47.39646" lon="6.59938">
        <ele>493.8</ele>
        <time>2017-06-11T07:16:23.000Z</time>
      </trkpt>
      <trkpt lat="47.39643" lon="6.59937">
        <ele>493.8</ele>
        <time>2017-06-11T07:16:24.000Z</time>
      </trkpt>
      <trkpt lat="47.3964" lon="6.59936">
        <ele>493.8</ele>
        <time>2017-06-11T07:16:25.000Z</time>
      </trkpt>
      <trkpt lat="47.39635" lon="6.59934">
        <ele>492.4</ele>
        <time>2017-06-11T07:16:26.000Z</time>
      </trkpt>
      <trkpt lat="47.3963" lon="6.59931">
        <ele>491.7</ele>
        <time>2017-06-11T07:16:27.000Z</time>
      </trkpt>
      <trkpt lat="47.39624" lon="6.59929">
        <ele>490.8</ele>
        <time>2017-06-11T07:16:28.000Z</time>
      </trkpt>
      <trkpt lat="47.3962" lon="6.59927">
        <ele>490.6</ele>
        <time>2017-06-11T07:16:29.000Z</time>
      </trkpt>
      <trkpt lat="47.39618" lon="6.59927">
        <ele>490.5</ele>
        <time>2017-06-11T07:16:30.000Z</time>
      </trkpt>
      <trkpt lat="47.39615" lon="6.59926">
        <ele>490.3</ele>
        <time>2017-06-11T07:16:31.000Z</time>
      </trkpt>
      <trkpt lat="47.39612" lon="6.59923">
        <ele>490.1</ele>
        <time>2017-06-11T07:16:32.000Z</time>
      </trkpt>
      <trkpt lat="47.39609" lon="6.59921">
        <ele>489.8</ele>
        <time>2017-06-11T07:16:33.000Z</time>
      </trkpt>
      <trkpt lat="47.39606" lon="6.59921">
        <ele>489.6</ele>
        <time>2017-06-11T07:16:34.000Z</time>
      </trkpt>
      <trkpt lat="47.39602" lon="6.59923">
        <ele>489.3</ele>
        <time>2017-06-11T07:16:35.000Z</time>
      </trkpt>
      <trkpt lat="47.39599" lon="6.59924">
        <ele>489</ele>
        <time>2017-06-11T07:16:36.000Z</time>
      </trkpt>
      <trkpt lat="47.39595" lon="6.59926">
        <ele>488.5</ele>
        <time>2017-06-11T07:16:37.000Z</time>
      </trkpt>
      <trkpt lat="47.39593" lon="6.59925">
        <ele>488.1</ele>
        <time>2017-06-11T07:16:38.000Z</time>
      </trkpt>
      <trkpt lat="47.39589" lon="6.59923">
        <ele>487.5</ele>
        <time>2017-06-11T07:16:40.000Z</time>
      </trkpt>
      <trkpt lat="47.39585" lon="6.59921">
        <ele>487.1</ele>
        <time>2017-06-11T07:16:41.000Z</time>
      </trkpt>
      <trkpt lat="47.39582" lon="6.5992">
        <ele>486.9</ele>
        <time>2017-06-11T07:16:42.000Z</time>
      </trkpt>
      <trkpt lat="47.3958" lon="6.59918">
        <ele>486.7</ele>
        <time>2017-06-11T07:16:43.000Z</time>
      </trkpt>
      <trkpt lat="47.39577" lon="6.59915">
        <ele>486.5</ele>
        <time>2017-06-11T07:16:44.000Z</time>
      </trkpt>
      <trkpt lat="47.39575" lon="6.59913">
        <ele>486.4</ele>
        <time>2017-06-11T07:16:46.000Z</time>
      </trkpt>
      <trkpt lat="47.39571" lon="6.59911">
        <ele>486.3</ele>
        <time>2017-06-11T07:16:47.000Z</time>
      </trkpt>
      <trkpt lat="47.39568" lon="6.5991">
        <ele>486.1</ele>
        <time>2017-06-11T07:16:48.000Z</time>
      </trkpt>
      <trkpt lat="47.39564" lon="6.59911">
        <ele>485.8</ele>
        <time>2017-06-11T07:16:49.000Z</time>
      </trkpt>
      <trkpt lat="47.39559" lon="6.59911">
        <ele>485.5</ele>
        <time>2017-06-11T07:16:50.000Z</time>
      </trkpt>
      <trkpt lat="47.39554" lon="6.59913">
        <ele>485.1</ele>
        <time>2017-06-11T07:16:51.000Z</time>
      </trkpt>
      <trkpt lat="47.39549" lon="6.59915">
        <ele>481.8</ele>
        <time>2017-06-11T07:16:52.000Z</time>
      </trkpt>
      <trkpt lat="47.39543" lon="6.59917">
        <ele>478.4</ele>
        <time>2017-06-11T07:16:53.000Z</time>
      </trkpt>
      <trkpt lat="47.3954" lon="6.59917">
        <ele>478.2</ele>
        <time>2017-06-11T07:16:54.000Z</time>
      </trkpt>
      <trkpt lat="47.39535" lon="6.59915">
        <ele>475.7</ele>
        <time>2017-06-11T07:16:55.000Z</time>
      </trkpt>
      <trkpt lat="47.39532" lon="6.59913">
        <ele>475.5</ele>
        <time>2017-06-11T07:16:56.000Z</time>
      </trkpt>
      <trkpt lat="47.39529" lon="6.59911">
        <ele>475.3</ele>
        <time>2017-06-11T07:16:57.000Z</time>
      </trkpt>
      <trkpt lat="47.39526" lon="6.59909">
        <ele>475.1</ele>
        <time>2017-06-11T07:16:58.000Z</time>
      </trkpt>
      <trkpt lat="47.39523" lon="6.59908">
        <ele>474.8</ele>
        <time>2017-06-11T07:16:59.000Z</time>
      </trkpt>
      <trkpt lat="47.3952" lon="6.59908">
        <ele>474.7</ele>
        <time>2017-06-11T07:17:00.000Z</time>
      </trkpt>
      <trkpt lat="47.39517" lon="6.59907">
        <ele>474.4</ele>
        <time>2017-06-11T07:17:01.000Z</time>
      </trkpt>
      <trkpt lat="47.39513" lon="6.59906">
        <ele>474.2</ele>
        <time>2017-06-11T07:17:02.000Z</time>
      </trkpt>
      <trkpt lat="47.39511" lon="6.59907">
        <ele>474.1</ele>
        <time>2017-06-11T07:17:03.000Z</time>
      </trkpt>
      <trkpt lat="47.39508" lon="6.59907">
        <ele>474</ele>
        <time>2017-06-11T07:17:04.000Z</time>
      </trkpt>
      <trkpt lat="47.39505" lon="6.59906">
        <ele>473.8</ele>
        <time>2017-06-11T07:17:05.000Z</time>
      </trkpt>
      <trkpt lat="47.39502" lon="6.59906">
        <ele>473.8</ele>
        <time>2017-06-11T07:17:11.000Z</time>
      </trkpt>
      <trkpt lat="47.39492" lon="6.59902">
        <ele>473.9</ele>
        <time>2017-06-11T07:17:12.000Z</time>
      </trkpt>
      <trkpt lat="47.39492" lon="6.59902">
        <ele>474.7</ele>
        <time>2017-06-11T07:17:17.000Z</time>
      </trkpt>
      <trkpt lat="47.39482" lon="6.599">
        <ele>475</ele>
        <time>2017-06-11T07:17:18.000Z</time>
      </trkpt>
      <trkpt lat="47.39479" lon="6.59899">
        <ele>475.8</ele>
        <time>2017-06-11T07:17:22.000Z</time>
      </trkpt>
      <trkpt lat="47.39477" lon="6.59899">
        <ele>476.2</ele>
        <time>2017-06-11T07:17:23.000Z</time>
      </trkpt>
      <trkpt lat="47.39474" lon="6.59897">
        <ele>476.9</ele>
        <time>2017-06-11T07:17:25.000Z</time>
      </trkpt>
      <trkpt lat="47.39472" lon="6.59897">
        <ele>477.3</ele>
        <time>2017-06-11T07:17:26.000Z</time>
      </trkpt>
      <trkpt lat="47.39468" lon="6.59898">
        <ele>478.2</ele>
        <time>2017-06-11T07:17:29.000Z</time>
      </trkpt>
      <trkpt lat="47.39467" lon="6.59898">
        <ele>478.5</ele>
        <time>2017-06-11T07:17:30.000Z</time>
      </trkpt>
      <trkpt lat="47.39466" lon="6.59897">
        <ele>479.8</ele>
        <time>2017-06-11T07:17:38.000Z</time>
      </trkpt>
      <trkpt lat="47.39457" lon="6.59893">
        <ele>480.5</ele>
        <time>2017-06-11T07:17:40.000Z</time>
      </trkpt>
      <trkpt lat="47.39457" lon="6.59893">
        <ele>481.1</ele>
        <time>2017-06-11T07:17:42.000Z</time>
      </trkpt>
      <trkpt lat="47.39452" lon="6.59894">
        <ele>481.3</ele>
        <time>2017-06-11T07:17:43.000Z</time>
      </trkpt>
      <trkpt lat="47.39448" lon="6.59893">
        <ele>481.9</ele>
        <time>2017-06-11T07:17:45.000Z</time>
      </trkpt>
      <trkpt lat="47.39446" lon="6.59893">
        <ele>482.1</ele>
        <time>2017-06-11T07:17:46.000Z</time>
      </trkpt>
      <trkpt lat="47.39443" lon="6.59892">
        <ele>482.4</ele>
        <time>2017-06-11T07:17:47.000Z</time>
      </trkpt>
      <trkpt lat="47.39441" lon="6.59892">
        <ele>482.6</ele>
        <time>2017-06-11T07:17:48.000Z</time>
      </trkpt>
      <trkpt lat="47.39437" lon="6.59891">
        <ele>484.1</ele>
        <time>2017-06-11T07:17:54.000Z</time>
      </trkpt>
      <trkpt lat="47.39422" lon="6.59887">
        <ele>484.3</ele>
        <time>2017-06-11T07:17:55.000Z</time>
      </trkpt>
      <trkpt lat="47.39422" lon="6.59887">
        <ele>485.8</ele>
        <time>2017-06-11T07:18:00.000Z</time>
      </trkpt>
      <trkpt lat="47.3941" lon="6.59884">
        <ele>486.1</ele>
        <time>2017-06-11T07:18:01.000Z</time>
      </trkpt>
      <trkpt lat="47.3941" lon="6.59884">
        <ele>487.2</ele>
        <time>2017-06-11T07:18:07.000Z</time>
      </trkpt>
      <trkpt lat="47.394" lon="6.59877">
        <ele>487.3</ele>
        <time>2017-06-11T07:18:08.000Z</time>
      </trkpt>
      <trkpt lat="47.394" lon="6.59877">
        <ele>488.8</ele>
        <time>2017-06-11T07:18:16.000Z</time>
      </trkpt>
      <trkpt lat="47.39387" lon="6.5987">
        <ele>489</ele>
        <time>2017-06-11T07:18:17.000Z</time>
      </trkpt>
      <trkpt lat="47.39387" lon="6.5987">
        <ele>489.9</ele>
        <time>2017-06-11T07:18:22.000Z</time>
      </trkpt>
      <trkpt lat="47.39374" lon="6.5987">
        <ele>490</ele>
        <time>2017-06-11T07:18:23.000Z</time>
      </trkpt>
      <trkpt lat="47.39371" lon="6.5987">
        <ele>490.2</ele>
        <time>2017-06-11T07:18:24.000Z</time>
      </trkpt>
      <trkpt lat="47.39369" lon="6.59869">
        <ele>490.5</ele>
        <time>2017-06-11T07:18:25.000Z</time>
      </trkpt>
      <trkpt lat="47.39366" lon="6.59869">
        <ele>490.7</ele>
        <time>2017-06-11T07:18:26.000Z</time>
      </trkpt>
      <trkpt lat="47.39363" lon="6.59868">
        <ele>490.9</ele>
        <time>2017-06-11T07:18:27.000Z</time>
      </trkpt>
      <trkpt lat="47.39358" lon="6.59867">
        <ele>491.1</ele>
        <time>2017-06-11T07:18:29.000Z</time>
      </trkpt>
      <trkpt lat="47.39356" lon="6.59867">
        <ele>491.2</ele>
        <time>2017-06-11T07:18:30.000Z</time>
      </trkpt>
      <trkpt lat="47.39354" lon="6.59866">
        <ele>491.9</ele>
        <time>2017-06-11T07:18:36.000Z</time>
      </trkpt>
      <trkpt lat="47.39344" lon="6.5986">
        <ele>492.1</ele>
        <time>2017-06-11T07:18:37.000Z</time>
      </trkpt>
      <trkpt lat="47.39344" lon="6.5986">
        <ele>492.4</ele>
        <time>2017-06-11T07:18:38.000Z</time>
      </trkpt>
      <trkpt lat="47.39338" lon="6.59858">
        <ele>492.7</ele>
        <time>2017-06-11T07:18:40.000Z</time>
      </trkpt>
      <trkpt lat="47.39334" lon="6.59857">
        <ele>493.2</ele>
        <time>2017-06-11T07:18:42.000Z</time>
      </trkpt>
      <trkpt lat="47.39332" lon="6.59856">
        <ele>493.3</ele>
        <time>2017-06-11T07:18:43.000Z</time>
      </trkpt>
      <trkpt lat="47.3933" lon="6.59856">
        <ele>493.5</ele>
        <time>2017-06-11T07:18:44.000Z</time>
      </trkpt>
      <trkpt lat="47.39327" lon="6.59856">
        <ele>493.6</ele>
        <time>2017-06-11T07:18:45.000Z</time>
      </trkpt>
      <trkpt lat="47.39324" lon="6.59855">
        <ele>493.8</ele>
        <time>2017-06-11T07:18:46.000Z</time>
      </trkpt>
      <trkpt lat="47.39321" lon="6.59855">
        <ele>493.9</ele>
        <time>2017-06-11T07:18:47.000Z</time>
      </trkpt>
      <trkpt lat="47.39318" lon="6.59854">
        <ele>493.9</ele>
        <time>2017-06-11T07:18:48.000Z</time>
      </trkpt>
      <trkpt lat="47.39316" lon="6.59853">
        <ele>494.1</ele>
        <time>2017-06-11T07:18:49.000Z</time>
      </trkpt>
      <trkpt lat="47.39313" lon="6.59851">
        <ele>494.2</ele>
        <time>2017-06-11T07:18:50.000Z</time>
      </trkpt>
      <trkpt lat="47.39311" lon="6.5985">
        <ele>494.4</ele>
        <time>2017-06-11T07:18:51.000Z</time>
      </trkpt>
      <trkpt lat="47.39308" lon="6.59849">
        <ele>494.6</ele>
        <time>2017-06-11T07:18:52.000Z</time>
      </trkpt>
      <trkpt lat="47.39306" lon="6.59849">
        <ele>494.7</ele>
        <time>2017-06-11T07:18:53.000Z</time>
      </trkpt>
      <trkpt lat="47.39303" lon="6.59848">
        <ele>494.9</ele>
        <time>2017-06-11T07:18:55.000Z</time>
      </trkpt>
      <trkpt lat="47.39301" lon="6.59848">
        <ele>495</ele>
        <time>2017-06-11T07:18:56.000Z</time>
      </trkpt>
      <trkpt lat="47.39299" lon="6.59847">
        <ele>495</ele>
        <time>2017-06-11T07:18:57.000Z</time>
      </trkpt>
      <trkpt lat="47.39296" lon="6.59847">
        <ele>495.1</ele>
        <time>2017-06-11T07:18:58.000Z</time>
      </trkpt>
      <trkpt lat="47.39292" lon="6.59845">
        <ele>495.4</ele>
        <time>2017-06-11T07:19:01.000Z</time>
      </trkpt>
      <trkpt lat="47.39291" lon="6.59843">
        <ele>495.5</ele>
        <time>2017-06-11T07:19:02.000Z</time>
      </trkpt>
      <trkpt lat="47.39287" lon="6.59842">
        <ele>495.4</ele>
        <time>2017-06-11T07:19:04.000Z</time>
      </trkpt>
      <trkpt lat="47.39286" lon="6.59842">
        <ele>495.4</ele>
        <time>2017-06-11T07:19:05.000Z</time>
      </trkpt>
      <trkpt lat="47.39283" lon="6.5984">
        <ele>495.5</ele>
        <time>2017-06-11T07:19:07.000Z</time>
      </trkpt>
      <trkpt lat="47.39282" lon="6.5984">
        <ele>495.5</ele>
        <time>2017-06-11T07:19:08.000Z</time>
      </trkpt>
      <trkpt lat="47.3928" lon="6.59839">
        <ele>495.7</ele>
        <time>2017-06-11T07:19:12.000Z</time>
      </trkpt>
      <trkpt lat="47.39271" lon="6.59838">
        <ele>495.8</ele>
        <time>2017-06-11T07:19:13.000Z</time>
      </trkpt>
      <trkpt lat="47.39269" lon="6.59837">
        <ele>495.8</ele>
        <time>2017-06-11T07:19:14.000Z</time>
      </trkpt>
      <trkpt lat="47.39266" lon="6.59835">
        <ele>495.9</ele>
        <time>2017-06-11T07:19:15.000Z</time>
      </trkpt>
      <trkpt lat="47.39263" lon="6.59834">
        <ele>496</ele>
        <time>2017-06-11T07:19:16.000Z</time>
      </trkpt>
      <trkpt lat="47.3926" lon="6.59833">
        <ele>496.1</ele>
        <time>2017-06-11T07:19:17.000Z</time>
      </trkpt>
      <trkpt lat="47.39257" lon="6.59832">
        <ele>496.1</ele>
        <time>2017-06-11T07:19:18.000Z</time>
      </trkpt>
      <trkpt lat="47.39255" lon="6.59831">
        <ele>496.1</ele>
        <time>2017-06-11T07:19:19.000Z</time>
      </trkpt>
      <trkpt lat="47.39251" lon="6.59828">
        <ele>496.2</ele>
        <time>2017-06-11T07:19:21.000Z</time>
      </trkpt>
      <trkpt lat="47.39247" lon="6.59827">
        <ele>496.2</ele>
        <time>2017-06-11T07:19:22.000Z</time>
      </trkpt>
      <trkpt lat="47.39245" lon="6.59826">
        <ele>496.1</ele>
        <time>2017-06-11T07:19:23.000Z</time>
      </trkpt>
      <trkpt lat="47.39242" lon="6.59823">
        <ele>496</ele>
        <time>2017-06-11T07:19:24.000Z</time>
      </trkpt>
      <trkpt lat="47.39239" lon="6.59821">
        <ele>496.1</ele>
        <time>2017-06-11T07:19:25.000Z</time>
      </trkpt>
      <trkpt lat="47.39237" lon="6.59818">
        <ele>496</ele>
        <time>2017-06-11T07:19:26.000Z</time>
      </trkpt>
      <trkpt lat="47.39234" lon="6.59815">
        <ele>496</ele>
        <time>2017-06-11T07:19:28.000Z</time>
      </trkpt>
      <trkpt lat="47.39232" lon="6.59814">
        <ele>496</ele>
        <time>2017-06-11T07:19:29.000Z</time>
      </trkpt>
      <trkpt lat="47.3923" lon="6.59813">
        <ele>496</ele>
        <time>2017-06-11T07:19:30.000Z</time>
      </trkpt>
      <trkpt lat="47.39227" lon="6.59811">
        <ele>496</ele>
        <time>2017-06-11T07:19:31.000Z</time>
      </trkpt>
      <trkpt lat="47.39224" lon="6.59809">
        <ele>496.1</ele>
        <time>2017-06-11T07:19:32.000Z</time>
      </trkpt>
      <trkpt lat="47.39222" lon="6.59808">
        <ele>496</ele>
        <time>2017-06-11T07:19:33.000Z</time>
      </trkpt>
      <trkpt lat="47.39218" lon="6.59806">
        <ele>496</ele>
        <time>2017-06-11T07:19:35.000Z</time>
      </trkpt>
      <trkpt lat="47.39216" lon="6.59805">
        <ele>496.1</ele>
        <time>2017-06-11T07:19:36.000Z</time>
      </trkpt>
      <trkpt lat="47.39213" lon="6.59804">
        <ele>496.2</ele>
        <time>2017-06-11T07:19:38.000Z</time>
      </trkpt>
      <trkpt lat="47.3921" lon="6.59803">
        <ele>496.4</ele>
        <time>2017-06-11T07:19:40.000Z</time>
      </trkpt>
      <trkpt lat="47.39207" lon="6.59801">
        <ele>496.5</ele>
        <time>2017-06-11T07:19:42.000Z</time>
      </trkpt>
      <trkpt lat="47.39204" lon="6.598">
        <ele>496.6</ele>
        <time>2017-06-11T07:19:43.000Z</time>
      </trkpt>
      <trkpt lat="47.39201" lon="6.59798">
        <ele>496.7</ele>
        <time>2017-06-11T07:19:45.000Z</time>
      </trkpt>
      <trkpt lat="47.39199" lon="6.59797">
        <ele>497</ele>
        <time>2017-06-11T07:19:46.000Z</time>
      </trkpt>
      <trkpt lat="47.39199" lon="6.59797">
        <ele>497.5</ele>
        <time>2017-06-11T07:19:50.000Z</time>
      </trkpt>
      <trkpt lat="47.39185" lon="6.59791">
        <ele>497.6</ele>
        <time>2017-06-11T07:19:51.000Z</time>
      </trkpt>
      <trkpt lat="47.39185" lon="6.59791">
        <ele>497.8</ele>
        <time>2017-06-11T07:19:52.000Z</time>
      </trkpt>
      <trkpt lat="47.39177" lon="6.59789">
        <ele>497.9</ele>
        <time>2017-06-11T07:19:53.000Z</time>
      </trkpt>
      <trkpt lat="47.39174" lon="6.59788">
        <ele>498</ele>
        <time>2017-06-11T07:19:54.000Z</time>
      </trkpt>
      <trkpt lat="47.39171" lon="6.59787">
        <ele>498.1</ele>
        <time>2017-06-11T07:19:55.000Z</time>
      </trkpt>
      <trkpt lat="47.39169" lon="6.59787">
        <ele>498.3</ele>
        <time>2017-06-11T07:19:56.000Z</time>
      </trkpt>
      <trkpt lat="47.39166" lon="6.59785">
        <ele>498.4</ele>
        <time>2017-06-11T07:19:57.000Z</time>
      </trkpt>
      <trkpt lat="47.39163" lon="6.59784">
        <ele>498.7</ele>
        <time>2017-06-11T07:19:58.000Z</time>
      </trkpt>
      <trkpt lat="47.3916" lon="6.59784">
        <ele>499</ele>
        <time>2017-06-11T07:19:59.000Z</time>
      </trkpt>
      <trkpt lat="47.39156" lon="6.59784">
        <ele>499.3</ele>
        <time>2017-06-11T07:20:00.000Z</time>
      </trkpt>
      <trkpt lat="47.39153" lon="6.59783">
        <ele>499.6</ele>
        <time>2017-06-11T07:20:01.000Z</time>
      </trkpt>
      <trkpt lat="47.3915" lon="6.59782">
        <ele>499.9</ele>
        <time>2017-06-11T07:20:02.000Z</time>
      </trkpt>
      <trkpt lat="47.39148" lon="6.59781">
        <ele>500.2</ele>
        <time>2017-06-11T07:20:03.000Z</time>
      </trkpt>
      <trkpt lat="47.39145" lon="6.5978">
        <ele>500.5</ele>
        <time>2017-06-11T07:20:04.000Z</time>
      </trkpt>
      <trkpt lat="47.39142" lon="6.59778">
        <ele>500.8</ele>
        <time>2017-06-11T07:20:05.000Z</time>
      </trkpt>
      <trkpt lat="47.39139" lon="6.59777">
        <ele>501</ele>
        <time>2017-06-11T07:20:06.000Z</time>
      </trkpt>
      <trkpt lat="47.39136" lon="6.59776">
        <ele>501.3</ele>
        <time>2017-06-11T07:20:07.000Z</time>
      </trkpt>
      <trkpt lat="47.39133" lon="6.59775">
        <ele>501.4</ele>
        <time>2017-06-11T07:20:08.000Z</time>
      </trkpt>
      <trkpt lat="47.39131" lon="6.59773">
        <ele>501.6</ele>
        <time>2017-06-11T07:20:09.000Z</time>
      </trkpt>
      <trkpt lat="47.39127" lon="6.59771">
        <ele>501.7</ele>
        <time>2017-06-11T07:20:10.000Z</time>
      </trkpt>
      <trkpt lat="47.39125" lon="6.5977">
        <ele>502</ele>
        <time>2017-06-11T07:20:11.000Z</time>
      </trkpt>
      <trkpt lat="47.39121" lon="6.59767">
        <ele>502.4</ele>
        <time>2017-06-11T07:20:14.000Z</time>
      </trkpt>
      <trkpt lat="47.39119" lon="6.59765">
        <ele>502.6</ele>
        <time>2017-06-11T07:20:15.000Z</time>
      </trkpt>
      <trkpt lat="47.39115" lon="6.59762">
        <ele>502.9</ele>
        <time>2017-06-11T07:20:17.000Z</time>
      </trkpt>
      <trkpt lat="47.39112" lon="6.5976">
        <ele>503</ele>
        <time>2017-06-11T07:20:18.000Z</time>
      </trkpt>
      <trkpt lat="47.39109" lon="6.59759">
        <ele>503.2</ele>
        <time>2017-06-11T07:20:19.000Z</time>
      </trkpt>
      <trkpt lat="47.39107" lon="6.59758">
        <ele>503.4</ele>
        <time>2017-06-11T07:20:20.000Z</time>
      </trkpt>
      <trkpt lat="47.39105" lon="6.59757">
        <ele>503.7</ele>
        <time>2017-06-11T07:20:21.000Z</time>
      </trkpt>
      <trkpt lat="47.39102" lon="6.59755">
        <ele>503.9</ele>
        <time>2017-06-11T07:20:22.000Z</time>
      </trkpt>
      <trkpt lat="47.391" lon="6.59754">
        <ele>504.1</ele>
        <time>2017-06-11T07:20:23.000Z</time>
      </trkpt>
      <trkpt lat="47.39098" lon="6.59752">
        <ele>504.3</ele>
        <time>2017-06-11T07:20:24.000Z</time>
      </trkpt>
      <trkpt lat="47.39098" lon="6.59752">
        <ele>504.4</ele>
        <time>2017-06-11T07:20:28.000Z</time>
      </trkpt>
      <trkpt lat="47.39091" lon="6.59749">
        <ele>504.5</ele>
        <time>2017-06-11T07:20:29.000Z</time>
      </trkpt>
      <trkpt lat="47.39089" lon="6.59747">
        <ele>504.5</ele>
        <time>2017-06-11T07:20:30.000Z</time>
      </trkpt>
      <trkpt lat="47.39086" lon="6.59744">
        <ele>504.6</ele>
        <time>2017-06-11T07:20:31.000Z</time>
      </trkpt>
      <trkpt lat="47.39083" lon="6.59742">
        <ele>504.7</ele>
        <time>2017-06-11T07:20:32.000Z</time>
      </trkpt>
      <trkpt lat="47.3908" lon="6.59741">
        <ele>504.8</ele>
        <time>2017-06-11T07:20:33.000Z</time>
      </trkpt>
      <trkpt lat="47.39078" lon="6.59739">
        <ele>504.8</ele>
        <time>2017-06-11T07:20:34.000Z</time>
      </trkpt>
      <trkpt lat="47.39075" lon="6.59738">
        <ele>504.9</ele>
        <time>2017-06-11T07:20:35.000Z</time>
      </trkpt>
      <trkpt lat="47.39073" lon="6.59737">
        <ele>504.9</ele>
        <time>2017-06-11T07:20:36.000Z</time>
      </trkpt>
      <trkpt lat="47.3907" lon="6.59736">
        <ele>504.8</ele>
        <time>2017-06-11T07:20:37.000Z</time>
      </trkpt>
      <trkpt lat="47.39069" lon="6.59735">
        <ele>504.8</ele>
        <time>2017-06-11T07:20:38.000Z</time>
      </trkpt>
      <trkpt lat="47.39065" lon="6.59732">
        <ele>504.6</ele>
        <time>2017-06-11T07:20:40.000Z</time>
      </trkpt>
      <trkpt lat="47.39063" lon="6.59732">
        <ele>504.6</ele>
        <time>2017-06-11T07:20:41.000Z</time>
      </trkpt>
      <trkpt lat="47.39059" lon="6.59733">
        <ele>504.6</ele>
        <time>2017-06-11T07:20:42.000Z</time>
      </trkpt>
      <trkpt lat="47.39056" lon="6.59737">
        <ele>504.5</ele>
        <time>2017-06-11T07:20:44.000Z</time>
      </trkpt>
      <trkpt lat="47.39055" lon="6.59739">
        <ele>504.4</ele>
        <time>2017-06-11T07:20:45.000Z</time>
      </trkpt>
      <trkpt lat="47.39054" lon="6.59744">
        <ele>504.2</ele>
        <time>2017-06-11T07:20:47.000Z</time>
      </trkpt>
      <trkpt lat="47.39054" lon="6.59747">
        <ele>504.2</ele>
        <time>2017-06-11T07:20:48.000Z</time>
      </trkpt>
      <trkpt lat="47.39053" lon="6.59752">
        <ele>504.1</ele>
        <time>2017-06-11T07:20:49.000Z</time>
      </trkpt>
      <trkpt lat="47.39053" lon="6.59755">
        <ele>504.1</ele>
        <time>2017-06-11T07:20:50.000Z</time>
      </trkpt>
      <trkpt lat="47.39052" lon="6.5976">
        <ele>504.1</ele>
        <time>2017-06-11T07:20:51.000Z</time>
      </trkpt>
      <trkpt lat="47.39052" lon="6.59765">
        <ele>504</ele>
        <time>2017-06-11T07:20:52.000Z</time>
      </trkpt>
      <trkpt lat="47.39051" lon="6.5977">
        <ele>504</ele>
        <time>2017-06-11T07:20:53.000Z</time>
      </trkpt>
      <trkpt lat="47.3905" lon="6.59775">
        <ele>504</ele>
        <time>2017-06-11T07:20:54.000Z</time>
      </trkpt>
      <trkpt lat="47.3905" lon="6.5978">
        <ele>504.1</ele>
        <time>2017-06-11T07:20:55.000Z</time>
      </trkpt>
      <trkpt lat="47.3905" lon="6.59786">
        <ele>504.1</ele>
        <time>2017-06-11T07:20:56.000Z</time>
      </trkpt>
      <trkpt lat="47.39049" lon="6.59792">
        <ele>504.4</ele>
        <time>2017-06-11T07:20:58.000Z</time>
      </trkpt>
      <trkpt lat="47.39049" lon="6.59794">
        <ele>504.6</ele>
        <time>2017-06-11T07:20:59.000Z</time>
      </trkpt>
      <trkpt lat="47.39051" lon="6.59798">
        <ele>504.5</ele>
        <time>2017-06-11T07:21:01.000Z</time>
      </trkpt>
      <trkpt lat="47.39053" lon="6.59801">
        <ele>504.4</ele>
        <time>2017-06-11T07:21:02.000Z</time>
      </trkpt>
      <trkpt lat="47.39054" lon="6.59805">
        <ele>504.3</ele>
        <time>2017-06-11T07:21:03.000Z</time>
      </trkpt>
      <trkpt lat="47.39054" lon="6.59809">
        <ele>504.3</ele>
        <time>2017-06-11T07:21:04.000Z</time>
      </trkpt>
      <trkpt lat="47.39055" lon="6.59813">
        <ele>504.2</ele>
        <time>2017-06-11T07:21:05.000Z</time>
      </trkpt>
      <trkpt lat="47.39055" lon="6.59818">
        <ele>504.1</ele>
        <time>2017-06-11T07:21:06.000Z</time>
      </trkpt>
      <trkpt lat="47.39055" lon="6.59822">
        <ele>504.1</ele>
        <time>2017-06-11T07:21:07.000Z</time>
      </trkpt>
      <trkpt lat="47.39055" lon="6.59826">
        <ele>504.1</ele>
        <time>2017-06-11T07:21:08.000Z</time>
      </trkpt>
      <trkpt lat="47.39056" lon="6.5983">
        <ele>504.1</ele>
        <time>2017-06-11T07:21:09.000Z</time>
      </trkpt>
      <trkpt lat="47.39057" lon="6.59833">
        <ele>504.1</ele>
        <time>2017-06-11T07:21:10.000Z</time>
      </trkpt>
      <trkpt lat="47.39058" lon="6.59835">
        <ele>504.1</ele>
        <time>2017-06-11T07:21:11.000Z</time>
      </trkpt>
      <trkpt lat="47.3906" lon="6.59837">
        <ele>504.2</ele>
        <time>2017-06-11T07:21:12.000Z</time>
      </trkpt>
      <trkpt lat="47.39063" lon="6.59838">
        <ele>504.1</ele>
        <time>2017-06-11T07:21:17.000Z</time>
      </trkpt>
      <trkpt lat="47.39077" lon="6.59844">
        <ele>504.2</ele>
        <time>2017-06-11T07:21:18.000Z</time>
      </trkpt>
      <trkpt lat="47.39079" lon="6.59844">
        <ele>504.2</ele>
        <time>2017-06-11T07:21:19.000Z</time>
      </trkpt>
      <trkpt lat="47.39084" lon="6.59845">
        <ele>504.1</ele>
        <time>2017-06-11T07:21:20.000Z</time>
      </trkpt>
      <trkpt lat="47.39089" lon="6.59847">
        <ele>504.1</ele>
        <time>2017-06-11T07:21:21.000Z</time>
      </trkpt>
      <trkpt lat="47.39092" lon="6.59849">
        <ele>504.1</ele>
        <time>2017-06-11T07:21:22.000Z</time>
      </trkpt>
      <trkpt lat="47.39095" lon="6.5985">
        <ele>504.1</ele>
        <time>2017-06-11T07:21:23.000Z</time>
      </trkpt>
      <trkpt lat="47.39098" lon="6.59851">
        <ele>504.2</ele>
        <time>2017-06-11T07:21:24.000Z</time>
      </trkpt>
      <trkpt lat="47.39101" lon="6.59852">
        <ele>504.3</ele>
        <time>2017-06-11T07:21:25.000Z</time>
      </trkpt>
      <trkpt lat="47.39105" lon="6.59854">
        <ele>504.5</ele>
        <time>2017-06-11T07:21:26.000Z</time>
      </trkpt>
      <trkpt lat="47.39109" lon="6.59857">
        <ele>504.7</ele>
        <time>2017-06-11T07:21:27.000Z</time>
      </trkpt>
      <trkpt lat="47.39116" lon="6.59859">
        <ele>506.3</ele>
        <time>2017-06-11T07:21:28.000Z</time>
      </trkpt>
      <trkpt lat="47.3912" lon="6.59861">
        <ele>507.2</ele>
        <time>2017-06-11T07:21:29.000Z</time>
      </trkpt>
      <trkpt lat="47.39127" lon="6.59864">
        <ele>507.5</ele>
        <time>2017-06-11T07:21:30.000Z</time>
      </trkpt>
      <trkpt lat="47.39134" lon="6.59863">
        <ele>507.5</ele>
        <time>2017-06-11T07:21:31.000Z</time>
      </trkpt>
      <trkpt lat="47.39138" lon="6.59863">
        <ele>508.5</ele>
        <time>2017-06-11T07:21:32.000Z</time>
      </trkpt>
      <trkpt lat="47.39145" lon="6.59863">
        <ele>508.6</ele>
        <time>2017-06-11T07:21:33.000Z</time>
      </trkpt>
      <trkpt lat="47.39148" lon="6.59862">
        <ele>508.6</ele>
        <time>2017-06-11T07:21:34.000Z</time>
      </trkpt>
      <trkpt lat="47.39152" lon="6.59862">
        <ele>508.6</ele>
        <time>2017-06-11T07:21:35.000Z</time>
      </trkpt>
      <trkpt lat="47.39155" lon="6.59861">
        <ele>508.6</ele>
        <time>2017-06-11T07:21:36.000Z</time>
      </trkpt>
      <trkpt lat="47.39158" lon="6.59861">
        <ele>508.7</ele>
        <time>2017-06-11T07:21:37.000Z</time>
      </trkpt>
      <trkpt lat="47.3916" lon="6.59863">
        <ele>508.6</ele>
        <time>2017-06-11T07:21:38.000Z</time>
      </trkpt>
      <trkpt lat="47.39163" lon="6.59869">
        <ele>508.7</ele>
        <time>2017-06-11T07:21:40.000Z</time>
      </trkpt>
      <trkpt lat="47.39165" lon="6.59875">
        <ele>508.7</ele>
        <time>2017-06-11T07:21:41.000Z</time>
      </trkpt>
      <trkpt lat="47.39168" lon="6.59876">
        <ele>508.5</ele>
        <time>2017-06-11T07:21:42.000Z</time>
      </trkpt>
      <trkpt lat="47.39173" lon="6.5988">
        <ele>508.4</ele>
        <time>2017-06-11T07:21:43.000Z</time>
      </trkpt>
      <trkpt lat="47.3918" lon="6.59884">
        <ele>508.3</ele>
        <time>2017-06-11T07:21:44.000Z</time>
      </trkpt>
      <trkpt lat="47.39183" lon="6.59886">
        <ele>508.3</ele>
        <time>2017-06-11T07:21:45.000Z</time>
      </trkpt>
      <trkpt lat="47.39188" lon="6.59888">
        <ele>508.2</ele>
        <time>2017-06-11T07:21:46.000Z</time>
      </trkpt>
      <trkpt lat="47.39191" lon="6.59887">
        <ele>508.2</ele>
        <time>2017-06-11T07:21:47.000Z</time>
      </trkpt>
      <trkpt lat="47.39195" lon="6.59888">
        <ele>508.2</ele>
        <time>2017-06-11T07:21:48.000Z</time>
      </trkpt>
      <trkpt lat="47.39199" lon="6.59888">
        <ele>508.2</ele>
        <time>2017-06-11T07:21:49.000Z</time>
      </trkpt>
      <trkpt lat="47.39204" lon="6.59889">
        <ele>508.2</ele>
        <time>2017-06-11T07:21:50.000Z</time>
      </trkpt>
      <trkpt lat="47.39209" lon="6.59888">
        <ele>508.3</ele>
        <time>2017-06-11T07:21:51.000Z</time>
      </trkpt>
      <trkpt lat="47.39211" lon="6.59888">
        <ele>508.3</ele>
        <time>2017-06-11T07:21:52.000Z</time>
      </trkpt>
      <trkpt lat="47.39214" lon="6.59886">
        <ele>508.3</ele>
        <time>2017-06-11T07:21:53.000Z</time>
      </trkpt>
      <trkpt lat="47.39218" lon="6.59884">
        <ele>508.3</ele>
        <time>2017-06-11T07:21:54.000Z</time>
      </trkpt>
      <trkpt lat="47.39223" lon="6.59883">
        <ele>508.3</ele>
        <time>2017-06-11T07:21:55.000Z</time>
      </trkpt>
      <trkpt lat="47.39226" lon="6.59884">
        <ele>508.2</ele>
        <time>2017-06-11T07:21:56.000Z</time>
      </trkpt>
      <trkpt lat="47.39229" lon="6.59885">
        <ele>508.1</ele>
        <time>2017-06-11T07:21:57.000Z</time>
      </trkpt>
      <trkpt lat="47.39232" lon="6.59887">
        <ele>507.9</ele>
        <time>2017-06-11T07:21:58.000Z</time>
      </trkpt>
      <trkpt lat="47.39236" lon="6.59889">
        <ele>507.7</ele>
        <time>2017-06-11T07:21:59.000Z</time>
      </trkpt>
      <trkpt lat="47.39238" lon="6.59893">
        <ele>507.5</ele>
        <time>2017-06-11T07:22:00.000Z</time>
      </trkpt>
      <trkpt lat="47.3924" lon="6.59898">
        <ele>507.2</ele>
        <time>2017-06-11T07:22:01.000Z</time>
      </trkpt>
      <trkpt lat="47.39243" lon="6.599">
        <ele>507</ele>
        <time>2017-06-11T07:22:02.000Z</time>
      </trkpt>
      <trkpt lat="47.39246" lon="6.59902">
        <ele>506.7</ele>
        <time>2017-06-11T07:22:03.000Z</time>
      </trkpt>
      <trkpt lat="47.3925" lon="6.59902">
        <ele>506.4</ele>
        <time>2017-06-11T07:22:04.000Z</time>
      </trkpt>
      <trkpt lat="47.39253" lon="6.59901">
        <ele>506.2</ele>
        <time>2017-06-11T07:22:05.000Z</time>
      </trkpt>
      <trkpt lat="47.39257" lon="6.599">
        <ele>505.8</ele>
        <time>2017-06-11T07:22:07.000Z</time>
      </trkpt>
      <trkpt lat="47.3926" lon="6.599">
        <ele>505.6</ele>
        <time>2017-06-11T07:22:08.000Z</time>
      </trkpt>
      <trkpt lat="47.39262" lon="6.59901">
        <ele>505.3</ele>
        <time>2017-06-11T07:22:09.000Z</time>
      </trkpt>
      <trkpt lat="47.39265" lon="6.59902">
        <ele>505</ele>
        <time>2017-06-11T07:22:10.000Z</time>
      </trkpt>
      <trkpt lat="47.39267" lon="6.59902">
        <ele>504.7</ele>
        <time>2017-06-11T07:22:11.000Z</time>
      </trkpt>
      <trkpt lat="47.39269" lon="6.59903">
        <ele>504.5</ele>
        <time>2017-06-11T07:22:12.000Z</time>
      </trkpt>
      <trkpt lat="47.39272" lon="6.59904">
        <ele>504.3</ele>
        <time>2017-06-11T07:22:13.000Z</time>
      </trkpt>
      <trkpt lat="47.39275" lon="6.59905">
        <ele>504.1</ele>
        <time>2017-06-11T07:22:14.000Z</time>
      </trkpt>
      <trkpt lat="47.39278" lon="6.59907">
        <ele>503.6</ele>
        <time>2017-06-11T07:22:16.000Z</time>
      </trkpt>
      <trkpt lat="47.39279" lon="6.59908">
        <ele>503.3</ele>
        <time>2017-06-11T07:22:17.000Z</time>
      </trkpt>
      <trkpt lat="47.39282" lon="6.5991">
        <ele>503</ele>
        <time>2017-06-11T07:22:18.000Z</time>
      </trkpt>
      <trkpt lat="47.39285" lon="6.59912">
        <ele>502.6</ele>
        <time>2017-06-11T07:22:19.000Z</time>
      </trkpt>
      <trkpt lat="47.39287" lon="6.59915">
        <ele>502.3</ele>
        <time>2017-06-11T07:22:20.000Z</time>
      </trkpt>
      <trkpt lat="47.39292" lon="6.59918">
        <ele>501.9</ele>
        <time>2017-06-11T07:22:21.000Z</time>
      </trkpt>
      <trkpt lat="47.39295" lon="6.59922">
        <ele>501.2</ele>
        <time>2017-06-11T07:22:23.000Z</time>
      </trkpt>
      <trkpt lat="47.39297" lon="6.59923">
        <ele>500.9</ele>
        <time>2017-06-11T07:22:24.000Z</time>
      </trkpt>
      <trkpt lat="47.39299" lon="6.59927">
        <ele>500.4</ele>
        <time>2017-06-11T07:22:26.000Z</time>
      </trkpt>
      <trkpt lat="47.39299" lon="6.59931">
        <ele>500.1</ele>
        <time>2017-06-11T07:22:27.000Z</time>
      </trkpt>
      <trkpt lat="47.39299" lon="6.59934">
        <ele>499.6</ele>
        <time>2017-06-11T07:22:28.000Z</time>
      </trkpt>
      <trkpt lat="47.39301" lon="6.59937">
        <ele>499.1</ele>
        <time>2017-06-11T07:22:29.000Z</time>
      </trkpt>
      <trkpt lat="47.39302" lon="6.59943">
        <ele>498.6</ele>
        <time>2017-06-11T07:22:30.000Z</time>
      </trkpt>
      <trkpt lat="47.39304" lon="6.59945">
        <ele>498.1</ele>
        <time>2017-06-11T07:22:31.000Z</time>
      </trkpt>
      <trkpt lat="47.39309" lon="6.59947">
        <ele>497.6</ele>
        <time>2017-06-11T07:22:32.000Z</time>
      </trkpt>
      <trkpt lat="47.39312" lon="6.59949">
        <ele>497.1</ele>
        <time>2017-06-11T07:22:33.000Z</time>
      </trkpt>
      <trkpt lat="47.39314" lon="6.5995">
        <ele>496.8</ele>
        <time>2017-06-11T07:22:34.000Z</time>
      </trkpt>
      <trkpt lat="47.39317" lon="6.59952">
        <ele>496.1</ele>
        <time>2017-06-11T07:22:36.000Z</time>
      </trkpt>
      <trkpt lat="47.39321" lon="6.59953">
        <ele>495.8</ele>
        <time>2017-06-11T07:22:37.000Z</time>
      </trkpt>
      <trkpt lat="47.39325" lon="6.59954">
        <ele>495.5</ele>
        <time>2017-06-11T07:22:38.000Z</time>
      </trkpt>
      <trkpt lat="47.39329" lon="6.59954">
        <ele>495</ele>
        <time>2017-06-11T07:22:40.000Z</time>
      </trkpt>
      <trkpt lat="47.39334" lon="6.59952">
        <ele>494.8</ele>
        <time>2017-06-11T07:22:41.000Z</time>
      </trkpt>
      <trkpt lat="47.39335" lon="6.59951">
        <ele>494.6</ele>
        <time>2017-06-11T07:22:42.000Z</time>
      </trkpt>
      <trkpt lat="47.39337" lon="6.59949">
        <ele>494.5</ele>
        <time>2017-06-11T07:22:43.000Z</time>
      </trkpt>
      <trkpt lat="47.3934" lon="6.59949">
        <ele>494.5</ele>
        <time>2017-06-11T07:22:44.000Z</time>
      </trkpt>
      <trkpt lat="47.39343" lon="6.59951">
        <ele>494.5</ele>
        <time>2017-06-11T07:22:45.000Z</time>
      </trkpt>
      <trkpt lat="47.39347" lon="6.59956">
        <ele>494.4</ele>
        <time>2017-06-11T07:22:46.000Z</time>
      </trkpt>
      <trkpt lat="47.39349" lon="6.59959">
        <ele>494.4</ele>
        <time>2017-06-11T07:22:47.000Z</time>
      </trkpt>
      <trkpt lat="47.39352" lon="6.5996">
        <ele>494.3</ele>
        <time>2017-06-11T07:22:48.000Z</time>
      </trkpt>
      <trkpt lat="47.39355" lon="6.59965">
        <ele>492.8</ele>
        <time>2017-06-11T07:22:49.000Z</time>
      </trkpt>
      <trkpt lat="47.39357" lon="6.5997">
        <ele>492.7</ele>
        <time>2017-06-11T07:22:50.000Z</time>
      </trkpt>
      <trkpt lat="47.39359" lon="6.59979">
        <ele>492.6</ele>
        <time>2017-06-11T07:22:51.000Z</time>
      </trkpt>
      <trkpt lat="47.39362" lon="6.59985">
        <ele>492.4</ele>
        <time>2017-06-11T07:22:52.000Z</time>
      </trkpt>
      <trkpt lat="47.39364" lon="6.59986">
        <ele>492.2</ele>
        <time>2017-06-11T07:22:53.000Z</time>
      </trkpt>
      <trkpt lat="47.39366" lon="6.59987">
        <ele>492.1</ele>
        <time>2017-06-11T07:22:54.000Z</time>
      </trkpt>
      <trkpt lat="47.39373" lon="6.59989">
        <ele>492.1</ele>
        <time>2017-06-11T07:22:55.000Z</time>
      </trkpt>
      <trkpt lat="47.3938" lon="6.59988">
        <ele>493.2</ele>
        <time>2017-06-11T07:22:56.000Z</time>
      </trkpt>
      <trkpt lat="47.39386" lon="6.59988">
        <ele>493.3</ele>
        <time>2017-06-11T07:22:57.000Z</time>
      </trkpt>
      <trkpt lat="47.39389" lon="6.59987">
        <ele>493.3</ele>
        <time>2017-06-11T07:22:58.000Z</time>
      </trkpt>
      <trkpt lat="47.39393" lon="6.59983">
        <ele>493.4</ele>
        <time>2017-06-11T07:22:59.000Z</time>
      </trkpt>
      <trkpt lat="47.39394" lon="6.59979">
        <ele>493.4</ele>
        <time>2017-06-11T07:23:00.000Z</time>
      </trkpt>
      <trkpt lat="47.39396" lon="6.59975">
        <ele>493.4</ele>
        <time>2017-06-11T07:23:01.000Z</time>
      </trkpt>
      <trkpt lat="47.39398" lon="6.59971">
        <ele>493.4</ele>
        <time>2017-06-11T07:23:02.000Z</time>
      </trkpt>
      <trkpt lat="47.39399" lon="6.59964">
        <ele>493.4</ele>
        <time>2017-06-11T07:23:03.000Z</time>
      </trkpt>
      <trkpt lat="47.39403" lon="6.59961">
        <ele>493.8</ele>
        <time>2017-06-11T07:23:04.000Z</time>
      </trkpt>
      <trkpt lat="47.39406" lon="6.5996">
        <ele>493.4</ele>
        <time>2017-06-11T07:23:05.000Z</time>
      </trkpt>
      <trkpt lat="47.39409" lon="6.59962">
        <ele>493.3</ele>
        <time>2017-06-11T07:23:06.000Z</time>
      </trkpt>
      <trkpt lat="47.39412" lon="6.59966">
        <ele>493.2</ele>
        <time>2017-06-11T07:23:07.000Z</time>
      </trkpt>
      <trkpt lat="47.39413" lon="6.59969">
        <ele>493</ele>
        <time>2017-06-11T07:23:08.000Z</time>
      </trkpt>
      <trkpt lat="47.39415" lon="6.59976">
        <ele>492.9</ele>
        <time>2017-06-11T07:23:09.000Z</time>
      </trkpt>
      <trkpt lat="47.39415" lon="6.59984">
        <ele>492.8</ele>
        <time>2017-06-11T07:23:10.000Z</time>
      </trkpt>
      <trkpt lat="47.39415" lon="6.59992">
        <ele>492.6</ele>
        <time>2017-06-11T07:23:11.000Z</time>
      </trkpt>
      <trkpt lat="47.39415" lon="6.59997">
        <ele>492.4</ele>
        <time>2017-06-11T07:23:12.000Z</time>
      </trkpt>
      <trkpt lat="47.39415" lon="6.60003">
        <ele>492.1</ele>
        <time>2017-06-11T07:23:13.000Z</time>
      </trkpt>
      <trkpt lat="47.39416" lon="6.60007">
        <ele>491.4</ele>
        <time>2017-06-11T07:23:15.000Z</time>
      </trkpt>
      <trkpt lat="47.39418" lon="6.60009">
        <ele>491.1</ele>
        <time>2017-06-11T07:23:16.000Z</time>
      </trkpt>
      <trkpt lat="47.39421" lon="6.60012">
        <ele>490.9</ele>
        <time>2017-06-11T07:23:17.000Z</time>
      </trkpt>
      <trkpt lat="47.39425" lon="6.60014">
        <ele>490.6</ele>
        <time>2017-06-11T07:23:18.000Z</time>
      </trkpt>
      <trkpt lat="47.39429" lon="6.60014">
        <ele>490.3</ele>
        <time>2017-06-11T07:23:19.000Z</time>
      </trkpt>
      <trkpt lat="47.39433" lon="6.60015">
        <ele>490</ele>
        <time>2017-06-11T07:23:20.000Z</time>
      </trkpt>
      <trkpt lat="47.39438" lon="6.60017">
        <ele>489.6</ele>
        <time>2017-06-11T07:23:21.000Z</time>
      </trkpt>
      <trkpt lat="47.39441" lon="6.6002">
        <ele>489.2</ele>
        <time>2017-06-11T07:23:22.000Z</time>
      </trkpt>
      <trkpt lat="47.39444" lon="6.60024">
        <ele>489</ele>
        <time>2017-06-11T07:23:23.000Z</time>
      </trkpt>
      <trkpt lat="47.3945" lon="6.60029">
        <ele>486.6</ele>
        <time>2017-06-11T07:23:24.000Z</time>
      </trkpt>
      <trkpt lat="47.39455" lon="6.60032">
        <ele>485.8</ele>
        <time>2017-06-11T07:23:25.000Z</time>
      </trkpt>
      <trkpt lat="47.39457" lon="6.60036">
        <ele>485.7</ele>
        <time>2017-06-11T07:23:26.000Z</time>
      </trkpt>
      <trkpt lat="47.39458" lon="6.60045">
        <ele>485.6</ele>
        <time>2017-06-11T07:23:27.000Z</time>
      </trkpt>
      <trkpt lat="47.39459" lon="6.60052">
        <ele>485.3</ele>
        <time>2017-06-11T07:23:28.000Z</time>
      </trkpt>
      <trkpt lat="47.39462" lon="6.6006">
        <ele>485.1</ele>
        <time>2017-06-11T07:23:29.000Z</time>
      </trkpt>
      <trkpt lat="47.39463" lon="6.60064">
        <ele>485</ele>
        <time>2017-06-11T07:23:30.000Z</time>
      </trkpt>
      <trkpt lat="47.39465" lon="6.60066">
        <ele>484.9</ele>
        <time>2017-06-11T07:23:31.000Z</time>
      </trkpt>
      <trkpt lat="47.39467" lon="6.60069">
        <ele>484.9</ele>
        <time>2017-06-11T07:23:32.000Z</time>
      </trkpt>
      <trkpt lat="47.39469" lon="6.60069">
        <ele>484.9</ele>
        <time>2017-06-11T07:23:33.000Z</time>
      </trkpt>
      <trkpt lat="47.39473" lon="6.60067">
        <ele>484.9</ele>
        <time>2017-06-11T07:23:34.000Z</time>
      </trkpt>
      <trkpt lat="47.39479" lon="6.60069">
        <ele>484.8</ele>
        <time>2017-06-11T07:23:35.000Z</time>
      </trkpt>
      <trkpt lat="47.39486" lon="6.6007">
        <ele>484.7</ele>
        <time>2017-06-11T07:23:36.000Z</time>
      </trkpt>
      <trkpt lat="47.39488" lon="6.60071">
        <ele>484.5</ele>
        <time>2017-06-11T07:23:37.000Z</time>
      </trkpt>
      <trkpt lat="47.3949" lon="6.6007">
        <ele>484.3</ele>
        <time>2017-06-11T07:23:38.000Z</time>
      </trkpt>
      <trkpt lat="47.39495" lon="6.60069">
        <ele>484.2</ele>
        <time>2017-06-11T07:23:40.000Z</time>
      </trkpt>
      <trkpt lat="47.39498" lon="6.60065">
        <ele>484</ele>
        <time>2017-06-11T07:23:41.000Z</time>
      </trkpt>
      <trkpt lat="47.39501" lon="6.60065">
        <ele>483.9</ele>
        <time>2017-06-11T07:23:42.000Z</time>
      </trkpt>
      <trkpt lat="47.39505" lon="6.60067">
        <ele>483.4</ele>
        <time>2017-06-11T07:23:43.000Z</time>
      </trkpt>
      <trkpt lat="47.39507" lon="6.60073">
        <ele>483.7</ele>
        <time>2017-06-11T07:23:44.000Z</time>
      </trkpt>
      <trkpt lat="47.39505" lon="6.60078">
        <ele>483.4</ele>
        <time>2017-06-11T07:23:45.000Z</time>
      </trkpt>
      <trkpt lat="47.39503" lon="6.60085">
        <ele>483.2</ele>
        <time>2017-06-11T07:23:46.000Z</time>
      </trkpt>
      <trkpt lat="47.39504" lon="6.60088">
        <ele>483.1</ele>
        <time>2017-06-11T07:23:49.000Z</time>
      </trkpt>
      <trkpt lat="47.39508" lon="6.60089">
        <ele>482</ele>
        <time>2017-06-11T07:23:50.000Z</time>
      </trkpt>
      <trkpt lat="47.39517" lon="6.60092">
        <ele>481.2</ele>
        <time>2017-06-11T07:23:51.000Z</time>
      </trkpt>
      <trkpt lat="47.39525" lon="6.60099">
        <ele>480.4</ele>
        <time>2017-06-11T07:23:52.000Z</time>
      </trkpt>
      <trkpt lat="47.39532" lon="6.60106">
        <ele>480.3</ele>
        <time>2017-06-11T07:23:53.000Z</time>
      </trkpt>
      <trkpt lat="47.39538" lon="6.60108">
        <ele>480.1</ele>
        <time>2017-06-11T07:23:54.000Z</time>
      </trkpt>
      <trkpt lat="47.39545" lon="6.60108">
        <ele>480.4</ele>
        <time>2017-06-11T07:23:55.000Z</time>
      </trkpt>
      <trkpt lat="47.39549" lon="6.60108">
        <ele>479.5</ele>
        <time>2017-06-11T07:23:56.000Z</time>
      </trkpt>
      <trkpt lat="47.39552" lon="6.6011">
        <ele>479.4</ele>
        <time>2017-06-11T07:23:57.000Z</time>
      </trkpt>
      <trkpt lat="47.39553" lon="6.60112">
        <ele>479.3</ele>
        <time>2017-06-11T07:24:00.000Z</time>
      </trkpt>
      <trkpt lat="47.39555" lon="6.60118">
        <ele>479.3</ele>
        <time>2017-06-11T07:24:01.000Z</time>
      </trkpt>
      <trkpt lat="47.39556" lon="6.60125">
        <ele>479.2</ele>
        <time>2017-06-11T07:24:02.000Z</time>
      </trkpt>
      <trkpt lat="47.39556" lon="6.60131">
        <ele>479.1</ele>
        <time>2017-06-11T07:24:03.000Z</time>
      </trkpt>
      <trkpt lat="47.39554" lon="6.60133">
        <ele>479</ele>
        <time>2017-06-11T07:24:04.000Z</time>
      </trkpt>
      <trkpt lat="47.39554" lon="6.60137">
        <ele>478.9</ele>
        <time>2017-06-11T07:24:05.000Z</time>
      </trkpt>
      <trkpt lat="47.39554" lon="6.6014">
        <ele>478.8</ele>
        <time>2017-06-11T07:24:06.000Z</time>
      </trkpt>
      <trkpt lat="47.39556" lon="6.60145">
        <ele>478.6</ele>
        <time>2017-06-11T07:24:08.000Z</time>
      </trkpt>
      <trkpt lat="47.39556" lon="6.60148">
        <ele>478.5</ele>
        <time>2017-06-11T07:24:09.000Z</time>
      </trkpt>
      <trkpt lat="47.39558" lon="6.60152">
        <ele>478.3</ele>
        <time>2017-06-11T07:24:11.000Z</time>
      </trkpt>
      <trkpt lat="47.3956" lon="6.60152">
        <ele>478.1</ele>
        <time>2017-06-11T07:24:12.000Z</time>
      </trkpt>
      <trkpt lat="47.39564" lon="6.60155">
        <ele>478.1</ele>
        <time>2017-06-11T07:24:13.000Z</time>
      </trkpt>
      <trkpt lat="47.39569" lon="6.60158">
        <ele>478.3</ele>
        <time>2017-06-11T07:24:14.000Z</time>
      </trkpt>
      <trkpt lat="47.39577" lon="6.60161">
        <ele>477.8</ele>
        <time>2017-06-11T07:24:15.000Z</time>
      </trkpt>
      <trkpt lat="47.39582" lon="6.60161">
        <ele>476.8</ele>
        <time>2017-06-11T07:24:16.000Z</time>
      </trkpt>
      <trkpt lat="47.39586" lon="6.60163">
        <ele>475.7</ele>
        <time>2017-06-11T07:24:17.000Z</time>
      </trkpt>
      <trkpt lat="47.3959" lon="6.60164">
        <ele>474.3</ele>
        <time>2017-06-11T07:24:18.000Z</time>
      </trkpt>
      <trkpt lat="47.39594" lon="6.60167">
        <ele>473.1</ele>
        <time>2017-06-11T07:24:19.000Z</time>
      </trkpt>
      <trkpt lat="47.39597" lon="6.6017">
        <ele>472.9</ele>
        <time>2017-06-11T07:24:20.000Z</time>
      </trkpt>
      <trkpt lat="47.396" lon="6.60173">
        <ele>472.7</ele>
        <time>2017-06-11T07:24:21.000Z</time>
      </trkpt>
      <trkpt lat="47.39598" lon="6.6018">
        <ele>472.6</ele>
        <time>2017-06-11T07:24:22.000Z</time>
      </trkpt>
      <trkpt lat="47.39593" lon="6.60186">
        <ele>472.4</ele>
        <time>2017-06-11T07:24:23.000Z</time>
      </trkpt>
      <trkpt lat="47.39592" lon="6.60188">
        <ele>472.3</ele>
        <time>2017-06-11T07:24:24.000Z</time>
      </trkpt>
      <trkpt lat="47.39591" lon="6.60192">
        <ele>472.2</ele>
        <time>2017-06-11T07:24:25.000Z</time>
      </trkpt>
      <trkpt lat="47.39589" lon="6.60196">
        <ele>472</ele>
        <time>2017-06-11T07:24:26.000Z</time>
      </trkpt>
      <trkpt lat="47.39586" lon="6.60201">
        <ele>469.7</ele>
        <time>2017-06-11T07:24:27.000Z</time>
      </trkpt>
      <trkpt lat="47.39583" lon="6.60207">
        <ele>469.5</ele>
        <time>2017-06-11T07:24:28.000Z</time>
      </trkpt>
      <trkpt lat="47.39582" lon="6.60213">
        <ele>469.4</ele>
        <time>2017-06-11T07:24:29.000Z</time>
      </trkpt>
      <trkpt lat="47.39582" lon="6.60214">
        <ele>469.2</ele>
        <time>2017-06-11T07:24:30.000Z</time>
      </trkpt>
      <trkpt lat="47.39583" lon="6.60219">
        <ele>469.2</ele>
        <time>2017-06-11T07:24:59.000Z</time>
      </trkpt>
      <trkpt lat="47.39584" lon="6.60221">
        <ele>469.8</ele>
        <time>2017-06-11T07:25:00.000Z</time>
      </trkpt>
      <trkpt lat="47.39584" lon="6.60225">
        <ele>471</ele>
        <time>2017-06-11T07:25:03.000Z</time>
      </trkpt>
      <trkpt lat="47.39584" lon="6.60227">
        <ele>471.3</ele>
        <time>2017-06-11T07:25:04.000Z</time>
      </trkpt>
      <trkpt lat="47.39587" lon="6.60231">
        <ele>474.1</ele>
        <time>2017-06-11T07:26:03.000Z</time>
      </trkpt>
      <trkpt lat="47.39588" lon="6.60231">
        <ele>474.1</ele>
        <time>2017-06-11T07:26:04.000Z</time>
      </trkpt>
      <trkpt lat="47.39592" lon="6.6023">
        <ele>473.1</ele>
        <time>2017-06-11T07:26:22.000Z</time>
      </trkpt>
      <trkpt lat="47.39592" lon="6.6023">
        <ele>473</ele>
        <time>2017-06-11T07:26:23.000Z</time>
      </trkpt>
      <trkpt lat="47.39596" lon="6.6023">
        <ele>472.9</ele>
        <time>2017-06-11T07:26:25.000Z</time>
      </trkpt>
      <trkpt lat="47.39597" lon="6.60229">
        <ele>472.9</ele>
        <time>2017-06-11T07:26:26.000Z</time>
      </trkpt>
      <trkpt lat="47.39599" lon="6.60227">
        <ele>472.8</ele>
        <time>2017-06-11T07:26:27.000Z</time>
      </trkpt>
      <trkpt lat="47.39601" lon="6.60225">
        <ele>472.6</ele>
        <time>2017-06-11T07:26:28.000Z</time>
      </trkpt>
      <trkpt lat="47.39605" lon="6.60223">
        <ele>469.7</ele>
        <time>2017-06-11T07:26:29.000Z</time>
      </trkpt>
      <trkpt lat="47.39611" lon="6.60222">
        <ele>468</ele>
        <time>2017-06-11T07:26:30.000Z</time>
      </trkpt>
      <trkpt lat="47.39615" lon="6.60222">
        <ele>467.9</ele>
        <time>2017-06-11T07:26:31.000Z</time>
      </trkpt>
      <trkpt lat="47.39621" lon="6.60221">
        <ele>467.4</ele>
        <time>2017-06-11T07:26:32.000Z</time>
      </trkpt>
      <trkpt lat="47.39628" lon="6.60221">
        <ele>466.9</ele>
        <time>2017-06-11T07:26:33.000Z</time>
      </trkpt>
      <trkpt lat="47.39634" lon="6.60221">
        <ele>465.8</ele>
        <time>2017-06-11T07:26:34.000Z</time>
      </trkpt>
      <trkpt lat="47.39639" lon="6.6022">
        <ele>464.7</ele>
        <time>2017-06-11T07:26:35.000Z</time>
      </trkpt>
      <trkpt lat="47.39644" lon="6.60219">
        <ele>464.1</ele>
        <time>2017-06-11T07:26:36.000Z</time>
      </trkpt>
      <trkpt lat="47.39648" lon="6.60217">
        <ele>463.3</ele>
        <time>2017-06-11T07:26:37.000Z</time>
      </trkpt>
      <trkpt lat="47.39652" lon="6.60215">
        <ele>463.4</ele>
        <time>2017-06-11T07:26:38.000Z</time>
      </trkpt>
      <trkpt lat="47.39657" lon="6.60213">
        <ele>463</ele>
        <time>2017-06-11T07:26:39.000Z</time>
      </trkpt>
      <trkpt lat="47.39663" lon="6.60211">
        <ele>462.1</ele>
        <time>2017-06-11T07:26:40.000Z</time>
      </trkpt>
      <trkpt lat="47.3967" lon="6.6021">
        <ele>461.3</ele>
        <time>2017-06-11T07:26:41.000Z</time>
      </trkpt>
      <trkpt lat="47.39676" lon="6.6021">
        <ele>461.1</ele>
        <time>2017-06-11T07:26:42.000Z</time>
      </trkpt>
      <trkpt lat="47.39683" lon="6.60209">
        <ele>461.9</ele>
        <time>2017-06-11T07:26:43.000Z</time>
      </trkpt>
      <trkpt lat="47.39687" lon="6.60208">
        <ele>461.4</ele>
        <time>2017-06-11T07:26:44.000Z</time>
      </trkpt>
      <trkpt lat="47.39692" lon="6.60207">
        <ele>460.6</ele>
        <time>2017-06-11T07:26:45.000Z</time>
      </trkpt>
      <trkpt lat="47.39695" lon="6.60206">
        <ele>460.5</ele>
        <time>2017-06-11T07:26:46.000Z</time>
      </trkpt>
      <trkpt lat="47.39701" lon="6.60203">
        <ele>460.2</ele>
        <time>2017-06-11T07:26:47.000Z</time>
      </trkpt>
      <trkpt lat="47.39706" lon="6.602">
        <ele>460</ele>
        <time>2017-06-11T07:26:48.000Z</time>
      </trkpt>
      <trkpt lat="47.39711" lon="6.60198">
        <ele>459.9</ele>
        <time>2017-06-11T07:26:49.000Z</time>
      </trkpt>
      <trkpt lat="47.39715" lon="6.60196">
        <ele>459.8</ele>
        <time>2017-06-11T07:26:50.000Z</time>
      </trkpt>
      <trkpt lat="47.39719" lon="6.60193">
        <ele>459.7</ele>
        <time>2017-06-11T07:26:51.000Z</time>
      </trkpt>
      <trkpt lat="47.39722" lon="6.6019">
        <ele>459.7</ele>
        <time>2017-06-11T07:26:52.000Z</time>
      </trkpt>
      <trkpt lat="47.39726" lon="6.60186">
        <ele>459.7</ele>
        <time>2017-06-11T07:26:53.000Z</time>
      </trkpt>
      <trkpt lat="47.3973" lon="6.60183">
        <ele>458.7</ele>
        <time>2017-06-11T07:26:54.000Z</time>
      </trkpt>
      <trkpt lat="47.39735" lon="6.60181">
        <ele>456.9</ele>
        <time>2017-06-11T07:26:55.000Z</time>
      </trkpt>
      <trkpt lat="47.3974" lon="6.60178">
        <ele>455.1</ele>
        <time>2017-06-11T07:26:56.000Z</time>
      </trkpt>
      <trkpt lat="47.39745" lon="6.60175">
        <ele>453.5</ele>
        <time>2017-06-11T07:26:57.000Z</time>
      </trkpt>
      <trkpt lat="47.39749" lon="6.60173">
        <ele>452.5</ele>
        <time>2017-06-11T07:26:58.000Z</time>
      </trkpt>
      <trkpt lat="47.39754" lon="6.60171">
        <ele>451.7</ele>
        <time>2017-06-11T07:26:59.000Z</time>
      </trkpt>
      <trkpt lat="47.39758" lon="6.60171">
        <ele>451.3</ele>
        <time>2017-06-11T07:27:00.000Z</time>
      </trkpt>
      <trkpt lat="47.39761" lon="6.6017">
        <ele>451.3</ele>
        <time>2017-06-11T07:27:01.000Z</time>
      </trkpt>
      <trkpt lat="47.39768" lon="6.6017">
        <ele>450.8</ele>
        <time>2017-06-11T07:27:02.000Z</time>
      </trkpt>
      <trkpt lat="47.39775" lon="6.6017">
        <ele>451.2</ele>
        <time>2017-06-11T07:27:03.000Z</time>
      </trkpt>
      <trkpt lat="47.39782" lon="6.60171">
        <ele>451.1</ele>
        <time>2017-06-11T07:27:04.000Z</time>
      </trkpt>
      <trkpt lat="47.39789" lon="6.60171">
        <ele>449.7</ele>
        <time>2017-06-11T07:27:05.000Z</time>
      </trkpt>
      <trkpt lat="47.39797" lon="6.60173">
        <ele>448.3</ele>
        <time>2017-06-11T07:27:06.000Z</time>
      </trkpt>
      <trkpt lat="47.39805" lon="6.60175">
        <ele>446.8</ele>
        <time>2017-06-11T07:27:07.000Z</time>
      </trkpt>
      <trkpt lat="47.39812" lon="6.60178">
        <ele>445.5</ele>
        <time>2017-06-11T07:27:08.000Z</time>
      </trkpt>
      <trkpt lat="47.39819" lon="6.60176">
        <ele>444.6</ele>
        <time>2017-06-11T07:27:09.000Z</time>
      </trkpt>
      <trkpt lat="47.39823" lon="6.60177">
        <ele>443.3</ele>
        <time>2017-06-11T07:27:10.000Z</time>
      </trkpt>
      <trkpt lat="47.39829" lon="6.60178">
        <ele>441.6</ele>
        <time>2017-06-11T07:27:11.000Z</time>
      </trkpt>
      <trkpt lat="47.39835" lon="6.6018">
        <ele>440</ele>
        <time>2017-06-11T07:27:12.000Z</time>
      </trkpt>
      <trkpt lat="47.39842" lon="6.60182">
        <ele>438.1</ele>
        <time>2017-06-11T07:27:13.000Z</time>
      </trkpt>
      <trkpt lat="47.39847" lon="6.60181">
        <ele>437.1</ele>
        <time>2017-06-11T07:27:14.000Z</time>
      </trkpt>
      <trkpt lat="47.39852" lon="6.60178">
        <ele>436.8</ele>
        <time>2017-06-11T07:27:15.000Z</time>
      </trkpt>
      <trkpt lat="47.39856" lon="6.60176">
        <ele>437.3</ele>
        <time>2017-06-11T07:27:16.000Z</time>
      </trkpt>
      <trkpt lat="47.39863" lon="6.60174">
        <ele>437.6</ele>
        <time>2017-06-11T07:27:17.000Z</time>
      </trkpt>
      <trkpt lat="47.39869" lon="6.60174">
        <ele>438.1</ele>
        <time>2017-06-11T07:27:18.000Z</time>
      </trkpt>
      <trkpt lat="47.39875" lon="6.60174">
        <ele>438.5</ele>
        <time>2017-06-11T07:27:19.000Z</time>
      </trkpt>
      <trkpt lat="47.39879" lon="6.60174">
        <ele>438.5</ele>
        <time>2017-06-11T07:27:20.000Z</time>
      </trkpt>
      <trkpt lat="47.39882" lon="6.60175">
        <ele>438.6</ele>
        <time>2017-06-11T07:27:21.000Z</time>
      </trkpt>
      <trkpt lat="47.39885" lon="6.60175">
        <ele>438.7</ele>
        <time>2017-06-11T07:27:22.000Z</time>
      </trkpt>
      <trkpt lat="47.39888" lon="6.60176">
        <ele>438.9</ele>
        <time>2017-06-11T07:27:23.000Z</time>
      </trkpt>
      <trkpt lat="47.39891" lon="6.60177">
        <ele>439</ele>
        <time>2017-06-11T07:27:24.000Z</time>
      </trkpt>
      <trkpt lat="47.39896" lon="6.60179">
        <ele>439.2</ele>
        <time>2017-06-11T07:27:25.000Z</time>
      </trkpt>
      <trkpt lat="47.39901" lon="6.6018">
        <ele>439.3</ele>
        <time>2017-06-11T07:27:26.000Z</time>
      </trkpt>
      <trkpt lat="47.39906" lon="6.60181">
        <ele>439.3</ele>
        <time>2017-06-11T07:27:27.000Z</time>
      </trkpt>
      <trkpt lat="47.3991" lon="6.60182">
        <ele>439.5</ele>
        <time>2017-06-11T07:27:28.000Z</time>
      </trkpt>
      <trkpt lat="47.39915" lon="6.60182">
        <ele>441.2</ele>
        <time>2017-06-11T07:27:29.000Z</time>
      </trkpt>
      <trkpt lat="47.3992" lon="6.60183">
        <ele>441.3</ele>
        <time>2017-06-11T07:27:30.000Z</time>
      </trkpt>
      <trkpt lat="47.39924" lon="6.60184">
        <ele>441.5</ele>
        <time>2017-06-11T07:27:31.000Z</time>
      </trkpt>
      <trkpt lat="47.39929" lon="6.60186">
        <ele>441.7</ele>
        <time>2017-06-11T07:27:32.000Z</time>
      </trkpt>
      <trkpt lat="47.39933" lon="6.60187">
        <ele>441.9</ele>
        <time>2017-06-11T07:27:33.000Z</time>
      </trkpt>
      <trkpt lat="47.39939" lon="6.60189">
        <ele>443.8</ele>
        <time>2017-06-11T07:27:34.000Z</time>
      </trkpt>
      <trkpt lat="47.39946" lon="6.60189">
        <ele>445.9</ele>
        <time>2017-06-11T07:27:35.000Z</time>
      </trkpt>
      <trkpt lat="47.39954" lon="6.60187">
        <ele>447.6</ele>
        <time>2017-06-11T07:27:36.000Z</time>
      </trkpt>
      <trkpt lat="47.3996" lon="6.60186">
        <ele>449.1</ele>
        <time>2017-06-11T07:27:37.000Z</time>
      </trkpt>
      <trkpt lat="47.39966" lon="6.60188">
        <ele>449.2</ele>
        <time>2017-06-11T07:27:38.000Z</time>
      </trkpt>
      <trkpt lat="47.39974" lon="6.60194">
        <ele>449.3</ele>
        <time>2017-06-11T07:27:40.000Z</time>
      </trkpt>
      <trkpt lat="47.3998" lon="6.60195">
        <ele>449.6</ele>
        <time>2017-06-11T07:27:41.000Z</time>
      </trkpt>
      <trkpt lat="47.39986" lon="6.60196">
        <ele>450.7</ele>
        <time>2017-06-11T07:27:42.000Z</time>
      </trkpt>
      <trkpt lat="47.39993" lon="6.60199">
        <ele>451.8</ele>
        <time>2017-06-11T07:27:43.000Z</time>
      </trkpt>
      <trkpt lat="47.39999" lon="6.60204">
        <ele>452.9</ele>
        <time>2017-06-11T07:27:44.000Z</time>
      </trkpt>
      <trkpt lat="47.40006" lon="6.60206">
        <ele>454.5</ele>
        <time>2017-06-11T07:27:45.000Z</time>
      </trkpt>
      <trkpt lat="47.40012" lon="6.6021">
        <ele>455.9</ele>
        <time>2017-06-11T07:27:46.000Z</time>
      </trkpt>
      <trkpt lat="47.4002" lon="6.60215">
        <ele>456.2</ele>
        <time>2017-06-11T07:27:47.000Z</time>
      </trkpt>
      <trkpt lat="47.40025" lon="6.60216">
        <ele>456.2</ele>
        <time>2017-06-11T07:27:48.000Z</time>
      </trkpt>
      <trkpt lat="47.40027" lon="6.60216">
        <ele>456.1</ele>
        <time>2017-06-11T07:27:55.000Z</time>
      </trkpt>
      <trkpt lat="47.4004" lon="6.60223">
        <ele>456</ele>
        <time>2017-06-11T07:27:56.000Z</time>
      </trkpt>
      <trkpt lat="47.40043" lon="6.60223">
        <ele>456</ele>
        <time>2017-06-11T07:27:57.000Z</time>
      </trkpt>
      <trkpt lat="47.40045" lon="6.60223">
        <ele>455.9</ele>
        <time>2017-06-11T07:27:58.000Z</time>
      </trkpt>
      <trkpt lat="47.40047" lon="6.60223">
        <ele>455.8</ele>
        <time>2017-06-11T07:28:01.000Z</time>
      </trkpt>
      <trkpt lat="47.40054" lon="6.60223">
        <ele>456.1</ele>
        <time>2017-06-11T07:28:02.000Z</time>
      </trkpt>
      <trkpt lat="47.4006" lon="6.60224">
        <ele>456.4</ele>
        <time>2017-06-11T07:28:03.000Z</time>
      </trkpt>
      <trkpt lat="47.40063" lon="6.60223">
        <ele>456.9</ele>
        <time>2017-06-11T07:28:05.000Z</time>
      </trkpt>
      <trkpt lat="47.40069" lon="6.60222">
        <ele>457.2</ele>
        <time>2017-06-11T07:28:06.000Z</time>
      </trkpt>
      <trkpt lat="47.40074" lon="6.60222">
        <ele>457.4</ele>
        <time>2017-06-11T07:28:07.000Z</time>
      </trkpt>
      <trkpt lat="47.40079" lon="6.60223">
        <ele>457.7</ele>
        <time>2017-06-11T07:28:08.000Z</time>
      </trkpt>
      <trkpt lat="47.40083" lon="6.60225">
        <ele>458</ele>
        <time>2017-06-11T07:28:09.000Z</time>
      </trkpt>
      <trkpt lat="47.40087" lon="6.60227">
        <ele>458.2</ele>
        <time>2017-06-11T07:28:10.000Z</time>
      </trkpt>
      <trkpt lat="47.4009" lon="6.60229">
        <ele>458.5</ele>
        <time>2017-06-11T07:28:11.000Z</time>
      </trkpt>
      <trkpt lat="47.40095" lon="6.60231">
        <ele>458.7</ele>
        <time>2017-06-11T07:28:12.000Z</time>
      </trkpt>
      <trkpt lat="47.40099" lon="6.60235">
        <ele>458.8</ele>
        <time>2017-06-11T07:28:13.000Z</time>
      </trkpt>
      <trkpt lat="47.40104" lon="6.60238">
        <ele>458.8</ele>
        <time>2017-06-11T07:28:14.000Z</time>
      </trkpt>
      <trkpt lat="47.40107" lon="6.60239">
        <ele>459</ele>
        <time>2017-06-11T07:28:15.000Z</time>
      </trkpt>
      <trkpt lat="47.4011" lon="6.60242">
        <ele>459.1</ele>
        <time>2017-06-11T07:28:16.000Z</time>
      </trkpt>
      <trkpt lat="47.40112" lon="6.60245">
        <ele>459.3</ele>
        <time>2017-06-11T07:28:18.000Z</time>
      </trkpt>
      <trkpt lat="47.40114" lon="6.60247">
        <ele>459.3</ele>
        <time>2017-06-11T07:28:19.000Z</time>
      </trkpt>
      <trkpt lat="47.40117" lon="6.6025">
        <ele>459.2</ele>
        <time>2017-06-11T07:28:20.000Z</time>
      </trkpt>
      <trkpt lat="47.4012" lon="6.60252">
        <ele>459</ele>
        <time>2017-06-11T07:28:21.000Z</time>
      </trkpt>
      <trkpt lat="47.4012" lon="6.60252">
        <ele>458.9</ele>
        <time>2017-06-11T07:28:23.000Z</time>
      </trkpt>
      <trkpt lat="47.40128" lon="6.60257">
        <ele>458.6</ele>
        <time>2017-06-11T07:28:24.000Z</time>
      </trkpt>
      <trkpt lat="47.4013" lon="6.60259">
        <ele>458.3</ele>
        <time>2017-06-11T07:28:26.000Z</time>
      </trkpt>
      <trkpt lat="47.40133" lon="6.60262">
        <ele>457.9</ele>
        <time>2017-06-11T07:28:27.000Z</time>
      </trkpt>
      <trkpt lat="47.40134" lon="6.60264">
        <ele>457.5</ele>
        <time>2017-06-11T07:28:28.000Z</time>
      </trkpt>
      <trkpt lat="47.40136" lon="6.60267">
        <ele>457.1</ele>
        <time>2017-06-11T07:28:29.000Z</time>
      </trkpt>
      <trkpt lat="47.40138" lon="6.6027">
        <ele>456.7</ele>
        <time>2017-06-11T07:28:32.000Z</time>
      </trkpt>
      <trkpt lat="47.40142" lon="6.60275">
        <ele>456.3</ele>
        <time>2017-06-11T07:28:33.000Z</time>
      </trkpt>
      <trkpt lat="47.40144" lon="6.60277">
        <ele>456</ele>
        <time>2017-06-11T07:28:34.000Z</time>
      </trkpt>
      <trkpt lat="47.40146" lon="6.60279">
        <ele>455.7</ele>
        <time>2017-06-11T07:28:35.000Z</time>
      </trkpt>
      <trkpt lat="47.40146" lon="6.60279">
        <ele>455.6</ele>
        <time>2017-06-11T07:28:36.000Z</time>
      </trkpt>
      <trkpt lat="47.40151" lon="6.60283">
        <ele>455.4</ele>
        <time>2017-06-11T07:28:37.000Z</time>
      </trkpt>
      <trkpt lat="47.40155" lon="6.60286">
        <ele>455.1</ele>
        <time>2017-06-11T07:28:38.000Z</time>
      </trkpt>
      <trkpt lat="47.40157" lon="6.60288">
        <ele>454.8</ele>
        <time>2017-06-11T07:28:39.000Z</time>
      </trkpt>
      <trkpt lat="47.40159" lon="6.60289">
        <ele>454.6</ele>
        <time>2017-06-11T07:28:40.000Z</time>
      </trkpt>
      <trkpt lat="47.40162" lon="6.60292">
        <ele>454.4</ele>
        <time>2017-06-11T07:28:41.000Z</time>
      </trkpt>
      <trkpt lat="47.40163" lon="6.60295">
        <ele>454.2</ele>
        <time>2017-06-11T07:28:42.000Z</time>
      </trkpt>
      <trkpt lat="47.40165" lon="6.60298">
        <ele>454</ele>
        <time>2017-06-11T07:28:43.000Z</time>
      </trkpt>
      <trkpt lat="47.40168" lon="6.60301">
        <ele>453.8</ele>
        <time>2017-06-11T07:28:44.000Z</time>
      </trkpt>
      <trkpt lat="47.40171" lon="6.60304">
        <ele>453.6</ele>
        <time>2017-06-11T07:28:45.000Z</time>
      </trkpt>
      <trkpt lat="47.40174" lon="6.60308">
        <ele>453.3</ele>
        <time>2017-06-11T07:28:46.000Z</time>
      </trkpt>
      <trkpt lat="47.40177" lon="6.60312">
        <ele>453.1</ele>
        <time>2017-06-11T07:28:47.000Z</time>
      </trkpt>
      <trkpt lat="47.40179" lon="6.60315">
        <ele>452.9</ele>
        <time>2017-06-11T07:28:48.000Z</time>
      </trkpt>
      <trkpt lat="47.40181" lon="6.60319">
        <ele>452.6</ele>
        <time>2017-06-11T07:28:49.000Z</time>
      </trkpt>
      <trkpt lat="47.40184" lon="6.60323">
        <ele>452.2</ele>
        <time>2017-06-11T07:28:50.000Z</time>
      </trkpt>
      <trkpt lat="47.40186" lon="6.60326">
        <ele>451.7</ele>
        <time>2017-06-11T07:28:51.000Z</time>
      </trkpt>
      <trkpt lat="47.40188" lon="6.60329">
        <ele>451.2</ele>
        <time>2017-06-11T07:28:52.000Z</time>
      </trkpt>
      <trkpt lat="47.40189" lon="6.60332">
        <ele>448.7</ele>
        <time>2017-06-11T07:28:59.000Z</time>
      </trkpt>
      <trkpt lat="47.40204" lon="6.60354">
        <ele>448.3</ele>
        <time>2017-06-11T07:29:00.000Z</time>
      </trkpt>
      <trkpt lat="47.40204" lon="6.60354">
        <ele>448</ele>
        <time>2017-06-11T07:29:01.000Z</time>
      </trkpt>
      <trkpt lat="47.40209" lon="6.60367">
        <ele>447.7</ele>
        <time>2017-06-11T07:29:02.000Z</time>
      </trkpt>
      <trkpt lat="47.40211" lon="6.60372">
        <ele>447.4</ele>
        <time>2017-06-11T07:29:03.000Z</time>
      </trkpt>
      <trkpt lat="47.40212" lon="6.60376">
        <ele>447.2</ele>
        <time>2017-06-11T07:29:04.000Z</time>
      </trkpt>
      <trkpt lat="47.40214" lon="6.60379">
        <ele>446.9</ele>
        <time>2017-06-11T07:29:05.000Z</time>
      </trkpt>
      <trkpt lat="47.40217" lon="6.60382">
        <ele>446.7</ele>
        <time>2017-06-11T07:29:06.000Z</time>
      </trkpt>
      <trkpt lat="47.40219" lon="6.60386">
        <ele>446.5</ele>
        <time>2017-06-11T07:29:07.000Z</time>
      </trkpt>
      <trkpt lat="47.40221" lon="6.60391">
        <ele>446.3</ele>
        <time>2017-06-11T07:29:08.000Z</time>
      </trkpt>
      <trkpt lat="47.40224" lon="6.60394">
        <ele>446.1</ele>
        <time>2017-06-11T07:29:09.000Z</time>
      </trkpt>
      <trkpt lat="47.40228" lon="6.60396">
        <ele>446</ele>
        <time>2017-06-11T07:29:10.000Z</time>
      </trkpt>
      <trkpt lat="47.40231" lon="6.604">
        <ele>446</ele>
        <time>2017-06-11T07:29:11.000Z</time>
      </trkpt>
      <trkpt lat="47.40234" lon="6.60405">
        <ele>446</ele>
        <time>2017-06-11T07:29:12.000Z</time>
      </trkpt>
      <trkpt lat="47.40236" lon="6.60408">
        <ele>446</ele>
        <time>2017-06-11T07:29:14.000Z</time>
      </trkpt>
      <trkpt lat="47.40238" lon="6.60413">
        <ele>445.9</ele>
        <time>2017-06-11T07:29:15.000Z</time>
      </trkpt>
      <trkpt lat="47.40238" lon="6.60413">
        <ele>445.5</ele>
        <time>2017-06-11T07:29:18.000Z</time>
      </trkpt>
      <trkpt lat="47.40243" lon="6.60431">
        <ele>445.3</ele>
        <time>2017-06-11T07:29:19.000Z</time>
      </trkpt>
      <trkpt lat="47.40245" lon="6.60435">
        <ele>445.2</ele>
        <time>2017-06-11T07:29:20.000Z</time>
      </trkpt>
      <trkpt lat="47.40245" lon="6.60439">
        <ele>445</ele>
        <time>2017-06-11T07:29:21.000Z</time>
      </trkpt>
      <trkpt lat="47.40246" lon="6.60442">
        <ele>444.8</ele>
        <time>2017-06-11T07:29:22.000Z</time>
      </trkpt>
      <trkpt lat="47.40247" lon="6.60447">
        <ele>444.6</ele>
        <time>2017-06-11T07:29:23.000Z</time>
      </trkpt>
      <trkpt lat="47.40248" lon="6.6045">
        <ele>444.4</ele>
        <time>2017-06-11T07:29:24.000Z</time>
      </trkpt>
      <trkpt lat="47.40249" lon="6.60453">
        <ele>444.3</ele>
        <time>2017-06-11T07:29:25.000Z</time>
      </trkpt>
      <trkpt lat="47.40251" lon="6.60458">
        <ele>444</ele>
        <time>2017-06-11T07:29:26.000Z</time>
      </trkpt>
      <trkpt lat="47.40252" lon="6.60461">
        <ele>443.7</ele>
        <time>2017-06-11T07:29:27.000Z</time>
      </trkpt>
      <trkpt lat="47.40254" lon="6.60465">
        <ele>443.3</ele>
        <time>2017-06-11T07:29:28.000Z</time>
      </trkpt>
      <trkpt lat="47.40256" lon="6.60468">
        <ele>442.9</ele>
        <time>2017-06-11T07:29:29.000Z</time>
      </trkpt>
      <trkpt lat="47.40258" lon="6.60471">
        <ele>441.8</ele>
        <time>2017-06-11T07:29:35.000Z</time>
      </trkpt>
      <trkpt lat="47.40268" lon="6.6048">
        <ele>441.9</ele>
        <time>2017-06-11T07:29:36.000Z</time>
      </trkpt>
      <trkpt lat="47.40268" lon="6.6048">
        <ele>441.8</ele>
        <time>2017-06-11T07:29:38.000Z</time>
      </trkpt>
      <trkpt lat="47.40282" lon="6.60488">
        <ele>441.6</ele>
        <time>2017-06-11T07:29:40.000Z</time>
      </trkpt>
      <trkpt lat="47.40285" lon="6.6049">
        <ele>440.8</ele>
        <time>2017-06-11T07:30:08.000Z</time>
      </trkpt>
      <trkpt lat="47.40302" lon="6.60505">
        <ele>440.6</ele>
        <time>2017-06-11T07:30:09.000Z</time>
      </trkpt>
      <trkpt lat="47.40302" lon="6.60505">
        <ele>440.4</ele>
        <time>2017-06-11T07:30:10.000Z</time>
      </trkpt>
      <trkpt lat="47.40306" lon="6.60518">
        <ele>437.2</ele>
        <time>2017-06-11T07:30:11.000Z</time>
      </trkpt>
      <trkpt lat="47.4031" lon="6.60528">
        <ele>436.9</ele>
        <time>2017-06-11T07:30:12.000Z</time>
      </trkpt>
      <trkpt lat="47.40314" lon="6.60539">
        <ele>436.7</ele>
        <time>2017-06-11T07:30:13.000Z</time>
      </trkpt>
      <trkpt lat="47.40318" lon="6.6055">
        <ele>436.5</ele>
        <time>2017-06-11T07:30:14.000Z</time>
      </trkpt>
      <trkpt lat="47.40322" lon="6.60559">
        <ele>434.7</ele>
        <time>2017-06-11T07:30:15.000Z</time>
      </trkpt>
      <trkpt lat="47.40326" lon="6.60566">
        <ele>433.9</ele>
        <time>2017-06-11T07:30:16.000Z</time>
      </trkpt>
      <trkpt lat="47.40331" lon="6.60575">
        <ele>433.3</ele>
        <time>2017-06-11T07:30:17.000Z</time>
      </trkpt>
      <trkpt lat="47.40334" lon="6.60582">
        <ele>432.4</ele>
        <time>2017-06-11T07:30:18.000Z</time>
      </trkpt>
      <trkpt lat="47.40336" lon="6.6059">
        <ele>431.5</ele>
        <time>2017-06-11T07:30:19.000Z</time>
      </trkpt>
      <trkpt lat="47.40338" lon="6.60597">
        <ele>430.6</ele>
        <time>2017-06-11T07:30:20.000Z</time>
      </trkpt>
      <trkpt lat="47.40338" lon="6.60597">
        <ele>430.5</ele>
        <time>2017-06-11T07:30:22.000Z</time>
      </trkpt>
      <trkpt lat="47.40343" lon="6.60613">
        <ele>430.4</ele>
        <time>2017-06-11T07:30:23.000Z</time>
      </trkpt>
      <trkpt lat="47.40344" lon="6.60619">
        <ele>430.3</ele>
        <time>2017-06-11T07:30:24.000Z</time>
      </trkpt>
      <trkpt lat="47.40345" lon="6.60626">
        <ele>430.2</ele>
        <time>2017-06-11T07:30:25.000Z</time>
      </trkpt>
      <trkpt lat="47.40347" lon="6.60631">
        <ele>428.5</ele>
        <time>2017-06-11T07:30:26.000Z</time>
      </trkpt>
      <trkpt lat="47.40349" lon="6.60638">
        <ele>427.1</ele>
        <time>2017-06-11T07:30:27.000Z</time>
      </trkpt>
      <trkpt lat="47.40351" lon="6.60645">
        <ele>426.1</ele>
        <time>2017-06-11T07:30:28.000Z</time>
      </trkpt>
      <trkpt lat="47.40351" lon="6.60645">
        <ele>426.1</ele>
        <time>2017-06-11T07:30:29.000Z</time>
      </trkpt>
      <trkpt lat="47.40356" lon="6.60652">
        <ele>425.9</ele>
        <time>2017-06-11T07:30:30.000Z</time>
      </trkpt>
      <trkpt lat="47.4036" lon="6.60655">
        <ele>425.5</ele>
        <time>2017-06-11T07:30:31.000Z</time>
      </trkpt>
      <trkpt lat="47.40366" lon="6.60659">
        <ele>423.6</ele>
        <time>2017-06-11T07:30:32.000Z</time>
      </trkpt>
      <trkpt lat="47.40372" lon="6.60665">
        <ele>421.6</ele>
        <time>2017-06-11T07:30:33.000Z</time>
      </trkpt>
      <trkpt lat="47.40378" lon="6.60671">
        <ele>419.5</ele>
        <time>2017-06-11T07:30:34.000Z</time>
      </trkpt>
      <trkpt lat="47.40383" lon="6.60678">
        <ele>418.6</ele>
        <time>2017-06-11T07:30:35.000Z</time>
      </trkpt>
      <trkpt lat="47.40387" lon="6.60685">
        <ele>418.2</ele>
        <time>2017-06-11T07:30:36.000Z</time>
      </trkpt>
      <trkpt lat="47.40392" lon="6.60692">
        <ele>417</ele>
        <time>2017-06-11T07:30:37.000Z</time>
      </trkpt>
      <trkpt lat="47.40397" lon="6.60699">
        <ele>416.2</ele>
        <time>2017-06-11T07:30:38.000Z</time>
      </trkpt>
      <trkpt lat="47.40402" lon="6.60707">
        <ele>414.6</ele>
        <time>2017-06-11T07:30:39.000Z</time>
      </trkpt>
      <trkpt lat="47.40407" lon="6.60716">
        <ele>413.9</ele>
        <time>2017-06-11T07:30:40.000Z</time>
      </trkpt>
      <trkpt lat="47.40411" lon="6.60725">
        <ele>413.5</ele>
        <time>2017-06-11T07:30:41.000Z</time>
      </trkpt>
      <trkpt lat="47.40417" lon="6.60734">
        <ele>413.4</ele>
        <time>2017-06-11T07:30:42.000Z</time>
      </trkpt>
      <trkpt lat="47.40422" lon="6.60742">
        <ele>413.4</ele>
        <time>2017-06-11T07:30:43.000Z</time>
      </trkpt>
      <trkpt lat="47.40425" lon="6.60751">
        <ele>413.2</ele>
        <time>2017-06-11T07:30:44.000Z</time>
      </trkpt>
      <trkpt lat="47.40428" lon="6.60759">
        <ele>412.6</ele>
        <time>2017-06-11T07:30:45.000Z</time>
      </trkpt>
      <trkpt lat="47.4043" lon="6.60767">
        <ele>412</ele>
        <time>2017-06-11T07:30:46.000Z</time>
      </trkpt>
      <trkpt lat="47.40433" lon="6.60776">
        <ele>411.8</ele>
        <time>2017-06-11T07:30:47.000Z</time>
      </trkpt>
      <trkpt lat="47.40437" lon="6.60783">
        <ele>412.2</ele>
        <time>2017-06-11T07:30:48.000Z</time>
      </trkpt>
      <trkpt lat="47.4044" lon="6.60788">
        <ele>412.1</ele>
        <time>2017-06-11T07:30:49.000Z</time>
      </trkpt>
      <trkpt lat="47.40445" lon="6.60793">
        <ele>411.6</ele>
        <time>2017-06-11T07:30:50.000Z</time>
      </trkpt>
      <trkpt lat="47.40449" lon="6.60797">
        <ele>411.4</ele>
        <time>2017-06-11T07:30:51.000Z</time>
      </trkpt>
      <trkpt lat="47.40453" lon="6.60801">
        <ele>411.3</ele>
        <time>2017-06-11T07:30:52.000Z</time>
      </trkpt>
      <trkpt lat="47.40457" lon="6.60806">
        <ele>411.3</ele>
        <time>2017-06-11T07:30:53.000Z</time>
      </trkpt>
      <trkpt lat="47.40457" lon="6.60806">
        <ele>411.2</ele>
        <time>2017-06-11T07:30:55.000Z</time>
      </trkpt>
      <trkpt lat="47.40471" lon="6.6081">
        <ele>409.7</ele>
        <time>2017-06-11T07:30:56.000Z</time>
      </trkpt>
      <trkpt lat="47.40476" lon="6.60813">
        <ele>409.7</ele>
        <time>2017-06-11T07:30:57.000Z</time>
      </trkpt>
      <trkpt lat="47.40481" lon="6.60817">
        <ele>410.3</ele>
        <time>2017-06-11T07:30:58.000Z</time>
      </trkpt>
      <trkpt lat="47.40486" lon="6.60822">
        <ele>410.5</ele>
        <time>2017-06-11T07:30:59.000Z</time>
      </trkpt>
      <trkpt lat="47.40492" lon="6.60828">
        <ele>410.9</ele>
        <time>2017-06-11T07:31:00.000Z</time>
      </trkpt>
      <trkpt lat="47.40498" lon="6.60832">
        <ele>410.9</ele>
        <time>2017-06-11T07:31:01.000Z</time>
      </trkpt>
      <trkpt lat="47.40502" lon="6.60836">
        <ele>411</ele>
        <time>2017-06-11T07:31:02.000Z</time>
      </trkpt>
      <trkpt lat="47.40506" lon="6.6084">
        <ele>410.9</ele>
        <time>2017-06-11T07:31:03.000Z</time>
      </trkpt>
      <trkpt lat="47.40509" lon="6.60846">
        <ele>411.1</ele>
        <time>2017-06-11T07:31:04.000Z</time>
      </trkpt>
      <trkpt lat="47.40511" lon="6.60853">
        <ele>410.7</ele>
        <time>2017-06-11T07:31:05.000Z</time>
      </trkpt>
      <trkpt lat="47.40515" lon="6.60861">
        <ele>411.4</ele>
        <time>2017-06-11T07:31:06.000Z</time>
      </trkpt>
      <trkpt lat="47.40518" lon="6.6087">
        <ele>412.3</ele>
        <time>2017-06-11T07:31:07.000Z</time>
      </trkpt>
      <trkpt lat="47.40522" lon="6.60881">
        <ele>412.4</ele>
        <time>2017-06-11T07:31:08.000Z</time>
      </trkpt>
      <trkpt lat="47.40526" lon="6.60889">
        <ele>412.8</ele>
        <time>2017-06-11T07:31:09.000Z</time>
      </trkpt>
      <trkpt lat="47.40528" lon="6.60896">
        <ele>413</ele>
        <time>2017-06-11T07:31:10.000Z</time>
      </trkpt>
      <trkpt lat="47.4053" lon="6.60904">
        <ele>413.8</ele>
        <time>2017-06-11T07:31:11.000Z</time>
      </trkpt>
      <trkpt lat="47.40532" lon="6.60911">
        <ele>413.5</ele>
        <time>2017-06-11T07:31:12.000Z</time>
      </trkpt>
      <trkpt lat="47.40534" lon="6.60918">
        <ele>412.6</ele>
        <time>2017-06-11T07:31:13.000Z</time>
      </trkpt>
      <trkpt lat="47.40537" lon="6.60925">
        <ele>412.2</ele>
        <time>2017-06-11T07:31:14.000Z</time>
      </trkpt>
      <trkpt lat="47.40541" lon="6.60933">
        <ele>411.6</ele>
        <time>2017-06-11T07:31:15.000Z</time>
      </trkpt>
      <trkpt lat="47.40547" lon="6.6094">
        <ele>412.1</ele>
        <time>2017-06-11T07:31:16.000Z</time>
      </trkpt>
      <trkpt lat="47.40552" lon="6.60949">
        <ele>412.6</ele>
        <time>2017-06-11T07:31:17.000Z</time>
      </trkpt>
      <trkpt lat="47.40556" lon="6.60956">
        <ele>412.5</ele>
        <time>2017-06-11T07:31:18.000Z</time>
      </trkpt>
      <trkpt lat="47.40561" lon="6.60965">
        <ele>412.4</ele>
        <time>2017-06-11T07:31:19.000Z</time>
      </trkpt>
      <trkpt lat="47.40564" lon="6.60973">
        <ele>413.1</ele>
        <time>2017-06-11T07:31:20.000Z</time>
      </trkpt>
      <trkpt lat="47.40568" lon="6.60982">
        <ele>414.1</ele>
        <time>2017-06-11T07:31:21.000Z</time>
      </trkpt>
      <trkpt lat="47.40573" lon="6.60992">
        <ele>414.1</ele>
        <time>2017-06-11T07:31:22.000Z</time>
      </trkpt>
      <trkpt lat="47.40576" lon="6.61002">
        <ele>414.8</ele>
        <time>2017-06-11T07:31:23.000Z</time>
      </trkpt>
      <trkpt lat="47.40579" lon="6.61012">
        <ele>415.4</ele>
        <time>2017-06-11T07:31:24.000Z</time>
      </trkpt>
      <trkpt lat="47.40583" lon="6.61022">
        <ele>415.6</ele>
        <time>2017-06-11T07:31:25.000Z</time>
      </trkpt>
      <trkpt lat="47.40586" lon="6.6103">
        <ele>415.6</ele>
        <time>2017-06-11T07:31:26.000Z</time>
      </trkpt>
      <trkpt lat="47.40589" lon="6.61039">
        <ele>415.7</ele>
        <time>2017-06-11T07:31:27.000Z</time>
      </trkpt>
      <trkpt lat="47.40591" lon="6.61048">
        <ele>415.9</ele>
        <time>2017-06-11T07:31:28.000Z</time>
      </trkpt>
      <trkpt lat="47.40594" lon="6.61057">
        <ele>416.6</ele>
        <time>2017-06-11T07:31:29.000Z</time>
      </trkpt>
      <trkpt lat="47.40598" lon="6.61067">
        <ele>417.1</ele>
        <time>2017-06-11T07:31:30.000Z</time>
      </trkpt>
      <trkpt lat="47.40599" lon="6.61074">
        <ele>417.1</ele>
        <time>2017-06-11T07:31:31.000Z</time>
      </trkpt>
      <trkpt lat="47.406" lon="6.6108">
        <ele>416.9</ele>
        <time>2017-06-11T07:31:32.000Z</time>
      </trkpt>
      <trkpt lat="47.406" lon="6.61088">
        <ele>416.6</ele>
        <time>2017-06-11T07:31:33.000Z</time>
      </trkpt>
      <trkpt lat="47.40602" lon="6.61093">
        <ele>416.5</ele>
        <time>2017-06-11T07:31:34.000Z</time>
      </trkpt>
      <trkpt lat="47.40604" lon="6.61094">
        <ele>416.4</ele>
        <time>2017-06-11T07:31:35.000Z</time>
      </trkpt>
      <trkpt lat="47.40605" lon="6.61095">
        <ele>415.1</ele>
        <time>2017-06-11T07:31:47.000Z</time>
      </trkpt>
      <trkpt lat="47.40619" lon="6.61119">
        <ele>415</ele>
        <time>2017-06-11T07:31:48.000Z</time>
      </trkpt>
      <trkpt lat="47.40621" lon="6.61123">
        <ele>414.9</ele>
        <time>2017-06-11T07:31:50.000Z</time>
      </trkpt>
      <trkpt lat="47.40622" lon="6.61125">
        <ele>414.8</ele>
        <time>2017-06-11T07:31:51.000Z</time>
      </trkpt>
      <trkpt lat="47.40624" lon="6.61128">
        <ele>414.6</ele>
        <time>2017-06-11T07:31:53.000Z</time>
      </trkpt>
      <trkpt lat="47.40625" lon="6.61131">
        <ele>414.5</ele>
        <time>2017-06-11T07:31:54.000Z</time>
      </trkpt>
      <trkpt lat="47.40625" lon="6.61132">
        <ele>414.1</ele>
        <time>2017-06-11T07:32:11.000Z</time>
      </trkpt>
      <trkpt lat="47.40639" lon="6.61148">
        <ele>414.1</ele>
        <time>2017-06-11T07:32:12.000Z</time>
      </trkpt>
      <trkpt lat="47.40639" lon="6.61148">
        <ele>413.8</ele>
        <time>2017-06-11T07:32:18.000Z</time>
      </trkpt>
      <trkpt lat="47.40656" lon="6.61157">
        <ele>413.8</ele>
        <time>2017-06-11T07:32:19.000Z</time>
      </trkpt>
      <trkpt lat="47.40656" lon="6.61157">
        <ele>413.9</ele>
        <time>2017-06-11T07:32:27.000Z</time>
      </trkpt>
      <trkpt lat="47.4067" lon="6.61159">
        <ele>413.9</ele>
        <time>2017-06-11T07:32:28.000Z</time>
      </trkpt>
      <trkpt lat="47.4067" lon="6.61159">
        <ele>414.2</ele>
        <time>2017-06-11T07:32:39.000Z</time>
      </trkpt>
      <trkpt lat="47.4068" lon="6.61164">
        <ele>414.4</ele>
        <time>2017-06-11T07:32:40.000Z</time>
      </trkpt>
      <trkpt lat="47.4068" lon="6.61164">
        <ele>417.3</ele>
        <time>2017-06-11T07:32:49.000Z</time>
      </trkpt>
      <trkpt lat="47.4069" lon="6.61174">
        <ele>417.8</ele>
        <time>2017-06-11T07:32:50.000Z</time>
      </trkpt>
      <trkpt lat="47.4069" lon="6.61174">
        <ele>418.7</ele>
        <time>2017-06-11T07:32:52.000Z</time>
      </trkpt>
      <trkpt lat="47.40694" lon="6.61177">
        <ele>419.1</ele>
        <time>2017-06-11T07:32:53.000Z</time>
      </trkpt>
      <trkpt lat="47.40698" lon="6.61179">
        <ele>419.8</ele>
        <time>2017-06-11T07:32:55.000Z</time>
      </trkpt>
      <trkpt lat="47.407" lon="6.6118">
        <ele>420.2</ele>
        <time>2017-06-11T07:32:56.000Z</time>
      </trkpt>
      <trkpt lat="47.407" lon="6.6118">
        <ele>420.6</ele>
        <time>2017-06-11T07:33:01.000Z</time>
      </trkpt>
      <trkpt lat="47.4071" lon="6.61186">
        <ele>420.6</ele>
        <time>2017-06-11T07:33:02.000Z</time>
      </trkpt>
      <trkpt lat="47.4071" lon="6.61186">
        <ele>422.8</ele>
        <time>2017-06-11T07:33:11.000Z</time>
      </trkpt>
      <trkpt lat="47.40723" lon="6.61197">
        <ele>423</ele>
        <time>2017-06-11T07:33:12.000Z</time>
      </trkpt>
      <trkpt lat="47.40723" lon="6.61197">
        <ele>424.3</ele>
        <time>2017-06-11T07:33:16.000Z</time>
      </trkpt>
      <trkpt lat="47.40729" lon="6.61202">
        <ele>424.7</ele>
        <time>2017-06-11T07:33:17.000Z</time>
      </trkpt>
      <trkpt lat="47.40732" lon="6.61204">
        <ele>425.4</ele>
        <time>2017-06-11T07:33:19.000Z</time>
      </trkpt>
      <trkpt lat="47.40733" lon="6.61205">
        <ele>425.8</ele>
        <time>2017-06-11T07:33:20.000Z</time>
      </trkpt>
      <trkpt lat="47.40737" lon="6.61207">
        <ele>426.8</ele>
        <time>2017-06-11T07:33:23.000Z</time>
      </trkpt>
      <trkpt lat="47.40738" lon="6.61207">
        <ele>427.1</ele>
        <time>2017-06-11T07:33:24.000Z</time>
      </trkpt>
      <trkpt lat="47.40739" lon="6.61208">
        <ele>428.2</ele>
        <time>2017-06-11T07:33:28.000Z</time>
      </trkpt>
      <trkpt lat="47.40746" lon="6.61208">
        <ele>428.6</ele>
        <time>2017-06-11T07:33:29.000Z</time>
      </trkpt>
      <trkpt lat="47.4075" lon="6.61206">
        <ele>429.8</ele>
        <time>2017-06-11T07:33:33.000Z</time>
      </trkpt>
      <trkpt lat="47.4075" lon="6.61206">
        <ele>430.1</ele>
        <time>2017-06-11T07:33:34.000Z</time>
      </trkpt>
      <trkpt lat="47.40754" lon="6.61208">
        <ele>431.1</ele>
        <time>2017-06-11T07:33:37.000Z</time>
      </trkpt>
      <trkpt lat="47.40756" lon="6.61209">
        <ele>431.5</ele>
        <time>2017-06-11T07:33:38.000Z</time>
      </trkpt>
      <trkpt lat="47.40759" lon="6.61213">
        <ele>432.2</ele>
        <time>2017-06-11T07:33:40.000Z</time>
      </trkpt>
      <trkpt lat="47.4076" lon="6.61217">
        <ele>432.5</ele>
        <time>2017-06-11T07:33:41.000Z</time>
      </trkpt>
      <trkpt lat="47.40762" lon="6.61221">
        <ele>432.9</ele>
        <time>2017-06-11T07:33:42.000Z</time>
      </trkpt>
      <trkpt lat="47.40763" lon="6.61226">
        <ele>433.3</ele>
        <time>2017-06-11T07:33:43.000Z</time>
      </trkpt>
      <trkpt lat="47.40765" lon="6.61232">
        <ele>433.6</ele>
        <time>2017-06-11T07:33:44.000Z</time>
      </trkpt>
      <trkpt lat="47.40767" lon="6.61239">
        <ele>434</ele>
        <time>2017-06-11T07:33:45.000Z</time>
      </trkpt>
      <trkpt lat="47.40768" lon="6.61245">
        <ele>434.3</ele>
        <time>2017-06-11T07:33:46.000Z</time>
      </trkpt>
      <trkpt lat="47.4077" lon="6.61248">
        <ele>434.6</ele>
        <time>2017-06-11T07:33:47.000Z</time>
      </trkpt>
      <trkpt lat="47.40772" lon="6.61251">
        <ele>434.9</ele>
        <time>2017-06-11T07:33:48.000Z</time>
      </trkpt>
      <trkpt lat="47.40775" lon="6.61255">
        <ele>435.1</ele>
        <time>2017-06-11T07:33:49.000Z</time>
      </trkpt>
      <trkpt lat="47.40776" lon="6.61261">
        <ele>435.3</ele>
        <time>2017-06-11T07:33:50.000Z</time>
      </trkpt>
      <trkpt lat="47.40778" lon="6.61266">
        <ele>435.4</ele>
        <time>2017-06-11T07:33:51.000Z</time>
      </trkpt>
      <trkpt lat="47.4078" lon="6.61272">
        <ele>435.5</ele>
        <time>2017-06-11T07:33:52.000Z</time>
      </trkpt>
      <trkpt lat="47.40783" lon="6.61273">
        <ele>435.8</ele>
        <time>2017-06-11T07:33:53.000Z</time>
      </trkpt>
      <trkpt lat="47.40786" lon="6.61268">
        <ele>435.9</ele>
        <time>2017-06-11T07:33:54.000Z</time>
      </trkpt>
      <trkpt lat="47.40789" lon="6.61264">
        <ele>436</ele>
        <time>2017-06-11T07:33:55.000Z</time>
      </trkpt>
      <trkpt lat="47.40791" lon="6.6126">
        <ele>436</ele>
        <time>2017-06-11T07:33:56.000Z</time>
      </trkpt>
      <trkpt lat="47.40793" lon="6.61256">
        <ele>435.9</ele>
        <time>2017-06-11T07:33:57.000Z</time>
      </trkpt>
      <trkpt lat="47.40795" lon="6.61251">
        <ele>435.8</ele>
        <time>2017-06-11T07:33:58.000Z</time>
      </trkpt>
      <trkpt lat="47.40797" lon="6.61247">
        <ele>435.8</ele>
        <time>2017-06-11T07:33:59.000Z</time>
      </trkpt>
      <trkpt lat="47.408" lon="6.61244">
        <ele>435.8</ele>
        <time>2017-06-11T07:34:00.000Z</time>
      </trkpt>
      <trkpt lat="47.40802" lon="6.61241">
        <ele>435.7</ele>
        <time>2017-06-11T07:34:01.000Z</time>
      </trkpt>
      <trkpt lat="47.40804" lon="6.61238">
        <ele>435.7</ele>
        <time>2017-06-11T07:34:02.000Z</time>
      </trkpt>
      <trkpt lat="47.40807" lon="6.61233">
        <ele>436.2</ele>
        <time>2017-06-11T07:34:03.000Z</time>
      </trkpt>
      <trkpt lat="47.40811" lon="6.61228">
        <ele>436.1</ele>
        <time>2017-06-11T07:34:04.000Z</time>
      </trkpt>
      <trkpt lat="47.40814" lon="6.61224">
        <ele>436.1</ele>
        <time>2017-06-11T07:34:05.000Z</time>
      </trkpt>
      <trkpt lat="47.40818" lon="6.61219">
        <ele>435.9</ele>
        <time>2017-06-11T07:34:06.000Z</time>
      </trkpt>
      <trkpt lat="47.40821" lon="6.61214">
        <ele>435.6</ele>
        <time>2017-06-11T07:34:07.000Z</time>
      </trkpt>
      <trkpt lat="47.40825" lon="6.61211">
        <ele>434.6</ele>
        <time>2017-06-11T07:34:08.000Z</time>
      </trkpt>
      <trkpt lat="47.40828" lon="6.61207">
        <ele>434.6</ele>
        <time>2017-06-11T07:34:09.000Z</time>
      </trkpt>
      <trkpt lat="47.40831" lon="6.61204">
        <ele>433.2</ele>
        <time>2017-06-11T07:34:10.000Z</time>
      </trkpt>
      <trkpt lat="47.40834" lon="6.61201">
        <ele>432.4</ele>
        <time>2017-06-11T07:34:11.000Z</time>
      </trkpt>
      <trkpt lat="47.40837" lon="6.61197">
        <ele>431.4</ele>
        <time>2017-06-11T07:34:12.000Z</time>
      </trkpt>
      <trkpt lat="47.40841" lon="6.61193">
        <ele>430.9</ele>
        <time>2017-06-11T07:34:13.000Z</time>
      </trkpt>
      <trkpt lat="47.40845" lon="6.61188">
        <ele>430.9</ele>
        <time>2017-06-11T07:34:14.000Z</time>
      </trkpt>
      <trkpt lat="47.40849" lon="6.61183">
        <ele>431.2</ele>
        <time>2017-06-11T07:34:15.000Z</time>
      </trkpt>
      <trkpt lat="47.40853" lon="6.61178">
        <ele>431.2</ele>
        <time>2017-06-11T07:34:16.000Z</time>
      </trkpt>
      <trkpt lat="47.40858" lon="6.61172">
        <ele>431.7</ele>
        <time>2017-06-11T07:34:17.000Z</time>
      </trkpt>
      <trkpt lat="47.40863" lon="6.61168">
        <ele>431.5</ele>
        <time>2017-06-11T07:34:18.000Z</time>
      </trkpt>
      <trkpt lat="47.40867" lon="6.61166">
        <ele>432.2</ele>
        <time>2017-06-11T07:34:19.000Z</time>
      </trkpt>
      <trkpt lat="47.4087" lon="6.61162">
        <ele>432.3</ele>
        <time>2017-06-11T07:34:20.000Z</time>
      </trkpt>
      <trkpt lat="47.40874" lon="6.61156">
        <ele>432.4</ele>
        <time>2017-06-11T07:34:21.000Z</time>
      </trkpt>
      <trkpt lat="47.40878" lon="6.6115">
        <ele>432.4</ele>
        <time>2017-06-11T07:34:22.000Z</time>
      </trkpt>
      <trkpt lat="47.40882" lon="6.61144">
        <ele>432.6</ele>
        <time>2017-06-11T07:34:23.000Z</time>
      </trkpt>
      <trkpt lat="47.40885" lon="6.6114">
        <ele>433</ele>
        <time>2017-06-11T07:34:24.000Z</time>
      </trkpt>
      <trkpt lat="47.40889" lon="6.61136">
        <ele>433.7</ele>
        <time>2017-06-11T07:34:25.000Z</time>
      </trkpt>
      <trkpt lat="47.40894" lon="6.61133">
        <ele>434.2</ele>
        <time>2017-06-11T07:34:26.000Z</time>
      </trkpt>
      <trkpt lat="47.40898" lon="6.61132">
        <ele>434.2</ele>
        <time>2017-06-11T07:34:27.000Z</time>
      </trkpt>
      <trkpt lat="47.40901" lon="6.61131">
        <ele>434.2</ele>
        <time>2017-06-11T07:34:28.000Z</time>
      </trkpt>
      <trkpt lat="47.40906" lon="6.6113">
        <ele>433.2</ele>
        <time>2017-06-11T07:34:29.000Z</time>
      </trkpt>
      <trkpt lat="47.4091" lon="6.6113">
        <ele>433.1</ele>
        <time>2017-06-11T07:34:30.000Z</time>
      </trkpt>
      <trkpt lat="47.40912" lon="6.61129">
        <ele>433.1</ele>
        <time>2017-06-11T07:34:31.000Z</time>
      </trkpt>
      <trkpt lat="47.40915" lon="6.61126">
        <ele>433.1</ele>
        <time>2017-06-11T07:34:32.000Z</time>
      </trkpt>
      <trkpt lat="47.40919" lon="6.61122">
        <ele>433.2</ele>
        <time>2017-06-11T07:34:33.000Z</time>
      </trkpt>
      <trkpt lat="47.40922" lon="6.61116">
        <ele>433.3</ele>
        <time>2017-06-11T07:34:34.000Z</time>
      </trkpt>
      <trkpt lat="47.40924" lon="6.61111">
        <ele>433.3</ele>
        <time>2017-06-11T07:34:35.000Z</time>
      </trkpt>
      <trkpt lat="47.40927" lon="6.61106">
        <ele>433.1</ele>
        <time>2017-06-11T07:34:36.000Z</time>
      </trkpt>
      <trkpt lat="47.40931" lon="6.61101">
        <ele>433.1</ele>
        <time>2017-06-11T07:34:37.000Z</time>
      </trkpt>
      <trkpt lat="47.40935" lon="6.61096">
        <ele>433.5</ele>
        <time>2017-06-11T07:34:38.000Z</time>
      </trkpt>
      <trkpt lat="47.40939" lon="6.6109">
        <ele>433.8</ele>
        <time>2017-06-11T07:34:39.000Z</time>
      </trkpt>
      <trkpt lat="47.40942" lon="6.61086">
        <ele>433.9</ele>
        <time>2017-06-11T07:34:40.000Z</time>
      </trkpt>
      <trkpt lat="47.40947" lon="6.61083">
        <ele>435.3</ele>
        <time>2017-06-11T07:34:41.000Z</time>
      </trkpt>
      <trkpt lat="47.4095" lon="6.6108">
        <ele>436</ele>
        <time>2017-06-11T07:34:42.000Z</time>
      </trkpt>
      <trkpt lat="47.40954" lon="6.61082">
        <ele>436.2</ele>
        <time>2017-06-11T07:34:43.000Z</time>
      </trkpt>
      <trkpt lat="47.40959" lon="6.61083">
        <ele>436.5</ele>
        <time>2017-06-11T07:34:44.000Z</time>
      </trkpt>
      <trkpt lat="47.40963" lon="6.61082">
        <ele>435.9</ele>
        <time>2017-06-11T07:34:45.000Z</time>
      </trkpt>
      <trkpt lat="47.40968" lon="6.61081">
        <ele>436</ele>
        <time>2017-06-11T07:34:46.000Z</time>
      </trkpt>
      <trkpt lat="47.40972" lon="6.6108">
        <ele>435.9</ele>
        <time>2017-06-11T07:34:47.000Z</time>
      </trkpt>
      <trkpt lat="47.40975" lon="6.6108">
        <ele>435.8</ele>
        <time>2017-06-11T07:34:48.000Z</time>
      </trkpt>
      <trkpt lat="47.40978" lon="6.61079">
        <ele>435.7</ele>
        <time>2017-06-11T07:34:49.000Z</time>
      </trkpt>
      <trkpt lat="47.4098" lon="6.61078">
        <ele>435.6</ele>
        <time>2017-06-11T07:34:50.000Z</time>
      </trkpt>
      <trkpt lat="47.40984" lon="6.61076">
        <ele>435.5</ele>
        <time>2017-06-11T07:34:52.000Z</time>
      </trkpt>
      <trkpt lat="47.40987" lon="6.61073">
        <ele>435.5</ele>
        <time>2017-06-11T07:34:53.000Z</time>
      </trkpt>
      <trkpt lat="47.40988" lon="6.6107">
        <ele>435.5</ele>
        <time>2017-06-11T07:34:54.000Z</time>
      </trkpt>
      <trkpt lat="47.40991" lon="6.61067">
        <ele>435.4</ele>
        <time>2017-06-11T07:34:55.000Z</time>
      </trkpt>
      <trkpt lat="47.40993" lon="6.61065">
        <ele>435.3</ele>
        <time>2017-06-11T07:34:56.000Z</time>
      </trkpt>
      <trkpt lat="47.40995" lon="6.61064">
        <ele>435.1</ele>
        <time>2017-06-11T07:34:57.000Z</time>
      </trkpt>
      <trkpt lat="47.40998" lon="6.61062">
        <ele>435.1</ele>
        <time>2017-06-11T07:34:58.000Z</time>
      </trkpt>
      <trkpt lat="47.41001" lon="6.6106">
        <ele>435.1</ele>
        <time>2017-06-11T07:34:59.000Z</time>
      </trkpt>
      <trkpt lat="47.41003" lon="6.61065">
        <ele>434.8</ele>
        <time>2017-06-11T07:35:02.000Z</time>
      </trkpt>
      <trkpt lat="47.41002" lon="6.6107">
        <ele>434.7</ele>
        <time>2017-06-11T07:35:03.000Z</time>
      </trkpt>
      <trkpt lat="47.40999" lon="6.61075">
        <ele>434.6</ele>
        <time>2017-06-11T07:35:04.000Z</time>
      </trkpt>
      <trkpt lat="47.40997" lon="6.61079">
        <ele>434.4</ele>
        <time>2017-06-11T07:35:05.000Z</time>
      </trkpt>
      <trkpt lat="47.40995" lon="6.61083">
        <ele>434.3</ele>
        <time>2017-06-11T07:35:06.000Z</time>
      </trkpt>
      <trkpt lat="47.40992" lon="6.6109">
        <ele>433.3</ele>
        <time>2017-06-11T07:35:07.000Z</time>
      </trkpt>
      <trkpt lat="47.40991" lon="6.61098">
        <ele>431.9</ele>
        <time>2017-06-11T07:35:08.000Z</time>
      </trkpt>
      <trkpt lat="47.40989" lon="6.61106">
        <ele>430.6</ele>
        <time>2017-06-11T07:35:09.000Z</time>
      </trkpt>
      <trkpt lat="47.40989" lon="6.61113">
        <ele>430.5</ele>
        <time>2017-06-11T07:35:10.000Z</time>
      </trkpt>
      <trkpt lat="47.4099" lon="6.6112">
        <ele>430.4</ele>
        <time>2017-06-11T07:35:11.000Z</time>
      </trkpt>
      <trkpt lat="47.40991" lon="6.61131">
        <ele>430</ele>
        <time>2017-06-11T07:35:12.000Z</time>
      </trkpt>
      <trkpt lat="47.40992" lon="6.61142">
        <ele>430.1</ele>
        <time>2017-06-11T07:35:13.000Z</time>
      </trkpt>
      <trkpt lat="47.40994" lon="6.61152">
        <ele>429.3</ele>
        <time>2017-06-11T07:35:14.000Z</time>
      </trkpt>
      <trkpt lat="47.40998" lon="6.61157">
        <ele>429</ele>
        <time>2017-06-11T07:35:15.000Z</time>
      </trkpt>
      <trkpt lat="47.41" lon="6.61159">
        <ele>428.9</ele>
        <time>2017-06-11T07:35:16.000Z</time>
      </trkpt>
      <trkpt lat="47.41002" lon="6.61161">
        <ele>428.9</ele>
        <time>2017-06-11T07:35:17.000Z</time>
      </trkpt>
      <trkpt lat="47.41004" lon="6.61166">
        <ele>428.9</ele>
        <time>2017-06-11T07:35:18.000Z</time>
      </trkpt>
      <trkpt lat="47.41006" lon="6.6117">
        <ele>428.9</ele>
        <time>2017-06-11T07:35:19.000Z</time>
      </trkpt>
      <trkpt lat="47.41008" lon="6.61172">
        <ele>428.9</ele>
        <time>2017-06-11T07:35:20.000Z</time>
      </trkpt>
      <trkpt lat="47.4101" lon="6.61173">
        <ele>429</ele>
        <time>2017-06-11T07:35:21.000Z</time>
      </trkpt>
      <trkpt lat="47.41013" lon="6.61175">
        <ele>429.2</ele>
        <time>2017-06-11T07:35:23.000Z</time>
      </trkpt>
      <trkpt lat="47.41014" lon="6.61176">
        <ele>429.3</ele>
        <time>2017-06-11T07:35:24.000Z</time>
      </trkpt>
      <trkpt lat="47.41018" lon="6.61177">
        <ele>429.6</ele>
        <time>2017-06-11T07:35:26.000Z</time>
      </trkpt>
      <trkpt lat="47.41021" lon="6.61178">
        <ele>429.6</ele>
        <time>2017-06-11T07:35:27.000Z</time>
      </trkpt>
      <trkpt lat="47.41023" lon="6.6118">
        <ele>429.8</ele>
        <time>2017-06-11T07:35:28.000Z</time>
      </trkpt>
      <trkpt lat="47.41025" lon="6.61181">
        <ele>429.9</ele>
        <time>2017-06-11T07:35:29.000Z</time>
      </trkpt>
      <trkpt lat="47.41028" lon="6.61182">
        <ele>430</ele>
        <time>2017-06-11T07:35:30.000Z</time>
      </trkpt>
      <trkpt lat="47.4103" lon="6.61183">
        <ele>430</ele>
        <time>2017-06-11T07:35:31.000Z</time>
      </trkpt>
      <trkpt lat="47.41033" lon="6.61185">
        <ele>430.1</ele>
        <time>2017-06-11T07:35:32.000Z</time>
      </trkpt>
      <trkpt lat="47.41035" lon="6.61187">
        <ele>430.1</ele>
        <time>2017-06-11T07:35:33.000Z</time>
      </trkpt>
      <trkpt lat="47.41039" lon="6.61189">
        <ele>430.2</ele>
        <time>2017-06-11T07:35:35.000Z</time>
      </trkpt>
      <trkpt lat="47.41041" lon="6.6119">
        <ele>430.3</ele>
        <time>2017-06-11T07:35:36.000Z</time>
      </trkpt>
      <trkpt lat="47.41045" lon="6.61192">
        <ele>430.4</ele>
        <time>2017-06-11T07:35:38.000Z</time>
      </trkpt>
      <trkpt lat="47.41047" lon="6.61192">
        <ele>430.4</ele>
        <time>2017-06-11T07:35:39.000Z</time>
      </trkpt>
      <trkpt lat="47.4105" lon="6.61193">
        <ele>430.4</ele>
        <time>2017-06-11T07:35:40.000Z</time>
      </trkpt>
      <trkpt lat="47.41052" lon="6.61194">
        <ele>430.3</ele>
        <time>2017-06-11T07:35:41.000Z</time>
      </trkpt>
      <trkpt lat="47.41054" lon="6.61196">
        <ele>430.3</ele>
        <time>2017-06-11T07:35:42.000Z</time>
      </trkpt>
      <trkpt lat="47.41057" lon="6.61198">
        <ele>430.2</ele>
        <time>2017-06-11T07:35:43.000Z</time>
      </trkpt>
      <trkpt lat="47.41059" lon="6.61199">
        <ele>430.2</ele>
        <time>2017-06-11T07:35:44.000Z</time>
      </trkpt>
      <trkpt lat="47.41061" lon="6.612">
        <ele>430.2</ele>
        <time>2017-06-11T07:35:45.000Z</time>
      </trkpt>
      <trkpt lat="47.41065" lon="6.61203">
        <ele>430.2</ele>
        <time>2017-06-11T07:35:47.000Z</time>
      </trkpt>
      <trkpt lat="47.41066" lon="6.61205">
        <ele>430.3</ele>
        <time>2017-06-11T07:35:48.000Z</time>
      </trkpt>
      <trkpt lat="47.41069" lon="6.61207">
        <ele>430.4</ele>
        <time>2017-06-11T07:35:49.000Z</time>
      </trkpt>
      <trkpt lat="47.41071" lon="6.61209">
        <ele>430.5</ele>
        <time>2017-06-11T07:35:50.000Z</time>
      </trkpt>
      <trkpt lat="47.41074" lon="6.61214">
        <ele>430.7</ele>
        <time>2017-06-11T07:35:52.000Z</time>
      </trkpt>
      <trkpt lat="47.41075" lon="6.61215">
        <ele>430.9</ele>
        <time>2017-06-11T07:35:53.000Z</time>
      </trkpt>
      <trkpt lat="47.41078" lon="6.61214">
        <ele>431.2</ele>
        <time>2017-06-11T07:35:56.000Z</time>
      </trkpt>
      <trkpt lat="47.4108" lon="6.61215">
        <ele>431.2</ele>
        <time>2017-06-11T07:35:57.000Z</time>
      </trkpt>
      <trkpt lat="47.41083" lon="6.61216">
        <ele>431.3</ele>
        <time>2017-06-11T07:35:58.000Z</time>
      </trkpt>
      <trkpt lat="47.41086" lon="6.61217">
        <ele>431.4</ele>
        <time>2017-06-11T07:35:59.000Z</time>
      </trkpt>
      <trkpt lat="47.41088" lon="6.61218">
        <ele>431.6</ele>
        <time>2017-06-11T07:36:00.000Z</time>
      </trkpt>
      <trkpt lat="47.4109" lon="6.61219">
        <ele>431.7</ele>
        <time>2017-06-11T07:36:01.000Z</time>
      </trkpt>
      <trkpt lat="47.41093" lon="6.6122">
        <ele>431.9</ele>
        <time>2017-06-11T07:36:02.000Z</time>
      </trkpt>
      <trkpt lat="47.41095" lon="6.61221">
        <ele>432</ele>
        <time>2017-06-11T07:36:03.000Z</time>
      </trkpt>
      <trkpt lat="47.41098" lon="6.61223">
        <ele>432.1</ele>
        <time>2017-06-11T07:36:04.000Z</time>
      </trkpt>
      <trkpt lat="47.411" lon="6.61226">
        <ele>432.1</ele>
        <time>2017-06-11T07:36:05.000Z</time>
      </trkpt>
      <trkpt lat="47.41102" lon="6.61228">
        <ele>432.2</ele>
        <time>2017-06-11T07:36:06.000Z</time>
      </trkpt>
      <trkpt lat="47.41104" lon="6.6123">
        <ele>432.2</ele>
        <time>2017-06-11T07:36:07.000Z</time>
      </trkpt>
      <trkpt lat="47.41108" lon="6.61233">
        <ele>432.3</ele>
        <time>2017-06-11T07:36:09.000Z</time>
      </trkpt>
      <trkpt lat="47.4111" lon="6.61234">
        <ele>432.3</ele>
        <time>2017-06-11T07:36:10.000Z</time>
      </trkpt>
      <trkpt lat="47.41113" lon="6.61235">
        <ele>432.4</ele>
        <time>2017-06-11T07:36:11.000Z</time>
      </trkpt>
      <trkpt lat="47.41115" lon="6.61236">
        <ele>432.5</ele>
        <time>2017-06-11T07:36:12.000Z</time>
      </trkpt>
      <trkpt lat="47.41117" lon="6.61238">
        <ele>432.6</ele>
        <time>2017-06-11T07:36:13.000Z</time>
      </trkpt>
      <trkpt lat="47.41119" lon="6.61241">
        <ele>432.7</ele>
        <time>2017-06-11T07:36:14.000Z</time>
      </trkpt>
      <trkpt lat="47.41121" lon="6.61244">
        <ele>432.8</ele>
        <time>2017-06-11T07:36:15.000Z</time>
      </trkpt>
      <trkpt lat="47.41123" lon="6.61246">
        <ele>432.8</ele>
        <time>2017-06-11T07:36:16.000Z</time>
      </trkpt>
      <trkpt lat="47.41126" lon="6.61248">
        <ele>432.8</ele>
        <time>2017-06-11T07:36:17.000Z</time>
      </trkpt>
      <trkpt lat="47.41129" lon="6.6125">
        <ele>432.8</ele>
        <time>2017-06-11T07:36:18.000Z</time>
      </trkpt>
      <trkpt lat="47.41132" lon="6.61252">
        <ele>432.9</ele>
        <time>2017-06-11T07:36:19.000Z</time>
      </trkpt>
      <trkpt lat="47.41135" lon="6.61254">
        <ele>432.8</ele>
        <time>2017-06-11T07:36:20.000Z</time>
      </trkpt>
      <trkpt lat="47.41137" lon="6.61257">
        <ele>432.8</ele>
        <time>2017-06-11T07:36:21.000Z</time>
      </trkpt>
      <trkpt lat="47.4114" lon="6.61259">
        <ele>432.7</ele>
        <time>2017-06-11T07:36:22.000Z</time>
      </trkpt>
      <trkpt lat="47.41141" lon="6.61263">
        <ele>432.7</ele>
        <time>2017-06-11T07:36:24.000Z</time>
      </trkpt>
      <trkpt lat="47.41142" lon="6.61266">
        <ele>432.8</ele>
        <time>2017-06-11T07:36:25.000Z</time>
      </trkpt>
      <trkpt lat="47.41144" lon="6.61269">
        <ele>432.7</ele>
        <time>2017-06-11T07:36:26.000Z</time>
      </trkpt>
      <trkpt lat="47.41147" lon="6.61272">
        <ele>432.6</ele>
        <time>2017-06-11T07:36:27.000Z</time>
      </trkpt>
      <trkpt lat="47.41151" lon="6.61275">
        <ele>432.2</ele>
        <time>2017-06-11T07:36:28.000Z</time>
      </trkpt>
      <trkpt lat="47.41156" lon="6.61278">
        <ele>431.1</ele>
        <time>2017-06-11T07:36:29.000Z</time>
      </trkpt>
      <trkpt lat="47.41161" lon="6.61282">
        <ele>431.1</ele>
        <time>2017-06-11T07:36:30.000Z</time>
      </trkpt>
      <trkpt lat="47.41166" lon="6.61286">
        <ele>430.8</ele>
        <time>2017-06-11T07:36:31.000Z</time>
      </trkpt>
      <trkpt lat="47.41173" lon="6.6129">
        <ele>430.7</ele>
        <time>2017-06-11T07:36:32.000Z</time>
      </trkpt>
      <trkpt lat="47.4118" lon="6.61294">
        <ele>429.9</ele>
        <time>2017-06-11T07:36:33.000Z</time>
      </trkpt>
      <trkpt lat="47.41187" lon="6.61297">
        <ele>429.9</ele>
        <time>2017-06-11T07:36:34.000Z</time>
      </trkpt>
      <trkpt lat="47.41194" lon="6.613">
        <ele>430.2</ele>
        <time>2017-06-11T07:36:35.000Z</time>
      </trkpt>
      <trkpt lat="47.41199" lon="6.61302">
        <ele>430.5</ele>
        <time>2017-06-11T07:36:36.000Z</time>
      </trkpt>
      <trkpt lat="47.41204" lon="6.61304">
        <ele>429.9</ele>
        <time>2017-06-11T07:36:37.000Z</time>
      </trkpt>
      <trkpt lat="47.41211" lon="6.61306">
        <ele>430.3</ele>
        <time>2017-06-11T07:36:38.000Z</time>
      </trkpt>
      <trkpt lat="47.41219" lon="6.61306">
        <ele>430.5</ele>
        <time>2017-06-11T07:36:39.000Z</time>
      </trkpt>
      <trkpt lat="47.41224" lon="6.61304">
        <ele>429.8</ele>
        <time>2017-06-11T07:36:40.000Z</time>
      </trkpt>
      <trkpt lat="47.41228" lon="6.61303">
        <ele>428.9</ele>
        <time>2017-06-11T07:36:41.000Z</time>
      </trkpt>
      <trkpt lat="47.41234" lon="6.61302">
        <ele>428.4</ele>
        <time>2017-06-11T07:36:42.000Z</time>
      </trkpt>
      <trkpt lat="47.4124" lon="6.61302">
        <ele>428.1</ele>
        <time>2017-06-11T07:36:43.000Z</time>
      </trkpt>
      <trkpt lat="47.41247" lon="6.61299">
        <ele>427.7</ele>
        <time>2017-06-11T07:36:44.000Z</time>
      </trkpt>
      <trkpt lat="47.41253" lon="6.61292">
        <ele>427.5</ele>
        <time>2017-06-11T07:36:45.000Z</time>
      </trkpt>
      <trkpt lat="47.41258" lon="6.61287">
        <ele>427.4</ele>
        <time>2017-06-11T07:36:46.000Z</time>
      </trkpt>
      <trkpt lat="47.41262" lon="6.6128">
        <ele>427.3</ele>
        <time>2017-06-11T07:36:47.000Z</time>
      </trkpt>
      <trkpt lat="47.41265" lon="6.61271">
        <ele>427</ele>
        <time>2017-06-11T07:36:48.000Z</time>
      </trkpt>
      <trkpt lat="47.41268" lon="6.61263">
        <ele>426.9</ele>
        <time>2017-06-11T07:36:49.000Z</time>
      </trkpt>
      <trkpt lat="47.4127" lon="6.61256">
        <ele>427.1</ele>
        <time>2017-06-11T07:36:50.000Z</time>
      </trkpt>
      <trkpt lat="47.41273" lon="6.61248">
        <ele>426.5</ele>
        <time>2017-06-11T07:36:51.000Z</time>
      </trkpt>
      <trkpt lat="47.41277" lon="6.61241">
        <ele>426.5</ele>
        <time>2017-06-11T07:36:52.000Z</time>
      </trkpt>
      <trkpt lat="47.41282" lon="6.61237">
        <ele>426.6</ele>
        <time>2017-06-11T07:36:53.000Z</time>
      </trkpt>
      <trkpt lat="47.41287" lon="6.61232">
        <ele>426.3</ele>
        <time>2017-06-11T07:36:54.000Z</time>
      </trkpt>
      <trkpt lat="47.41292" lon="6.61224">
        <ele>426.3</ele>
        <time>2017-06-11T07:36:55.000Z</time>
      </trkpt>
      <trkpt lat="47.41296" lon="6.61217">
        <ele>426.9</ele>
        <time>2017-06-11T07:36:56.000Z</time>
      </trkpt>
      <trkpt lat="47.41301" lon="6.61211">
        <ele>427.3</ele>
        <time>2017-06-11T07:36:57.000Z</time>
      </trkpt>
      <trkpt lat="47.41307" lon="6.61204">
        <ele>427.5</ele>
        <time>2017-06-11T07:36:58.000Z</time>
      </trkpt>
      <trkpt lat="47.41313" lon="6.61196">
        <ele>427</ele>
        <time>2017-06-11T07:36:59.000Z</time>
      </trkpt>
      <trkpt lat="47.41318" lon="6.6119">
        <ele>426.8</ele>
        <time>2017-06-11T07:37:00.000Z</time>
      </trkpt>
      <trkpt lat="47.41323" lon="6.61184">
        <ele>426.3</ele>
        <time>2017-06-11T07:37:01.000Z</time>
      </trkpt>
      <trkpt lat="47.41328" lon="6.61178">
        <ele>425.7</ele>
        <time>2017-06-11T07:37:02.000Z</time>
      </trkpt>
      <trkpt lat="47.41334" lon="6.61171">
        <ele>425.4</ele>
        <time>2017-06-11T07:37:03.000Z</time>
      </trkpt>
      <trkpt lat="47.4134" lon="6.61163">
        <ele>424.8</ele>
        <time>2017-06-11T07:37:04.000Z</time>
      </trkpt>
      <trkpt lat="47.41346" lon="6.61155">
        <ele>424.3</ele>
        <time>2017-06-11T07:37:05.000Z</time>
      </trkpt>
      <trkpt lat="47.41353" lon="6.61146">
        <ele>423.8</ele>
        <time>2017-06-11T07:37:06.000Z</time>
      </trkpt>
      <trkpt lat="47.41359" lon="6.61137">
        <ele>422.7</ele>
        <time>2017-06-11T07:37:07.000Z</time>
      </trkpt>
      <trkpt lat="47.41365" lon="6.61129">
        <ele>421.8</ele>
        <time>2017-06-11T07:37:08.000Z</time>
      </trkpt>
      <trkpt lat="47.41369" lon="6.61123">
        <ele>420.6</ele>
        <time>2017-06-11T07:37:09.000Z</time>
      </trkpt>
      <trkpt lat="47.41373" lon="6.6112">
        <ele>419.7</ele>
        <time>2017-06-11T07:37:10.000Z</time>
      </trkpt>
      <trkpt lat="47.41379" lon="6.6112">
        <ele>419.1</ele>
        <time>2017-06-11T07:37:11.000Z</time>
      </trkpt>
      <trkpt lat="47.41386" lon="6.6112">
        <ele>418.9</ele>
        <time>2017-06-11T07:37:12.000Z</time>
      </trkpt>
      <trkpt lat="47.41392" lon="6.6112">
        <ele>419.3</ele>
        <time>2017-06-11T07:37:13.000Z</time>
      </trkpt>
      <trkpt lat="47.41399" lon="6.61119">
        <ele>418.9</ele>
        <time>2017-06-11T07:37:14.000Z</time>
      </trkpt>
      <trkpt lat="47.41406" lon="6.61119">
        <ele>419.1</ele>
        <time>2017-06-11T07:37:15.000Z</time>
      </trkpt>
      <trkpt lat="47.41411" lon="6.61118">
        <ele>419.1</ele>
        <time>2017-06-11T07:37:16.000Z</time>
      </trkpt>
      <trkpt lat="47.41417" lon="6.61116">
        <ele>418.1</ele>
        <time>2017-06-11T07:37:17.000Z</time>
      </trkpt>
      <trkpt lat="47.41423" lon="6.61114">
        <ele>417.1</ele>
        <time>2017-06-11T07:37:18.000Z</time>
      </trkpt>
      <trkpt lat="47.4143" lon="6.6111">
        <ele>416.8</ele>
        <time>2017-06-11T07:37:19.000Z</time>
      </trkpt>
      <trkpt lat="47.41437" lon="6.61107">
        <ele>416</ele>
        <time>2017-06-11T07:37:20.000Z</time>
      </trkpt>
      <trkpt lat="47.41444" lon="6.61105">
        <ele>415.3</ele>
        <time>2017-06-11T07:37:21.000Z</time>
      </trkpt>
      <trkpt lat="47.4145" lon="6.61104">
        <ele>414.2</ele>
        <time>2017-06-11T07:37:22.000Z</time>
      </trkpt>
      <trkpt lat="47.41457" lon="6.61104">
        <ele>413.3</ele>
        <time>2017-06-11T07:37:23.000Z</time>
      </trkpt>
      <trkpt lat="47.41463" lon="6.61104">
        <ele>411.7</ele>
        <time>2017-06-11T07:37:24.000Z</time>
      </trkpt>
      <trkpt lat="47.4147" lon="6.61105">
        <ele>410.6</ele>
        <time>2017-06-11T07:37:25.000Z</time>
      </trkpt>
      <trkpt lat="47.41476" lon="6.61105">
        <ele>410.1</ele>
        <time>2017-06-11T07:37:26.000Z</time>
      </trkpt>
      <trkpt lat="47.41482" lon="6.61104">
        <ele>410</ele>
        <time>2017-06-11T07:37:27.000Z</time>
      </trkpt>
      <trkpt lat="47.41488" lon="6.61103">
        <ele>408.7</ele>
        <time>2017-06-11T07:37:28.000Z</time>
      </trkpt>
      <trkpt lat="47.41494" lon="6.61102">
        <ele>407.3</ele>
        <time>2017-06-11T07:37:29.000Z</time>
      </trkpt>
      <trkpt lat="47.41501" lon="6.61103">
        <ele>406.9</ele>
        <time>2017-06-11T07:37:30.000Z</time>
      </trkpt>
      <trkpt lat="47.41507" lon="6.61104">
        <ele>405.8</ele>
        <time>2017-06-11T07:37:31.000Z</time>
      </trkpt>
      <trkpt lat="47.41513" lon="6.61106">
        <ele>404.6</ele>
        <time>2017-06-11T07:37:32.000Z</time>
      </trkpt>
      <trkpt lat="47.41521" lon="6.61111">
        <ele>404.1</ele>
        <time>2017-06-11T07:37:33.000Z</time>
      </trkpt>
      <trkpt lat="47.41528" lon="6.61117">
        <ele>404.5</ele>
        <time>2017-06-11T07:37:34.000Z</time>
      </trkpt>
      <trkpt lat="47.41535" lon="6.61122">
        <ele>404.3</ele>
        <time>2017-06-11T07:37:35.000Z</time>
      </trkpt>
      <trkpt lat="47.41542" lon="6.61126">
        <ele>403</ele>
        <time>2017-06-11T07:37:36.000Z</time>
      </trkpt>
      <trkpt lat="47.4155" lon="6.61129">
        <ele>400.7</ele>
        <time>2017-06-11T07:37:37.000Z</time>
      </trkpt>
      <trkpt lat="47.41554" lon="6.61129">
        <ele>399.5</ele>
        <time>2017-06-11T07:37:38.000Z</time>
      </trkpt>
      <trkpt lat="47.41558" lon="6.61129">
        <ele>398</ele>
        <time>2017-06-11T07:37:39.000Z</time>
      </trkpt>
      <trkpt lat="47.41562" lon="6.6113">
        <ele>395.6</ele>
        <time>2017-06-11T07:37:40.000Z</time>
      </trkpt>
      <trkpt lat="47.41567" lon="6.6113">
        <ele>392.7</ele>
        <time>2017-06-11T07:37:41.000Z</time>
      </trkpt>
      <trkpt lat="47.41571" lon="6.61128">
        <ele>390.8</ele>
        <time>2017-06-11T07:37:42.000Z</time>
      </trkpt>
      <trkpt lat="47.41576" lon="6.61123">
        <ele>389.3</ele>
        <time>2017-06-11T07:37:43.000Z</time>
      </trkpt>
      <trkpt lat="47.41581" lon="6.61119">
        <ele>389.1</ele>
        <time>2017-06-11T07:37:44.000Z</time>
      </trkpt>
      <trkpt lat="47.41587" lon="6.61114">
        <ele>389</ele>
        <time>2017-06-11T07:37:45.000Z</time>
      </trkpt>
      <trkpt lat="47.41594" lon="6.6111">
        <ele>387.8</ele>
        <time>2017-06-11T07:37:46.000Z</time>
      </trkpt>
      <trkpt lat="47.416" lon="6.61107">
        <ele>387.7</ele>
        <time>2017-06-11T07:37:47.000Z</time>
      </trkpt>
      <trkpt lat="47.41606" lon="6.61102">
        <ele>386.7</ele>
        <time>2017-06-11T07:37:48.000Z</time>
      </trkpt>
      <trkpt lat="47.41612" lon="6.61097">
        <ele>386.4</ele>
        <time>2017-06-11T07:37:49.000Z</time>
      </trkpt>
      <trkpt lat="47.41616" lon="6.6109">
        <ele>386.1</ele>
        <time>2017-06-11T07:37:50.000Z</time>
      </trkpt>
      <trkpt lat="47.41621" lon="6.61086">
        <ele>386.2</ele>
        <time>2017-06-11T07:37:51.000Z</time>
      </trkpt>
      <trkpt lat="47.41623" lon="6.61084">
        <ele>386.2</ele>
        <time>2017-06-11T07:37:52.000Z</time>
      </trkpt>
      <trkpt lat="47.41626" lon="6.61082">
        <ele>386.2</ele>
        <time>2017-06-11T07:37:53.000Z</time>
      </trkpt>
      <trkpt lat="47.4163" lon="6.6108">
        <ele>386.2</ele>
        <time>2017-06-11T07:37:54.000Z</time>
      </trkpt>
      <trkpt lat="47.41634" lon="6.61078">
        <ele>385.7</ele>
        <time>2017-06-11T07:37:55.000Z</time>
      </trkpt>
      <trkpt lat="47.4164" lon="6.61077">
        <ele>385.4</ele>
        <time>2017-06-11T07:37:56.000Z</time>
      </trkpt>
      <trkpt lat="47.41643" lon="6.61075">
        <ele>385.4</ele>
        <time>2017-06-11T07:37:57.000Z</time>
      </trkpt>
      <trkpt lat="47.41646" lon="6.61076">
        <ele>385.4</ele>
        <time>2017-06-11T07:37:58.000Z</time>
      </trkpt>
      <trkpt lat="47.4165" lon="6.61076">
        <ele>385.3</ele>
        <time>2017-06-11T07:37:59.000Z</time>
      </trkpt>
      <trkpt lat="47.41653" lon="6.61074">
        <ele>385.3</ele>
        <time>2017-06-11T07:38:00.000Z</time>
      </trkpt>
      <trkpt lat="47.41657" lon="6.61071">
        <ele>385.3</ele>
        <time>2017-06-11T07:38:01.000Z</time>
      </trkpt>
      <trkpt lat="47.41661" lon="6.61069">
        <ele>385.2</ele>
        <time>2017-06-11T07:38:02.000Z</time>
      </trkpt>
      <trkpt lat="47.41664" lon="6.61069">
        <ele>385.1</ele>
        <time>2017-06-11T07:38:03.000Z</time>
      </trkpt>
      <trkpt lat="47.41667" lon="6.61069">
        <ele>385</ele>
        <time>2017-06-11T07:38:04.000Z</time>
      </trkpt>
      <trkpt lat="47.4167" lon="6.61069">
        <ele>384.9</ele>
        <time>2017-06-11T07:38:05.000Z</time>
      </trkpt>
      <trkpt lat="47.41673" lon="6.61068">
        <ele>384.7</ele>
        <time>2017-06-11T07:38:06.000Z</time>
      </trkpt>
      <trkpt lat="47.41675" lon="6.61067">
        <ele>384.6</ele>
        <time>2017-06-11T07:38:07.000Z</time>
      </trkpt>
      <trkpt lat="47.41678" lon="6.61066">
        <ele>384.5</ele>
        <time>2017-06-11T07:38:08.000Z</time>
      </trkpt>
      <trkpt lat="47.41681" lon="6.61065">
        <ele>384.4</ele>
        <time>2017-06-11T07:38:09.000Z</time>
      </trkpt>
      <trkpt lat="47.41684" lon="6.61064">
        <ele>384.2</ele>
        <time>2017-06-11T07:38:10.000Z</time>
      </trkpt>
      <trkpt lat="47.41688" lon="6.61062">
        <ele>384.1</ele>
        <time>2017-06-11T07:38:11.000Z</time>
      </trkpt>
      <trkpt lat="47.4169" lon="6.61062">
        <ele>384.1</ele>
        <time>2017-06-11T07:38:12.000Z</time>
      </trkpt>
      <trkpt lat="47.41692" lon="6.61062">
        <ele>384.1</ele>
        <time>2017-06-11T07:38:13.000Z</time>
      </trkpt>
      <trkpt lat="47.41696" lon="6.61061">
        <ele>384.1</ele>
        <time>2017-06-11T07:38:14.000Z</time>
      </trkpt>
      <trkpt lat="47.41699" lon="6.61061">
        <ele>384.1</ele>
        <time>2017-06-11T07:38:15.000Z</time>
      </trkpt>
      <trkpt lat="47.41703" lon="6.61062">
        <ele>383.9</ele>
        <time>2017-06-11T07:38:17.000Z</time>
      </trkpt>
      <trkpt lat="47.41705" lon="6.61063">
        <ele>383.8</ele>
        <time>2017-06-11T07:38:18.000Z</time>
      </trkpt>
      <trkpt lat="47.41708" lon="6.61064">
        <ele>383.7</ele>
        <time>2017-06-11T07:38:19.000Z</time>
      </trkpt>
      <trkpt lat="47.41712" lon="6.61065">
        <ele>383.1</ele>
        <time>2017-06-11T07:38:20.000Z</time>
      </trkpt>
      <trkpt lat="47.41715" lon="6.61067">
        <ele>382.9</ele>
        <time>2017-06-11T07:38:21.000Z</time>
      </trkpt>
      <trkpt lat="47.41718" lon="6.61069">
        <ele>382.9</ele>
        <time>2017-06-11T07:38:22.000Z</time>
      </trkpt>
      <trkpt lat="47.4172" lon="6.6107">
        <ele>382.7</ele>
        <time>2017-06-11T07:38:23.000Z</time>
      </trkpt>
      <trkpt lat="47.41725" lon="6.61072">
        <ele>382.5</ele>
        <time>2017-06-11T07:38:24.000Z</time>
      </trkpt>
      <trkpt lat="47.41729" lon="6.61073">
        <ele>382.4</ele>
        <time>2017-06-11T07:38:25.000Z</time>
      </trkpt>
      <trkpt lat="47.41731" lon="6.61072">
        <ele>382.4</ele>
        <time>2017-06-11T07:38:26.000Z</time>
      </trkpt>
      <trkpt lat="47.41736" lon="6.61069">
        <ele>382.2</ele>
        <time>2017-06-11T07:38:27.000Z</time>
      </trkpt>
      <trkpt lat="47.41739" lon="6.61066">
        <ele>382</ele>
        <time>2017-06-11T07:38:28.000Z</time>
      </trkpt>
      <trkpt lat="47.41742" lon="6.61063">
        <ele>381.8</ele>
        <time>2017-06-11T07:38:29.000Z</time>
      </trkpt>
      <trkpt lat="47.41745" lon="6.61061">
        <ele>381.5</ele>
        <time>2017-06-11T07:38:30.000Z</time>
      </trkpt>
      <trkpt lat="47.41747" lon="6.61061">
        <ele>381.3</ele>
        <time>2017-06-11T07:38:31.000Z</time>
      </trkpt>
      <trkpt lat="47.41749" lon="6.61061">
        <ele>381.1</ele>
        <time>2017-06-11T07:38:32.000Z</time>
      </trkpt>
      <trkpt lat="47.41752" lon="6.61063">
        <ele>380.9</ele>
        <time>2017-06-11T07:38:33.000Z</time>
      </trkpt>
      <trkpt lat="47.41753" lon="6.61067">
        <ele>380.7</ele>
        <time>2017-06-11T07:38:34.000Z</time>
      </trkpt>
      <trkpt lat="47.41753" lon="6.61072">
        <ele>380.4</ele>
        <time>2017-06-11T07:38:35.000Z</time>
      </trkpt>
      <trkpt lat="47.41753" lon="6.61076">
        <ele>380.1</ele>
        <time>2017-06-11T07:38:36.000Z</time>
      </trkpt>
      <trkpt lat="47.41753" lon="6.61081">
        <ele>379.8</ele>
        <time>2017-06-11T07:38:37.000Z</time>
      </trkpt>
      <trkpt lat="47.41752" lon="6.61083">
        <ele>379.7</ele>
        <time>2017-06-11T07:38:38.000Z</time>
      </trkpt>
      <trkpt lat="47.41752" lon="6.61083">
        <ele>378.9</ele>
        <time>2017-06-11T07:39:03.000Z</time>
      </trkpt>
      <trkpt lat="47.41749" lon="6.61094">
        <ele>378.9</ele>
        <time>2017-06-11T07:39:04.000Z</time>
      </trkpt>
      <trkpt lat="47.41747" lon="6.61099">
        <ele>378.8</ele>
        <time>2017-06-11T07:39:07.000Z</time>
      </trkpt>
      <trkpt lat="47.41747" lon="6.61102">
        <ele>378.8</ele>
        <time>2017-06-11T07:39:08.000Z</time>
      </trkpt>
      <trkpt lat="47.41746" lon="6.61105">
        <ele>378.7</ele>
        <time>2017-06-11T07:39:09.000Z</time>
      </trkpt>
      <trkpt lat="47.41745" lon="6.61109">
        <ele>378.7</ele>
        <time>2017-06-11T07:39:10.000Z</time>
      </trkpt>
      <trkpt lat="47.41744" lon="6.61115">
        <ele>378.7</ele>
        <time>2017-06-11T07:39:12.000Z</time>
      </trkpt>
      <trkpt lat="47.41743" lon="6.61118">
        <ele>378.7</ele>
        <time>2017-06-11T07:39:13.000Z</time>
      </trkpt>
      <trkpt lat="47.41742" lon="6.61123">
        <ele>378.3</ele>
        <time>2017-06-11T07:39:14.000Z</time>
      </trkpt>
      <trkpt lat="47.41741" lon="6.61127">
        <ele>377.7</ele>
        <time>2017-06-11T07:39:15.000Z</time>
      </trkpt>
      <trkpt lat="47.41739" lon="6.61133">
        <ele>376.6</ele>
        <time>2017-06-11T07:39:16.000Z</time>
      </trkpt>
      <trkpt lat="47.41737" lon="6.61138">
        <ele>376.1</ele>
        <time>2017-06-11T07:39:17.000Z</time>
      </trkpt>
      <trkpt lat="47.41734" lon="6.61146">
        <ele>374.9</ele>
        <time>2017-06-11T07:39:18.000Z</time>
      </trkpt>
      <trkpt lat="47.41731" lon="6.61153">
        <ele>374.1</ele>
        <time>2017-06-11T07:39:19.000Z</time>
      </trkpt>
      <trkpt lat="47.41728" lon="6.61161">
        <ele>373.3</ele>
        <time>2017-06-11T07:39:20.000Z</time>
      </trkpt>
      <trkpt lat="47.41726" lon="6.61169">
        <ele>372.4</ele>
        <time>2017-06-11T07:39:21.000Z</time>
      </trkpt>
      <trkpt lat="47.41723" lon="6.61178">
        <ele>370.8</ele>
        <time>2017-06-11T07:39:22.000Z</time>
      </trkpt>
      <trkpt lat="47.41721" lon="6.6119">
        <ele>368</ele>
        <time>2017-06-11T07:39:23.000Z</time>
      </trkpt>
      <trkpt lat="47.41718" lon="6.61203">
        <ele>365.5</ele>
        <time>2017-06-11T07:39:24.000Z</time>
      </trkpt>
      <trkpt lat="47.41715" lon="6.61216">
        <ele>363.7</ele>
        <time>2017-06-11T07:39:25.000Z</time>
      </trkpt>
      <trkpt lat="47.41712" lon="6.61228">
        <ele>362</ele>
        <time>2017-06-11T07:39:26.000Z</time>
      </trkpt>
      <trkpt lat="47.41709" lon="6.61242">
        <ele>360.1</ele>
        <time>2017-06-11T07:39:27.000Z</time>
      </trkpt>
      <trkpt lat="47.41706" lon="6.61253">
        <ele>359.3</ele>
        <time>2017-06-11T07:39:28.000Z</time>
      </trkpt>
      <trkpt lat="47.41704" lon="6.61264">
        <ele>359.3</ele>
        <time>2017-06-11T07:39:29.000Z</time>
      </trkpt>
      <trkpt lat="47.41702" lon="6.61277">
        <ele>358.3</ele>
        <time>2017-06-11T07:39:30.000Z</time>
      </trkpt>
      <trkpt lat="47.41701" lon="6.61288">
        <ele>358.3</ele>
        <time>2017-06-11T07:39:31.000Z</time>
      </trkpt>
      <trkpt lat="47.417" lon="6.61299">
        <ele>358.3</ele>
        <time>2017-06-11T07:39:32.000Z</time>
      </trkpt>
      <trkpt lat="47.41699" lon="6.61307">
        <ele>358.6</ele>
        <time>2017-06-11T07:39:33.000Z</time>
      </trkpt>
      <trkpt lat="47.41697" lon="6.61316">
        <ele>357.9</ele>
        <time>2017-06-11T07:39:34.000Z</time>
      </trkpt>
      <trkpt lat="47.41695" lon="6.61324">
        <ele>357.8</ele>
        <time>2017-06-11T07:39:35.000Z</time>
      </trkpt>
      <trkpt lat="47.41693" lon="6.61331">
        <ele>357.9</ele>
        <time>2017-06-11T07:39:36.000Z</time>
      </trkpt>
      <trkpt lat="47.41693" lon="6.61338">
        <ele>358.3</ele>
        <time>2017-06-11T07:39:37.000Z</time>
      </trkpt>
      <trkpt lat="47.41691" lon="6.61343">
        <ele>358.3</ele>
        <time>2017-06-11T07:39:38.000Z</time>
      </trkpt>
      <trkpt lat="47.41689" lon="6.61348">
        <ele>358.7</ele>
        <time>2017-06-11T07:39:39.000Z</time>
      </trkpt>
      <trkpt lat="47.41688" lon="6.61353">
        <ele>359.2</ele>
        <time>2017-06-11T07:39:40.000Z</time>
      </trkpt>
      <trkpt lat="47.41687" lon="6.61357">
        <ele>359.2</ele>
        <time>2017-06-11T07:39:41.000Z</time>
      </trkpt>
      <trkpt lat="47.41685" lon="6.61362">
        <ele>359.3</ele>
        <time>2017-06-11T07:39:42.000Z</time>
      </trkpt>
      <trkpt lat="47.41683" lon="6.61368">
        <ele>359.3</ele>
        <time>2017-06-11T07:39:43.000Z</time>
      </trkpt>
      <trkpt lat="47.41681" lon="6.61374">
        <ele>359.5</ele>
        <time>2017-06-11T07:39:44.000Z</time>
      </trkpt>
      <trkpt lat="47.41679" lon="6.61379">
        <ele>359.6</ele>
        <time>2017-06-11T07:39:45.000Z</time>
      </trkpt>
      <trkpt lat="47.41678" lon="6.61384">
        <ele>359.8</ele>
        <time>2017-06-11T07:39:46.000Z</time>
      </trkpt>
      <trkpt lat="47.41676" lon="6.61389">
        <ele>360</ele>
        <time>2017-06-11T07:39:47.000Z</time>
      </trkpt>
      <trkpt lat="47.41674" lon="6.61393">
        <ele>360.2</ele>
        <time>2017-06-11T07:39:48.000Z</time>
      </trkpt>
      <trkpt lat="47.41671" lon="6.61397">
        <ele>360.4</ele>
        <time>2017-06-11T07:39:49.000Z</time>
      </trkpt>
      <trkpt lat="47.41669" lon="6.61401">
        <ele>360.6</ele>
        <time>2017-06-11T07:39:50.000Z</time>
      </trkpt>
      <trkpt lat="47.41667" lon="6.61405">
        <ele>360.7</ele>
        <time>2017-06-11T07:39:51.000Z</time>
      </trkpt>
      <trkpt lat="47.41665" lon="6.61408">
        <ele>360.8</ele>
        <time>2017-06-11T07:39:52.000Z</time>
      </trkpt>
      <trkpt lat="47.41663" lon="6.61412">
        <ele>360.9</ele>
        <time>2017-06-11T07:39:53.000Z</time>
      </trkpt>
      <trkpt lat="47.4166" lon="6.61417">
        <ele>360.9</ele>
        <time>2017-06-11T07:39:54.000Z</time>
      </trkpt>
      <trkpt lat="47.41658" lon="6.61421">
        <ele>361</ele>
        <time>2017-06-11T07:39:55.000Z</time>
      </trkpt>
      <trkpt lat="47.41656" lon="6.61426">
        <ele>361</ele>
        <time>2017-06-11T07:39:56.000Z</time>
      </trkpt>
      <trkpt lat="47.41654" lon="6.61431">
        <ele>361</ele>
        <time>2017-06-11T07:39:57.000Z</time>
      </trkpt>
      <trkpt lat="47.41652" lon="6.61435">
        <ele>361.1</ele>
        <time>2017-06-11T07:39:58.000Z</time>
      </trkpt>
      <trkpt lat="47.4165" lon="6.6144">
        <ele>361.2</ele>
        <time>2017-06-11T07:39:59.000Z</time>
      </trkpt>
      <trkpt lat="47.41648" lon="6.61446">
        <ele>361.7</ele>
        <time>2017-06-11T07:40:00.000Z</time>
      </trkpt>
      <trkpt lat="47.41646" lon="6.61452">
        <ele>362.8</ele>
        <time>2017-06-11T07:40:01.000Z</time>
      </trkpt>
      <trkpt lat="47.41645" lon="6.61457">
        <ele>362.9</ele>
        <time>2017-06-11T07:40:02.000Z</time>
      </trkpt>
      <trkpt lat="47.41643" lon="6.61463">
        <ele>362.9</ele>
        <time>2017-06-11T07:40:03.000Z</time>
      </trkpt>
      <trkpt lat="47.41641" lon="6.61469">
        <ele>364</ele>
        <time>2017-06-11T07:40:04.000Z</time>
      </trkpt>
      <trkpt lat="47.41638" lon="6.61476">
        <ele>365</ele>
        <time>2017-06-11T07:40:05.000Z</time>
      </trkpt>
      <trkpt lat="47.41636" lon="6.61483">
        <ele>365.7</ele>
        <time>2017-06-11T07:40:06.000Z</time>
      </trkpt>
      <trkpt lat="47.41634" lon="6.61489">
        <ele>366.4</ele>
        <time>2017-06-11T07:40:07.000Z</time>
      </trkpt>
      <trkpt lat="47.41633" lon="6.61494">
        <ele>367.4</ele>
        <time>2017-06-11T07:40:08.000Z</time>
      </trkpt>
      <trkpt lat="47.41631" lon="6.615">
        <ele>368.4</ele>
        <time>2017-06-11T07:40:09.000Z</time>
      </trkpt>
      <trkpt lat="47.41629" lon="6.61505">
        <ele>369.6</ele>
        <time>2017-06-11T07:40:10.000Z</time>
      </trkpt>
      <trkpt lat="47.41627" lon="6.61511">
        <ele>370.9</ele>
        <time>2017-06-11T07:40:11.000Z</time>
      </trkpt>
      <trkpt lat="47.41625" lon="6.61517">
        <ele>371.7</ele>
        <time>2017-06-11T07:40:12.000Z</time>
      </trkpt>
      <trkpt lat="47.41623" lon="6.61523">
        <ele>371.7</ele>
        <time>2017-06-11T07:40:13.000Z</time>
      </trkpt>
      <trkpt lat="47.41621" lon="6.61528">
        <ele>371.6</ele>
        <time>2017-06-11T07:40:14.000Z</time>
      </trkpt>
      <trkpt lat="47.41619" lon="6.61534">
        <ele>371.4</ele>
        <time>2017-06-11T07:40:15.000Z</time>
      </trkpt>
      <trkpt lat="47.41617" lon="6.6154">
        <ele>371</ele>
        <time>2017-06-11T07:40:16.000Z</time>
      </trkpt>
      <trkpt lat="47.41615" lon="6.61546">
        <ele>370.8</ele>
        <time>2017-06-11T07:40:17.000Z</time>
      </trkpt>
      <trkpt lat="47.41613" lon="6.61551">
        <ele>370.5</ele>
        <time>2017-06-11T07:40:18.000Z</time>
      </trkpt>
      <trkpt lat="47.41611" lon="6.61557">
        <ele>370.6</ele>
        <time>2017-06-11T07:40:19.000Z</time>
      </trkpt>
      <trkpt lat="47.41609" lon="6.61563">
        <ele>370.6</ele>
        <time>2017-06-11T07:40:20.000Z</time>
      </trkpt>
      <trkpt lat="47.41607" lon="6.61569">
        <ele>370</ele>
        <time>2017-06-11T07:40:21.000Z</time>
      </trkpt>
      <trkpt lat="47.41605" lon="6.61575">
        <ele>369.7</ele>
        <time>2017-06-11T07:40:22.000Z</time>
      </trkpt>
      <trkpt lat="47.41603" lon="6.6158">
        <ele>370.1</ele>
        <time>2017-06-11T07:40:23.000Z</time>
      </trkpt>
      <trkpt lat="47.41601" lon="6.61586">
        <ele>370.4</ele>
        <time>2017-06-11T07:40:24.000Z</time>
      </trkpt>
      <trkpt lat="47.41599" lon="6.61592">
        <ele>370.9</ele>
        <time>2017-06-11T07:40:25.000Z</time>
      </trkpt>
      <trkpt lat="47.41597" lon="6.61598">
        <ele>371.3</ele>
        <time>2017-06-11T07:40:26.000Z</time>
      </trkpt>
      <trkpt lat="47.41596" lon="6.61604">
        <ele>371.7</ele>
        <time>2017-06-11T07:40:27.000Z</time>
      </trkpt>
      <trkpt lat="47.41594" lon="6.61609">
        <ele>371.5</ele>
        <time>2017-06-11T07:40:28.000Z</time>
      </trkpt>
      <trkpt lat="47.41592" lon="6.61614">
        <ele>371.9</ele>
        <time>2017-06-11T07:40:29.000Z</time>
      </trkpt>
      <trkpt lat="47.41591" lon="6.6162">
        <ele>372.2</ele>
        <time>2017-06-11T07:40:30.000Z</time>
      </trkpt>
      <trkpt lat="47.41589" lon="6.61625">
        <ele>372.3</ele>
        <time>2017-06-11T07:40:31.000Z</time>
      </trkpt>
      <trkpt lat="47.41587" lon="6.61631">
        <ele>372.4</ele>
        <time>2017-06-11T07:40:32.000Z</time>
      </trkpt>
      <trkpt lat="47.41585" lon="6.61637">
        <ele>372.1</ele>
        <time>2017-06-11T07:40:33.000Z</time>
      </trkpt>
      <trkpt lat="47.41582" lon="6.61644">
        <ele>371.9</ele>
        <time>2017-06-11T07:40:34.000Z</time>
      </trkpt>
      <trkpt lat="47.41581" lon="6.61649">
        <ele>370.9</ele>
        <time>2017-06-11T07:40:35.000Z</time>
      </trkpt>
      <trkpt lat="47.41579" lon="6.61655">
        <ele>370.2</ele>
        <time>2017-06-11T07:40:36.000Z</time>
      </trkpt>
      <trkpt lat="47.41577" lon="6.61661">
        <ele>369.6</ele>
        <time>2017-06-11T07:40:37.000Z</time>
      </trkpt>
      <trkpt lat="47.41574" lon="6.61666">
        <ele>369.4</ele>
        <time>2017-06-11T07:40:38.000Z</time>
      </trkpt>
      <trkpt lat="47.41573" lon="6.61671">
        <ele>369.3</ele>
        <time>2017-06-11T07:40:39.000Z</time>
      </trkpt>
      <trkpt lat="47.4157" lon="6.61676">
        <ele>369.1</ele>
        <time>2017-06-11T07:40:40.000Z</time>
      </trkpt>
      <trkpt lat="47.41568" lon="6.61682">
        <ele>369</ele>
        <time>2017-06-11T07:40:41.000Z</time>
      </trkpt>
      <trkpt lat="47.41566" lon="6.61688">
        <ele>368.6</ele>
        <time>2017-06-11T07:40:42.000Z</time>
      </trkpt>
      <trkpt lat="47.41564" lon="6.61694">
        <ele>368.5</ele>
        <time>2017-06-11T07:40:43.000Z</time>
      </trkpt>
      <trkpt lat="47.41562" lon="6.61701">
        <ele>368.2</ele>
        <time>2017-06-11T07:40:44.000Z</time>
      </trkpt>
      <trkpt lat="47.4156" lon="6.61707">
        <ele>367.8</ele>
        <time>2017-06-11T07:40:45.000Z</time>
      </trkpt>
      <trkpt lat="47.41558" lon="6.61713">
        <ele>368.4</ele>
        <time>2017-06-11T07:40:46.000Z</time>
      </trkpt>
      <trkpt lat="47.41558" lon="6.61721">
        <ele>369.2</ele>
        <time>2017-06-11T07:40:47.000Z</time>
      </trkpt>
      <trkpt lat="47.41557" lon="6.61729">
        <ele>370.3</ele>
        <time>2017-06-11T07:40:48.000Z</time>
      </trkpt>
      <trkpt lat="47.41557" lon="6.61736">
        <ele>371</ele>
        <time>2017-06-11T07:40:49.000Z</time>
      </trkpt>
      <trkpt lat="47.41556" lon="6.61744">
        <ele>371.1</ele>
        <time>2017-06-11T07:40:50.000Z</time>
      </trkpt>
      <trkpt lat="47.41556" lon="6.61751">
        <ele>371.3</ele>
        <time>2017-06-11T07:40:51.000Z</time>
      </trkpt>
      <trkpt lat="47.41556" lon="6.61759">
        <ele>371.7</ele>
        <time>2017-06-11T07:40:52.000Z</time>
      </trkpt>
      <trkpt lat="47.41555" lon="6.61769">
        <ele>371.7</ele>
        <time>2017-06-11T07:40:53.000Z</time>
      </trkpt>
      <trkpt lat="47.41553" lon="6.61777">
        <ele>372.3</ele>
        <time>2017-06-11T07:40:54.000Z</time>
      </trkpt>
      <trkpt lat="47.41552" lon="6.61785">
        <ele>372.4</ele>
        <time>2017-06-11T07:40:55.000Z</time>
      </trkpt>
      <trkpt lat="47.41549" lon="6.61793">
        <ele>372.5</ele>
        <time>2017-06-11T07:40:56.000Z</time>
      </trkpt>
      <trkpt lat="47.41547" lon="6.618">
        <ele>373.6</ele>
        <time>2017-06-11T07:40:57.000Z</time>
      </trkpt>
      <trkpt lat="47.41545" lon="6.61806">
        <ele>373.8</ele>
        <time>2017-06-11T07:40:58.000Z</time>
      </trkpt>
      <trkpt lat="47.41544" lon="6.61812">
        <ele>373.8</ele>
        <time>2017-06-11T07:40:59.000Z</time>
      </trkpt>
      <trkpt lat="47.41542" lon="6.61817">
        <ele>373.4</ele>
        <time>2017-06-11T07:41:00.000Z</time>
      </trkpt>
      <trkpt lat="47.4154" lon="6.61823">
        <ele>373.2</ele>
        <time>2017-06-11T07:41:01.000Z</time>
      </trkpt>
      <trkpt lat="47.41538" lon="6.61828">
        <ele>372.7</ele>
        <time>2017-06-11T07:41:02.000Z</time>
      </trkpt>
      <trkpt lat="47.41536" lon="6.61833">
        <ele>372.2</ele>
        <time>2017-06-11T07:41:03.000Z</time>
      </trkpt>
      <trkpt lat="47.41534" lon="6.61837">
        <ele>372</ele>
        <time>2017-06-11T07:41:04.000Z</time>
      </trkpt>
      <trkpt lat="47.41531" lon="6.61843">
        <ele>372.4</ele>
        <time>2017-06-11T07:41:05.000Z</time>
      </trkpt>
      <trkpt lat="47.41529" lon="6.61849">
        <ele>372.3</ele>
        <time>2017-06-11T07:41:06.000Z</time>
      </trkpt>
      <trkpt lat="47.41527" lon="6.61855">
        <ele>372.3</ele>
        <time>2017-06-11T07:41:07.000Z</time>
      </trkpt>
      <trkpt lat="47.41525" lon="6.6186">
        <ele>372.3</ele>
        <time>2017-06-11T07:41:08.000Z</time>
      </trkpt>
      <trkpt lat="47.41522" lon="6.61867">
        <ele>372.3</ele>
        <time>2017-06-11T07:41:09.000Z</time>
      </trkpt>
      <trkpt lat="47.41521" lon="6.61872">
        <ele>372.2</ele>
        <time>2017-06-11T07:41:10.000Z</time>
      </trkpt>
      <trkpt lat="47.4152" lon="6.61877">
        <ele>372</ele>
        <time>2017-06-11T07:41:11.000Z</time>
      </trkpt>
      <trkpt lat="47.41518" lon="6.61881">
        <ele>371.8</ele>
        <time>2017-06-11T07:41:12.000Z</time>
      </trkpt>
      <trkpt lat="47.41517" lon="6.61885">
        <ele>371.6</ele>
        <time>2017-06-11T07:41:13.000Z</time>
      </trkpt>
      <trkpt lat="47.41515" lon="6.61889">
        <ele>371.4</ele>
        <time>2017-06-11T07:41:14.000Z</time>
      </trkpt>
      <trkpt lat="47.41514" lon="6.61894">
        <ele>371.3</ele>
        <time>2017-06-11T07:41:15.000Z</time>
      </trkpt>
      <trkpt lat="47.41513" lon="6.61898">
        <ele>371.3</ele>
        <time>2017-06-11T07:41:16.000Z</time>
      </trkpt>
      <trkpt lat="47.41512" lon="6.61903">
        <ele>371.2</ele>
        <time>2017-06-11T07:41:17.000Z</time>
      </trkpt>
      <trkpt lat="47.4151" lon="6.61907">
        <ele>371.1</ele>
        <time>2017-06-11T07:41:18.000Z</time>
      </trkpt>
      <trkpt lat="47.41507" lon="6.61911">
        <ele>370.9</ele>
        <time>2017-06-11T07:41:19.000Z</time>
      </trkpt>
      <trkpt lat="47.41503" lon="6.61915">
        <ele>370.6</ele>
        <time>2017-06-11T07:41:20.000Z</time>
      </trkpt>
      <trkpt lat="47.41498" lon="6.61918">
        <ele>370.3</ele>
        <time>2017-06-11T07:41:21.000Z</time>
      </trkpt>
      <trkpt lat="47.41494" lon="6.6192">
        <ele>370.1</ele>
        <time>2017-06-11T07:41:22.000Z</time>
      </trkpt>
      <trkpt lat="47.41489" lon="6.61924">
        <ele>368.7</ele>
        <time>2017-06-11T07:41:23.000Z</time>
      </trkpt>
      <trkpt lat="47.41485" lon="6.61927">
        <ele>366.7</ele>
        <time>2017-06-11T07:41:24.000Z</time>
      </trkpt>
      <trkpt lat="47.41481" lon="6.6193">
        <ele>365.6</ele>
        <time>2017-06-11T07:41:25.000Z</time>
      </trkpt>
      <trkpt lat="47.41477" lon="6.61932">
        <ele>364.6</ele>
        <time>2017-06-11T07:41:26.000Z</time>
      </trkpt>
      <trkpt lat="47.41474" lon="6.61935">
        <ele>363.8</ele>
        <time>2017-06-11T07:41:27.000Z</time>
      </trkpt>
      <trkpt lat="47.4147" lon="6.61938">
        <ele>362.4</ele>
        <time>2017-06-11T07:41:28.000Z</time>
      </trkpt>
      <trkpt lat="47.41466" lon="6.6194">
        <ele>360.6</ele>
        <time>2017-06-11T07:41:29.000Z</time>
      </trkpt>
      <trkpt lat="47.41462" lon="6.61942">
        <ele>359.2</ele>
        <time>2017-06-11T07:41:30.000Z</time>
      </trkpt>
      <trkpt lat="47.41458" lon="6.61945">
        <ele>357.3</ele>
        <time>2017-06-11T07:41:31.000Z</time>
      </trkpt>
      <trkpt lat="47.41455" lon="6.61948">
        <ele>357.2</ele>
        <time>2017-06-11T07:41:32.000Z</time>
      </trkpt>
      <trkpt lat="47.41451" lon="6.61952">
        <ele>357.1</ele>
        <time>2017-06-11T07:41:33.000Z</time>
      </trkpt>
      <trkpt lat="47.41448" lon="6.61955">
        <ele>357</ele>
        <time>2017-06-11T07:41:34.000Z</time>
      </trkpt>
      <trkpt lat="47.41444" lon="6.61959">
        <ele>357</ele>
        <time>2017-06-11T07:41:35.000Z</time>
      </trkpt>
      <trkpt lat="47.4144" lon="6.61963">
        <ele>356.3</ele>
        <time>2017-06-11T07:41:36.000Z</time>
      </trkpt>
      <trkpt lat="47.41436" lon="6.61967">
        <ele>356.1</ele>
        <time>2017-06-11T07:41:37.000Z</time>
      </trkpt>
      <trkpt lat="47.41433" lon="6.61971">
        <ele>356.1</ele>
        <time>2017-06-11T07:41:38.000Z</time>
      </trkpt>
      <trkpt lat="47.4143" lon="6.61977">
        <ele>356.1</ele>
        <time>2017-06-11T07:41:39.000Z</time>
      </trkpt>
      <trkpt lat="47.41427" lon="6.61983">
        <ele>356.1</ele>
        <time>2017-06-11T07:41:40.000Z</time>
      </trkpt>
      <trkpt lat="47.41425" lon="6.61986">
        <ele>356.1</ele>
        <time>2017-06-11T07:41:41.000Z</time>
      </trkpt>
      <trkpt lat="47.41423" lon="6.61988">
        <ele>356.1</ele>
        <time>2017-06-11T07:41:42.000Z</time>
      </trkpt>
      <trkpt lat="47.4142" lon="6.6199">
        <ele>356.2</ele>
        <time>2017-06-11T07:41:43.000Z</time>
      </trkpt>
      <trkpt lat="47.41416" lon="6.61993">
        <ele>356.3</ele>
        <time>2017-06-11T07:41:44.000Z</time>
      </trkpt>
      <trkpt lat="47.41414" lon="6.61996">
        <ele>356.5</ele>
        <time>2017-06-11T07:41:47.000Z</time>
      </trkpt>
      <trkpt lat="47.41403" lon="6.62004">
        <ele>356.7</ele>
        <time>2017-06-11T07:41:48.000Z</time>
      </trkpt>
      <trkpt lat="47.41399" lon="6.62007">
        <ele>357.1</ele>
        <time>2017-06-11T07:41:49.000Z</time>
      </trkpt>
      <trkpt lat="47.41395" lon="6.6201">
        <ele>360</ele>
        <time>2017-06-11T07:41:50.000Z</time>
      </trkpt>
      <trkpt lat="47.41391" lon="6.62013">
        <ele>360.2</ele>
        <time>2017-06-11T07:41:51.000Z</time>
      </trkpt>
      <trkpt lat="47.41387" lon="6.62016">
        <ele>360.4</ele>
        <time>2017-06-11T07:41:52.000Z</time>
      </trkpt>
      <trkpt lat="47.41384" lon="6.62018">
        <ele>360.6</ele>
        <time>2017-06-11T07:41:53.000Z</time>
      </trkpt>
      <trkpt lat="47.41379" lon="6.6202">
        <ele>360.8</ele>
        <time>2017-06-11T07:41:54.000Z</time>
      </trkpt>
      <trkpt lat="47.41375" lon="6.62022">
        <ele>361</ele>
        <time>2017-06-11T07:41:55.000Z</time>
      </trkpt>
      <trkpt lat="47.4137" lon="6.62024">
        <ele>361.2</ele>
        <time>2017-06-11T07:41:56.000Z</time>
      </trkpt>
      <trkpt lat="47.41367" lon="6.62026">
        <ele>361.5</ele>
        <time>2017-06-11T07:41:57.000Z</time>
      </trkpt>
      <trkpt lat="47.41364" lon="6.62028">
        <ele>361.9</ele>
        <time>2017-06-11T07:41:58.000Z</time>
      </trkpt>
      <trkpt lat="47.41361" lon="6.62029">
        <ele>362.3</ele>
        <time>2017-06-11T07:41:59.000Z</time>
      </trkpt>
      <trkpt lat="47.41357" lon="6.62032">
        <ele>362.6</ele>
        <time>2017-06-11T07:42:00.000Z</time>
      </trkpt>
      <trkpt lat="47.41353" lon="6.62034">
        <ele>363</ele>
        <time>2017-06-11T07:42:01.000Z</time>
      </trkpt>
      <trkpt lat="47.41349" lon="6.62036">
        <ele>366.7</ele>
        <time>2017-06-11T07:42:02.000Z</time>
      </trkpt>
      <trkpt lat="47.41345" lon="6.62037">
        <ele>367</ele>
        <time>2017-06-11T07:42:03.000Z</time>
      </trkpt>
      <trkpt lat="47.41341" lon="6.62039">
        <ele>367.3</ele>
        <time>2017-06-11T07:42:04.000Z</time>
      </trkpt>
      <trkpt lat="47.41337" lon="6.6204">
        <ele>367.6</ele>
        <time>2017-06-11T07:42:05.000Z</time>
      </trkpt>
      <trkpt lat="47.41333" lon="6.6204">
        <ele>367.8</ele>
        <time>2017-06-11T07:42:06.000Z</time>
      </trkpt>
      <trkpt lat="47.4133" lon="6.62041">
        <ele>368</ele>
        <time>2017-06-11T07:42:07.000Z</time>
      </trkpt>
      <trkpt lat="47.41326" lon="6.62043">
        <ele>368.1</ele>
        <time>2017-06-11T07:42:08.000Z</time>
      </trkpt>
      <trkpt lat="47.41324" lon="6.62044">
        <ele>368.3</ele>
        <time>2017-06-11T07:42:09.000Z</time>
      </trkpt>
      <trkpt lat="47.41321" lon="6.62046">
        <ele>368.4</ele>
        <time>2017-06-11T07:42:10.000Z</time>
      </trkpt>
      <trkpt lat="47.41318" lon="6.62047">
        <ele>368.6</ele>
        <time>2017-06-11T07:42:11.000Z</time>
      </trkpt>
      <trkpt lat="47.41313" lon="6.62049">
        <ele>370.6</ele>
        <time>2017-06-11T07:42:12.000Z</time>
      </trkpt>
      <trkpt lat="47.4131" lon="6.62049">
        <ele>370.7</ele>
        <time>2017-06-11T07:42:13.000Z</time>
      </trkpt>
      <trkpt lat="47.41306" lon="6.62049">
        <ele>371</ele>
        <time>2017-06-11T07:42:14.000Z</time>
      </trkpt>
      <trkpt lat="47.41302" lon="6.62049">
        <ele>371.2</ele>
        <time>2017-06-11T07:42:15.000Z</time>
      </trkpt>
      <trkpt lat="47.41298" lon="6.62049">
        <ele>371.5</ele>
        <time>2017-06-11T07:42:16.000Z</time>
      </trkpt>
      <trkpt lat="47.41294" lon="6.6205">
        <ele>371.7</ele>
        <time>2017-06-11T07:42:17.000Z</time>
      </trkpt>
      <trkpt lat="47.41291" lon="6.62051">
        <ele>372</ele>
        <time>2017-06-11T07:42:18.000Z</time>
      </trkpt>
      <trkpt lat="47.41287" lon="6.62052">
        <ele>372.2</ele>
        <time>2017-06-11T07:42:19.000Z</time>
      </trkpt>
      <trkpt lat="47.41284" lon="6.62052">
        <ele>372.4</ele>
        <time>2017-06-11T07:42:20.000Z</time>
      </trkpt>
      <trkpt lat="47.4128" lon="6.62053">
        <ele>372.6</ele>
        <time>2017-06-11T07:42:21.000Z</time>
      </trkpt>
      <trkpt lat="47.41277" lon="6.62055">
        <ele>372.8</ele>
        <time>2017-06-11T07:42:22.000Z</time>
      </trkpt>
      <trkpt lat="47.41273" lon="6.62057">
        <ele>372.9</ele>
        <time>2017-06-11T07:42:23.000Z</time>
      </trkpt>
      <trkpt lat="47.41269" lon="6.62057">
        <ele>373.1</ele>
        <time>2017-06-11T07:42:24.000Z</time>
      </trkpt>
      <trkpt lat="47.41265" lon="6.62058">
        <ele>373.2</ele>
        <time>2017-06-11T07:42:25.000Z</time>
      </trkpt>
      <trkpt lat="47.41262" lon="6.62059">
        <ele>373.3</ele>
        <time>2017-06-11T07:42:26.000Z</time>
      </trkpt>
      <trkpt lat="47.41258" lon="6.62059">
        <ele>373.5</ele>
        <time>2017-06-11T07:42:27.000Z</time>
      </trkpt>
      <trkpt lat="47.41254" lon="6.62058">
        <ele>373.7</ele>
        <time>2017-06-11T07:42:28.000Z</time>
      </trkpt>
      <trkpt lat="47.4125" lon="6.62059">
        <ele>376.3</ele>
        <time>2017-06-11T07:42:29.000Z</time>
      </trkpt>
      <trkpt lat="47.41246" lon="6.6206">
        <ele>376.5</ele>
        <time>2017-06-11T07:42:30.000Z</time>
      </trkpt>
      <trkpt lat="47.41243" lon="6.62059">
        <ele>376.7</ele>
        <time>2017-06-11T07:42:31.000Z</time>
      </trkpt>
      <trkpt lat="47.41239" lon="6.62059">
        <ele>376.8</ele>
        <time>2017-06-11T07:42:32.000Z</time>
      </trkpt>
      <trkpt lat="47.41235" lon="6.6206">
        <ele>378.2</ele>
        <time>2017-06-11T07:42:33.000Z</time>
      </trkpt>
      <trkpt lat="47.41231" lon="6.62062">
        <ele>378.3</ele>
        <time>2017-06-11T07:42:34.000Z</time>
      </trkpt>
      <trkpt lat="47.41228" lon="6.62064">
        <ele>378.3</ele>
        <time>2017-06-11T07:42:35.000Z</time>
      </trkpt>
      <trkpt lat="47.41225" lon="6.62066">
        <ele>378.2</ele>
        <time>2017-06-11T07:42:36.000Z</time>
      </trkpt>
      <trkpt lat="47.4122" lon="6.62069">
        <ele>378.3</ele>
        <time>2017-06-11T07:42:37.000Z</time>
      </trkpt>
      <trkpt lat="47.41216" lon="6.62071">
        <ele>378.2</ele>
        <time>2017-06-11T07:42:38.000Z</time>
      </trkpt>
      <trkpt lat="47.41212" lon="6.62073">
        <ele>378.2</ele>
        <time>2017-06-11T07:42:39.000Z</time>
      </trkpt>
      <trkpt lat="47.41208" lon="6.62073">
        <ele>378.1</ele>
        <time>2017-06-11T07:42:40.000Z</time>
      </trkpt>
      <trkpt lat="47.41206" lon="6.62074">
        <ele>378.1</ele>
        <time>2017-06-11T07:42:41.000Z</time>
      </trkpt>
      <trkpt lat="47.41206" lon="6.62074">
        <ele>378.1</ele>
        <time>2017-06-11T07:42:43.000Z</time>
      </trkpt>
      <trkpt lat="47.41198" lon="6.62075">
        <ele>378.2</ele>
        <time>2017-06-11T07:42:44.000Z</time>
      </trkpt>
      <trkpt lat="47.41195" lon="6.62076">
        <ele>378.3</ele>
        <time>2017-06-11T07:42:45.000Z</time>
      </trkpt>
      <trkpt lat="47.41192" lon="6.62077">
        <ele>378.4</ele>
        <time>2017-06-11T07:42:46.000Z</time>
      </trkpt>
      <trkpt lat="47.41187" lon="6.62079">
        <ele>378.5</ele>
        <time>2017-06-11T07:42:47.000Z</time>
      </trkpt>
      <trkpt lat="47.41183" lon="6.62081">
        <ele>378.6</ele>
        <time>2017-06-11T07:42:50.000Z</time>
      </trkpt>
      <trkpt lat="47.41174" lon="6.6208">
        <ele>378.7</ele>
        <time>2017-06-11T07:42:51.000Z</time>
      </trkpt>
      <trkpt lat="47.4117" lon="6.62079">
        <ele>378.8</ele>
        <time>2017-06-11T07:42:52.000Z</time>
      </trkpt>
      <trkpt lat="47.41166" lon="6.62077">
        <ele>378.8</ele>
        <time>2017-06-11T07:42:53.000Z</time>
      </trkpt>
      <trkpt lat="47.4116" lon="6.62074">
        <ele>378.8</ele>
        <time>2017-06-11T07:42:54.000Z</time>
      </trkpt>
      <trkpt lat="47.41156" lon="6.62072">
        <ele>378.8</ele>
        <time>2017-06-11T07:42:56.000Z</time>
      </trkpt>
      <trkpt lat="47.4115" lon="6.6207">
        <ele>378.8</ele>
        <time>2017-06-11T07:42:57.000Z</time>
      </trkpt>
      <trkpt lat="47.41147" lon="6.62069">
        <ele>378.8</ele>
        <time>2017-06-11T07:42:58.000Z</time>
      </trkpt>
      <trkpt lat="47.41142" lon="6.62067">
        <ele>378.6</ele>
        <time>2017-06-11T07:42:59.000Z</time>
      </trkpt>
      <trkpt lat="47.41139" lon="6.62065">
        <ele>378.4</ele>
        <time>2017-06-11T07:43:00.000Z</time>
      </trkpt>
      <trkpt lat="47.41137" lon="6.62064">
        <ele>378.2</ele>
        <time>2017-06-11T07:43:01.000Z</time>
      </trkpt>
      <trkpt lat="47.41133" lon="6.62063">
        <ele>378</ele>
        <time>2017-06-11T07:43:02.000Z</time>
      </trkpt>
      <trkpt lat="47.41129" lon="6.62062">
        <ele>377.9</ele>
        <time>2017-06-11T07:43:03.000Z</time>
      </trkpt>
      <trkpt lat="47.41125" lon="6.6206">
        <ele>377.7</ele>
        <time>2017-06-11T07:43:06.000Z</time>
      </trkpt>
      <trkpt lat="47.41122" lon="6.62059">
        <ele>377.7</ele>
        <time>2017-06-11T07:43:07.000Z</time>
      </trkpt>
      <trkpt lat="47.41117" lon="6.62057">
        <ele>376.8</ele>
        <time>2017-06-11T07:43:08.000Z</time>
      </trkpt>
      <trkpt lat="47.41113" lon="6.62056">
        <ele>376.7</ele>
        <time>2017-06-11T07:43:09.000Z</time>
      </trkpt>
      <trkpt lat="47.41106" lon="6.62055">
        <ele>376.7</ele>
        <time>2017-06-11T07:43:10.000Z</time>
      </trkpt>
      <trkpt lat="47.41102" lon="6.62053">
        <ele>376.6</ele>
        <time>2017-06-11T07:43:11.000Z</time>
      </trkpt>
      <trkpt lat="47.41097" lon="6.62051">
        <ele>376.5</ele>
        <time>2017-06-11T07:43:12.000Z</time>
      </trkpt>
      <trkpt lat="47.41091" lon="6.62049">
        <ele>376.4</ele>
        <time>2017-06-11T07:43:13.000Z</time>
      </trkpt>
      <trkpt lat="47.41087" lon="6.62048">
        <ele>376.4</ele>
        <time>2017-06-11T07:43:14.000Z</time>
      </trkpt>
      <trkpt lat="47.41082" lon="6.62046">
        <ele>376.5</ele>
        <time>2017-06-11T07:43:15.000Z</time>
      </trkpt>
      <trkpt lat="47.41077" lon="6.62044">
        <ele>376.4</ele>
        <time>2017-06-11T07:43:16.000Z</time>
      </trkpt>
      <trkpt lat="47.41072" lon="6.62043">
        <ele>376.5</ele>
        <time>2017-06-11T07:43:17.000Z</time>
      </trkpt>
      <trkpt lat="47.41068" lon="6.62042">
        <ele>376.5</ele>
        <time>2017-06-11T07:43:18.000Z</time>
      </trkpt>
      <trkpt lat="47.41065" lon="6.6204">
        <ele>376.5</ele>
        <time>2017-06-11T07:43:19.000Z</time>
      </trkpt>
      <trkpt lat="47.41059" lon="6.62038">
        <ele>376.5</ele>
        <time>2017-06-11T07:43:20.000Z</time>
      </trkpt>
      <trkpt lat="47.41054" lon="6.62036">
        <ele>376.6</ele>
        <time>2017-06-11T07:43:21.000Z</time>
      </trkpt>
      <trkpt lat="47.41051" lon="6.62034">
        <ele>376.6</ele>
        <time>2017-06-11T07:43:22.000Z</time>
      </trkpt>
      <trkpt lat="47.41047" lon="6.62032">
        <ele>376.6</ele>
        <time>2017-06-11T07:43:23.000Z</time>
      </trkpt>
      <trkpt lat="47.41043" lon="6.6203">
        <ele>376.7</ele>
        <time>2017-06-11T07:43:24.000Z</time>
      </trkpt>
      <trkpt lat="47.4104" lon="6.62028">
        <ele>376.7</ele>
        <time>2017-06-11T07:43:25.000Z</time>
      </trkpt>
      <trkpt lat="47.41037" lon="6.62026">
        <ele>376.7</ele>
        <time>2017-06-11T07:43:26.000Z</time>
      </trkpt>
      <trkpt lat="47.41034" lon="6.62023">
        <ele>376.7</ele>
        <time>2017-06-11T07:43:27.000Z</time>
      </trkpt>
      <trkpt lat="47.4103" lon="6.62021">
        <ele>376.9</ele>
        <time>2017-06-11T07:43:28.000Z</time>
      </trkpt>
      <trkpt lat="47.41026" lon="6.62019">
        <ele>377.1</ele>
        <time>2017-06-11T07:43:29.000Z</time>
      </trkpt>
      <trkpt lat="47.41021" lon="6.62018">
        <ele>377.2</ele>
        <time>2017-06-11T07:43:30.000Z</time>
      </trkpt>
      <trkpt lat="47.41018" lon="6.62017">
        <ele>377.4</ele>
        <time>2017-06-11T07:43:31.000Z</time>
      </trkpt>
      <trkpt lat="47.41014" lon="6.62016">
        <ele>377.6</ele>
        <time>2017-06-11T07:43:32.000Z</time>
      </trkpt>
      <trkpt lat="47.41009" lon="6.62013">
        <ele>377.7</ele>
        <time>2017-06-11T07:43:33.000Z</time>
      </trkpt>
      <trkpt lat="47.41004" lon="6.6201">
        <ele>379.4</ele>
        <time>2017-06-11T07:43:34.000Z</time>
      </trkpt>
      <trkpt lat="47.41001" lon="6.62008">
        <ele>379.4</ele>
        <time>2017-06-11T07:43:35.000Z</time>
      </trkpt>
      <trkpt lat="47.40997" lon="6.62006">
        <ele>379.5</ele>
        <time>2017-06-11T07:43:36.000Z</time>
      </trkpt>
      <trkpt lat="47.40993" lon="6.62003">
        <ele>379.5</ele>
        <time>2017-06-11T07:43:37.000Z</time>
      </trkpt>
      <trkpt lat="47.40989" lon="6.61999">
        <ele>379.6</ele>
        <time>2017-06-11T07:43:38.000Z</time>
      </trkpt>
      <trkpt lat="47.40984" lon="6.61996">
        <ele>380.1</ele>
        <time>2017-06-11T07:43:39.000Z</time>
      </trkpt>
      <trkpt lat="47.40979" lon="6.61994">
        <ele>380.4</ele>
        <time>2017-06-11T07:43:40.000Z</time>
      </trkpt>
      <trkpt lat="47.40974" lon="6.61995">
        <ele>380.4</ele>
        <time>2017-06-11T07:43:41.000Z</time>
      </trkpt>
      <trkpt lat="47.40967" lon="6.61996">
        <ele>380.5</ele>
        <time>2017-06-11T07:43:42.000Z</time>
      </trkpt>
      <trkpt lat="47.40961" lon="6.61996">
        <ele>382.7</ele>
        <time>2017-06-11T07:43:43.000Z</time>
      </trkpt>
      <trkpt lat="47.40956" lon="6.61995">
        <ele>382.8</ele>
        <time>2017-06-11T07:43:44.000Z</time>
      </trkpt>
      <trkpt lat="47.4095" lon="6.61995">
        <ele>382.8</ele>
        <time>2017-06-11T07:43:45.000Z</time>
      </trkpt>
      <trkpt lat="47.40945" lon="6.61994">
        <ele>382.9</ele>
        <time>2017-06-11T07:43:46.000Z</time>
      </trkpt>
      <trkpt lat="47.4094" lon="6.61993">
        <ele>383</ele>
        <time>2017-06-11T07:43:47.000Z</time>
      </trkpt>
      <trkpt lat="47.40935" lon="6.61991">
        <ele>382.7</ele>
        <time>2017-06-11T07:43:48.000Z</time>
      </trkpt>
      <trkpt lat="47.4093" lon="6.6199">
        <ele>382.7</ele>
        <time>2017-06-11T07:43:49.000Z</time>
      </trkpt>
      <trkpt lat="47.40924" lon="6.61989">
        <ele>382.6</ele>
        <time>2017-06-11T07:43:50.000Z</time>
      </trkpt>
      <trkpt lat="47.4092" lon="6.61988">
        <ele>382.7</ele>
        <time>2017-06-11T07:43:51.000Z</time>
      </trkpt>
      <trkpt lat="47.40915" lon="6.61986">
        <ele>384.4</ele>
        <time>2017-06-11T07:43:52.000Z</time>
      </trkpt>
      <trkpt lat="47.40911" lon="6.61985">
        <ele>385.3</ele>
        <time>2017-06-11T07:43:53.000Z</time>
      </trkpt>
      <trkpt lat="47.40909" lon="6.61984">
        <ele>385.3</ele>
        <time>2017-06-11T07:43:54.000Z</time>
      </trkpt>
      <trkpt lat="47.40906" lon="6.61983">
        <ele>385.3</ele>
        <time>2017-06-11T07:43:55.000Z</time>
      </trkpt>
      <trkpt lat="47.40903" lon="6.6198">
        <ele>385.3</ele>
        <time>2017-06-11T07:43:56.000Z</time>
      </trkpt>
      <trkpt lat="47.40899" lon="6.61978">
        <ele>385.4</ele>
        <time>2017-06-11T07:43:57.000Z</time>
      </trkpt>
      <trkpt lat="47.40896" lon="6.61976">
        <ele>385.4</ele>
        <time>2017-06-11T07:43:58.000Z</time>
      </trkpt>
      <trkpt lat="47.40893" lon="6.61974">
        <ele>385.5</ele>
        <time>2017-06-11T07:43:59.000Z</time>
      </trkpt>
      <trkpt lat="47.40889" lon="6.61972">
        <ele>386.1</ele>
        <time>2017-06-11T07:44:00.000Z</time>
      </trkpt>
      <trkpt lat="47.40884" lon="6.61971">
        <ele>386.6</ele>
        <time>2017-06-11T07:44:01.000Z</time>
      </trkpt>
      <trkpt lat="47.4088" lon="6.6197">
        <ele>387.5</ele>
        <time>2017-06-11T07:44:02.000Z</time>
      </trkpt>
      <trkpt lat="47.40876" lon="6.6197">
        <ele>387.6</ele>
        <time>2017-06-11T07:44:03.000Z</time>
      </trkpt>
      <trkpt lat="47.40873" lon="6.61968">
        <ele>387.8</ele>
        <time>2017-06-11T07:44:04.000Z</time>
      </trkpt>
      <trkpt lat="47.40869" lon="6.61966">
        <ele>387.9</ele>
        <time>2017-06-11T07:44:05.000Z</time>
      </trkpt>
      <trkpt lat="47.40864" lon="6.61966">
        <ele>388.8</ele>
        <time>2017-06-11T07:44:06.000Z</time>
      </trkpt>
      <trkpt lat="47.40861" lon="6.61965">
        <ele>388.9</ele>
        <time>2017-06-11T07:44:07.000Z</time>
      </trkpt>
      <trkpt lat="47.40857" lon="6.61964">
        <ele>388.9</ele>
        <time>2017-06-11T07:44:08.000Z</time>
      </trkpt>
      <trkpt lat="47.40854" lon="6.61962">
        <ele>388.8</ele>
        <time>2017-06-11T07:44:09.000Z</time>
      </trkpt>
      <trkpt lat="47.40849" lon="6.61962">
        <ele>388.8</ele>
        <time>2017-06-11T07:44:10.000Z</time>
      </trkpt>
      <trkpt lat="47.40845" lon="6.61962">
        <ele>388.4</ele>
        <time>2017-06-11T07:44:11.000Z</time>
      </trkpt>
      <trkpt lat="47.4084" lon="6.61962">
        <ele>388.4</ele>
        <time>2017-06-11T07:44:12.000Z</time>
      </trkpt>
      <trkpt lat="47.40837" lon="6.61961">
        <ele>388.5</ele>
        <time>2017-06-11T07:44:13.000Z</time>
      </trkpt>
      <trkpt lat="47.40832" lon="6.6196">
        <ele>388.6</ele>
        <time>2017-06-11T07:44:14.000Z</time>
      </trkpt>
      <trkpt lat="47.40828" lon="6.61959">
        <ele>388.7</ele>
        <time>2017-06-11T07:44:15.000Z</time>
      </trkpt>
      <trkpt lat="47.40824" lon="6.61958">
        <ele>389.6</ele>
        <time>2017-06-11T07:44:16.000Z</time>
      </trkpt>
      <trkpt lat="47.40821" lon="6.61958">
        <ele>389.5</ele>
        <time>2017-06-11T07:44:17.000Z</time>
      </trkpt>
      <trkpt lat="47.40817" lon="6.61956">
        <ele>389.4</ele>
        <time>2017-06-11T07:44:21.000Z</time>
      </trkpt>
      <trkpt lat="47.40803" lon="6.61949">
        <ele>389.4</ele>
        <time>2017-06-11T07:44:22.000Z</time>
      </trkpt>
      <trkpt lat="47.40803" lon="6.61949">
        <ele>389.2</ele>
        <time>2017-06-11T07:44:24.000Z</time>
      </trkpt>
      <trkpt lat="47.40792" lon="6.61939">
        <ele>389.1</ele>
        <time>2017-06-11T07:44:25.000Z</time>
      </trkpt>
      <trkpt lat="47.4079" lon="6.61936">
        <ele>388.8</ele>
        <time>2017-06-11T07:44:26.000Z</time>
      </trkpt>
      <trkpt lat="47.40787" lon="6.61935">
        <ele>388.6</ele>
        <time>2017-06-11T07:44:27.000Z</time>
      </trkpt>
      <trkpt lat="47.40784" lon="6.61934">
        <ele>388.4</ele>
        <time>2017-06-11T07:44:28.000Z</time>
      </trkpt>
      <trkpt lat="47.40779" lon="6.61932">
        <ele>388.2</ele>
        <time>2017-06-11T07:44:29.000Z</time>
      </trkpt>
      <trkpt lat="47.40775" lon="6.6193">
        <ele>388.1</ele>
        <time>2017-06-11T07:44:30.000Z</time>
      </trkpt>
      <trkpt lat="47.40773" lon="6.61928">
        <ele>387.9</ele>
        <time>2017-06-11T07:44:31.000Z</time>
      </trkpt>
      <trkpt lat="47.4077" lon="6.61927">
        <ele>387.8</ele>
        <time>2017-06-11T07:44:32.000Z</time>
      </trkpt>
      <trkpt lat="47.40766" lon="6.61925">
        <ele>387.6</ele>
        <time>2017-06-11T07:44:33.000Z</time>
      </trkpt>
      <trkpt lat="47.4076" lon="6.61921">
        <ele>387.5</ele>
        <time>2017-06-11T07:44:34.000Z</time>
      </trkpt>
      <trkpt lat="47.40755" lon="6.61919">
        <ele>387.3</ele>
        <time>2017-06-11T07:44:35.000Z</time>
      </trkpt>
      <trkpt lat="47.40749" lon="6.61919">
        <ele>387.1</ele>
        <time>2017-06-11T07:44:36.000Z</time>
      </trkpt>
      <trkpt lat="47.40747" lon="6.61919">
        <ele>386.9</ele>
        <time>2017-06-11T07:44:37.000Z</time>
      </trkpt>
      <trkpt lat="47.40745" lon="6.61919">
        <ele>386.6</ele>
        <time>2017-06-11T07:44:38.000Z</time>
      </trkpt>
      <trkpt lat="47.40742" lon="6.61919">
        <ele>386.4</ele>
        <time>2017-06-11T07:44:39.000Z</time>
      </trkpt>
      <trkpt lat="47.40738" lon="6.61919">
        <ele>386.1</ele>
        <time>2017-06-11T07:44:40.000Z</time>
      </trkpt>
      <trkpt lat="47.40735" lon="6.6192">
        <ele>385.8</ele>
        <time>2017-06-11T07:44:41.000Z</time>
      </trkpt>
      <trkpt lat="47.40732" lon="6.6192">
        <ele>385.5</ele>
        <time>2017-06-11T07:44:42.000Z</time>
      </trkpt>
      <trkpt lat="47.40727" lon="6.61919">
        <ele>385.2</ele>
        <time>2017-06-11T07:44:43.000Z</time>
      </trkpt>
      <trkpt lat="47.40723" lon="6.61919">
        <ele>384.9</ele>
        <time>2017-06-11T07:44:44.000Z</time>
      </trkpt>
      <trkpt lat="47.40721" lon="6.61918">
        <ele>384.5</ele>
        <time>2017-06-11T07:44:45.000Z</time>
      </trkpt>
      <trkpt lat="47.40717" lon="6.61917">
        <ele>384.1</ele>
        <time>2017-06-11T07:44:46.000Z</time>
      </trkpt>
      <trkpt lat="47.40715" lon="6.61916">
        <ele>383.9</ele>
        <time>2017-06-11T07:44:47.000Z</time>
      </trkpt>
      <trkpt lat="47.40709" lon="6.61915">
        <ele>383.8</ele>
        <time>2017-06-11T07:44:48.000Z</time>
      </trkpt>
      <trkpt lat="47.40706" lon="6.61916">
        <ele>383.7</ele>
        <time>2017-06-11T07:44:49.000Z</time>
      </trkpt>
      <trkpt lat="47.40704" lon="6.61915">
        <ele>383.6</ele>
        <time>2017-06-11T07:44:50.000Z</time>
      </trkpt>
      <trkpt lat="47.407" lon="6.61914">
        <ele>383.6</ele>
        <time>2017-06-11T07:44:51.000Z</time>
      </trkpt>
      <trkpt lat="47.40694" lon="6.61913">
        <ele>383.6</ele>
        <time>2017-06-11T07:44:52.000Z</time>
      </trkpt>
      <trkpt lat="47.40692" lon="6.61913">
        <ele>383.5</ele>
        <time>2017-06-11T07:44:53.000Z</time>
      </trkpt>
      <trkpt lat="47.40686" lon="6.61914">
        <ele>383.5</ele>
        <time>2017-06-11T07:44:54.000Z</time>
      </trkpt>
      <trkpt lat="47.4068" lon="6.61915">
        <ele>383.5</ele>
        <time>2017-06-11T07:44:55.000Z</time>
      </trkpt>
      <trkpt lat="47.40674" lon="6.61915">
        <ele>383.4</ele>
        <time>2017-06-11T07:44:56.000Z</time>
      </trkpt>
      <trkpt lat="47.40671" lon="6.61914">
        <ele>383.3</ele>
        <time>2017-06-11T07:44:57.000Z</time>
      </trkpt>
      <trkpt lat="47.40666" lon="6.61914">
        <ele>383.2</ele>
        <time>2017-06-11T07:44:58.000Z</time>
      </trkpt>
      <trkpt lat="47.40663" lon="6.61915">
        <ele>383</ele>
        <time>2017-06-11T07:44:59.000Z</time>
      </trkpt>
      <trkpt lat="47.40659" lon="6.61912">
        <ele>382.9</ele>
        <time>2017-06-11T07:45:00.000Z</time>
      </trkpt>
      <trkpt lat="47.40654" lon="6.61912">
        <ele>382.8</ele>
        <time>2017-06-11T07:45:01.000Z</time>
      </trkpt>
      <trkpt lat="47.4065" lon="6.61912">
        <ele>382.8</ele>
        <time>2017-06-11T07:45:02.000Z</time>
      </trkpt>
      <trkpt lat="47.40647" lon="6.61911">
        <ele>382.7</ele>
        <time>2017-06-11T07:45:03.000Z</time>
      </trkpt>
      <trkpt lat="47.40644" lon="6.61911">
        <ele>382.6</ele>
        <time>2017-06-11T07:45:04.000Z</time>
      </trkpt>
      <trkpt lat="47.40639" lon="6.61911">
        <ele>382.4</ele>
        <time>2017-06-11T07:45:05.000Z</time>
      </trkpt>
      <trkpt lat="47.40633" lon="6.61913">
        <ele>382.1</ele>
        <time>2017-06-11T07:45:06.000Z</time>
      </trkpt>
      <trkpt lat="47.40631" lon="6.61912">
        <ele>382</ele>
        <time>2017-06-11T07:45:07.000Z</time>
      </trkpt>
      <trkpt lat="47.40628" lon="6.61912">
        <ele>381.8</ele>
        <time>2017-06-11T07:45:08.000Z</time>
      </trkpt>
      <trkpt lat="47.40626" lon="6.61912">
        <ele>381.8</ele>
        <time>2017-06-11T07:45:09.000Z</time>
      </trkpt>
      <trkpt lat="47.40623" lon="6.61911">
        <ele>381.7</ele>
        <time>2017-06-11T07:45:10.000Z</time>
      </trkpt>
      <trkpt lat="47.4062" lon="6.6191">
        <ele>381.6</ele>
        <time>2017-06-11T07:45:11.000Z</time>
      </trkpt>
      <trkpt lat="47.40615" lon="6.61908">
        <ele>381.5</ele>
        <time>2017-06-11T07:45:12.000Z</time>
      </trkpt>
      <trkpt lat="47.40609" lon="6.61907">
        <ele>381.5</ele>
        <time>2017-06-11T07:45:13.000Z</time>
      </trkpt>
      <trkpt lat="47.40606" lon="6.61906">
        <ele>381.5</ele>
        <time>2017-06-11T07:45:14.000Z</time>
      </trkpt>
      <trkpt lat="47.40603" lon="6.61905">
        <ele>381.5</ele>
        <time>2017-06-11T07:45:15.000Z</time>
      </trkpt>
      <trkpt lat="47.40599" lon="6.61903">
        <ele>381.6</ele>
        <time>2017-06-11T07:45:16.000Z</time>
      </trkpt>
      <trkpt lat="47.40596" lon="6.61902">
        <ele>381.6</ele>
        <time>2017-06-11T07:45:17.000Z</time>
      </trkpt>
      <trkpt lat="47.40591" lon="6.61899">
        <ele>381.7</ele>
        <time>2017-06-11T07:45:18.000Z</time>
      </trkpt>
      <trkpt lat="47.40585" lon="6.61896">
        <ele>381.6</ele>
        <time>2017-06-11T07:45:19.000Z</time>
      </trkpt>
      <trkpt lat="47.40583" lon="6.61895">
        <ele>381.6</ele>
        <time>2017-06-11T07:45:20.000Z</time>
      </trkpt>
      <trkpt lat="47.4058" lon="6.61894">
        <ele>381.5</ele>
        <time>2017-06-11T07:45:21.000Z</time>
      </trkpt>
      <trkpt lat="47.40577" lon="6.61893">
        <ele>381.4</ele>
        <time>2017-06-11T07:45:22.000Z</time>
      </trkpt>
      <trkpt lat="47.40574" lon="6.61891">
        <ele>381.4</ele>
        <time>2017-06-11T07:45:23.000Z</time>
      </trkpt>
      <trkpt lat="47.40568" lon="6.61889">
        <ele>381.2</ele>
        <time>2017-06-11T07:45:24.000Z</time>
      </trkpt>
      <trkpt lat="47.40562" lon="6.61889">
        <ele>381</ele>
        <time>2017-06-11T07:45:25.000Z</time>
      </trkpt>
      <trkpt lat="47.4056" lon="6.61887">
        <ele>380.9</ele>
        <time>2017-06-11T07:45:26.000Z</time>
      </trkpt>
      <trkpt lat="47.40557" lon="6.61886">
        <ele>380.7</ele>
        <time>2017-06-11T07:45:27.000Z</time>
      </trkpt>
      <trkpt lat="47.40554" lon="6.61885">
        <ele>380.5</ele>
        <time>2017-06-11T07:45:28.000Z</time>
      </trkpt>
      <trkpt lat="47.40548" lon="6.61885">
        <ele>380.4</ele>
        <time>2017-06-11T07:45:29.000Z</time>
      </trkpt>
      <trkpt lat="47.40545" lon="6.61884">
        <ele>380.5</ele>
        <time>2017-06-11T07:45:30.000Z</time>
      </trkpt>
      <trkpt lat="47.40541" lon="6.61886">
        <ele>380.5</ele>
        <time>2017-06-11T07:45:31.000Z</time>
      </trkpt>
      <trkpt lat="47.40538" lon="6.61886">
        <ele>380.5</ele>
        <time>2017-06-11T07:45:32.000Z</time>
      </trkpt>
      <trkpt lat="47.40534" lon="6.61884">
        <ele>380.6</ele>
        <time>2017-06-11T07:45:33.000Z</time>
      </trkpt>
      <trkpt lat="47.40531" lon="6.61884">
        <ele>380.8</ele>
        <time>2017-06-11T07:45:34.000Z</time>
      </trkpt>
      <trkpt lat="47.40525" lon="6.61884">
        <ele>380.9</ele>
        <time>2017-06-11T07:45:35.000Z</time>
      </trkpt>
      <trkpt lat="47.40521" lon="6.61884">
        <ele>381</ele>
        <time>2017-06-11T07:45:36.000Z</time>
      </trkpt>
      <trkpt lat="47.40518" lon="6.61884">
        <ele>381.2</ele>
        <time>2017-06-11T07:45:37.000Z</time>
      </trkpt>
      <trkpt lat="47.40512" lon="6.61885">
        <ele>381.3</ele>
        <time>2017-06-11T07:45:38.000Z</time>
      </trkpt>
      <trkpt lat="47.40509" lon="6.61886">
        <ele>381.5</ele>
        <time>2017-06-11T07:45:39.000Z</time>
      </trkpt>
      <trkpt lat="47.40506" lon="6.61886">
        <ele>381.7</ele>
        <time>2017-06-11T07:45:40.000Z</time>
      </trkpt>
      <trkpt lat="47.40502" lon="6.61885">
        <ele>381.9</ele>
        <time>2017-06-11T07:45:41.000Z</time>
      </trkpt>
      <trkpt lat="47.40499" lon="6.61885">
        <ele>382.2</ele>
        <time>2017-06-11T07:45:42.000Z</time>
      </trkpt>
      <trkpt lat="47.40493" lon="6.61885">
        <ele>382.5</ele>
        <time>2017-06-11T07:45:43.000Z</time>
      </trkpt>
      <trkpt lat="47.40489" lon="6.61885">
        <ele>383.1</ele>
        <time>2017-06-11T07:45:45.000Z</time>
      </trkpt>
      <trkpt lat="47.40487" lon="6.61885">
        <ele>383.4</ele>
        <time>2017-06-11T07:45:46.000Z</time>
      </trkpt>
      <trkpt lat="47.40484" lon="6.61885">
        <ele>383.8</ele>
        <time>2017-06-11T07:45:47.000Z</time>
      </trkpt>
      <trkpt lat="47.4048" lon="6.61885">
        <ele>384.2</ele>
        <time>2017-06-11T07:45:48.000Z</time>
      </trkpt>
      <trkpt lat="47.40475" lon="6.61886">
        <ele>384.5</ele>
        <time>2017-06-11T07:45:49.000Z</time>
      </trkpt>
      <trkpt lat="47.40472" lon="6.61886">
        <ele>384.7</ele>
        <time>2017-06-11T07:45:50.000Z</time>
      </trkpt>
      <trkpt lat="47.40466" lon="6.61886">
        <ele>385</ele>
        <time>2017-06-11T07:45:51.000Z</time>
      </trkpt>
      <trkpt lat="47.40463" lon="6.61886">
        <ele>385.1</ele>
        <time>2017-06-11T07:45:52.000Z</time>
      </trkpt>
      <trkpt lat="47.4046" lon="6.61886">
        <ele>385.3</ele>
        <time>2017-06-11T07:45:53.000Z</time>
      </trkpt>
      <trkpt lat="47.40458" lon="6.61886">
        <ele>385.4</ele>
        <time>2017-06-11T07:45:54.000Z</time>
      </trkpt>
      <trkpt lat="47.40452" lon="6.61889">
        <ele>385.5</ele>
        <time>2017-06-11T07:45:55.000Z</time>
      </trkpt>
      <trkpt lat="47.40449" lon="6.6189">
        <ele>385.7</ele>
        <time>2017-06-11T07:45:56.000Z</time>
      </trkpt>
      <trkpt lat="47.40444" lon="6.61892">
        <ele>385.8</ele>
        <time>2017-06-11T07:45:57.000Z</time>
      </trkpt>
      <trkpt lat="47.40441" lon="6.61893">
        <ele>386</ele>
        <time>2017-06-11T07:45:58.000Z</time>
      </trkpt>
      <trkpt lat="47.40438" lon="6.61895">
        <ele>386.1</ele>
        <time>2017-06-11T07:45:59.000Z</time>
      </trkpt>
      <trkpt lat="47.40434" lon="6.61896">
        <ele>386.2</ele>
        <time>2017-06-11T07:46:00.000Z</time>
      </trkpt>
      <trkpt lat="47.4043" lon="6.61898">
        <ele>386.9</ele>
        <time>2017-06-11T07:46:01.000Z</time>
      </trkpt>
      <trkpt lat="47.40426" lon="6.61901">
        <ele>388</ele>
        <time>2017-06-11T07:46:02.000Z</time>
      </trkpt>
      <trkpt lat="47.40421" lon="6.61907">
        <ele>388.1</ele>
        <time>2017-06-11T07:46:03.000Z</time>
      </trkpt>
      <trkpt lat="47.40418" lon="6.61909">
        <ele>388.2</ele>
        <time>2017-06-11T07:46:04.000Z</time>
      </trkpt>
      <trkpt lat="47.40413" lon="6.61911">
        <ele>388.3</ele>
        <time>2017-06-11T07:46:05.000Z</time>
      </trkpt>
      <trkpt lat="47.40409" lon="6.61913">
        <ele>388.5</ele>
        <time>2017-06-11T07:46:06.000Z</time>
      </trkpt>
      <trkpt lat="47.40406" lon="6.61915">
        <ele>388.7</ele>
        <time>2017-06-11T07:46:07.000Z</time>
      </trkpt>
      <trkpt lat="47.40404" lon="6.61918">
        <ele>388.8</ele>
        <time>2017-06-11T07:46:08.000Z</time>
      </trkpt>
      <trkpt lat="47.40401" lon="6.6192">
        <ele>389.1</ele>
        <time>2017-06-11T07:46:09.000Z</time>
      </trkpt>
      <trkpt lat="47.40399" lon="6.61922">
        <ele>389.2</ele>
        <time>2017-06-11T07:46:10.000Z</time>
      </trkpt>
      <trkpt lat="47.40396" lon="6.61927">
        <ele>389.4</ele>
        <time>2017-06-11T07:46:11.000Z</time>
      </trkpt>
      <trkpt lat="47.40392" lon="6.61931">
        <ele>389.6</ele>
        <time>2017-06-11T07:46:12.000Z</time>
      </trkpt>
      <trkpt lat="47.40391" lon="6.61933">
        <ele>389.7</ele>
        <time>2017-06-11T07:46:13.000Z</time>
      </trkpt>
      <trkpt lat="47.40391" lon="6.61936">
        <ele>389.9</ele>
        <time>2017-06-11T07:46:14.000Z</time>
      </trkpt>
      <trkpt lat="47.40391" lon="6.61941">
        <ele>390</ele>
        <time>2017-06-11T07:46:15.000Z</time>
      </trkpt>
      <trkpt lat="47.40391" lon="6.61944">
        <ele>390</ele>
        <time>2017-06-11T07:46:16.000Z</time>
      </trkpt>
      <trkpt lat="47.40392" lon="6.61949">
        <ele>390.1</ele>
        <time>2017-06-11T07:46:17.000Z</time>
      </trkpt>
      <trkpt lat="47.40393" lon="6.61955">
        <ele>390.3</ele>
        <time>2017-06-11T07:46:19.000Z</time>
      </trkpt>
      <trkpt lat="47.40393" lon="6.61956">
        <ele>390.4</ele>
        <time>2017-06-11T07:46:20.000Z</time>
      </trkpt>
      <trkpt lat="47.40394" lon="6.61962">
        <ele>390.8</ele>
        <time>2017-06-11T07:46:24.000Z</time>
      </trkpt>
      <trkpt lat="47.40394" lon="6.61965">
        <ele>390.9</ele>
        <time>2017-06-11T07:46:25.000Z</time>
      </trkpt>
      <trkpt lat="47.40395" lon="6.6197">
        <ele>391.2</ele>
        <time>2017-06-11T07:46:28.000Z</time>
      </trkpt>
      <trkpt lat="47.40394" lon="6.61972">
        <ele>391.5</ele>
        <time>2017-06-11T07:46:29.000Z</time>
      </trkpt>
      <trkpt lat="47.40395" lon="6.61977">
        <ele>392.1</ele>
        <time>2017-06-11T07:46:31.000Z</time>
      </trkpt>
      <trkpt lat="47.40395" lon="6.61981">
        <ele>392.5</ele>
        <time>2017-06-11T07:46:32.000Z</time>
      </trkpt>
      <trkpt lat="47.40396" lon="6.61983">
        <ele>392.8</ele>
        <time>2017-06-11T07:46:33.000Z</time>
      </trkpt>
      <trkpt lat="47.40398" lon="6.61986">
        <ele>393</ele>
        <time>2017-06-11T07:46:34.000Z</time>
      </trkpt>
      <trkpt lat="47.40397" lon="6.61991">
        <ele>394.5</ele>
        <time>2017-06-11T07:46:38.000Z</time>
      </trkpt>
      <trkpt lat="47.40397" lon="6.61993">
        <ele>394.9</ele>
        <time>2017-06-11T07:46:39.000Z</time>
      </trkpt>
      <trkpt lat="47.40396" lon="6.61997">
        <ele>395.3</ele>
        <time>2017-06-11T07:46:41.000Z</time>
      </trkpt>
      <trkpt lat="47.40396" lon="6.62003">
        <ele>395.5</ele>
        <time>2017-06-11T07:46:42.000Z</time>
      </trkpt>
      <trkpt lat="47.40396" lon="6.62007">
        <ele>396</ele>
        <time>2017-06-11T07:46:46.000Z</time>
      </trkpt>
      <trkpt lat="47.40395" lon="6.6201">
        <ele>396</ele>
        <time>2017-06-11T07:46:47.000Z</time>
      </trkpt>
      <trkpt lat="47.40394" lon="6.62016">
        <ele>395.8</ele>
        <time>2017-06-11T07:46:49.000Z</time>
      </trkpt>
      <trkpt lat="47.40394" lon="6.62021">
        <ele>395.8</ele>
        <time>2017-06-11T07:46:49.999Z</time>
      </trkpt>
      <trkpt lat="47.40394" lon="6.62022">
        <ele>395.7</ele>
        <time>2017-06-11T07:46:50.999Z</time>
      </trkpt>
      <trkpt lat="47.40394" lon="6.62027">
        <ele>395.5</ele>
        <time>2017-06-11T07:46:51.999Z</time>
      </trkpt>
      <trkpt lat="47.40392" lon="6.62032">
        <ele>395.1</ele>
        <time>2017-06-11T07:46:58.999Z</time>
      </trkpt>
      <trkpt lat="47.40391" lon="6.62037">
        <ele>395.1</ele>
        <time>2017-06-11T07:46:59.999Z</time>
      </trkpt>
      <trkpt lat="47.40394" lon="6.62041">
        <ele>396.4</ele>
        <time>2017-06-11T07:47:08.999Z</time>
      </trkpt>
      <trkpt lat="47.40396" lon="6.6204">
        <ele>396.7</ele>
        <time>2017-06-11T07:47:09.999Z</time>
      </trkpt>
      <trkpt lat="47.40397" lon="6.62035">
        <ele>398</ele>
        <time>2017-06-11T07:47:12.999Z</time>
      </trkpt>
      <trkpt lat="47.40399" lon="6.6203">
        <ele>398.4</ele>
        <time>2017-06-11T07:47:13.999Z</time>
      </trkpt>
      <trkpt lat="47.40401" lon="6.62025">
        <ele>400.1</ele>
        <time>2017-06-11T07:47:16.999Z</time>
      </trkpt>
      <trkpt lat="47.40402" lon="6.62022">
        <ele>400.7</ele>
        <time>2017-06-11T07:47:17.999Z</time>
      </trkpt>
      <trkpt lat="47.40403" lon="6.62018">
        <ele>402.3</ele>
        <time>2017-06-11T07:47:20.999Z</time>
      </trkpt>
      <trkpt lat="47.40405" lon="6.62014">
        <ele>403</ele>
        <time>2017-06-11T07:47:21.999Z</time>
      </trkpt>
      <trkpt lat="47.40408" lon="6.62012">
        <ele>404.8</ele>
        <time>2017-06-11T07:47:24.999Z</time>
      </trkpt>
      <trkpt lat="47.40409" lon="6.62011">
        <ele>405.4</ele>
        <time>2017-06-11T07:47:25.999Z</time>
      </trkpt>
      <trkpt lat="47.40411" lon="6.62008">
        <ele>406.5</ele>
        <time>2017-06-11T07:47:27.999Z</time>
      </trkpt>
      <trkpt lat="47.40415" lon="6.62004">
        <ele>406.9</ele>
        <time>2017-06-11T07:47:28.999Z</time>
      </trkpt>
      <trkpt lat="47.40418" lon="6.62001">
        <ele>408.3</ele>
        <time>2017-06-11T07:47:31.999Z</time>
      </trkpt>
      <trkpt lat="47.40419" lon="6.62001">
        <ele>408.6</ele>
        <time>2017-06-11T07:47:32.999Z</time>
      </trkpt>
      <trkpt lat="47.40422" lon="6.61998">
        <ele>409.5</ele>
        <time>2017-06-11T07:47:34.999Z</time>
      </trkpt>
      <trkpt lat="47.40424" lon="6.61997">
        <ele>409.7</ele>
        <time>2017-06-11T07:47:35.999Z</time>
      </trkpt>
      <trkpt lat="47.40427" lon="6.61995">
        <ele>410.9</ele>
        <time>2017-06-11T07:47:38.999Z</time>
      </trkpt>
      <trkpt lat="47.40428" lon="6.61995">
        <ele>411.4</ele>
        <time>2017-06-11T07:47:39.999Z</time>
      </trkpt>
      <trkpt lat="47.40432" lon="6.61995">
        <ele>412.2</ele>
        <time>2017-06-11T07:47:41.999Z</time>
      </trkpt>
      <trkpt lat="47.40434" lon="6.61995">
        <ele>412.6</ele>
        <time>2017-06-11T07:47:42.999Z</time>
      </trkpt>
      <trkpt lat="47.40438" lon="6.61998">
        <ele>412.9</ele>
        <time>2017-06-11T07:47:43.999Z</time>
      </trkpt>
      <trkpt lat="47.40443" lon="6.61998">
        <ele>413.2</ele>
        <time>2017-06-11T07:47:44.999Z</time>
      </trkpt>
      <trkpt lat="47.40445" lon="6.61998">
        <ele>413.4</ele>
        <time>2017-06-11T07:47:45.999Z</time>
      </trkpt>
      <trkpt lat="47.40449" lon="6.61998">
        <ele>413.7</ele>
        <time>2017-06-11T07:47:46.999Z</time>
      </trkpt>
      <trkpt lat="47.40452" lon="6.62001">
        <ele>414.5</ele>
        <time>2017-06-11T07:47:49.999Z</time>
      </trkpt>
      <trkpt lat="47.40453" lon="6.62002">
        <ele>414.6</ele>
        <time>2017-06-11T07:47:50.999Z</time>
      </trkpt>
      <trkpt lat="47.40457" lon="6.62005">
        <ele>415.1</ele>
        <time>2017-06-11T07:47:52.999Z</time>
      </trkpt>
      <trkpt lat="47.40458" lon="6.62005">
        <ele>415.4</ele>
        <time>2017-06-11T07:47:53.999Z</time>
      </trkpt>
      <trkpt lat="47.40461" lon="6.62006">
        <ele>415.5</ele>
        <time>2017-06-11T07:47:54.999Z</time>
      </trkpt>
      <trkpt lat="47.40464" lon="6.62007">
        <ele>415.8</ele>
        <time>2017-06-11T07:47:55.999Z</time>
      </trkpt>
      <trkpt lat="47.40466" lon="6.62009">
        <ele>416</ele>
        <time>2017-06-11T07:47:56.999Z</time>
      </trkpt>
      <trkpt lat="47.40469" lon="6.62009">
        <ele>416.2</ele>
        <time>2017-06-11T07:47:57.999Z</time>
      </trkpt>
      <trkpt lat="47.40472" lon="6.6201">
        <ele>416.4</ele>
        <time>2017-06-11T07:47:58.999Z</time>
      </trkpt>
      <trkpt lat="47.40474" lon="6.6201">
        <ele>416.6</ele>
        <time>2017-06-11T07:47:59.999Z</time>
      </trkpt>
      <trkpt lat="47.40477" lon="6.62013">
        <ele>416.8</ele>
        <time>2017-06-11T07:48:00.999Z</time>
      </trkpt>
      <trkpt lat="47.40479" lon="6.62015">
        <ele>417</ele>
        <time>2017-06-11T07:48:01.999Z</time>
      </trkpt>
      <trkpt lat="47.40481" lon="6.62017">
        <ele>417.2</ele>
        <time>2017-06-11T07:48:02.999Z</time>
      </trkpt>
      <trkpt lat="47.40483" lon="6.6202">
        <ele>417.3</ele>
        <time>2017-06-11T07:48:03.999Z</time>
      </trkpt>
      <trkpt lat="47.40485" lon="6.62023">
        <ele>417.4</ele>
        <time>2017-06-11T07:48:04.999Z</time>
      </trkpt>
      <trkpt lat="47.40487" lon="6.62026">
        <ele>417.5</ele>
        <time>2017-06-11T07:48:05.999Z</time>
      </trkpt>
      <trkpt lat="47.4049" lon="6.6203">
        <ele>417.6</ele>
        <time>2017-06-11T07:48:06.999Z</time>
      </trkpt>
      <trkpt lat="47.40492" lon="6.62034">
        <ele>417.7</ele>
        <time>2017-06-11T07:48:07.999Z</time>
      </trkpt>
      <trkpt lat="47.40496" lon="6.6204">
        <ele>417.7</ele>
        <time>2017-06-11T07:48:08.999Z</time>
      </trkpt>
      <trkpt lat="47.40498" lon="6.62044">
        <ele>417.9</ele>
        <time>2017-06-11T07:48:09.999Z</time>
      </trkpt>
      <trkpt lat="47.40501" lon="6.62047">
        <ele>418</ele>
        <time>2017-06-11T07:48:10.999Z</time>
      </trkpt>
      <trkpt lat="47.40502" lon="6.62051">
        <ele>418.2</ele>
        <time>2017-06-11T07:48:11.999Z</time>
      </trkpt>
      <trkpt lat="47.40505" lon="6.62054">
        <ele>418.3</ele>
        <time>2017-06-11T07:48:12.999Z</time>
      </trkpt>
      <trkpt lat="47.40507" lon="6.62057">
        <ele>418.4</ele>
        <time>2017-06-11T07:48:13.999Z</time>
      </trkpt>
      <trkpt lat="47.4051" lon="6.6206">
        <ele>418.5</ele>
        <time>2017-06-11T07:48:14.999Z</time>
      </trkpt>
      <trkpt lat="47.40514" lon="6.62062">
        <ele>419.6</ele>
        <time>2017-06-11T07:48:15.999Z</time>
      </trkpt>
      <trkpt lat="47.40517" lon="6.62063">
        <ele>419.7</ele>
        <time>2017-06-11T07:48:16.999Z</time>
      </trkpt>
      <trkpt lat="47.40519" lon="6.62064">
        <ele>419.7</ele>
        <time>2017-06-11T07:48:17.999Z</time>
      </trkpt>
      <trkpt lat="47.40522" lon="6.62067">
        <ele>419.7</ele>
        <time>2017-06-11T07:48:18.999Z</time>
      </trkpt>
      <trkpt lat="47.40524" lon="6.6207">
        <ele>419.7</ele>
        <time>2017-06-11T07:48:19.999Z</time>
      </trkpt>
      <trkpt lat="47.40527" lon="6.62073">
        <ele>419.8</ele>
        <time>2017-06-11T07:48:20.999Z</time>
      </trkpt>
      <trkpt lat="47.40529" lon="6.62075">
        <ele>419.8</ele>
        <time>2017-06-11T07:48:21.999Z</time>
      </trkpt>
      <trkpt lat="47.40532" lon="6.62078">
        <ele>419.9</ele>
        <time>2017-06-11T07:48:22.999Z</time>
      </trkpt>
      <trkpt lat="47.40534" lon="6.62081">
        <ele>420</ele>
        <time>2017-06-11T07:48:23.999Z</time>
      </trkpt>
      <trkpt lat="47.40537" lon="6.62085">
        <ele>420.2</ele>
        <time>2017-06-11T07:48:24.999Z</time>
      </trkpt>
      <trkpt lat="47.4054" lon="6.62088">
        <ele>420.2</ele>
        <time>2017-06-11T07:48:25.999Z</time>
      </trkpt>
      <trkpt lat="47.40543" lon="6.62091">
        <ele>420.3</ele>
        <time>2017-06-11T07:48:26.999Z</time>
      </trkpt>
      <trkpt lat="47.40546" lon="6.62094">
        <ele>420.6</ele>
        <time>2017-06-11T07:48:27.999Z</time>
      </trkpt>
      <trkpt lat="47.4055" lon="6.62097">
        <ele>421.1</ele>
        <time>2017-06-11T07:48:28.999Z</time>
      </trkpt>
      <trkpt lat="47.40553" lon="6.62099">
        <ele>421.2</ele>
        <time>2017-06-11T07:48:29.999Z</time>
      </trkpt>
      <trkpt lat="47.40556" lon="6.62102">
        <ele>421.6</ele>
        <time>2017-06-11T07:48:30.999Z</time>
      </trkpt>
      <trkpt lat="47.4056" lon="6.62104">
        <ele>421.2</ele>
        <time>2017-06-11T07:48:31.999Z</time>
      </trkpt>
      <trkpt lat="47.40563" lon="6.62104">
        <ele>421.2</ele>
        <time>2017-06-11T07:48:32.999Z</time>
      </trkpt>
      <trkpt lat="47.40566" lon="6.62106">
        <ele>421.2</ele>
        <time>2017-06-11T07:48:33.999Z</time>
      </trkpt>
      <trkpt lat="47.40568" lon="6.62107">
        <ele>421.3</ele>
        <time>2017-06-11T07:48:34.999Z</time>
      </trkpt>
      <trkpt lat="47.40572" lon="6.6211">
        <ele>421.4</ele>
        <time>2017-06-11T07:48:35.999Z</time>
      </trkpt>
      <trkpt lat="47.40575" lon="6.62113">
        <ele>421.6</ele>
        <time>2017-06-11T07:48:36.999Z</time>
      </trkpt>
      <trkpt lat="47.40577" lon="6.62118">
        <ele>421.6</ele>
        <time>2017-06-11T07:48:37.999Z</time>
      </trkpt>
      <trkpt lat="47.40579" lon="6.62122">
        <ele>421.7</ele>
        <time>2017-06-11T07:48:38.999Z</time>
      </trkpt>
      <trkpt lat="47.40581" lon="6.62126">
        <ele>421.8</ele>
        <time>2017-06-11T07:48:39.999Z</time>
      </trkpt>
      <trkpt lat="47.40582" lon="6.62131">
        <ele>421.8</ele>
        <time>2017-06-11T07:48:40.999Z</time>
      </trkpt>
      <trkpt lat="47.40582" lon="6.62135">
        <ele>421.9</ele>
        <time>2017-06-11T07:48:41.999Z</time>
      </trkpt>
      <trkpt lat="47.40584" lon="6.62139">
        <ele>421.9</ele>
        <time>2017-06-11T07:48:42.999Z</time>
      </trkpt>
      <trkpt lat="47.40584" lon="6.62142">
        <ele>422</ele>
        <time>2017-06-11T07:48:43.999Z</time>
      </trkpt>
      <trkpt lat="47.40585" lon="6.62145">
        <ele>422.1</ele>
        <time>2017-06-11T07:48:44.999Z</time>
      </trkpt>
      <trkpt lat="47.40586" lon="6.62148">
        <ele>422.2</ele>
        <time>2017-06-11T07:48:45.999Z</time>
      </trkpt>
      <trkpt lat="47.40586" lon="6.62152">
        <ele>422.2</ele>
        <time>2017-06-11T07:48:46.999Z</time>
      </trkpt>
      <trkpt lat="47.40587" lon="6.62155">
        <ele>422.3</ele>
        <time>2017-06-11T07:48:47.999Z</time>
      </trkpt>
      <trkpt lat="47.40588" lon="6.62158">
        <ele>422.3</ele>
        <time>2017-06-11T07:48:48.999Z</time>
      </trkpt>
      <trkpt lat="47.40588" lon="6.62162">
        <ele>422.4</ele>
        <time>2017-06-11T07:48:49.999Z</time>
      </trkpt>
      <trkpt lat="47.40587" lon="6.62165">
        <ele>422.4</ele>
        <time>2017-06-11T07:48:50.999Z</time>
      </trkpt>
      <trkpt lat="47.40587" lon="6.62168">
        <ele>422.5</ele>
        <time>2017-06-11T07:48:51.999Z</time>
      </trkpt>
      <trkpt lat="47.40587" lon="6.62172">
        <ele>422.5</ele>
        <time>2017-06-11T07:48:52.999Z</time>
      </trkpt>
      <trkpt lat="47.40588" lon="6.62178">
        <ele>422.6</ele>
        <time>2017-06-11T07:48:54.999Z</time>
      </trkpt>
      <trkpt lat="47.40588" lon="6.6218">
        <ele>422.6</ele>
        <time>2017-06-11T07:48:55.999Z</time>
      </trkpt>
      <trkpt lat="47.40589" lon="6.62184">
        <ele>422.8</ele>
        <time>2017-06-11T07:48:57.999Z</time>
      </trkpt>
      <trkpt lat="47.40589" lon="6.62186">
        <ele>422.8</ele>
        <time>2017-06-11T07:48:58.999Z</time>
      </trkpt>
      <trkpt lat="47.40591" lon="6.62191">
        <ele>422.6</ele>
        <time>2017-06-11T07:49:00.999Z</time>
      </trkpt>
      <trkpt lat="47.40592" lon="6.62194">
        <ele>422.5</ele>
        <time>2017-06-11T07:49:01.999Z</time>
      </trkpt>
      <trkpt lat="47.40594" lon="6.62199">
        <ele>422.3</ele>
        <time>2017-06-11T07:49:03.999Z</time>
      </trkpt>
      <trkpt lat="47.40594" lon="6.62201">
        <ele>422.2</ele>
        <time>2017-06-11T07:49:04.999Z</time>
      </trkpt>
      <trkpt lat="47.40595" lon="6.62206">
        <ele>422.3</ele>
        <time>2017-06-11T07:49:06.999Z</time>
      </trkpt>
      <trkpt lat="47.40595" lon="6.62208">
        <ele>422.4</ele>
        <time>2017-06-11T07:49:07.999Z</time>
      </trkpt>
      <trkpt lat="47.40595" lon="6.62213">
        <ele>422.4</ele>
        <time>2017-06-11T07:49:09.999Z</time>
      </trkpt>
      <trkpt lat="47.40596" lon="6.62216">
        <ele>422.5</ele>
        <time>2017-06-11T07:49:10.999Z</time>
      </trkpt>
      <trkpt lat="47.40597" lon="6.62219">
        <ele>422.4</ele>
        <time>2017-06-11T07:49:11.999Z</time>
      </trkpt>
      <trkpt lat="47.40597" lon="6.62222">
        <ele>422.4</ele>
        <time>2017-06-11T07:49:12.999Z</time>
      </trkpt>
      <trkpt lat="47.40599" lon="6.62225">
        <ele>422.4</ele>
        <time>2017-06-11T07:49:13.999Z</time>
      </trkpt>
      <trkpt lat="47.406" lon="6.62227">
        <ele>422.5</ele>
        <time>2017-06-11T07:49:14.999Z</time>
      </trkpt>
      <trkpt lat="47.406" lon="6.62233">
        <ele>422.6</ele>
        <time>2017-06-11T07:49:16.999Z</time>
      </trkpt>
      <trkpt lat="47.406" lon="6.62236">
        <ele>422.7</ele>
        <time>2017-06-11T07:49:17.999Z</time>
      </trkpt>
      <trkpt lat="47.40602" lon="6.62241">
        <ele>422.7</ele>
        <time>2017-06-11T07:49:19.999Z</time>
      </trkpt>
      <trkpt lat="47.40602" lon="6.62243">
        <ele>422.7</ele>
        <time>2017-06-11T07:49:20.999Z</time>
      </trkpt>
      <trkpt lat="47.40603" lon="6.62247">
        <ele>422.8</ele>
        <time>2017-06-11T07:49:22.999Z</time>
      </trkpt>
      <trkpt lat="47.40604" lon="6.6225">
        <ele>422.9</ele>
        <time>2017-06-11T07:49:23.999Z</time>
      </trkpt>
      <trkpt lat="47.40605" lon="6.62255">
        <ele>423.1</ele>
        <time>2017-06-11T07:49:25.999Z</time>
      </trkpt>
      <trkpt lat="47.40605" lon="6.62258">
        <ele>423.2</ele>
        <time>2017-06-11T07:49:26.999Z</time>
      </trkpt>
      <trkpt lat="47.40605" lon="6.62263">
        <ele>423.4</ele>
        <time>2017-06-11T07:49:28.999Z</time>
      </trkpt>
      <trkpt lat="47.40605" lon="6.62266">
        <ele>423.6</ele>
        <time>2017-06-11T07:49:29.999Z</time>
      </trkpt>
      <trkpt lat="47.40606" lon="6.62272">
        <ele>423.8</ele>
        <time>2017-06-11T07:49:31.999Z</time>
      </trkpt>
      <trkpt lat="47.40607" lon="6.62275">
        <ele>423.9</ele>
        <time>2017-06-11T07:49:32.999Z</time>
      </trkpt>
      <trkpt lat="47.40608" lon="6.62278">
        <ele>424</ele>
        <time>2017-06-11T07:49:33.999Z</time>
      </trkpt>
      <trkpt lat="47.4061" lon="6.62282">
        <ele>424</ele>
        <time>2017-06-11T07:49:34.999Z</time>
      </trkpt>
      <trkpt lat="47.40612" lon="6.62285">
        <ele>424.1</ele>
        <time>2017-06-11T07:49:35.999Z</time>
      </trkpt>
      <trkpt lat="47.40613" lon="6.62288">
        <ele>424.2</ele>
        <time>2017-06-11T07:49:36.999Z</time>
      </trkpt>
      <trkpt lat="47.40614" lon="6.62291">
        <ele>424.3</ele>
        <time>2017-06-11T07:49:37.999Z</time>
      </trkpt>
      <trkpt lat="47.40616" lon="6.62294">
        <ele>424.4</ele>
        <time>2017-06-11T07:49:38.999Z</time>
      </trkpt>
      <trkpt lat="47.40617" lon="6.62297">
        <ele>424.6</ele>
        <time>2017-06-11T07:49:39.999Z</time>
      </trkpt>
      <trkpt lat="47.40619" lon="6.623">
        <ele>424.7</ele>
        <time>2017-06-11T07:49:40.999Z</time>
      </trkpt>
      <trkpt lat="47.4062" lon="6.62303">
        <ele>424.9</ele>
        <time>2017-06-11T07:49:41.999Z</time>
      </trkpt>
      <trkpt lat="47.40622" lon="6.62305">
        <ele>425</ele>
        <time>2017-06-11T07:49:42.999Z</time>
      </trkpt>
      <trkpt lat="47.40623" lon="6.62308">
        <ele>425.2</ele>
        <time>2017-06-11T07:49:43.999Z</time>
      </trkpt>
      <trkpt lat="47.40625" lon="6.62312">
        <ele>425.3</ele>
        <time>2017-06-11T07:49:44.999Z</time>
      </trkpt>
      <trkpt lat="47.40627" lon="6.62315">
        <ele>425.3</ele>
        <time>2017-06-11T07:49:45.999Z</time>
      </trkpt>
      <trkpt lat="47.40628" lon="6.62318">
        <ele>425.4</ele>
        <time>2017-06-11T07:49:46.999Z</time>
      </trkpt>
      <trkpt lat="47.40631" lon="6.62323">
        <ele>425.3</ele>
        <time>2017-06-11T07:49:48.999Z</time>
      </trkpt>
      <trkpt lat="47.40633" lon="6.62326">
        <ele>425.3</ele>
        <time>2017-06-11T07:49:49.999Z</time>
      </trkpt>
      <trkpt lat="47.40635" lon="6.6233">
        <ele>425.4</ele>
        <time>2017-06-11T07:49:51.999Z</time>
      </trkpt>
      <trkpt lat="47.40637" lon="6.62332">
        <ele>425.4</ele>
        <time>2017-06-11T07:49:52.999Z</time>
      </trkpt>
      <trkpt lat="47.40639" lon="6.62335">
        <ele>425.5</ele>
        <time>2017-06-11T07:49:53.999Z</time>
      </trkpt>
      <trkpt lat="47.4064" lon="6.62337">
        <ele>425.6</ele>
        <time>2017-06-11T07:49:54.999Z</time>
      </trkpt>
      <trkpt lat="47.40642" lon="6.6234">
        <ele>425.7</ele>
        <time>2017-06-11T07:49:55.999Z</time>
      </trkpt>
      <trkpt lat="47.40643" lon="6.62343">
        <ele>425.8</ele>
        <time>2017-06-11T07:49:56.999Z</time>
      </trkpt>
      <trkpt lat="47.40644" lon="6.62346">
        <ele>425.9</ele>
        <time>2017-06-11T07:49:57.999Z</time>
      </trkpt>
      <trkpt lat="47.40645" lon="6.6235">
        <ele>425.9</ele>
        <time>2017-06-11T07:49:58.999Z</time>
      </trkpt>
      <trkpt lat="47.40646" lon="6.62354">
        <ele>426</ele>
        <time>2017-06-11T07:49:59.999Z</time>
      </trkpt>
      <trkpt lat="47.40646" lon="6.62357">
        <ele>426</ele>
        <time>2017-06-11T07:50:00.999Z</time>
      </trkpt>
      <trkpt lat="47.40646" lon="6.62362">
        <ele>426.1</ele>
        <time>2017-06-11T07:50:02.999Z</time>
      </trkpt>
      <trkpt lat="47.40647" lon="6.62366">
        <ele>426.2</ele>
        <time>2017-06-11T07:50:03.999Z</time>
      </trkpt>
      <trkpt lat="47.40647" lon="6.62369">
        <ele>426.2</ele>
        <time>2017-06-11T07:50:04.999Z</time>
      </trkpt>
      <trkpt lat="47.40648" lon="6.62373">
        <ele>426.2</ele>
        <time>2017-06-11T07:50:05.999Z</time>
      </trkpt>
      <trkpt lat="47.40649" lon="6.62376">
        <ele>426.3</ele>
        <time>2017-06-11T07:50:06.999Z</time>
      </trkpt>
      <trkpt lat="47.4065" lon="6.6238">
        <ele>426.3</ele>
        <time>2017-06-11T07:50:07.999Z</time>
      </trkpt>
      <trkpt lat="47.4065" lon="6.62383">
        <ele>426.4</ele>
        <time>2017-06-11T07:50:08.999Z</time>
      </trkpt>
      <trkpt lat="47.40651" lon="6.62386">
        <ele>426.5</ele>
        <time>2017-06-11T07:50:09.999Z</time>
      </trkpt>
      <trkpt lat="47.40652" lon="6.62392">
        <ele>426.8</ele>
        <time>2017-06-11T07:50:11.999Z</time>
      </trkpt>
      <trkpt lat="47.40652" lon="6.62396">
        <ele>427</ele>
        <time>2017-06-11T07:50:12.999Z</time>
      </trkpt>
      <trkpt lat="47.40653" lon="6.62399">
        <ele>427.2</ele>
        <time>2017-06-11T07:50:13.999Z</time>
      </trkpt>
      <trkpt lat="47.40654" lon="6.62403">
        <ele>427.4</ele>
        <time>2017-06-11T07:50:14.999Z</time>
      </trkpt>
      <trkpt lat="47.40655" lon="6.62409">
        <ele>427.7</ele>
        <time>2017-06-11T07:50:16.999Z</time>
      </trkpt>
      <trkpt lat="47.40656" lon="6.62412">
        <ele>427.9</ele>
        <time>2017-06-11T07:50:17.999Z</time>
      </trkpt>
      <trkpt lat="47.40656" lon="6.62416">
        <ele>428.1</ele>
        <time>2017-06-11T07:50:18.999Z</time>
      </trkpt>
      <trkpt lat="47.40658" lon="6.62419">
        <ele>428.3</ele>
        <time>2017-06-11T07:50:19.999Z</time>
      </trkpt>
      <trkpt lat="47.40658" lon="6.62423">
        <ele>428.4</ele>
        <time>2017-06-11T07:50:20.999Z</time>
      </trkpt>
      <trkpt lat="47.40659" lon="6.62427">
        <ele>428.5</ele>
        <time>2017-06-11T07:50:21.999Z</time>
      </trkpt>
      <trkpt lat="47.40659" lon="6.62431">
        <ele>428.6</ele>
        <time>2017-06-11T07:50:22.999Z</time>
      </trkpt>
      <trkpt lat="47.4066" lon="6.62434">
        <ele>428.7</ele>
        <time>2017-06-11T07:50:23.999Z</time>
      </trkpt>
      <trkpt lat="47.4066" lon="6.6244">
        <ele>429.1</ele>
        <time>2017-06-11T07:50:25.999Z</time>
      </trkpt>
      <trkpt lat="47.4066" lon="6.62444">
        <ele>429.2</ele>
        <time>2017-06-11T07:50:26.999Z</time>
      </trkpt>
      <trkpt lat="47.4066" lon="6.6245">
        <ele>429.6</ele>
        <time>2017-06-11T07:50:28.999Z</time>
      </trkpt>
      <trkpt lat="47.4066" lon="6.62454">
        <ele>429.8</ele>
        <time>2017-06-11T07:50:29.999Z</time>
      </trkpt>
      <trkpt lat="47.4066" lon="6.62457">
        <ele>430.1</ele>
        <time>2017-06-11T07:50:30.999Z</time>
      </trkpt>
      <trkpt lat="47.40661" lon="6.62461">
        <ele>430.3</ele>
        <time>2017-06-11T07:50:31.999Z</time>
      </trkpt>
      <trkpt lat="47.40662" lon="6.62465">
        <ele>430.7</ele>
        <time>2017-06-11T07:50:33.999Z</time>
      </trkpt>
      <trkpt lat="47.40662" lon="6.62468">
        <ele>430.9</ele>
        <time>2017-06-11T07:50:34.999Z</time>
      </trkpt>
      <trkpt lat="47.40663" lon="6.62471">
        <ele>431.1</ele>
        <time>2017-06-11T07:50:35.999Z</time>
      </trkpt>
      <trkpt lat="47.40664" lon="6.62476">
        <ele>431.3</ele>
        <time>2017-06-11T07:50:36.999Z</time>
      </trkpt>
      <trkpt lat="47.40665" lon="6.62479">
        <ele>431.4</ele>
        <time>2017-06-11T07:50:37.999Z</time>
      </trkpt>
      <trkpt lat="47.40665" lon="6.62483">
        <ele>431.5</ele>
        <time>2017-06-11T07:50:38.999Z</time>
      </trkpt>
      <trkpt lat="47.40666" lon="6.62486">
        <ele>431.7</ele>
        <time>2017-06-11T07:50:39.999Z</time>
      </trkpt>
      <trkpt lat="47.40667" lon="6.6249">
        <ele>431.8</ele>
        <time>2017-06-11T07:50:40.999Z</time>
      </trkpt>
      <trkpt lat="47.40668" lon="6.62495">
        <ele>432</ele>
        <time>2017-06-11T07:50:41.999Z</time>
      </trkpt>
      <trkpt lat="47.40669" lon="6.62499">
        <ele>432.2</ele>
        <time>2017-06-11T07:50:42.999Z</time>
      </trkpt>
      <trkpt lat="47.4067" lon="6.62503">
        <ele>432.3</ele>
        <time>2017-06-11T07:50:43.999Z</time>
      </trkpt>
      <trkpt lat="47.4067" lon="6.62507">
        <ele>432.5</ele>
        <time>2017-06-11T07:50:44.999Z</time>
      </trkpt>
      <trkpt lat="47.40671" lon="6.62511">
        <ele>432.7</ele>
        <time>2017-06-11T07:50:45.999Z</time>
      </trkpt>
      <trkpt lat="47.40672" lon="6.62515">
        <ele>432.8</ele>
        <time>2017-06-11T07:50:46.999Z</time>
      </trkpt>
      <trkpt lat="47.40673" lon="6.62519">
        <ele>433</ele>
        <time>2017-06-11T07:50:47.999Z</time>
      </trkpt>
      <trkpt lat="47.40674" lon="6.62523">
        <ele>433.1</ele>
        <time>2017-06-11T07:50:48.999Z</time>
      </trkpt>
      <trkpt lat="47.40675" lon="6.62526">
        <ele>433.3</ele>
        <time>2017-06-11T07:50:49.999Z</time>
      </trkpt>
      <trkpt lat="47.40675" lon="6.62529">
        <ele>433.5</ele>
        <time>2017-06-11T07:50:50.999Z</time>
      </trkpt>
      <trkpt lat="47.40676" lon="6.62536">
        <ele>433.8</ele>
        <time>2017-06-11T07:50:52.999Z</time>
      </trkpt>
      <trkpt lat="47.40677" lon="6.62539">
        <ele>433.8</ele>
        <time>2017-06-11T07:50:53.999Z</time>
      </trkpt>
      <trkpt lat="47.40678" lon="6.62544">
        <ele>433.9</ele>
        <time>2017-06-11T07:50:54.999Z</time>
      </trkpt>
      <trkpt lat="47.40679" lon="6.62548">
        <ele>434</ele>
        <time>2017-06-11T07:50:55.999Z</time>
      </trkpt>
      <trkpt lat="47.4068" lon="6.62552">
        <ele>434.1</ele>
        <time>2017-06-11T07:50:56.999Z</time>
      </trkpt>
      <trkpt lat="47.40681" lon="6.62557">
        <ele>434.1</ele>
        <time>2017-06-11T07:50:57.999Z</time>
      </trkpt>
      <trkpt lat="47.40681" lon="6.6256">
        <ele>434.2</ele>
        <time>2017-06-11T07:50:58.999Z</time>
      </trkpt>
      <trkpt lat="47.40682" lon="6.62564">
        <ele>434.3</ele>
        <time>2017-06-11T07:50:59.999Z</time>
      </trkpt>
      <trkpt lat="47.40683" lon="6.6257">
        <ele>434.6</ele>
        <time>2017-06-11T07:51:01.999Z</time>
      </trkpt>
      <trkpt lat="47.40684" lon="6.62574">
        <ele>434.8</ele>
        <time>2017-06-11T07:51:02.999Z</time>
      </trkpt>
      <trkpt lat="47.40684" lon="6.62577">
        <ele>435.1</ele>
        <time>2017-06-11T07:51:03.999Z</time>
      </trkpt>
      <trkpt lat="47.40684" lon="6.62581">
        <ele>435.3</ele>
        <time>2017-06-11T07:51:04.999Z</time>
      </trkpt>
      <trkpt lat="47.40684" lon="6.62585">
        <ele>435.5</ele>
        <time>2017-06-11T07:51:05.999Z</time>
      </trkpt>
      <trkpt lat="47.40683" lon="6.62588">
        <ele>435.6</ele>
        <time>2017-06-11T07:51:06.999Z</time>
      </trkpt>
      <trkpt lat="47.40682" lon="6.62592">
        <ele>435.7</ele>
        <time>2017-06-11T07:51:07.999Z</time>
      </trkpt>
      <trkpt lat="47.40682" lon="6.62595">
        <ele>435.9</ele>
        <time>2017-06-11T07:51:08.999Z</time>
      </trkpt>
      <trkpt lat="47.40682" lon="6.62599">
        <ele>436.1</ele>
        <time>2017-06-11T07:51:09.999Z</time>
      </trkpt>
      <trkpt lat="47.40682" lon="6.62602">
        <ele>436.2</ele>
        <time>2017-06-11T07:51:10.999Z</time>
      </trkpt>
      <trkpt lat="47.4068" lon="6.62606">
        <ele>436.4</ele>
        <time>2017-06-11T07:51:11.999Z</time>
      </trkpt>
      <trkpt lat="47.4068" lon="6.6261">
        <ele>436.4</ele>
        <time>2017-06-11T07:51:12.999Z</time>
      </trkpt>
      <trkpt lat="47.40679" lon="6.62614">
        <ele>436.5</ele>
        <time>2017-06-11T07:51:13.999Z</time>
      </trkpt>
      <trkpt lat="47.40679" lon="6.62617">
        <ele>436.7</ele>
        <time>2017-06-11T07:51:14.999Z</time>
      </trkpt>
      <trkpt lat="47.40678" lon="6.62621">
        <ele>436.8</ele>
        <time>2017-06-11T07:51:15.999Z</time>
      </trkpt>
      <trkpt lat="47.40677" lon="6.62625">
        <ele>436.9</ele>
        <time>2017-06-11T07:51:16.999Z</time>
      </trkpt>
      <trkpt lat="47.40677" lon="6.62628">
        <ele>437</ele>
        <time>2017-06-11T07:51:17.999Z</time>
      </trkpt>
      <trkpt lat="47.40676" lon="6.62632">
        <ele>437.1</ele>
        <time>2017-06-11T07:51:18.999Z</time>
      </trkpt>
      <trkpt lat="47.40676" lon="6.62636">
        <ele>437.2</ele>
        <time>2017-06-11T07:51:19.999Z</time>
      </trkpt>
      <trkpt lat="47.40676" lon="6.6264">
        <ele>437.2</ele>
        <time>2017-06-11T07:51:20.999Z</time>
      </trkpt>
      <trkpt lat="47.40675" lon="6.62643">
        <ele>437.3</ele>
        <time>2017-06-11T07:51:21.999Z</time>
      </trkpt>
      <trkpt lat="47.40675" lon="6.62647">
        <ele>437.3</ele>
        <time>2017-06-11T07:51:22.999Z</time>
      </trkpt>
      <trkpt lat="47.40674" lon="6.62651">
        <ele>437.4</ele>
        <time>2017-06-11T07:51:23.999Z</time>
      </trkpt>
      <trkpt lat="47.40674" lon="6.62655">
        <ele>437.4</ele>
        <time>2017-06-11T07:51:24.999Z</time>
      </trkpt>
      <trkpt lat="47.40674" lon="6.62662">
        <ele>437.7</ele>
        <time>2017-06-11T07:51:26.999Z</time>
      </trkpt>
      <trkpt lat="47.40674" lon="6.62665">
        <ele>437.8</ele>
        <time>2017-06-11T07:51:27.999Z</time>
      </trkpt>
      <trkpt lat="47.40675" lon="6.62669">
        <ele>438</ele>
        <time>2017-06-11T07:51:28.999Z</time>
      </trkpt>
      <trkpt lat="47.40676" lon="6.62673">
        <ele>438.3</ele>
        <time>2017-06-11T07:51:29.999Z</time>
      </trkpt>
      <trkpt lat="47.40676" lon="6.62677">
        <ele>438.5</ele>
        <time>2017-06-11T07:51:30.999Z</time>
      </trkpt>
      <trkpt lat="47.40676" lon="6.62681">
        <ele>438.8</ele>
        <time>2017-06-11T07:51:31.999Z</time>
      </trkpt>
      <trkpt lat="47.40677" lon="6.62685">
        <ele>439.1</ele>
        <time>2017-06-11T07:51:32.999Z</time>
      </trkpt>
      <trkpt lat="47.40677" lon="6.62689">
        <ele>439.3</ele>
        <time>2017-06-11T07:51:33.999Z</time>
      </trkpt>
      <trkpt lat="47.40677" lon="6.62693">
        <ele>439.7</ele>
        <time>2017-06-11T07:51:34.999Z</time>
      </trkpt>
      <trkpt lat="47.40678" lon="6.62696">
        <ele>440</ele>
        <time>2017-06-11T07:51:35.999Z</time>
      </trkpt>
      <trkpt lat="47.40678" lon="6.627">
        <ele>440.3</ele>
        <time>2017-06-11T07:51:36.999Z</time>
      </trkpt>
      <trkpt lat="47.40678" lon="6.62704">
        <ele>440.6</ele>
        <time>2017-06-11T07:51:37.999Z</time>
      </trkpt>
      <trkpt lat="47.4068" lon="6.62708">
        <ele>440.9</ele>
        <time>2017-06-11T07:51:38.999Z</time>
      </trkpt>
      <trkpt lat="47.40681" lon="6.62712">
        <ele>441.3</ele>
        <time>2017-06-11T07:51:39.999Z</time>
      </trkpt>
      <trkpt lat="47.40681" lon="6.62715">
        <ele>441.6</ele>
        <time>2017-06-11T07:51:40.999Z</time>
      </trkpt>
      <trkpt lat="47.40682" lon="6.62719">
        <ele>441.9</ele>
        <time>2017-06-11T07:51:41.999Z</time>
      </trkpt>
      <trkpt lat="47.40684" lon="6.62724">
        <ele>442.1</ele>
        <time>2017-06-11T07:51:42.999Z</time>
      </trkpt>
      <trkpt lat="47.40685" lon="6.62728">
        <ele>442.4</ele>
        <time>2017-06-11T07:51:43.999Z</time>
      </trkpt>
      <trkpt lat="47.40685" lon="6.62732">
        <ele>442.6</ele>
        <time>2017-06-11T07:51:44.999Z</time>
      </trkpt>
      <trkpt lat="47.40686" lon="6.62736">
        <ele>442.9</ele>
        <time>2017-06-11T07:51:45.999Z</time>
      </trkpt>
      <trkpt lat="47.40687" lon="6.6274">
        <ele>443.2</ele>
        <time>2017-06-11T07:51:46.999Z</time>
      </trkpt>
      <trkpt lat="47.40688" lon="6.62745">
        <ele>443.5</ele>
        <time>2017-06-11T07:51:47.999Z</time>
      </trkpt>
      <trkpt lat="47.40688" lon="6.62749">
        <ele>443.8</ele>
        <time>2017-06-11T07:51:48.999Z</time>
      </trkpt>
      <trkpt lat="47.40689" lon="6.62754">
        <ele>444</ele>
        <time>2017-06-11T07:51:49.999Z</time>
      </trkpt>
      <trkpt lat="47.40689" lon="6.62758">
        <ele>444.3</ele>
        <time>2017-06-11T07:51:50.999Z</time>
      </trkpt>
      <trkpt lat="47.40689" lon="6.62762">
        <ele>444.6</ele>
        <time>2017-06-11T07:51:51.999Z</time>
      </trkpt>
      <trkpt lat="47.40689" lon="6.62767">
        <ele>444.8</ele>
        <time>2017-06-11T07:51:52.999Z</time>
      </trkpt>
      <trkpt lat="47.40689" lon="6.62772">
        <ele>445</ele>
        <time>2017-06-11T07:51:53.999Z</time>
      </trkpt>
      <trkpt lat="47.40689" lon="6.62776">
        <ele>445.2</ele>
        <time>2017-06-11T07:51:54.999Z</time>
      </trkpt>
      <trkpt lat="47.4069" lon="6.6278">
        <ele>445.4</ele>
        <time>2017-06-11T07:51:55.999Z</time>
      </trkpt>
      <trkpt lat="47.4069" lon="6.62784">
        <ele>445.5</ele>
        <time>2017-06-11T07:51:56.999Z</time>
      </trkpt>
      <trkpt lat="47.40691" lon="6.62788">
        <ele>445.7</ele>
        <time>2017-06-11T07:51:57.999Z</time>
      </trkpt>
      <trkpt lat="47.40692" lon="6.62791">
        <ele>445.9</ele>
        <time>2017-06-11T07:51:58.999Z</time>
      </trkpt>
      <trkpt lat="47.40693" lon="6.62795">
        <ele>446.2</ele>
        <time>2017-06-11T07:51:59.999Z</time>
      </trkpt>
      <trkpt lat="47.40694" lon="6.62801">
        <ele>446.7</ele>
        <time>2017-06-11T07:52:01.999Z</time>
      </trkpt>
      <trkpt lat="47.40696" lon="6.62803">
        <ele>446.9</ele>
        <time>2017-06-11T07:52:02.999Z</time>
      </trkpt>
      <trkpt lat="47.40698" lon="6.62803">
        <ele>447.2</ele>
        <time>2017-06-11T07:52:03.999Z</time>
      </trkpt>
      <trkpt lat="47.40701" lon="6.62803">
        <ele>447.4</ele>
        <time>2017-06-11T07:52:04.999Z</time>
      </trkpt>
      <trkpt lat="47.40705" lon="6.62802">
        <ele>450.2</ele>
        <time>2017-06-11T07:52:05.999Z</time>
      </trkpt>
      <trkpt lat="47.40708" lon="6.62801">
        <ele>452.2</ele>
        <time>2017-06-11T07:52:06.999Z</time>
      </trkpt>
      <trkpt lat="47.40712" lon="6.628">
        <ele>454</ele>
        <time>2017-06-11T07:52:07.999Z</time>
      </trkpt>
      <trkpt lat="47.40716" lon="6.628">
        <ele>455.6</ele>
        <time>2017-06-11T07:52:08.999Z</time>
      </trkpt>
      <trkpt lat="47.40721" lon="6.62799">
        <ele>456.8</ele>
        <time>2017-06-11T07:52:09.999Z</time>
      </trkpt>
      <trkpt lat="47.40728" lon="6.62798">
        <ele>458.2</ele>
        <time>2017-06-11T07:52:10.999Z</time>
      </trkpt>
      <trkpt lat="47.40736" lon="6.62796">
        <ele>459.4</ele>
        <time>2017-06-11T07:52:11.999Z</time>
      </trkpt>
      <trkpt lat="47.40743" lon="6.62794">
        <ele>460</ele>
        <time>2017-06-11T07:52:12.999Z</time>
      </trkpt>
      <trkpt lat="47.40749" lon="6.62793">
        <ele>460.1</ele>
        <time>2017-06-11T07:52:13.999Z</time>
      </trkpt>
      <trkpt lat="47.40755" lon="6.62791">
        <ele>460.4</ele>
        <time>2017-06-11T07:52:14.999Z</time>
      </trkpt>
      <trkpt lat="47.40761" lon="6.62789">
        <ele>460.5</ele>
        <time>2017-06-11T07:52:15.999Z</time>
      </trkpt>
      <trkpt lat="47.40767" lon="6.62787">
        <ele>460.2</ele>
        <time>2017-06-11T07:52:16.999Z</time>
      </trkpt>
      <trkpt lat="47.40773" lon="6.62785">
        <ele>459.4</ele>
        <time>2017-06-11T07:52:17.999Z</time>
      </trkpt>
      <trkpt lat="47.4078" lon="6.62782">
        <ele>458.6</ele>
        <time>2017-06-11T07:52:18.999Z</time>
      </trkpt>
      <trkpt lat="47.40786" lon="6.6278">
        <ele>457.5</ele>
        <time>2017-06-11T07:52:19.999Z</time>
      </trkpt>
      <trkpt lat="47.40791" lon="6.62777">
        <ele>456.7</ele>
        <time>2017-06-11T07:52:20.999Z</time>
      </trkpt>
      <trkpt lat="47.40797" lon="6.62774">
        <ele>456.2</ele>
        <time>2017-06-11T07:52:21.999Z</time>
      </trkpt>
      <trkpt lat="47.40804" lon="6.62771">
        <ele>456</ele>
        <time>2017-06-11T07:52:22.999Z</time>
      </trkpt>
      <trkpt lat="47.40811" lon="6.62767">
        <ele>455.6</ele>
        <time>2017-06-11T07:52:23.999Z</time>
      </trkpt>
      <trkpt lat="47.40818" lon="6.62763">
        <ele>455.5</ele>
        <time>2017-06-11T07:52:24.999Z</time>
      </trkpt>
      <trkpt lat="47.40824" lon="6.62758">
        <ele>455.3</ele>
        <time>2017-06-11T07:52:25.999Z</time>
      </trkpt>
      <trkpt lat="47.40831" lon="6.62754">
        <ele>454.7</ele>
        <time>2017-06-11T07:52:26.999Z</time>
      </trkpt>
      <trkpt lat="47.40836" lon="6.62751">
        <ele>454.5</ele>
        <time>2017-06-11T07:52:27.999Z</time>
      </trkpt>
      <trkpt lat="47.40842" lon="6.62747">
        <ele>453.6</ele>
        <time>2017-06-11T07:52:28.999Z</time>
      </trkpt>
      <trkpt lat="47.40847" lon="6.62743">
        <ele>452.8</ele>
        <time>2017-06-11T07:52:29.999Z</time>
      </trkpt>
      <trkpt lat="47.40853" lon="6.62739">
        <ele>451.8</ele>
        <time>2017-06-11T07:52:30.999Z</time>
      </trkpt>
      <trkpt lat="47.40859" lon="6.62735">
        <ele>451.4</ele>
        <time>2017-06-11T07:52:31.999Z</time>
      </trkpt>
      <trkpt lat="47.40864" lon="6.62732">
        <ele>451.1</ele>
        <time>2017-06-11T07:52:32.999Z</time>
      </trkpt>
      <trkpt lat="47.4087" lon="6.62727">
        <ele>450.4</ele>
        <time>2017-06-11T07:52:33.999Z</time>
      </trkpt>
      <trkpt lat="47.40875" lon="6.62722">
        <ele>449.9</ele>
        <time>2017-06-11T07:52:34.999Z</time>
      </trkpt>
      <trkpt lat="47.4088" lon="6.62717">
        <ele>450.1</ele>
        <time>2017-06-11T07:52:35.999Z</time>
      </trkpt>
      <trkpt lat="47.40884" lon="6.62712">
        <ele>450.5</ele>
        <time>2017-06-11T07:52:36.999Z</time>
      </trkpt>
      <trkpt lat="47.40888" lon="6.62706">
        <ele>450.6</ele>
        <time>2017-06-11T07:52:37.999Z</time>
      </trkpt>
      <trkpt lat="47.40893" lon="6.62701">
        <ele>450.6</ele>
        <time>2017-06-11T07:52:38.999Z</time>
      </trkpt>
      <trkpt lat="47.40897" lon="6.62696">
        <ele>450</ele>
        <time>2017-06-11T07:52:39.999Z</time>
      </trkpt>
      <trkpt lat="47.40901" lon="6.6269">
        <ele>449.7</ele>
        <time>2017-06-11T07:52:40.999Z</time>
      </trkpt>
      <trkpt lat="47.40904" lon="6.62684">
        <ele>450.2</ele>
        <time>2017-06-11T07:52:41.999Z</time>
      </trkpt>
      <trkpt lat="47.40907" lon="6.62677">
        <ele>450.8</ele>
        <time>2017-06-11T07:52:42.999Z</time>
      </trkpt>
      <trkpt lat="47.4091" lon="6.62671">
        <ele>450.5</ele>
        <time>2017-06-11T07:52:43.999Z</time>
      </trkpt>
      <trkpt lat="47.40912" lon="6.62666">
        <ele>450.3</ele>
        <time>2017-06-11T07:52:44.999Z</time>
      </trkpt>
      <trkpt lat="47.40916" lon="6.62661">
        <ele>449</ele>
        <time>2017-06-11T07:52:45.999Z</time>
      </trkpt>
      <trkpt lat="47.40918" lon="6.62657">
        <ele>449</ele>
        <time>2017-06-11T07:52:46.999Z</time>
      </trkpt>
      <trkpt lat="47.4092" lon="6.62654">
        <ele>448.9</ele>
        <time>2017-06-11T07:52:47.999Z</time>
      </trkpt>
      <trkpt lat="47.40922" lon="6.62652">
        <ele>448.9</ele>
        <time>2017-06-11T07:52:48.999Z</time>
      </trkpt>
      <trkpt lat="47.40924" lon="6.6265">
        <ele>448.8</ele>
        <time>2017-06-11T07:52:49.999Z</time>
      </trkpt>
      <trkpt lat="47.40926" lon="6.62647">
        <ele>448.8</ele>
        <time>2017-06-11T07:52:50.999Z</time>
      </trkpt>
      <trkpt lat="47.40928" lon="6.62643">
        <ele>448.8</ele>
        <time>2017-06-11T07:52:51.999Z</time>
      </trkpt>
      <trkpt lat="47.4093" lon="6.6264">
        <ele>448.7</ele>
        <time>2017-06-11T07:52:52.999Z</time>
      </trkpt>
      <trkpt lat="47.40933" lon="6.62637">
        <ele>448.6</ele>
        <time>2017-06-11T07:52:53.999Z</time>
      </trkpt>
      <trkpt lat="47.40936" lon="6.62635">
        <ele>448.6</ele>
        <time>2017-06-11T07:52:54.999Z</time>
      </trkpt>
      <trkpt lat="47.4094" lon="6.62632">
        <ele>448.6</ele>
        <time>2017-06-11T07:52:55.999Z</time>
      </trkpt>
      <trkpt lat="47.40943" lon="6.6263">
        <ele>448.5</ele>
        <time>2017-06-11T07:52:56.999Z</time>
      </trkpt>
      <trkpt lat="47.40945" lon="6.62628">
        <ele>448.5</ele>
        <time>2017-06-11T07:52:57.999Z</time>
      </trkpt>
      <trkpt lat="47.40948" lon="6.62626">
        <ele>448.5</ele>
        <time>2017-06-11T07:52:58.999Z</time>
      </trkpt>
      <trkpt lat="47.4095" lon="6.62623">
        <ele>448.4</ele>
        <time>2017-06-11T07:52:59.999Z</time>
      </trkpt>
      <trkpt lat="47.40953" lon="6.6262">
        <ele>448.5</ele>
        <time>2017-06-11T07:53:00.999Z</time>
      </trkpt>
      <trkpt lat="47.40956" lon="6.62618">
        <ele>448.5</ele>
        <time>2017-06-11T07:53:01.999Z</time>
      </trkpt>
      <trkpt lat="47.40959" lon="6.62616">
        <ele>448.5</ele>
        <time>2017-06-11T07:53:02.999Z</time>
      </trkpt>
      <trkpt lat="47.40961" lon="6.62614">
        <ele>448.4</ele>
        <time>2017-06-11T07:53:03.999Z</time>
      </trkpt>
      <trkpt lat="47.40963" lon="6.62611">
        <ele>448.4</ele>
        <time>2017-06-11T07:53:04.999Z</time>
      </trkpt>
      <trkpt lat="47.40965" lon="6.62608">
        <ele>448.3</ele>
        <time>2017-06-11T07:53:05.999Z</time>
      </trkpt>
      <trkpt lat="47.40967" lon="6.62605">
        <ele>448.3</ele>
        <time>2017-06-11T07:53:06.999Z</time>
      </trkpt>
      <trkpt lat="47.40969" lon="6.62601">
        <ele>448.4</ele>
        <time>2017-06-11T07:53:07.999Z</time>
      </trkpt>
      <trkpt lat="47.40972" lon="6.62598">
        <ele>448.3</ele>
        <time>2017-06-11T07:53:08.999Z</time>
      </trkpt>
      <trkpt lat="47.40975" lon="6.62594">
        <ele>448.3</ele>
        <time>2017-06-11T07:53:09.999Z</time>
      </trkpt>
      <trkpt lat="47.40977" lon="6.62592">
        <ele>448.3</ele>
        <time>2017-06-11T07:53:10.999Z</time>
      </trkpt>
      <trkpt lat="47.4098" lon="6.62589">
        <ele>448.2</ele>
        <time>2017-06-11T07:53:11.999Z</time>
      </trkpt>
      <trkpt lat="47.40982" lon="6.62586">
        <ele>448.1</ele>
        <time>2017-06-11T07:53:12.999Z</time>
      </trkpt>
      <trkpt lat="47.40985" lon="6.62583">
        <ele>448</ele>
        <time>2017-06-11T07:53:13.999Z</time>
      </trkpt>
      <trkpt lat="47.40988" lon="6.62579">
        <ele>448</ele>
        <time>2017-06-11T07:53:14.999Z</time>
      </trkpt>
      <trkpt lat="47.40991" lon="6.62577">
        <ele>448</ele>
        <time>2017-06-11T07:53:15.999Z</time>
      </trkpt>
      <trkpt lat="47.40995" lon="6.62573">
        <ele>448</ele>
        <time>2017-06-11T07:53:16.999Z</time>
      </trkpt>
      <trkpt lat="47.40998" lon="6.62571">
        <ele>448.2</ele>
        <time>2017-06-11T07:53:17.999Z</time>
      </trkpt>
      <trkpt lat="47.41001" lon="6.62568">
        <ele>448.2</ele>
        <time>2017-06-11T07:53:18.999Z</time>
      </trkpt>
      <trkpt lat="47.41004" lon="6.62565">
        <ele>448.3</ele>
        <time>2017-06-11T07:53:19.999Z</time>
      </trkpt>
      <trkpt lat="47.41007" lon="6.62562">
        <ele>448.3</ele>
        <time>2017-06-11T07:53:20.999Z</time>
      </trkpt>
      <trkpt lat="47.41011" lon="6.62559">
        <ele>448.4</ele>
        <time>2017-06-11T07:53:21.999Z</time>
      </trkpt>
      <trkpt lat="47.41014" lon="6.62557">
        <ele>448.4</ele>
        <time>2017-06-11T07:53:22.999Z</time>
      </trkpt>
      <trkpt lat="47.41017" lon="6.62553">
        <ele>448.4</ele>
        <time>2017-06-11T07:53:23.999Z</time>
      </trkpt>
      <trkpt lat="47.4102" lon="6.62549">
        <ele>448.5</ele>
        <time>2017-06-11T07:53:24.999Z</time>
      </trkpt>
      <trkpt lat="47.41024" lon="6.62545">
        <ele>448.5</ele>
        <time>2017-06-11T07:53:25.999Z</time>
      </trkpt>
      <trkpt lat="47.41028" lon="6.62542">
        <ele>449.3</ele>
        <time>2017-06-11T07:53:26.999Z</time>
      </trkpt>
      <trkpt lat="47.41031" lon="6.6254">
        <ele>449.4</ele>
        <time>2017-06-11T07:53:27.999Z</time>
      </trkpt>
      <trkpt lat="47.41035" lon="6.62538">
        <ele>449.3</ele>
        <time>2017-06-11T07:53:28.999Z</time>
      </trkpt>
      <trkpt lat="47.41038" lon="6.62535">
        <ele>449.3</ele>
        <time>2017-06-11T07:53:29.999Z</time>
      </trkpt>
      <trkpt lat="47.41042" lon="6.62533">
        <ele>449</ele>
        <time>2017-06-11T07:53:30.999Z</time>
      </trkpt>
      <trkpt lat="47.41046" lon="6.62529">
        <ele>449.1</ele>
        <time>2017-06-11T07:53:31.999Z</time>
      </trkpt>
      <trkpt lat="47.41051" lon="6.62526">
        <ele>449.5</ele>
        <time>2017-06-11T07:53:32.999Z</time>
      </trkpt>
      <trkpt lat="47.41056" lon="6.62523">
        <ele>449.6</ele>
        <time>2017-06-11T07:53:33.999Z</time>
      </trkpt>
      <trkpt lat="47.41061" lon="6.62519">
        <ele>449.4</ele>
        <time>2017-06-11T07:53:34.999Z</time>
      </trkpt>
      <trkpt lat="47.41065" lon="6.62516">
        <ele>449.4</ele>
        <time>2017-06-11T07:53:35.999Z</time>
      </trkpt>
      <trkpt lat="47.41069" lon="6.62512">
        <ele>448.9</ele>
        <time>2017-06-11T07:53:36.999Z</time>
      </trkpt>
      <trkpt lat="47.41073" lon="6.62508">
        <ele>447.4</ele>
        <time>2017-06-11T07:53:37.999Z</time>
      </trkpt>
      <trkpt lat="47.41078" lon="6.62505">
        <ele>446.7</ele>
        <time>2017-06-11T07:53:38.999Z</time>
      </trkpt>
      <trkpt lat="47.41083" lon="6.62502">
        <ele>446</ele>
        <time>2017-06-11T07:53:39.999Z</time>
      </trkpt>
      <trkpt lat="47.41087" lon="6.625">
        <ele>445.5</ele>
        <time>2017-06-11T07:53:40.999Z</time>
      </trkpt>
      <trkpt lat="47.41091" lon="6.62498">
        <ele>445.4</ele>
        <time>2017-06-11T07:53:41.999Z</time>
      </trkpt>
      <trkpt lat="47.41094" lon="6.62495">
        <ele>445.4</ele>
        <time>2017-06-11T07:53:42.999Z</time>
      </trkpt>
      <trkpt lat="47.41098" lon="6.62492">
        <ele>445.2</ele>
        <time>2017-06-11T07:53:43.999Z</time>
      </trkpt>
      <trkpt lat="47.41102" lon="6.62488">
        <ele>445.1</ele>
        <time>2017-06-11T07:53:44.999Z</time>
      </trkpt>
      <trkpt lat="47.41106" lon="6.62484">
        <ele>444.5</ele>
        <time>2017-06-11T07:53:45.999Z</time>
      </trkpt>
      <trkpt lat="47.4111" lon="6.62479">
        <ele>443.8</ele>
        <time>2017-06-11T07:53:46.999Z</time>
      </trkpt>
      <trkpt lat="47.41115" lon="6.62476">
        <ele>443.3</ele>
        <time>2017-06-11T07:53:47.999Z</time>
      </trkpt>
      <trkpt lat="47.4112" lon="6.62474">
        <ele>442.9</ele>
        <time>2017-06-11T07:53:48.999Z</time>
      </trkpt>
      <trkpt lat="47.41126" lon="6.62472">
        <ele>442.5</ele>
        <time>2017-06-11T07:53:49.999Z</time>
      </trkpt>
      <trkpt lat="47.41132" lon="6.62469">
        <ele>441.5</ele>
        <time>2017-06-11T07:53:50.999Z</time>
      </trkpt>
      <trkpt lat="47.41137" lon="6.62466">
        <ele>440.9</ele>
        <time>2017-06-11T07:53:51.999Z</time>
      </trkpt>
      <trkpt lat="47.41143" lon="6.62462">
        <ele>439.7</ele>
        <time>2017-06-11T07:53:52.999Z</time>
      </trkpt>
      <trkpt lat="47.41149" lon="6.62459">
        <ele>438.3</ele>
        <time>2017-06-11T07:53:53.999Z</time>
      </trkpt>
      <trkpt lat="47.41155" lon="6.62455">
        <ele>437</ele>
        <time>2017-06-11T07:53:54.999Z</time>
      </trkpt>
      <trkpt lat="47.41162" lon="6.62452">
        <ele>436</ele>
        <time>2017-06-11T07:53:55.999Z</time>
      </trkpt>
      <trkpt lat="47.41169" lon="6.62449">
        <ele>435.5</ele>
        <time>2017-06-11T07:53:56.999Z</time>
      </trkpt>
      <trkpt lat="47.41177" lon="6.62445">
        <ele>435.4</ele>
        <time>2017-06-11T07:53:57.999Z</time>
      </trkpt>
      <trkpt lat="47.41184" lon="6.62441">
        <ele>435.7</ele>
        <time>2017-06-11T07:53:58.999Z</time>
      </trkpt>
      <trkpt lat="47.41192" lon="6.62437">
        <ele>435.8</ele>
        <time>2017-06-11T07:53:59.999Z</time>
      </trkpt>
      <trkpt lat="47.412" lon="6.62434">
        <ele>435.6</ele>
        <time>2017-06-11T07:54:00.999Z</time>
      </trkpt>
      <trkpt lat="47.41208" lon="6.62431">
        <ele>435.4</ele>
        <time>2017-06-11T07:54:01.999Z</time>
      </trkpt>
      <trkpt lat="47.41214" lon="6.62425">
        <ele>435.4</ele>
        <time>2017-06-11T07:54:02.999Z</time>
      </trkpt>
      <trkpt lat="47.41221" lon="6.62419">
        <ele>435</ele>
        <time>2017-06-11T07:54:03.999Z</time>
      </trkpt>
      <trkpt lat="47.41226" lon="6.62413">
        <ele>434.1</ele>
        <time>2017-06-11T07:54:04.999Z</time>
      </trkpt>
      <trkpt lat="47.41232" lon="6.62406">
        <ele>433.7</ele>
        <time>2017-06-11T07:54:05.999Z</time>
      </trkpt>
      <trkpt lat="47.41238" lon="6.62398">
        <ele>433.8</ele>
        <time>2017-06-11T07:54:06.999Z</time>
      </trkpt>
      <trkpt lat="47.41245" lon="6.6239">
        <ele>433.5</ele>
        <time>2017-06-11T07:54:07.999Z</time>
      </trkpt>
      <trkpt lat="47.41254" lon="6.62385">
        <ele>433.5</ele>
        <time>2017-06-11T07:54:08.999Z</time>
      </trkpt>
      <trkpt lat="47.41262" lon="6.6238">
        <ele>433.9</ele>
        <time>2017-06-11T07:54:09.999Z</time>
      </trkpt>
      <trkpt lat="47.41271" lon="6.62373">
        <ele>433.4</ele>
        <time>2017-06-11T07:54:10.999Z</time>
      </trkpt>
      <trkpt lat="47.41279" lon="6.62366">
        <ele>432.9</ele>
        <time>2017-06-11T07:54:11.999Z</time>
      </trkpt>
      <trkpt lat="47.41286" lon="6.62358">
        <ele>432.2</ele>
        <time>2017-06-11T07:54:12.999Z</time>
      </trkpt>
      <trkpt lat="47.41294" lon="6.62351">
        <ele>432.2</ele>
        <time>2017-06-11T07:54:13.999Z</time>
      </trkpt>
      <trkpt lat="47.41302" lon="6.62344">
        <ele>432.4</ele>
        <time>2017-06-11T07:54:14.999Z</time>
      </trkpt>
      <trkpt lat="47.4131" lon="6.62337">
        <ele>433.2</ele>
        <time>2017-06-11T07:54:15.999Z</time>
      </trkpt>
      <trkpt lat="47.41319" lon="6.62331">
        <ele>433.5</ele>
        <time>2017-06-11T07:54:16.999Z</time>
      </trkpt>
      <trkpt lat="47.41327" lon="6.62326">
        <ele>434.1</ele>
        <time>2017-06-11T07:54:17.999Z</time>
      </trkpt>
      <trkpt lat="47.41335" lon="6.62321">
        <ele>434.3</ele>
        <time>2017-06-11T07:54:18.999Z</time>
      </trkpt>
      <trkpt lat="47.41342" lon="6.62316">
        <ele>434.2</ele>
        <time>2017-06-11T07:54:19.999Z</time>
      </trkpt>
      <trkpt lat="47.41349" lon="6.62312">
        <ele>434</ele>
        <time>2017-06-11T07:54:20.999Z</time>
      </trkpt>
      <trkpt lat="47.41357" lon="6.62308">
        <ele>433.5</ele>
        <time>2017-06-11T07:54:21.999Z</time>
      </trkpt>
      <trkpt lat="47.41364" lon="6.62308">
        <ele>432.6</ele>
        <time>2017-06-11T07:54:22.999Z</time>
      </trkpt>
      <trkpt lat="47.41371" lon="6.62308">
        <ele>432</ele>
        <time>2017-06-11T07:54:23.999Z</time>
      </trkpt>
      <trkpt lat="47.41378" lon="6.62309">
        <ele>431.8</ele>
        <time>2017-06-11T07:54:24.999Z</time>
      </trkpt>
      <trkpt lat="47.41384" lon="6.62312">
        <ele>431.7</ele>
        <time>2017-06-11T07:54:25.999Z</time>
      </trkpt>
      <trkpt lat="47.41389" lon="6.62316">
        <ele>431.2</ele>
        <time>2017-06-11T07:54:26.999Z</time>
      </trkpt>
      <trkpt lat="47.41394" lon="6.62318">
        <ele>430.6</ele>
        <time>2017-06-11T07:54:27.999Z</time>
      </trkpt>
      <trkpt lat="47.41398" lon="6.6232">
        <ele>429.9</ele>
        <time>2017-06-11T07:54:28.999Z</time>
      </trkpt>
      <trkpt lat="47.41402" lon="6.62323">
        <ele>429</ele>
        <time>2017-06-11T07:54:29.999Z</time>
      </trkpt>
      <trkpt lat="47.41406" lon="6.62325">
        <ele>428.8</ele>
        <time>2017-06-11T07:54:30.999Z</time>
      </trkpt>
      <trkpt lat="47.41409" lon="6.62327">
        <ele>428.8</ele>
        <time>2017-06-11T07:54:31.999Z</time>
      </trkpt>
      <trkpt lat="47.41414" lon="6.6233">
        <ele>427.7</ele>
        <time>2017-06-11T07:54:32.999Z</time>
      </trkpt>
      <trkpt lat="47.41419" lon="6.62332">
        <ele>426.4</ele>
        <time>2017-06-11T07:54:33.999Z</time>
      </trkpt>
      <trkpt lat="47.41424" lon="6.62335">
        <ele>426.3</ele>
        <time>2017-06-11T07:54:34.999Z</time>
      </trkpt>
      <trkpt lat="47.41429" lon="6.62339">
        <ele>425.9</ele>
        <time>2017-06-11T07:54:35.999Z</time>
      </trkpt>
      <trkpt lat="47.41434" lon="6.62343">
        <ele>425.5</ele>
        <time>2017-06-11T07:54:36.999Z</time>
      </trkpt>
      <trkpt lat="47.41439" lon="6.62347">
        <ele>424.1</ele>
        <time>2017-06-11T07:54:37.999Z</time>
      </trkpt>
      <trkpt lat="47.41444" lon="6.62351">
        <ele>423.3</ele>
        <time>2017-06-11T07:54:38.999Z</time>
      </trkpt>
      <trkpt lat="47.41451" lon="6.62357">
        <ele>422.1</ele>
        <time>2017-06-11T07:54:39.999Z</time>
      </trkpt>
      <trkpt lat="47.41457" lon="6.62362">
        <ele>421.6</ele>
        <time>2017-06-11T07:54:40.999Z</time>
      </trkpt>
      <trkpt lat="47.41463" lon="6.62367">
        <ele>421.3</ele>
        <time>2017-06-11T07:54:41.999Z</time>
      </trkpt>
      <trkpt lat="47.41468" lon="6.62371">
        <ele>421.2</ele>
        <time>2017-06-11T07:54:42.999Z</time>
      </trkpt>
      <trkpt lat="47.41475" lon="6.62376">
        <ele>420.4</ele>
        <time>2017-06-11T07:54:43.999Z</time>
      </trkpt>
      <trkpt lat="47.4148" lon="6.6238">
        <ele>419.7</ele>
        <time>2017-06-11T07:54:44.999Z</time>
      </trkpt>
      <trkpt lat="47.41484" lon="6.62385">
        <ele>419</ele>
        <time>2017-06-11T07:54:45.999Z</time>
      </trkpt>
      <trkpt lat="47.4149" lon="6.62392">
        <ele>418.6</ele>
        <time>2017-06-11T07:54:46.999Z</time>
      </trkpt>
      <trkpt lat="47.41495" lon="6.62401">
        <ele>417.4</ele>
        <time>2017-06-11T07:54:47.999Z</time>
      </trkpt>
      <trkpt lat="47.41501" lon="6.62409">
        <ele>416.9</ele>
        <time>2017-06-11T07:54:48.999Z</time>
      </trkpt>
      <trkpt lat="47.41507" lon="6.62418">
        <ele>416.9</ele>
        <time>2017-06-11T07:54:49.999Z</time>
      </trkpt>
      <trkpt lat="47.41513" lon="6.62426">
        <ele>416</ele>
        <time>2017-06-11T07:54:50.999Z</time>
      </trkpt>
      <trkpt lat="47.41518" lon="6.62433">
        <ele>415.5</ele>
        <time>2017-06-11T07:54:51.999Z</time>
      </trkpt>
      <trkpt lat="47.41524" lon="6.62441">
        <ele>415</ele>
        <time>2017-06-11T07:54:52.999Z</time>
      </trkpt>
      <trkpt lat="47.4153" lon="6.62447">
        <ele>415</ele>
        <time>2017-06-11T07:54:53.999Z</time>
      </trkpt>
      <trkpt lat="47.41536" lon="6.62453">
        <ele>414.7</ele>
        <time>2017-06-11T07:54:54.999Z</time>
      </trkpt>
      <trkpt lat="47.41544" lon="6.62457">
        <ele>414.6</ele>
        <time>2017-06-11T07:54:55.999Z</time>
      </trkpt>
      <trkpt lat="47.41552" lon="6.6246">
        <ele>414.6</ele>
        <time>2017-06-11T07:54:56.999Z</time>
      </trkpt>
      <trkpt lat="47.41557" lon="6.62464">
        <ele>414.6</ele>
        <time>2017-06-11T07:54:57.999Z</time>
      </trkpt>
      <trkpt lat="47.41562" lon="6.6247">
        <ele>415</ele>
        <time>2017-06-11T07:54:58.999Z</time>
      </trkpt>
      <trkpt lat="47.41566" lon="6.62474">
        <ele>415.1</ele>
        <time>2017-06-11T07:54:59.999Z</time>
      </trkpt>
      <trkpt lat="47.41569" lon="6.62479">
        <ele>415.1</ele>
        <time>2017-06-11T07:55:00.999Z</time>
      </trkpt>
      <trkpt lat="47.41572" lon="6.6248">
        <ele>415.1</ele>
        <time>2017-06-11T07:55:01.999Z</time>
      </trkpt>
      <trkpt lat="47.41574" lon="6.62483">
        <ele>415.2</ele>
        <time>2017-06-11T07:55:02.999Z</time>
      </trkpt>
      <trkpt lat="47.41577" lon="6.62486">
        <ele>415.2</ele>
        <time>2017-06-11T07:55:03.999Z</time>
      </trkpt>
      <trkpt lat="47.41578" lon="6.62489">
        <ele>415.2</ele>
        <time>2017-06-11T07:55:04.999Z</time>
      </trkpt>
      <trkpt lat="47.41581" lon="6.62492">
        <ele>415.3</ele>
        <time>2017-06-11T07:55:05.999Z</time>
      </trkpt>
      <trkpt lat="47.41585" lon="6.62494">
        <ele>415.3</ele>
        <time>2017-06-11T07:55:07.999Z</time>
      </trkpt>
      <trkpt lat="47.41586" lon="6.62495">
        <ele>415.3</ele>
        <time>2017-06-11T07:55:08.999Z</time>
      </trkpt>
      <trkpt lat="47.4159" lon="6.62499">
        <ele>415.2</ele>
        <time>2017-06-11T07:55:10.999Z</time>
      </trkpt>
      <trkpt lat="47.41592" lon="6.625">
        <ele>415.2</ele>
        <time>2017-06-11T07:55:11.999Z</time>
      </trkpt>
      <trkpt lat="47.41596" lon="6.62501">
        <ele>415.2</ele>
        <time>2017-06-11T07:55:13.999Z</time>
      </trkpt>
      <trkpt lat="47.41598" lon="6.62502">
        <ele>415.1</ele>
        <time>2017-06-11T07:55:14.999Z</time>
      </trkpt>
      <trkpt lat="47.416" lon="6.62503">
        <ele>415</ele>
        <time>2017-06-11T07:55:15.999Z</time>
      </trkpt>
      <trkpt lat="47.41603" lon="6.62503">
        <ele>414.9</ele>
        <time>2017-06-11T07:55:16.999Z</time>
      </trkpt>
      <trkpt lat="47.41607" lon="6.62504">
        <ele>414.9</ele>
        <time>2017-06-11T07:55:18.999Z</time>
      </trkpt>
      <trkpt lat="47.4161" lon="6.62505">
        <ele>414.8</ele>
        <time>2017-06-11T07:55:19.999Z</time>
      </trkpt>
      <trkpt lat="47.41612" lon="6.62505">
        <ele>414.8</ele>
        <time>2017-06-11T07:55:20.999Z</time>
      </trkpt>
      <trkpt lat="47.41615" lon="6.62506">
        <ele>414.8</ele>
        <time>2017-06-11T07:55:21.999Z</time>
      </trkpt>
      <trkpt lat="47.41618" lon="6.62506">
        <ele>414.8</ele>
        <time>2017-06-11T07:55:22.999Z</time>
      </trkpt>
      <trkpt lat="47.41621" lon="6.62506">
        <ele>414.8</ele>
        <time>2017-06-11T07:55:23.999Z</time>
      </trkpt>
      <trkpt lat="47.41624" lon="6.62507">
        <ele>414.8</ele>
        <time>2017-06-11T07:55:24.999Z</time>
      </trkpt>
      <trkpt lat="47.41626" lon="6.62507">
        <ele>414.8</ele>
        <time>2017-06-11T07:55:25.999Z</time>
      </trkpt>
      <trkpt lat="47.4163" lon="6.62507">
        <ele>414.7</ele>
        <time>2017-06-11T07:55:26.999Z</time>
      </trkpt>
      <trkpt lat="47.41632" lon="6.62508">
        <ele>414.7</ele>
        <time>2017-06-11T07:55:27.999Z</time>
      </trkpt>
      <trkpt lat="47.41635" lon="6.62508">
        <ele>414.6</ele>
        <time>2017-06-11T07:55:28.999Z</time>
      </trkpt>
      <trkpt lat="47.41637" lon="6.62509">
        <ele>414.6</ele>
        <time>2017-06-11T07:55:29.999Z</time>
      </trkpt>
      <trkpt lat="47.4164" lon="6.62509">
        <ele>414.5</ele>
        <time>2017-06-11T07:55:30.999Z</time>
      </trkpt>
      <trkpt lat="47.41643" lon="6.6251">
        <ele>414.4</ele>
        <time>2017-06-11T07:55:31.999Z</time>
      </trkpt>
      <trkpt lat="47.41646" lon="6.6251">
        <ele>414.4</ele>
        <time>2017-06-11T07:55:32.999Z</time>
      </trkpt>
      <trkpt lat="47.41649" lon="6.62511">
        <ele>414.4</ele>
        <time>2017-06-11T07:55:33.999Z</time>
      </trkpt>
      <trkpt lat="47.41653" lon="6.62512">
        <ele>414.3</ele>
        <time>2017-06-11T07:55:35.999Z</time>
      </trkpt>
      <trkpt lat="47.41656" lon="6.62513">
        <ele>414.3</ele>
        <time>2017-06-11T07:55:36.999Z</time>
      </trkpt>
      <trkpt lat="47.41659" lon="6.62514">
        <ele>414.4</ele>
        <time>2017-06-11T07:55:37.999Z</time>
      </trkpt>
      <trkpt lat="47.41661" lon="6.62515">
        <ele>414.3</ele>
        <time>2017-06-11T07:55:38.999Z</time>
      </trkpt>
      <trkpt lat="47.41664" lon="6.62515">
        <ele>414.3</ele>
        <time>2017-06-11T07:55:39.999Z</time>
      </trkpt>
      <trkpt lat="47.41666" lon="6.62516">
        <ele>414.2</ele>
        <time>2017-06-11T07:55:40.999Z</time>
      </trkpt>
      <trkpt lat="47.4167" lon="6.62517">
        <ele>414.1</ele>
        <time>2017-06-11T07:55:42.999Z</time>
      </trkpt>
      <trkpt lat="47.41672" lon="6.62515">
        <ele>414</ele>
        <time>2017-06-11T07:55:43.999Z</time>
      </trkpt>
      <trkpt lat="47.41673" lon="6.62512">
        <ele>414</ele>
        <time>2017-06-11T07:55:45.999Z</time>
      </trkpt>
      <trkpt lat="47.41673" lon="6.62508">
        <ele>414.1</ele>
        <time>2017-06-11T07:55:46.999Z</time>
      </trkpt>
      <trkpt lat="47.41673" lon="6.62505">
        <ele>414.3</ele>
        <time>2017-06-11T07:55:47.999Z</time>
      </trkpt>
      <trkpt lat="47.41673" lon="6.62501">
        <ele>414.4</ele>
        <time>2017-06-11T07:55:48.999Z</time>
      </trkpt>
      <trkpt lat="47.41673" lon="6.62496">
        <ele>414.5</ele>
        <time>2017-06-11T07:55:49.999Z</time>
      </trkpt>
      <trkpt lat="47.41673" lon="6.62491">
        <ele>414.7</ele>
        <time>2017-06-11T07:55:50.999Z</time>
      </trkpt>
      <trkpt lat="47.41673" lon="6.62485">
        <ele>416.7</ele>
        <time>2017-06-11T07:55:51.999Z</time>
      </trkpt>
      <trkpt lat="47.41673" lon="6.62479">
        <ele>418.1</ele>
        <time>2017-06-11T07:55:52.999Z</time>
      </trkpt>
      <trkpt lat="47.41672" lon="6.62473">
        <ele>419.1</ele>
        <time>2017-06-11T07:55:53.999Z</time>
      </trkpt>
      <trkpt lat="47.41672" lon="6.62468">
        <ele>419.1</ele>
        <time>2017-06-11T07:55:54.999Z</time>
      </trkpt>
      <trkpt lat="47.41671" lon="6.62461">
        <ele>418.9</ele>
        <time>2017-06-11T07:55:55.999Z</time>
      </trkpt>
      <trkpt lat="47.41671" lon="6.62455">
        <ele>418.4</ele>
        <time>2017-06-11T07:55:56.999Z</time>
      </trkpt>
      <trkpt lat="47.41671" lon="6.62448">
        <ele>417.7</ele>
        <time>2017-06-11T07:55:57.999Z</time>
      </trkpt>
      <trkpt lat="47.41671" lon="6.62441">
        <ele>417.2</ele>
        <time>2017-06-11T07:55:58.999Z</time>
      </trkpt>
      <trkpt lat="47.4167" lon="6.62436">
        <ele>416.4</ele>
        <time>2017-06-11T07:55:59.999Z</time>
      </trkpt>
      <trkpt lat="47.4167" lon="6.62429">
        <ele>416.3</ele>
        <time>2017-06-11T07:56:00.999Z</time>
      </trkpt>
      <trkpt lat="47.41669" lon="6.62423">
        <ele>415.8</ele>
        <time>2017-06-11T07:56:01.999Z</time>
      </trkpt>
      <trkpt lat="47.41668" lon="6.62417">
        <ele>415</ele>
        <time>2017-06-11T07:56:02.999Z</time>
      </trkpt>
      <trkpt lat="47.41668" lon="6.62412">
        <ele>413.9</ele>
        <time>2017-06-11T07:56:03.999Z</time>
      </trkpt>
      <trkpt lat="47.41668" lon="6.62406">
        <ele>413.8</ele>
        <time>2017-06-11T07:56:04.999Z</time>
      </trkpt>
      <trkpt lat="47.41667" lon="6.624">
        <ele>412.5</ele>
        <time>2017-06-11T07:56:05.999Z</time>
      </trkpt>
      <trkpt lat="47.41667" lon="6.62393">
        <ele>412</ele>
        <time>2017-06-11T07:56:06.999Z</time>
      </trkpt>
      <trkpt lat="47.41666" lon="6.62386">
        <ele>410.8</ele>
        <time>2017-06-11T07:56:07.999Z</time>
      </trkpt>
      <trkpt lat="47.41666" lon="6.62379">
        <ele>409.5</ele>
        <time>2017-06-11T07:56:08.999Z</time>
      </trkpt>
      <trkpt lat="47.41665" lon="6.62373">
        <ele>409.2</ele>
        <time>2017-06-11T07:56:09.999Z</time>
      </trkpt>
      <trkpt lat="47.41665" lon="6.62366">
        <ele>408.6</ele>
        <time>2017-06-11T07:56:10.999Z</time>
      </trkpt>
      <trkpt lat="47.41665" lon="6.62359">
        <ele>408.3</ele>
        <time>2017-06-11T07:56:11.999Z</time>
      </trkpt>
      <trkpt lat="47.41664" lon="6.62352">
        <ele>407.9</ele>
        <time>2017-06-11T07:56:12.999Z</time>
      </trkpt>
      <trkpt lat="47.41664" lon="6.62345">
        <ele>407.1</ele>
        <time>2017-06-11T07:56:13.999Z</time>
      </trkpt>
      <trkpt lat="47.41664" lon="6.62336">
        <ele>406.8</ele>
        <time>2017-06-11T07:56:14.999Z</time>
      </trkpt>
      <trkpt lat="47.41664" lon="6.62328">
        <ele>405.4</ele>
        <time>2017-06-11T07:56:15.999Z</time>
      </trkpt>
      <trkpt lat="47.41664" lon="6.62319">
        <ele>405.3</ele>
        <time>2017-06-11T07:56:16.999Z</time>
      </trkpt>
      <trkpt lat="47.41664" lon="6.62312">
        <ele>405.2</ele>
        <time>2017-06-11T07:56:17.999Z</time>
      </trkpt>
      <trkpt lat="47.41664" lon="6.62307">
        <ele>405.2</ele>
        <time>2017-06-11T07:56:18.999Z</time>
      </trkpt>
      <trkpt lat="47.41664" lon="6.62303">
        <ele>405.2</ele>
        <time>2017-06-11T07:56:19.999Z</time>
      </trkpt>
      <trkpt lat="47.41664" lon="6.62298">
        <ele>405.1</ele>
        <time>2017-06-11T07:56:20.999Z</time>
      </trkpt>
      <trkpt lat="47.41662" lon="6.62295">
        <ele>405</ele>
        <time>2017-06-11T07:56:21.999Z</time>
      </trkpt>
      <trkpt lat="47.4166" lon="6.62294">
        <ele>405</ele>
        <time>2017-06-11T07:56:22.999Z</time>
      </trkpt>
      <trkpt lat="47.41658" lon="6.62291">
        <ele>405.2</ele>
        <time>2017-06-11T07:56:23.999Z</time>
      </trkpt>
      <trkpt lat="47.41659" lon="6.62286">
        <ele>405</ele>
        <time>2017-06-11T07:56:24.999Z</time>
      </trkpt>
      <trkpt lat="47.41659" lon="6.62279">
        <ele>404.7</ele>
        <time>2017-06-11T07:56:25.999Z</time>
      </trkpt>
      <trkpt lat="47.41659" lon="6.62274">
        <ele>404.9</ele>
        <time>2017-06-11T07:56:26.999Z</time>
      </trkpt>
      <trkpt lat="47.41659" lon="6.62268">
        <ele>404.5</ele>
        <time>2017-06-11T07:56:27.999Z</time>
      </trkpt>
      <trkpt lat="47.4166" lon="6.62261">
        <ele>404</ele>
        <time>2017-06-11T07:56:28.999Z</time>
      </trkpt>
      <trkpt lat="47.4166" lon="6.62255">
        <ele>404.1</ele>
        <time>2017-06-11T07:56:29.999Z</time>
      </trkpt>
      <trkpt lat="47.4166" lon="6.62249">
        <ele>404.2</ele>
        <time>2017-06-11T07:56:30.999Z</time>
      </trkpt>
      <trkpt lat="47.41661" lon="6.62242">
        <ele>404.4</ele>
        <time>2017-06-11T07:56:31.999Z</time>
      </trkpt>
      <trkpt lat="47.41662" lon="6.62235">
        <ele>404.6</ele>
        <time>2017-06-11T07:56:32.999Z</time>
      </trkpt>
      <trkpt lat="47.41663" lon="6.62227">
        <ele>404.3</ele>
        <time>2017-06-11T07:56:33.999Z</time>
      </trkpt>
      <trkpt lat="47.41663" lon="6.62219">
        <ele>404.4</ele>
        <time>2017-06-11T07:56:34.999Z</time>
      </trkpt>
      <trkpt lat="47.41663" lon="6.62212">
        <ele>404.8</ele>
        <time>2017-06-11T07:56:35.999Z</time>
      </trkpt>
      <trkpt lat="47.41663" lon="6.62205">
        <ele>405.3</ele>
        <time>2017-06-11T07:56:36.999Z</time>
      </trkpt>
      <trkpt lat="47.41663" lon="6.62197">
        <ele>404.8</ele>
        <time>2017-06-11T07:56:37.999Z</time>
      </trkpt>
      <trkpt lat="47.41662" lon="6.62189">
        <ele>404.9</ele>
        <time>2017-06-11T07:56:38.999Z</time>
      </trkpt>
      <trkpt lat="47.41662" lon="6.62182">
        <ele>404.8</ele>
        <time>2017-06-11T07:56:39.999Z</time>
      </trkpt>
      <trkpt lat="47.41661" lon="6.62174">
        <ele>404.8</ele>
        <time>2017-06-11T07:56:40.999Z</time>
      </trkpt>
      <trkpt lat="47.4166" lon="6.62168">
        <ele>405.2</ele>
        <time>2017-06-11T07:56:41.999Z</time>
      </trkpt>
      <trkpt lat="47.4166" lon="6.6216">
        <ele>405.2</ele>
        <time>2017-06-11T07:56:42.999Z</time>
      </trkpt>
      <trkpt lat="47.41659" lon="6.62153">
        <ele>405.3</ele>
        <time>2017-06-11T07:56:43.999Z</time>
      </trkpt>
      <trkpt lat="47.41658" lon="6.62144">
        <ele>404.7</ele>
        <time>2017-06-11T07:56:44.999Z</time>
      </trkpt>
      <trkpt lat="47.41658" lon="6.62136">
        <ele>404.6</ele>
        <time>2017-06-11T07:56:45.999Z</time>
      </trkpt>
      <trkpt lat="47.41657" lon="6.62127">
        <ele>404.2</ele>
        <time>2017-06-11T07:56:46.999Z</time>
      </trkpt>
      <trkpt lat="47.41657" lon="6.62119">
        <ele>404.2</ele>
        <time>2017-06-11T07:56:47.999Z</time>
      </trkpt>
      <trkpt lat="47.41656" lon="6.62109">
        <ele>404.5</ele>
        <time>2017-06-11T07:56:48.999Z</time>
      </trkpt>
      <trkpt lat="47.41655" lon="6.62101">
        <ele>404.4</ele>
        <time>2017-06-11T07:56:49.999Z</time>
      </trkpt>
      <trkpt lat="47.41655" lon="6.62093">
        <ele>404.9</ele>
        <time>2017-06-11T07:56:50.999Z</time>
      </trkpt>
      <trkpt lat="47.41654" lon="6.62085">
        <ele>405.4</ele>
        <time>2017-06-11T07:56:51.999Z</time>
      </trkpt>
      <trkpt lat="47.41654" lon="6.62079">
        <ele>405.6</ele>
        <time>2017-06-11T07:56:52.999Z</time>
      </trkpt>
      <trkpt lat="47.41654" lon="6.62072">
        <ele>405.6</ele>
        <time>2017-06-11T07:56:53.999Z</time>
      </trkpt>
      <trkpt lat="47.41653" lon="6.62066">
        <ele>405.6</ele>
        <time>2017-06-11T07:56:54.999Z</time>
      </trkpt>
      <trkpt lat="47.41652" lon="6.62058">
        <ele>405.5</ele>
        <time>2017-06-11T07:56:55.999Z</time>
      </trkpt>
      <trkpt lat="47.41652" lon="6.62051">
        <ele>405.8</ele>
        <time>2017-06-11T07:56:56.999Z</time>
      </trkpt>
      <trkpt lat="47.41651" lon="6.62043">
        <ele>405.2</ele>
        <time>2017-06-11T07:56:57.999Z</time>
      </trkpt>
      <trkpt lat="47.41651" lon="6.62036">
        <ele>405.7</ele>
        <time>2017-06-11T07:56:58.999Z</time>
      </trkpt>
      <trkpt lat="47.4165" lon="6.62027">
        <ele>406.1</ele>
        <time>2017-06-11T07:56:59.999Z</time>
      </trkpt>
      <trkpt lat="47.4165" lon="6.62019">
        <ele>406.4</ele>
        <time>2017-06-11T07:57:00.999Z</time>
      </trkpt>
      <trkpt lat="47.41648" lon="6.62011">
        <ele>406.6</ele>
        <time>2017-06-11T07:57:01.999Z</time>
      </trkpt>
      <trkpt lat="47.41647" lon="6.62003">
        <ele>407.1</ele>
        <time>2017-06-11T07:57:02.999Z</time>
      </trkpt>
      <trkpt lat="47.41646" lon="6.61995">
        <ele>407.9</ele>
        <time>2017-06-11T07:57:03.999Z</time>
      </trkpt>
      <trkpt lat="47.41644" lon="6.61987">
        <ele>408.4</ele>
        <time>2017-06-11T07:57:04.999Z</time>
      </trkpt>
      <trkpt lat="47.41643" lon="6.61978">
        <ele>408.8</ele>
        <time>2017-06-11T07:57:05.999Z</time>
      </trkpt>
      <trkpt lat="47.41642" lon="6.61969">
        <ele>409.3</ele>
        <time>2017-06-11T07:57:06.999Z</time>
      </trkpt>
      <trkpt lat="47.4164" lon="6.61959">
        <ele>409.7</ele>
        <time>2017-06-11T07:57:07.999Z</time>
      </trkpt>
      <trkpt lat="47.41639" lon="6.6195">
        <ele>409.6</ele>
        <time>2017-06-11T07:57:08.999Z</time>
      </trkpt>
      <trkpt lat="47.41637" lon="6.61941">
        <ele>409.3</ele>
        <time>2017-06-11T07:57:09.999Z</time>
      </trkpt>
      <trkpt lat="47.41635" lon="6.61931">
        <ele>408.8</ele>
        <time>2017-06-11T07:57:10.999Z</time>
      </trkpt>
      <trkpt lat="47.41634" lon="6.6192">
        <ele>408.5</ele>
        <time>2017-06-11T07:57:11.999Z</time>
      </trkpt>
      <trkpt lat="47.41632" lon="6.6191">
        <ele>408</ele>
        <time>2017-06-11T07:57:12.999Z</time>
      </trkpt>
      <trkpt lat="47.4163" lon="6.61898">
        <ele>406.8</ele>
        <time>2017-06-11T07:57:13.999Z</time>
      </trkpt>
      <trkpt lat="47.41627" lon="6.61887">
        <ele>405.5</ele>
        <time>2017-06-11T07:57:14.999Z</time>
      </trkpt>
      <trkpt lat="47.41626" lon="6.61875">
        <ele>404.7</ele>
        <time>2017-06-11T07:57:15.999Z</time>
      </trkpt>
      <trkpt lat="47.41624" lon="6.61864">
        <ele>403.9</ele>
        <time>2017-06-11T07:57:16.999Z</time>
      </trkpt>
      <trkpt lat="47.41624" lon="6.61852">
        <ele>403.1</ele>
        <time>2017-06-11T07:57:17.999Z</time>
      </trkpt>
      <trkpt lat="47.41625" lon="6.61842">
        <ele>402</ele>
        <time>2017-06-11T07:57:18.999Z</time>
      </trkpt>
      <trkpt lat="47.41626" lon="6.61831">
        <ele>401.1</ele>
        <time>2017-06-11T07:57:19.999Z</time>
      </trkpt>
      <trkpt lat="47.41628" lon="6.61821">
        <ele>400.7</ele>
        <time>2017-06-11T07:57:20.999Z</time>
      </trkpt>
      <trkpt lat="47.4163" lon="6.61811">
        <ele>400.4</ele>
        <time>2017-06-11T07:57:21.999Z</time>
      </trkpt>
      <trkpt lat="47.41633" lon="6.61802">
        <ele>400</ele>
        <time>2017-06-11T07:57:22.999Z</time>
      </trkpt>
      <trkpt lat="47.41636" lon="6.61793">
        <ele>399.8</ele>
        <time>2017-06-11T07:57:23.999Z</time>
      </trkpt>
      <trkpt lat="47.41641" lon="6.61785">
        <ele>399.6</ele>
        <time>2017-06-11T07:57:24.999Z</time>
      </trkpt>
      <trkpt lat="47.41646" lon="6.61777">
        <ele>399.5</ele>
        <time>2017-06-11T07:57:25.999Z</time>
      </trkpt>
      <trkpt lat="47.41651" lon="6.6177">
        <ele>399.5</ele>
        <time>2017-06-11T07:57:26.999Z</time>
      </trkpt>
      <trkpt lat="47.41656" lon="6.61763">
        <ele>399.4</ele>
        <time>2017-06-11T07:57:27.999Z</time>
      </trkpt>
      <trkpt lat="47.41662" lon="6.61757">
        <ele>399.4</ele>
        <time>2017-06-11T07:57:28.999Z</time>
      </trkpt>
      <trkpt lat="47.41668" lon="6.61752">
        <ele>399.1</ele>
        <time>2017-06-11T07:57:29.999Z</time>
      </trkpt>
      <trkpt lat="47.41673" lon="6.61748">
        <ele>399.3</ele>
        <time>2017-06-11T07:57:30.999Z</time>
      </trkpt>
      <trkpt lat="47.41679" lon="6.61744">
        <ele>399.2</ele>
        <time>2017-06-11T07:57:31.999Z</time>
      </trkpt>
      <trkpt lat="47.41684" lon="6.6174">
        <ele>398.8</ele>
        <time>2017-06-11T07:57:32.999Z</time>
      </trkpt>
      <trkpt lat="47.4169" lon="6.61735">
        <ele>398.7</ele>
        <time>2017-06-11T07:57:33.999Z</time>
      </trkpt>
      <trkpt lat="47.41695" lon="6.61731">
        <ele>398.6</ele>
        <time>2017-06-11T07:57:34.999Z</time>
      </trkpt>
      <trkpt lat="47.41701" lon="6.61726">
        <ele>399</ele>
        <time>2017-06-11T07:57:35.999Z</time>
      </trkpt>
      <trkpt lat="47.41705" lon="6.61723">
        <ele>399</ele>
        <time>2017-06-11T07:57:36.999Z</time>
      </trkpt>
      <trkpt lat="47.41709" lon="6.6172">
        <ele>398.9</ele>
        <time>2017-06-11T07:57:37.999Z</time>
      </trkpt>
      <trkpt lat="47.41715" lon="6.61715">
        <ele>398.6</ele>
        <time>2017-06-11T07:57:38.999Z</time>
      </trkpt>
      <trkpt lat="47.4172" lon="6.61711">
        <ele>398.3</ele>
        <time>2017-06-11T07:57:39.999Z</time>
      </trkpt>
      <trkpt lat="47.41724" lon="6.61707">
        <ele>397.6</ele>
        <time>2017-06-11T07:57:40.999Z</time>
      </trkpt>
      <trkpt lat="47.41728" lon="6.61703">
        <ele>396.6</ele>
        <time>2017-06-11T07:57:41.999Z</time>
      </trkpt>
      <trkpt lat="47.41732" lon="6.61702">
        <ele>396.5</ele>
        <time>2017-06-11T07:57:42.999Z</time>
      </trkpt>
      <trkpt lat="47.41735" lon="6.61702">
        <ele>396.5</ele>
        <time>2017-06-11T07:57:43.999Z</time>
      </trkpt>
      <trkpt lat="47.41736" lon="6.61707">
        <ele>396.5</ele>
        <time>2017-06-11T07:57:44.999Z</time>
      </trkpt>
      <trkpt lat="47.41735" lon="6.61713">
        <ele>396.5</ele>
        <time>2017-06-11T07:57:45.999Z</time>
      </trkpt>
      <trkpt lat="47.41734" lon="6.61718">
        <ele>396.8</ele>
        <time>2017-06-11T07:57:46.999Z</time>
      </trkpt>
      <trkpt lat="47.41734" lon="6.61724">
        <ele>396.8</ele>
        <time>2017-06-11T07:57:47.999Z</time>
      </trkpt>
      <trkpt lat="47.41734" lon="6.61729">
        <ele>396.7</ele>
        <time>2017-06-11T07:57:48.999Z</time>
      </trkpt>
      <trkpt lat="47.41734" lon="6.61734">
        <ele>396.7</ele>
        <time>2017-06-11T07:57:49.999Z</time>
      </trkpt>
      <trkpt lat="47.41734" lon="6.6174">
        <ele>396.6</ele>
        <time>2017-06-11T07:57:51.999Z</time>
      </trkpt>
      <trkpt lat="47.41735" lon="6.61742">
        <ele>396.4</ele>
        <time>2017-06-11T07:57:52.999Z</time>
      </trkpt>
      <trkpt lat="47.41736" lon="6.61749">
        <ele>396.3</ele>
        <time>2017-06-11T07:57:54.999Z</time>
      </trkpt>
      <trkpt lat="47.41736" lon="6.61751">
        <ele>396.2</ele>
        <time>2017-06-11T07:57:55.999Z</time>
      </trkpt>
      <trkpt lat="47.41738" lon="6.61757">
        <ele>395.9</ele>
        <time>2017-06-11T07:57:58.999Z</time>
      </trkpt>
      <trkpt lat="47.41738" lon="6.61759">
        <ele>395.8</ele>
        <time>2017-06-11T07:57:59.999Z</time>
      </trkpt>
      <trkpt lat="47.41737" lon="6.61764">
        <ele>395.5</ele>
        <time>2017-06-11T07:58:01.999Z</time>
      </trkpt>
      <trkpt lat="47.41737" lon="6.61766">
        <ele>395.3</ele>
        <time>2017-06-11T07:58:02.999Z</time>
      </trkpt>
      <trkpt lat="47.41737" lon="6.61771">
        <ele>395</ele>
        <time>2017-06-11T07:58:04.999Z</time>
      </trkpt>
      <trkpt lat="47.41737" lon="6.61773">
        <ele>394.9</ele>
        <time>2017-06-11T07:58:05.999Z</time>
      </trkpt>
      <trkpt lat="47.41737" lon="6.61779">
        <ele>394.2</ele>
        <time>2017-06-11T07:58:08.999Z</time>
      </trkpt>
      <trkpt lat="47.41737" lon="6.61781">
        <ele>394</ele>
        <time>2017-06-11T07:58:09.999Z</time>
      </trkpt>
      <trkpt lat="47.41736" lon="6.61787">
        <ele>393.2</ele>
        <time>2017-06-11T07:58:13.999Z</time>
      </trkpt>
      <trkpt lat="47.41735" lon="6.61792">
        <ele>393</ele>
        <time>2017-06-11T07:58:14.999Z</time>
      </trkpt>
      <trkpt lat="47.41735" lon="6.61798">
        <ele>392.7</ele>
        <time>2017-06-11T07:58:16.999Z</time>
      </trkpt>
      <trkpt lat="47.41735" lon="6.61801">
        <ele>392.6</ele>
        <time>2017-06-11T07:58:17.999Z</time>
      </trkpt>
      <trkpt lat="47.41734" lon="6.61804">
        <ele>392.5</ele>
        <time>2017-06-11T07:58:18.999Z</time>
      </trkpt>
      <trkpt lat="47.41733" lon="6.61807">
        <ele>392.5</ele>
        <time>2017-06-11T07:58:19.999Z</time>
      </trkpt>
      <trkpt lat="47.41732" lon="6.61814">
        <ele>392.7</ele>
        <time>2017-06-11T07:58:21.999Z</time>
      </trkpt>
      <trkpt lat="47.4173" lon="6.61816">
        <ele>392.8</ele>
        <time>2017-06-11T07:58:22.999Z</time>
      </trkpt>
      <trkpt lat="47.41729" lon="6.61819">
        <ele>392.9</ele>
        <time>2017-06-11T07:58:23.999Z</time>
      </trkpt>
      <trkpt lat="47.41728" lon="6.61823">
        <ele>393</ele>
        <time>2017-06-11T07:58:24.999Z</time>
      </trkpt>
      <trkpt lat="47.41728" lon="6.61829">
        <ele>393.2</ele>
        <time>2017-06-11T07:58:26.999Z</time>
      </trkpt>
      <trkpt lat="47.41727" lon="6.61832">
        <ele>393.4</ele>
        <time>2017-06-11T07:58:27.999Z</time>
      </trkpt>
      <trkpt lat="47.41726" lon="6.61837">
        <ele>393.8</ele>
        <time>2017-06-11T07:58:29.999Z</time>
      </trkpt>
      <trkpt lat="47.41726" lon="6.61839">
        <ele>393.9</ele>
        <time>2017-06-11T07:58:30.999Z</time>
      </trkpt>
      <trkpt lat="47.41728" lon="6.61842">
        <ele>394.3</ele>
        <time>2017-06-11T07:58:32.999Z</time>
      </trkpt>
      <trkpt lat="47.41729" lon="6.61844">
        <ele>394.6</ele>
        <time>2017-06-11T07:58:33.999Z</time>
      </trkpt>
      <trkpt lat="47.41732" lon="6.61843">
        <ele>395</ele>
        <time>2017-06-11T07:58:36.999Z</time>
      </trkpt>
      <trkpt lat="47.41734" lon="6.61842">
        <ele>395.2</ele>
        <time>2017-06-11T07:58:37.999Z</time>
      </trkpt>
      <trkpt lat="47.41736" lon="6.6184">
        <ele>395.4</ele>
        <time>2017-06-11T07:58:38.999Z</time>
      </trkpt>
      <trkpt lat="47.41738" lon="6.61837">
        <ele>395.7</ele>
        <time>2017-06-11T07:58:39.999Z</time>
      </trkpt>
      <trkpt lat="47.41739" lon="6.61832">
        <ele>395.9</ele>
        <time>2017-06-11T07:58:40.999Z</time>
      </trkpt>
      <trkpt lat="47.4174" lon="6.61828">
        <ele>396.1</ele>
        <time>2017-06-11T07:58:41.999Z</time>
      </trkpt>
      <trkpt lat="47.41742" lon="6.61823">
        <ele>396.4</ele>
        <time>2017-06-11T07:58:42.999Z</time>
      </trkpt>
      <trkpt lat="47.41743" lon="6.61816">
        <ele>399.3</ele>
        <time>2017-06-11T07:58:43.999Z</time>
      </trkpt>
      <trkpt lat="47.41745" lon="6.6181">
        <ele>399.5</ele>
        <time>2017-06-11T07:58:44.999Z</time>
      </trkpt>
      <trkpt lat="47.41746" lon="6.61802">
        <ele>399.6</ele>
        <time>2017-06-11T07:58:45.999Z</time>
      </trkpt>
      <trkpt lat="47.41748" lon="6.61795">
        <ele>401</ele>
        <time>2017-06-11T07:58:46.999Z</time>
      </trkpt>
      <trkpt lat="47.4175" lon="6.61787">
        <ele>402.2</ele>
        <time>2017-06-11T07:58:47.999Z</time>
      </trkpt>
      <trkpt lat="47.41752" lon="6.61779">
        <ele>403.8</ele>
        <time>2017-06-11T07:58:48.999Z</time>
      </trkpt>
      <trkpt lat="47.41754" lon="6.61771">
        <ele>404.8</ele>
        <time>2017-06-11T07:58:49.999Z</time>
      </trkpt>
      <trkpt lat="47.41757" lon="6.61761">
        <ele>405.2</ele>
        <time>2017-06-11T07:58:50.999Z</time>
      </trkpt>
      <trkpt lat="47.41761" lon="6.6175">
        <ele>405.2</ele>
        <time>2017-06-11T07:58:51.999Z</time>
      </trkpt>
      <trkpt lat="47.41766" lon="6.61742">
        <ele>404</ele>
        <time>2017-06-11T07:58:52.999Z</time>
      </trkpt>
      <trkpt lat="47.4177" lon="6.61736">
        <ele>402.9</ele>
        <time>2017-06-11T07:58:53.999Z</time>
      </trkpt>
      <trkpt lat="47.41775" lon="6.61729">
        <ele>402.5</ele>
        <time>2017-06-11T07:58:54.999Z</time>
      </trkpt>
      <trkpt lat="47.41778" lon="6.61721">
        <ele>402.3</ele>
        <time>2017-06-11T07:58:55.999Z</time>
      </trkpt>
      <trkpt lat="47.41781" lon="6.61715">
        <ele>402.7</ele>
        <time>2017-06-11T07:58:56.999Z</time>
      </trkpt>
      <trkpt lat="47.41783" lon="6.61711">
        <ele>402.7</ele>
        <time>2017-06-11T07:58:57.999Z</time>
      </trkpt>
      <trkpt lat="47.41784" lon="6.61706">
        <ele>402.8</ele>
        <time>2017-06-11T07:58:58.999Z</time>
      </trkpt>
      <trkpt lat="47.41786" lon="6.61701">
        <ele>403</ele>
        <time>2017-06-11T07:58:59.999Z</time>
      </trkpt>
      <trkpt lat="47.41786" lon="6.61699">
        <ele>403.2</ele>
        <time>2017-06-11T07:59:00.999Z</time>
      </trkpt>
      <trkpt lat="47.41787" lon="6.61696">
        <ele>403.4</ele>
        <time>2017-06-11T07:59:01.999Z</time>
      </trkpt>
      <trkpt lat="47.41789" lon="6.61693">
        <ele>403.5</ele>
        <time>2017-06-11T07:59:02.999Z</time>
      </trkpt>
      <trkpt lat="47.41791" lon="6.61689">
        <ele>403.5</ele>
        <time>2017-06-11T07:59:03.999Z</time>
      </trkpt>
      <trkpt lat="47.41792" lon="6.61685">
        <ele>403.6</ele>
        <time>2017-06-11T07:59:04.999Z</time>
      </trkpt>
      <trkpt lat="47.41794" lon="6.61679">
        <ele>403.5</ele>
        <time>2017-06-11T07:59:05.999Z</time>
      </trkpt>
      <trkpt lat="47.41796" lon="6.61675">
        <ele>403.5</ele>
        <time>2017-06-11T07:59:06.999Z</time>
      </trkpt>
      <trkpt lat="47.41799" lon="6.6167">
        <ele>403.5</ele>
        <time>2017-06-11T07:59:07.999Z</time>
      </trkpt>
      <trkpt lat="47.41801" lon="6.61666">
        <ele>403.5</ele>
        <time>2017-06-11T07:59:08.999Z</time>
      </trkpt>
      <trkpt lat="47.41803" lon="6.61663">
        <ele>403.6</ele>
        <time>2017-06-11T07:59:09.999Z</time>
      </trkpt>
      <trkpt lat="47.41806" lon="6.61658">
        <ele>403.5</ele>
        <time>2017-06-11T07:59:10.999Z</time>
      </trkpt>
      <trkpt lat="47.41808" lon="6.61655">
        <ele>403.6</ele>
        <time>2017-06-11T07:59:11.999Z</time>
      </trkpt>
      <trkpt lat="47.4181" lon="6.61651">
        <ele>403.7</ele>
        <time>2017-06-11T07:59:12.999Z</time>
      </trkpt>
      <trkpt lat="47.41812" lon="6.61647">
        <ele>403.8</ele>
        <time>2017-06-11T07:59:13.999Z</time>
      </trkpt>
      <trkpt lat="47.41814" lon="6.61642">
        <ele>403.9</ele>
        <time>2017-06-11T07:59:14.999Z</time>
      </trkpt>
      <trkpt lat="47.41816" lon="6.61638">
        <ele>404</ele>
        <time>2017-06-11T07:59:15.999Z</time>
      </trkpt>
      <trkpt lat="47.41818" lon="6.61633">
        <ele>404.1</ele>
        <time>2017-06-11T07:59:16.999Z</time>
      </trkpt>
      <trkpt lat="47.4182" lon="6.61627">
        <ele>404.3</ele>
        <time>2017-06-11T07:59:17.999Z</time>
      </trkpt>
      <trkpt lat="47.41822" lon="6.61622">
        <ele>404.4</ele>
        <time>2017-06-11T07:59:18.999Z</time>
      </trkpt>
      <trkpt lat="47.41824" lon="6.61616">
        <ele>404.4</ele>
        <time>2017-06-11T07:59:19.999Z</time>
      </trkpt>
      <trkpt lat="47.41827" lon="6.61611">
        <ele>404.4</ele>
        <time>2017-06-11T07:59:20.999Z</time>
      </trkpt>
      <trkpt lat="47.41829" lon="6.61606">
        <ele>404.4</ele>
        <time>2017-06-11T07:59:21.999Z</time>
      </trkpt>
      <trkpt lat="47.41831" lon="6.61602">
        <ele>404.5</ele>
        <time>2017-06-11T07:59:22.999Z</time>
      </trkpt>
      <trkpt lat="47.41833" lon="6.61598">
        <ele>404.4</ele>
        <time>2017-06-11T07:59:23.999Z</time>
      </trkpt>
      <trkpt lat="47.41835" lon="6.61594">
        <ele>404.4</ele>
        <time>2017-06-11T07:59:24.999Z</time>
      </trkpt>
      <trkpt lat="47.41838" lon="6.6159">
        <ele>404.3</ele>
        <time>2017-06-11T07:59:25.999Z</time>
      </trkpt>
      <trkpt lat="47.41841" lon="6.61584">
        <ele>403.3</ele>
        <time>2017-06-11T07:59:26.999Z</time>
      </trkpt>
      <trkpt lat="47.41843" lon="6.6158">
        <ele>403.2</ele>
        <time>2017-06-11T07:59:27.999Z</time>
      </trkpt>
      <trkpt lat="47.41846" lon="6.61576">
        <ele>403.2</ele>
        <time>2017-06-11T07:59:28.999Z</time>
      </trkpt>
      <trkpt lat="47.41848" lon="6.6157">
        <ele>403</ele>
        <time>2017-06-11T07:59:29.999Z</time>
      </trkpt>
      <trkpt lat="47.41851" lon="6.61564">
        <ele>403.1</ele>
        <time>2017-06-11T07:59:30.999Z</time>
      </trkpt>
      <trkpt lat="47.41855" lon="6.61562">
        <ele>403.2</ele>
        <time>2017-06-11T07:59:31.999Z</time>
      </trkpt>
      <trkpt lat="47.41858" lon="6.61559">
        <ele>403.3</ele>
        <time>2017-06-11T07:59:32.999Z</time>
      </trkpt>
      <trkpt lat="47.4186" lon="6.61554">
        <ele>403.4</ele>
        <time>2017-06-11T07:59:33.999Z</time>
      </trkpt>
      <trkpt lat="47.41862" lon="6.61549">
        <ele>403.8</ele>
        <time>2017-06-11T07:59:34.999Z</time>
      </trkpt>
      <trkpt lat="47.41864" lon="6.61544">
        <ele>403.9</ele>
        <time>2017-06-11T07:59:35.999Z</time>
      </trkpt>
      <trkpt lat="47.41866" lon="6.61542">
        <ele>403.8</ele>
        <time>2017-06-11T07:59:36.999Z</time>
      </trkpt>
      <trkpt lat="47.41869" lon="6.6154">
        <ele>403.9</ele>
        <time>2017-06-11T07:59:37.999Z</time>
      </trkpt>
      <trkpt lat="47.41871" lon="6.61537">
        <ele>404</ele>
        <time>2017-06-11T07:59:38.999Z</time>
      </trkpt>
      <trkpt lat="47.41874" lon="6.61532">
        <ele>404.1</ele>
        <time>2017-06-11T07:59:39.999Z</time>
      </trkpt>
      <trkpt lat="47.41878" lon="6.61525">
        <ele>404.2</ele>
        <time>2017-06-11T07:59:40.999Z</time>
      </trkpt>
      <trkpt lat="47.41881" lon="6.61521">
        <ele>404.3</ele>
        <time>2017-06-11T07:59:41.999Z</time>
      </trkpt>
      <trkpt lat="47.41883" lon="6.61518">
        <ele>404.4</ele>
        <time>2017-06-11T07:59:42.999Z</time>
      </trkpt>
      <trkpt lat="47.41886" lon="6.61514">
        <ele>404.4</ele>
        <time>2017-06-11T07:59:43.999Z</time>
      </trkpt>
      <trkpt lat="47.41889" lon="6.61509">
        <ele>404.4</ele>
        <time>2017-06-11T07:59:44.999Z</time>
      </trkpt>
      <trkpt lat="47.41891" lon="6.61506">
        <ele>404.5</ele>
        <time>2017-06-11T07:59:45.999Z</time>
      </trkpt>
      <trkpt lat="47.41894" lon="6.61503">
        <ele>404.7</ele>
        <time>2017-06-11T07:59:46.999Z</time>
      </trkpt>
      <trkpt lat="47.41896" lon="6.61499">
        <ele>404.7</ele>
        <time>2017-06-11T07:59:47.999Z</time>
      </trkpt>
      <trkpt lat="47.41899" lon="6.61496">
        <ele>404.8</ele>
        <time>2017-06-11T07:59:48.999Z</time>
      </trkpt>
      <trkpt lat="47.41902" lon="6.61492">
        <ele>406.4</ele>
        <time>2017-06-11T07:59:49.999Z</time>
      </trkpt>
      <trkpt lat="47.41905" lon="6.61487">
        <ele>406.5</ele>
        <time>2017-06-11T07:59:50.999Z</time>
      </trkpt>
      <trkpt lat="47.41907" lon="6.61483">
        <ele>406.6</ele>
        <time>2017-06-11T07:59:51.999Z</time>
      </trkpt>
      <trkpt lat="47.41909" lon="6.6148">
        <ele>406.6</ele>
        <time>2017-06-11T07:59:52.999Z</time>
      </trkpt>
      <trkpt lat="47.41912" lon="6.61476">
        <ele>407.7</ele>
        <time>2017-06-11T07:59:53.999Z</time>
      </trkpt>
      <trkpt lat="47.41915" lon="6.61472">
        <ele>407.8</ele>
        <time>2017-06-11T07:59:54.999Z</time>
      </trkpt>
      <trkpt lat="47.41918" lon="6.61468">
        <ele>407.8</ele>
        <time>2017-06-11T07:59:55.999Z</time>
      </trkpt>
      <trkpt lat="47.41921" lon="6.61464">
        <ele>407.9</ele>
        <time>2017-06-11T07:59:56.999Z</time>
      </trkpt>
      <trkpt lat="47.41924" lon="6.61461">
        <ele>407.9</ele>
        <time>2017-06-11T07:59:57.999Z</time>
      </trkpt>
      <trkpt lat="47.41927" lon="6.61457">
        <ele>407.9</ele>
        <time>2017-06-11T07:59:58.999Z</time>
      </trkpt>
      <trkpt lat="47.41931" lon="6.61453">
        <ele>407.5</ele>
        <time>2017-06-11T07:59:59.999Z</time>
      </trkpt>
      <trkpt lat="47.41935" lon="6.61449">
        <ele>407.5</ele>
        <time>2017-06-11T08:00:00.999Z</time>
      </trkpt>
      <trkpt lat="47.41939" lon="6.61443">
        <ele>406.8</ele>
        <time>2017-06-11T08:00:01.999Z</time>
      </trkpt>
      <trkpt lat="47.41942" lon="6.61439">
        <ele>406.8</ele>
        <time>2017-06-11T08:00:02.999Z</time>
      </trkpt>
      <trkpt lat="47.41946" lon="6.61433">
        <ele>406.2</ele>
        <time>2017-06-11T08:00:03.999Z</time>
      </trkpt>
      <trkpt lat="47.41949" lon="6.61428">
        <ele>406.2</ele>
        <time>2017-06-11T08:00:04.999Z</time>
      </trkpt>
      <trkpt lat="47.41951" lon="6.61421">
        <ele>406</ele>
        <time>2017-06-11T08:00:05.999Z</time>
      </trkpt>
      <trkpt lat="47.41955" lon="6.61412">
        <ele>405.7</ele>
        <time>2017-06-11T08:00:06.999Z</time>
      </trkpt>
      <trkpt lat="47.41958" lon="6.61406">
        <ele>405.8</ele>
        <time>2017-06-11T08:00:07.999Z</time>
      </trkpt>
      <trkpt lat="47.41961" lon="6.614">
        <ele>405.7</ele>
        <time>2017-06-11T08:00:08.999Z</time>
      </trkpt>
      <trkpt lat="47.41965" lon="6.61396">
        <ele>405.1</ele>
        <time>2017-06-11T08:00:09.999Z</time>
      </trkpt>
      <trkpt lat="47.41968" lon="6.61392">
        <ele>405.1</ele>
        <time>2017-06-11T08:00:10.999Z</time>
      </trkpt>
      <trkpt lat="47.41972" lon="6.61386">
        <ele>405</ele>
        <time>2017-06-11T08:00:11.999Z</time>
      </trkpt>
      <trkpt lat="47.41976" lon="6.61381">
        <ele>404.3</ele>
        <time>2017-06-11T08:00:12.999Z</time>
      </trkpt>
      <trkpt lat="47.41979" lon="6.61374">
        <ele>403.7</ele>
        <time>2017-06-11T08:00:13.999Z</time>
      </trkpt>
      <trkpt lat="47.41983" lon="6.61369">
        <ele>403.3</ele>
        <time>2017-06-11T08:00:14.999Z</time>
      </trkpt>
      <trkpt lat="47.41988" lon="6.61365">
        <ele>403</ele>
        <time>2017-06-11T08:00:15.999Z</time>
      </trkpt>
      <trkpt lat="47.41992" lon="6.6136">
        <ele>403</ele>
        <time>2017-06-11T08:00:16.999Z</time>
      </trkpt>
      <trkpt lat="47.41997" lon="6.61355">
        <ele>403.1</ele>
        <time>2017-06-11T08:00:17.999Z</time>
      </trkpt>
      <trkpt lat="47.42002" lon="6.61349">
        <ele>402.7</ele>
        <time>2017-06-11T08:00:18.999Z</time>
      </trkpt>
      <trkpt lat="47.42006" lon="6.61343">
        <ele>403</ele>
        <time>2017-06-11T08:00:19.999Z</time>
      </trkpt>
      <trkpt lat="47.4201" lon="6.61337">
        <ele>403.8</ele>
        <time>2017-06-11T08:00:20.999Z</time>
      </trkpt>
      <trkpt lat="47.42015" lon="6.61332">
        <ele>403.8</ele>
        <time>2017-06-11T08:00:21.999Z</time>
      </trkpt>
      <trkpt lat="47.4202" lon="6.61327">
        <ele>403.9</ele>
        <time>2017-06-11T08:00:22.999Z</time>
      </trkpt>
      <trkpt lat="47.42024" lon="6.61323">
        <ele>404.8</ele>
        <time>2017-06-11T08:00:23.999Z</time>
      </trkpt>
      <trkpt lat="47.42028" lon="6.61317">
        <ele>405.9</ele>
        <time>2017-06-11T08:00:24.999Z</time>
      </trkpt>
      <trkpt lat="47.42031" lon="6.61313">
        <ele>406.5</ele>
        <time>2017-06-11T08:00:25.999Z</time>
      </trkpt>
      <trkpt lat="47.42033" lon="6.61311">
        <ele>406.5</ele>
        <time>2017-06-11T08:00:26.999Z</time>
      </trkpt>
      <trkpt lat="47.42037" lon="6.61309">
        <ele>406</ele>
        <time>2017-06-11T08:03:52.999Z</time>
      </trkpt>
      <trkpt lat="47.42051" lon="6.61309">
        <ele>405.9</ele>
        <time>2017-06-11T08:03:53.999Z</time>
      </trkpt>
      <trkpt lat="47.42048" lon="6.61307">
        <ele>405.9</ele>
        <time>2017-06-11T08:04:00.999Z</time>
      </trkpt>
      <trkpt lat="47.42044" lon="6.61307">
        <ele>406.1</ele>
        <time>2017-06-11T08:04:01.999Z</time>
      </trkpt>
      <trkpt lat="47.42041" lon="6.61306">
        <ele>406.2</ele>
        <time>2017-06-11T08:04:09.999Z</time>
      </trkpt>
      <trkpt lat="47.4204" lon="6.61306">
        <ele>406.2</ele>
        <time>2017-06-11T08:04:10.999Z</time>
      </trkpt>
      <trkpt lat="47.42044" lon="6.61302">
        <ele>407.3</ele>
        <time>2017-06-11T08:04:20.999Z</time>
      </trkpt>
      <trkpt lat="47.42045" lon="6.61301">
        <ele>407.5</ele>
        <time>2017-06-11T08:04:21.999Z</time>
      </trkpt>
      <trkpt lat="47.42049" lon="6.613">
        <ele>408.5</ele>
        <time>2017-06-11T08:04:28.999Z</time>
      </trkpt>
      <trkpt lat="47.4205" lon="6.61301">
        <ele>408.7</ele>
        <time>2017-06-11T08:04:29.999Z</time>
      </trkpt>
      <trkpt lat="47.42051" lon="6.61302">
        <ele>408.8</ele>
        <time>2017-06-11T08:04:30.999Z</time>
      </trkpt>
      <trkpt lat="47.42055" lon="6.61303">
        <ele>408.9</ele>
        <time>2017-06-11T08:04:31.999Z</time>
      </trkpt>
      <trkpt lat="47.42058" lon="6.61306">
        <ele>408.9</ele>
        <time>2017-06-11T08:04:32.999Z</time>
      </trkpt>
      <trkpt lat="47.42059" lon="6.61308">
        <ele>408.9</ele>
        <time>2017-06-11T08:04:33.999Z</time>
      </trkpt>
      <trkpt lat="47.42061" lon="6.61311">
        <ele>408.7</ele>
        <time>2017-06-11T08:04:35.999Z</time>
      </trkpt>
      <trkpt lat="47.42063" lon="6.61311">
        <ele>408.6</ele>
        <time>2017-06-11T08:04:36.999Z</time>
      </trkpt>
      <trkpt lat="47.42066" lon="6.61314">
        <ele>408.3</ele>
        <time>2017-06-11T08:04:40.999Z</time>
      </trkpt>
      <trkpt lat="47.4207" lon="6.61315">
        <ele>408.1</ele>
        <time>2017-06-11T08:04:41.999Z</time>
      </trkpt>
      <trkpt lat="47.42072" lon="6.61319">
        <ele>407.7</ele>
        <time>2017-06-11T08:04:43.999Z</time>
      </trkpt>
      <trkpt lat="47.42074" lon="6.61321">
        <ele>407.6</ele>
        <time>2017-06-11T08:04:44.999Z</time>
      </trkpt>
      <trkpt lat="47.42076" lon="6.61322">
        <ele>407.5</ele>
        <time>2017-06-11T08:04:45.999Z</time>
      </trkpt>
      <trkpt lat="47.42078" lon="6.61324">
        <ele>407.4</ele>
        <time>2017-06-11T08:04:46.999Z</time>
      </trkpt>
      <trkpt lat="47.4208" lon="6.61329">
        <ele>407.4</ele>
        <time>2017-06-11T08:04:48.999Z</time>
      </trkpt>
      <trkpt lat="47.42082" lon="6.61331">
        <ele>407.4</ele>
        <time>2017-06-11T08:04:49.999Z</time>
      </trkpt>
      <trkpt lat="47.42084" lon="6.61333">
        <ele>407.3</ele>
        <time>2017-06-11T08:04:50.999Z</time>
      </trkpt>
      <trkpt lat="47.42085" lon="6.61336">
        <ele>407.2</ele>
        <time>2017-06-11T08:04:51.999Z</time>
      </trkpt>
      <trkpt lat="47.42087" lon="6.61341">
        <ele>407.2</ele>
        <time>2017-06-11T08:04:53.999Z</time>
      </trkpt>
      <trkpt lat="47.42088" lon="6.61344">
        <ele>407.2</ele>
        <time>2017-06-11T08:04:54.999Z</time>
      </trkpt>
      <trkpt lat="47.42091" lon="6.61348">
        <ele>407.3</ele>
        <time>2017-06-11T08:04:56.999Z</time>
      </trkpt>
      <trkpt lat="47.42093" lon="6.61351">
        <ele>407.3</ele>
        <time>2017-06-11T08:04:57.999Z</time>
      </trkpt>
      <trkpt lat="47.42095" lon="6.61355">
        <ele>407.3</ele>
        <time>2017-06-11T08:04:59.999Z</time>
      </trkpt>
      <trkpt lat="47.42097" lon="6.61357">
        <ele>407.3</ele>
        <time>2017-06-11T08:05:00.999Z</time>
      </trkpt>
      <trkpt lat="47.42099" lon="6.61362">
        <ele>407.3</ele>
        <time>2017-06-11T08:05:02.999Z</time>
      </trkpt>
      <trkpt lat="47.42101" lon="6.61364">
        <ele>407.3</ele>
        <time>2017-06-11T08:05:03.999Z</time>
      </trkpt>
      <trkpt lat="47.42102" lon="6.61368">
        <ele>407.4</ele>
        <time>2017-06-11T08:05:05.999Z</time>
      </trkpt>
      <trkpt lat="47.42103" lon="6.6137">
        <ele>407.4</ele>
        <time>2017-06-11T08:05:06.999Z</time>
      </trkpt>
      <trkpt lat="47.42104" lon="6.61374">
        <ele>407.4</ele>
        <time>2017-06-11T08:05:08.999Z</time>
      </trkpt>
      <trkpt lat="47.42106" lon="6.61378">
        <ele>407.4</ele>
        <time>2017-06-11T08:05:09.999Z</time>
      </trkpt>
      <trkpt lat="47.42107" lon="6.6138">
        <ele>407.3</ele>
        <time>2017-06-11T08:05:10.999Z</time>
      </trkpt>
      <trkpt lat="47.42109" lon="6.61384">
        <ele>407.3</ele>
        <time>2017-06-11T08:05:11.999Z</time>
      </trkpt>
      <trkpt lat="47.4211" lon="6.61389">
        <ele>407.2</ele>
        <time>2017-06-11T08:05:13.999Z</time>
      </trkpt>
      <trkpt lat="47.4211" lon="6.61393">
        <ele>407.2</ele>
        <time>2017-06-11T08:05:14.999Z</time>
      </trkpt>
      <trkpt lat="47.42112" lon="6.61397">
        <ele>407.2</ele>
        <time>2017-06-11T08:05:16.999Z</time>
      </trkpt>
      <trkpt lat="47.42112" lon="6.614">
        <ele>407.2</ele>
        <time>2017-06-11T08:05:17.999Z</time>
      </trkpt>
      <trkpt lat="47.42112" lon="6.61404">
        <ele>407.2</ele>
        <time>2017-06-11T08:05:19.999Z</time>
      </trkpt>
      <trkpt lat="47.42112" lon="6.61407">
        <ele>407.3</ele>
        <time>2017-06-11T08:05:20.999Z</time>
      </trkpt>
      <trkpt lat="47.4211" lon="6.6141">
        <ele>407.3</ele>
        <time>2017-06-11T08:05:22.999Z</time>
      </trkpt>
      <trkpt lat="47.42109" lon="6.61412">
        <ele>407.3</ele>
        <time>2017-06-11T08:05:23.999Z</time>
      </trkpt>
      <trkpt lat="47.42108" lon="6.61417">
        <ele>407.4</ele>
        <time>2017-06-11T08:05:25.999Z</time>
      </trkpt>
      <trkpt lat="47.42108" lon="6.61421">
        <ele>407.4</ele>
        <time>2017-06-11T08:05:26.999Z</time>
      </trkpt>
      <trkpt lat="47.42106" lon="6.61427">
        <ele>407.4</ele>
        <time>2017-06-11T08:05:29.999Z</time>
      </trkpt>
      <trkpt lat="47.42106" lon="6.61429">
        <ele>407.5</ele>
        <time>2017-06-11T08:05:30.999Z</time>
      </trkpt>
      <trkpt lat="47.42104" lon="6.61434">
        <ele>407.6</ele>
        <time>2017-06-11T08:05:33.999Z</time>
      </trkpt>
      <trkpt lat="47.42103" lon="6.61436">
        <ele>407.7</ele>
        <time>2017-06-11T08:05:34.999Z</time>
      </trkpt>
      <trkpt lat="47.42102" lon="6.6144">
        <ele>407.7</ele>
        <time>2017-06-11T08:05:36.999Z</time>
      </trkpt>
      <trkpt lat="47.42101" lon="6.61443">
        <ele>407.8</ele>
        <time>2017-06-11T08:05:37.999Z</time>
      </trkpt>
      <trkpt lat="47.42099" lon="6.61449">
        <ele>408</ele>
        <time>2017-06-11T08:05:40.999Z</time>
      </trkpt>
      <trkpt lat="47.42099" lon="6.61451">
        <ele>408.1</ele>
        <time>2017-06-11T08:05:41.999Z</time>
      </trkpt>
      <trkpt lat="47.42098" lon="6.61456">
        <ele>408.1</ele>
        <time>2017-06-11T08:05:43.999Z</time>
      </trkpt>
      <trkpt lat="47.42098" lon="6.61459">
        <ele>408.1</ele>
        <time>2017-06-11T08:05:44.999Z</time>
      </trkpt>
      <trkpt lat="47.42098" lon="6.61464">
        <ele>408.1</ele>
        <time>2017-06-11T08:05:46.999Z</time>
      </trkpt>
      <trkpt lat="47.42097" lon="6.61467">
        <ele>408.1</ele>
        <time>2017-06-11T08:05:47.999Z</time>
      </trkpt>
      <trkpt lat="47.42097" lon="6.61471">
        <ele>408</ele>
        <time>2017-06-11T08:05:49.999Z</time>
      </trkpt>
      <trkpt lat="47.42097" lon="6.61474">
        <ele>408</ele>
        <time>2017-06-11T08:05:50.999Z</time>
      </trkpt>
      <trkpt lat="47.42095" lon="6.6148">
        <ele>408</ele>
        <time>2017-06-11T08:05:53.999Z</time>
      </trkpt>
      <trkpt lat="47.42095" lon="6.61482">
        <ele>408</ele>
        <time>2017-06-11T08:05:54.999Z</time>
      </trkpt>
      <trkpt lat="47.42093" lon="6.61486">
        <ele>408.1</ele>
        <time>2017-06-11T08:05:56.999Z</time>
      </trkpt>
      <trkpt lat="47.42091" lon="6.61488">
        <ele>408.1</ele>
        <time>2017-06-11T08:05:57.999Z</time>
      </trkpt>
      <trkpt lat="47.42089" lon="6.61494">
        <ele>408.1</ele>
        <time>2017-06-11T08:05:59.999Z</time>
      </trkpt>
      <trkpt lat="47.42089" lon="6.61498">
        <ele>408.1</ele>
        <time>2017-06-11T08:06:00.999Z</time>
      </trkpt>
      <trkpt lat="47.42088" lon="6.61503">
        <ele>408.3</ele>
        <time>2017-06-11T08:06:02.999Z</time>
      </trkpt>
      <trkpt lat="47.42088" lon="6.61506">
        <ele>408.4</ele>
        <time>2017-06-11T08:06:03.999Z</time>
      </trkpt>
      <trkpt lat="47.42087" lon="6.61512">
        <ele>408.4</ele>
        <time>2017-06-11T08:06:05.999Z</time>
      </trkpt>
      <trkpt lat="47.42086" lon="6.61515">
        <ele>408.5</ele>
        <time>2017-06-11T08:06:06.999Z</time>
      </trkpt>
      <trkpt lat="47.42085" lon="6.61519">
        <ele>408.6</ele>
        <time>2017-06-11T08:06:08.999Z</time>
      </trkpt>
      <trkpt lat="47.42084" lon="6.61521">
        <ele>408.7</ele>
        <time>2017-06-11T08:06:09.999Z</time>
      </trkpt>
      <trkpt lat="47.42081" lon="6.61525">
        <ele>408.7</ele>
        <time>2017-06-11T08:06:11.999Z</time>
      </trkpt>
      <trkpt lat="47.4208" lon="6.61527">
        <ele>408.7</ele>
        <time>2017-06-11T08:06:12.999Z</time>
      </trkpt>
      <trkpt lat="47.42078" lon="6.61532">
        <ele>408.8</ele>
        <time>2017-06-11T08:06:14.999Z</time>
      </trkpt>
      <trkpt lat="47.42077" lon="6.61534">
        <ele>408.8</ele>
        <time>2017-06-11T08:06:15.999Z</time>
      </trkpt>
      <trkpt lat="47.42075" lon="6.61538">
        <ele>408.9</ele>
        <time>2017-06-11T08:06:17.999Z</time>
      </trkpt>
      <trkpt lat="47.42074" lon="6.61541">
        <ele>408.9</ele>
        <time>2017-06-11T08:06:18.999Z</time>
      </trkpt>
      <trkpt lat="47.42074" lon="6.61545">
        <ele>408.9</ele>
        <time>2017-06-11T08:06:20.999Z</time>
      </trkpt>
      <trkpt lat="47.42073" lon="6.61547">
        <ele>408.9</ele>
        <time>2017-06-11T08:06:21.999Z</time>
      </trkpt>
      <trkpt lat="47.42072" lon="6.61551">
        <ele>409.1</ele>
        <time>2017-06-11T08:06:23.999Z</time>
      </trkpt>
      <trkpt lat="47.4207" lon="6.61553">
        <ele>409.1</ele>
        <time>2017-06-11T08:06:24.999Z</time>
      </trkpt>
      <trkpt lat="47.42069" lon="6.61558">
        <ele>409.3</ele>
        <time>2017-06-11T08:06:26.999Z</time>
      </trkpt>
      <trkpt lat="47.42069" lon="6.61561">
        <ele>409.3</ele>
        <time>2017-06-11T08:06:27.999Z</time>
      </trkpt>
      <trkpt lat="47.42068" lon="6.61566">
        <ele>409.4</ele>
        <time>2017-06-11T08:06:29.999Z</time>
      </trkpt>
      <trkpt lat="47.42068" lon="6.61568">
        <ele>409.5</ele>
        <time>2017-06-11T08:06:30.999Z</time>
      </trkpt>
      <trkpt lat="47.42067" lon="6.61574">
        <ele>409.7</ele>
        <time>2017-06-11T08:06:32.999Z</time>
      </trkpt>
      <trkpt lat="47.42066" lon="6.61577">
        <ele>409.8</ele>
        <time>2017-06-11T08:06:33.999Z</time>
      </trkpt>
      <trkpt lat="47.42064" lon="6.6158">
        <ele>409.8</ele>
        <time>2017-06-11T08:06:34.999Z</time>
      </trkpt>
      <trkpt lat="47.42063" lon="6.61584">
        <ele>409.9</ele>
        <time>2017-06-11T08:06:35.999Z</time>
      </trkpt>
      <trkpt lat="47.42062" lon="6.61588">
        <ele>410</ele>
        <time>2017-06-11T08:06:36.999Z</time>
      </trkpt>
      <trkpt lat="47.4206" lon="6.61591">
        <ele>410.1</ele>
        <time>2017-06-11T08:06:37.999Z</time>
      </trkpt>
      <trkpt lat="47.42059" lon="6.61594">
        <ele>410.1</ele>
        <time>2017-06-11T08:06:38.999Z</time>
      </trkpt>
      <trkpt lat="47.42057" lon="6.61598">
        <ele>410.1</ele>
        <time>2017-06-11T08:06:39.999Z</time>
      </trkpt>
      <trkpt lat="47.42056" lon="6.61601">
        <ele>410.2</ele>
        <time>2017-06-11T08:06:40.999Z</time>
      </trkpt>
      <trkpt lat="47.42055" lon="6.61604">
        <ele>410.2</ele>
        <time>2017-06-11T08:06:41.999Z</time>
      </trkpt>
      <trkpt lat="47.42053" lon="6.61607">
        <ele>410.3</ele>
        <time>2017-06-11T08:06:42.999Z</time>
      </trkpt>
      <trkpt lat="47.42052" lon="6.6161">
        <ele>410.3</ele>
        <time>2017-06-11T08:06:43.999Z</time>
      </trkpt>
      <trkpt lat="47.4205" lon="6.61613">
        <ele>410.3</ele>
        <time>2017-06-11T08:06:44.999Z</time>
      </trkpt>
      <trkpt lat="47.42048" lon="6.61617">
        <ele>410.3</ele>
        <time>2017-06-11T08:06:45.999Z</time>
      </trkpt>
      <trkpt lat="47.42047" lon="6.6162">
        <ele>410.4</ele>
        <time>2017-06-11T08:06:46.999Z</time>
      </trkpt>
      <trkpt lat="47.42045" lon="6.61622">
        <ele>410.4</ele>
        <time>2017-06-11T08:06:47.999Z</time>
      </trkpt>
      <trkpt lat="47.42043" lon="6.61626">
        <ele>410.5</ele>
        <time>2017-06-11T08:06:48.999Z</time>
      </trkpt>
      <trkpt lat="47.42042" lon="6.6163">
        <ele>410.7</ele>
        <time>2017-06-11T08:06:49.999Z</time>
      </trkpt>
      <trkpt lat="47.4204" lon="6.61633">
        <ele>410.8</ele>
        <time>2017-06-11T08:06:50.999Z</time>
      </trkpt>
      <trkpt lat="47.42038" lon="6.61636">
        <ele>410.9</ele>
        <time>2017-06-11T08:06:51.999Z</time>
      </trkpt>
      <trkpt lat="47.42036" lon="6.61639">
        <ele>411</ele>
        <time>2017-06-11T08:06:52.999Z</time>
      </trkpt>
      <trkpt lat="47.42034" lon="6.61643">
        <ele>411.1</ele>
        <time>2017-06-11T08:06:53.999Z</time>
      </trkpt>
      <trkpt lat="47.42032" lon="6.61646">
        <ele>411.2</ele>
        <time>2017-06-11T08:06:54.999Z</time>
      </trkpt>
      <trkpt lat="47.42031" lon="6.61648">
        <ele>411.4</ele>
        <time>2017-06-11T08:06:55.999Z</time>
      </trkpt>
      <trkpt lat="47.42029" lon="6.61652">
        <ele>411.5</ele>
        <time>2017-06-11T08:06:56.999Z</time>
      </trkpt>
      <trkpt lat="47.42027" lon="6.61655">
        <ele>411.6</ele>
        <time>2017-06-11T08:06:57.999Z</time>
      </trkpt>
      <trkpt lat="47.42025" lon="6.61659">
        <ele>411.6</ele>
        <time>2017-06-11T08:06:58.999Z</time>
      </trkpt>
      <trkpt lat="47.42023" lon="6.61664">
        <ele>411.7</ele>
        <time>2017-06-11T08:06:59.999Z</time>
      </trkpt>
      <trkpt lat="47.42021" lon="6.61668">
        <ele>411.7</ele>
        <time>2017-06-11T08:07:00.999Z</time>
      </trkpt>
      <trkpt lat="47.42018" lon="6.61673">
        <ele>411.7</ele>
        <time>2017-06-11T08:07:01.999Z</time>
      </trkpt>
      <trkpt lat="47.42016" lon="6.61679">
        <ele>411.6</ele>
        <time>2017-06-11T08:07:02.999Z</time>
      </trkpt>
      <trkpt lat="47.42014" lon="6.61684">
        <ele>411.5</ele>
        <time>2017-06-11T08:07:03.999Z</time>
      </trkpt>
      <trkpt lat="47.42011" lon="6.61689">
        <ele>411.5</ele>
        <time>2017-06-11T08:07:04.999Z</time>
      </trkpt>
      <trkpt lat="47.4201" lon="6.61693">
        <ele>411.4</ele>
        <time>2017-06-11T08:07:05.999Z</time>
      </trkpt>
      <trkpt lat="47.42008" lon="6.61698">
        <ele>411.3</ele>
        <time>2017-06-11T08:07:06.999Z</time>
      </trkpt>
      <trkpt lat="47.42006" lon="6.61704">
        <ele>411.7</ele>
        <time>2017-06-11T08:07:07.999Z</time>
      </trkpt>
      <trkpt lat="47.42005" lon="6.61709">
        <ele>411.6</ele>
        <time>2017-06-11T08:07:08.999Z</time>
      </trkpt>
      <trkpt lat="47.42004" lon="6.61714">
        <ele>411.5</ele>
        <time>2017-06-11T08:07:09.999Z</time>
      </trkpt>
      <trkpt lat="47.42002" lon="6.6172">
        <ele>411.5</ele>
        <time>2017-06-11T08:07:10.999Z</time>
      </trkpt>
      <trkpt lat="47.42001" lon="6.61725">
        <ele>411.5</ele>
        <time>2017-06-11T08:07:11.999Z</time>
      </trkpt>
      <trkpt lat="47.41999" lon="6.61731">
        <ele>411.5</ele>
        <time>2017-06-11T08:07:12.999Z</time>
      </trkpt>
      <trkpt lat="47.41997" lon="6.61738">
        <ele>411.6</ele>
        <time>2017-06-11T08:07:13.999Z</time>
      </trkpt>
      <trkpt lat="47.41995" lon="6.61743">
        <ele>411.6</ele>
        <time>2017-06-11T08:07:14.999Z</time>
      </trkpt>
      <trkpt lat="47.41994" lon="6.61749">
        <ele>411.6</ele>
        <time>2017-06-11T08:07:15.999Z</time>
      </trkpt>
      <trkpt lat="47.41993" lon="6.61754">
        <ele>411.7</ele>
        <time>2017-06-11T08:07:16.999Z</time>
      </trkpt>
      <trkpt lat="47.41992" lon="6.6176">
        <ele>411.8</ele>
        <time>2017-06-11T08:07:17.999Z</time>
      </trkpt>
      <trkpt lat="47.41991" lon="6.61765">
        <ele>412</ele>
        <time>2017-06-11T08:07:18.999Z</time>
      </trkpt>
      <trkpt lat="47.4199" lon="6.6177">
        <ele>412.1</ele>
        <time>2017-06-11T08:07:19.999Z</time>
      </trkpt>
      <trkpt lat="47.4199" lon="6.61777">
        <ele>413.4</ele>
        <time>2017-06-11T08:07:20.999Z</time>
      </trkpt>
      <trkpt lat="47.41989" lon="6.61783">
        <ele>414.7</ele>
        <time>2017-06-11T08:07:21.999Z</time>
      </trkpt>
      <trkpt lat="47.41989" lon="6.61788">
        <ele>415.7</ele>
        <time>2017-06-11T08:07:22.999Z</time>
      </trkpt>
      <trkpt lat="47.41989" lon="6.61794">
        <ele>416.7</ele>
        <time>2017-06-11T08:07:23.999Z</time>
      </trkpt>
      <trkpt lat="47.41988" lon="6.61801">
        <ele>417.3</ele>
        <time>2017-06-11T08:07:24.999Z</time>
      </trkpt>
      <trkpt lat="47.41988" lon="6.61807">
        <ele>417.5</ele>
        <time>2017-06-11T08:07:25.999Z</time>
      </trkpt>
      <trkpt lat="47.41989" lon="6.61813">
        <ele>417.6</ele>
        <time>2017-06-11T08:07:26.999Z</time>
      </trkpt>
      <trkpt lat="47.4199" lon="6.61818">
        <ele>417.7</ele>
        <time>2017-06-11T08:07:27.999Z</time>
      </trkpt>
      <trkpt lat="47.4199" lon="6.61823">
        <ele>417.8</ele>
        <time>2017-06-11T08:07:28.999Z</time>
      </trkpt>
      <trkpt lat="47.41991" lon="6.61829">
        <ele>417.8</ele>
        <time>2017-06-11T08:07:29.999Z</time>
      </trkpt>
      <trkpt lat="47.41992" lon="6.61835">
        <ele>417.8</ele>
        <time>2017-06-11T08:07:30.999Z</time>
      </trkpt>
      <trkpt lat="47.41993" lon="6.61841">
        <ele>418.3</ele>
        <time>2017-06-11T08:07:31.999Z</time>
      </trkpt>
      <trkpt lat="47.41993" lon="6.61848">
        <ele>418.6</ele>
        <time>2017-06-11T08:07:32.999Z</time>
      </trkpt>
      <trkpt lat="47.41994" lon="6.61856">
        <ele>418.6</ele>
        <time>2017-06-11T08:07:33.999Z</time>
      </trkpt>
      <trkpt lat="47.41995" lon="6.61863">
        <ele>418.2</ele>
        <time>2017-06-11T08:07:34.999Z</time>
      </trkpt>
      <trkpt lat="47.41995" lon="6.61869">
        <ele>417.5</ele>
        <time>2017-06-11T08:07:35.999Z</time>
      </trkpt>
      <trkpt lat="47.41996" lon="6.61876">
        <ele>417.3</ele>
        <time>2017-06-11T08:07:36.999Z</time>
      </trkpt>
      <trkpt lat="47.41996" lon="6.61882">
        <ele>417.3</ele>
        <time>2017-06-11T08:07:37.999Z</time>
      </trkpt>
      <trkpt lat="47.41996" lon="6.61888">
        <ele>417.3</ele>
        <time>2017-06-11T08:07:38.999Z</time>
      </trkpt>
      <trkpt lat="47.41996" lon="6.61894">
        <ele>416.8</ele>
        <time>2017-06-11T08:07:39.999Z</time>
      </trkpt>
      <trkpt lat="47.41997" lon="6.61901">
        <ele>415.6</ele>
        <time>2017-06-11T08:07:40.999Z</time>
      </trkpt>
      <trkpt lat="47.41997" lon="6.61909">
        <ele>415</ele>
        <time>2017-06-11T08:07:41.999Z</time>
      </trkpt>
      <trkpt lat="47.41999" lon="6.61918">
        <ele>414.4</ele>
        <time>2017-06-11T08:07:42.999Z</time>
      </trkpt>
      <trkpt lat="47.42" lon="6.61926">
        <ele>413.7</ele>
        <time>2017-06-11T08:07:43.999Z</time>
      </trkpt>
      <trkpt lat="47.42002" lon="6.61934">
        <ele>413.3</ele>
        <time>2017-06-11T08:07:44.999Z</time>
      </trkpt>
      <trkpt lat="47.42004" lon="6.61942">
        <ele>412.6</ele>
        <time>2017-06-11T08:07:45.999Z</time>
      </trkpt>
      <trkpt lat="47.42005" lon="6.61948">
        <ele>411.4</ele>
        <time>2017-06-11T08:07:46.999Z</time>
      </trkpt>
      <trkpt lat="47.42005" lon="6.61954">
        <ele>409.1</ele>
        <time>2017-06-11T08:07:47.999Z</time>
      </trkpt>
      <trkpt lat="47.42003" lon="6.61961">
        <ele>407.1</ele>
        <time>2017-06-11T08:07:48.999Z</time>
      </trkpt>
      <trkpt lat="47.42002" lon="6.61967">
        <ele>405</ele>
        <time>2017-06-11T08:07:49.999Z</time>
      </trkpt>
      <trkpt lat="47.42" lon="6.61973">
        <ele>404.8</ele>
        <time>2017-06-11T08:07:50.999Z</time>
      </trkpt>
      <trkpt lat="47.41999" lon="6.61978">
        <ele>404.7</ele>
        <time>2017-06-11T08:07:51.999Z</time>
      </trkpt>
      <trkpt lat="47.41998" lon="6.61983">
        <ele>402.8</ele>
        <time>2017-06-11T08:07:52.999Z</time>
      </trkpt>
      <trkpt lat="47.41997" lon="6.61988">
        <ele>402.7</ele>
        <time>2017-06-11T08:07:53.999Z</time>
      </trkpt>
      <trkpt lat="47.41996" lon="6.61993">
        <ele>402.6</ele>
        <time>2017-06-11T08:07:54.999Z</time>
      </trkpt>
      <trkpt lat="47.41995" lon="6.61998">
        <ele>402.7</ele>
        <time>2017-06-11T08:07:55.999Z</time>
      </trkpt>
      <trkpt lat="47.41994" lon="6.62004">
        <ele>402.7</ele>
        <time>2017-06-11T08:07:56.999Z</time>
      </trkpt>
      <trkpt lat="47.41993" lon="6.6201">
        <ele>402.7</ele>
        <time>2017-06-11T08:07:57.999Z</time>
      </trkpt>
      <trkpt lat="47.41992" lon="6.62016">
        <ele>402.7</ele>
        <time>2017-06-11T08:07:58.999Z</time>
      </trkpt>
      <trkpt lat="47.4199" lon="6.62023">
        <ele>403.5</ele>
        <time>2017-06-11T08:07:59.999Z</time>
      </trkpt>
      <trkpt lat="47.41989" lon="6.62029">
        <ele>403.6</ele>
        <time>2017-06-11T08:08:00.999Z</time>
      </trkpt>
      <trkpt lat="47.41988" lon="6.62035">
        <ele>403.7</ele>
        <time>2017-06-11T08:08:01.999Z</time>
      </trkpt>
      <trkpt lat="47.41986" lon="6.6204">
        <ele>403.8</ele>
        <time>2017-06-11T08:08:02.999Z</time>
      </trkpt>
      <trkpt lat="47.41985" lon="6.62046">
        <ele>403.9</ele>
        <time>2017-06-11T08:08:03.999Z</time>
      </trkpt>
      <trkpt lat="47.41984" lon="6.62052">
        <ele>404</ele>
        <time>2017-06-11T08:08:04.999Z</time>
      </trkpt>
      <trkpt lat="47.41983" lon="6.62058">
        <ele>404.2</ele>
        <time>2017-06-11T08:08:05.999Z</time>
      </trkpt>
      <trkpt lat="47.41981" lon="6.62064">
        <ele>404.4</ele>
        <time>2017-06-11T08:08:06.999Z</time>
      </trkpt>
      <trkpt lat="47.4198" lon="6.6207">
        <ele>404.6</ele>
        <time>2017-06-11T08:08:07.999Z</time>
      </trkpt>
      <trkpt lat="47.41979" lon="6.62075">
        <ele>404.8</ele>
        <time>2017-06-11T08:08:08.999Z</time>
      </trkpt>
      <trkpt lat="47.41978" lon="6.62081">
        <ele>405.1</ele>
        <time>2017-06-11T08:08:09.999Z</time>
      </trkpt>
      <trkpt lat="47.41977" lon="6.62086">
        <ele>405.3</ele>
        <time>2017-06-11T08:08:10.999Z</time>
      </trkpt>
      <trkpt lat="47.41976" lon="6.62091">
        <ele>405.5</ele>
        <time>2017-06-11T08:08:11.999Z</time>
      </trkpt>
      <trkpt lat="47.41975" lon="6.62095">
        <ele>405.7</ele>
        <time>2017-06-11T08:08:12.999Z</time>
      </trkpt>
      <trkpt lat="47.41974" lon="6.62099">
        <ele>406</ele>
        <time>2017-06-11T08:08:13.999Z</time>
      </trkpt>
      <trkpt lat="47.41974" lon="6.62103">
        <ele>406.3</ele>
        <time>2017-06-11T08:08:14.999Z</time>
      </trkpt>
      <trkpt lat="47.41972" lon="6.62107">
        <ele>406.6</ele>
        <time>2017-06-11T08:08:15.999Z</time>
      </trkpt>
      <trkpt lat="47.41971" lon="6.62112">
        <ele>409.3</ele>
        <time>2017-06-11T08:08:16.999Z</time>
      </trkpt>
      <trkpt lat="47.4197" lon="6.62117">
        <ele>409.5</ele>
        <time>2017-06-11T08:08:17.999Z</time>
      </trkpt>
      <trkpt lat="47.41969" lon="6.62122">
        <ele>409.7</ele>
        <time>2017-06-11T08:08:18.999Z</time>
      </trkpt>
      <trkpt lat="47.41968" lon="6.62127">
        <ele>409.9</ele>
        <time>2017-06-11T08:08:19.999Z</time>
      </trkpt>
      <trkpt lat="47.41967" lon="6.62132">
        <ele>410</ele>
        <time>2017-06-11T08:08:20.999Z</time>
      </trkpt>
      <trkpt lat="47.41966" lon="6.62136">
        <ele>410.2</ele>
        <time>2017-06-11T08:08:21.999Z</time>
      </trkpt>
      <trkpt lat="47.41965" lon="6.62141">
        <ele>410.4</ele>
        <time>2017-06-11T08:08:22.999Z</time>
      </trkpt>
      <trkpt lat="47.41963" lon="6.62146">
        <ele>410.5</ele>
        <time>2017-06-11T08:08:23.999Z</time>
      </trkpt>
      <trkpt lat="47.41962" lon="6.62151">
        <ele>410.6</ele>
        <time>2017-06-11T08:08:24.999Z</time>
      </trkpt>
      <trkpt lat="47.41961" lon="6.62155">
        <ele>410.7</ele>
        <time>2017-06-11T08:08:25.999Z</time>
      </trkpt>
      <trkpt lat="47.41959" lon="6.6216">
        <ele>410.7</ele>
        <time>2017-06-11T08:08:26.999Z</time>
      </trkpt>
      <trkpt lat="47.41957" lon="6.62165">
        <ele>410.8</ele>
        <time>2017-06-11T08:08:27.999Z</time>
      </trkpt>
      <trkpt lat="47.41956" lon="6.6217">
        <ele>411</ele>
        <time>2017-06-11T08:08:28.999Z</time>
      </trkpt>
      <trkpt lat="47.41954" lon="6.62175">
        <ele>411.1</ele>
        <time>2017-06-11T08:08:29.999Z</time>
      </trkpt>
      <trkpt lat="47.41952" lon="6.6218">
        <ele>411.2</ele>
        <time>2017-06-11T08:08:30.999Z</time>
      </trkpt>
      <trkpt lat="47.41951" lon="6.62185">
        <ele>411.2</ele>
        <time>2017-06-11T08:08:31.999Z</time>
      </trkpt>
      <trkpt lat="47.41949" lon="6.6219">
        <ele>411.4</ele>
        <time>2017-06-11T08:08:32.999Z</time>
      </trkpt>
      <trkpt lat="47.41948" lon="6.62195">
        <ele>411.6</ele>
        <time>2017-06-11T08:08:33.999Z</time>
      </trkpt>
      <trkpt lat="47.41947" lon="6.62199">
        <ele>411.8</ele>
        <time>2017-06-11T08:08:34.999Z</time>
      </trkpt>
      <trkpt lat="47.41945" lon="6.62205">
        <ele>412</ele>
        <time>2017-06-11T08:08:35.999Z</time>
      </trkpt>
      <trkpt lat="47.41944" lon="6.62209">
        <ele>412.1</ele>
        <time>2017-06-11T08:08:36.999Z</time>
      </trkpt>
      <trkpt lat="47.41943" lon="6.62213">
        <ele>412.3</ele>
        <time>2017-06-11T08:08:37.999Z</time>
      </trkpt>
      <trkpt lat="47.41942" lon="6.62218">
        <ele>412.6</ele>
        <time>2017-06-11T08:08:38.999Z</time>
      </trkpt>
      <trkpt lat="47.41941" lon="6.62223">
        <ele>412.8</ele>
        <time>2017-06-11T08:08:39.999Z</time>
      </trkpt>
      <trkpt lat="47.41939" lon="6.62227">
        <ele>413.1</ele>
        <time>2017-06-11T08:08:40.999Z</time>
      </trkpt>
      <trkpt lat="47.41938" lon="6.62232">
        <ele>413.3</ele>
        <time>2017-06-11T08:08:41.999Z</time>
      </trkpt>
      <trkpt lat="47.41937" lon="6.62238">
        <ele>413.6</ele>
        <time>2017-06-11T08:08:42.999Z</time>
      </trkpt>
      <trkpt lat="47.41935" lon="6.62244">
        <ele>415.8</ele>
        <time>2017-06-11T08:08:43.999Z</time>
      </trkpt>
      <trkpt lat="47.41933" lon="6.62249">
        <ele>416</ele>
        <time>2017-06-11T08:08:44.999Z</time>
      </trkpt>
      <trkpt lat="47.41932" lon="6.62254">
        <ele>416.2</ele>
        <time>2017-06-11T08:08:45.999Z</time>
      </trkpt>
      <trkpt lat="47.41931" lon="6.62259">
        <ele>418.2</ele>
        <time>2017-06-11T08:08:46.999Z</time>
      </trkpt>
      <trkpt lat="47.41929" lon="6.62264">
        <ele>418.4</ele>
        <time>2017-06-11T08:08:47.999Z</time>
      </trkpt>
      <trkpt lat="47.41928" lon="6.62268">
        <ele>418.5</ele>
        <time>2017-06-11T08:08:48.999Z</time>
      </trkpt>
      <trkpt lat="47.41927" lon="6.62273">
        <ele>419.9</ele>
        <time>2017-06-11T08:08:49.999Z</time>
      </trkpt>
      <trkpt lat="47.41925" lon="6.62278">
        <ele>421.2</ele>
        <time>2017-06-11T08:08:50.999Z</time>
      </trkpt>
      <trkpt lat="47.41924" lon="6.62283">
        <ele>421.8</ele>
        <time>2017-06-11T08:08:51.999Z</time>
      </trkpt>
      <trkpt lat="47.41923" lon="6.62288">
        <ele>421.7</ele>
        <time>2017-06-11T08:08:52.999Z</time>
      </trkpt>
      <trkpt lat="47.41922" lon="6.62293">
        <ele>422</ele>
        <time>2017-06-11T08:08:53.999Z</time>
      </trkpt>
      <trkpt lat="47.4192" lon="6.62297">
        <ele>422</ele>
        <time>2017-06-11T08:08:54.999Z</time>
      </trkpt>
      <trkpt lat="47.41918" lon="6.62303">
        <ele>422</ele>
        <time>2017-06-11T08:08:55.999Z</time>
      </trkpt>
      <trkpt lat="47.41917" lon="6.62309">
        <ele>421.4</ele>
        <time>2017-06-11T08:08:56.999Z</time>
      </trkpt>
      <trkpt lat="47.41915" lon="6.62313">
        <ele>421</ele>
        <time>2017-06-11T08:08:57.999Z</time>
      </trkpt>
      <trkpt lat="47.41913" lon="6.62318">
        <ele>420.5</ele>
        <time>2017-06-11T08:08:58.999Z</time>
      </trkpt>
      <trkpt lat="47.41911" lon="6.62323">
        <ele>420.4</ele>
        <time>2017-06-11T08:08:59.999Z</time>
      </trkpt>
      <trkpt lat="47.41909" lon="6.62328">
        <ele>420.4</ele>
        <time>2017-06-11T08:09:00.999Z</time>
      </trkpt>
      <trkpt lat="47.41907" lon="6.62334">
        <ele>421.6</ele>
        <time>2017-06-11T08:09:01.999Z</time>
      </trkpt>
      <trkpt lat="47.41904" lon="6.6234">
        <ele>422.1</ele>
        <time>2017-06-11T08:09:02.999Z</time>
      </trkpt>
      <trkpt lat="47.41902" lon="6.62345">
        <ele>423</ele>
        <time>2017-06-11T08:09:03.999Z</time>
      </trkpt>
      <trkpt lat="47.41899" lon="6.6235">
        <ele>423.8</ele>
        <time>2017-06-11T08:09:04.999Z</time>
      </trkpt>
      <trkpt lat="47.41897" lon="6.62357">
        <ele>424.4</ele>
        <time>2017-06-11T08:09:05.999Z</time>
      </trkpt>
      <trkpt lat="47.41894" lon="6.62363">
        <ele>424.8</ele>
        <time>2017-06-11T08:09:06.999Z</time>
      </trkpt>
      <trkpt lat="47.41891" lon="6.6237">
        <ele>425.3</ele>
        <time>2017-06-11T08:09:07.999Z</time>
      </trkpt>
      <trkpt lat="47.41888" lon="6.62377">
        <ele>425.2</ele>
        <time>2017-06-11T08:09:08.999Z</time>
      </trkpt>
      <trkpt lat="47.41885" lon="6.62383">
        <ele>425.4</ele>
        <time>2017-06-11T08:09:09.999Z</time>
      </trkpt>
      <trkpt lat="47.41883" lon="6.6239">
        <ele>425.5</ele>
        <time>2017-06-11T08:09:10.999Z</time>
      </trkpt>
      <trkpt lat="47.4188" lon="6.62396">
        <ele>425.5</ele>
        <time>2017-06-11T08:09:11.999Z</time>
      </trkpt>
      <trkpt lat="47.41877" lon="6.62403">
        <ele>425.7</ele>
        <time>2017-06-11T08:09:12.999Z</time>
      </trkpt>
      <trkpt lat="47.41874" lon="6.6241">
        <ele>425.7</ele>
        <time>2017-06-11T08:09:13.999Z</time>
      </trkpt>
      <trkpt lat="47.41872" lon="6.62417">
        <ele>425.6</ele>
        <time>2017-06-11T08:09:14.999Z</time>
      </trkpt>
      <trkpt lat="47.41869" lon="6.62424">
        <ele>425.6</ele>
        <time>2017-06-11T08:09:15.999Z</time>
      </trkpt>
      <trkpt lat="47.41866" lon="6.62432">
        <ele>425.4</ele>
        <time>2017-06-11T08:09:16.999Z</time>
      </trkpt>
      <trkpt lat="47.41864" lon="6.62439">
        <ele>425.2</ele>
        <time>2017-06-11T08:09:17.999Z</time>
      </trkpt>
      <trkpt lat="47.41862" lon="6.62445">
        <ele>424.9</ele>
        <time>2017-06-11T08:09:18.999Z</time>
      </trkpt>
      <trkpt lat="47.4186" lon="6.62452">
        <ele>424.5</ele>
        <time>2017-06-11T08:09:19.999Z</time>
      </trkpt>
      <trkpt lat="47.41858" lon="6.62459">
        <ele>424.6</ele>
        <time>2017-06-11T08:09:20.999Z</time>
      </trkpt>
      <trkpt lat="47.41856" lon="6.62465">
        <ele>424.7</ele>
        <time>2017-06-11T08:09:21.999Z</time>
      </trkpt>
      <trkpt lat="47.41854" lon="6.62472">
        <ele>424.3</ele>
        <time>2017-06-11T08:09:22.999Z</time>
      </trkpt>
      <trkpt lat="47.41852" lon="6.6248">
        <ele>423.8</ele>
        <time>2017-06-11T08:09:23.999Z</time>
      </trkpt>
      <trkpt lat="47.41851" lon="6.62488">
        <ele>423.1</ele>
        <time>2017-06-11T08:09:24.999Z</time>
      </trkpt>
      <trkpt lat="47.4185" lon="6.62496">
        <ele>422.1</ele>
        <time>2017-06-11T08:09:25.999Z</time>
      </trkpt>
      <trkpt lat="47.41849" lon="6.62504">
        <ele>421.9</ele>
        <time>2017-06-11T08:09:26.999Z</time>
      </trkpt>
      <trkpt lat="47.41848" lon="6.62512">
        <ele>421</ele>
        <time>2017-06-11T08:09:27.999Z</time>
      </trkpt>
      <trkpt lat="47.41847" lon="6.62519">
        <ele>420.6</ele>
        <time>2017-06-11T08:09:28.999Z</time>
      </trkpt>
      <trkpt lat="47.41845" lon="6.62525">
        <ele>420</ele>
        <time>2017-06-11T08:09:29.999Z</time>
      </trkpt>
      <trkpt lat="47.41844" lon="6.62532">
        <ele>419.4</ele>
        <time>2017-06-11T08:09:30.999Z</time>
      </trkpt>
      <trkpt lat="47.41842" lon="6.62538">
        <ele>418.2</ele>
        <time>2017-06-11T08:09:31.999Z</time>
      </trkpt>
      <trkpt lat="47.4184" lon="6.62543">
        <ele>417.7</ele>
        <time>2017-06-11T08:09:32.999Z</time>
      </trkpt>
      <trkpt lat="47.41839" lon="6.6255">
        <ele>416.4</ele>
        <time>2017-06-11T08:09:33.999Z</time>
      </trkpt>
      <trkpt lat="47.41838" lon="6.62556">
        <ele>416.4</ele>
        <time>2017-06-11T08:09:34.999Z</time>
      </trkpt>
      <trkpt lat="47.41837" lon="6.62561">
        <ele>416.4</ele>
        <time>2017-06-11T08:09:35.999Z</time>
      </trkpt>
      <trkpt lat="47.41835" lon="6.62566">
        <ele>416.4</ele>
        <time>2017-06-11T08:09:36.999Z</time>
      </trkpt>
      <trkpt lat="47.41833" lon="6.62572">
        <ele>416</ele>
        <time>2017-06-11T08:09:37.999Z</time>
      </trkpt>
      <trkpt lat="47.41832" lon="6.62577">
        <ele>415.9</ele>
        <time>2017-06-11T08:09:38.999Z</time>
      </trkpt>
      <trkpt lat="47.41831" lon="6.62581">
        <ele>415.9</ele>
        <time>2017-06-11T08:09:39.999Z</time>
      </trkpt>
      <trkpt lat="47.41829" lon="6.62584">
        <ele>416</ele>
        <time>2017-06-11T08:09:40.999Z</time>
      </trkpt>
      <trkpt lat="47.41828" lon="6.62587">
        <ele>416.1</ele>
        <time>2017-06-11T08:09:41.999Z</time>
      </trkpt>
      <trkpt lat="47.41826" lon="6.6259">
        <ele>416.1</ele>
        <time>2017-06-11T08:09:42.999Z</time>
      </trkpt>
      <trkpt lat="47.41825" lon="6.62593">
        <ele>416.2</ele>
        <time>2017-06-11T08:09:43.999Z</time>
      </trkpt>
      <trkpt lat="47.41823" lon="6.62598">
        <ele>416.3</ele>
        <time>2017-06-11T08:09:45.999Z</time>
      </trkpt>
      <trkpt lat="47.41823" lon="6.62601">
        <ele>416.3</ele>
        <time>2017-06-11T08:09:46.999Z</time>
      </trkpt>
      <trkpt lat="47.41824" lon="6.62607">
        <ele>416.2</ele>
        <time>2017-06-11T08:09:48.999Z</time>
      </trkpt>
      <trkpt lat="47.41824" lon="6.6261">
        <ele>416.1</ele>
        <time>2017-06-11T08:09:49.999Z</time>
      </trkpt>
      <trkpt lat="47.41826" lon="6.62612">
        <ele>415.9</ele>
        <time>2017-06-11T08:09:50.999Z</time>
      </trkpt>
      <trkpt lat="47.41827" lon="6.62615">
        <ele>415.8</ele>
        <time>2017-06-11T08:09:51.999Z</time>
      </trkpt>
      <trkpt lat="47.4183" lon="6.62619">
        <ele>415.6</ele>
        <time>2017-06-11T08:09:52.999Z</time>
      </trkpt>
      <trkpt lat="47.41832" lon="6.62623">
        <ele>415.4</ele>
        <time>2017-06-11T08:09:53.999Z</time>
      </trkpt>
      <trkpt lat="47.41834" lon="6.62627">
        <ele>415.2</ele>
        <time>2017-06-11T08:09:54.999Z</time>
      </trkpt>
      <trkpt lat="47.41837" lon="6.6263">
        <ele>415</ele>
        <time>2017-06-11T08:09:55.999Z</time>
      </trkpt>
      <trkpt lat="47.4184" lon="6.62634">
        <ele>413.4</ele>
        <time>2017-06-11T08:09:56.999Z</time>
      </trkpt>
      <trkpt lat="47.41844" lon="6.62639">
        <ele>412.1</ele>
        <time>2017-06-11T08:09:57.999Z</time>
      </trkpt>
      <trkpt lat="47.4185" lon="6.62643">
        <ele>411.7</ele>
        <time>2017-06-11T08:09:58.999Z</time>
      </trkpt>
      <trkpt lat="47.41855" lon="6.62647">
        <ele>411.4</ele>
        <time>2017-06-11T08:09:59.999Z</time>
      </trkpt>
      <trkpt lat="47.4186" lon="6.62652">
        <ele>411.3</ele>
        <time>2017-06-11T08:10:00.999Z</time>
      </trkpt>
      <trkpt lat="47.41866" lon="6.62657">
        <ele>410.9</ele>
        <time>2017-06-11T08:10:01.999Z</time>
      </trkpt>
      <trkpt lat="47.4187" lon="6.62664">
        <ele>409.9</ele>
        <time>2017-06-11T08:10:02.999Z</time>
      </trkpt>
      <trkpt lat="47.41874" lon="6.62672">
        <ele>408.8</ele>
        <time>2017-06-11T08:10:03.999Z</time>
      </trkpt>
      <trkpt lat="47.41877" lon="6.62678">
        <ele>406.9</ele>
        <time>2017-06-11T08:10:04.999Z</time>
      </trkpt>
      <trkpt lat="47.4188" lon="6.62686">
        <ele>405.9</ele>
        <time>2017-06-11T08:10:05.999Z</time>
      </trkpt>
      <trkpt lat="47.41883" lon="6.62694">
        <ele>404.8</ele>
        <time>2017-06-11T08:10:06.999Z</time>
      </trkpt>
      <trkpt lat="47.41883" lon="6.62704">
        <ele>403.2</ele>
        <time>2017-06-11T08:10:07.999Z</time>
      </trkpt>
      <trkpt lat="47.41884" lon="6.62715">
        <ele>402.4</ele>
        <time>2017-06-11T08:10:08.999Z</time>
      </trkpt>
      <trkpt lat="47.41884" lon="6.62725">
        <ele>402.3</ele>
        <time>2017-06-11T08:10:09.999Z</time>
      </trkpt>
      <trkpt lat="47.41885" lon="6.62732">
        <ele>401.8</ele>
        <time>2017-06-11T08:10:10.999Z</time>
      </trkpt>
      <trkpt lat="47.41885" lon="6.6274">
        <ele>401.5</ele>
        <time>2017-06-11T08:10:11.999Z</time>
      </trkpt>
      <trkpt lat="47.41885" lon="6.62748">
        <ele>401.6</ele>
        <time>2017-06-11T08:10:12.999Z</time>
      </trkpt>
      <trkpt lat="47.41886" lon="6.62755">
        <ele>400.9</ele>
        <time>2017-06-11T08:10:13.999Z</time>
      </trkpt>
      <trkpt lat="47.41887" lon="6.62762">
        <ele>399.9</ele>
        <time>2017-06-11T08:10:14.999Z</time>
      </trkpt>
      <trkpt lat="47.41887" lon="6.62769">
        <ele>399.4</ele>
        <time>2017-06-11T08:10:15.999Z</time>
      </trkpt>
      <trkpt lat="47.41888" lon="6.62779">
        <ele>399.4</ele>
        <time>2017-06-11T08:10:16.999Z</time>
      </trkpt>
      <trkpt lat="47.41887" lon="6.62784">
        <ele>399.2</ele>
        <time>2017-06-11T08:10:17.999Z</time>
      </trkpt>
      <trkpt lat="47.41887" lon="6.6279">
        <ele>399.1</ele>
        <time>2017-06-11T08:10:18.999Z</time>
      </trkpt>
      <trkpt lat="47.41886" lon="6.628">
        <ele>396.6</ele>
        <time>2017-06-11T08:10:19.999Z</time>
      </trkpt>
      <trkpt lat="47.41885" lon="6.62812">
        <ele>393.9</ele>
        <time>2017-06-11T08:10:20.999Z</time>
      </trkpt>
      <trkpt lat="47.41886" lon="6.62821">
        <ele>391.7</ele>
        <time>2017-06-11T08:10:21.999Z</time>
      </trkpt>
      <trkpt lat="47.41889" lon="6.6283">
        <ele>390.9</ele>
        <time>2017-06-11T08:10:22.999Z</time>
      </trkpt>
      <trkpt lat="47.41891" lon="6.62841">
        <ele>389.9</ele>
        <time>2017-06-11T08:10:23.999Z</time>
      </trkpt>
      <trkpt lat="47.41894" lon="6.6285">
        <ele>389.9</ele>
        <time>2017-06-11T08:10:24.999Z</time>
      </trkpt>
      <trkpt lat="47.41896" lon="6.62859">
        <ele>390.6</ele>
        <time>2017-06-11T08:10:25.999Z</time>
      </trkpt>
      <trkpt lat="47.41897" lon="6.62869">
        <ele>392.1</ele>
        <time>2017-06-11T08:10:26.999Z</time>
      </trkpt>
      <trkpt lat="47.41899" lon="6.6288">
        <ele>393.6</ele>
        <time>2017-06-11T08:10:27.999Z</time>
      </trkpt>
      <trkpt lat="47.419" lon="6.6289">
        <ele>394.8</ele>
        <time>2017-06-11T08:10:28.999Z</time>
      </trkpt>
      <trkpt lat="47.419" lon="6.629">
        <ele>396.6</ele>
        <time>2017-06-11T08:10:29.999Z</time>
      </trkpt>
      <trkpt lat="47.41901" lon="6.62911">
        <ele>398.5</ele>
        <time>2017-06-11T08:10:30.999Z</time>
      </trkpt>
      <trkpt lat="47.41901" lon="6.62923">
        <ele>400.1</ele>
        <time>2017-06-11T08:10:31.999Z</time>
      </trkpt>
      <trkpt lat="47.41903" lon="6.62935">
        <ele>401.1</ele>
        <time>2017-06-11T08:10:32.999Z</time>
      </trkpt>
      <trkpt lat="47.41905" lon="6.62945">
        <ele>401.9</ele>
        <time>2017-06-11T08:10:33.999Z</time>
      </trkpt>
      <trkpt lat="47.41909" lon="6.62952">
        <ele>402.6</ele>
        <time>2017-06-11T08:10:34.999Z</time>
      </trkpt>
      <trkpt lat="47.41913" lon="6.62959">
        <ele>404.2</ele>
        <time>2017-06-11T08:10:35.999Z</time>
      </trkpt>
      <trkpt lat="47.4192" lon="6.62962">
        <ele>405.6</ele>
        <time>2017-06-11T08:10:36.999Z</time>
      </trkpt>
      <trkpt lat="47.41926" lon="6.62963">
        <ele>405.8</ele>
        <time>2017-06-11T08:10:37.999Z</time>
      </trkpt>
      <trkpt lat="47.41932" lon="6.62965">
        <ele>406</ele>
        <time>2017-06-11T08:10:38.999Z</time>
      </trkpt>
      <trkpt lat="47.41935" lon="6.62966">
        <ele>406</ele>
        <time>2017-06-11T08:10:39.999Z</time>
      </trkpt>
      <trkpt lat="47.41937" lon="6.62966">
        <ele>406</ele>
        <time>2017-06-11T08:10:40.999Z</time>
      </trkpt>
      <trkpt lat="47.41937" lon="6.62966">
        <ele>406</ele>
        <time>2017-06-11T08:10:42.999Z</time>
      </trkpt>
      <trkpt lat="47.4195" lon="6.62969">
        <ele>405.9</ele>
        <time>2017-06-11T08:10:43.999Z</time>
      </trkpt>
      <trkpt lat="47.4195" lon="6.62969">
        <ele>405.9</ele>
        <time>2017-06-11T08:10:44.999Z</time>
      </trkpt>
      <trkpt lat="47.41961" lon="6.62961">
        <ele>405</ele>
        <time>2017-06-11T08:10:45.999Z</time>
      </trkpt>
      <trkpt lat="47.41966" lon="6.62953">
        <ele>402.8</ele>
        <time>2017-06-11T08:10:46.999Z</time>
      </trkpt>
      <trkpt lat="47.41969" lon="6.62945">
        <ele>400.8</ele>
        <time>2017-06-11T08:10:47.999Z</time>
      </trkpt>
      <trkpt lat="47.4197" lon="6.62937">
        <ele>398.6</ele>
        <time>2017-06-11T08:10:48.999Z</time>
      </trkpt>
      <trkpt lat="47.4197" lon="6.62928">
        <ele>397.9</ele>
        <time>2017-06-11T08:10:49.999Z</time>
      </trkpt>
      <trkpt lat="47.41969" lon="6.62919">
        <ele>398</ele>
        <time>2017-06-11T08:10:50.999Z</time>
      </trkpt>
      <trkpt lat="47.4197" lon="6.62909">
        <ele>398.3</ele>
        <time>2017-06-11T08:10:51.999Z</time>
      </trkpt>
      <trkpt lat="47.41971" lon="6.62901">
        <ele>397.9</ele>
        <time>2017-06-11T08:10:52.999Z</time>
      </trkpt>
      <trkpt lat="47.41974" lon="6.62891">
        <ele>398.1</ele>
        <time>2017-06-11T08:10:53.999Z</time>
      </trkpt>
      <trkpt lat="47.41976" lon="6.62881">
        <ele>399.4</ele>
        <time>2017-06-11T08:10:54.999Z</time>
      </trkpt>
      <trkpt lat="47.41978" lon="6.6287">
        <ele>399.5</ele>
        <time>2017-06-11T08:10:55.999Z</time>
      </trkpt>
      <trkpt lat="47.41982" lon="6.62861">
        <ele>399.8</ele>
        <time>2017-06-11T08:10:56.999Z</time>
      </trkpt>
      <trkpt lat="47.41986" lon="6.62851">
        <ele>399.1</ele>
        <time>2017-06-11T08:10:57.999Z</time>
      </trkpt>
      <trkpt lat="47.4199" lon="6.6284">
        <ele>399</ele>
        <time>2017-06-11T08:10:58.999Z</time>
      </trkpt>
      <trkpt lat="47.41993" lon="6.62832">
        <ele>399.6</ele>
        <time>2017-06-11T08:10:59.999Z</time>
      </trkpt>
      <trkpt lat="47.41996" lon="6.62823">
        <ele>400.1</ele>
        <time>2017-06-11T08:11:00.999Z</time>
      </trkpt>
      <trkpt lat="47.41999" lon="6.62814">
        <ele>400.5</ele>
        <time>2017-06-11T08:11:01.999Z</time>
      </trkpt>
      <trkpt lat="47.42003" lon="6.62805">
        <ele>401.8</ele>
        <time>2017-06-11T08:11:02.999Z</time>
      </trkpt>
      <trkpt lat="47.42007" lon="6.62798">
        <ele>401.8</ele>
        <time>2017-06-11T08:11:03.999Z</time>
      </trkpt>
      <trkpt lat="47.42013" lon="6.62792">
        <ele>402.4</ele>
        <time>2017-06-11T08:11:04.999Z</time>
      </trkpt>
      <trkpt lat="47.42017" lon="6.62786">
        <ele>403</ele>
        <time>2017-06-11T08:11:05.999Z</time>
      </trkpt>
      <trkpt lat="47.42021" lon="6.62782">
        <ele>403.5</ele>
        <time>2017-06-11T08:11:06.999Z</time>
      </trkpt>
      <trkpt lat="47.42024" lon="6.62778">
        <ele>403.7</ele>
        <time>2017-06-11T08:11:07.999Z</time>
      </trkpt>
      <trkpt lat="47.42029" lon="6.62773">
        <ele>404.3</ele>
        <time>2017-06-11T08:11:08.999Z</time>
      </trkpt>
      <trkpt lat="47.42035" lon="6.62768">
        <ele>405.1</ele>
        <time>2017-06-11T08:11:09.999Z</time>
      </trkpt>
      <trkpt lat="47.42041" lon="6.62766">
        <ele>404.6</ele>
        <time>2017-06-11T08:11:10.999Z</time>
      </trkpt>
      <trkpt lat="47.42046" lon="6.62766">
        <ele>403.6</ele>
        <time>2017-06-11T08:11:11.999Z</time>
      </trkpt>
      <trkpt lat="47.4205" lon="6.62769">
        <ele>403.5</ele>
        <time>2017-06-11T08:11:12.999Z</time>
      </trkpt>
      <trkpt lat="47.42054" lon="6.62772">
        <ele>403.4</ele>
        <time>2017-06-11T08:11:13.999Z</time>
      </trkpt>
      <trkpt lat="47.42057" lon="6.62776">
        <ele>403.1</ele>
        <time>2017-06-11T08:11:14.999Z</time>
      </trkpt>
      <trkpt lat="47.42061" lon="6.62783">
        <ele>402.8</ele>
        <time>2017-06-11T08:11:15.999Z</time>
      </trkpt>
      <trkpt lat="47.42065" lon="6.62791">
        <ele>402.6</ele>
        <time>2017-06-11T08:11:16.999Z</time>
      </trkpt>
      <trkpt lat="47.42069" lon="6.62798">
        <ele>402.3</ele>
        <time>2017-06-11T08:11:17.999Z</time>
      </trkpt>
      <trkpt lat="47.42073" lon="6.62804">
        <ele>399.5</ele>
        <time>2017-06-11T08:11:18.999Z</time>
      </trkpt>
      <trkpt lat="47.42075" lon="6.62809">
        <ele>399.2</ele>
        <time>2017-06-11T08:11:19.999Z</time>
      </trkpt>
      <trkpt lat="47.42079" lon="6.62817">
        <ele>399</ele>
        <time>2017-06-11T08:11:20.999Z</time>
      </trkpt>
      <trkpt lat="47.42081" lon="6.62823">
        <ele>398.8</ele>
        <time>2017-06-11T08:11:21.999Z</time>
      </trkpt>
      <trkpt lat="47.42085" lon="6.62831">
        <ele>398.6</ele>
        <time>2017-06-11T08:11:22.999Z</time>
      </trkpt>
      <trkpt lat="47.42088" lon="6.62837">
        <ele>398.5</ele>
        <time>2017-06-11T08:11:23.999Z</time>
      </trkpt>
      <trkpt lat="47.42091" lon="6.62843">
        <ele>398.3</ele>
        <time>2017-06-11T08:11:24.999Z</time>
      </trkpt>
      <trkpt lat="47.42095" lon="6.62851">
        <ele>398.1</ele>
        <time>2017-06-11T08:11:25.999Z</time>
      </trkpt>
      <trkpt lat="47.42098" lon="6.62859">
        <ele>396.3</ele>
        <time>2017-06-11T08:11:26.999Z</time>
      </trkpt>
      <trkpt lat="47.421" lon="6.62868">
        <ele>394.2</ele>
        <time>2017-06-11T08:11:27.999Z</time>
      </trkpt>
      <trkpt lat="47.42102" lon="6.62877">
        <ele>392.3</ele>
        <time>2017-06-11T08:11:28.999Z</time>
      </trkpt>
      <trkpt lat="47.42104" lon="6.62884">
        <ele>391.1</ele>
        <time>2017-06-11T08:11:29.999Z</time>
      </trkpt>
      <trkpt lat="47.42107" lon="6.62893">
        <ele>389.5</ele>
        <time>2017-06-11T08:11:30.999Z</time>
      </trkpt>
      <trkpt lat="47.42109" lon="6.62902">
        <ele>389.2</ele>
        <time>2017-06-11T08:11:31.999Z</time>
      </trkpt>
      <trkpt lat="47.42113" lon="6.62911">
        <ele>389</ele>
        <time>2017-06-11T08:11:32.999Z</time>
      </trkpt>
      <trkpt lat="47.42117" lon="6.6292">
        <ele>388.2</ele>
        <time>2017-06-11T08:11:33.999Z</time>
      </trkpt>
      <trkpt lat="47.42121" lon="6.62929">
        <ele>387.7</ele>
        <time>2017-06-11T08:11:34.999Z</time>
      </trkpt>
      <trkpt lat="47.42125" lon="6.62939">
        <ele>387.7</ele>
        <time>2017-06-11T08:11:35.999Z</time>
      </trkpt>
      <trkpt lat="47.4213" lon="6.62949">
        <ele>387.4</ele>
        <time>2017-06-11T08:11:36.999Z</time>
      </trkpt>
      <trkpt lat="47.42135" lon="6.62959">
        <ele>387.6</ele>
        <time>2017-06-11T08:11:37.999Z</time>
      </trkpt>
      <trkpt lat="47.4214" lon="6.62969">
        <ele>387.8</ele>
        <time>2017-06-11T08:11:38.999Z</time>
      </trkpt>
      <trkpt lat="47.42147" lon="6.62978">
        <ele>387.9</ele>
        <time>2017-06-11T08:11:39.999Z</time>
      </trkpt>
      <trkpt lat="47.42152" lon="6.62987">
        <ele>388</ele>
        <time>2017-06-11T08:11:40.999Z</time>
      </trkpt>
      <trkpt lat="47.42157" lon="6.62996">
        <ele>388.7</ele>
        <time>2017-06-11T08:11:41.999Z</time>
      </trkpt>
      <trkpt lat="47.42162" lon="6.63005">
        <ele>389.6</ele>
        <time>2017-06-11T08:11:42.999Z</time>
      </trkpt>
      <trkpt lat="47.42167" lon="6.63015">
        <ele>390</ele>
        <time>2017-06-11T08:11:43.999Z</time>
      </trkpt>
      <trkpt lat="47.42175" lon="6.63024">
        <ele>389</ele>
        <time>2017-06-11T08:11:44.999Z</time>
      </trkpt>
      <trkpt lat="47.42182" lon="6.63032">
        <ele>388.1</ele>
        <time>2017-06-11T08:11:45.999Z</time>
      </trkpt>
      <trkpt lat="47.42189" lon="6.63041">
        <ele>387.8</ele>
        <time>2017-06-11T08:11:46.999Z</time>
      </trkpt>
      <trkpt lat="47.42195" lon="6.63049">
        <ele>388.2</ele>
        <time>2017-06-11T08:11:47.999Z</time>
      </trkpt>
      <trkpt lat="47.42201" lon="6.63056">
        <ele>388.2</ele>
        <time>2017-06-11T08:11:48.999Z</time>
      </trkpt>
      <trkpt lat="47.42209" lon="6.63063">
        <ele>387.7</ele>
        <time>2017-06-11T08:11:49.999Z</time>
      </trkpt>
      <trkpt lat="47.42216" lon="6.63068">
        <ele>387.8</ele>
        <time>2017-06-11T08:11:50.999Z</time>
      </trkpt>
      <trkpt lat="47.42224" lon="6.63073">
        <ele>388.1</ele>
        <time>2017-06-11T08:11:51.999Z</time>
      </trkpt>
      <trkpt lat="47.42232" lon="6.63075">
        <ele>388.9</ele>
        <time>2017-06-11T08:11:52.999Z</time>
      </trkpt>
      <trkpt lat="47.4224" lon="6.63076">
        <ele>389.2</ele>
        <time>2017-06-11T08:11:53.999Z</time>
      </trkpt>
      <trkpt lat="47.42248" lon="6.63076">
        <ele>388.9</ele>
        <time>2017-06-11T08:11:54.999Z</time>
      </trkpt>
      <trkpt lat="47.42256" lon="6.63079">
        <ele>388.5</ele>
        <time>2017-06-11T08:11:55.999Z</time>
      </trkpt>
      <trkpt lat="47.42265" lon="6.63082">
        <ele>387.4</ele>
        <time>2017-06-11T08:11:56.999Z</time>
      </trkpt>
      <trkpt lat="47.42271" lon="6.63086">
        <ele>385.7</ele>
        <time>2017-06-11T08:11:57.999Z</time>
      </trkpt>
      <trkpt lat="47.42278" lon="6.63089">
        <ele>385</ele>
        <time>2017-06-11T08:11:58.999Z</time>
      </trkpt>
      <trkpt lat="47.42283" lon="6.63097">
        <ele>383.2</ele>
        <time>2017-06-11T08:11:59.999Z</time>
      </trkpt>
      <trkpt lat="47.42288" lon="6.63106">
        <ele>381.7</ele>
        <time>2017-06-11T08:12:00.999Z</time>
      </trkpt>
      <trkpt lat="47.42293" lon="6.63114">
        <ele>379.4</ele>
        <time>2017-06-11T08:12:01.999Z</time>
      </trkpt>
      <trkpt lat="47.42298" lon="6.63124">
        <ele>378.3</ele>
        <time>2017-06-11T08:12:02.999Z</time>
      </trkpt>
      <trkpt lat="47.42303" lon="6.6313">
        <ele>377.2</ele>
        <time>2017-06-11T08:12:03.999Z</time>
      </trkpt>
      <trkpt lat="47.42309" lon="6.63134">
        <ele>376.7</ele>
        <time>2017-06-11T08:12:04.999Z</time>
      </trkpt>
      <trkpt lat="47.42315" lon="6.63139">
        <ele>376</ele>
        <time>2017-06-11T08:12:05.999Z</time>
      </trkpt>
      <trkpt lat="47.42323" lon="6.63144">
        <ele>376.4</ele>
        <time>2017-06-11T08:12:06.999Z</time>
      </trkpt>
      <trkpt lat="47.4233" lon="6.63149">
        <ele>376.7</ele>
        <time>2017-06-11T08:12:07.999Z</time>
      </trkpt>
      <trkpt lat="47.42338" lon="6.63154">
        <ele>377.4</ele>
        <time>2017-06-11T08:12:08.999Z</time>
      </trkpt>
      <trkpt lat="47.42346" lon="6.63158">
        <ele>378.8</ele>
        <time>2017-06-11T08:12:09.999Z</time>
      </trkpt>
      <trkpt lat="47.42352" lon="6.63163">
        <ele>380.1</ele>
        <time>2017-06-11T08:12:10.999Z</time>
      </trkpt>
      <trkpt lat="47.42359" lon="6.63168">
        <ele>381.2</ele>
        <time>2017-06-11T08:12:11.999Z</time>
      </trkpt>
      <trkpt lat="47.42364" lon="6.63173">
        <ele>381.1</ele>
        <time>2017-06-11T08:12:12.999Z</time>
      </trkpt>
      <trkpt lat="47.42368" lon="6.63179">
        <ele>380.6</ele>
        <time>2017-06-11T08:12:13.999Z</time>
      </trkpt>
      <trkpt lat="47.42372" lon="6.63186">
        <ele>379.9</ele>
        <time>2017-06-11T08:12:14.999Z</time>
      </trkpt>
      <trkpt lat="47.42375" lon="6.63192">
        <ele>379.6</ele>
        <time>2017-06-11T08:12:15.999Z</time>
      </trkpt>
      <trkpt lat="47.42378" lon="6.63197">
        <ele>378.3</ele>
        <time>2017-06-11T08:12:16.999Z</time>
      </trkpt>
      <trkpt lat="47.4238" lon="6.63201">
        <ele>378.1</ele>
        <time>2017-06-11T08:12:17.999Z</time>
      </trkpt>
      <trkpt lat="47.4238" lon="6.63204">
        <ele>377.9</ele>
        <time>2017-06-11T08:12:18.999Z</time>
      </trkpt>
      <trkpt lat="47.42378" lon="6.63208">
        <ele>377.6</ele>
        <time>2017-06-11T08:12:19.999Z</time>
      </trkpt>
      <trkpt lat="47.42377" lon="6.63211">
        <ele>377.3</ele>
        <time>2017-06-11T08:12:20.999Z</time>
      </trkpt>
      <trkpt lat="47.42374" lon="6.63216">
        <ele>375.3</ele>
        <time>2017-06-11T08:12:21.999Z</time>
      </trkpt>
      <trkpt lat="47.42371" lon="6.63219">
        <ele>372.7</ele>
        <time>2017-06-11T08:12:22.999Z</time>
      </trkpt>
      <trkpt lat="47.42368" lon="6.63221">
        <ele>372.5</ele>
        <time>2017-06-11T08:12:23.999Z</time>
      </trkpt>
      <trkpt lat="47.42365" lon="6.63223">
        <ele>372.3</ele>
        <time>2017-06-11T08:12:24.999Z</time>
      </trkpt>
      <trkpt lat="47.42362" lon="6.63227">
        <ele>372</ele>
        <time>2017-06-11T08:12:25.999Z</time>
      </trkpt>
      <trkpt lat="47.4236" lon="6.63234">
        <ele>369.1</ele>
        <time>2017-06-11T08:12:26.999Z</time>
      </trkpt>
      <trkpt lat="47.4236" lon="6.63241">
        <ele>366.5</ele>
        <time>2017-06-11T08:12:27.999Z</time>
      </trkpt>
      <trkpt lat="47.42362" lon="6.63248">
        <ele>363.9</ele>
        <time>2017-06-11T08:12:28.999Z</time>
      </trkpt>
      <trkpt lat="47.42366" lon="6.63256">
        <ele>362.6</ele>
        <time>2017-06-11T08:12:29.999Z</time>
      </trkpt>
      <trkpt lat="47.42371" lon="6.63262">
        <ele>361.6</ele>
        <time>2017-06-11T08:12:30.999Z</time>
      </trkpt>
      <trkpt lat="47.42376" lon="6.63266">
        <ele>360.8</ele>
        <time>2017-06-11T08:12:31.999Z</time>
      </trkpt>
      <trkpt lat="47.4238" lon="6.63267">
        <ele>360.7</ele>
        <time>2017-06-11T08:12:32.999Z</time>
      </trkpt>
      <trkpt lat="47.42383" lon="6.63269">
        <ele>360.6</ele>
        <time>2017-06-11T08:12:33.999Z</time>
      </trkpt>
      <trkpt lat="47.42388" lon="6.63271">
        <ele>360.4</ele>
        <time>2017-06-11T08:12:34.999Z</time>
      </trkpt>
      <trkpt lat="47.42392" lon="6.63272">
        <ele>360.1</ele>
        <time>2017-06-11T08:12:35.999Z</time>
      </trkpt>
      <trkpt lat="47.42396" lon="6.63276">
        <ele>360</ele>
        <time>2017-06-11T08:12:36.999Z</time>
      </trkpt>
      <trkpt lat="47.424" lon="6.63281">
        <ele>359.8</ele>
        <time>2017-06-11T08:12:37.999Z</time>
      </trkpt>
      <trkpt lat="47.42402" lon="6.63286">
        <ele>359.6</ele>
        <time>2017-06-11T08:12:38.999Z</time>
      </trkpt>
      <trkpt lat="47.42403" lon="6.63289">
        <ele>359.5</ele>
        <time>2017-06-11T08:12:39.999Z</time>
      </trkpt>
      <trkpt lat="47.42403" lon="6.63292">
        <ele>359.3</ele>
        <time>2017-06-11T08:12:40.999Z</time>
      </trkpt>
      <trkpt lat="47.42403" lon="6.63297">
        <ele>359.2</ele>
        <time>2017-06-11T08:12:41.999Z</time>
      </trkpt>
      <trkpt lat="47.42403" lon="6.63301">
        <ele>359.2</ele>
        <time>2017-06-11T08:12:42.999Z</time>
      </trkpt>
      <trkpt lat="47.42403" lon="6.63306">
        <ele>359.2</ele>
        <time>2017-06-11T08:12:43.999Z</time>
      </trkpt>
      <trkpt lat="47.42403" lon="6.63309">
        <ele>359.3</ele>
        <time>2017-06-11T08:12:44.999Z</time>
      </trkpt>
      <trkpt lat="47.42403" lon="6.63314">
        <ele>359.3</ele>
        <time>2017-06-11T08:12:45.999Z</time>
      </trkpt>
      <trkpt lat="47.42402" lon="6.63319">
        <ele>359.3</ele>
        <time>2017-06-11T08:12:46.999Z</time>
      </trkpt>
      <trkpt lat="47.42402" lon="6.63323">
        <ele>359.2</ele>
        <time>2017-06-11T08:12:47.999Z</time>
      </trkpt>
      <trkpt lat="47.42401" lon="6.63328">
        <ele>359.1</ele>
        <time>2017-06-11T08:12:48.999Z</time>
      </trkpt>
      <trkpt lat="47.424" lon="6.63331">
        <ele>359</ele>
        <time>2017-06-11T08:12:49.999Z</time>
      </trkpt>
      <trkpt lat="47.42398" lon="6.63335">
        <ele>358.8</ele>
        <time>2017-06-11T08:12:50.999Z</time>
      </trkpt>
      <trkpt lat="47.42397" lon="6.63341">
        <ele>358.7</ele>
        <time>2017-06-11T08:12:51.999Z</time>
      </trkpt>
      <trkpt lat="47.42397" lon="6.63348">
        <ele>356.9</ele>
        <time>2017-06-11T08:12:52.999Z</time>
      </trkpt>
      <trkpt lat="47.42396" lon="6.63355">
        <ele>356.1</ele>
        <time>2017-06-11T08:12:53.999Z</time>
      </trkpt>
      <trkpt lat="47.42396" lon="6.63359">
        <ele>356</ele>
        <time>2017-06-11T08:12:54.999Z</time>
      </trkpt>
      <trkpt lat="47.42395" lon="6.63365">
        <ele>356</ele>
        <time>2017-06-11T08:12:55.999Z</time>
      </trkpt>
      <trkpt lat="47.42395" lon="6.63372">
        <ele>355.3</ele>
        <time>2017-06-11T08:12:56.999Z</time>
      </trkpt>
      <trkpt lat="47.42395" lon="6.63377">
        <ele>355.4</ele>
        <time>2017-06-11T08:12:57.999Z</time>
      </trkpt>
      <trkpt lat="47.42395" lon="6.63383">
        <ele>355.4</ele>
        <time>2017-06-11T08:12:58.999Z</time>
      </trkpt>
      <trkpt lat="47.42393" lon="6.63387">
        <ele>355.5</ele>
        <time>2017-06-11T08:12:59.999Z</time>
      </trkpt>
      <trkpt lat="47.42392" lon="6.63393">
        <ele>355.5</ele>
        <time>2017-06-11T08:13:00.999Z</time>
      </trkpt>
      <trkpt lat="47.42391" lon="6.63399">
        <ele>357.2</ele>
        <time>2017-06-11T08:13:01.999Z</time>
      </trkpt>
      <trkpt lat="47.42391" lon="6.63405">
        <ele>357.3</ele>
        <time>2017-06-11T08:13:02.999Z</time>
      </trkpt>
      <trkpt lat="47.42391" lon="6.63411">
        <ele>357.4</ele>
        <time>2017-06-11T08:13:03.999Z</time>
      </trkpt>
      <trkpt lat="47.42391" lon="6.63416">
        <ele>357.5</ele>
        <time>2017-06-11T08:13:04.999Z</time>
      </trkpt>
      <trkpt lat="47.4239" lon="6.63422">
        <ele>357.5</ele>
        <time>2017-06-11T08:13:05.999Z</time>
      </trkpt>
      <trkpt lat="47.42389" lon="6.63427">
        <ele>357.5</ele>
        <time>2017-06-11T08:13:06.999Z</time>
      </trkpt>
      <trkpt lat="47.42388" lon="6.63431">
        <ele>357.5</ele>
        <time>2017-06-11T08:13:07.999Z</time>
      </trkpt>
      <trkpt lat="47.42387" lon="6.63436">
        <ele>357.4</ele>
        <time>2017-06-11T08:13:08.999Z</time>
      </trkpt>
      <trkpt lat="47.42387" lon="6.63441">
        <ele>357.3</ele>
        <time>2017-06-11T08:13:09.999Z</time>
      </trkpt>
      <trkpt lat="47.42387" lon="6.63447">
        <ele>357.2</ele>
        <time>2017-06-11T08:13:10.999Z</time>
      </trkpt>
      <trkpt lat="47.42386" lon="6.63452">
        <ele>357.3</ele>
        <time>2017-06-11T08:13:11.999Z</time>
      </trkpt>
      <trkpt lat="47.42386" lon="6.63458">
        <ele>357.3</ele>
        <time>2017-06-11T08:13:12.999Z</time>
      </trkpt>
      <trkpt lat="47.42386" lon="6.63462">
        <ele>357.2</ele>
        <time>2017-06-11T08:13:13.999Z</time>
      </trkpt>
      <trkpt lat="47.42385" lon="6.63468">
        <ele>357.1</ele>
        <time>2017-06-11T08:13:15.999Z</time>
      </trkpt>
      <trkpt lat="47.42384" lon="6.63471">
        <ele>357.1</ele>
        <time>2017-06-11T08:13:16.999Z</time>
      </trkpt>
      <trkpt lat="47.42382" lon="6.63475">
        <ele>357.1</ele>
        <time>2017-06-11T08:13:17.999Z</time>
      </trkpt>
      <trkpt lat="47.4238" lon="6.6348">
        <ele>357.1</ele>
        <time>2017-06-11T08:13:18.999Z</time>
      </trkpt>
      <trkpt lat="47.42378" lon="6.63484">
        <ele>357.1</ele>
        <time>2017-06-11T08:13:19.999Z</time>
      </trkpt>
      <trkpt lat="47.42377" lon="6.63488">
        <ele>357</ele>
        <time>2017-06-11T08:13:20.999Z</time>
      </trkpt>
      <trkpt lat="47.42376" lon="6.63493">
        <ele>357.1</ele>
        <time>2017-06-11T08:13:21.999Z</time>
      </trkpt>
      <trkpt lat="47.42375" lon="6.63497">
        <ele>357.1</ele>
        <time>2017-06-11T08:13:22.999Z</time>
      </trkpt>
      <trkpt lat="47.42373" lon="6.63501">
        <ele>357.1</ele>
        <time>2017-06-11T08:13:23.999Z</time>
      </trkpt>
      <trkpt lat="47.42371" lon="6.63507">
        <ele>357.1</ele>
        <time>2017-06-11T08:13:24.999Z</time>
      </trkpt>
      <trkpt lat="47.4237" lon="6.63512">
        <ele>357.2</ele>
        <time>2017-06-11T08:13:25.999Z</time>
      </trkpt>
      <trkpt lat="47.42368" lon="6.63516">
        <ele>357.3</ele>
        <time>2017-06-11T08:13:26.999Z</time>
      </trkpt>
      <trkpt lat="47.42367" lon="6.63519">
        <ele>357.4</ele>
        <time>2017-06-11T08:13:27.999Z</time>
      </trkpt>
      <trkpt lat="47.42367" lon="6.63522">
        <ele>357.4</ele>
        <time>2017-06-11T08:13:28.999Z</time>
      </trkpt>
      <trkpt lat="47.42366" lon="6.63527">
        <ele>357.6</ele>
        <time>2017-06-11T08:13:29.999Z</time>
      </trkpt>
      <trkpt lat="47.42366" lon="6.63532">
        <ele>357.8</ele>
        <time>2017-06-11T08:13:30.999Z</time>
      </trkpt>
      <trkpt lat="47.42365" lon="6.63536">
        <ele>358.1</ele>
        <time>2017-06-11T08:13:31.999Z</time>
      </trkpt>
      <trkpt lat="47.42363" lon="6.6354">
        <ele>358.3</ele>
        <time>2017-06-11T08:13:32.999Z</time>
      </trkpt>
      <trkpt lat="47.42362" lon="6.63546">
        <ele>358.5</ele>
        <time>2017-06-11T08:13:33.999Z</time>
      </trkpt>
      <trkpt lat="47.42361" lon="6.63549">
        <ele>358.7</ele>
        <time>2017-06-11T08:13:34.999Z</time>
      </trkpt>
      <trkpt lat="47.42361" lon="6.63553">
        <ele>358.9</ele>
        <time>2017-06-11T08:13:35.999Z</time>
      </trkpt>
      <trkpt lat="47.4236" lon="6.63556">
        <ele>359.2</ele>
        <time>2017-06-11T08:13:36.999Z</time>
      </trkpt>
      <trkpt lat="47.42358" lon="6.63561">
        <ele>359.5</ele>
        <time>2017-06-11T08:13:38.999Z</time>
      </trkpt>
      <trkpt lat="47.42357" lon="6.63564">
        <ele>359.7</ele>
        <time>2017-06-11T08:13:39.999Z</time>
      </trkpt>
      <trkpt lat="47.42355" lon="6.63567">
        <ele>359.8</ele>
        <time>2017-06-11T08:13:40.999Z</time>
      </trkpt>
      <trkpt lat="47.42354" lon="6.6357">
        <ele>359.9</ele>
        <time>2017-06-11T08:13:41.999Z</time>
      </trkpt>
      <trkpt lat="47.42353" lon="6.63573">
        <ele>360.1</ele>
        <time>2017-06-11T08:13:42.999Z</time>
      </trkpt>
      <trkpt lat="47.42352" lon="6.63578">
        <ele>360.1</ele>
        <time>2017-06-11T08:13:43.999Z</time>
      </trkpt>
      <trkpt lat="47.4235" lon="6.63581">
        <ele>360.2</ele>
        <time>2017-06-11T08:13:44.999Z</time>
      </trkpt>
      <trkpt lat="47.42349" lon="6.63584">
        <ele>360.2</ele>
        <time>2017-06-11T08:13:45.999Z</time>
      </trkpt>
      <trkpt lat="47.42347" lon="6.63587">
        <ele>360.4</ele>
        <time>2017-06-11T08:13:46.999Z</time>
      </trkpt>
      <trkpt lat="47.42346" lon="6.63589">
        <ele>360.5</ele>
        <time>2017-06-11T08:13:47.999Z</time>
      </trkpt>
      <trkpt lat="47.42343" lon="6.63593">
        <ele>360.7</ele>
        <time>2017-06-11T08:13:49.999Z</time>
      </trkpt>
      <trkpt lat="47.42342" lon="6.63595">
        <ele>360.8</ele>
        <time>2017-06-11T08:13:50.999Z</time>
      </trkpt>
      <trkpt lat="47.42339" lon="6.63597">
        <ele>361</ele>
        <time>2017-06-11T08:13:51.999Z</time>
      </trkpt>
      <trkpt lat="47.42338" lon="6.63599">
        <ele>361.1</ele>
        <time>2017-06-11T08:13:52.999Z</time>
      </trkpt>
      <trkpt lat="47.42336" lon="6.63603">
        <ele>361.2</ele>
        <time>2017-06-11T08:13:53.999Z</time>
      </trkpt>
      <trkpt lat="47.42334" lon="6.63606">
        <ele>361.2</ele>
        <time>2017-06-11T08:13:54.999Z</time>
      </trkpt>
      <trkpt lat="47.42333" lon="6.6361">
        <ele>361.3</ele>
        <time>2017-06-11T08:13:55.999Z</time>
      </trkpt>
      <trkpt lat="47.42332" lon="6.63613">
        <ele>361.4</ele>
        <time>2017-06-11T08:13:56.999Z</time>
      </trkpt>
      <trkpt lat="47.4233" lon="6.63616">
        <ele>361.4</ele>
        <time>2017-06-11T08:13:57.999Z</time>
      </trkpt>
      <trkpt lat="47.42329" lon="6.63619">
        <ele>361.5</ele>
        <time>2017-06-11T08:13:58.999Z</time>
      </trkpt>
      <trkpt lat="47.42329" lon="6.63625">
        <ele>361.5</ele>
        <time>2017-06-11T08:14:01.999Z</time>
      </trkpt>
      <trkpt lat="47.42329" lon="6.63627">
        <ele>361.6</ele>
        <time>2017-06-11T08:14:02.999Z</time>
      </trkpt>
      <trkpt lat="47.42328" lon="6.6363">
        <ele>361.8</ele>
        <time>2017-06-11T08:14:03.999Z</time>
      </trkpt>
      <trkpt lat="47.42327" lon="6.63634">
        <ele>362</ele>
        <time>2017-06-11T08:14:04.999Z</time>
      </trkpt>
      <trkpt lat="47.42325" lon="6.63637">
        <ele>362.3</ele>
        <time>2017-06-11T08:14:06.999Z</time>
      </trkpt>
      <trkpt lat="47.42324" lon="6.6364">
        <ele>362.5</ele>
        <time>2017-06-11T08:14:07.999Z</time>
      </trkpt>
      <trkpt lat="47.42324" lon="6.6364">
        <ele>363</ele>
        <time>2017-06-11T08:14:14.999Z</time>
      </trkpt>
      <trkpt lat="47.4232" lon="6.6365">
        <ele>363.1</ele>
        <time>2017-06-11T08:14:15.999Z</time>
      </trkpt>
      <trkpt lat="47.42319" lon="6.63653">
        <ele>363.2</ele>
        <time>2017-06-11T08:14:16.999Z</time>
      </trkpt>
      <trkpt lat="47.42318" lon="6.63659">
        <ele>363.3</ele>
        <time>2017-06-11T08:14:17.999Z</time>
      </trkpt>
      <trkpt lat="47.42316" lon="6.63663">
        <ele>363.4</ele>
        <time>2017-06-11T08:14:18.999Z</time>
      </trkpt>
      <trkpt lat="47.42315" lon="6.63667">
        <ele>363.3</ele>
        <time>2017-06-11T08:14:19.999Z</time>
      </trkpt>
      <trkpt lat="47.42313" lon="6.63672">
        <ele>363.1</ele>
        <time>2017-06-11T08:14:21.999Z</time>
      </trkpt>
      <trkpt lat="47.42311" lon="6.63675">
        <ele>363</ele>
        <time>2017-06-11T08:14:22.999Z</time>
      </trkpt>
      <trkpt lat="47.4231" lon="6.63678">
        <ele>363</ele>
        <time>2017-06-11T08:14:23.999Z</time>
      </trkpt>
      <trkpt lat="47.42309" lon="6.63683">
        <ele>362.9</ele>
        <time>2017-06-11T08:14:24.999Z</time>
      </trkpt>
      <trkpt lat="47.42309" lon="6.63686">
        <ele>362.7</ele>
        <time>2017-06-11T08:14:25.999Z</time>
      </trkpt>
      <trkpt lat="47.42309" lon="6.6369">
        <ele>362.6</ele>
        <time>2017-06-11T08:14:26.999Z</time>
      </trkpt>
      <trkpt lat="47.42309" lon="6.63696">
        <ele>362.7</ele>
        <time>2017-06-11T08:14:28.999Z</time>
      </trkpt>
      <trkpt lat="47.42309" lon="6.637">
        <ele>362.9</ele>
        <time>2017-06-11T08:14:29.999Z</time>
      </trkpt>
      <trkpt lat="47.42309" lon="6.63703">
        <ele>363</ele>
        <time>2017-06-11T08:14:31.999Z</time>
      </trkpt>
      <trkpt lat="47.42308" lon="6.63709">
        <ele>363.2</ele>
        <time>2017-06-11T08:14:32.999Z</time>
      </trkpt>
      <trkpt lat="47.42306" lon="6.63713">
        <ele>363.3</ele>
        <time>2017-06-11T08:14:33.999Z</time>
      </trkpt>
      <trkpt lat="47.42305" lon="6.63716">
        <ele>363.4</ele>
        <time>2017-06-11T08:14:34.999Z</time>
      </trkpt>
      <trkpt lat="47.42306" lon="6.63722">
        <ele>363.4</ele>
        <time>2017-06-11T08:14:43.999Z</time>
      </trkpt>
      <trkpt lat="47.4231" lon="6.63737">
        <ele>363.4</ele>
        <time>2017-06-11T08:14:44.999Z</time>
      </trkpt>
      <trkpt lat="47.42311" lon="6.6374">
        <ele>363.4</ele>
        <time>2017-06-11T08:14:45.999Z</time>
      </trkpt>
      <trkpt lat="47.42312" lon="6.63743">
        <ele>363.3</ele>
        <time>2017-06-11T08:14:46.999Z</time>
      </trkpt>
      <trkpt lat="47.42315" lon="6.63749">
        <ele>363.3</ele>
        <time>2017-06-11T08:14:47.999Z</time>
      </trkpt>
      <trkpt lat="47.42316" lon="6.63753">
        <ele>363.3</ele>
        <time>2017-06-11T08:14:48.999Z</time>
      </trkpt>
      <trkpt lat="47.42317" lon="6.63756">
        <ele>363.3</ele>
        <time>2017-06-11T08:14:49.999Z</time>
      </trkpt>
      <trkpt lat="47.42318" lon="6.6376">
        <ele>363.3</ele>
        <time>2017-06-11T08:14:53.999Z</time>
      </trkpt>
      <trkpt lat="47.42322" lon="6.63774">
        <ele>363.2</ele>
        <time>2017-06-11T08:14:54.999Z</time>
      </trkpt>
      <trkpt lat="47.42324" lon="6.63778">
        <ele>362.7</ele>
        <time>2017-06-11T08:15:00.999Z</time>
      </trkpt>
      <trkpt lat="47.42332" lon="6.6379">
        <ele>362.7</ele>
        <time>2017-06-11T08:15:01.999Z</time>
      </trkpt>
      <trkpt lat="47.42332" lon="6.6379">
        <ele>363.3</ele>
        <time>2017-06-11T08:15:10.999Z</time>
      </trkpt>
      <trkpt lat="47.42341" lon="6.63804">
        <ele>363.4</ele>
        <time>2017-06-11T08:15:11.999Z</time>
      </trkpt>
      <trkpt lat="47.42341" lon="6.63804">
        <ele>363.9</ele>
        <time>2017-06-11T08:15:18.999Z</time>
      </trkpt>
      <trkpt lat="47.42355" lon="6.63804">
        <ele>364</ele>
        <time>2017-06-11T08:15:19.999Z</time>
      </trkpt>
      <trkpt lat="47.42355" lon="6.63804">
        <ele>365.3</ele>
        <time>2017-06-11T08:15:25.999Z</time>
      </trkpt>
      <trkpt lat="47.42368" lon="6.63804">
        <ele>365.6</ele>
        <time>2017-06-11T08:15:26.999Z</time>
      </trkpt>
      <trkpt lat="47.42372" lon="6.63804">
        <ele>366.5</ele>
        <time>2017-06-11T08:15:29.999Z</time>
      </trkpt>
      <trkpt lat="47.42373" lon="6.63803">
        <ele>366.8</ele>
        <time>2017-06-11T08:15:30.999Z</time>
      </trkpt>
      <trkpt lat="47.42377" lon="6.63803">
        <ele>367.7</ele>
        <time>2017-06-11T08:15:32.999Z</time>
      </trkpt>
      <trkpt lat="47.42378" lon="6.63803">
        <ele>368.2</ele>
        <time>2017-06-11T08:15:33.999Z</time>
      </trkpt>
      <trkpt lat="47.42381" lon="6.63805">
        <ele>372.2</ele>
        <time>2017-06-11T08:15:49.999Z</time>
      </trkpt>
      <trkpt lat="47.42391" lon="6.63806">
        <ele>372.6</ele>
        <time>2017-06-11T08:15:50.999Z</time>
      </trkpt>
      <trkpt lat="47.42391" lon="6.63806">
        <ele>375.9</ele>
        <time>2017-06-11T08:16:07.999Z</time>
      </trkpt>
      <trkpt lat="47.42407" lon="6.6383">
        <ele>376.2</ele>
        <time>2017-06-11T08:16:08.999Z</time>
      </trkpt>
      <trkpt lat="47.42407" lon="6.6383">
        <ele>378.5</ele>
        <time>2017-06-11T08:16:17.999Z</time>
      </trkpt>
      <trkpt lat="47.42422" lon="6.63847">
        <ele>378.7</ele>
        <time>2017-06-11T08:16:18.999Z</time>
      </trkpt>
      <trkpt lat="47.42424" lon="6.6385">
        <ele>379.1</ele>
        <time>2017-06-11T08:16:19.999Z</time>
      </trkpt>
      <trkpt lat="47.42425" lon="6.63853">
        <ele>379.2</ele>
        <time>2017-06-11T08:16:20.999Z</time>
      </trkpt>
      <trkpt lat="47.42427" lon="6.63855">
        <ele>379.4</ele>
        <time>2017-06-11T08:16:21.999Z</time>
      </trkpt>
      <trkpt lat="47.42429" lon="6.63857">
        <ele>379.7</ele>
        <time>2017-06-11T08:16:22.999Z</time>
      </trkpt>
      <trkpt lat="47.42431" lon="6.63861">
        <ele>380.3</ele>
        <time>2017-06-11T08:16:24.999Z</time>
      </trkpt>
      <trkpt lat="47.42432" lon="6.63863">
        <ele>380.5</ele>
        <time>2017-06-11T08:16:25.999Z</time>
      </trkpt>
      <trkpt lat="47.42435" lon="6.63867">
        <ele>381</ele>
        <time>2017-06-11T08:16:27.999Z</time>
      </trkpt>
      <trkpt lat="47.42436" lon="6.6387">
        <ele>381.2</ele>
        <time>2017-06-11T08:16:28.999Z</time>
      </trkpt>
      <trkpt lat="47.42439" lon="6.63872">
        <ele>381.6</ele>
        <time>2017-06-11T08:16:30.999Z</time>
      </trkpt>
      <trkpt lat="47.42441" lon="6.63874">
        <ele>381.9</ele>
        <time>2017-06-11T08:16:31.999Z</time>
      </trkpt>
      <trkpt lat="47.42442" lon="6.63875">
        <ele>383.1</ele>
        <time>2017-06-11T08:16:40.999Z</time>
      </trkpt>
      <trkpt lat="47.42457" lon="6.63896">
        <ele>383.2</ele>
        <time>2017-06-11T08:16:41.999Z</time>
      </trkpt>
      <trkpt lat="47.42461" lon="6.639">
        <ele>383.9</ele>
        <time>2017-06-11T08:16:47.999Z</time>
      </trkpt>
      <trkpt lat="47.42473" lon="6.6391">
        <ele>384</ele>
        <time>2017-06-11T08:16:48.999Z</time>
      </trkpt>
      <trkpt lat="47.42473" lon="6.6391">
        <ele>384.2</ele>
        <time>2017-06-11T08:16:49.999Z</time>
      </trkpt>
      <trkpt lat="47.4248" lon="6.63915">
        <ele>384.3</ele>
        <time>2017-06-11T08:16:50.999Z</time>
      </trkpt>
      <trkpt lat="47.42482" lon="6.63917">
        <ele>384.3</ele>
        <time>2017-06-11T08:16:51.999Z</time>
      </trkpt>
      <trkpt lat="47.42484" lon="6.63919">
        <ele>384.3</ele>
        <time>2017-06-11T08:16:52.999Z</time>
      </trkpt>
      <trkpt lat="47.42487" lon="6.63922">
        <ele>384.3</ele>
        <time>2017-06-11T08:16:54.999Z</time>
      </trkpt>
      <trkpt lat="47.42488" lon="6.63924">
        <ele>384.4</ele>
        <time>2017-06-11T08:16:55.999Z</time>
      </trkpt>
      <trkpt lat="47.4249" lon="6.63926">
        <ele>384.3</ele>
        <time>2017-06-11T08:17:05.999Z</time>
      </trkpt>
      <trkpt lat="47.42502" lon="6.63946">
        <ele>384.4</ele>
        <time>2017-06-11T08:17:06.999Z</time>
      </trkpt>
      <trkpt lat="47.42502" lon="6.63946">
        <ele>384.5</ele>
        <time>2017-06-11T08:17:07.999Z</time>
      </trkpt>
      <trkpt lat="47.42506" lon="6.63952">
        <ele>384.7</ele>
        <time>2017-06-11T08:17:08.999Z</time>
      </trkpt>
      <trkpt lat="47.42508" lon="6.63953">
        <ele>384.8</ele>
        <time>2017-06-11T08:17:09.999Z</time>
      </trkpt>
      <trkpt lat="47.42512" lon="6.63956">
        <ele>384.9</ele>
        <time>2017-06-11T08:17:10.999Z</time>
      </trkpt>
      <trkpt lat="47.42515" lon="6.63959">
        <ele>385</ele>
        <time>2017-06-11T08:17:11.999Z</time>
      </trkpt>
      <trkpt lat="47.42518" lon="6.63962">
        <ele>385.1</ele>
        <time>2017-06-11T08:17:12.999Z</time>
      </trkpt>
      <trkpt lat="47.4252" lon="6.63964">
        <ele>385.3</ele>
        <time>2017-06-11T08:17:13.999Z</time>
      </trkpt>
      <trkpt lat="47.42523" lon="6.63966">
        <ele>385.4</ele>
        <time>2017-06-11T08:17:14.999Z</time>
      </trkpt>
      <trkpt lat="47.42527" lon="6.6397">
        <ele>385.5</ele>
        <time>2017-06-11T08:17:15.999Z</time>
      </trkpt>
      <trkpt lat="47.42529" lon="6.63972">
        <ele>385.6</ele>
        <time>2017-06-11T08:17:16.999Z</time>
      </trkpt>
      <trkpt lat="47.42533" lon="6.63972">
        <ele>385.7</ele>
        <time>2017-06-11T08:17:17.999Z</time>
      </trkpt>
      <trkpt lat="47.42537" lon="6.6397">
        <ele>386</ele>
        <time>2017-06-11T08:17:18.999Z</time>
      </trkpt>
      <trkpt lat="47.42544" lon="6.63968">
        <ele>388</ele>
        <time>2017-06-11T08:17:19.999Z</time>
      </trkpt>
      <trkpt lat="47.42551" lon="6.63967">
        <ele>390.1</ele>
        <time>2017-06-11T08:17:20.999Z</time>
      </trkpt>
      <trkpt lat="47.42557" lon="6.63964">
        <ele>390.2</ele>
        <time>2017-06-11T08:17:21.999Z</time>
      </trkpt>
      <trkpt lat="47.42561" lon="6.63963">
        <ele>392.2</ele>
        <time>2017-06-11T08:17:22.999Z</time>
      </trkpt>
      <trkpt lat="47.42568" lon="6.63963">
        <ele>393.6</ele>
        <time>2017-06-11T08:17:23.999Z</time>
      </trkpt>
      <trkpt lat="47.42576" lon="6.63961">
        <ele>394.9</ele>
        <time>2017-06-11T08:17:24.999Z</time>
      </trkpt>
      <trkpt lat="47.42584" lon="6.6396">
        <ele>395.3</ele>
        <time>2017-06-11T08:17:25.999Z</time>
      </trkpt>
      <trkpt lat="47.42587" lon="6.63968">
        <ele>395.4</ele>
        <time>2017-06-11T08:17:26.999Z</time>
      </trkpt>
      <trkpt lat="47.42587" lon="6.63974">
        <ele>395.3</ele>
        <time>2017-06-11T08:17:28.999Z</time>
      </trkpt>
      <trkpt lat="47.42587" lon="6.63977">
        <ele>395.3</ele>
        <time>2017-06-11T08:17:29.999Z</time>
      </trkpt>
      <trkpt lat="47.42589" lon="6.6398">
        <ele>395.2</ele>
        <time>2017-06-11T08:17:30.999Z</time>
      </trkpt>
      <trkpt lat="47.42592" lon="6.63985">
        <ele>395.1</ele>
        <time>2017-06-11T08:17:31.999Z</time>
      </trkpt>
      <trkpt lat="47.42595" lon="6.63988">
        <ele>394.8</ele>
        <time>2017-06-11T08:17:33.999Z</time>
      </trkpt>
      <trkpt lat="47.42597" lon="6.63989">
        <ele>394.6</ele>
        <time>2017-06-11T08:17:34.999Z</time>
      </trkpt>
      <trkpt lat="47.42599" lon="6.63993">
        <ele>394.1</ele>
        <time>2017-06-11T08:17:36.999Z</time>
      </trkpt>
      <trkpt lat="47.426" lon="6.63994">
        <ele>393.8</ele>
        <time>2017-06-11T08:17:37.999Z</time>
      </trkpt>
      <trkpt lat="47.42601" lon="6.63995">
        <ele>393.5</ele>
        <time>2017-06-11T08:17:38.999Z</time>
      </trkpt>
      <trkpt lat="47.42604" lon="6.63997">
        <ele>393.2</ele>
        <time>2017-06-11T08:17:40.999Z</time>
      </trkpt>
      <trkpt lat="47.42606" lon="6.63998">
        <ele>393</ele>
        <time>2017-06-11T08:17:41.999Z</time>
      </trkpt>
      <trkpt lat="47.42608" lon="6.64001">
        <ele>393</ele>
        <time>2017-06-11T08:17:42.999Z</time>
      </trkpt>
      <trkpt lat="47.42611" lon="6.64005">
        <ele>392.9</ele>
        <time>2017-06-11T08:17:43.999Z</time>
      </trkpt>
      <trkpt lat="47.42613" lon="6.64008">
        <ele>392.9</ele>
        <time>2017-06-11T08:17:44.999Z</time>
      </trkpt>
      <trkpt lat="47.42617" lon="6.64014">
        <ele>392.9</ele>
        <time>2017-06-11T08:17:45.999Z</time>
      </trkpt>
      <trkpt lat="47.42619" lon="6.64019">
        <ele>392.8</ele>
        <time>2017-06-11T08:17:47.999Z</time>
      </trkpt>
      <trkpt lat="47.42622" lon="6.6402">
        <ele>392.8</ele>
        <time>2017-06-11T08:17:48.999Z</time>
      </trkpt>
      <trkpt lat="47.42625" lon="6.6402">
        <ele>392.9</ele>
        <time>2017-06-11T08:17:49.999Z</time>
      </trkpt>
      <trkpt lat="47.42627" lon="6.6402">
        <ele>392.9</ele>
        <time>2017-06-11T08:17:50.999Z</time>
      </trkpt>
      <trkpt lat="47.42631" lon="6.64024">
        <ele>392.9</ele>
        <time>2017-06-11T08:17:51.999Z</time>
      </trkpt>
      <trkpt lat="47.42634" lon="6.64026">
        <ele>393</ele>
        <time>2017-06-11T08:17:53.999Z</time>
      </trkpt>
      <trkpt lat="47.42637" lon="6.64028">
        <ele>393.1</ele>
        <time>2017-06-11T08:17:54.999Z</time>
      </trkpt>
      <trkpt lat="47.4264" lon="6.6403">
        <ele>393.2</ele>
        <time>2017-06-11T08:17:55.999Z</time>
      </trkpt>
      <trkpt lat="47.42643" lon="6.6403">
        <ele>393.2</ele>
        <time>2017-06-11T08:17:56.999Z</time>
      </trkpt>
      <trkpt lat="47.42645" lon="6.64032">
        <ele>393.3</ele>
        <time>2017-06-11T08:17:57.999Z</time>
      </trkpt>
      <trkpt lat="47.42649" lon="6.64034">
        <ele>395</ele>
        <time>2017-06-11T08:17:58.999Z</time>
      </trkpt>
      <trkpt lat="47.42654" lon="6.64035">
        <ele>396.1</ele>
        <time>2017-06-11T08:17:59.999Z</time>
      </trkpt>
      <trkpt lat="47.42661" lon="6.64036">
        <ele>396.3</ele>
        <time>2017-06-11T08:18:00.999Z</time>
      </trkpt>
      <trkpt lat="47.42665" lon="6.64038">
        <ele>395.2</ele>
        <time>2017-06-11T08:18:01.999Z</time>
      </trkpt>
      <trkpt lat="47.42668" lon="6.6404">
        <ele>395.1</ele>
        <time>2017-06-11T08:18:02.999Z</time>
      </trkpt>
      <trkpt lat="47.42671" lon="6.64041">
        <ele>395</ele>
        <time>2017-06-11T08:18:03.999Z</time>
      </trkpt>
      <trkpt lat="47.42675" lon="6.64044">
        <ele>395</ele>
        <time>2017-06-11T08:18:04.999Z</time>
      </trkpt>
      <trkpt lat="47.42681" lon="6.64045">
        <ele>395.3</ele>
        <time>2017-06-11T08:18:05.999Z</time>
      </trkpt>
      <trkpt lat="47.42687" lon="6.64045">
        <ele>396.3</ele>
        <time>2017-06-11T08:18:06.999Z</time>
      </trkpt>
      <trkpt lat="47.42694" lon="6.64047">
        <ele>396.2</ele>
        <time>2017-06-11T08:18:07.999Z</time>
      </trkpt>
      <trkpt lat="47.42701" lon="6.64048">
        <ele>395.6</ele>
        <time>2017-06-11T08:18:08.999Z</time>
      </trkpt>
      <trkpt lat="47.42706" lon="6.6405">
        <ele>393.8</ele>
        <time>2017-06-11T08:18:09.999Z</time>
      </trkpt>
      <trkpt lat="47.4271" lon="6.64052">
        <ele>392.3</ele>
        <time>2017-06-11T08:18:10.999Z</time>
      </trkpt>
      <trkpt lat="47.42714" lon="6.64054">
        <ele>390.8</ele>
        <time>2017-06-11T08:18:11.999Z</time>
      </trkpt>
      <trkpt lat="47.42717" lon="6.64056">
        <ele>388.7</ele>
        <time>2017-06-11T08:18:12.999Z</time>
      </trkpt>
      <trkpt lat="47.42721" lon="6.64059">
        <ele>387.1</ele>
        <time>2017-06-11T08:18:13.999Z</time>
      </trkpt>
      <trkpt lat="47.42725" lon="6.64063">
        <ele>385.6</ele>
        <time>2017-06-11T08:18:14.999Z</time>
      </trkpt>
      <trkpt lat="47.42729" lon="6.64065">
        <ele>384.5</ele>
        <time>2017-06-11T08:18:15.999Z</time>
      </trkpt>
      <trkpt lat="47.42733" lon="6.64067">
        <ele>384</ele>
        <time>2017-06-11T08:18:16.999Z</time>
      </trkpt>
      <trkpt lat="47.42739" lon="6.64071">
        <ele>383.9</ele>
        <time>2017-06-11T08:18:17.999Z</time>
      </trkpt>
      <trkpt lat="47.42742" lon="6.64074">
        <ele>383.6</ele>
        <time>2017-06-11T08:18:18.999Z</time>
      </trkpt>
      <trkpt lat="47.42747" lon="6.64078">
        <ele>382.6</ele>
        <time>2017-06-11T08:18:19.999Z</time>
      </trkpt>
      <trkpt lat="47.42751" lon="6.64081">
        <ele>382.3</ele>
        <time>2017-06-11T08:18:20.999Z</time>
      </trkpt>
      <trkpt lat="47.42755" lon="6.64084">
        <ele>382.3</ele>
        <time>2017-06-11T08:18:21.999Z</time>
      </trkpt>
      <trkpt lat="47.4276" lon="6.64088">
        <ele>381.8</ele>
        <time>2017-06-11T08:18:22.999Z</time>
      </trkpt>
      <trkpt lat="47.42764" lon="6.64092">
        <ele>380.4</ele>
        <time>2017-06-11T08:18:23.999Z</time>
      </trkpt>
      <trkpt lat="47.42769" lon="6.64097">
        <ele>380.1</ele>
        <time>2017-06-11T08:18:24.999Z</time>
      </trkpt>
      <trkpt lat="47.42772" lon="6.641">
        <ele>380</ele>
        <time>2017-06-11T08:18:25.999Z</time>
      </trkpt>
      <trkpt lat="47.42777" lon="6.64102">
        <ele>379.8</ele>
        <time>2017-06-11T08:18:26.999Z</time>
      </trkpt>
      <trkpt lat="47.42783" lon="6.64105">
        <ele>379.2</ele>
        <time>2017-06-11T08:18:27.999Z</time>
      </trkpt>
      <trkpt lat="47.42789" lon="6.64105">
        <ele>378.5</ele>
        <time>2017-06-11T08:18:28.999Z</time>
      </trkpt>
      <trkpt lat="47.42795" lon="6.64102">
        <ele>377.8</ele>
        <time>2017-06-11T08:18:29.999Z</time>
      </trkpt>
      <trkpt lat="47.428" lon="6.641">
        <ele>376.9</ele>
        <time>2017-06-11T08:18:30.999Z</time>
      </trkpt>
      <trkpt lat="47.42805" lon="6.64098">
        <ele>376.7</ele>
        <time>2017-06-11T08:18:31.999Z</time>
      </trkpt>
      <trkpt lat="47.4281" lon="6.64096">
        <ele>376.5</ele>
        <time>2017-06-11T08:18:32.999Z</time>
      </trkpt>
      <trkpt lat="47.42815" lon="6.64093">
        <ele>376.8</ele>
        <time>2017-06-11T08:18:33.999Z</time>
      </trkpt>
      <trkpt lat="47.42821" lon="6.64088">
        <ele>377.8</ele>
        <time>2017-06-11T08:18:34.999Z</time>
      </trkpt>
      <trkpt lat="47.42827" lon="6.64085">
        <ele>378.2</ele>
        <time>2017-06-11T08:18:35.999Z</time>
      </trkpt>
      <trkpt lat="47.42834" lon="6.64081">
        <ele>377.9</ele>
        <time>2017-06-11T08:18:36.999Z</time>
      </trkpt>
      <trkpt lat="47.42839" lon="6.64079">
        <ele>377.9</ele>
        <time>2017-06-11T08:18:37.999Z</time>
      </trkpt>
      <trkpt lat="47.42844" lon="6.64076">
        <ele>377.2</ele>
        <time>2017-06-11T08:18:38.999Z</time>
      </trkpt>
      <trkpt lat="47.4285" lon="6.64072">
        <ele>377.1</ele>
        <time>2017-06-11T08:18:39.999Z</time>
      </trkpt>
      <trkpt lat="47.42856" lon="6.64067">
        <ele>376.9</ele>
        <time>2017-06-11T08:18:40.999Z</time>
      </trkpt>
      <trkpt lat="47.42864" lon="6.64059">
        <ele>376.9</ele>
        <time>2017-06-11T08:18:41.999Z</time>
      </trkpt>
      <trkpt lat="47.42868" lon="6.6405">
        <ele>376.9</ele>
        <time>2017-06-11T08:18:42.999Z</time>
      </trkpt>
      <trkpt lat="47.42872" lon="6.64046">
        <ele>376.3</ele>
        <time>2017-06-11T08:18:43.999Z</time>
      </trkpt>
      <trkpt lat="47.42877" lon="6.64041">
        <ele>376.2</ele>
        <time>2017-06-11T08:18:44.999Z</time>
      </trkpt>
      <trkpt lat="47.42883" lon="6.64038">
        <ele>376.6</ele>
        <time>2017-06-11T08:18:45.999Z</time>
      </trkpt>
      <trkpt lat="47.42888" lon="6.64035">
        <ele>376</ele>
        <time>2017-06-11T08:18:46.999Z</time>
      </trkpt>
      <trkpt lat="47.42894" lon="6.64034">
        <ele>374.9</ele>
        <time>2017-06-11T08:18:47.999Z</time>
      </trkpt>
      <trkpt lat="47.42899" lon="6.64032">
        <ele>374.7</ele>
        <time>2017-06-11T08:18:48.999Z</time>
      </trkpt>
      <trkpt lat="47.42904" lon="6.64031">
        <ele>374.2</ele>
        <time>2017-06-11T08:18:49.999Z</time>
      </trkpt>
      <trkpt lat="47.42909" lon="6.64031">
        <ele>374.1</ele>
        <time>2017-06-11T08:18:50.999Z</time>
      </trkpt>
      <trkpt lat="47.42909" lon="6.64023">
        <ele>374.1</ele>
        <time>2017-06-11T08:18:51.999Z</time>
      </trkpt>
      <trkpt lat="47.42909" lon="6.6402">
        <ele>374.2</ele>
        <time>2017-06-11T08:18:52.999Z</time>
      </trkpt>
      <trkpt lat="47.42914" lon="6.64016">
        <ele>374.2</ele>
        <time>2017-06-11T08:18:53.999Z</time>
      </trkpt>
      <trkpt lat="47.42919" lon="6.64013">
        <ele>374.3</ele>
        <time>2017-06-11T08:18:54.999Z</time>
      </trkpt>
      <trkpt lat="47.42921" lon="6.64011">
        <ele>374.4</ele>
        <time>2017-06-11T08:18:55.999Z</time>
      </trkpt>
      <trkpt lat="47.42922" lon="6.64009">
        <ele>374.4</ele>
        <time>2017-06-11T08:18:56.999Z</time>
      </trkpt>
      <trkpt lat="47.42926" lon="6.64003">
        <ele>374.5</ele>
        <time>2017-06-11T08:18:57.999Z</time>
      </trkpt>
      <trkpt lat="47.42929" lon="6.63998">
        <ele>374.6</ele>
        <time>2017-06-11T08:18:58.999Z</time>
      </trkpt>
      <trkpt lat="47.42931" lon="6.63996">
        <ele>374.7</ele>
        <time>2017-06-11T08:19:00.999Z</time>
      </trkpt>
      <trkpt lat="47.42934" lon="6.63994">
        <ele>374.7</ele>
        <time>2017-06-11T08:19:01.999Z</time>
      </trkpt>
      <trkpt lat="47.42936" lon="6.63993">
        <ele>374.7</ele>
        <time>2017-06-11T08:19:02.999Z</time>
      </trkpt>
      <trkpt lat="47.42939" lon="6.63991">
        <ele>374.7</ele>
        <time>2017-06-11T08:19:03.999Z</time>
      </trkpt>
      <trkpt lat="47.42942" lon="6.63985">
        <ele>374.6</ele>
        <time>2017-06-11T08:19:04.999Z</time>
      </trkpt>
      <trkpt lat="47.42945" lon="6.63982">
        <ele>374.6</ele>
        <time>2017-06-11T08:19:05.999Z</time>
      </trkpt>
      <trkpt lat="47.42948" lon="6.63979">
        <ele>374.8</ele>
        <time>2017-06-11T08:19:06.999Z</time>
      </trkpt>
      <trkpt lat="47.42951" lon="6.63976">
        <ele>374.9</ele>
        <time>2017-06-11T08:19:07.999Z</time>
      </trkpt>
      <trkpt lat="47.42955" lon="6.63971">
        <ele>375.9</ele>
        <time>2017-06-11T08:19:08.999Z</time>
      </trkpt>
      <trkpt lat="47.42957" lon="6.63967">
        <ele>376.1</ele>
        <time>2017-06-11T08:19:09.999Z</time>
      </trkpt>
      <trkpt lat="47.42961" lon="6.63962">
        <ele>376.6</ele>
        <time>2017-06-11T08:19:10.999Z</time>
      </trkpt>
      <trkpt lat="47.42965" lon="6.63957">
        <ele>377.3</ele>
        <time>2017-06-11T08:19:11.999Z</time>
      </trkpt>
      <trkpt lat="47.4297" lon="6.63952">
        <ele>377.2</ele>
        <time>2017-06-11T08:19:12.999Z</time>
      </trkpt>
      <trkpt lat="47.42972" lon="6.63954">
        <ele>377.2</ele>
        <time>2017-06-11T08:19:13.999Z</time>
      </trkpt>
      <trkpt lat="47.42975" lon="6.63955">
        <ele>377</ele>
        <time>2017-06-11T08:19:14.999Z</time>
      </trkpt>
      <trkpt lat="47.42978" lon="6.63958">
        <ele>375.8</ele>
        <time>2017-06-11T08:19:15.999Z</time>
      </trkpt>
      <trkpt lat="47.42982" lon="6.63963">
        <ele>374.4</ele>
        <time>2017-06-11T08:19:16.999Z</time>
      </trkpt>
      <trkpt lat="47.42985" lon="6.63968">
        <ele>374.3</ele>
        <time>2017-06-11T08:19:17.999Z</time>
      </trkpt>
      <trkpt lat="47.42986" lon="6.63971">
        <ele>374.2</ele>
        <time>2017-06-11T08:19:18.999Z</time>
      </trkpt>
      <trkpt lat="47.42989" lon="6.63974">
        <ele>374.1</ele>
        <time>2017-06-11T08:19:19.999Z</time>
      </trkpt>
      <trkpt lat="47.42992" lon="6.63979">
        <ele>374</ele>
        <time>2017-06-11T08:19:20.999Z</time>
      </trkpt>
      <trkpt lat="47.42994" lon="6.63982">
        <ele>374</ele>
        <time>2017-06-11T08:19:21.999Z</time>
      </trkpt>
      <trkpt lat="47.42996" lon="6.63985">
        <ele>373.9</ele>
        <time>2017-06-11T08:19:22.999Z</time>
      </trkpt>
      <trkpt lat="47.42998" lon="6.63989">
        <ele>374.8</ele>
        <time>2017-06-11T08:19:57.999Z</time>
      </trkpt>
      <trkpt lat="47.42999" lon="6.6399">
        <ele>375</ele>
        <time>2017-06-11T08:19:58.999Z</time>
      </trkpt>
      <trkpt lat="47.43001" lon="6.63995">
        <ele>375.2</ele>
        <time>2017-06-11T08:20:00.999Z</time>
      </trkpt>
      <trkpt lat="47.43003" lon="6.63997">
        <ele>375.3</ele>
        <time>2017-06-11T08:20:01.999Z</time>
      </trkpt>
      <trkpt lat="47.43005" lon="6.64002">
        <ele>375.3</ele>
        <time>2017-06-11T08:20:03.999Z</time>
      </trkpt>
      <trkpt lat="47.43006" lon="6.64004">
        <ele>375.3</ele>
        <time>2017-06-11T08:20:04.999Z</time>
      </trkpt>
      <trkpt lat="47.43008" lon="6.64006">
        <ele>375.3</ele>
        <time>2017-06-11T08:20:05.999Z</time>
      </trkpt>
      <trkpt lat="47.43009" lon="6.64009">
        <ele>375.4</ele>
        <time>2017-06-11T08:20:06.999Z</time>
      </trkpt>
      <trkpt lat="47.43011" lon="6.64012">
        <ele>375.4</ele>
        <time>2017-06-11T08:20:07.999Z</time>
      </trkpt>
      <trkpt lat="47.43012" lon="6.64016">
        <ele>375.5</ele>
        <time>2017-06-11T08:20:08.999Z</time>
      </trkpt>
      <trkpt lat="47.43014" lon="6.64019">
        <ele>375.6</ele>
        <time>2017-06-11T08:20:09.999Z</time>
      </trkpt>
      <trkpt lat="47.43016" lon="6.64022">
        <ele>375.6</ele>
        <time>2017-06-11T08:20:10.999Z</time>
      </trkpt>
      <trkpt lat="47.43019" lon="6.64025">
        <ele>375.7</ele>
        <time>2017-06-11T08:20:11.999Z</time>
      </trkpt>
      <trkpt lat="47.43021" lon="6.64028">
        <ele>375.7</ele>
        <time>2017-06-11T08:20:12.999Z</time>
      </trkpt>
      <trkpt lat="47.43023" lon="6.64031">
        <ele>375.7</ele>
        <time>2017-06-11T08:20:13.999Z</time>
      </trkpt>
      <trkpt lat="47.43026" lon="6.64035">
        <ele>375.8</ele>
        <time>2017-06-11T08:20:14.999Z</time>
      </trkpt>
      <trkpt lat="47.43028" lon="6.64039">
        <ele>375.8</ele>
        <time>2017-06-11T08:20:15.999Z</time>
      </trkpt>
      <trkpt lat="47.4303" lon="6.64042">
        <ele>375.9</ele>
        <time>2017-06-11T08:20:16.999Z</time>
      </trkpt>
      <trkpt lat="47.43033" lon="6.64043">
        <ele>375.9</ele>
        <time>2017-06-11T08:20:17.999Z</time>
      </trkpt>
      <trkpt lat="47.43035" lon="6.64043">
        <ele>376</ele>
        <time>2017-06-11T08:20:18.999Z</time>
      </trkpt>
      <trkpt lat="47.43038" lon="6.64043">
        <ele>376</ele>
        <time>2017-06-11T08:20:19.999Z</time>
      </trkpt>
      <trkpt lat="47.4304" lon="6.64041">
        <ele>376.1</ele>
        <time>2017-06-11T08:20:20.999Z</time>
      </trkpt>
      <trkpt lat="47.43042" lon="6.64038">
        <ele>376.2</ele>
        <time>2017-06-11T08:20:21.999Z</time>
      </trkpt>
      <trkpt lat="47.43044" lon="6.64036">
        <ele>376.4</ele>
        <time>2017-06-11T08:20:22.999Z</time>
      </trkpt>
      <trkpt lat="47.43046" lon="6.64035">
        <ele>376.6</ele>
        <time>2017-06-11T08:20:23.999Z</time>
      </trkpt>
      <trkpt lat="47.43049" lon="6.64032">
        <ele>376.8</ele>
        <time>2017-06-11T08:20:24.999Z</time>
      </trkpt>
      <trkpt lat="47.43051" lon="6.6403">
        <ele>376.9</ele>
        <time>2017-06-11T08:20:25.999Z</time>
      </trkpt>
      <trkpt lat="47.43053" lon="6.64028">
        <ele>376.9</ele>
        <time>2017-06-11T08:20:26.999Z</time>
      </trkpt>
      <trkpt lat="47.43053" lon="6.64024">
        <ele>377</ele>
        <time>2017-06-11T08:20:27.999Z</time>
      </trkpt>
      <trkpt lat="47.43056" lon="6.64022">
        <ele>377</ele>
        <time>2017-06-11T08:20:28.999Z</time>
      </trkpt>
      <trkpt lat="47.43059" lon="6.64018">
        <ele>377</ele>
        <time>2017-06-11T08:20:29.999Z</time>
      </trkpt>
      <trkpt lat="47.43062" lon="6.64016">
        <ele>377.1</ele>
        <time>2017-06-11T08:20:30.999Z</time>
      </trkpt>
      <trkpt lat="47.43066" lon="6.64013">
        <ele>377</ele>
        <time>2017-06-11T08:20:31.999Z</time>
      </trkpt>
      <trkpt lat="47.43069" lon="6.64011">
        <ele>376.9</ele>
        <time>2017-06-11T08:20:32.999Z</time>
      </trkpt>
      <trkpt lat="47.43072" lon="6.64007">
        <ele>376.8</ele>
        <time>2017-06-11T08:20:33.999Z</time>
      </trkpt>
      <trkpt lat="47.43075" lon="6.64003">
        <ele>376.6</ele>
        <time>2017-06-11T08:20:34.999Z</time>
      </trkpt>
      <trkpt lat="47.43077" lon="6.64">
        <ele>376.6</ele>
        <time>2017-06-11T08:20:35.999Z</time>
      </trkpt>
      <trkpt lat="47.4308" lon="6.63997">
        <ele>376.5</ele>
        <time>2017-06-11T08:20:36.999Z</time>
      </trkpt>
      <trkpt lat="47.43082" lon="6.63994">
        <ele>376.4</ele>
        <time>2017-06-11T08:20:37.999Z</time>
      </trkpt>
      <trkpt lat="47.43085" lon="6.63992">
        <ele>376.4</ele>
        <time>2017-06-11T08:20:38.999Z</time>
      </trkpt>
      <trkpt lat="47.43089" lon="6.63989">
        <ele>376.3</ele>
        <time>2017-06-11T08:20:39.999Z</time>
      </trkpt>
      <trkpt lat="47.43092" lon="6.63986">
        <ele>376.3</ele>
        <time>2017-06-11T08:20:40.999Z</time>
      </trkpt>
      <trkpt lat="47.43096" lon="6.63982">
        <ele>376.5</ele>
        <time>2017-06-11T08:20:41.999Z</time>
      </trkpt>
      <trkpt lat="47.43099" lon="6.63978">
        <ele>376.8</ele>
        <time>2017-06-11T08:20:42.999Z</time>
      </trkpt>
      <trkpt lat="47.43101" lon="6.63973">
        <ele>377.2</ele>
        <time>2017-06-11T08:20:43.999Z</time>
      </trkpt>
      <trkpt lat="47.43104" lon="6.63968">
        <ele>377.6</ele>
        <time>2017-06-11T08:20:44.999Z</time>
      </trkpt>
      <trkpt lat="47.43108" lon="6.63963">
        <ele>378.1</ele>
        <time>2017-06-11T08:20:45.999Z</time>
      </trkpt>
      <trkpt lat="47.43112" lon="6.63957">
        <ele>378.7</ele>
        <time>2017-06-11T08:20:46.999Z</time>
      </trkpt>
      <trkpt lat="47.43116" lon="6.63951">
        <ele>379.1</ele>
        <time>2017-06-11T08:20:47.999Z</time>
      </trkpt>
      <trkpt lat="47.4312" lon="6.63945">
        <ele>379.4</ele>
        <time>2017-06-11T08:20:48.999Z</time>
      </trkpt>
      <trkpt lat="47.43124" lon="6.6394">
        <ele>379.5</ele>
        <time>2017-06-11T08:20:49.999Z</time>
      </trkpt>
      <trkpt lat="47.43128" lon="6.63935">
        <ele>379.3</ele>
        <time>2017-06-11T08:20:50.999Z</time>
      </trkpt>
      <trkpt lat="47.43133" lon="6.63929">
        <ele>379</ele>
        <time>2017-06-11T08:20:51.999Z</time>
      </trkpt>
      <trkpt lat="47.43138" lon="6.63922">
        <ele>378.8</ele>
        <time>2017-06-11T08:20:52.999Z</time>
      </trkpt>
      <trkpt lat="47.43143" lon="6.63916">
        <ele>378.5</ele>
        <time>2017-06-11T08:20:53.999Z</time>
      </trkpt>
      <trkpt lat="47.43148" lon="6.63909">
        <ele>378.2</ele>
        <time>2017-06-11T08:20:54.999Z</time>
      </trkpt>
      <trkpt lat="47.43154" lon="6.63902">
        <ele>378</ele>
        <time>2017-06-11T08:20:55.999Z</time>
      </trkpt>
      <trkpt lat="47.4316" lon="6.63895">
        <ele>377.8</ele>
        <time>2017-06-11T08:20:56.999Z</time>
      </trkpt>
      <trkpt lat="47.43165" lon="6.63889">
        <ele>377.3</ele>
        <time>2017-06-11T08:20:57.999Z</time>
      </trkpt>
      <trkpt lat="47.43171" lon="6.63882">
        <ele>376.8</ele>
        <time>2017-06-11T08:20:58.999Z</time>
      </trkpt>
      <trkpt lat="47.43177" lon="6.63876">
        <ele>376.3</ele>
        <time>2017-06-11T08:20:59.999Z</time>
      </trkpt>
      <trkpt lat="47.43183" lon="6.6387">
        <ele>375.7</ele>
        <time>2017-06-11T08:21:00.999Z</time>
      </trkpt>
      <trkpt lat="47.4319" lon="6.63864">
        <ele>375.1</ele>
        <time>2017-06-11T08:21:01.999Z</time>
      </trkpt>
      <trkpt lat="47.43196" lon="6.63858">
        <ele>374.5</ele>
        <time>2017-06-11T08:21:02.999Z</time>
      </trkpt>
      <trkpt lat="47.43202" lon="6.63851">
        <ele>374</ele>
        <time>2017-06-11T08:21:03.999Z</time>
      </trkpt>
      <trkpt lat="47.43208" lon="6.63844">
        <ele>373.6</ele>
        <time>2017-06-11T08:21:04.999Z</time>
      </trkpt>
      <trkpt lat="47.43214" lon="6.63836">
        <ele>373.1</ele>
        <time>2017-06-11T08:21:05.999Z</time>
      </trkpt>
      <trkpt lat="47.4322" lon="6.63829">
        <ele>372.6</ele>
        <time>2017-06-11T08:21:06.999Z</time>
      </trkpt>
      <trkpt lat="47.43226" lon="6.6382">
        <ele>372.1</ele>
        <time>2017-06-11T08:21:07.999Z</time>
      </trkpt>
      <trkpt lat="47.43232" lon="6.63811">
        <ele>371.5</ele>
        <time>2017-06-11T08:21:08.999Z</time>
      </trkpt>
      <trkpt lat="47.43237" lon="6.63802">
        <ele>370.7</ele>
        <time>2017-06-11T08:21:09.999Z</time>
      </trkpt>
      <trkpt lat="47.43243" lon="6.63793">
        <ele>370.1</ele>
        <time>2017-06-11T08:21:10.999Z</time>
      </trkpt>
      <trkpt lat="47.43248" lon="6.63784">
        <ele>369.2</ele>
        <time>2017-06-11T08:21:11.999Z</time>
      </trkpt>
      <trkpt lat="47.43253" lon="6.63774">
        <ele>368.8</ele>
        <time>2017-06-11T08:21:12.999Z</time>
      </trkpt>
      <trkpt lat="47.43258" lon="6.63764">
        <ele>368.2</ele>
        <time>2017-06-11T08:21:13.999Z</time>
      </trkpt>
      <trkpt lat="47.43263" lon="6.63753">
        <ele>368.1</ele>
        <time>2017-06-11T08:21:14.999Z</time>
      </trkpt>
      <trkpt lat="47.43268" lon="6.63742">
        <ele>367.7</ele>
        <time>2017-06-11T08:21:15.999Z</time>
      </trkpt>
      <trkpt lat="47.43272" lon="6.63731">
        <ele>366.9</ele>
        <time>2017-06-11T08:21:16.999Z</time>
      </trkpt>
      <trkpt lat="47.43277" lon="6.6372">
        <ele>366</ele>
        <time>2017-06-11T08:21:17.999Z</time>
      </trkpt>
      <trkpt lat="47.43281" lon="6.63709">
        <ele>365.2</ele>
        <time>2017-06-11T08:21:18.999Z</time>
      </trkpt>
      <trkpt lat="47.43286" lon="6.63699">
        <ele>364.7</ele>
        <time>2017-06-11T08:21:19.999Z</time>
      </trkpt>
      <trkpt lat="47.4329" lon="6.63689">
        <ele>364.3</ele>
        <time>2017-06-11T08:21:20.999Z</time>
      </trkpt>
      <trkpt lat="47.43297" lon="6.63681">
        <ele>364.3</ele>
        <time>2017-06-11T08:21:21.999Z</time>
      </trkpt>
      <trkpt lat="47.43304" lon="6.63672">
        <ele>364.3</ele>
        <time>2017-06-11T08:21:22.999Z</time>
      </trkpt>
      <trkpt lat="47.43311" lon="6.63664">
        <ele>364.3</ele>
        <time>2017-06-11T08:21:23.999Z</time>
      </trkpt>
      <trkpt lat="47.43318" lon="6.63656">
        <ele>364.3</ele>
        <time>2017-06-11T08:21:24.999Z</time>
      </trkpt>
      <trkpt lat="47.43324" lon="6.63647">
        <ele>363.9</ele>
        <time>2017-06-11T08:21:25.999Z</time>
      </trkpt>
      <trkpt lat="47.43329" lon="6.63639">
        <ele>363.5</ele>
        <time>2017-06-11T08:21:26.999Z</time>
      </trkpt>
      <trkpt lat="47.43334" lon="6.6363">
        <ele>363</ele>
        <time>2017-06-11T08:21:27.999Z</time>
      </trkpt>
      <trkpt lat="47.43339" lon="6.63622">
        <ele>362.6</ele>
        <time>2017-06-11T08:21:28.999Z</time>
      </trkpt>
      <trkpt lat="47.43344" lon="6.63613">
        <ele>362.1</ele>
        <time>2017-06-11T08:21:29.999Z</time>
      </trkpt>
      <trkpt lat="47.43349" lon="6.63605">
        <ele>361.6</ele>
        <time>2017-06-11T08:21:30.999Z</time>
      </trkpt>
      <trkpt lat="47.43354" lon="6.63598">
        <ele>361.1</ele>
        <time>2017-06-11T08:21:32.000Z</time>
      </trkpt>
      <trkpt lat="47.43359" lon="6.63591">
        <ele>361</ele>
        <time>2017-06-11T08:21:32.999Z</time>
      </trkpt>
      <trkpt lat="47.43365" lon="6.63587">
        <ele>360.7</ele>
        <time>2017-06-11T08:21:33.999Z</time>
      </trkpt>
      <trkpt lat="47.43371" lon="6.63582">
        <ele>360.5</ele>
        <time>2017-06-11T08:21:35.000Z</time>
      </trkpt>
      <trkpt lat="47.43376" lon="6.63579">
        <ele>359.6</ele>
        <time>2017-06-11T08:21:36.000Z</time>
      </trkpt>
      <trkpt lat="47.43382" lon="6.63576">
        <ele>358.9</ele>
        <time>2017-06-11T08:21:37.000Z</time>
      </trkpt>
      <trkpt lat="47.43388" lon="6.63573">
        <ele>358.4</ele>
        <time>2017-06-11T08:21:38.000Z</time>
      </trkpt>
      <trkpt lat="47.43393" lon="6.6357">
        <ele>358</ele>
        <time>2017-06-11T08:21:39.000Z</time>
      </trkpt>
      <trkpt lat="47.43397" lon="6.63569">
        <ele>357.5</ele>
        <time>2017-06-11T08:21:40.000Z</time>
      </trkpt>
      <trkpt lat="47.43402" lon="6.63567">
        <ele>357.1</ele>
        <time>2017-06-11T08:21:41.000Z</time>
      </trkpt>
      <trkpt lat="47.43407" lon="6.63565">
        <ele>356.9</ele>
        <time>2017-06-11T08:21:42.000Z</time>
      </trkpt>
      <trkpt lat="47.43411" lon="6.63564">
        <ele>356.5</ele>
        <time>2017-06-11T08:21:43.000Z</time>
      </trkpt>
      <trkpt lat="47.43415" lon="6.63564">
        <ele>356.2</ele>
        <time>2017-06-11T08:21:44.000Z</time>
      </trkpt>
      <trkpt lat="47.4342" lon="6.63563">
        <ele>356</ele>
        <time>2017-06-11T08:21:45.000Z</time>
      </trkpt>
      <trkpt lat="47.43423" lon="6.63562">
        <ele>355.5</ele>
        <time>2017-06-11T08:21:46.000Z</time>
      </trkpt>
      <trkpt lat="47.43427" lon="6.63561">
        <ele>355.3</ele>
        <time>2017-06-11T08:21:47.000Z</time>
      </trkpt>
      <trkpt lat="47.4343" lon="6.6356">
        <ele>355.2</ele>
        <time>2017-06-11T08:21:48.000Z</time>
      </trkpt>
      <trkpt lat="47.43433" lon="6.63559">
        <ele>355.2</ele>
        <time>2017-06-11T08:21:49.000Z</time>
      </trkpt>
      <trkpt lat="47.43436" lon="6.63557">
        <ele>355.2</ele>
        <time>2017-06-11T08:21:50.000Z</time>
      </trkpt>
      <trkpt lat="47.43439" lon="6.63556">
        <ele>355.2</ele>
        <time>2017-06-11T08:21:51.000Z</time>
      </trkpt>
      <trkpt lat="47.43441" lon="6.63555">
        <ele>355.2</ele>
        <time>2017-06-11T08:21:52.000Z</time>
      </trkpt>
      <trkpt lat="47.43444" lon="6.63554">
        <ele>355.2</ele>
        <time>2017-06-11T08:21:53.000Z</time>
      </trkpt>
      <trkpt lat="47.43446" lon="6.63554">
        <ele>355.2</ele>
        <time>2017-06-11T08:21:54.000Z</time>
      </trkpt>
      <trkpt lat="47.43449" lon="6.63555">
        <ele>355.2</ele>
        <time>2017-06-11T08:21:55.000Z</time>
      </trkpt>
      <trkpt lat="47.43451" lon="6.63555">
        <ele>355.1</ele>
        <time>2017-06-11T08:21:56.000Z</time>
      </trkpt>
      <trkpt lat="47.43454" lon="6.63556">
        <ele>355</ele>
        <time>2017-06-11T08:21:57.000Z</time>
      </trkpt>
      <trkpt lat="47.43456" lon="6.63558">
        <ele>355</ele>
        <time>2017-06-11T08:21:58.000Z</time>
      </trkpt>
      <trkpt lat="47.43458" lon="6.6356">
        <ele>354.9</ele>
        <time>2017-06-11T08:21:59.000Z</time>
      </trkpt>
      <trkpt lat="47.4346" lon="6.63563">
        <ele>354.9</ele>
        <time>2017-06-11T08:22:00.000Z</time>
      </trkpt>
      <trkpt lat="47.43462" lon="6.63565">
        <ele>354.8</ele>
        <time>2017-06-11T08:22:01.000Z</time>
      </trkpt>
      <trkpt lat="47.43464" lon="6.63568">
        <ele>354.8</ele>
        <time>2017-06-11T08:22:02.000Z</time>
      </trkpt>
      <trkpt lat="47.43466" lon="6.63572">
        <ele>354.8</ele>
        <time>2017-06-11T08:22:03.000Z</time>
      </trkpt>
      <trkpt lat="47.43467" lon="6.63575">
        <ele>354.8</ele>
        <time>2017-06-11T08:22:04.000Z</time>
      </trkpt>
      <trkpt lat="47.43469" lon="6.63579">
        <ele>354.8</ele>
        <time>2017-06-11T08:22:05.000Z</time>
      </trkpt>
      <trkpt lat="47.43471" lon="6.63583">
        <ele>354.8</ele>
        <time>2017-06-11T08:22:06.000Z</time>
      </trkpt>
      <trkpt lat="47.43472" lon="6.63586">
        <ele>354.8</ele>
        <time>2017-06-11T08:22:07.000Z</time>
      </trkpt>
      <trkpt lat="47.43474" lon="6.6359">
        <ele>354.8</ele>
        <time>2017-06-11T08:22:08.000Z</time>
      </trkpt>
      <trkpt lat="47.43476" lon="6.63594">
        <ele>354.8</ele>
        <time>2017-06-11T08:22:09.000Z</time>
      </trkpt>
      <trkpt lat="47.43477" lon="6.63597">
        <ele>354.9</ele>
        <time>2017-06-11T08:22:10.000Z</time>
      </trkpt>
      <trkpt lat="47.4348" lon="6.636">
        <ele>355</ele>
        <time>2017-06-11T08:22:11.000Z</time>
      </trkpt>
      <trkpt lat="47.43482" lon="6.63603">
        <ele>355.1</ele>
        <time>2017-06-11T08:22:12.000Z</time>
      </trkpt>
      <trkpt lat="47.43483" lon="6.63606">
        <ele>355.3</ele>
        <time>2017-06-11T08:22:13.000Z</time>
      </trkpt>
      <trkpt lat="47.43485" lon="6.63609">
        <ele>355.4</ele>
        <time>2017-06-11T08:22:14.000Z</time>
      </trkpt>
      <trkpt lat="47.43487" lon="6.63613">
        <ele>355.7</ele>
        <time>2017-06-11T08:22:16.000Z</time>
      </trkpt>
      <trkpt lat="47.43489" lon="6.63616">
        <ele>355.7</ele>
        <time>2017-06-11T08:22:17.000Z</time>
      </trkpt>
      <trkpt lat="47.4349" lon="6.63618">
        <ele>355.8</ele>
        <time>2017-06-11T08:22:18.000Z</time>
      </trkpt>
      <trkpt lat="47.43492" lon="6.63621">
        <ele>355.8</ele>
        <time>2017-06-11T08:22:19.000Z</time>
      </trkpt>
      <trkpt lat="47.43494" lon="6.63624">
        <ele>355.8</ele>
        <time>2017-06-11T08:22:20.000Z</time>
      </trkpt>
      <trkpt lat="47.43496" lon="6.63628">
        <ele>355.9</ele>
        <time>2017-06-11T08:22:21.000Z</time>
      </trkpt>
      <trkpt lat="47.43498" lon="6.63631">
        <ele>355.9</ele>
        <time>2017-06-11T08:22:22.000Z</time>
      </trkpt>
      <trkpt lat="47.435" lon="6.63634">
        <ele>355.9</ele>
        <time>2017-06-11T08:22:23.000Z</time>
      </trkpt>
      <trkpt lat="47.43502" lon="6.63636">
        <ele>355.9</ele>
        <time>2017-06-11T08:22:24.000Z</time>
      </trkpt>
      <trkpt lat="47.43504" lon="6.63639">
        <ele>355.9</ele>
        <time>2017-06-11T08:22:25.000Z</time>
      </trkpt>
      <trkpt lat="47.43507" lon="6.63641">
        <ele>355.9</ele>
        <time>2017-06-11T08:22:26.000Z</time>
      </trkpt>
      <trkpt lat="47.43509" lon="6.63643">
        <ele>356</ele>
        <time>2017-06-11T08:22:27.000Z</time>
      </trkpt>
      <trkpt lat="47.43511" lon="6.63645">
        <ele>356</ele>
        <time>2017-06-11T08:22:28.000Z</time>
      </trkpt>
      <trkpt lat="47.43513" lon="6.63646">
        <ele>355.9</ele>
        <time>2017-06-11T08:22:29.000Z</time>
      </trkpt>
      <trkpt lat="47.43515" lon="6.63648">
        <ele>355.9</ele>
        <time>2017-06-11T08:22:30.000Z</time>
      </trkpt>
      <trkpt lat="47.43517" lon="6.63648">
        <ele>355.9</ele>
        <time>2017-06-11T08:22:31.000Z</time>
      </trkpt>
      <trkpt lat="47.43521" lon="6.63651">
        <ele>356</ele>
        <time>2017-06-11T08:22:33.000Z</time>
      </trkpt>
      <trkpt lat="47.43523" lon="6.63652">
        <ele>356</ele>
        <time>2017-06-11T08:22:34.000Z</time>
      </trkpt>
      <trkpt lat="47.43526" lon="6.63654">
        <ele>356.2</ele>
        <time>2017-06-11T08:22:36.000Z</time>
      </trkpt>
      <trkpt lat="47.43528" lon="6.63655">
        <ele>356.3</ele>
        <time>2017-06-11T08:22:37.000Z</time>
      </trkpt>
      <trkpt lat="47.43531" lon="6.63658">
        <ele>356.6</ele>
        <time>2017-06-11T08:22:39.000Z</time>
      </trkpt>
      <trkpt lat="47.43533" lon="6.63659">
        <ele>356.8</ele>
        <time>2017-06-11T08:22:40.000Z</time>
      </trkpt>
      <trkpt lat="47.43536" lon="6.63662">
        <ele>357.2</ele>
        <time>2017-06-11T08:22:42.000Z</time>
      </trkpt>
      <trkpt lat="47.43538" lon="6.63664">
        <ele>357.4</ele>
        <time>2017-06-11T08:22:43.000Z</time>
      </trkpt>
      <trkpt lat="47.4354" lon="6.63666">
        <ele>357.6</ele>
        <time>2017-06-11T08:22:44.000Z</time>
      </trkpt>
      <trkpt lat="47.43542" lon="6.63668">
        <ele>357.9</ele>
        <time>2017-06-11T08:22:45.000Z</time>
      </trkpt>
      <trkpt lat="47.43545" lon="6.63671">
        <ele>358.3</ele>
        <time>2017-06-11T08:22:47.000Z</time>
      </trkpt>
      <trkpt lat="47.43547" lon="6.63673">
        <ele>358.5</ele>
        <time>2017-06-11T08:22:48.000Z</time>
      </trkpt>
      <trkpt lat="47.43551" lon="6.63676">
        <ele>358.8</ele>
        <time>2017-06-11T08:22:50.000Z</time>
      </trkpt>
      <trkpt lat="47.43553" lon="6.63678">
        <ele>358.9</ele>
        <time>2017-06-11T08:22:51.000Z</time>
      </trkpt>
      <trkpt lat="47.43557" lon="6.63681">
        <ele>359.2</ele>
        <time>2017-06-11T08:22:53.000Z</time>
      </trkpt>
      <trkpt lat="47.43559" lon="6.63682">
        <ele>359.3</ele>
        <time>2017-06-11T08:22:54.000Z</time>
      </trkpt>
      <trkpt lat="47.43562" lon="6.63686">
        <ele>359.6</ele>
        <time>2017-06-11T08:22:56.000Z</time>
      </trkpt>
      <trkpt lat="47.43565" lon="6.63688">
        <ele>359.8</ele>
        <time>2017-06-11T08:22:57.000Z</time>
      </trkpt>
      <trkpt lat="47.43567" lon="6.6369">
        <ele>359.9</ele>
        <time>2017-06-11T08:22:58.000Z</time>
      </trkpt>
      <trkpt lat="47.43569" lon="6.63692">
        <ele>360.1</ele>
        <time>2017-06-11T08:22:59.000Z</time>
      </trkpt>
      <trkpt lat="47.43571" lon="6.63693">
        <ele>360.3</ele>
        <time>2017-06-11T08:23:00.000Z</time>
      </trkpt>
      <trkpt lat="47.43573" lon="6.63695">
        <ele>360.5</ele>
        <time>2017-06-11T08:23:01.000Z</time>
      </trkpt>
      <trkpt lat="47.43576" lon="6.63697">
        <ele>360.7</ele>
        <time>2017-06-11T08:23:02.000Z</time>
      </trkpt>
      <trkpt lat="47.43578" lon="6.63698">
        <ele>360.9</ele>
        <time>2017-06-11T08:23:03.000Z</time>
      </trkpt>
      <trkpt lat="47.4358" lon="6.637">
        <ele>361.2</ele>
        <time>2017-06-11T08:23:04.000Z</time>
      </trkpt>
      <trkpt lat="47.43582" lon="6.63702">
        <ele>361.5</ele>
        <time>2017-06-11T08:23:05.000Z</time>
      </trkpt>
      <trkpt lat="47.43584" lon="6.63703">
        <ele>361.7</ele>
        <time>2017-06-11T08:23:06.000Z</time>
      </trkpt>
      <trkpt lat="47.43587" lon="6.63705">
        <ele>361.9</ele>
        <time>2017-06-11T08:23:07.000Z</time>
      </trkpt>
      <trkpt lat="47.43589" lon="6.63706">
        <ele>362.1</ele>
        <time>2017-06-11T08:23:08.000Z</time>
      </trkpt>
      <trkpt lat="47.43591" lon="6.63707">
        <ele>362.3</ele>
        <time>2017-06-11T08:23:09.000Z</time>
      </trkpt>
      <trkpt lat="47.43595" lon="6.63711">
        <ele>362.7</ele>
        <time>2017-06-11T08:23:11.000Z</time>
      </trkpt>
      <trkpt lat="47.43597" lon="6.63712">
        <ele>362.9</ele>
        <time>2017-06-11T08:23:12.000Z</time>
      </trkpt>
      <trkpt lat="47.436" lon="6.63713">
        <ele>363.2</ele>
        <time>2017-06-11T08:23:13.000Z</time>
      </trkpt>
      <trkpt lat="47.43603" lon="6.63714">
        <ele>363.5</ele>
        <time>2017-06-11T08:23:14.000Z</time>
      </trkpt>
      <trkpt lat="47.43606" lon="6.63716">
        <ele>363.7</ele>
        <time>2017-06-11T08:23:15.000Z</time>
      </trkpt>
      <trkpt lat="47.43609" lon="6.63717">
        <ele>364</ele>
        <time>2017-06-11T08:23:16.000Z</time>
      </trkpt>
      <trkpt lat="47.43612" lon="6.63718">
        <ele>364.2</ele>
        <time>2017-06-11T08:23:17.000Z</time>
      </trkpt>
      <trkpt lat="47.43615" lon="6.6372">
        <ele>364.5</ele>
        <time>2017-06-11T08:23:18.000Z</time>
      </trkpt>
      <trkpt lat="47.43617" lon="6.63721">
        <ele>364.7</ele>
        <time>2017-06-11T08:23:19.000Z</time>
      </trkpt>
      <trkpt lat="47.4362" lon="6.6372">
        <ele>364.9</ele>
        <time>2017-06-11T08:23:20.000Z</time>
      </trkpt>
      <trkpt lat="47.43624" lon="6.63721">
        <ele>365.1</ele>
        <time>2017-06-11T08:23:21.000Z</time>
      </trkpt>
      <trkpt lat="47.43626" lon="6.63722">
        <ele>365.4</ele>
        <time>2017-06-11T08:23:22.000Z</time>
      </trkpt>
      <trkpt lat="47.43629" lon="6.63723">
        <ele>365.6</ele>
        <time>2017-06-11T08:23:23.000Z</time>
      </trkpt>
      <trkpt lat="47.43631" lon="6.63723">
        <ele>365.8</ele>
        <time>2017-06-11T08:23:24.000Z</time>
      </trkpt>
      <trkpt lat="47.43634" lon="6.63724">
        <ele>366</ele>
        <time>2017-06-11T08:23:25.000Z</time>
      </trkpt>
      <trkpt lat="47.43637" lon="6.63725">
        <ele>366.3</ele>
        <time>2017-06-11T08:23:26.000Z</time>
      </trkpt>
      <trkpt lat="47.4364" lon="6.63726">
        <ele>366.5</ele>
        <time>2017-06-11T08:23:27.000Z</time>
      </trkpt>
      <trkpt lat="47.43642" lon="6.63727">
        <ele>366.6</ele>
        <time>2017-06-11T08:23:28.000Z</time>
      </trkpt>
      <trkpt lat="47.43645" lon="6.63728">
        <ele>366.7</ele>
        <time>2017-06-11T08:23:29.000Z</time>
      </trkpt>
      <trkpt lat="47.43648" lon="6.63728">
        <ele>366.8</ele>
        <time>2017-06-11T08:23:30.000Z</time>
      </trkpt>
      <trkpt lat="47.43652" lon="6.63731">
        <ele>367.2</ele>
        <time>2017-06-11T08:23:32.000Z</time>
      </trkpt>
      <trkpt lat="47.43654" lon="6.63732">
        <ele>367.4</ele>
        <time>2017-06-11T08:23:33.000Z</time>
      </trkpt>
      <trkpt lat="47.43656" lon="6.63734">
        <ele>367.6</ele>
        <time>2017-06-11T08:23:34.000Z</time>
      </trkpt>
      <trkpt lat="47.43658" lon="6.63735">
        <ele>367.8</ele>
        <time>2017-06-11T08:23:35.000Z</time>
      </trkpt>
      <trkpt lat="47.4366" lon="6.63737">
        <ele>368.1</ele>
        <time>2017-06-11T08:23:36.000Z</time>
      </trkpt>
      <trkpt lat="47.43662" lon="6.6374">
        <ele>368.3</ele>
        <time>2017-06-11T08:23:37.000Z</time>
      </trkpt>
      <trkpt lat="47.43663" lon="6.63742">
        <ele>368.5</ele>
        <time>2017-06-11T08:23:38.000Z</time>
      </trkpt>
      <trkpt lat="47.43665" lon="6.63745">
        <ele>368.6</ele>
        <time>2017-06-11T08:23:39.000Z</time>
      </trkpt>
      <trkpt lat="47.43667" lon="6.63747">
        <ele>368.8</ele>
        <time>2017-06-11T08:23:40.000Z</time>
      </trkpt>
      <trkpt lat="47.43669" lon="6.6375">
        <ele>369</ele>
        <time>2017-06-11T08:23:41.000Z</time>
      </trkpt>
      <trkpt lat="47.43671" lon="6.63753">
        <ele>369.2</ele>
        <time>2017-06-11T08:23:42.000Z</time>
      </trkpt>
      <trkpt lat="47.43673" lon="6.63755">
        <ele>369.4</ele>
        <time>2017-06-11T08:23:43.000Z</time>
      </trkpt>
      <trkpt lat="47.43675" lon="6.63758">
        <ele>369.6</ele>
        <time>2017-06-11T08:23:44.000Z</time>
      </trkpt>
      <trkpt lat="47.43677" lon="6.63761">
        <ele>369.8</ele>
        <time>2017-06-11T08:23:45.000Z</time>
      </trkpt>
      <trkpt lat="47.4368" lon="6.63765">
        <ele>370.2</ele>
        <time>2017-06-11T08:23:47.000Z</time>
      </trkpt>
      <trkpt lat="47.43682" lon="6.63767">
        <ele>370.5</ele>
        <time>2017-06-11T08:23:48.000Z</time>
      </trkpt>
      <trkpt lat="47.43685" lon="6.6377">
        <ele>370.7</ele>
        <time>2017-06-11T08:23:49.000Z</time>
      </trkpt>
      <trkpt lat="47.43687" lon="6.63774">
        <ele>370.9</ele>
        <time>2017-06-11T08:23:50.000Z</time>
      </trkpt>
      <trkpt lat="47.43689" lon="6.63776">
        <ele>371.1</ele>
        <time>2017-06-11T08:23:51.000Z</time>
      </trkpt>
      <trkpt lat="47.43691" lon="6.63779">
        <ele>371.2</ele>
        <time>2017-06-11T08:23:52.000Z</time>
      </trkpt>
      <trkpt lat="47.43693" lon="6.63781">
        <ele>371.4</ele>
        <time>2017-06-11T08:23:53.000Z</time>
      </trkpt>
      <trkpt lat="47.43696" lon="6.63784">
        <ele>371.6</ele>
        <time>2017-06-11T08:23:54.000Z</time>
      </trkpt>
      <trkpt lat="47.43699" lon="6.63787">
        <ele>371.8</ele>
        <time>2017-06-11T08:23:55.000Z</time>
      </trkpt>
      <trkpt lat="47.43701" lon="6.6379">
        <ele>372</ele>
        <time>2017-06-11T08:23:56.000Z</time>
      </trkpt>
      <trkpt lat="47.43704" lon="6.63792">
        <ele>372.2</ele>
        <time>2017-06-11T08:23:57.000Z</time>
      </trkpt>
      <trkpt lat="47.43706" lon="6.63795">
        <ele>372.5</ele>
        <time>2017-06-11T08:23:58.000Z</time>
      </trkpt>
      <trkpt lat="47.43708" lon="6.63797">
        <ele>372.7</ele>
        <time>2017-06-11T08:23:59.000Z</time>
      </trkpt>
      <trkpt lat="47.4371" lon="6.638">
        <ele>372.9</ele>
        <time>2017-06-11T08:24:00.000Z</time>
      </trkpt>
      <trkpt lat="47.43712" lon="6.63803">
        <ele>373</ele>
        <time>2017-06-11T08:24:01.000Z</time>
      </trkpt>
      <trkpt lat="47.43714" lon="6.63805">
        <ele>373.2</ele>
        <time>2017-06-11T08:24:02.000Z</time>
      </trkpt>
      <trkpt lat="47.43716" lon="6.63808">
        <ele>373.4</ele>
        <time>2017-06-11T08:24:03.000Z</time>
      </trkpt>
      <trkpt lat="47.43718" lon="6.63811">
        <ele>373.5</ele>
        <time>2017-06-11T08:24:04.000Z</time>
      </trkpt>
      <trkpt lat="47.43721" lon="6.63814">
        <ele>373.6</ele>
        <time>2017-06-11T08:24:05.000Z</time>
      </trkpt>
      <trkpt lat="47.43723" lon="6.63818">
        <ele>373.7</ele>
        <time>2017-06-11T08:24:06.000Z</time>
      </trkpt>
      <trkpt lat="47.43725" lon="6.6382">
        <ele>373.8</ele>
        <time>2017-06-11T08:24:07.000Z</time>
      </trkpt>
      <trkpt lat="47.43728" lon="6.63824">
        <ele>374</ele>
        <time>2017-06-11T08:24:08.000Z</time>
      </trkpt>
      <trkpt lat="47.4373" lon="6.63827">
        <ele>374.1</ele>
        <time>2017-06-11T08:24:09.000Z</time>
      </trkpt>
      <trkpt lat="47.43733" lon="6.6383">
        <ele>374.3</ele>
        <time>2017-06-11T08:24:10.000Z</time>
      </trkpt>
      <trkpt lat="47.43736" lon="6.63834">
        <ele>374.4</ele>
        <time>2017-06-11T08:24:11.000Z</time>
      </trkpt>
      <trkpt lat="47.43738" lon="6.63837">
        <ele>374.4</ele>
        <time>2017-06-11T08:24:12.000Z</time>
      </trkpt>
      <trkpt lat="47.43741" lon="6.63842">
        <ele>374.6</ele>
        <time>2017-06-11T08:24:13.000Z</time>
      </trkpt>
      <trkpt lat="47.43744" lon="6.63846">
        <ele>375.6</ele>
        <time>2017-06-11T08:24:14.000Z</time>
      </trkpt>
      <trkpt lat="47.43748" lon="6.6385">
        <ele>376.4</ele>
        <time>2017-06-11T08:24:15.000Z</time>
      </trkpt>
      <trkpt lat="47.4375" lon="6.63854">
        <ele>377</ele>
        <time>2017-06-11T08:24:16.000Z</time>
      </trkpt>
      <trkpt lat="47.43754" lon="6.63858">
        <ele>377.8</ele>
        <time>2017-06-11T08:24:17.000Z</time>
      </trkpt>
      <trkpt lat="47.43757" lon="6.63862">
        <ele>378.3</ele>
        <time>2017-06-11T08:24:18.000Z</time>
      </trkpt>
      <trkpt lat="47.43761" lon="6.63866">
        <ele>378.7</ele>
        <time>2017-06-11T08:24:19.000Z</time>
      </trkpt>
      <trkpt lat="47.43765" lon="6.6387">
        <ele>379.4</ele>
        <time>2017-06-11T08:24:20.000Z</time>
      </trkpt>
      <trkpt lat="47.43768" lon="6.63874">
        <ele>380</ele>
        <time>2017-06-11T08:24:21.000Z</time>
      </trkpt>
      <trkpt lat="47.43771" lon="6.63878">
        <ele>380.8</ele>
        <time>2017-06-11T08:24:22.000Z</time>
      </trkpt>
      <trkpt lat="47.43775" lon="6.63882">
        <ele>381.2</ele>
        <time>2017-06-11T08:24:23.000Z</time>
      </trkpt>
      <trkpt lat="47.43778" lon="6.63886">
        <ele>381.7</ele>
        <time>2017-06-11T08:24:24.000Z</time>
      </trkpt>
      <trkpt lat="47.43782" lon="6.6389">
        <ele>382.5</ele>
        <time>2017-06-11T08:24:25.000Z</time>
      </trkpt>
      <trkpt lat="47.43786" lon="6.63894">
        <ele>383.2</ele>
        <time>2017-06-11T08:24:26.000Z</time>
      </trkpt>
      <trkpt lat="47.4379" lon="6.63899">
        <ele>384.2</ele>
        <time>2017-06-11T08:24:27.000Z</time>
      </trkpt>
      <trkpt lat="47.43794" lon="6.63904">
        <ele>384.5</ele>
        <time>2017-06-11T08:24:28.000Z</time>
      </trkpt>
      <trkpt lat="47.43799" lon="6.63909">
        <ele>384.2</ele>
        <time>2017-06-11T08:24:29.000Z</time>
      </trkpt>
      <trkpt lat="47.43802" lon="6.63913">
        <ele>383.8</ele>
        <time>2017-06-11T08:24:30.000Z</time>
      </trkpt>
      <trkpt lat="47.43806" lon="6.63919">
        <ele>383.1</ele>
        <time>2017-06-11T08:24:31.000Z</time>
      </trkpt>
      <trkpt lat="47.4381" lon="6.63924">
        <ele>382.4</ele>
        <time>2017-06-11T08:24:32.000Z</time>
      </trkpt>
      <trkpt lat="47.43813" lon="6.63929">
        <ele>382.2</ele>
        <time>2017-06-11T08:24:33.000Z</time>
      </trkpt>
      <trkpt lat="47.43817" lon="6.63934">
        <ele>382.1</ele>
        <time>2017-06-11T08:24:34.000Z</time>
      </trkpt>
      <trkpt lat="47.43821" lon="6.63939">
        <ele>381.6</ele>
        <time>2017-06-11T08:24:35.000Z</time>
      </trkpt>
      <trkpt lat="47.43824" lon="6.63943">
        <ele>381.1</ele>
        <time>2017-06-11T08:24:36.000Z</time>
      </trkpt>
      <trkpt lat="47.43827" lon="6.63948">
        <ele>381</ele>
        <time>2017-06-11T08:24:37.000Z</time>
      </trkpt>
      <trkpt lat="47.43831" lon="6.63952">
        <ele>381.1</ele>
        <time>2017-06-11T08:24:38.000Z</time>
      </trkpt>
      <trkpt lat="47.43834" lon="6.63956">
        <ele>380.3</ele>
        <time>2017-06-11T08:24:39.000Z</time>
      </trkpt>
      <trkpt lat="47.43837" lon="6.6396">
        <ele>380.1</ele>
        <time>2017-06-11T08:24:40.000Z</time>
      </trkpt>
      <trkpt lat="47.4384" lon="6.63964">
        <ele>379.9</ele>
        <time>2017-06-11T08:24:41.000Z</time>
      </trkpt>
      <trkpt lat="47.43844" lon="6.63969">
        <ele>379.9</ele>
        <time>2017-06-11T08:24:42.000Z</time>
      </trkpt>
      <trkpt lat="47.43848" lon="6.63973">
        <ele>380</ele>
        <time>2017-06-11T08:24:43.000Z</time>
      </trkpt>
      <trkpt lat="47.43851" lon="6.63978">
        <ele>379.7</ele>
        <time>2017-06-11T08:24:44.000Z</time>
      </trkpt>
      <trkpt lat="47.43854" lon="6.63982">
        <ele>378.7</ele>
        <time>2017-06-11T08:24:45.000Z</time>
      </trkpt>
      <trkpt lat="47.43857" lon="6.63985">
        <ele>377.9</ele>
        <time>2017-06-11T08:24:46.000Z</time>
      </trkpt>
      <trkpt lat="47.4386" lon="6.63989">
        <ele>377.8</ele>
        <time>2017-06-11T08:24:47.000Z</time>
      </trkpt>
      <trkpt lat="47.43863" lon="6.63993">
        <ele>377.7</ele>
        <time>2017-06-11T08:24:48.000Z</time>
      </trkpt>
      <trkpt lat="47.43866" lon="6.63997">
        <ele>377.9</ele>
        <time>2017-06-11T08:24:49.000Z</time>
      </trkpt>
      <trkpt lat="47.43869" lon="6.64001">
        <ele>377.4</ele>
        <time>2017-06-11T08:24:50.000Z</time>
      </trkpt>
      <trkpt lat="47.43872" lon="6.64004">
        <ele>377.5</ele>
        <time>2017-06-11T08:24:51.000Z</time>
      </trkpt>
      <trkpt lat="47.43876" lon="6.64009">
        <ele>377.5</ele>
        <time>2017-06-11T08:24:52.000Z</time>
      </trkpt>
      <trkpt lat="47.4388" lon="6.64014">
        <ele>378.1</ele>
        <time>2017-06-11T08:24:53.000Z</time>
      </trkpt>
      <trkpt lat="47.43883" lon="6.64018">
        <ele>378.1</ele>
        <time>2017-06-11T08:24:54.000Z</time>
      </trkpt>
      <trkpt lat="47.43888" lon="6.64023">
        <ele>377.9</ele>
        <time>2017-06-11T08:24:55.000Z</time>
      </trkpt>
      <trkpt lat="47.4389" lon="6.64026">
        <ele>378.2</ele>
        <time>2017-06-11T08:24:56.000Z</time>
      </trkpt>
      <trkpt lat="47.43893" lon="6.6403">
        <ele>378.6</ele>
        <time>2017-06-11T08:24:57.000Z</time>
      </trkpt>
      <trkpt lat="47.43896" lon="6.64034">
        <ele>379.1</ele>
        <time>2017-06-11T08:24:58.000Z</time>
      </trkpt>
      <trkpt lat="47.439" lon="6.64038">
        <ele>379.8</ele>
        <time>2017-06-11T08:24:59.000Z</time>
      </trkpt>
      <trkpt lat="47.43903" lon="6.64043">
        <ele>380.4</ele>
        <time>2017-06-11T08:25:00.000Z</time>
      </trkpt>
      <trkpt lat="47.43906" lon="6.64047">
        <ele>380.9</ele>
        <time>2017-06-11T08:25:01.000Z</time>
      </trkpt>
      <trkpt lat="47.43909" lon="6.64051">
        <ele>381.4</ele>
        <time>2017-06-11T08:25:02.000Z</time>
      </trkpt>
      <trkpt lat="47.43913" lon="6.64055">
        <ele>381.9</ele>
        <time>2017-06-11T08:25:03.000Z</time>
      </trkpt>
      <trkpt lat="47.43916" lon="6.6406">
        <ele>382.4</ele>
        <time>2017-06-11T08:25:04.000Z</time>
      </trkpt>
      <trkpt lat="47.43919" lon="6.64064">
        <ele>382.8</ele>
        <time>2017-06-11T08:25:05.000Z</time>
      </trkpt>
      <trkpt lat="47.43923" lon="6.64068">
        <ele>383.2</ele>
        <time>2017-06-11T08:25:06.000Z</time>
      </trkpt>
      <trkpt lat="47.43927" lon="6.64071">
        <ele>383.5</ele>
        <time>2017-06-11T08:25:07.000Z</time>
      </trkpt>
      <trkpt lat="47.4393" lon="6.64073">
        <ele>383.9</ele>
        <time>2017-06-11T08:25:08.000Z</time>
      </trkpt>
      <trkpt lat="47.43935" lon="6.64076">
        <ele>383.7</ele>
        <time>2017-06-11T08:25:09.000Z</time>
      </trkpt>
      <trkpt lat="47.43939" lon="6.6408">
        <ele>383.3</ele>
        <time>2017-06-11T08:25:10.000Z</time>
      </trkpt>
      <trkpt lat="47.43944" lon="6.64083">
        <ele>383.1</ele>
        <time>2017-06-11T08:25:11.000Z</time>
      </trkpt>
      <trkpt lat="47.43948" lon="6.64089">
        <ele>383.1</ele>
        <time>2017-06-11T08:25:12.000Z</time>
      </trkpt>
      <trkpt lat="47.43952" lon="6.64095">
        <ele>383.2</ele>
        <time>2017-06-11T08:25:13.000Z</time>
      </trkpt>
      <trkpt lat="47.43956" lon="6.641">
        <ele>383.3</ele>
        <time>2017-06-11T08:25:14.000Z</time>
      </trkpt>
      <trkpt lat="47.4396" lon="6.64107">
        <ele>383.5</ele>
        <time>2017-06-11T08:25:15.000Z</time>
      </trkpt>
      <trkpt lat="47.43964" lon="6.64113">
        <ele>383.7</ele>
        <time>2017-06-11T08:25:16.000Z</time>
      </trkpt>
      <trkpt lat="47.43967" lon="6.64119">
        <ele>383.6</ele>
        <time>2017-06-11T08:25:17.000Z</time>
      </trkpt>
      <trkpt lat="47.43971" lon="6.64125">
        <ele>383.4</ele>
        <time>2017-06-11T08:25:18.000Z</time>
      </trkpt>
      <trkpt lat="47.43974" lon="6.64131">
        <ele>383.2</ele>
        <time>2017-06-11T08:25:19.000Z</time>
      </trkpt>
      <trkpt lat="47.43977" lon="6.64138">
        <ele>383.2</ele>
        <time>2017-06-11T08:25:20.000Z</time>
      </trkpt>
      <trkpt lat="47.43979" lon="6.64145">
        <ele>383.3</ele>
        <time>2017-06-11T08:25:21.000Z</time>
      </trkpt>
      <trkpt lat="47.43982" lon="6.64152">
        <ele>383.1</ele>
        <time>2017-06-11T08:25:22.000Z</time>
      </trkpt>
      <trkpt lat="47.43984" lon="6.64159">
        <ele>382.8</ele>
        <time>2017-06-11T08:25:23.000Z</time>
      </trkpt>
      <trkpt lat="47.43987" lon="6.64166">
        <ele>382.5</ele>
        <time>2017-06-11T08:25:24.000Z</time>
      </trkpt>
      <trkpt lat="47.43989" lon="6.64172">
        <ele>382.2</ele>
        <time>2017-06-11T08:25:25.000Z</time>
      </trkpt>
      <trkpt lat="47.43992" lon="6.6418">
        <ele>381.8</ele>
        <time>2017-06-11T08:25:26.000Z</time>
      </trkpt>
      <trkpt lat="47.43995" lon="6.64188">
        <ele>381.2</ele>
        <time>2017-06-11T08:25:27.000Z</time>
      </trkpt>
      <trkpt lat="47.43997" lon="6.64194">
        <ele>380.5</ele>
        <time>2017-06-11T08:25:28.000Z</time>
      </trkpt>
      <trkpt lat="47.44" lon="6.64201">
        <ele>380</ele>
        <time>2017-06-11T08:25:29.000Z</time>
      </trkpt>
      <trkpt lat="47.44002" lon="6.64209">
        <ele>379.8</ele>
        <time>2017-06-11T08:25:30.000Z</time>
      </trkpt>
      <trkpt lat="47.44004" lon="6.64217">
        <ele>379.5</ele>
        <time>2017-06-11T08:25:31.000Z</time>
      </trkpt>
      <trkpt lat="47.44006" lon="6.64224">
        <ele>379.1</ele>
        <time>2017-06-11T08:25:32.000Z</time>
      </trkpt>
      <trkpt lat="47.44007" lon="6.6423">
        <ele>379.1</ele>
        <time>2017-06-11T08:25:33.000Z</time>
      </trkpt>
      <trkpt lat="47.44009" lon="6.64237">
        <ele>379.1</ele>
        <time>2017-06-11T08:25:34.000Z</time>
      </trkpt>
      <trkpt lat="47.4401" lon="6.64242">
        <ele>379.4</ele>
        <time>2017-06-11T08:25:35.000Z</time>
      </trkpt>
      <trkpt lat="47.44011" lon="6.64247">
        <ele>379.9</ele>
        <time>2017-06-11T08:25:36.000Z</time>
      </trkpt>
      <trkpt lat="47.44013" lon="6.64255">
        <ele>380.6</ele>
        <time>2017-06-11T08:25:37.000Z</time>
      </trkpt>
      <trkpt lat="47.44014" lon="6.6426">
        <ele>380.7</ele>
        <time>2017-06-11T08:25:38.000Z</time>
      </trkpt>
      <trkpt lat="47.44015" lon="6.64264">
        <ele>380.8</ele>
        <time>2017-06-11T08:25:39.000Z</time>
      </trkpt>
      <trkpt lat="47.44016" lon="6.6427">
        <ele>380.9</ele>
        <time>2017-06-11T08:25:40.000Z</time>
      </trkpt>
      <trkpt lat="47.44017" lon="6.64275">
        <ele>380.9</ele>
        <time>2017-06-11T08:25:41.000Z</time>
      </trkpt>
      <trkpt lat="47.44017" lon="6.6428">
        <ele>381</ele>
        <time>2017-06-11T08:25:42.000Z</time>
      </trkpt>
      <trkpt lat="47.44017" lon="6.64286">
        <ele>380.9</ele>
        <time>2017-06-11T08:25:43.000Z</time>
      </trkpt>
      <trkpt lat="47.44018" lon="6.64292">
        <ele>381.2</ele>
        <time>2017-06-11T08:25:44.000Z</time>
      </trkpt>
      <trkpt lat="47.44019" lon="6.643">
        <ele>381.5</ele>
        <time>2017-06-11T08:25:45.000Z</time>
      </trkpt>
      <trkpt lat="47.4402" lon="6.64306">
        <ele>381.7</ele>
        <time>2017-06-11T08:25:46.000Z</time>
      </trkpt>
      <trkpt lat="47.4402" lon="6.64312">
        <ele>381.7</ele>
        <time>2017-06-11T08:25:47.000Z</time>
      </trkpt>
      <trkpt lat="47.44021" lon="6.6432">
        <ele>381.7</ele>
        <time>2017-06-11T08:25:48.000Z</time>
      </trkpt>
      <trkpt lat="47.44022" lon="6.64326">
        <ele>382.1</ele>
        <time>2017-06-11T08:25:49.000Z</time>
      </trkpt>
      <trkpt lat="47.44022" lon="6.64334">
        <ele>382.3</ele>
        <time>2017-06-11T08:25:50.000Z</time>
      </trkpt>
      <trkpt lat="47.44023" lon="6.64341">
        <ele>382.6</ele>
        <time>2017-06-11T08:25:51.000Z</time>
      </trkpt>
      <trkpt lat="47.44023" lon="6.64348">
        <ele>383</ele>
        <time>2017-06-11T08:25:52.000Z</time>
      </trkpt>
      <trkpt lat="47.44023" lon="6.64355">
        <ele>383.9</ele>
        <time>2017-06-11T08:25:53.000Z</time>
      </trkpt>
      <trkpt lat="47.44023" lon="6.64363">
        <ele>384.8</ele>
        <time>2017-06-11T08:25:54.000Z</time>
      </trkpt>
      <trkpt lat="47.44023" lon="6.64368">
        <ele>385.7</ele>
        <time>2017-06-11T08:25:55.000Z</time>
      </trkpt>
      <trkpt lat="47.44024" lon="6.64374">
        <ele>386.5</ele>
        <time>2017-06-11T08:25:56.000Z</time>
      </trkpt>
      <trkpt lat="47.44024" lon="6.6438">
        <ele>387</ele>
        <time>2017-06-11T08:25:57.000Z</time>
      </trkpt>
      <trkpt lat="47.44024" lon="6.64388">
        <ele>387.1</ele>
        <time>2017-06-11T08:25:58.000Z</time>
      </trkpt>
      <trkpt lat="47.44025" lon="6.64396">
        <ele>387.2</ele>
        <time>2017-06-11T08:25:59.000Z</time>
      </trkpt>
      <trkpt lat="47.44025" lon="6.64404">
        <ele>387.2</ele>
        <time>2017-06-11T08:26:00.000Z</time>
      </trkpt>
      <trkpt lat="47.44025" lon="6.64411">
        <ele>387.2</ele>
        <time>2017-06-11T08:26:01.000Z</time>
      </trkpt>
      <trkpt lat="47.44026" lon="6.64417">
        <ele>387.5</ele>
        <time>2017-06-11T08:26:02.000Z</time>
      </trkpt>
      <trkpt lat="47.44026" lon="6.64422">
        <ele>387.9</ele>
        <time>2017-06-11T08:26:03.000Z</time>
      </trkpt>
      <trkpt lat="47.44027" lon="6.64428">
        <ele>387.6</ele>
        <time>2017-06-11T08:26:04.000Z</time>
      </trkpt>
      <trkpt lat="47.44027" lon="6.64434">
        <ele>387.5</ele>
        <time>2017-06-11T08:26:05.000Z</time>
      </trkpt>
      <trkpt lat="47.44028" lon="6.64441">
        <ele>387.1</ele>
        <time>2017-06-11T08:26:06.000Z</time>
      </trkpt>
      <trkpt lat="47.44028" lon="6.64446">
        <ele>386.9</ele>
        <time>2017-06-11T08:26:07.000Z</time>
      </trkpt>
      <trkpt lat="47.44028" lon="6.64451">
        <ele>386.7</ele>
        <time>2017-06-11T08:26:08.000Z</time>
      </trkpt>
      <trkpt lat="47.44029" lon="6.64458">
        <ele>386.6</ele>
        <time>2017-06-11T08:26:09.000Z</time>
      </trkpt>
      <trkpt lat="47.4403" lon="6.64464">
        <ele>386.6</ele>
        <time>2017-06-11T08:26:10.000Z</time>
      </trkpt>
      <trkpt lat="47.4403" lon="6.6447">
        <ele>386</ele>
        <time>2017-06-11T08:26:11.000Z</time>
      </trkpt>
      <trkpt lat="47.4403" lon="6.64477">
        <ele>385.8</ele>
        <time>2017-06-11T08:26:12.000Z</time>
      </trkpt>
      <trkpt lat="47.44031" lon="6.64483">
        <ele>385.8</ele>
        <time>2017-06-11T08:26:13.000Z</time>
      </trkpt>
      <trkpt lat="47.44032" lon="6.6449">
        <ele>386</ele>
        <time>2017-06-11T08:26:14.000Z</time>
      </trkpt>
      <trkpt lat="47.44033" lon="6.64498">
        <ele>385.2</ele>
        <time>2017-06-11T08:26:15.000Z</time>
      </trkpt>
      <trkpt lat="47.44034" lon="6.64507">
        <ele>385.3</ele>
        <time>2017-06-11T08:26:16.000Z</time>
      </trkpt>
      <trkpt lat="47.44035" lon="6.64514">
        <ele>384.8</ele>
        <time>2017-06-11T08:26:17.000Z</time>
      </trkpt>
      <trkpt lat="47.44035" lon="6.64521">
        <ele>383.8</ele>
        <time>2017-06-11T08:26:18.000Z</time>
      </trkpt>
      <trkpt lat="47.44036" lon="6.64528">
        <ele>382.9</ele>
        <time>2017-06-11T08:26:19.000Z</time>
      </trkpt>
      <trkpt lat="47.44037" lon="6.64534">
        <ele>382.6</ele>
        <time>2017-06-11T08:26:20.000Z</time>
      </trkpt>
      <trkpt lat="47.44037" lon="6.64539">
        <ele>382.5</ele>
        <time>2017-06-11T08:26:21.000Z</time>
      </trkpt>
      <trkpt lat="47.44038" lon="6.64545">
        <ele>382.4</ele>
        <time>2017-06-11T08:26:22.000Z</time>
      </trkpt>
      <trkpt lat="47.44038" lon="6.64551">
        <ele>382.3</ele>
        <time>2017-06-11T08:26:23.000Z</time>
      </trkpt>
      <trkpt lat="47.44038" lon="6.64556">
        <ele>382.2</ele>
        <time>2017-06-11T08:26:24.000Z</time>
      </trkpt>
      <trkpt lat="47.4404" lon="6.64562">
        <ele>381.4</ele>
        <time>2017-06-11T08:26:25.000Z</time>
      </trkpt>
      <trkpt lat="47.44042" lon="6.64567">
        <ele>381.3</ele>
        <time>2017-06-11T08:26:26.000Z</time>
      </trkpt>
      <trkpt lat="47.44043" lon="6.64572">
        <ele>381.3</ele>
        <time>2017-06-11T08:26:27.000Z</time>
      </trkpt>
      <trkpt lat="47.44044" lon="6.64577">
        <ele>381.3</ele>
        <time>2017-06-11T08:26:28.000Z</time>
      </trkpt>
      <trkpt lat="47.44044" lon="6.64583">
        <ele>381.3</ele>
        <time>2017-06-11T08:26:29.000Z</time>
      </trkpt>
      <trkpt lat="47.44044" lon="6.64588">
        <ele>381.2</ele>
        <time>2017-06-11T08:26:30.000Z</time>
      </trkpt>
      <trkpt lat="47.44044" lon="6.64595">
        <ele>381</ele>
        <time>2017-06-11T08:26:31.000Z</time>
      </trkpt>
      <trkpt lat="47.44044" lon="6.64601">
        <ele>380.5</ele>
        <time>2017-06-11T08:26:32.000Z</time>
      </trkpt>
      <trkpt lat="47.44043" lon="6.64607">
        <ele>380.2</ele>
        <time>2017-06-11T08:26:33.000Z</time>
      </trkpt>
      <trkpt lat="47.44041" lon="6.64614">
        <ele>379.2</ele>
        <time>2017-06-11T08:26:34.000Z</time>
      </trkpt>
      <trkpt lat="47.44039" lon="6.6462">
        <ele>378.9</ele>
        <time>2017-06-11T08:26:35.000Z</time>
      </trkpt>
      <trkpt lat="47.44038" lon="6.64626">
        <ele>378.7</ele>
        <time>2017-06-11T08:26:36.000Z</time>
      </trkpt>
      <trkpt lat="47.44036" lon="6.64631">
        <ele>378.6</ele>
        <time>2017-06-11T08:26:37.000Z</time>
      </trkpt>
      <trkpt lat="47.44033" lon="6.64638">
        <ele>378.4</ele>
        <time>2017-06-11T08:26:38.000Z</time>
      </trkpt>
      <trkpt lat="47.44031" lon="6.64645">
        <ele>378.8</ele>
        <time>2017-06-11T08:26:39.000Z</time>
      </trkpt>
      <trkpt lat="47.44028" lon="6.64651">
        <ele>378.9</ele>
        <time>2017-06-11T08:26:40.000Z</time>
      </trkpt>
      <trkpt lat="47.44025" lon="6.64656">
        <ele>379.3</ele>
        <time>2017-06-11T08:26:41.000Z</time>
      </trkpt>
      <trkpt lat="47.44022" lon="6.6466">
        <ele>379.6</ele>
        <time>2017-06-11T08:26:42.000Z</time>
      </trkpt>
      <trkpt lat="47.44018" lon="6.64665">
        <ele>380.1</ele>
        <time>2017-06-11T08:26:43.000Z</time>
      </trkpt>
      <trkpt lat="47.44014" lon="6.64671">
        <ele>379.8</ele>
        <time>2017-06-11T08:26:44.000Z</time>
      </trkpt>
      <trkpt lat="47.44011" lon="6.64676">
        <ele>379.5</ele>
        <time>2017-06-11T08:26:45.000Z</time>
      </trkpt>
      <trkpt lat="47.44008" lon="6.64682">
        <ele>380.2</ele>
        <time>2017-06-11T08:26:46.000Z</time>
      </trkpt>
      <trkpt lat="47.44005" lon="6.64686">
        <ele>380.3</ele>
        <time>2017-06-11T08:26:47.000Z</time>
      </trkpt>
      <trkpt lat="47.44002" lon="6.6469">
        <ele>380.3</ele>
        <time>2017-06-11T08:26:48.000Z</time>
      </trkpt>
      <trkpt lat="47.43999" lon="6.64695">
        <ele>380.2</ele>
        <time>2017-06-11T08:26:49.000Z</time>
      </trkpt>
      <trkpt lat="47.43997" lon="6.64698">
        <ele>380.2</ele>
        <time>2017-06-11T08:26:50.000Z</time>
      </trkpt>
      <trkpt lat="47.43994" lon="6.64701">
        <ele>380.1</ele>
        <time>2017-06-11T08:26:51.000Z</time>
      </trkpt>
      <trkpt lat="47.43992" lon="6.64705">
        <ele>380.1</ele>
        <time>2017-06-11T08:26:52.000Z</time>
      </trkpt>
      <trkpt lat="47.43989" lon="6.64708">
        <ele>380.1</ele>
        <time>2017-06-11T08:26:53.000Z</time>
      </trkpt>
      <trkpt lat="47.43986" lon="6.64713">
        <ele>380.9</ele>
        <time>2017-06-11T08:26:54.000Z</time>
      </trkpt>
      <trkpt lat="47.43984" lon="6.64715">
        <ele>380.9</ele>
        <time>2017-06-11T08:26:55.000Z</time>
      </trkpt>
      <trkpt lat="47.4398" lon="6.64718">
        <ele>380.8</ele>
        <time>2017-06-11T08:26:56.000Z</time>
      </trkpt>
      <trkpt lat="47.43978" lon="6.6472">
        <ele>380.8</ele>
        <time>2017-06-11T08:26:57.000Z</time>
      </trkpt>
      <trkpt lat="47.43976" lon="6.64723">
        <ele>380.8</ele>
        <time>2017-06-11T08:26:58.000Z</time>
      </trkpt>
      <trkpt lat="47.43974" lon="6.64726">
        <ele>380.8</ele>
        <time>2017-06-11T08:26:59.000Z</time>
      </trkpt>
      <trkpt lat="47.43972" lon="6.64728">
        <ele>380.7</ele>
        <time>2017-06-11T08:27:00.000Z</time>
      </trkpt>
      <trkpt lat="47.43969" lon="6.6473">
        <ele>380.7</ele>
        <time>2017-06-11T08:27:01.000Z</time>
      </trkpt>
      <trkpt lat="47.43966" lon="6.64733">
        <ele>380.7</ele>
        <time>2017-06-11T08:27:02.000Z</time>
      </trkpt>
      <trkpt lat="47.43964" lon="6.64735">
        <ele>380.7</ele>
        <time>2017-06-11T08:27:03.000Z</time>
      </trkpt>
      <trkpt lat="47.43961" lon="6.64738">
        <ele>380.7</ele>
        <time>2017-06-11T08:27:04.000Z</time>
      </trkpt>
      <trkpt lat="47.43959" lon="6.64742">
        <ele>380.7</ele>
        <time>2017-06-11T08:27:05.000Z</time>
      </trkpt>
      <trkpt lat="47.43957" lon="6.64745">
        <ele>380.7</ele>
        <time>2017-06-11T08:27:06.000Z</time>
      </trkpt>
      <trkpt lat="47.43954" lon="6.64747">
        <ele>380.6</ele>
        <time>2017-06-11T08:27:07.000Z</time>
      </trkpt>
      <trkpt lat="47.4395" lon="6.6475">
        <ele>380.5</ele>
        <time>2017-06-11T08:27:08.000Z</time>
      </trkpt>
      <trkpt lat="47.43947" lon="6.64752">
        <ele>380.4</ele>
        <time>2017-06-11T08:27:09.000Z</time>
      </trkpt>
      <trkpt lat="47.43944" lon="6.64755">
        <ele>380.2</ele>
        <time>2017-06-11T08:27:10.000Z</time>
      </trkpt>
      <trkpt lat="47.43941" lon="6.64758">
        <ele>380.1</ele>
        <time>2017-06-11T08:27:11.000Z</time>
      </trkpt>
      <trkpt lat="47.43939" lon="6.6476">
        <ele>380</ele>
        <time>2017-06-11T08:27:12.000Z</time>
      </trkpt>
      <trkpt lat="47.43937" lon="6.64762">
        <ele>379.8</ele>
        <time>2017-06-11T08:27:13.000Z</time>
      </trkpt>
      <trkpt lat="47.43935" lon="6.64766">
        <ele>379.6</ele>
        <time>2017-06-11T08:27:14.000Z</time>
      </trkpt>
      <trkpt lat="47.43933" lon="6.64769">
        <ele>379.4</ele>
        <time>2017-06-11T08:27:15.000Z</time>
      </trkpt>
      <trkpt lat="47.43931" lon="6.64772">
        <ele>379.2</ele>
        <time>2017-06-11T08:27:16.000Z</time>
      </trkpt>
      <trkpt lat="47.43929" lon="6.64775">
        <ele>378.9</ele>
        <time>2017-06-11T08:27:17.000Z</time>
      </trkpt>
      <trkpt lat="47.43927" lon="6.64778">
        <ele>378.7</ele>
        <time>2017-06-11T08:27:18.000Z</time>
      </trkpt>
      <trkpt lat="47.43924" lon="6.64781">
        <ele>378.5</ele>
        <time>2017-06-11T08:27:19.000Z</time>
      </trkpt>
      <trkpt lat="47.43922" lon="6.64783">
        <ele>378.3</ele>
        <time>2017-06-11T08:27:20.000Z</time>
      </trkpt>
      <trkpt lat="47.4392" lon="6.64785">
        <ele>378.2</ele>
        <time>2017-06-11T08:27:21.000Z</time>
      </trkpt>
      <trkpt lat="47.43918" lon="6.64788">
        <ele>378.2</ele>
        <time>2017-06-11T08:27:22.000Z</time>
      </trkpt>
      <trkpt lat="47.43916" lon="6.6479">
        <ele>378.1</ele>
        <time>2017-06-11T08:27:23.000Z</time>
      </trkpt>
      <trkpt lat="47.43914" lon="6.64792">
        <ele>378.1</ele>
        <time>2017-06-11T08:27:24.000Z</time>
      </trkpt>
      <trkpt lat="47.43911" lon="6.64794">
        <ele>378.1</ele>
        <time>2017-06-11T08:27:25.000Z</time>
      </trkpt>
      <trkpt lat="47.43908" lon="6.64798">
        <ele>378.2</ele>
        <time>2017-06-11T08:27:26.000Z</time>
      </trkpt>
      <trkpt lat="47.43906" lon="6.648">
        <ele>378.3</ele>
        <time>2017-06-11T08:27:27.000Z</time>
      </trkpt>
      <trkpt lat="47.43904" lon="6.64802">
        <ele>378.4</ele>
        <time>2017-06-11T08:27:28.000Z</time>
      </trkpt>
      <trkpt lat="47.43901" lon="6.64805">
        <ele>378.5</ele>
        <time>2017-06-11T08:27:29.000Z</time>
      </trkpt>
      <trkpt lat="47.43899" lon="6.64807">
        <ele>378.6</ele>
        <time>2017-06-11T08:27:30.000Z</time>
      </trkpt>
      <trkpt lat="47.43896" lon="6.64809">
        <ele>378.7</ele>
        <time>2017-06-11T08:27:31.000Z</time>
      </trkpt>
      <trkpt lat="47.43894" lon="6.64811">
        <ele>378.8</ele>
        <time>2017-06-11T08:27:32.000Z</time>
      </trkpt>
      <trkpt lat="47.4389" lon="6.64814">
        <ele>379.2</ele>
        <time>2017-06-11T08:27:33.000Z</time>
      </trkpt>
      <trkpt lat="47.43887" lon="6.64817">
        <ele>379.2</ele>
        <time>2017-06-11T08:27:34.000Z</time>
      </trkpt>
      <trkpt lat="47.43884" lon="6.64818">
        <ele>379.2</ele>
        <time>2017-06-11T08:27:35.000Z</time>
      </trkpt>
      <trkpt lat="47.43881" lon="6.6482">
        <ele>379.3</ele>
        <time>2017-06-11T08:27:36.000Z</time>
      </trkpt>
      <trkpt lat="47.43877" lon="6.64822">
        <ele>379.4</ele>
        <time>2017-06-11T08:27:37.000Z</time>
      </trkpt>
      <trkpt lat="47.43873" lon="6.64824">
        <ele>379.6</ele>
        <time>2017-06-11T08:27:38.000Z</time>
      </trkpt>
      <trkpt lat="47.43869" lon="6.64826">
        <ele>379.7</ele>
        <time>2017-06-11T08:27:39.000Z</time>
      </trkpt>
      <trkpt lat="47.43865" lon="6.64828">
        <ele>379.8</ele>
        <time>2017-06-11T08:27:40.000Z</time>
      </trkpt>
      <trkpt lat="47.43862" lon="6.6483">
        <ele>379.9</ele>
        <time>2017-06-11T08:27:41.000Z</time>
      </trkpt>
      <trkpt lat="47.43859" lon="6.64831">
        <ele>379.9</ele>
        <time>2017-06-11T08:27:42.000Z</time>
      </trkpt>
      <trkpt lat="47.43856" lon="6.64832">
        <ele>380</ele>
        <time>2017-06-11T08:27:43.000Z</time>
      </trkpt>
      <trkpt lat="47.43852" lon="6.64834">
        <ele>380</ele>
        <time>2017-06-11T08:27:44.000Z</time>
      </trkpt>
      <trkpt lat="47.43848" lon="6.64836">
        <ele>379.9</ele>
        <time>2017-06-11T08:27:45.000Z</time>
      </trkpt>
      <trkpt lat="47.43846" lon="6.64836">
        <ele>379.9</ele>
        <time>2017-06-11T08:27:46.000Z</time>
      </trkpt>
      <trkpt lat="47.43842" lon="6.64837">
        <ele>379.9</ele>
        <time>2017-06-11T08:27:47.000Z</time>
      </trkpt>
      <trkpt lat="47.43839" lon="6.64837">
        <ele>380</ele>
        <time>2017-06-11T08:27:48.000Z</time>
      </trkpt>
      <trkpt lat="47.43835" lon="6.64838">
        <ele>380</ele>
        <time>2017-06-11T08:27:49.000Z</time>
      </trkpt>
      <trkpt lat="47.43833" lon="6.64838">
        <ele>380.1</ele>
        <time>2017-06-11T08:27:50.000Z</time>
      </trkpt>
      <trkpt lat="47.4383" lon="6.64838">
        <ele>380.1</ele>
        <time>2017-06-11T08:27:51.000Z</time>
      </trkpt>
      <trkpt lat="47.43827" lon="6.64837">
        <ele>380.1</ele>
        <time>2017-06-11T08:27:52.000Z</time>
      </trkpt>
      <trkpt lat="47.43824" lon="6.64837">
        <ele>380.2</ele>
        <time>2017-06-11T08:27:53.000Z</time>
      </trkpt>
      <trkpt lat="47.43822" lon="6.64838">
        <ele>380.2</ele>
        <time>2017-06-11T08:27:54.000Z</time>
      </trkpt>
      <trkpt lat="47.43819" lon="6.64838">
        <ele>380.2</ele>
        <time>2017-06-11T08:27:55.000Z</time>
      </trkpt>
      <trkpt lat="47.43816" lon="6.64839">
        <ele>380.2</ele>
        <time>2017-06-11T08:27:56.000Z</time>
      </trkpt>
      <trkpt lat="47.43814" lon="6.64839">
        <ele>380.3</ele>
        <time>2017-06-11T08:27:57.000Z</time>
      </trkpt>
      <trkpt lat="47.43811" lon="6.6484">
        <ele>380.3</ele>
        <time>2017-06-11T08:27:58.000Z</time>
      </trkpt>
      <trkpt lat="47.43808" lon="6.6484">
        <ele>380.4</ele>
        <time>2017-06-11T08:27:59.000Z</time>
      </trkpt>
      <trkpt lat="47.43805" lon="6.6484">
        <ele>380.5</ele>
        <time>2017-06-11T08:28:00.000Z</time>
      </trkpt>
      <trkpt lat="47.43802" lon="6.64841">
        <ele>380.5</ele>
        <time>2017-06-11T08:28:01.000Z</time>
      </trkpt>
      <trkpt lat="47.43799" lon="6.64842">
        <ele>380.6</ele>
        <time>2017-06-11T08:28:02.000Z</time>
      </trkpt>
      <trkpt lat="47.43796" lon="6.64843">
        <ele>380.7</ele>
        <time>2017-06-11T08:28:03.000Z</time>
      </trkpt>
      <trkpt lat="47.43793" lon="6.64843">
        <ele>380.8</ele>
        <time>2017-06-11T08:28:04.000Z</time>
      </trkpt>
      <trkpt lat="47.4379" lon="6.64843">
        <ele>380.9</ele>
        <time>2017-06-11T08:28:05.000Z</time>
      </trkpt>
      <trkpt lat="47.43785" lon="6.64843">
        <ele>381.1</ele>
        <time>2017-06-11T08:28:06.000Z</time>
      </trkpt>
      <trkpt lat="47.43782" lon="6.64843">
        <ele>381.2</ele>
        <time>2017-06-11T08:28:07.000Z</time>
      </trkpt>
      <trkpt lat="47.43778" lon="6.64841">
        <ele>381.4</ele>
        <time>2017-06-11T08:28:08.000Z</time>
      </trkpt>
      <trkpt lat="47.43774" lon="6.6484">
        <ele>381.6</ele>
        <time>2017-06-11T08:28:09.000Z</time>
      </trkpt>
      <trkpt lat="47.4377" lon="6.64838">
        <ele>381.8</ele>
        <time>2017-06-11T08:28:10.000Z</time>
      </trkpt>
      <trkpt lat="47.43768" lon="6.64837">
        <ele>382</ele>
        <time>2017-06-11T08:28:11.000Z</time>
      </trkpt>
      <trkpt lat="47.43765" lon="6.64836">
        <ele>382.3</ele>
        <time>2017-06-11T08:28:12.000Z</time>
      </trkpt>
      <trkpt lat="47.43762" lon="6.64835">
        <ele>382.6</ele>
        <time>2017-06-11T08:28:13.000Z</time>
      </trkpt>
      <trkpt lat="47.43758" lon="6.64835">
        <ele>382.9</ele>
        <time>2017-06-11T08:28:14.000Z</time>
      </trkpt>
      <trkpt lat="47.43755" lon="6.64833">
        <ele>383.2</ele>
        <time>2017-06-11T08:28:15.000Z</time>
      </trkpt>
      <trkpt lat="47.43752" lon="6.64833">
        <ele>383.5</ele>
        <time>2017-06-11T08:28:16.000Z</time>
      </trkpt>
      <trkpt lat="47.43748" lon="6.64832">
        <ele>383.8</ele>
        <time>2017-06-11T08:28:17.000Z</time>
      </trkpt>
      <trkpt lat="47.43745" lon="6.64831">
        <ele>384.1</ele>
        <time>2017-06-11T08:28:18.000Z</time>
      </trkpt>
      <trkpt lat="47.43742" lon="6.6483">
        <ele>384.4</ele>
        <time>2017-06-11T08:28:19.000Z</time>
      </trkpt>
      <trkpt lat="47.4374" lon="6.64829">
        <ele>384.7</ele>
        <time>2017-06-11T08:28:20.000Z</time>
      </trkpt>
      <trkpt lat="47.43737" lon="6.64829">
        <ele>385</ele>
        <time>2017-06-11T08:28:21.000Z</time>
      </trkpt>
      <trkpt lat="47.43733" lon="6.64828">
        <ele>385.2</ele>
        <time>2017-06-11T08:28:22.000Z</time>
      </trkpt>
      <trkpt lat="47.4373" lon="6.64827">
        <ele>385.4</ele>
        <time>2017-06-11T08:28:23.000Z</time>
      </trkpt>
      <trkpt lat="47.43728" lon="6.64826">
        <ele>385.6</ele>
        <time>2017-06-11T08:28:24.000Z</time>
      </trkpt>
      <trkpt lat="47.43725" lon="6.64826">
        <ele>385.9</ele>
        <time>2017-06-11T08:28:25.000Z</time>
      </trkpt>
      <trkpt lat="47.43722" lon="6.64826">
        <ele>386.1</ele>
        <time>2017-06-11T08:28:26.000Z</time>
      </trkpt>
      <trkpt lat="47.43718" lon="6.64825">
        <ele>386.4</ele>
        <time>2017-06-11T08:28:27.000Z</time>
      </trkpt>
      <trkpt lat="47.43715" lon="6.64824">
        <ele>386.6</ele>
        <time>2017-06-11T08:28:28.000Z</time>
      </trkpt>
      <trkpt lat="47.43711" lon="6.64823">
        <ele>386.8</ele>
        <time>2017-06-11T08:28:29.000Z</time>
      </trkpt>
      <trkpt lat="47.43709" lon="6.64823">
        <ele>386.9</ele>
        <time>2017-06-11T08:28:30.000Z</time>
      </trkpt>
      <trkpt lat="47.43705" lon="6.64822">
        <ele>387.1</ele>
        <time>2017-06-11T08:28:31.000Z</time>
      </trkpt>
      <trkpt lat="47.43702" lon="6.64821">
        <ele>387.2</ele>
        <time>2017-06-11T08:28:32.000Z</time>
      </trkpt>
      <trkpt lat="47.437" lon="6.6482">
        <ele>387.4</ele>
        <time>2017-06-11T08:28:33.000Z</time>
      </trkpt>
      <trkpt lat="47.43697" lon="6.6482">
        <ele>387.6</ele>
        <time>2017-06-11T08:28:34.000Z</time>
      </trkpt>
      <trkpt lat="47.43694" lon="6.64819">
        <ele>387.8</ele>
        <time>2017-06-11T08:28:35.000Z</time>
      </trkpt>
      <trkpt lat="47.43692" lon="6.64818">
        <ele>387.9</ele>
        <time>2017-06-11T08:28:36.000Z</time>
      </trkpt>
      <trkpt lat="47.43688" lon="6.64817">
        <ele>388.1</ele>
        <time>2017-06-11T08:28:37.000Z</time>
      </trkpt>
      <trkpt lat="47.43684" lon="6.64816">
        <ele>388.2</ele>
        <time>2017-06-11T08:28:38.000Z</time>
      </trkpt>
      <trkpt lat="47.43681" lon="6.64815">
        <ele>388.3</ele>
        <time>2017-06-11T08:28:39.000Z</time>
      </trkpt>
      <trkpt lat="47.43678" lon="6.64814">
        <ele>388.4</ele>
        <time>2017-06-11T08:28:40.000Z</time>
      </trkpt>
      <trkpt lat="47.43675" lon="6.64814">
        <ele>388.5</ele>
        <time>2017-06-11T08:28:41.000Z</time>
      </trkpt>
      <trkpt lat="47.43672" lon="6.64813">
        <ele>388.5</ele>
        <time>2017-06-11T08:28:42.000Z</time>
      </trkpt>
      <trkpt lat="47.43668" lon="6.64813">
        <ele>388.6</ele>
        <time>2017-06-11T08:28:43.000Z</time>
      </trkpt>
      <trkpt lat="47.43664" lon="6.64813">
        <ele>388.8</ele>
        <time>2017-06-11T08:28:44.000Z</time>
      </trkpt>
      <trkpt lat="47.4366" lon="6.64812">
        <ele>388.9</ele>
        <time>2017-06-11T08:28:45.000Z</time>
      </trkpt>
      <trkpt lat="47.43657" lon="6.64812">
        <ele>389</ele>
        <time>2017-06-11T08:28:46.000Z</time>
      </trkpt>
      <trkpt lat="47.43654" lon="6.64812">
        <ele>389.2</ele>
        <time>2017-06-11T08:28:47.000Z</time>
      </trkpt>
      <trkpt lat="47.4365" lon="6.64812">
        <ele>389.4</ele>
        <time>2017-06-11T08:28:48.000Z</time>
      </trkpt>
      <trkpt lat="47.43647" lon="6.64813">
        <ele>389.6</ele>
        <time>2017-06-11T08:28:49.000Z</time>
      </trkpt>
      <trkpt lat="47.43643" lon="6.64813">
        <ele>389.7</ele>
        <time>2017-06-11T08:28:50.000Z</time>
      </trkpt>
      <trkpt lat="47.43639" lon="6.64814">
        <ele>389.9</ele>
        <time>2017-06-11T08:28:51.000Z</time>
      </trkpt>
      <trkpt lat="47.43635" lon="6.64815">
        <ele>390</ele>
        <time>2017-06-11T08:28:52.000Z</time>
      </trkpt>
      <trkpt lat="47.43632" lon="6.64815">
        <ele>390.2</ele>
        <time>2017-06-11T08:28:53.000Z</time>
      </trkpt>
      <trkpt lat="47.43628" lon="6.64816">
        <ele>390.3</ele>
        <time>2017-06-11T08:28:54.000Z</time>
      </trkpt>
      <trkpt lat="47.43625" lon="6.64816">
        <ele>390.4</ele>
        <time>2017-06-11T08:28:55.000Z</time>
      </trkpt>
      <trkpt lat="47.43622" lon="6.64817">
        <ele>390.6</ele>
        <time>2017-06-11T08:28:56.000Z</time>
      </trkpt>
      <trkpt lat="47.43618" lon="6.64818">
        <ele>390.7</ele>
        <time>2017-06-11T08:28:57.000Z</time>
      </trkpt>
      <trkpt lat="47.43614" lon="6.64818">
        <ele>390.9</ele>
        <time>2017-06-11T08:28:58.000Z</time>
      </trkpt>
      <trkpt lat="47.43611" lon="6.6482">
        <ele>392.3</ele>
        <time>2017-06-11T08:28:59.000Z</time>
      </trkpt>
      <trkpt lat="47.43606" lon="6.64821">
        <ele>392.4</ele>
        <time>2017-06-11T08:29:00.000Z</time>
      </trkpt>
      <trkpt lat="47.43603" lon="6.64822">
        <ele>392.6</ele>
        <time>2017-06-11T08:29:01.000Z</time>
      </trkpt>
      <trkpt lat="47.43598" lon="6.64822">
        <ele>392.9</ele>
        <time>2017-06-11T08:29:02.000Z</time>
      </trkpt>
      <trkpt lat="47.43595" lon="6.64823">
        <ele>395</ele>
        <time>2017-06-11T08:29:03.000Z</time>
      </trkpt>
      <trkpt lat="47.43592" lon="6.64824">
        <ele>395.1</ele>
        <time>2017-06-11T08:29:04.000Z</time>
      </trkpt>
      <trkpt lat="47.43589" lon="6.64825">
        <ele>395.2</ele>
        <time>2017-06-11T08:29:05.000Z</time>
      </trkpt>
      <trkpt lat="47.43585" lon="6.64826">
        <ele>395.4</ele>
        <time>2017-06-11T08:29:06.000Z</time>
      </trkpt>
      <trkpt lat="47.43582" lon="6.64827">
        <ele>395.5</ele>
        <time>2017-06-11T08:29:07.000Z</time>
      </trkpt>
      <trkpt lat="47.43578" lon="6.64828">
        <ele>395.6</ele>
        <time>2017-06-11T08:29:08.000Z</time>
      </trkpt>
      <trkpt lat="47.43574" lon="6.64829">
        <ele>395.7</ele>
        <time>2017-06-11T08:29:09.000Z</time>
      </trkpt>
      <trkpt lat="47.43571" lon="6.6483">
        <ele>395.7</ele>
        <time>2017-06-11T08:29:10.000Z</time>
      </trkpt>
      <trkpt lat="47.43567" lon="6.64831">
        <ele>395.8</ele>
        <time>2017-06-11T08:29:11.000Z</time>
      </trkpt>
      <trkpt lat="47.43564" lon="6.64832">
        <ele>397</ele>
        <time>2017-06-11T08:29:12.000Z</time>
      </trkpt>
      <trkpt lat="47.43559" lon="6.64832">
        <ele>397.1</ele>
        <time>2017-06-11T08:29:13.000Z</time>
      </trkpt>
      <trkpt lat="47.43556" lon="6.64833">
        <ele>397.2</ele>
        <time>2017-06-11T08:29:14.000Z</time>
      </trkpt>
      <trkpt lat="47.43553" lon="6.64834">
        <ele>397.3</ele>
        <time>2017-06-11T08:29:15.000Z</time>
      </trkpt>
      <trkpt lat="47.4355" lon="6.64835">
        <ele>397.5</ele>
        <time>2017-06-11T08:29:16.000Z</time>
      </trkpt>
      <trkpt lat="47.43546" lon="6.64835">
        <ele>397.7</ele>
        <time>2017-06-11T08:29:17.000Z</time>
      </trkpt>
      <trkpt lat="47.43542" lon="6.64837">
        <ele>399.9</ele>
        <time>2017-06-11T08:29:18.000Z</time>
      </trkpt>
      <trkpt lat="47.43538" lon="6.64838">
        <ele>400</ele>
        <time>2017-06-11T08:29:19.000Z</time>
      </trkpt>
      <trkpt lat="47.43535" lon="6.6484">
        <ele>400.2</ele>
        <time>2017-06-11T08:29:20.000Z</time>
      </trkpt>
      <trkpt lat="47.43531" lon="6.64841">
        <ele>400.4</ele>
        <time>2017-06-11T08:29:21.000Z</time>
      </trkpt>
      <trkpt lat="47.43528" lon="6.64842">
        <ele>402.2</ele>
        <time>2017-06-11T08:29:22.000Z</time>
      </trkpt>
      <trkpt lat="47.43524" lon="6.64844">
        <ele>402.3</ele>
        <time>2017-06-11T08:29:23.000Z</time>
      </trkpt>
      <trkpt lat="47.43521" lon="6.64845">
        <ele>402.3</ele>
        <time>2017-06-11T08:29:24.000Z</time>
      </trkpt>
      <trkpt lat="47.43517" lon="6.64847">
        <ele>402.8</ele>
        <time>2017-06-11T08:29:25.000Z</time>
      </trkpt>
      <trkpt lat="47.43514" lon="6.64847">
        <ele>402.8</ele>
        <time>2017-06-11T08:29:26.000Z</time>
      </trkpt>
      <trkpt lat="47.4351" lon="6.64846">
        <ele>402.8</ele>
        <time>2017-06-11T08:29:27.000Z</time>
      </trkpt>
      <trkpt lat="47.43507" lon="6.64846">
        <ele>402.8</ele>
        <time>2017-06-11T08:29:28.000Z</time>
      </trkpt>
      <trkpt lat="47.43504" lon="6.64847">
        <ele>402.8</ele>
        <time>2017-06-11T08:29:29.000Z</time>
      </trkpt>
      <trkpt lat="47.435" lon="6.64848">
        <ele>402.8</ele>
        <time>2017-06-11T08:29:30.000Z</time>
      </trkpt>
      <trkpt lat="47.43497" lon="6.64849">
        <ele>402.8</ele>
        <time>2017-06-11T08:29:31.000Z</time>
      </trkpt>
      <trkpt lat="47.43493" lon="6.64849">
        <ele>402.8</ele>
        <time>2017-06-11T08:29:32.000Z</time>
      </trkpt>
      <trkpt lat="47.4349" lon="6.6485">
        <ele>402.9</ele>
        <time>2017-06-11T08:29:33.000Z</time>
      </trkpt>
      <trkpt lat="47.43487" lon="6.64851">
        <ele>402.8</ele>
        <time>2017-06-11T08:29:34.000Z</time>
      </trkpt>
      <trkpt lat="47.43483" lon="6.6485">
        <ele>402.9</ele>
        <time>2017-06-11T08:29:35.000Z</time>
      </trkpt>
      <trkpt lat="47.4348" lon="6.6485">
        <ele>402.9</ele>
        <time>2017-06-11T08:29:36.000Z</time>
      </trkpt>
      <trkpt lat="47.43477" lon="6.6485">
        <ele>403</ele>
        <time>2017-06-11T08:29:37.000Z</time>
      </trkpt>
      <trkpt lat="47.43474" lon="6.6485">
        <ele>403</ele>
        <time>2017-06-11T08:29:38.000Z</time>
      </trkpt>
      <trkpt lat="47.4347" lon="6.64851">
        <ele>403.1</ele>
        <time>2017-06-11T08:29:39.000Z</time>
      </trkpt>
      <trkpt lat="47.43467" lon="6.64851">
        <ele>403.1</ele>
        <time>2017-06-11T08:29:40.000Z</time>
      </trkpt>
      <trkpt lat="47.43464" lon="6.64852">
        <ele>403.2</ele>
        <time>2017-06-11T08:29:41.000Z</time>
      </trkpt>
      <trkpt lat="47.43462" lon="6.64851">
        <ele>403.3</ele>
        <time>2017-06-11T08:29:42.000Z</time>
      </trkpt>
      <trkpt lat="47.43459" lon="6.64851">
        <ele>403.4</ele>
        <time>2017-06-11T08:29:43.000Z</time>
      </trkpt>
      <trkpt lat="47.43455" lon="6.64851">
        <ele>403.5</ele>
        <time>2017-06-11T08:29:44.000Z</time>
      </trkpt>
      <trkpt lat="47.43452" lon="6.64852">
        <ele>404</ele>
        <time>2017-06-11T08:29:45.000Z</time>
      </trkpt>
      <trkpt lat="47.43448" lon="6.64851">
        <ele>404</ele>
        <time>2017-06-11T08:29:46.000Z</time>
      </trkpt>
      <trkpt lat="47.43444" lon="6.64851">
        <ele>404</ele>
        <time>2017-06-11T08:29:47.000Z</time>
      </trkpt>
      <trkpt lat="47.4344" lon="6.64851">
        <ele>404</ele>
        <time>2017-06-11T08:29:48.000Z</time>
      </trkpt>
      <trkpt lat="47.43436" lon="6.64851">
        <ele>403.9</ele>
        <time>2017-06-11T08:29:49.000Z</time>
      </trkpt>
      <trkpt lat="47.43433" lon="6.6485">
        <ele>403.9</ele>
        <time>2017-06-11T08:29:50.000Z</time>
      </trkpt>
      <trkpt lat="47.4343" lon="6.64848">
        <ele>403.9</ele>
        <time>2017-06-11T08:29:51.000Z</time>
      </trkpt>
      <trkpt lat="47.43427" lon="6.64849">
        <ele>403.9</ele>
        <time>2017-06-11T08:29:52.000Z</time>
      </trkpt>
      <trkpt lat="47.43423" lon="6.6485">
        <ele>403.4</ele>
        <time>2017-06-11T08:29:53.000Z</time>
      </trkpt>
      <trkpt lat="47.43418" lon="6.64851">
        <ele>402.4</ele>
        <time>2017-06-11T08:29:54.000Z</time>
      </trkpt>
      <trkpt lat="47.43415" lon="6.6485">
        <ele>402.3</ele>
        <time>2017-06-11T08:29:55.000Z</time>
      </trkpt>
      <trkpt lat="47.43412" lon="6.64849">
        <ele>402.2</ele>
        <time>2017-06-11T08:29:56.000Z</time>
      </trkpt>
      <trkpt lat="47.43409" lon="6.64849">
        <ele>402</ele>
        <time>2017-06-11T08:29:57.000Z</time>
      </trkpt>
      <trkpt lat="47.43407" lon="6.64848">
        <ele>402</ele>
        <time>2017-06-11T08:29:58.000Z</time>
      </trkpt>
      <trkpt lat="47.43404" lon="6.64846">
        <ele>401.9</ele>
        <time>2017-06-11T08:29:59.000Z</time>
      </trkpt>
      <trkpt lat="47.434" lon="6.64845">
        <ele>401.7</ele>
        <time>2017-06-11T08:30:00.000Z</time>
      </trkpt>
      <trkpt lat="47.43397" lon="6.64842">
        <ele>401.3</ele>
        <time>2017-06-11T08:30:01.000Z</time>
      </trkpt>
      <trkpt lat="47.43394" lon="6.6484">
        <ele>400.9</ele>
        <time>2017-06-11T08:30:02.000Z</time>
      </trkpt>
      <trkpt lat="47.43391" lon="6.64837">
        <ele>400.6</ele>
        <time>2017-06-11T08:30:03.000Z</time>
      </trkpt>
      <trkpt lat="47.43388" lon="6.64836">
        <ele>400.3</ele>
        <time>2017-06-11T08:30:04.000Z</time>
      </trkpt>
      <trkpt lat="47.43385" lon="6.64834">
        <ele>400</ele>
        <time>2017-06-11T08:30:05.000Z</time>
      </trkpt>
      <trkpt lat="47.43382" lon="6.64833">
        <ele>399.7</ele>
        <time>2017-06-11T08:30:06.000Z</time>
      </trkpt>
      <trkpt lat="47.43379" lon="6.64833">
        <ele>399.5</ele>
        <time>2017-06-11T08:30:07.000Z</time>
      </trkpt>
      <trkpt lat="47.43374" lon="6.64831">
        <ele>399.3</ele>
        <time>2017-06-11T08:30:08.000Z</time>
      </trkpt>
      <trkpt lat="47.43371" lon="6.6483">
        <ele>399.1</ele>
        <time>2017-06-11T08:30:09.000Z</time>
      </trkpt>
      <trkpt lat="47.43369" lon="6.6483">
        <ele>398.9</ele>
        <time>2017-06-11T08:30:10.000Z</time>
      </trkpt>
      <trkpt lat="47.43366" lon="6.6483">
        <ele>398.6</ele>
        <time>2017-06-11T08:30:11.000Z</time>
      </trkpt>
      <trkpt lat="47.43362" lon="6.64831">
        <ele>398.4</ele>
        <time>2017-06-11T08:30:12.000Z</time>
      </trkpt>
      <trkpt lat="47.43357" lon="6.6483">
        <ele>398.1</ele>
        <time>2017-06-11T08:30:13.000Z</time>
      </trkpt>
      <trkpt lat="47.43353" lon="6.6483">
        <ele>397.8</ele>
        <time>2017-06-11T08:30:14.000Z</time>
      </trkpt>
      <trkpt lat="47.43349" lon="6.64829">
        <ele>397.5</ele>
        <time>2017-06-11T08:30:15.000Z</time>
      </trkpt>
      <trkpt lat="47.43345" lon="6.64829">
        <ele>397.3</ele>
        <time>2017-06-11T08:30:16.000Z</time>
      </trkpt>
      <trkpt lat="47.43342" lon="6.6483">
        <ele>397.1</ele>
        <time>2017-06-11T08:30:17.000Z</time>
      </trkpt>
      <trkpt lat="47.43339" lon="6.6483">
        <ele>396.8</ele>
        <time>2017-06-11T08:30:18.000Z</time>
      </trkpt>
      <trkpt lat="47.43335" lon="6.64832">
        <ele>396.5</ele>
        <time>2017-06-11T08:30:20.000Z</time>
      </trkpt>
      <trkpt lat="47.43331" lon="6.64832">
        <ele>396.3</ele>
        <time>2017-06-11T08:30:21.000Z</time>
      </trkpt>
      <trkpt lat="47.43328" lon="6.64832">
        <ele>396.2</ele>
        <time>2017-06-11T08:30:22.000Z</time>
      </trkpt>
      <trkpt lat="47.43325" lon="6.64833">
        <ele>396.1</ele>
        <time>2017-06-11T08:30:23.000Z</time>
      </trkpt>
      <trkpt lat="47.4332" lon="6.64833">
        <ele>396.1</ele>
        <time>2017-06-11T08:30:24.000Z</time>
      </trkpt>
      <trkpt lat="47.43316" lon="6.64836">
        <ele>396.1</ele>
        <time>2017-06-11T08:30:25.000Z</time>
      </trkpt>
      <trkpt lat="47.43311" lon="6.64839">
        <ele>396.2</ele>
        <time>2017-06-11T08:30:26.000Z</time>
      </trkpt>
      <trkpt lat="47.43307" lon="6.64839">
        <ele>396.3</ele>
        <time>2017-06-11T08:30:28.000Z</time>
      </trkpt>
      <trkpt lat="47.43303" lon="6.6484">
        <ele>396.3</ele>
        <time>2017-06-11T08:30:29.000Z</time>
      </trkpt>
      <trkpt lat="47.433" lon="6.6484">
        <ele>396.5</ele>
        <time>2017-06-11T08:30:31.000Z</time>
      </trkpt>
      <trkpt lat="47.43298" lon="6.6484">
        <ele>396.6</ele>
        <time>2017-06-11T08:30:32.000Z</time>
      </trkpt>
      <trkpt lat="47.43294" lon="6.6484">
        <ele>397.1</ele>
        <time>2017-06-11T08:30:34.000Z</time>
      </trkpt>
      <trkpt lat="47.43292" lon="6.6484">
        <ele>397.3</ele>
        <time>2017-06-11T08:30:35.000Z</time>
      </trkpt>
      <trkpt lat="47.43288" lon="6.64838">
        <ele>397.9</ele>
        <time>2017-06-11T08:30:37.000Z</time>
      </trkpt>
      <trkpt lat="47.43286" lon="6.64838">
        <ele>398.2</ele>
        <time>2017-06-11T08:30:38.000Z</time>
      </trkpt>
      <trkpt lat="47.43282" lon="6.64835">
        <ele>399.1</ele>
        <time>2017-06-11T08:30:41.000Z</time>
      </trkpt>
      <trkpt lat="47.4328" lon="6.64834">
        <ele>399.4</ele>
        <time>2017-06-11T08:30:42.000Z</time>
      </trkpt>
      <trkpt lat="47.43278" lon="6.64833">
        <ele>399.8</ele>
        <time>2017-06-11T08:30:43.000Z</time>
      </trkpt>
      <trkpt lat="47.43274" lon="6.64832">
        <ele>400.1</ele>
        <time>2017-06-11T08:30:44.000Z</time>
      </trkpt>
      <trkpt lat="47.43271" lon="6.64832">
        <ele>400.8</ele>
        <time>2017-06-11T08:30:46.000Z</time>
      </trkpt>
      <trkpt lat="47.4327" lon="6.64832">
        <ele>401.1</ele>
        <time>2017-06-11T08:30:47.000Z</time>
      </trkpt>
      <trkpt lat="47.43266" lon="6.64831">
        <ele>401.9</ele>
        <time>2017-06-11T08:30:49.000Z</time>
      </trkpt>
      <trkpt lat="47.43264" lon="6.64831">
        <ele>402.2</ele>
        <time>2017-06-11T08:30:50.000Z</time>
      </trkpt>
      <trkpt lat="47.4326" lon="6.6483">
        <ele>403.2</ele>
        <time>2017-06-11T08:30:53.000Z</time>
      </trkpt>
      <trkpt lat="47.43256" lon="6.64829">
        <ele>403.5</ele>
        <time>2017-06-11T08:30:54.000Z</time>
      </trkpt>
      <trkpt lat="47.43252" lon="6.64825">
        <ele>404</ele>
        <time>2017-06-11T08:30:56.000Z</time>
      </trkpt>
      <trkpt lat="47.43251" lon="6.64825">
        <ele>404.2</ele>
        <time>2017-06-11T08:30:57.000Z</time>
      </trkpt>
      <trkpt lat="47.43247" lon="6.64824">
        <ele>405.1</ele>
        <time>2017-06-11T08:31:00.000Z</time>
      </trkpt>
      <trkpt lat="47.43246" lon="6.64823">
        <ele>405.6</ele>
        <time>2017-06-11T08:31:01.000Z</time>
      </trkpt>
      <trkpt lat="47.43244" lon="6.64824">
        <ele>406</ele>
        <time>2017-06-11T08:31:02.000Z</time>
      </trkpt>
      <trkpt lat="47.43241" lon="6.64822">
        <ele>406.4</ele>
        <time>2017-06-11T08:31:03.000Z</time>
      </trkpt>
      <trkpt lat="47.43237" lon="6.64821">
        <ele>407.5</ele>
        <time>2017-06-11T08:31:06.000Z</time>
      </trkpt>
      <trkpt lat="47.43233" lon="6.64819">
        <ele>407.7</ele>
        <time>2017-06-11T08:31:07.000Z</time>
      </trkpt>
      <trkpt lat="47.4323" lon="6.64819">
        <ele>408.9</ele>
        <time>2017-06-11T08:31:11.000Z</time>
      </trkpt>
      <trkpt lat="47.43228" lon="6.64817">
        <ele>409.1</ele>
        <time>2017-06-11T08:31:12.000Z</time>
      </trkpt>
      <trkpt lat="47.43224" lon="6.64817">
        <ele>409.4</ele>
        <time>2017-06-11T08:31:13.000Z</time>
      </trkpt>
      <trkpt lat="47.43221" lon="6.64817">
        <ele>409.6</ele>
        <time>2017-06-11T08:31:14.000Z</time>
      </trkpt>
      <trkpt lat="47.43219" lon="6.64817">
        <ele>409.8</ele>
        <time>2017-06-11T08:31:15.000Z</time>
      </trkpt>
      <trkpt lat="47.43216" lon="6.64816">
        <ele>410</ele>
        <time>2017-06-11T08:31:16.000Z</time>
      </trkpt>
      <trkpt lat="47.43212" lon="6.64816">
        <ele>410.9</ele>
        <time>2017-06-11T08:31:20.000Z</time>
      </trkpt>
      <trkpt lat="47.43211" lon="6.64815">
        <ele>411.1</ele>
        <time>2017-06-11T08:31:21.000Z</time>
      </trkpt>
      <trkpt lat="47.43206" lon="6.64814">
        <ele>411.9</ele>
        <time>2017-06-11T08:31:25.000Z</time>
      </trkpt>
      <trkpt lat="47.43205" lon="6.64813">
        <ele>412.1</ele>
        <time>2017-06-11T08:31:26.000Z</time>
      </trkpt>
      <trkpt lat="47.43202" lon="6.6481">
        <ele>412.9</ele>
        <time>2017-06-11T08:31:29.000Z</time>
      </trkpt>
      <trkpt lat="47.43201" lon="6.64809">
        <ele>413.1</ele>
        <time>2017-06-11T08:31:30.000Z</time>
      </trkpt>
      <trkpt lat="47.43197" lon="6.64808">
        <ele>413.6</ele>
        <time>2017-06-11T08:31:32.000Z</time>
      </trkpt>
      <trkpt lat="47.43195" lon="6.64807">
        <ele>413.8</ele>
        <time>2017-06-11T08:31:33.000Z</time>
      </trkpt>
      <trkpt lat="47.43192" lon="6.64805">
        <ele>414.3</ele>
        <time>2017-06-11T08:31:35.000Z</time>
      </trkpt>
      <trkpt lat="47.43189" lon="6.64804">
        <ele>414.5</ele>
        <time>2017-06-11T08:31:36.000Z</time>
      </trkpt>
      <trkpt lat="47.43185" lon="6.64802">
        <ele>414.9</ele>
        <time>2017-06-11T08:31:38.000Z</time>
      </trkpt>
      <trkpt lat="47.4318" lon="6.64802">
        <ele>415.1</ele>
        <time>2017-06-11T08:31:39.000Z</time>
      </trkpt>
      <trkpt lat="47.43176" lon="6.64801">
        <ele>415.2</ele>
        <time>2017-06-11T08:31:40.000Z</time>
      </trkpt>
      <trkpt lat="47.43174" lon="6.648">
        <ele>415.3</ele>
        <time>2017-06-11T08:31:41.000Z</time>
      </trkpt>
      <trkpt lat="47.4317" lon="6.64799">
        <ele>415.5</ele>
        <time>2017-06-11T08:31:43.000Z</time>
      </trkpt>
      <trkpt lat="47.43169" lon="6.64797">
        <ele>415.5</ele>
        <time>2017-06-11T08:31:44.000Z</time>
      </trkpt>
      <trkpt lat="47.43165" lon="6.64795">
        <ele>416</ele>
        <time>2017-06-11T08:31:47.000Z</time>
      </trkpt>
      <trkpt lat="47.43163" lon="6.64793">
        <ele>416.1</ele>
        <time>2017-06-11T08:31:48.000Z</time>
      </trkpt>
      <trkpt lat="47.4316" lon="6.64789">
        <ele>416.3</ele>
        <time>2017-06-11T08:31:50.000Z</time>
      </trkpt>
      <trkpt lat="47.43159" lon="6.64788">
        <ele>416.4</ele>
        <time>2017-06-11T08:31:51.000Z</time>
      </trkpt>
      <trkpt lat="47.43156" lon="6.64785">
        <ele>416.6</ele>
        <time>2017-06-11T08:31:53.000Z</time>
      </trkpt>
      <trkpt lat="47.43155" lon="6.64783">
        <ele>416.7</ele>
        <time>2017-06-11T08:31:54.000Z</time>
      </trkpt>
      <trkpt lat="47.43153" lon="6.64779">
        <ele>416.9</ele>
        <time>2017-06-11T08:31:55.000Z</time>
      </trkpt>
      <trkpt lat="47.43152" lon="6.64775">
        <ele>417.1</ele>
        <time>2017-06-11T08:31:56.000Z</time>
      </trkpt>
      <trkpt lat="47.43151" lon="6.64772">
        <ele>417.2</ele>
        <time>2017-06-11T08:31:57.000Z</time>
      </trkpt>
      <trkpt lat="47.43149" lon="6.6477">
        <ele>417.4</ele>
        <time>2017-06-11T08:31:58.000Z</time>
      </trkpt>
      <trkpt lat="47.43146" lon="6.64767">
        <ele>417.5</ele>
        <time>2017-06-11T08:31:59.000Z</time>
      </trkpt>
      <trkpt lat="47.43144" lon="6.64765">
        <ele>417.6</ele>
        <time>2017-06-11T08:32:00.000Z</time>
      </trkpt>
      <trkpt lat="47.43141" lon="6.64761">
        <ele>417.7</ele>
        <time>2017-06-11T08:32:02.000Z</time>
      </trkpt>
      <trkpt lat="47.43139" lon="6.64759">
        <ele>417.8</ele>
        <time>2017-06-11T08:32:03.000Z</time>
      </trkpt>
      <trkpt lat="47.43136" lon="6.64757">
        <ele>417.9</ele>
        <time>2017-06-11T08:32:05.000Z</time>
      </trkpt>
      <trkpt lat="47.43132" lon="6.64754">
        <ele>417.8</ele>
        <time>2017-06-11T08:32:06.000Z</time>
      </trkpt>
      <trkpt lat="47.4313" lon="6.64752">
        <ele>417.8</ele>
        <time>2017-06-11T08:32:07.000Z</time>
      </trkpt>
      <trkpt lat="47.43128" lon="6.6475">
        <ele>417.9</ele>
        <time>2017-06-11T08:32:08.000Z</time>
      </trkpt>
      <trkpt lat="47.43124" lon="6.64746">
        <ele>417.8</ele>
        <time>2017-06-11T08:32:09.000Z</time>
      </trkpt>
      <trkpt lat="47.43123" lon="6.64745">
        <ele>417.9</ele>
        <time>2017-06-11T08:32:10.000Z</time>
      </trkpt>
      <trkpt lat="47.43119" lon="6.64742">
        <ele>417.7</ele>
        <time>2017-06-11T08:32:12.000Z</time>
      </trkpt>
      <trkpt lat="47.43117" lon="6.6474">
        <ele>417.6</ele>
        <time>2017-06-11T08:32:13.000Z</time>
      </trkpt>
      <trkpt lat="47.43114" lon="6.64737">
        <ele>417.6</ele>
        <time>2017-06-11T08:32:15.000Z</time>
      </trkpt>
      <trkpt lat="47.43111" lon="6.64735">
        <ele>417.6</ele>
        <time>2017-06-11T08:32:16.000Z</time>
      </trkpt>
      <trkpt lat="47.43109" lon="6.64733">
        <ele>417.5</ele>
        <time>2017-06-11T08:32:17.000Z</time>
      </trkpt>
      <trkpt lat="47.43107" lon="6.64731">
        <ele>417.6</ele>
        <time>2017-06-11T08:32:18.000Z</time>
      </trkpt>
      <trkpt lat="47.43103" lon="6.64728">
        <ele>417.7</ele>
        <time>2017-06-11T08:32:20.000Z</time>
      </trkpt>
      <trkpt lat="47.43102" lon="6.64726">
        <ele>417.8</ele>
        <time>2017-06-11T08:32:21.000Z</time>
      </trkpt>
      <trkpt lat="47.43099" lon="6.64722">
        <ele>417.8</ele>
        <time>2017-06-11T08:32:23.000Z</time>
      </trkpt>
      <trkpt lat="47.43096" lon="6.6472">
        <ele>417.8</ele>
        <time>2017-06-11T08:32:24.000Z</time>
      </trkpt>
      <trkpt lat="47.43094" lon="6.64719">
        <ele>417.9</ele>
        <time>2017-06-11T08:32:25.000Z</time>
      </trkpt>
      <trkpt lat="47.43091" lon="6.64717">
        <ele>417.9</ele>
        <time>2017-06-11T08:32:26.000Z</time>
      </trkpt>
      <trkpt lat="47.43088" lon="6.64715">
        <ele>417.8</ele>
        <time>2017-06-11T08:32:27.000Z</time>
      </trkpt>
      <trkpt lat="47.43085" lon="6.64714">
        <ele>417.8</ele>
        <time>2017-06-11T08:32:28.000Z</time>
      </trkpt>
      <trkpt lat="47.43083" lon="6.64713">
        <ele>417.9</ele>
        <time>2017-06-11T08:32:29.000Z</time>
      </trkpt>
      <trkpt lat="47.43081" lon="6.64711">
        <ele>417.9</ele>
        <time>2017-06-11T08:32:30.000Z</time>
      </trkpt>
      <trkpt lat="47.43078" lon="6.64709">
        <ele>418.1</ele>
        <time>2017-06-11T08:32:31.000Z</time>
      </trkpt>
      <trkpt lat="47.43075" lon="6.64709">
        <ele>418.2</ele>
        <time>2017-06-11T08:32:32.000Z</time>
      </trkpt>
      <trkpt lat="47.43073" lon="6.64708">
        <ele>418.4</ele>
        <time>2017-06-11T08:32:33.000Z</time>
      </trkpt>
      <trkpt lat="47.4307" lon="6.64707">
        <ele>418.6</ele>
        <time>2017-06-11T08:32:34.000Z</time>
      </trkpt>
      <trkpt lat="47.43067" lon="6.64706">
        <ele>418.7</ele>
        <time>2017-06-11T08:32:35.000Z</time>
      </trkpt>
      <trkpt lat="47.43065" lon="6.64705">
        <ele>418.8</ele>
        <time>2017-06-11T08:32:36.000Z</time>
      </trkpt>
      <trkpt lat="47.43061" lon="6.64704">
        <ele>419.2</ele>
        <time>2017-06-11T08:32:38.000Z</time>
      </trkpt>
      <trkpt lat="47.43058" lon="6.64703">
        <ele>419.4</ele>
        <time>2017-06-11T08:32:39.000Z</time>
      </trkpt>
      <trkpt lat="47.43056" lon="6.647">
        <ele>419.5</ele>
        <time>2017-06-11T08:32:40.000Z</time>
      </trkpt>
      <trkpt lat="47.43053" lon="6.64698">
        <ele>419.6</ele>
        <time>2017-06-11T08:32:41.000Z</time>
      </trkpt>
      <trkpt lat="47.43051" lon="6.64696">
        <ele>419.7</ele>
        <time>2017-06-11T08:32:42.000Z</time>
      </trkpt>
      <trkpt lat="47.43048" lon="6.64694">
        <ele>419.8</ele>
        <time>2017-06-11T08:32:43.000Z</time>
      </trkpt>
      <trkpt lat="47.43045" lon="6.6469">
        <ele>419.8</ele>
        <time>2017-06-11T08:32:44.000Z</time>
      </trkpt>
      <trkpt lat="47.43042" lon="6.64687">
        <ele>419.9</ele>
        <time>2017-06-11T08:32:45.000Z</time>
      </trkpt>
      <trkpt lat="47.4304" lon="6.64684">
        <ele>419.9</ele>
        <time>2017-06-11T08:32:46.000Z</time>
      </trkpt>
      <trkpt lat="47.43036" lon="6.64682">
        <ele>420</ele>
        <time>2017-06-11T08:32:47.000Z</time>
      </trkpt>
      <trkpt lat="47.43033" lon="6.64678">
        <ele>419.8</ele>
        <time>2017-06-11T08:32:48.000Z</time>
      </trkpt>
      <trkpt lat="47.4303" lon="6.64675">
        <ele>420.2</ele>
        <time>2017-06-11T08:32:49.000Z</time>
      </trkpt>
      <trkpt lat="47.43024" lon="6.64669">
        <ele>419.9</ele>
        <time>2017-06-11T08:32:50.000Z</time>
      </trkpt>
      <trkpt lat="47.43017" lon="6.64667">
        <ele>420.3</ele>
        <time>2017-06-11T08:32:51.000Z</time>
      </trkpt>
      <trkpt lat="47.43008" lon="6.64665">
        <ele>420.6</ele>
        <time>2017-06-11T08:32:52.000Z</time>
      </trkpt>
      <trkpt lat="47.43002" lon="6.64663">
        <ele>421</ele>
        <time>2017-06-11T08:32:53.000Z</time>
      </trkpt>
      <trkpt lat="47.42996" lon="6.64658">
        <ele>421.5</ele>
        <time>2017-06-11T08:32:54.000Z</time>
      </trkpt>
      <trkpt lat="47.42989" lon="6.64654">
        <ele>422.2</ele>
        <time>2017-06-11T08:32:55.000Z</time>
      </trkpt>
      <trkpt lat="47.42983" lon="6.64653">
        <ele>424</ele>
        <time>2017-06-11T08:32:56.000Z</time>
      </trkpt>
      <trkpt lat="47.42976" lon="6.64656">
        <ele>425.6</ele>
        <time>2017-06-11T08:32:57.000Z</time>
      </trkpt>
      <trkpt lat="47.42971" lon="6.64662">
        <ele>426.3</ele>
        <time>2017-06-11T08:32:58.000Z</time>
      </trkpt>
      <trkpt lat="47.42967" lon="6.64669">
        <ele>427</ele>
        <time>2017-06-11T08:32:59.000Z</time>
      </trkpt>
      <trkpt lat="47.42966" lon="6.64676">
        <ele>427.3</ele>
        <time>2017-06-11T08:33:00.000Z</time>
      </trkpt>
      <trkpt lat="47.42964" lon="6.64683">
        <ele>428.2</ele>
        <time>2017-06-11T08:33:01.000Z</time>
      </trkpt>
      <trkpt lat="47.42963" lon="6.64691">
        <ele>429.4</ele>
        <time>2017-06-11T08:33:02.000Z</time>
      </trkpt>
      <trkpt lat="47.42962" lon="6.64698">
        <ele>430</ele>
        <time>2017-06-11T08:33:03.000Z</time>
      </trkpt>
      <trkpt lat="47.42961" lon="6.64705">
        <ele>431</ele>
        <time>2017-06-11T08:33:04.000Z</time>
      </trkpt>
      <trkpt lat="47.42959" lon="6.64711">
        <ele>431.7</ele>
        <time>2017-06-11T08:33:05.000Z</time>
      </trkpt>
      <trkpt lat="47.42959" lon="6.64719">
        <ele>431.7</ele>
        <time>2017-06-11T08:33:06.000Z</time>
      </trkpt>
      <trkpt lat="47.42958" lon="6.64727">
        <ele>431.1</ele>
        <time>2017-06-11T08:33:07.000Z</time>
      </trkpt>
      <trkpt lat="47.42958" lon="6.64734">
        <ele>431.3</ele>
        <time>2017-06-11T08:33:08.000Z</time>
      </trkpt>
      <trkpt lat="47.42957" lon="6.64742">
        <ele>431.5</ele>
        <time>2017-06-11T08:33:09.000Z</time>
      </trkpt>
      <trkpt lat="47.42956" lon="6.64749">
        <ele>432.4</ele>
        <time>2017-06-11T08:33:10.000Z</time>
      </trkpt>
      <trkpt lat="47.42955" lon="6.64756">
        <ele>432.8</ele>
        <time>2017-06-11T08:33:11.000Z</time>
      </trkpt>
      <trkpt lat="47.42955" lon="6.64764">
        <ele>432.3</ele>
        <time>2017-06-11T08:33:12.000Z</time>
      </trkpt>
      <trkpt lat="47.42951" lon="6.6477">
        <ele>432.3</ele>
        <time>2017-06-11T08:33:13.000Z</time>
      </trkpt>
      <trkpt lat="47.42946" lon="6.64771">
        <ele>432.1</ele>
        <time>2017-06-11T08:33:14.000Z</time>
      </trkpt>
      <trkpt lat="47.42942" lon="6.64772">
        <ele>430.9</ele>
        <time>2017-06-11T08:33:15.000Z</time>
      </trkpt>
      <trkpt lat="47.42937" lon="6.64772">
        <ele>429.8</ele>
        <time>2017-06-11T08:33:16.000Z</time>
      </trkpt>
      <trkpt lat="47.42932" lon="6.64773">
        <ele>429.3</ele>
        <time>2017-06-11T08:33:17.000Z</time>
      </trkpt>
      <trkpt lat="47.42928" lon="6.64777">
        <ele>429.1</ele>
        <time>2017-06-11T08:33:18.000Z</time>
      </trkpt>
      <trkpt lat="47.42923" lon="6.6478">
        <ele>429.1</ele>
        <time>2017-06-11T08:33:19.000Z</time>
      </trkpt>
      <trkpt lat="47.4292" lon="6.64783">
        <ele>428.3</ele>
        <time>2017-06-11T08:33:20.000Z</time>
      </trkpt>
      <trkpt lat="47.42916" lon="6.64785">
        <ele>427.4</ele>
        <time>2017-06-11T08:33:21.000Z</time>
      </trkpt>
      <trkpt lat="47.42911" lon="6.64787">
        <ele>426.2</ele>
        <time>2017-06-11T08:33:22.000Z</time>
      </trkpt>
      <trkpt lat="47.42907" lon="6.64787">
        <ele>425.1</ele>
        <time>2017-06-11T08:33:23.000Z</time>
      </trkpt>
      <trkpt lat="47.42903" lon="6.64787">
        <ele>424.4</ele>
        <time>2017-06-11T08:33:24.000Z</time>
      </trkpt>
      <trkpt lat="47.42898" lon="6.64786">
        <ele>423.9</ele>
        <time>2017-06-11T08:33:25.000Z</time>
      </trkpt>
      <trkpt lat="47.42892" lon="6.64784">
        <ele>423.4</ele>
        <time>2017-06-11T08:33:26.000Z</time>
      </trkpt>
      <trkpt lat="47.42886" lon="6.64784">
        <ele>422.7</ele>
        <time>2017-06-11T08:33:27.000Z</time>
      </trkpt>
      <trkpt lat="47.42881" lon="6.64787">
        <ele>422.1</ele>
        <time>2017-06-11T08:33:28.000Z</time>
      </trkpt>
      <trkpt lat="47.4288" lon="6.64794">
        <ele>420.1</ele>
        <time>2017-06-11T08:33:29.000Z</time>
      </trkpt>
      <trkpt lat="47.42881" lon="6.64802">
        <ele>419.1</ele>
        <time>2017-06-11T08:33:30.000Z</time>
      </trkpt>
      <trkpt lat="47.42882" lon="6.6481">
        <ele>419.1</ele>
        <time>2017-06-11T08:33:31.000Z</time>
      </trkpt>
      <trkpt lat="47.4288" lon="6.64817">
        <ele>419</ele>
        <time>2017-06-11T08:33:32.000Z</time>
      </trkpt>
      <trkpt lat="47.4288" lon="6.64822">
        <ele>418.8</ele>
        <time>2017-06-11T08:33:33.000Z</time>
      </trkpt>
      <trkpt lat="47.4288" lon="6.64828">
        <ele>418.7</ele>
        <time>2017-06-11T08:33:34.000Z</time>
      </trkpt>
      <trkpt lat="47.4288" lon="6.64834">
        <ele>418.5</ele>
        <time>2017-06-11T08:33:35.000Z</time>
      </trkpt>
      <trkpt lat="47.4288" lon="6.6484">
        <ele>418.4</ele>
        <time>2017-06-11T08:33:36.000Z</time>
      </trkpt>
      <trkpt lat="47.42879" lon="6.64846">
        <ele>418.3</ele>
        <time>2017-06-11T08:33:37.000Z</time>
      </trkpt>
      <trkpt lat="47.42878" lon="6.6485">
        <ele>418.2</ele>
        <time>2017-06-11T08:33:38.000Z</time>
      </trkpt>
      <trkpt lat="47.42877" lon="6.64855">
        <ele>418.2</ele>
        <time>2017-06-11T08:33:40.000Z</time>
      </trkpt>
      <trkpt lat="47.42877" lon="6.64859">
        <ele>418.2</ele>
        <time>2017-06-11T08:33:41.000Z</time>
      </trkpt>
      <trkpt lat="47.42877" lon="6.64863">
        <ele>418.2</ele>
        <time>2017-06-11T08:33:42.000Z</time>
      </trkpt>
      <trkpt lat="47.42876" lon="6.64868">
        <ele>418.2</ele>
        <time>2017-06-11T08:33:43.000Z</time>
      </trkpt>
      <trkpt lat="47.42876" lon="6.64872">
        <ele>418.2</ele>
        <time>2017-06-11T08:33:44.000Z</time>
      </trkpt>
      <trkpt lat="47.42875" lon="6.64877">
        <ele>418.2</ele>
        <time>2017-06-11T08:33:45.000Z</time>
      </trkpt>
      <trkpt lat="47.42875" lon="6.64882">
        <ele>418.2</ele>
        <time>2017-06-11T08:33:46.000Z</time>
      </trkpt>
      <trkpt lat="47.42874" lon="6.64887">
        <ele>418.2</ele>
        <time>2017-06-11T08:33:47.000Z</time>
      </trkpt>
      <trkpt lat="47.42873" lon="6.64892">
        <ele>418.2</ele>
        <time>2017-06-11T08:33:48.000Z</time>
      </trkpt>
      <trkpt lat="47.42872" lon="6.64898">
        <ele>418.2</ele>
        <time>2017-06-11T08:33:49.000Z</time>
      </trkpt>
      <trkpt lat="47.42871" lon="6.64903">
        <ele>418.2</ele>
        <time>2017-06-11T08:33:50.000Z</time>
      </trkpt>
      <trkpt lat="47.42871" lon="6.64908">
        <ele>418.2</ele>
        <time>2017-06-11T08:33:51.000Z</time>
      </trkpt>
      <trkpt lat="47.4287" lon="6.64912">
        <ele>418.2</ele>
        <time>2017-06-11T08:33:52.000Z</time>
      </trkpt>
      <trkpt lat="47.42868" lon="6.64917">
        <ele>418.1</ele>
        <time>2017-06-11T08:33:53.000Z</time>
      </trkpt>
      <trkpt lat="47.42868" lon="6.64921">
        <ele>418.1</ele>
        <time>2017-06-11T08:33:54.000Z</time>
      </trkpt>
      <trkpt lat="47.42867" lon="6.64924">
        <ele>418</ele>
        <time>2017-06-11T08:33:55.000Z</time>
      </trkpt>
      <trkpt lat="47.42866" lon="6.64928">
        <ele>418</ele>
        <time>2017-06-11T08:33:56.000Z</time>
      </trkpt>
      <trkpt lat="47.42865" lon="6.64931">
        <ele>418.1</ele>
        <time>2017-06-11T08:33:57.000Z</time>
      </trkpt>
      <trkpt lat="47.42865" lon="6.64934">
        <ele>418.2</ele>
        <time>2017-06-11T08:33:58.000Z</time>
      </trkpt>
      <trkpt lat="47.42864" lon="6.64937">
        <ele>418.2</ele>
        <time>2017-06-11T08:33:59.000Z</time>
      </trkpt>
      <trkpt lat="47.42862" lon="6.64941">
        <ele>418.3</ele>
        <time>2017-06-11T08:34:00.000Z</time>
      </trkpt>
      <trkpt lat="47.4286" lon="6.64945">
        <ele>418.3</ele>
        <time>2017-06-11T08:34:01.000Z</time>
      </trkpt>
      <trkpt lat="47.42859" lon="6.6495">
        <ele>417.9</ele>
        <time>2017-06-11T08:34:04.000Z</time>
      </trkpt>
      <trkpt lat="47.42859" lon="6.64954">
        <ele>417.7</ele>
        <time>2017-06-11T08:34:05.000Z</time>
      </trkpt>
      <trkpt lat="47.42861" lon="6.64958">
        <ele>417.4</ele>
        <time>2017-06-11T08:34:07.000Z</time>
      </trkpt>
      <trkpt lat="47.42863" lon="6.64959">
        <ele>417.3</ele>
        <time>2017-06-11T08:34:08.000Z</time>
      </trkpt>
      <trkpt lat="47.42865" lon="6.64961">
        <ele>417.2</ele>
        <time>2017-06-11T08:34:09.000Z</time>
      </trkpt>
      <trkpt lat="47.42867" lon="6.64963">
        <ele>417.2</ele>
        <time>2017-06-11T08:34:10.000Z</time>
      </trkpt>
      <trkpt lat="47.42871" lon="6.64965">
        <ele>417.2</ele>
        <time>2017-06-11T08:34:11.000Z</time>
      </trkpt>
      <trkpt lat="47.42873" lon="6.64967">
        <ele>417.3</ele>
        <time>2017-06-11T08:34:12.000Z</time>
      </trkpt>
      <trkpt lat="47.42877" lon="6.64969">
        <ele>417.6</ele>
        <time>2017-06-11T08:34:15.000Z</time>
      </trkpt>
      <trkpt lat="47.42878" lon="6.64969">
        <ele>417.7</ele>
        <time>2017-06-11T08:34:16.000Z</time>
      </trkpt>
      <trkpt lat="47.42881" lon="6.64969">
        <ele>417.9</ele>
        <time>2017-06-11T08:34:17.000Z</time>
      </trkpt>
      <trkpt lat="47.42884" lon="6.64969">
        <ele>417.9</ele>
        <time>2017-06-11T08:34:18.000Z</time>
      </trkpt>
      <trkpt lat="47.42887" lon="6.64969">
        <ele>418</ele>
        <time>2017-06-11T08:34:20.000Z</time>
      </trkpt>
      <trkpt lat="47.42889" lon="6.64969">
        <ele>418.1</ele>
        <time>2017-06-11T08:34:21.000Z</time>
      </trkpt>
      <trkpt lat="47.42892" lon="6.6497">
        <ele>418.3</ele>
        <time>2017-06-11T08:34:22.000Z</time>
      </trkpt>
      <trkpt lat="47.42894" lon="6.64971">
        <ele>418.5</ele>
        <time>2017-06-11T08:34:23.000Z</time>
      </trkpt>
      <trkpt lat="47.42898" lon="6.64972">
        <ele>418.7</ele>
        <time>2017-06-11T08:34:24.000Z</time>
      </trkpt>
      <trkpt lat="47.42902" lon="6.64974">
        <ele>418.8</ele>
        <time>2017-06-11T08:34:25.000Z</time>
      </trkpt>
      <trkpt lat="47.42906" lon="6.64976">
        <ele>419</ele>
        <time>2017-06-11T08:34:26.000Z</time>
      </trkpt>
      <trkpt lat="47.42908" lon="6.64977">
        <ele>419.2</ele>
        <time>2017-06-11T08:34:27.000Z</time>
      </trkpt>
      <trkpt lat="47.42911" lon="6.64979">
        <ele>419.4</ele>
        <time>2017-06-11T08:34:28.000Z</time>
      </trkpt>
      <trkpt lat="47.42915" lon="6.64981">
        <ele>419.7</ele>
        <time>2017-06-11T08:34:29.000Z</time>
      </trkpt>
      <trkpt lat="47.42918" lon="6.64981">
        <ele>420</ele>
        <time>2017-06-11T08:34:30.000Z</time>
      </trkpt>
      <trkpt lat="47.42923" lon="6.64981">
        <ele>420.2</ele>
        <time>2017-06-11T08:34:31.000Z</time>
      </trkpt>
      <trkpt lat="47.42927" lon="6.64982">
        <ele>420.4</ele>
        <time>2017-06-11T08:34:32.000Z</time>
      </trkpt>
      <trkpt lat="47.4293" lon="6.64982">
        <ele>420.7</ele>
        <time>2017-06-11T08:34:33.000Z</time>
      </trkpt>
      <trkpt lat="47.42933" lon="6.64983">
        <ele>420.9</ele>
        <time>2017-06-11T08:34:34.000Z</time>
      </trkpt>
      <trkpt lat="47.42937" lon="6.64984">
        <ele>421.2</ele>
        <time>2017-06-11T08:34:35.000Z</time>
      </trkpt>
      <trkpt lat="47.4294" lon="6.64985">
        <ele>421.4</ele>
        <time>2017-06-11T08:34:36.000Z</time>
      </trkpt>
      <trkpt lat="47.42942" lon="6.64986">
        <ele>421.6</ele>
        <time>2017-06-11T08:34:37.000Z</time>
      </trkpt>
      <trkpt lat="47.42944" lon="6.64988">
        <ele>421.8</ele>
        <time>2017-06-11T08:34:38.000Z</time>
      </trkpt>
      <trkpt lat="47.42946" lon="6.6499">
        <ele>422</ele>
        <time>2017-06-11T08:34:39.000Z</time>
      </trkpt>
      <trkpt lat="47.42949" lon="6.64996">
        <ele>422.2</ele>
        <time>2017-06-11T08:34:41.000Z</time>
      </trkpt>
      <trkpt lat="47.4295" lon="6.64999">
        <ele>422.2</ele>
        <time>2017-06-11T08:34:42.000Z</time>
      </trkpt>
      <trkpt lat="47.4295" lon="6.65002">
        <ele>422.2</ele>
        <time>2017-06-11T08:34:43.000Z</time>
      </trkpt>
      <trkpt lat="47.42951" lon="6.65006">
        <ele>422.2</ele>
        <time>2017-06-11T08:34:44.000Z</time>
      </trkpt>
      <trkpt lat="47.42953" lon="6.6501">
        <ele>422.2</ele>
        <time>2017-06-11T08:34:45.000Z</time>
      </trkpt>
      <trkpt lat="47.42954" lon="6.65015">
        <ele>422</ele>
        <time>2017-06-11T08:34:46.000Z</time>
      </trkpt>
      <trkpt lat="47.42957" lon="6.6502">
        <ele>421.9</ele>
        <time>2017-06-11T08:34:47.000Z</time>
      </trkpt>
      <trkpt lat="47.42959" lon="6.65025">
        <ele>421.8</ele>
        <time>2017-06-11T08:34:48.000Z</time>
      </trkpt>
      <trkpt lat="47.4296" lon="6.6503">
        <ele>421.6</ele>
        <time>2017-06-11T08:34:49.000Z</time>
      </trkpt>
      <trkpt lat="47.42962" lon="6.65034">
        <ele>421.4</ele>
        <time>2017-06-11T08:34:50.000Z</time>
      </trkpt>
      <trkpt lat="47.42964" lon="6.65038">
        <ele>421.2</ele>
        <time>2017-06-11T08:34:51.000Z</time>
      </trkpt>
      <trkpt lat="47.42967" lon="6.65043">
        <ele>419.1</ele>
        <time>2017-06-11T08:34:52.000Z</time>
      </trkpt>
      <trkpt lat="47.42971" lon="6.65048">
        <ele>418.2</ele>
        <time>2017-06-11T08:34:53.000Z</time>
      </trkpt>
      <trkpt lat="47.42974" lon="6.65051">
        <ele>418</ele>
        <time>2017-06-11T08:34:54.000Z</time>
      </trkpt>
      <trkpt lat="47.42978" lon="6.65055">
        <ele>417.4</ele>
        <time>2017-06-11T08:34:55.000Z</time>
      </trkpt>
      <trkpt lat="47.42982" lon="6.65058">
        <ele>417</ele>
        <time>2017-06-11T08:34:56.000Z</time>
      </trkpt>
      <trkpt lat="47.42986" lon="6.65061">
        <ele>417.2</ele>
        <time>2017-06-11T08:34:57.000Z</time>
      </trkpt>
      <trkpt lat="47.4299" lon="6.65064">
        <ele>417.4</ele>
        <time>2017-06-11T08:34:58.000Z</time>
      </trkpt>
      <trkpt lat="47.42995" lon="6.65067">
        <ele>417.4</ele>
        <time>2017-06-11T08:34:59.000Z</time>
      </trkpt>
      <trkpt lat="47.43001" lon="6.6507">
        <ele>417.6</ele>
        <time>2017-06-11T08:35:00.000Z</time>
      </trkpt>
      <trkpt lat="47.43006" lon="6.65074">
        <ele>418.1</ele>
        <time>2017-06-11T08:35:01.000Z</time>
      </trkpt>
      <trkpt lat="47.43012" lon="6.65078">
        <ele>418.1</ele>
        <time>2017-06-11T08:35:02.000Z</time>
      </trkpt>
      <trkpt lat="47.43017" lon="6.65084">
        <ele>418.5</ele>
        <time>2017-06-11T08:35:03.000Z</time>
      </trkpt>
      <trkpt lat="47.4302" lon="6.6509">
        <ele>418.1</ele>
        <time>2017-06-11T08:35:04.000Z</time>
      </trkpt>
      <trkpt lat="47.43023" lon="6.65097">
        <ele>418.1</ele>
        <time>2017-06-11T08:35:05.000Z</time>
      </trkpt>
      <trkpt lat="47.43026" lon="6.65104">
        <ele>418.1</ele>
        <time>2017-06-11T08:35:06.000Z</time>
      </trkpt>
      <trkpt lat="47.43031" lon="6.6511">
        <ele>418</ele>
        <time>2017-06-11T08:35:07.000Z</time>
      </trkpt>
      <trkpt lat="47.43036" lon="6.65116">
        <ele>417.5</ele>
        <time>2017-06-11T08:35:08.000Z</time>
      </trkpt>
      <trkpt lat="47.43041" lon="6.65121">
        <ele>418</ele>
        <time>2017-06-11T08:35:09.000Z</time>
      </trkpt>
      <trkpt lat="47.43047" lon="6.65124">
        <ele>418</ele>
        <time>2017-06-11T08:35:10.000Z</time>
      </trkpt>
      <trkpt lat="47.43054" lon="6.65126">
        <ele>417.6</ele>
        <time>2017-06-11T08:35:11.000Z</time>
      </trkpt>
      <trkpt lat="47.4306" lon="6.65125">
        <ele>417.1</ele>
        <time>2017-06-11T08:35:12.000Z</time>
      </trkpt>
      <trkpt lat="47.43068" lon="6.65122">
        <ele>416.9</ele>
        <time>2017-06-11T08:35:13.000Z</time>
      </trkpt>
      <trkpt lat="47.43072" lon="6.65114">
        <ele>416.8</ele>
        <time>2017-06-11T08:35:14.000Z</time>
      </trkpt>
      <trkpt lat="47.43076" lon="6.65107">
        <ele>417.2</ele>
        <time>2017-06-11T08:35:15.000Z</time>
      </trkpt>
      <trkpt lat="47.43081" lon="6.651">
        <ele>416.8</ele>
        <time>2017-06-11T08:35:16.000Z</time>
      </trkpt>
      <trkpt lat="47.43088" lon="6.65093">
        <ele>416.8</ele>
        <time>2017-06-11T08:35:17.000Z</time>
      </trkpt>
      <trkpt lat="47.431" lon="6.65087">
        <ele>416.7</ele>
        <time>2017-06-11T08:35:18.000Z</time>
      </trkpt>
      <trkpt lat="47.43106" lon="6.65088">
        <ele>416.3</ele>
        <time>2017-06-11T08:35:19.000Z</time>
      </trkpt>
      <trkpt lat="47.43114" lon="6.6509">
        <ele>415.6</ele>
        <time>2017-06-11T08:35:20.000Z</time>
      </trkpt>
      <trkpt lat="47.43122" lon="6.65091">
        <ele>413.8</ele>
        <time>2017-06-11T08:35:21.000Z</time>
      </trkpt>
      <trkpt lat="47.43126" lon="6.65096">
        <ele>411.9</ele>
        <time>2017-06-11T08:35:22.000Z</time>
      </trkpt>
      <trkpt lat="47.43126" lon="6.65103">
        <ele>411.6</ele>
        <time>2017-06-11T08:35:23.000Z</time>
      </trkpt>
      <trkpt lat="47.43126" lon="6.65112">
        <ele>409.2</ele>
        <time>2017-06-11T08:35:24.000Z</time>
      </trkpt>
      <trkpt lat="47.43128" lon="6.65121">
        <ele>407.5</ele>
        <time>2017-06-11T08:35:25.000Z</time>
      </trkpt>
      <trkpt lat="47.43129" lon="6.65132">
        <ele>405.8</ele>
        <time>2017-06-11T08:35:26.000Z</time>
      </trkpt>
      <trkpt lat="47.43131" lon="6.65142">
        <ele>404.9</ele>
        <time>2017-06-11T08:35:27.000Z</time>
      </trkpt>
      <trkpt lat="47.43135" lon="6.65153">
        <ele>405</ele>
        <time>2017-06-11T08:35:28.000Z</time>
      </trkpt>
      <trkpt lat="47.43138" lon="6.65163">
        <ele>405.2</ele>
        <time>2017-06-11T08:35:29.000Z</time>
      </trkpt>
      <trkpt lat="47.43141" lon="6.65171">
        <ele>405</ele>
        <time>2017-06-11T08:35:30.000Z</time>
      </trkpt>
      <trkpt lat="47.43143" lon="6.65178">
        <ele>405.1</ele>
        <time>2017-06-11T08:35:31.000Z</time>
      </trkpt>
      <trkpt lat="47.43146" lon="6.65186">
        <ele>405.1</ele>
        <time>2017-06-11T08:35:32.000Z</time>
      </trkpt>
      <trkpt lat="47.43149" lon="6.65194">
        <ele>405.1</ele>
        <time>2017-06-11T08:35:33.000Z</time>
      </trkpt>
      <trkpt lat="47.43156" lon="6.65204">
        <ele>403.7</ele>
        <time>2017-06-11T08:35:34.000Z</time>
      </trkpt>
      <trkpt lat="47.43162" lon="6.65215">
        <ele>401.9</ele>
        <time>2017-06-11T08:35:35.000Z</time>
      </trkpt>
      <trkpt lat="47.43168" lon="6.65224">
        <ele>400</ele>
        <time>2017-06-11T08:35:36.000Z</time>
      </trkpt>
      <trkpt lat="47.43174" lon="6.65233">
        <ele>398.5</ele>
        <time>2017-06-11T08:35:37.000Z</time>
      </trkpt>
      <trkpt lat="47.4318" lon="6.65241">
        <ele>397.5</ele>
        <time>2017-06-11T08:35:38.000Z</time>
      </trkpt>
      <trkpt lat="47.43185" lon="6.6525">
        <ele>397.5</ele>
        <time>2017-06-11T08:35:39.000Z</time>
      </trkpt>
      <trkpt lat="47.43191" lon="6.65258">
        <ele>398.5</ele>
        <time>2017-06-11T08:35:40.000Z</time>
      </trkpt>
      <trkpt lat="47.43198" lon="6.65265">
        <ele>399.5</ele>
        <time>2017-06-11T08:35:41.000Z</time>
      </trkpt>
      <trkpt lat="47.43204" lon="6.65273">
        <ele>400.4</ele>
        <time>2017-06-11T08:35:42.000Z</time>
      </trkpt>
      <trkpt lat="47.4321" lon="6.65284">
        <ele>400.8</ele>
        <time>2017-06-11T08:35:43.000Z</time>
      </trkpt>
      <trkpt lat="47.43216" lon="6.65294">
        <ele>401.4</ele>
        <time>2017-06-11T08:35:44.000Z</time>
      </trkpt>
      <trkpt lat="47.43223" lon="6.65307">
        <ele>402.3</ele>
        <time>2017-06-11T08:35:45.000Z</time>
      </trkpt>
      <trkpt lat="47.43228" lon="6.65318">
        <ele>402.3</ele>
        <time>2017-06-11T08:35:46.000Z</time>
      </trkpt>
      <trkpt lat="47.43232" lon="6.6533">
        <ele>402.5</ele>
        <time>2017-06-11T08:35:47.000Z</time>
      </trkpt>
      <trkpt lat="47.43237" lon="6.65338">
        <ele>402.5</ele>
        <time>2017-06-11T08:35:48.000Z</time>
      </trkpt>
      <trkpt lat="47.43242" lon="6.65346">
        <ele>402.3</ele>
        <time>2017-06-11T08:35:49.000Z</time>
      </trkpt>
      <trkpt lat="47.43247" lon="6.65352">
        <ele>401.4</ele>
        <time>2017-06-11T08:35:50.000Z</time>
      </trkpt>
      <trkpt lat="47.4325" lon="6.65357">
        <ele>400</ele>
        <time>2017-06-11T08:35:51.000Z</time>
      </trkpt>
      <trkpt lat="47.43253" lon="6.65362">
        <ele>399.8</ele>
        <time>2017-06-11T08:35:52.000Z</time>
      </trkpt>
      <trkpt lat="47.43259" lon="6.65372">
        <ele>399.7</ele>
        <time>2017-06-11T08:35:53.000Z</time>
      </trkpt>
      <trkpt lat="47.43266" lon="6.65388">
        <ele>398.6</ele>
        <time>2017-06-11T08:35:54.000Z</time>
      </trkpt>
      <trkpt lat="47.43272" lon="6.65405">
        <ele>396.8</ele>
        <time>2017-06-11T08:35:55.000Z</time>
      </trkpt>
      <trkpt lat="47.43277" lon="6.65422">
        <ele>395.6</ele>
        <time>2017-06-11T08:35:56.000Z</time>
      </trkpt>
      <trkpt lat="47.43283" lon="6.65437">
        <ele>395.3</ele>
        <time>2017-06-11T08:35:57.000Z</time>
      </trkpt>
      <trkpt lat="47.43287" lon="6.65452">
        <ele>394.6</ele>
        <time>2017-06-11T08:35:58.000Z</time>
      </trkpt>
      <trkpt lat="47.43292" lon="6.65466">
        <ele>394.2</ele>
        <time>2017-06-11T08:35:59.000Z</time>
      </trkpt>
      <trkpt lat="47.43295" lon="6.65476">
        <ele>393.8</ele>
        <time>2017-06-11T08:36:00.000Z</time>
      </trkpt>
      <trkpt lat="47.43297" lon="6.65482">
        <ele>393.7</ele>
        <time>2017-06-11T08:36:01.000Z</time>
      </trkpt>
      <trkpt lat="47.433" lon="6.65485">
        <ele>392.7</ele>
        <time>2017-06-11T08:36:02.000Z</time>
      </trkpt>
      <trkpt lat="47.43303" lon="6.65487">
        <ele>392.2</ele>
        <time>2017-06-11T08:36:03.000Z</time>
      </trkpt>
      <trkpt lat="47.43308" lon="6.65486">
        <ele>392.5</ele>
        <time>2017-06-11T08:36:04.000Z</time>
      </trkpt>
      <trkpt lat="47.43312" lon="6.65482">
        <ele>393.2</ele>
        <time>2017-06-11T08:36:05.000Z</time>
      </trkpt>
      <trkpt lat="47.43317" lon="6.65477">
        <ele>394</ele>
        <time>2017-06-11T08:36:06.000Z</time>
      </trkpt>
      <trkpt lat="47.43323" lon="6.65472">
        <ele>395</ele>
        <time>2017-06-11T08:36:07.000Z</time>
      </trkpt>
      <trkpt lat="47.43328" lon="6.65465">
        <ele>395.7</ele>
        <time>2017-06-11T08:36:08.000Z</time>
      </trkpt>
      <trkpt lat="47.43334" lon="6.65459">
        <ele>395.9</ele>
        <time>2017-06-11T08:36:09.000Z</time>
      </trkpt>
      <trkpt lat="47.43339" lon="6.65452">
        <ele>396.5</ele>
        <time>2017-06-11T08:36:10.000Z</time>
      </trkpt>
      <trkpt lat="47.43345" lon="6.65445">
        <ele>397.1</ele>
        <time>2017-06-11T08:36:11.000Z</time>
      </trkpt>
      <trkpt lat="47.43351" lon="6.65439">
        <ele>397.1</ele>
        <time>2017-06-11T08:36:12.000Z</time>
      </trkpt>
      <trkpt lat="47.43356" lon="6.65434">
        <ele>396.8</ele>
        <time>2017-06-11T08:36:13.000Z</time>
      </trkpt>
      <trkpt lat="47.43362" lon="6.65428">
        <ele>396.8</ele>
        <time>2017-06-11T08:36:14.000Z</time>
      </trkpt>
      <trkpt lat="47.43367" lon="6.65424">
        <ele>397.1</ele>
        <time>2017-06-11T08:36:15.000Z</time>
      </trkpt>
      <trkpt lat="47.43372" lon="6.65419">
        <ele>397.5</ele>
        <time>2017-06-11T08:36:16.000Z</time>
      </trkpt>
      <trkpt lat="47.43378" lon="6.65414">
        <ele>398.4</ele>
        <time>2017-06-11T08:36:17.000Z</time>
      </trkpt>
      <trkpt lat="47.43383" lon="6.6541">
        <ele>399</ele>
        <time>2017-06-11T08:36:18.000Z</time>
      </trkpt>
      <trkpt lat="47.43388" lon="6.65406">
        <ele>400.1</ele>
        <time>2017-06-11T08:36:19.000Z</time>
      </trkpt>
      <trkpt lat="47.43394" lon="6.65402">
        <ele>401.1</ele>
        <time>2017-06-11T08:36:20.000Z</time>
      </trkpt>
      <trkpt lat="47.43399" lon="6.65399">
        <ele>401.6</ele>
        <time>2017-06-11T08:36:21.000Z</time>
      </trkpt>
      <trkpt lat="47.43405" lon="6.65396">
        <ele>402</ele>
        <time>2017-06-11T08:36:22.000Z</time>
      </trkpt>
      <trkpt lat="47.43412" lon="6.65396">
        <ele>402.1</ele>
        <time>2017-06-11T08:36:23.000Z</time>
      </trkpt>
      <trkpt lat="47.43419" lon="6.65398">
        <ele>401.3</ele>
        <time>2017-06-11T08:36:24.000Z</time>
      </trkpt>
      <trkpt lat="47.43424" lon="6.65405">
        <ele>401.3</ele>
        <time>2017-06-11T08:36:25.000Z</time>
      </trkpt>
      <trkpt lat="47.43429" lon="6.6541">
        <ele>400.8</ele>
        <time>2017-06-11T08:36:26.000Z</time>
      </trkpt>
      <trkpt lat="47.43434" lon="6.65416">
        <ele>400.5</ele>
        <time>2017-06-11T08:36:27.000Z</time>
      </trkpt>
      <trkpt lat="47.4344" lon="6.65421">
        <ele>399.4</ele>
        <time>2017-06-11T08:36:28.000Z</time>
      </trkpt>
      <trkpt lat="47.43447" lon="6.65423">
        <ele>397.5</ele>
        <time>2017-06-11T08:36:29.000Z</time>
      </trkpt>
      <trkpt lat="47.43453" lon="6.65425">
        <ele>396.2</ele>
        <time>2017-06-11T08:36:30.000Z</time>
      </trkpt>
      <trkpt lat="47.43459" lon="6.65427">
        <ele>395</ele>
        <time>2017-06-11T08:36:31.000Z</time>
      </trkpt>
      <trkpt lat="47.43466" lon="6.65426">
        <ele>394.2</ele>
        <time>2017-06-11T08:36:32.000Z</time>
      </trkpt>
      <trkpt lat="47.43472" lon="6.65424">
        <ele>393.7</ele>
        <time>2017-06-11T08:36:33.000Z</time>
      </trkpt>
      <trkpt lat="47.43477" lon="6.6542">
        <ele>392.8</ele>
        <time>2017-06-11T08:36:34.000Z</time>
      </trkpt>
      <trkpt lat="47.43483" lon="6.65416">
        <ele>392.4</ele>
        <time>2017-06-11T08:36:35.000Z</time>
      </trkpt>
      <trkpt lat="47.43488" lon="6.65412">
        <ele>392.1</ele>
        <time>2017-06-11T08:36:36.000Z</time>
      </trkpt>
      <trkpt lat="47.43493" lon="6.65407">
        <ele>391.8</ele>
        <time>2017-06-11T08:36:37.000Z</time>
      </trkpt>
      <trkpt lat="47.43497" lon="6.65401">
        <ele>391</ele>
        <time>2017-06-11T08:36:38.000Z</time>
      </trkpt>
      <trkpt lat="47.43502" lon="6.65396">
        <ele>390.8</ele>
        <time>2017-06-11T08:36:39.000Z</time>
      </trkpt>
      <trkpt lat="47.43507" lon="6.65391">
        <ele>391.2</ele>
        <time>2017-06-11T08:36:40.000Z</time>
      </trkpt>
      <trkpt lat="47.43512" lon="6.65386">
        <ele>392.3</ele>
        <time>2017-06-11T08:36:41.000Z</time>
      </trkpt>
      <trkpt lat="47.43516" lon="6.65381">
        <ele>392.2</ele>
        <time>2017-06-11T08:36:42.000Z</time>
      </trkpt>
      <trkpt lat="47.43521" lon="6.65375">
        <ele>392.6</ele>
        <time>2017-06-11T08:36:43.000Z</time>
      </trkpt>
      <trkpt lat="47.43526" lon="6.6537">
        <ele>392.7</ele>
        <time>2017-06-11T08:36:44.000Z</time>
      </trkpt>
      <trkpt lat="47.4353" lon="6.65366">
        <ele>393.4</ele>
        <time>2017-06-11T08:36:45.000Z</time>
      </trkpt>
      <trkpt lat="47.43535" lon="6.65361">
        <ele>393</ele>
        <time>2017-06-11T08:36:46.000Z</time>
      </trkpt>
      <trkpt lat="47.4354" lon="6.65356">
        <ele>392.4</ele>
        <time>2017-06-11T08:36:47.000Z</time>
      </trkpt>
      <trkpt lat="47.43544" lon="6.65352">
        <ele>391.7</ele>
        <time>2017-06-11T08:36:48.000Z</time>
      </trkpt>
      <trkpt lat="47.43548" lon="6.65348">
        <ele>390.4</ele>
        <time>2017-06-11T08:36:49.000Z</time>
      </trkpt>
      <trkpt lat="47.43553" lon="6.65343">
        <ele>389.5</ele>
        <time>2017-06-11T08:36:50.000Z</time>
      </trkpt>
      <trkpt lat="47.43559" lon="6.65336">
        <ele>388.8</ele>
        <time>2017-06-11T08:36:51.000Z</time>
      </trkpt>
      <trkpt lat="47.43564" lon="6.6533">
        <ele>388.7</ele>
        <time>2017-06-11T08:36:52.000Z</time>
      </trkpt>
      <trkpt lat="47.43569" lon="6.65325">
        <ele>389</ele>
        <time>2017-06-11T08:36:53.000Z</time>
      </trkpt>
      <trkpt lat="47.43574" lon="6.65319">
        <ele>388.3</ele>
        <time>2017-06-11T08:36:54.000Z</time>
      </trkpt>
      <trkpt lat="47.4358" lon="6.65314">
        <ele>387</ele>
        <time>2017-06-11T08:36:55.000Z</time>
      </trkpt>
      <trkpt lat="47.43585" lon="6.65308">
        <ele>386.8</ele>
        <time>2017-06-11T08:36:56.000Z</time>
      </trkpt>
      <trkpt lat="47.4359" lon="6.65302">
        <ele>386.9</ele>
        <time>2017-06-11T08:36:57.000Z</time>
      </trkpt>
      <trkpt lat="47.43594" lon="6.65297">
        <ele>387.1</ele>
        <time>2017-06-11T08:36:58.000Z</time>
      </trkpt>
      <trkpt lat="47.436" lon="6.65292">
        <ele>387.2</ele>
        <time>2017-06-11T08:36:59.000Z</time>
      </trkpt>
      <trkpt lat="47.43605" lon="6.65289">
        <ele>387.2</ele>
        <time>2017-06-11T08:37:00.000Z</time>
      </trkpt>
      <trkpt lat="47.43611" lon="6.65287">
        <ele>387.4</ele>
        <time>2017-06-11T08:37:01.000Z</time>
      </trkpt>
      <trkpt lat="47.43618" lon="6.65285">
        <ele>386.4</ele>
        <time>2017-06-11T08:37:02.000Z</time>
      </trkpt>
      <trkpt lat="47.43624" lon="6.65284">
        <ele>386.1</ele>
        <time>2017-06-11T08:37:03.000Z</time>
      </trkpt>
      <trkpt lat="47.4363" lon="6.65283">
        <ele>386.3</ele>
        <time>2017-06-11T08:37:04.000Z</time>
      </trkpt>
      <trkpt lat="47.43636" lon="6.65283">
        <ele>386.3</ele>
        <time>2017-06-11T08:37:05.000Z</time>
      </trkpt>
      <trkpt lat="47.43642" lon="6.65283">
        <ele>386.1</ele>
        <time>2017-06-11T08:37:06.000Z</time>
      </trkpt>
      <trkpt lat="47.43648" lon="6.65282">
        <ele>386</ele>
        <time>2017-06-11T08:37:07.000Z</time>
      </trkpt>
      <trkpt lat="47.43653" lon="6.65281">
        <ele>385.7</ele>
        <time>2017-06-11T08:37:08.000Z</time>
      </trkpt>
      <trkpt lat="47.4366" lon="6.6528">
        <ele>384.9</ele>
        <time>2017-06-11T08:37:09.000Z</time>
      </trkpt>
      <trkpt lat="47.43665" lon="6.65279">
        <ele>384.9</ele>
        <time>2017-06-11T08:37:10.000Z</time>
      </trkpt>
      <trkpt lat="47.43671" lon="6.65277">
        <ele>384.6</ele>
        <time>2017-06-11T08:37:11.000Z</time>
      </trkpt>
      <trkpt lat="47.43676" lon="6.65273">
        <ele>384.1</ele>
        <time>2017-06-11T08:37:12.000Z</time>
      </trkpt>
      <trkpt lat="47.43681" lon="6.65269">
        <ele>383.9</ele>
        <time>2017-06-11T08:37:13.000Z</time>
      </trkpt>
      <trkpt lat="47.43686" lon="6.65265">
        <ele>383.5</ele>
        <time>2017-06-11T08:37:14.000Z</time>
      </trkpt>
      <trkpt lat="47.4369" lon="6.6526">
        <ele>383</ele>
        <time>2017-06-11T08:37:15.000Z</time>
      </trkpt>
      <trkpt lat="47.43694" lon="6.65255">
        <ele>382.9</ele>
        <time>2017-06-11T08:37:16.000Z</time>
      </trkpt>
      <trkpt lat="47.43697" lon="6.65252">
        <ele>383</ele>
        <time>2017-06-11T08:37:17.000Z</time>
      </trkpt>
      <trkpt lat="47.43699" lon="6.65249">
        <ele>383</ele>
        <time>2017-06-11T08:37:18.000Z</time>
      </trkpt>
      <trkpt lat="47.43701" lon="6.65247">
        <ele>383</ele>
        <time>2017-06-11T08:37:19.000Z</time>
      </trkpt>
      <trkpt lat="47.43703" lon="6.65245">
        <ele>383</ele>
        <time>2017-06-11T08:37:20.000Z</time>
      </trkpt>
      <trkpt lat="47.43703" lon="6.65244">
        <ele>384.1</ele>
        <time>2017-06-11T08:38:32.000Z</time>
      </trkpt>
      <trkpt lat="47.43714" lon="6.65235">
        <ele>384</ele>
        <time>2017-06-11T08:38:33.000Z</time>
      </trkpt>
      <trkpt lat="47.43714" lon="6.65235">
        <ele>383.9</ele>
        <time>2017-06-11T08:38:35.000Z</time>
      </trkpt>
      <trkpt lat="47.43719" lon="6.65231">
        <ele>383.8</ele>
        <time>2017-06-11T08:38:36.000Z</time>
      </trkpt>
      <trkpt lat="47.43723" lon="6.65229">
        <ele>383.8</ele>
        <time>2017-06-11T08:38:38.000Z</time>
      </trkpt>
      <trkpt lat="47.43724" lon="6.65228">
        <ele>383.7</ele>
        <time>2017-06-11T08:38:39.000Z</time>
      </trkpt>
      <trkpt lat="47.43727" lon="6.65226">
        <ele>383.7</ele>
        <time>2017-06-11T08:38:40.000Z</time>
      </trkpt>
      <trkpt lat="47.43728" lon="6.65225">
        <ele>383.7</ele>
        <time>2017-06-11T08:38:41.000Z</time>
      </trkpt>
      <trkpt lat="47.43731" lon="6.65221">
        <ele>383.7</ele>
        <time>2017-06-11T08:38:43.000Z</time>
      </trkpt>
      <trkpt lat="47.43733" lon="6.6522">
        <ele>383.7</ele>
        <time>2017-06-11T08:38:44.000Z</time>
      </trkpt>
      <trkpt lat="47.43735" lon="6.65218">
        <ele>383.7</ele>
        <time>2017-06-11T08:38:45.000Z</time>
      </trkpt>
      <trkpt lat="47.43737" lon="6.65215">
        <ele>383.6</ele>
        <time>2017-06-11T08:38:46.000Z</time>
      </trkpt>
      <trkpt lat="47.4374" lon="6.65212">
        <ele>383.5</ele>
        <time>2017-06-11T08:38:47.000Z</time>
      </trkpt>
      <trkpt lat="47.43744" lon="6.65208">
        <ele>383.4</ele>
        <time>2017-06-11T08:38:48.000Z</time>
      </trkpt>
      <trkpt lat="47.43748" lon="6.65204">
        <ele>381.9</ele>
        <time>2017-06-11T08:38:49.000Z</time>
      </trkpt>
      <trkpt lat="47.43752" lon="6.65201">
        <ele>380.6</ele>
        <time>2017-06-11T08:38:50.000Z</time>
      </trkpt>
      <trkpt lat="47.43756" lon="6.65196">
        <ele>379.5</ele>
        <time>2017-06-11T08:38:51.000Z</time>
      </trkpt>
      <trkpt lat="47.43761" lon="6.65192">
        <ele>378.9</ele>
        <time>2017-06-11T08:38:52.000Z</time>
      </trkpt>
      <trkpt lat="47.43766" lon="6.65187">
        <ele>378</ele>
        <time>2017-06-11T08:38:53.000Z</time>
      </trkpt>
      <trkpt lat="47.4377" lon="6.65181">
        <ele>377.3</ele>
        <time>2017-06-11T08:38:54.000Z</time>
      </trkpt>
      <trkpt lat="47.43774" lon="6.65174">
        <ele>376.5</ele>
        <time>2017-06-11T08:38:55.000Z</time>
      </trkpt>
      <trkpt lat="47.43777" lon="6.65168">
        <ele>375.9</ele>
        <time>2017-06-11T08:38:56.000Z</time>
      </trkpt>
      <trkpt lat="47.43781" lon="6.65162">
        <ele>375.2</ele>
        <time>2017-06-11T08:38:57.000Z</time>
      </trkpt>
      <trkpt lat="47.43785" lon="6.65155">
        <ele>374.6</ele>
        <time>2017-06-11T08:38:58.000Z</time>
      </trkpt>
      <trkpt lat="47.43788" lon="6.65147">
        <ele>374.7</ele>
        <time>2017-06-11T08:38:59.000Z</time>
      </trkpt>
      <trkpt lat="47.43792" lon="6.65139">
        <ele>375</ele>
        <time>2017-06-11T08:39:00.000Z</time>
      </trkpt>
      <trkpt lat="47.43797" lon="6.65131">
        <ele>374.8</ele>
        <time>2017-06-11T08:39:01.000Z</time>
      </trkpt>
      <trkpt lat="47.43802" lon="6.65123">
        <ele>374.6</ele>
        <time>2017-06-11T08:39:02.000Z</time>
      </trkpt>
      <trkpt lat="47.43806" lon="6.65116">
        <ele>374.1</ele>
        <time>2017-06-11T08:39:03.000Z</time>
      </trkpt>
      <trkpt lat="47.43811" lon="6.65108">
        <ele>373.2</ele>
        <time>2017-06-11T08:39:04.000Z</time>
      </trkpt>
      <trkpt lat="47.43816" lon="6.65101">
        <ele>373</ele>
        <time>2017-06-11T08:39:05.000Z</time>
      </trkpt>
      <trkpt lat="47.43821" lon="6.65094">
        <ele>372.9</ele>
        <time>2017-06-11T08:39:06.000Z</time>
      </trkpt>
      <trkpt lat="47.43826" lon="6.65086">
        <ele>373.3</ele>
        <time>2017-06-11T08:39:07.000Z</time>
      </trkpt>
      <trkpt lat="47.43832" lon="6.65078">
        <ele>373</ele>
        <time>2017-06-11T08:39:08.000Z</time>
      </trkpt>
      <trkpt lat="47.43838" lon="6.65071">
        <ele>372.6</ele>
        <time>2017-06-11T08:39:09.000Z</time>
      </trkpt>
      <trkpt lat="47.43844" lon="6.65063">
        <ele>372.2</ele>
        <time>2017-06-11T08:39:10.000Z</time>
      </trkpt>
      <trkpt lat="47.4385" lon="6.65055">
        <ele>372.4</ele>
        <time>2017-06-11T08:39:11.000Z</time>
      </trkpt>
      <trkpt lat="47.43856" lon="6.65048">
        <ele>371.9</ele>
        <time>2017-06-11T08:39:12.000Z</time>
      </trkpt>
      <trkpt lat="47.43862" lon="6.65041">
        <ele>371.1</ele>
        <time>2017-06-11T08:39:13.000Z</time>
      </trkpt>
      <trkpt lat="47.43868" lon="6.65033">
        <ele>370.6</ele>
        <time>2017-06-11T08:39:14.000Z</time>
      </trkpt>
      <trkpt lat="47.43874" lon="6.65027">
        <ele>369.6</ele>
        <time>2017-06-11T08:39:15.000Z</time>
      </trkpt>
      <trkpt lat="47.4388" lon="6.65022">
        <ele>368.8</ele>
        <time>2017-06-11T08:39:16.000Z</time>
      </trkpt>
      <trkpt lat="47.43885" lon="6.65016">
        <ele>367.9</ele>
        <time>2017-06-11T08:39:17.000Z</time>
      </trkpt>
      <trkpt lat="47.43891" lon="6.6501">
        <ele>367.4</ele>
        <time>2017-06-11T08:39:18.000Z</time>
      </trkpt>
      <trkpt lat="47.43897" lon="6.65004">
        <ele>367.5</ele>
        <time>2017-06-11T08:39:19.000Z</time>
      </trkpt>
      <trkpt lat="47.43903" lon="6.64998">
        <ele>367.1</ele>
        <time>2017-06-11T08:39:20.000Z</time>
      </trkpt>
      <trkpt lat="47.43909" lon="6.64993">
        <ele>366</ele>
        <time>2017-06-11T08:39:21.000Z</time>
      </trkpt>
      <trkpt lat="47.43915" lon="6.64987">
        <ele>365</ele>
        <time>2017-06-11T08:39:22.000Z</time>
      </trkpt>
      <trkpt lat="47.43922" lon="6.64981">
        <ele>364</ele>
        <time>2017-06-11T08:39:23.000Z</time>
      </trkpt>
      <trkpt lat="47.43928" lon="6.64975">
        <ele>362.8</ele>
        <time>2017-06-11T08:39:24.000Z</time>
      </trkpt>
      <trkpt lat="47.43936" lon="6.64966">
        <ele>361.9</ele>
        <time>2017-06-11T08:39:25.000Z</time>
      </trkpt>
      <trkpt lat="47.43943" lon="6.64958">
        <ele>360.8</ele>
        <time>2017-06-11T08:39:26.000Z</time>
      </trkpt>
      <trkpt lat="47.4395" lon="6.64949">
        <ele>359.2</ele>
        <time>2017-06-11T08:39:27.000Z</time>
      </trkpt>
      <trkpt lat="47.43958" lon="6.64942">
        <ele>358.8</ele>
        <time>2017-06-11T08:39:28.000Z</time>
      </trkpt>
      <trkpt lat="47.43966" lon="6.64936">
        <ele>357.8</ele>
        <time>2017-06-11T08:39:29.000Z</time>
      </trkpt>
      <trkpt lat="47.43974" lon="6.64929">
        <ele>357.1</ele>
        <time>2017-06-11T08:39:30.000Z</time>
      </trkpt>
      <trkpt lat="47.43982" lon="6.64922">
        <ele>356.9</ele>
        <time>2017-06-11T08:39:31.000Z</time>
      </trkpt>
      <trkpt lat="47.43989" lon="6.64913">
        <ele>356.6</ele>
        <time>2017-06-11T08:39:32.000Z</time>
      </trkpt>
      <trkpt lat="47.43996" lon="6.64904">
        <ele>356</ele>
        <time>2017-06-11T08:39:33.000Z</time>
      </trkpt>
      <trkpt lat="47.44002" lon="6.64894">
        <ele>355.6</ele>
        <time>2017-06-11T08:39:34.000Z</time>
      </trkpt>
      <trkpt lat="47.44008" lon="6.64884">
        <ele>355.2</ele>
        <time>2017-06-11T08:39:35.000Z</time>
      </trkpt>
      <trkpt lat="47.44014" lon="6.64874">
        <ele>354.8</ele>
        <time>2017-06-11T08:39:36.000Z</time>
      </trkpt>
      <trkpt lat="47.44019" lon="6.64864">
        <ele>353.6</ele>
        <time>2017-06-11T08:39:37.000Z</time>
      </trkpt>
      <trkpt lat="47.44024" lon="6.64855">
        <ele>353.1</ele>
        <time>2017-06-11T08:39:38.000Z</time>
      </trkpt>
      <trkpt lat="47.44028" lon="6.64846">
        <ele>353</ele>
        <time>2017-06-11T08:39:39.000Z</time>
      </trkpt>
      <trkpt lat="47.44032" lon="6.64838">
        <ele>353.1</ele>
        <time>2017-06-11T08:39:40.000Z</time>
      </trkpt>
      <trkpt lat="47.44037" lon="6.6483">
        <ele>352.3</ele>
        <time>2017-06-11T08:39:41.000Z</time>
      </trkpt>
      <trkpt lat="47.44041" lon="6.64822">
        <ele>352.3</ele>
        <time>2017-06-11T08:39:42.000Z</time>
      </trkpt>
      <trkpt lat="47.44046" lon="6.64815">
        <ele>352.9</ele>
        <time>2017-06-11T08:39:43.000Z</time>
      </trkpt>
      <trkpt lat="47.44051" lon="6.64807">
        <ele>353.9</ele>
        <time>2017-06-11T08:39:44.000Z</time>
      </trkpt>
      <trkpt lat="47.44055" lon="6.64801">
        <ele>354.4</ele>
        <time>2017-06-11T08:39:45.000Z</time>
      </trkpt>
      <trkpt lat="47.4406" lon="6.64794">
        <ele>354.4</ele>
        <time>2017-06-11T08:39:46.000Z</time>
      </trkpt>
      <trkpt lat="47.44064" lon="6.64787">
        <ele>354.3</ele>
        <time>2017-06-11T08:39:47.000Z</time>
      </trkpt>
      <trkpt lat="47.44069" lon="6.64779">
        <ele>353.7</ele>
        <time>2017-06-11T08:39:48.000Z</time>
      </trkpt>
      <trkpt lat="47.44074" lon="6.64772">
        <ele>353.6</ele>
        <time>2017-06-11T08:39:49.000Z</time>
      </trkpt>
      <trkpt lat="47.44079" lon="6.64765">
        <ele>353.6</ele>
        <time>2017-06-11T08:39:50.000Z</time>
      </trkpt>
      <trkpt lat="47.44085" lon="6.64761">
        <ele>354.2</ele>
        <time>2017-06-11T08:39:51.000Z</time>
      </trkpt>
      <trkpt lat="47.44091" lon="6.64758">
        <ele>355.1</ele>
        <time>2017-06-11T08:39:52.000Z</time>
      </trkpt>
      <trkpt lat="47.44098" lon="6.64755">
        <ele>355.8</ele>
        <time>2017-06-11T08:39:53.000Z</time>
      </trkpt>
      <trkpt lat="47.44104" lon="6.64752">
        <ele>356.2</ele>
        <time>2017-06-11T08:39:54.000Z</time>
      </trkpt>
      <trkpt lat="47.44108" lon="6.64747">
        <ele>355.6</ele>
        <time>2017-06-11T08:39:55.000Z</time>
      </trkpt>
      <trkpt lat="47.44111" lon="6.64738">
        <ele>355.2</ele>
        <time>2017-06-11T08:39:56.000Z</time>
      </trkpt>
      <trkpt lat="47.44114" lon="6.6473">
        <ele>355.4</ele>
        <time>2017-06-11T08:39:57.000Z</time>
      </trkpt>
      <trkpt lat="47.44117" lon="6.64721">
        <ele>355.3</ele>
        <time>2017-06-11T08:39:58.000Z</time>
      </trkpt>
      <trkpt lat="47.4412" lon="6.64714">
        <ele>355</ele>
        <time>2017-06-11T08:39:59.000Z</time>
      </trkpt>
      <trkpt lat="47.44123" lon="6.64705">
        <ele>354.2</ele>
        <time>2017-06-11T08:40:00.000Z</time>
      </trkpt>
      <trkpt lat="47.44129" lon="6.64701">
        <ele>353.7</ele>
        <time>2017-06-11T08:40:01.000Z</time>
      </trkpt>
      <trkpt lat="47.44133" lon="6.64697">
        <ele>353.7</ele>
        <time>2017-06-11T08:40:02.000Z</time>
      </trkpt>
      <trkpt lat="47.44137" lon="6.64694">
        <ele>353.2</ele>
        <time>2017-06-11T08:40:03.000Z</time>
      </trkpt>
      <trkpt lat="47.44141" lon="6.6469">
        <ele>352.5</ele>
        <time>2017-06-11T08:40:04.000Z</time>
      </trkpt>
      <trkpt lat="47.44144" lon="6.64686">
        <ele>352.3</ele>
        <time>2017-06-11T08:40:05.000Z</time>
      </trkpt>
      <trkpt lat="47.44145" lon="6.64683">
        <ele>352.3</ele>
        <time>2017-06-11T08:40:06.000Z</time>
      </trkpt>
      <trkpt lat="47.44146" lon="6.64679">
        <ele>351.7</ele>
        <time>2017-06-11T08:40:07.000Z</time>
      </trkpt>
      <trkpt lat="47.44148" lon="6.64673">
        <ele>351.4</ele>
        <time>2017-06-11T08:40:08.000Z</time>
      </trkpt>
      <trkpt lat="47.44148" lon="6.64667">
        <ele>351.4</ele>
        <time>2017-06-11T08:40:09.000Z</time>
      </trkpt>
      <trkpt lat="47.44148" lon="6.64661">
        <ele>351.5</ele>
        <time>2017-06-11T08:40:10.000Z</time>
      </trkpt>
      <trkpt lat="47.44149" lon="6.64654">
        <ele>351.5</ele>
        <time>2017-06-11T08:40:11.000Z</time>
      </trkpt>
      <trkpt lat="47.4415" lon="6.64646">
        <ele>351.1</ele>
        <time>2017-06-11T08:40:12.000Z</time>
      </trkpt>
      <trkpt lat="47.44151" lon="6.6464">
        <ele>351.1</ele>
        <time>2017-06-11T08:40:13.000Z</time>
      </trkpt>
      <trkpt lat="47.44152" lon="6.64633">
        <ele>351.6</ele>
        <time>2017-06-11T08:40:14.000Z</time>
      </trkpt>
      <trkpt lat="47.44153" lon="6.64626">
        <ele>351.9</ele>
        <time>2017-06-11T08:40:15.000Z</time>
      </trkpt>
      <trkpt lat="47.44155" lon="6.6462">
        <ele>352.5</ele>
        <time>2017-06-11T08:40:16.000Z</time>
      </trkpt>
      <trkpt lat="47.44158" lon="6.64615">
        <ele>352.5</ele>
        <time>2017-06-11T08:40:17.000Z</time>
      </trkpt>
      <trkpt lat="47.4416" lon="6.64615">
        <ele>352.5</ele>
        <time>2017-06-11T08:40:18.000Z</time>
      </trkpt>
      <trkpt lat="47.44164" lon="6.64617">
        <ele>352.6</ele>
        <time>2017-06-11T08:40:21.000Z</time>
      </trkpt>
      <trkpt lat="47.44167" lon="6.64617">
        <ele>352.5</ele>
        <time>2017-06-11T08:40:22.000Z</time>
      </trkpt>
      <trkpt lat="47.4417" lon="6.64618">
        <ele>352.6</ele>
        <time>2017-06-11T08:40:23.000Z</time>
      </trkpt>
      <trkpt lat="47.44172" lon="6.64618">
        <ele>352.5</ele>
        <time>2017-06-11T08:40:24.000Z</time>
      </trkpt>
      <trkpt lat="47.44175" lon="6.64617">
        <ele>352.5</ele>
        <time>2017-06-11T08:40:26.000Z</time>
      </trkpt>
      <trkpt lat="47.44177" lon="6.64618">
        <ele>352.6</ele>
        <time>2017-06-11T08:40:27.000Z</time>
      </trkpt>
      <trkpt lat="47.4418" lon="6.64618">
        <ele>352.6</ele>
        <time>2017-06-11T08:40:28.000Z</time>
      </trkpt>
      <trkpt lat="47.44183" lon="6.64618">
        <ele>352.6</ele>
        <time>2017-06-11T08:40:29.000Z</time>
      </trkpt>
      <trkpt lat="47.44187" lon="6.64618">
        <ele>352.6</ele>
        <time>2017-06-11T08:40:31.000Z</time>
      </trkpt>
      <trkpt lat="47.44189" lon="6.64617">
        <ele>352.7</ele>
        <time>2017-06-11T08:40:32.000Z</time>
      </trkpt>
      <trkpt lat="47.44193" lon="6.64618">
        <ele>352.7</ele>
        <time>2017-06-11T08:40:34.000Z</time>
      </trkpt>
      <trkpt lat="47.44196" lon="6.64619">
        <ele>352.7</ele>
        <time>2017-06-11T08:40:35.000Z</time>
      </trkpt>
      <trkpt lat="47.44198" lon="6.6462">
        <ele>352.7</ele>
        <time>2017-06-11T08:40:36.000Z</time>
      </trkpt>
      <trkpt lat="47.44201" lon="6.6462">
        <ele>352.7</ele>
        <time>2017-06-11T08:40:37.000Z</time>
      </trkpt>
      <trkpt lat="47.44204" lon="6.64621">
        <ele>352.8</ele>
        <time>2017-06-11T08:40:38.000Z</time>
      </trkpt>
      <trkpt lat="47.44206" lon="6.64622">
        <ele>352.8</ele>
        <time>2017-06-11T08:40:39.000Z</time>
      </trkpt>
      <trkpt lat="47.44209" lon="6.64623">
        <ele>352.8</ele>
        <time>2017-06-11T08:40:40.000Z</time>
      </trkpt>
      <trkpt lat="47.44212" lon="6.64623">
        <ele>352.8</ele>
        <time>2017-06-11T08:40:41.000Z</time>
      </trkpt>
      <trkpt lat="47.44214" lon="6.64623">
        <ele>352.9</ele>
        <time>2017-06-11T08:40:42.000Z</time>
      </trkpt>
      <trkpt lat="47.44217" lon="6.64624">
        <ele>353</ele>
        <time>2017-06-11T08:40:43.000Z</time>
      </trkpt>
      <trkpt lat="47.4422" lon="6.64624">
        <ele>353.2</ele>
        <time>2017-06-11T08:40:45.000Z</time>
      </trkpt>
      <trkpt lat="47.44223" lon="6.64624">
        <ele>353.4</ele>
        <time>2017-06-11T08:40:46.000Z</time>
      </trkpt>
      <trkpt lat="47.44225" lon="6.64624">
        <ele>353.5</ele>
        <time>2017-06-11T08:40:47.000Z</time>
      </trkpt>
      <trkpt lat="47.44228" lon="6.64624">
        <ele>353.7</ele>
        <time>2017-06-11T08:40:48.000Z</time>
      </trkpt>
      <trkpt lat="47.44232" lon="6.64624">
        <ele>353.7</ele>
        <time>2017-06-11T08:40:49.000Z</time>
      </trkpt>
      <trkpt lat="47.44235" lon="6.64624">
        <ele>353.8</ele>
        <time>2017-06-11T08:40:50.000Z</time>
      </trkpt>
      <trkpt lat="47.44237" lon="6.64623">
        <ele>353.9</ele>
        <time>2017-06-11T08:40:51.000Z</time>
      </trkpt>
      <trkpt lat="47.4424" lon="6.64623">
        <ele>354</ele>
        <time>2017-06-11T08:40:52.000Z</time>
      </trkpt>
      <trkpt lat="47.44242" lon="6.64623">
        <ele>354.1</ele>
        <time>2017-06-11T08:40:53.000Z</time>
      </trkpt>
      <trkpt lat="47.44245" lon="6.64623">
        <ele>354.1</ele>
        <time>2017-06-11T08:40:54.000Z</time>
      </trkpt>
      <trkpt lat="47.44248" lon="6.64623">
        <ele>354.2</ele>
        <time>2017-06-11T08:40:55.000Z</time>
      </trkpt>
      <trkpt lat="47.4425" lon="6.64623">
        <ele>354.3</ele>
        <time>2017-06-11T08:40:56.000Z</time>
      </trkpt>
      <trkpt lat="47.44254" lon="6.64622">
        <ele>354.4</ele>
        <time>2017-06-11T08:40:58.000Z</time>
      </trkpt>
      <trkpt lat="47.44256" lon="6.64621">
        <ele>354.5</ele>
        <time>2017-06-11T08:40:59.000Z</time>
      </trkpt>
      <trkpt lat="47.4426" lon="6.64621">
        <ele>354.7</ele>
        <time>2017-06-11T08:41:01.000Z</time>
      </trkpt>
      <trkpt lat="47.44262" lon="6.64621">
        <ele>354.8</ele>
        <time>2017-06-11T08:41:02.000Z</time>
      </trkpt>
      <trkpt lat="47.44265" lon="6.64622">
        <ele>354.8</ele>
        <time>2017-06-11T08:41:03.000Z</time>
      </trkpt>
      <trkpt lat="47.44267" lon="6.64622">
        <ele>354.9</ele>
        <time>2017-06-11T08:41:04.000Z</time>
      </trkpt>
      <trkpt lat="47.44271" lon="6.64622">
        <ele>355.2</ele>
        <time>2017-06-11T08:41:06.000Z</time>
      </trkpt>
      <trkpt lat="47.44272" lon="6.64621">
        <ele>355.2</ele>
        <time>2017-06-11T08:41:07.000Z</time>
      </trkpt>
      <trkpt lat="47.44275" lon="6.6462">
        <ele>355.5</ele>
        <time>2017-06-11T08:41:09.000Z</time>
      </trkpt>
      <trkpt lat="47.44277" lon="6.64619">
        <ele>355.7</ele>
        <time>2017-06-11T08:41:10.000Z</time>
      </trkpt>
      <trkpt lat="47.44281" lon="6.64619">
        <ele>356</ele>
        <time>2017-06-11T08:41:12.000Z</time>
      </trkpt>
      <trkpt lat="47.44282" lon="6.64619">
        <ele>356.2</ele>
        <time>2017-06-11T08:41:13.000Z</time>
      </trkpt>
      <trkpt lat="47.44286" lon="6.64617">
        <ele>356.5</ele>
        <time>2017-06-11T08:41:15.000Z</time>
      </trkpt>
      <trkpt lat="47.44287" lon="6.64616">
        <ele>356.7</ele>
        <time>2017-06-11T08:41:16.000Z</time>
      </trkpt>
      <trkpt lat="47.44291" lon="6.64614">
        <ele>357.2</ele>
        <time>2017-06-11T08:41:20.000Z</time>
      </trkpt>
      <trkpt lat="47.44292" lon="6.64613">
        <ele>357.3</ele>
        <time>2017-06-11T08:41:21.000Z</time>
      </trkpt>
      <trkpt lat="47.44295" lon="6.6461">
        <ele>357.6</ele>
        <time>2017-06-11T08:41:24.000Z</time>
      </trkpt>
      <trkpt lat="47.44297" lon="6.64609">
        <ele>357.7</ele>
        <time>2017-06-11T08:41:25.000Z</time>
      </trkpt>
      <trkpt lat="47.44301" lon="6.64607">
        <ele>357.9</ele>
        <time>2017-06-11T08:41:27.000Z</time>
      </trkpt>
      <trkpt lat="47.44303" lon="6.64606">
        <ele>358</ele>
        <time>2017-06-11T08:41:28.000Z</time>
      </trkpt>
      <trkpt lat="47.44307" lon="6.64605">
        <ele>358.2</ele>
        <time>2017-06-11T08:41:31.000Z</time>
      </trkpt>
      <trkpt lat="47.44308" lon="6.64604">
        <ele>358.3</ele>
        <time>2017-06-11T08:41:32.000Z</time>
      </trkpt>
      <trkpt lat="47.44311" lon="6.64602">
        <ele>360.7</ele>
        <time>2017-06-11T08:41:47.000Z</time>
      </trkpt>
      <trkpt lat="47.4432" lon="6.64599">
        <ele>360.8</ele>
        <time>2017-06-11T08:41:48.000Z</time>
      </trkpt>
      <trkpt lat="47.4432" lon="6.64599">
        <ele>361.8</ele>
        <time>2017-06-11T08:41:54.000Z</time>
      </trkpt>
      <trkpt lat="47.44325" lon="6.64598">
        <ele>361.9</ele>
        <time>2017-06-11T08:41:55.000Z</time>
      </trkpt>
      <trkpt lat="47.44328" lon="6.64599">
        <ele>362.3</ele>
        <time>2017-06-11T08:41:58.000Z</time>
      </trkpt>
      <trkpt lat="47.44329" lon="6.646">
        <ele>362.3</ele>
        <time>2017-06-11T08:41:59.000Z</time>
      </trkpt>
      <trkpt lat="47.44333" lon="6.64602">
        <ele>362.6</ele>
        <time>2017-06-11T08:42:02.000Z</time>
      </trkpt>
      <trkpt lat="47.44335" lon="6.64603">
        <ele>362.6</ele>
        <time>2017-06-11T08:42:03.000Z</time>
      </trkpt>
      <trkpt lat="47.44338" lon="6.64604">
        <ele>362.8</ele>
        <time>2017-06-11T08:42:05.000Z</time>
      </trkpt>
      <trkpt lat="47.44339" lon="6.64605">
        <ele>363</ele>
        <time>2017-06-11T08:42:06.000Z</time>
      </trkpt>
      <trkpt lat="47.44343" lon="6.64605">
        <ele>363</ele>
        <time>2017-06-11T08:42:08.000Z</time>
      </trkpt>
      <trkpt lat="47.44345" lon="6.64605">
        <ele>363.1</ele>
        <time>2017-06-11T08:42:09.000Z</time>
      </trkpt>
      <trkpt lat="47.44349" lon="6.64606">
        <ele>363.2</ele>
        <time>2017-06-11T08:42:11.000Z</time>
      </trkpt>
      <trkpt lat="47.4435" lon="6.64606">
        <ele>363.3</ele>
        <time>2017-06-11T08:42:12.000Z</time>
      </trkpt>
      <trkpt lat="47.44352" lon="6.64606">
        <ele>363.5</ele>
        <time>2017-06-11T08:42:13.000Z</time>
      </trkpt>
      <trkpt lat="47.44355" lon="6.64606">
        <ele>363.6</ele>
        <time>2017-06-11T08:42:14.000Z</time>
      </trkpt>
      <trkpt lat="47.44357" lon="6.64606">
        <ele>363.8</ele>
        <time>2017-06-11T08:42:15.000Z</time>
      </trkpt>
      <trkpt lat="47.4436" lon="6.64606">
        <ele>363.9</ele>
        <time>2017-06-11T08:42:16.000Z</time>
      </trkpt>
      <trkpt lat="47.44363" lon="6.64605">
        <ele>364</ele>
        <time>2017-06-11T08:42:18.000Z</time>
      </trkpt>
      <trkpt lat="47.44366" lon="6.64604">
        <ele>364.2</ele>
        <time>2017-06-11T08:42:19.000Z</time>
      </trkpt>
      <trkpt lat="47.44368" lon="6.64603">
        <ele>364.3</ele>
        <time>2017-06-11T08:42:20.000Z</time>
      </trkpt>
      <trkpt lat="47.44371" lon="6.64601">
        <ele>364.5</ele>
        <time>2017-06-11T08:42:21.000Z</time>
      </trkpt>
      <trkpt lat="47.44375" lon="6.64598">
        <ele>366</ele>
        <time>2017-06-11T08:42:22.000Z</time>
      </trkpt>
      <trkpt lat="47.44377" lon="6.64596">
        <ele>366.1</ele>
        <time>2017-06-11T08:42:23.000Z</time>
      </trkpt>
      <trkpt lat="47.44381" lon="6.64594">
        <ele>366.3</ele>
        <time>2017-06-11T08:42:25.000Z</time>
      </trkpt>
      <trkpt lat="47.44383" lon="6.64593">
        <ele>366.4</ele>
        <time>2017-06-11T08:42:26.000Z</time>
      </trkpt>
      <trkpt lat="47.44386" lon="6.64591">
        <ele>366.4</ele>
        <time>2017-06-11T08:42:27.000Z</time>
      </trkpt>
      <trkpt lat="47.44389" lon="6.64589">
        <ele>366.6</ele>
        <time>2017-06-11T08:42:28.000Z</time>
      </trkpt>
      <trkpt lat="47.44393" lon="6.64587">
        <ele>366.7</ele>
        <time>2017-06-11T08:42:30.000Z</time>
      </trkpt>
      <trkpt lat="47.44396" lon="6.64585">
        <ele>366.8</ele>
        <time>2017-06-11T08:42:31.000Z</time>
      </trkpt>
      <trkpt lat="47.44398" lon="6.64583">
        <ele>366.8</ele>
        <time>2017-06-11T08:42:32.000Z</time>
      </trkpt>
      <trkpt lat="47.444" lon="6.64581">
        <ele>366.9</ele>
        <time>2017-06-11T08:42:33.000Z</time>
      </trkpt>
      <trkpt lat="47.44402" lon="6.64579">
        <ele>367</ele>
        <time>2017-06-11T08:42:34.000Z</time>
      </trkpt>
      <trkpt lat="47.44404" lon="6.64578">
        <ele>367.1</ele>
        <time>2017-06-11T08:42:35.000Z</time>
      </trkpt>
      <trkpt lat="47.44407" lon="6.64576">
        <ele>367.2</ele>
        <time>2017-06-11T08:42:36.000Z</time>
      </trkpt>
      <trkpt lat="47.44409" lon="6.64575">
        <ele>367.3</ele>
        <time>2017-06-11T08:42:37.000Z</time>
      </trkpt>
      <trkpt lat="47.4441" lon="6.6457">
        <ele>367.6</ele>
        <time>2017-06-11T08:42:39.000Z</time>
      </trkpt>
      <trkpt lat="47.44411" lon="6.64567">
        <ele>367.8</ele>
        <time>2017-06-11T08:42:40.000Z</time>
      </trkpt>
      <trkpt lat="47.44415" lon="6.64563">
        <ele>368.1</ele>
        <time>2017-06-11T08:42:42.000Z</time>
      </trkpt>
      <trkpt lat="47.44417" lon="6.64561">
        <ele>368.3</ele>
        <time>2017-06-11T08:42:43.000Z</time>
      </trkpt>
      <trkpt lat="47.4442" lon="6.64559">
        <ele>368.6</ele>
        <time>2017-06-11T08:42:45.000Z</time>
      </trkpt>
      <trkpt lat="47.44423" lon="6.64558">
        <ele>368.9</ele>
        <time>2017-06-11T08:42:46.000Z</time>
      </trkpt>
      <trkpt lat="47.44425" lon="6.64557">
        <ele>369.1</ele>
        <time>2017-06-11T08:42:47.000Z</time>
      </trkpt>
      <trkpt lat="47.44428" lon="6.64555">
        <ele>369.3</ele>
        <time>2017-06-11T08:42:48.000Z</time>
      </trkpt>
      <trkpt lat="47.4443" lon="6.64554">
        <ele>369.5</ele>
        <time>2017-06-11T08:42:49.000Z</time>
      </trkpt>
      <trkpt lat="47.44433" lon="6.64552">
        <ele>369.7</ele>
        <time>2017-06-11T08:42:50.000Z</time>
      </trkpt>
      <trkpt lat="47.44436" lon="6.64551">
        <ele>372.7</ele>
        <time>2017-06-11T08:42:51.000Z</time>
      </trkpt>
      <trkpt lat="47.44438" lon="6.6455">
        <ele>372.8</ele>
        <time>2017-06-11T08:42:52.000Z</time>
      </trkpt>
      <trkpt lat="47.44441" lon="6.64549">
        <ele>373</ele>
        <time>2017-06-11T08:42:53.000Z</time>
      </trkpt>
      <trkpt lat="47.44445" lon="6.64551">
        <ele>373.2</ele>
        <time>2017-06-11T08:42:54.000Z</time>
      </trkpt>
      <trkpt lat="47.4445" lon="6.64554">
        <ele>374.9</ele>
        <time>2017-06-11T08:42:55.000Z</time>
      </trkpt>
      <trkpt lat="47.44453" lon="6.64559">
        <ele>376.1</ele>
        <time>2017-06-11T08:42:56.000Z</time>
      </trkpt>
      <trkpt lat="47.44457" lon="6.64566">
        <ele>377.3</ele>
        <time>2017-06-11T08:42:57.000Z</time>
      </trkpt>
      <trkpt lat="47.44459" lon="6.64573">
        <ele>377.8</ele>
        <time>2017-06-11T08:42:58.000Z</time>
      </trkpt>
      <trkpt lat="47.44462" lon="6.64581">
        <ele>378.3</ele>
        <time>2017-06-11T08:42:59.000Z</time>
      </trkpt>
      <trkpt lat="47.44464" lon="6.64589">
        <ele>378.6</ele>
        <time>2017-06-11T08:43:00.000Z</time>
      </trkpt>
      <trkpt lat="47.44466" lon="6.64597">
        <ele>378.9</ele>
        <time>2017-06-11T08:43:01.000Z</time>
      </trkpt>
      <trkpt lat="47.44469" lon="6.64605">
        <ele>378.4</ele>
        <time>2017-06-11T08:43:02.000Z</time>
      </trkpt>
      <trkpt lat="47.44471" lon="6.64613">
        <ele>377.4</ele>
        <time>2017-06-11T08:43:03.000Z</time>
      </trkpt>
      <trkpt lat="47.44473" lon="6.64621">
        <ele>376.9</ele>
        <time>2017-06-11T08:43:04.000Z</time>
      </trkpt>
      <trkpt lat="47.44475" lon="6.6463">
        <ele>376.2</ele>
        <time>2017-06-11T08:43:05.000Z</time>
      </trkpt>
      <trkpt lat="47.44477" lon="6.64638">
        <ele>375.8</ele>
        <time>2017-06-11T08:43:06.000Z</time>
      </trkpt>
      <trkpt lat="47.44479" lon="6.64645">
        <ele>375</ele>
        <time>2017-06-11T08:43:07.000Z</time>
      </trkpt>
      <trkpt lat="47.44482" lon="6.64653">
        <ele>374.5</ele>
        <time>2017-06-11T08:43:08.000Z</time>
      </trkpt>
      <trkpt lat="47.44485" lon="6.64664">
        <ele>374</ele>
        <time>2017-06-11T08:43:09.000Z</time>
      </trkpt>
      <trkpt lat="47.44488" lon="6.64674">
        <ele>373.6</ele>
        <time>2017-06-11T08:43:10.000Z</time>
      </trkpt>
      <trkpt lat="47.44491" lon="6.64685">
        <ele>372.9</ele>
        <time>2017-06-11T08:43:11.000Z</time>
      </trkpt>
      <trkpt lat="47.44495" lon="6.64696">
        <ele>372.4</ele>
        <time>2017-06-11T08:43:12.000Z</time>
      </trkpt>
      <trkpt lat="47.44498" lon="6.64705">
        <ele>371.9</ele>
        <time>2017-06-11T08:43:13.000Z</time>
      </trkpt>
      <trkpt lat="47.44503" lon="6.64715">
        <ele>371.7</ele>
        <time>2017-06-11T08:43:14.000Z</time>
      </trkpt>
      <trkpt lat="47.44508" lon="6.64726">
        <ele>371.5</ele>
        <time>2017-06-11T08:43:15.000Z</time>
      </trkpt>
      <trkpt lat="47.44512" lon="6.64738">
        <ele>371.6</ele>
        <time>2017-06-11T08:43:16.000Z</time>
      </trkpt>
      <trkpt lat="47.44515" lon="6.64747">
        <ele>371.8</ele>
        <time>2017-06-11T08:43:17.000Z</time>
      </trkpt>
      <trkpt lat="47.44519" lon="6.64756">
        <ele>371.7</ele>
        <time>2017-06-11T08:43:18.000Z</time>
      </trkpt>
      <trkpt lat="47.44523" lon="6.64767">
        <ele>371.2</ele>
        <time>2017-06-11T08:43:19.000Z</time>
      </trkpt>
      <trkpt lat="47.44527" lon="6.6478">
        <ele>371.2</ele>
        <time>2017-06-11T08:43:20.000Z</time>
      </trkpt>
      <trkpt lat="47.44532" lon="6.64792">
        <ele>371.3</ele>
        <time>2017-06-11T08:43:21.000Z</time>
      </trkpt>
      <trkpt lat="47.44538" lon="6.64804">
        <ele>372.3</ele>
        <time>2017-06-11T08:43:22.000Z</time>
      </trkpt>
      <trkpt lat="47.44544" lon="6.64816">
        <ele>373.1</ele>
        <time>2017-06-11T08:43:23.000Z</time>
      </trkpt>
      <trkpt lat="47.4455" lon="6.64828">
        <ele>373.3</ele>
        <time>2017-06-11T08:43:24.000Z</time>
      </trkpt>
      <trkpt lat="47.44556" lon="6.64841">
        <ele>373.3</ele>
        <time>2017-06-11T08:43:25.000Z</time>
      </trkpt>
      <trkpt lat="47.44561" lon="6.64855">
        <ele>372.6</ele>
        <time>2017-06-11T08:43:26.000Z</time>
      </trkpt>
      <trkpt lat="47.44567" lon="6.64869">
        <ele>372.4</ele>
        <time>2017-06-11T08:43:27.000Z</time>
      </trkpt>
      <trkpt lat="47.44573" lon="6.64884">
        <ele>372.1</ele>
        <time>2017-06-11T08:43:28.000Z</time>
      </trkpt>
      <trkpt lat="47.44577" lon="6.649">
        <ele>370.4</ele>
        <time>2017-06-11T08:43:29.000Z</time>
      </trkpt>
      <trkpt lat="47.44581" lon="6.64913">
        <ele>368.2</ele>
        <time>2017-06-11T08:43:30.000Z</time>
      </trkpt>
      <trkpt lat="47.44586" lon="6.64927">
        <ele>367</ele>
        <time>2017-06-11T08:43:31.000Z</time>
      </trkpt>
      <trkpt lat="47.44591" lon="6.64941">
        <ele>365.4</ele>
        <time>2017-06-11T08:43:32.000Z</time>
      </trkpt>
      <trkpt lat="47.44596" lon="6.64956">
        <ele>365.1</ele>
        <time>2017-06-11T08:43:33.000Z</time>
      </trkpt>
      <trkpt lat="47.44603" lon="6.64967">
        <ele>364.9</ele>
        <time>2017-06-11T08:43:34.000Z</time>
      </trkpt>
      <trkpt lat="47.44611" lon="6.64979">
        <ele>365.3</ele>
        <time>2017-06-11T08:43:35.000Z</time>
      </trkpt>
      <trkpt lat="47.44619" lon="6.64987">
        <ele>365.1</ele>
        <time>2017-06-11T08:43:36.000Z</time>
      </trkpt>
      <trkpt lat="47.44627" lon="6.64995">
        <ele>363.7</ele>
        <time>2017-06-11T08:43:37.000Z</time>
      </trkpt>
      <trkpt lat="47.44633" lon="6.65003">
        <ele>362.2</ele>
        <time>2017-06-11T08:43:38.000Z</time>
      </trkpt>
      <trkpt lat="47.44639" lon="6.6501">
        <ele>361.2</ele>
        <time>2017-06-11T08:43:39.000Z</time>
      </trkpt>
      <trkpt lat="47.44645" lon="6.65017">
        <ele>359.7</ele>
        <time>2017-06-11T08:43:40.000Z</time>
      </trkpt>
      <trkpt lat="47.44649" lon="6.6502">
        <ele>358.2</ele>
        <time>2017-06-11T08:43:41.000Z</time>
      </trkpt>
      <trkpt lat="47.44654" lon="6.65014">
        <ele>357.9</ele>
        <time>2017-06-11T08:43:42.000Z</time>
      </trkpt>
      <trkpt lat="47.44659" lon="6.65007">
        <ele>357.2</ele>
        <time>2017-06-11T08:43:43.000Z</time>
      </trkpt>
      <trkpt lat="47.44663" lon="6.65">
        <ele>355.5</ele>
        <time>2017-06-11T08:43:44.000Z</time>
      </trkpt>
      <trkpt lat="47.44669" lon="6.64993">
        <ele>353.6</ele>
        <time>2017-06-11T08:43:45.000Z</time>
      </trkpt>
      <trkpt lat="47.44675" lon="6.64987">
        <ele>352.3</ele>
        <time>2017-06-11T08:43:46.000Z</time>
      </trkpt>
      <trkpt lat="47.44681" lon="6.64984">
        <ele>350.5</ele>
        <time>2017-06-11T08:43:47.000Z</time>
      </trkpt>
      <trkpt lat="47.44687" lon="6.64982">
        <ele>348.9</ele>
        <time>2017-06-11T08:43:48.000Z</time>
      </trkpt>
      <trkpt lat="47.44694" lon="6.6498">
        <ele>347.9</ele>
        <time>2017-06-11T08:43:49.000Z</time>
      </trkpt>
      <trkpt lat="47.447" lon="6.64979">
        <ele>346.9</ele>
        <time>2017-06-11T08:43:50.000Z</time>
      </trkpt>
      <trkpt lat="47.44707" lon="6.64978">
        <ele>347.1</ele>
        <time>2017-06-11T08:43:51.000Z</time>
      </trkpt>
      <trkpt lat="47.44714" lon="6.64976">
        <ele>347.7</ele>
        <time>2017-06-11T08:43:52.000Z</time>
      </trkpt>
      <trkpt lat="47.44721" lon="6.64975">
        <ele>348.2</ele>
        <time>2017-06-11T08:43:53.000Z</time>
      </trkpt>
      <trkpt lat="47.44727" lon="6.64974">
        <ele>348.3</ele>
        <time>2017-06-11T08:43:54.000Z</time>
      </trkpt>
      <trkpt lat="47.44733" lon="6.64972">
        <ele>347.9</ele>
        <time>2017-06-11T08:43:55.000Z</time>
      </trkpt>
      <trkpt lat="47.4474" lon="6.64971">
        <ele>347.9</ele>
        <time>2017-06-11T08:43:56.000Z</time>
      </trkpt>
      <trkpt lat="47.44745" lon="6.64969">
        <ele>348.2</ele>
        <time>2017-06-11T08:43:57.000Z</time>
      </trkpt>
      <trkpt lat="47.44751" lon="6.64969">
        <ele>348</ele>
        <time>2017-06-11T08:43:58.000Z</time>
      </trkpt>
      <trkpt lat="47.44756" lon="6.64968">
        <ele>348</ele>
        <time>2017-06-11T08:43:59.000Z</time>
      </trkpt>
      <trkpt lat="47.4476" lon="6.64967">
        <ele>348</ele>
        <time>2017-06-11T08:44:00.000Z</time>
      </trkpt>
      <trkpt lat="47.44765" lon="6.64965">
        <ele>348.6</ele>
        <time>2017-06-11T08:44:01.000Z</time>
      </trkpt>
      <trkpt lat="47.44769" lon="6.64965">
        <ele>348.6</ele>
        <time>2017-06-11T08:44:02.000Z</time>
      </trkpt>
      <trkpt lat="47.44773" lon="6.64964">
        <ele>348.8</ele>
        <time>2017-06-11T08:44:03.000Z</time>
      </trkpt>
      <trkpt lat="47.44777" lon="6.64963">
        <ele>348.8</ele>
        <time>2017-06-11T08:44:04.000Z</time>
      </trkpt>
      <trkpt lat="47.44781" lon="6.64962">
        <ele>349.1</ele>
        <time>2017-06-11T08:44:05.000Z</time>
      </trkpt>
      <trkpt lat="47.44785" lon="6.64961">
        <ele>349.1</ele>
        <time>2017-06-11T08:44:06.000Z</time>
      </trkpt>
      <trkpt lat="47.44789" lon="6.6496">
        <ele>349</ele>
        <time>2017-06-11T08:44:07.000Z</time>
      </trkpt>
      <trkpt lat="47.44792" lon="6.64959">
        <ele>348.9</ele>
        <time>2017-06-11T08:44:08.000Z</time>
      </trkpt>
      <trkpt lat="47.44795" lon="6.64959">
        <ele>348.9</ele>
        <time>2017-06-11T08:44:09.000Z</time>
      </trkpt>
      <trkpt lat="47.44798" lon="6.64959">
        <ele>348.9</ele>
        <time>2017-06-11T08:44:10.000Z</time>
      </trkpt>
      <trkpt lat="47.44802" lon="6.64959">
        <ele>348.9</ele>
        <time>2017-06-11T08:44:11.000Z</time>
      </trkpt>
      <trkpt lat="47.44805" lon="6.64958">
        <ele>349</ele>
        <time>2017-06-11T08:44:12.000Z</time>
      </trkpt>
      <trkpt lat="47.44809" lon="6.6496">
        <ele>349.3</ele>
        <time>2017-06-11T08:44:13.000Z</time>
      </trkpt>
      <trkpt lat="47.44813" lon="6.64962">
        <ele>349.1</ele>
        <time>2017-06-11T08:44:14.000Z</time>
      </trkpt>
      <trkpt lat="47.44818" lon="6.64963">
        <ele>348.9</ele>
        <time>2017-06-11T08:44:15.000Z</time>
      </trkpt>
      <trkpt lat="47.44823" lon="6.64965">
        <ele>348.4</ele>
        <time>2017-06-11T08:44:16.000Z</time>
      </trkpt>
      <trkpt lat="47.44828" lon="6.64967">
        <ele>348.3</ele>
        <time>2017-06-11T08:44:17.000Z</time>
      </trkpt>
      <trkpt lat="47.44833" lon="6.64969">
        <ele>348.8</ele>
        <time>2017-06-11T08:44:18.000Z</time>
      </trkpt>
      <trkpt lat="47.44838" lon="6.6497">
        <ele>348.9</ele>
        <time>2017-06-11T08:44:19.000Z</time>
      </trkpt>
      <trkpt lat="47.44843" lon="6.64972">
        <ele>348</ele>
        <time>2017-06-11T08:44:20.000Z</time>
      </trkpt>
      <trkpt lat="47.44848" lon="6.64973">
        <ele>347.7</ele>
        <time>2017-06-11T08:44:21.000Z</time>
      </trkpt>
      <trkpt lat="47.44853" lon="6.64975">
        <ele>346.9</ele>
        <time>2017-06-11T08:44:22.000Z</time>
      </trkpt>
      <trkpt lat="47.44859" lon="6.64977">
        <ele>346.2</ele>
        <time>2017-06-11T08:44:23.000Z</time>
      </trkpt>
      <trkpt lat="47.44865" lon="6.64979">
        <ele>345.7</ele>
        <time>2017-06-11T08:44:24.000Z</time>
      </trkpt>
      <trkpt lat="47.4487" lon="6.64981">
        <ele>345</ele>
        <time>2017-06-11T08:44:25.000Z</time>
      </trkpt>
      <trkpt lat="47.44874" lon="6.64982">
        <ele>344.6</ele>
        <time>2017-06-11T08:44:26.000Z</time>
      </trkpt>
      <trkpt lat="47.44878" lon="6.64984">
        <ele>345</ele>
        <time>2017-06-11T08:44:27.000Z</time>
      </trkpt>
      <trkpt lat="47.44884" lon="6.64986">
        <ele>346</ele>
        <time>2017-06-11T08:44:28.000Z</time>
      </trkpt>
      <trkpt lat="47.44889" lon="6.64987">
        <ele>346</ele>
        <time>2017-06-11T08:44:29.000Z</time>
      </trkpt>
      <trkpt lat="47.44894" lon="6.64989">
        <ele>346.5</ele>
        <time>2017-06-11T08:44:30.000Z</time>
      </trkpt>
      <trkpt lat="47.449" lon="6.6499">
        <ele>347.2</ele>
        <time>2017-06-11T08:44:31.000Z</time>
      </trkpt>
      <trkpt lat="47.44905" lon="6.64992">
        <ele>348.6</ele>
        <time>2017-06-11T08:44:32.000Z</time>
      </trkpt>
      <trkpt lat="47.4491" lon="6.64993">
        <ele>349.2</ele>
        <time>2017-06-11T08:44:33.000Z</time>
      </trkpt>
      <trkpt lat="47.44915" lon="6.64995">
        <ele>349.8</ele>
        <time>2017-06-11T08:44:34.000Z</time>
      </trkpt>
      <trkpt lat="47.4492" lon="6.64996">
        <ele>349.7</ele>
        <time>2017-06-11T08:44:35.000Z</time>
      </trkpt>
      <trkpt lat="47.44926" lon="6.64998">
        <ele>350</ele>
        <time>2017-06-11T08:44:36.000Z</time>
      </trkpt>
      <trkpt lat="47.44931" lon="6.64999">
        <ele>350</ele>
        <time>2017-06-11T08:44:37.000Z</time>
      </trkpt>
      <trkpt lat="47.44934" lon="6.65">
        <ele>349.7</ele>
        <time>2017-06-11T08:44:38.000Z</time>
      </trkpt>
      <trkpt lat="47.44938" lon="6.65001">
        <ele>349.6</ele>
        <time>2017-06-11T08:44:39.000Z</time>
      </trkpt>
      <trkpt lat="47.44942" lon="6.65002">
        <ele>349.6</ele>
        <time>2017-06-11T08:44:40.000Z</time>
      </trkpt>
      <trkpt lat="47.44946" lon="6.65003">
        <ele>349.8</ele>
        <time>2017-06-11T08:44:41.000Z</time>
      </trkpt>
      <trkpt lat="47.4495" lon="6.65004">
        <ele>350.2</ele>
        <time>2017-06-11T08:44:42.000Z</time>
      </trkpt>
      <trkpt lat="47.44955" lon="6.65005">
        <ele>350.1</ele>
        <time>2017-06-11T08:44:43.000Z</time>
      </trkpt>
      <trkpt lat="47.4496" lon="6.65005">
        <ele>350.1</ele>
        <time>2017-06-11T08:44:44.000Z</time>
      </trkpt>
      <trkpt lat="47.44964" lon="6.65006">
        <ele>350</ele>
        <time>2017-06-11T08:44:45.000Z</time>
      </trkpt>
      <trkpt lat="47.44969" lon="6.65006">
        <ele>350</ele>
        <time>2017-06-11T08:44:46.000Z</time>
      </trkpt>
      <trkpt lat="47.44973" lon="6.65006">
        <ele>350</ele>
        <time>2017-06-11T08:44:47.000Z</time>
      </trkpt>
      <trkpt lat="47.44977" lon="6.65005">
        <ele>349.7</ele>
        <time>2017-06-11T08:44:48.000Z</time>
      </trkpt>
      <trkpt lat="47.44981" lon="6.65004">
        <ele>349.7</ele>
        <time>2017-06-11T08:44:49.000Z</time>
      </trkpt>
      <trkpt lat="47.44985" lon="6.65004">
        <ele>349.8</ele>
        <time>2017-06-11T08:44:50.000Z</time>
      </trkpt>
      <trkpt lat="47.44989" lon="6.65003">
        <ele>350.3</ele>
        <time>2017-06-11T08:44:51.000Z</time>
      </trkpt>
      <trkpt lat="47.44994" lon="6.65002">
        <ele>350.5</ele>
        <time>2017-06-11T08:44:52.000Z</time>
      </trkpt>
      <trkpt lat="47.44998" lon="6.65001">
        <ele>350.5</ele>
        <time>2017-06-11T08:44:53.000Z</time>
      </trkpt>
      <trkpt lat="47.45002" lon="6.64999">
        <ele>351.5</ele>
        <time>2017-06-11T08:44:54.000Z</time>
      </trkpt>
      <trkpt lat="47.45007" lon="6.64998">
        <ele>351.4</ele>
        <time>2017-06-11T08:44:55.000Z</time>
      </trkpt>
      <trkpt lat="47.45012" lon="6.64997">
        <ele>351.1</ele>
        <time>2017-06-11T08:44:56.000Z</time>
      </trkpt>
      <trkpt lat="47.45017" lon="6.64996">
        <ele>350.8</ele>
        <time>2017-06-11T08:44:57.000Z</time>
      </trkpt>
      <trkpt lat="47.45022" lon="6.64994">
        <ele>350.5</ele>
        <time>2017-06-11T08:44:58.000Z</time>
      </trkpt>
      <trkpt lat="47.45027" lon="6.64993">
        <ele>350.5</ele>
        <time>2017-06-11T08:44:59.000Z</time>
      </trkpt>
      <trkpt lat="47.45033" lon="6.64992">
        <ele>350.7</ele>
        <time>2017-06-11T08:45:00.000Z</time>
      </trkpt>
      <trkpt lat="47.45037" lon="6.64991">
        <ele>351</ele>
        <time>2017-06-11T08:45:01.000Z</time>
      </trkpt>
      <trkpt lat="47.4504" lon="6.64991">
        <ele>351.3</ele>
        <time>2017-06-11T08:45:02.000Z</time>
      </trkpt>
      <trkpt lat="47.45044" lon="6.6499">
        <ele>351.1</ele>
        <time>2017-06-11T08:45:03.000Z</time>
      </trkpt>
      <trkpt lat="47.45048" lon="6.64989">
        <ele>351.3</ele>
        <time>2017-06-11T08:45:04.000Z</time>
      </trkpt>
      <trkpt lat="47.45053" lon="6.64989">
        <ele>351</ele>
        <time>2017-06-11T08:45:05.000Z</time>
      </trkpt>
      <trkpt lat="47.45058" lon="6.64988">
        <ele>350.4</ele>
        <time>2017-06-11T08:45:06.000Z</time>
      </trkpt>
      <trkpt lat="47.45062" lon="6.64988">
        <ele>350.1</ele>
        <time>2017-06-11T08:45:07.000Z</time>
      </trkpt>
      <trkpt lat="47.45068" lon="6.64988">
        <ele>350.4</ele>
        <time>2017-06-11T08:45:08.000Z</time>
      </trkpt>
      <trkpt lat="47.45073" lon="6.64987">
        <ele>350.1</ele>
        <time>2017-06-11T08:45:09.000Z</time>
      </trkpt>
      <trkpt lat="47.45078" lon="6.64986">
        <ele>349.1</ele>
        <time>2017-06-11T08:45:10.000Z</time>
      </trkpt>
      <trkpt lat="47.45083" lon="6.64985">
        <ele>348.6</ele>
        <time>2017-06-11T08:45:11.000Z</time>
      </trkpt>
      <trkpt lat="47.45088" lon="6.64985">
        <ele>348.5</ele>
        <time>2017-06-11T08:45:12.000Z</time>
      </trkpt>
      <trkpt lat="47.45092" lon="6.64984">
        <ele>348.4</ele>
        <time>2017-06-11T08:45:13.000Z</time>
      </trkpt>
      <trkpt lat="47.45096" lon="6.64984">
        <ele>348.3</ele>
        <time>2017-06-11T08:45:14.000Z</time>
      </trkpt>
      <trkpt lat="47.45101" lon="6.64983">
        <ele>348.1</ele>
        <time>2017-06-11T08:45:15.000Z</time>
      </trkpt>
      <trkpt lat="47.45104" lon="6.64982">
        <ele>347</ele>
        <time>2017-06-11T08:45:16.000Z</time>
      </trkpt>
      <trkpt lat="47.45108" lon="6.64982">
        <ele>347</ele>
        <time>2017-06-11T08:45:17.000Z</time>
      </trkpt>
      <trkpt lat="47.45113" lon="6.6498">
        <ele>347.9</ele>
        <time>2017-06-11T08:45:18.000Z</time>
      </trkpt>
      <trkpt lat="47.45117" lon="6.64979">
        <ele>348</ele>
        <time>2017-06-11T08:45:19.000Z</time>
      </trkpt>
      <trkpt lat="47.45122" lon="6.64977">
        <ele>348.2</ele>
        <time>2017-06-11T08:45:20.000Z</time>
      </trkpt>
      <trkpt lat="47.45126" lon="6.64976">
        <ele>347.8</ele>
        <time>2017-06-11T08:45:21.000Z</time>
      </trkpt>
      <trkpt lat="47.4513" lon="6.64975">
        <ele>347.6</ele>
        <time>2017-06-11T08:45:22.000Z</time>
      </trkpt>
      <trkpt lat="47.45134" lon="6.64975">
        <ele>347.6</ele>
        <time>2017-06-11T08:45:23.000Z</time>
      </trkpt>
      <trkpt lat="47.45138" lon="6.64975">
        <ele>347.5</ele>
        <time>2017-06-11T08:45:24.000Z</time>
      </trkpt>
      <trkpt lat="47.45141" lon="6.64975">
        <ele>347.5</ele>
        <time>2017-06-11T08:45:25.000Z</time>
      </trkpt>
      <trkpt lat="47.45145" lon="6.64975">
        <ele>347.6</ele>
        <time>2017-06-11T08:45:26.000Z</time>
      </trkpt>
      <trkpt lat="47.45148" lon="6.64976">
        <ele>347.9</ele>
        <time>2017-06-11T08:45:27.000Z</time>
      </trkpt>
      <trkpt lat="47.45152" lon="6.64977">
        <ele>348.7</ele>
        <time>2017-06-11T08:45:28.000Z</time>
      </trkpt>
      <trkpt lat="47.45157" lon="6.64979">
        <ele>349.6</ele>
        <time>2017-06-11T08:45:29.000Z</time>
      </trkpt>
      <trkpt lat="47.45162" lon="6.6498">
        <ele>349.9</ele>
        <time>2017-06-11T08:45:30.000Z</time>
      </trkpt>
      <trkpt lat="47.45167" lon="6.64978">
        <ele>349.9</ele>
        <time>2017-06-11T08:45:31.000Z</time>
      </trkpt>
      <trkpt lat="47.45173" lon="6.64976">
        <ele>350</ele>
        <time>2017-06-11T08:45:32.000Z</time>
      </trkpt>
      <trkpt lat="47.4518" lon="6.64973">
        <ele>349.8</ele>
        <time>2017-06-11T08:45:33.000Z</time>
      </trkpt>
      <trkpt lat="47.45185" lon="6.64971">
        <ele>349.2</ele>
        <time>2017-06-11T08:45:34.000Z</time>
      </trkpt>
      <trkpt lat="47.4519" lon="6.64968">
        <ele>349</ele>
        <time>2017-06-11T08:45:35.000Z</time>
      </trkpt>
      <trkpt lat="47.45195" lon="6.64966">
        <ele>348.4</ele>
        <time>2017-06-11T08:45:36.000Z</time>
      </trkpt>
      <trkpt lat="47.45198" lon="6.64965">
        <ele>348</ele>
        <time>2017-06-11T08:45:37.000Z</time>
      </trkpt>
      <trkpt lat="47.45201" lon="6.64963">
        <ele>348.1</ele>
        <time>2017-06-11T08:45:38.000Z</time>
      </trkpt>
      <trkpt lat="47.45206" lon="6.64962">
        <ele>348.2</ele>
        <time>2017-06-11T08:45:39.000Z</time>
      </trkpt>
      <trkpt lat="47.4521" lon="6.6496">
        <ele>348.4</ele>
        <time>2017-06-11T08:45:40.000Z</time>
      </trkpt>
      <trkpt lat="47.45214" lon="6.6496">
        <ele>348.5</ele>
        <time>2017-06-11T08:45:41.000Z</time>
      </trkpt>
      <trkpt lat="47.45218" lon="6.64958">
        <ele>349.1</ele>
        <time>2017-06-11T08:45:42.000Z</time>
      </trkpt>
      <trkpt lat="47.45223" lon="6.64957">
        <ele>349.5</ele>
        <time>2017-06-11T08:45:43.000Z</time>
      </trkpt>
      <trkpt lat="47.45227" lon="6.64957">
        <ele>349.6</ele>
        <time>2017-06-11T08:45:44.000Z</time>
      </trkpt>
      <trkpt lat="47.45231" lon="6.64957">
        <ele>349.7</ele>
        <time>2017-06-11T08:45:45.000Z</time>
      </trkpt>
      <trkpt lat="47.45235" lon="6.64958">
        <ele>349.8</ele>
        <time>2017-06-11T08:45:46.000Z</time>
      </trkpt>
      <trkpt lat="47.45239" lon="6.64958">
        <ele>349.8</ele>
        <time>2017-06-11T08:45:47.000Z</time>
      </trkpt>
      <trkpt lat="47.45243" lon="6.64958">
        <ele>350.2</ele>
        <time>2017-06-11T08:45:48.000Z</time>
      </trkpt>
      <trkpt lat="47.45248" lon="6.64959">
        <ele>350.3</ele>
        <time>2017-06-11T08:45:49.000Z</time>
      </trkpt>
      <trkpt lat="47.45252" lon="6.64959">
        <ele>350.3</ele>
        <time>2017-06-11T08:45:50.000Z</time>
      </trkpt>
      <trkpt lat="47.45255" lon="6.64958">
        <ele>350.5</ele>
        <time>2017-06-11T08:45:51.000Z</time>
      </trkpt>
      <trkpt lat="47.45257" lon="6.64958">
        <ele>350.6</ele>
        <time>2017-06-11T08:45:52.000Z</time>
      </trkpt>
      <trkpt lat="47.45259" lon="6.64958">
        <ele>350.6</ele>
        <time>2017-06-11T08:45:53.000Z</time>
      </trkpt>
      <trkpt lat="47.45261" lon="6.64958">
        <ele>350.6</ele>
        <time>2017-06-11T08:45:54.000Z</time>
      </trkpt>
      <trkpt lat="47.45264" lon="6.64958">
        <ele>350.5</ele>
        <time>2017-06-11T08:45:55.000Z</time>
      </trkpt>
      <trkpt lat="47.45268" lon="6.64957">
        <ele>349.6</ele>
        <time>2017-06-11T08:45:56.000Z</time>
      </trkpt>
      <trkpt lat="47.45272" lon="6.64957">
        <ele>349.5</ele>
        <time>2017-06-11T08:45:57.000Z</time>
      </trkpt>
      <trkpt lat="47.45275" lon="6.64956">
        <ele>349.5</ele>
        <time>2017-06-11T08:45:58.000Z</time>
      </trkpt>
      <trkpt lat="47.45279" lon="6.64954">
        <ele>349.6</ele>
        <time>2017-06-11T08:45:59.000Z</time>
      </trkpt>
      <trkpt lat="47.45283" lon="6.64951">
        <ele>349.5</ele>
        <time>2017-06-11T08:46:00.000Z</time>
      </trkpt>
      <trkpt lat="47.45285" lon="6.64947">
        <ele>349.6</ele>
        <time>2017-06-11T08:46:01.000Z</time>
      </trkpt>
      <trkpt lat="47.45293" lon="6.64931">
        <ele>349.9</ele>
        <time>2017-06-11T08:46:07.000Z</time>
      </trkpt>
      <trkpt lat="47.45295" lon="6.64926">
        <ele>350.2</ele>
        <time>2017-06-11T08:46:10.000Z</time>
      </trkpt>
      <trkpt lat="47.45296" lon="6.64923">
        <ele>350.3</ele>
        <time>2017-06-11T08:46:11.000Z</time>
      </trkpt>
      <trkpt lat="47.45298" lon="6.64918">
        <ele>350.5</ele>
        <time>2017-06-11T08:46:13.000Z</time>
      </trkpt>
      <trkpt lat="47.453" lon="6.64915">
        <ele>350.6</ele>
        <time>2017-06-11T08:46:14.000Z</time>
      </trkpt>
      <trkpt lat="47.45302" lon="6.64913">
        <ele>350.7</ele>
        <time>2017-06-11T08:46:15.000Z</time>
      </trkpt>
      <trkpt lat="47.45303" lon="6.6491">
        <ele>350.8</ele>
        <time>2017-06-11T08:46:16.000Z</time>
      </trkpt>
      <trkpt lat="47.45305" lon="6.64907">
        <ele>350.9</ele>
        <time>2017-06-11T08:46:17.000Z</time>
      </trkpt>
      <trkpt lat="47.45306" lon="6.64904">
        <ele>351</ele>
        <time>2017-06-11T08:46:18.000Z</time>
      </trkpt>
      <trkpt lat="47.45307" lon="6.64899">
        <ele>351.5</ele>
        <time>2017-06-11T08:46:21.000Z</time>
      </trkpt>
      <trkpt lat="47.45308" lon="6.64897">
        <ele>351.7</ele>
        <time>2017-06-11T08:46:22.000Z</time>
      </trkpt>
      <trkpt lat="47.4531" lon="6.64891">
        <ele>352</ele>
        <time>2017-06-11T08:46:24.000Z</time>
      </trkpt>
      <trkpt lat="47.45311" lon="6.6489">
        <ele>352.1</ele>
        <time>2017-06-11T08:46:25.000Z</time>
      </trkpt>
      <trkpt lat="47.45313" lon="6.64887">
        <ele>352.2</ele>
        <time>2017-06-11T08:46:26.000Z</time>
      </trkpt>
      <trkpt lat="47.45315" lon="6.64884">
        <ele>352.4</ele>
        <time>2017-06-11T08:46:27.000Z</time>
      </trkpt>
      <trkpt lat="47.45317" lon="6.64879">
        <ele>352.7</ele>
        <time>2017-06-11T08:46:29.000Z</time>
      </trkpt>
      <trkpt lat="47.45318" lon="6.64878">
        <ele>352.8</ele>
        <time>2017-06-11T08:46:30.000Z</time>
      </trkpt>
      <trkpt lat="47.45321" lon="6.64874">
        <ele>353.2</ele>
        <time>2017-06-11T08:46:32.000Z</time>
      </trkpt>
      <trkpt lat="47.45323" lon="6.64871">
        <ele>353.3</ele>
        <time>2017-06-11T08:46:33.000Z</time>
      </trkpt>
      <trkpt lat="47.45325" lon="6.64868">
        <ele>353.6</ele>
        <time>2017-06-11T08:46:35.000Z</time>
      </trkpt>
      <trkpt lat="47.45327" lon="6.64867">
        <ele>353.7</ele>
        <time>2017-06-11T08:46:36.000Z</time>
      </trkpt>
      <trkpt lat="47.4533" lon="6.64864">
        <ele>354</ele>
        <time>2017-06-11T08:46:38.000Z</time>
      </trkpt>
      <trkpt lat="47.45331" lon="6.64863">
        <ele>354</ele>
        <time>2017-06-11T08:46:39.000Z</time>
      </trkpt>
      <trkpt lat="47.45334" lon="6.6486">
        <ele>354.3</ele>
        <time>2017-06-11T08:46:41.000Z</time>
      </trkpt>
      <trkpt lat="47.45336" lon="6.64858">
        <ele>354.4</ele>
        <time>2017-06-11T08:46:42.000Z</time>
      </trkpt>
      <trkpt lat="47.45339" lon="6.64855">
        <ele>354.7</ele>
        <time>2017-06-11T08:46:44.000Z</time>
      </trkpt>
      <trkpt lat="47.45341" lon="6.64854">
        <ele>354.8</ele>
        <time>2017-06-11T08:46:45.000Z</time>
      </trkpt>
      <trkpt lat="47.45344" lon="6.6485">
        <ele>355.1</ele>
        <time>2017-06-11T08:46:48.000Z</time>
      </trkpt>
      <trkpt lat="47.45345" lon="6.64849">
        <ele>355.3</ele>
        <time>2017-06-11T08:46:49.000Z</time>
      </trkpt>
      <trkpt lat="47.45348" lon="6.64846">
        <ele>355.7</ele>
        <time>2017-06-11T08:46:51.000Z</time>
      </trkpt>
      <trkpt lat="47.45349" lon="6.64844">
        <ele>355.9</ele>
        <time>2017-06-11T08:46:52.000Z</time>
      </trkpt>
      <trkpt lat="47.45352" lon="6.6484">
        <ele>356.5</ele>
        <time>2017-06-11T08:46:54.000Z</time>
      </trkpt>
      <trkpt lat="47.45353" lon="6.64837">
        <ele>356.8</ele>
        <time>2017-06-11T08:46:55.000Z</time>
      </trkpt>
      <trkpt lat="47.45354" lon="6.64834">
        <ele>357.1</ele>
        <time>2017-06-11T08:46:56.000Z</time>
      </trkpt>
      <trkpt lat="47.45356" lon="6.6483">
        <ele>357.3</ele>
        <time>2017-06-11T08:46:57.000Z</time>
      </trkpt>
      <trkpt lat="47.45358" lon="6.64824">
        <ele>357.6</ele>
        <time>2017-06-11T08:46:59.000Z</time>
      </trkpt>
      <trkpt lat="47.45359" lon="6.64822">
        <ele>357.8</ele>
        <time>2017-06-11T08:47:00.000Z</time>
      </trkpt>
      <trkpt lat="47.4536" lon="6.64817">
        <ele>358</ele>
        <time>2017-06-11T08:47:02.000Z</time>
      </trkpt>
      <trkpt lat="47.45361" lon="6.64815">
        <ele>358.2</ele>
        <time>2017-06-11T08:47:03.000Z</time>
      </trkpt>
      <trkpt lat="47.45364" lon="6.64811">
        <ele>358.5</ele>
        <time>2017-06-11T08:47:05.000Z</time>
      </trkpt>
      <trkpt lat="47.45365" lon="6.64809">
        <ele>358.6</ele>
        <time>2017-06-11T08:47:06.000Z</time>
      </trkpt>
      <trkpt lat="47.45367" lon="6.64807">
        <ele>358.8</ele>
        <time>2017-06-11T08:47:07.000Z</time>
      </trkpt>
      <trkpt lat="47.45369" lon="6.64806">
        <ele>359</ele>
        <time>2017-06-11T08:47:08.000Z</time>
      </trkpt>
      <trkpt lat="47.45372" lon="6.64804">
        <ele>359.4</ele>
        <time>2017-06-11T08:47:10.000Z</time>
      </trkpt>
      <trkpt lat="47.45374" lon="6.64803">
        <ele>359.6</ele>
        <time>2017-06-11T08:47:11.000Z</time>
      </trkpt>
      <trkpt lat="47.45377" lon="6.64804">
        <ele>360.1</ele>
        <time>2017-06-11T08:47:13.000Z</time>
      </trkpt>
      <trkpt lat="47.45379" lon="6.64803">
        <ele>360.3</ele>
        <time>2017-06-11T08:47:14.000Z</time>
      </trkpt>
      <trkpt lat="47.45382" lon="6.64803">
        <ele>360.6</ele>
        <time>2017-06-11T08:47:15.000Z</time>
      </trkpt>
      <trkpt lat="47.45384" lon="6.64802">
        <ele>360.8</ele>
        <time>2017-06-11T08:47:16.000Z</time>
      </trkpt>
      <trkpt lat="47.45387" lon="6.64802">
        <ele>361</ele>
        <time>2017-06-11T08:47:17.000Z</time>
      </trkpt>
      <trkpt lat="47.45389" lon="6.64801">
        <ele>361.1</ele>
        <time>2017-06-11T08:47:18.000Z</time>
      </trkpt>
      <trkpt lat="47.45393" lon="6.648">
        <ele>361.5</ele>
        <time>2017-06-11T08:47:20.000Z</time>
      </trkpt>
      <trkpt lat="47.45396" lon="6.648">
        <ele>361.6</ele>
        <time>2017-06-11T08:47:21.000Z</time>
      </trkpt>
      <trkpt lat="47.454" lon="6.64799">
        <ele>361.9</ele>
        <time>2017-06-11T08:47:23.000Z</time>
      </trkpt>
      <trkpt lat="47.45402" lon="6.64798">
        <ele>362.1</ele>
        <time>2017-06-11T08:47:24.000Z</time>
      </trkpt>
      <trkpt lat="47.45405" lon="6.64797">
        <ele>362.3</ele>
        <time>2017-06-11T08:47:25.000Z</time>
      </trkpt>
      <trkpt lat="47.45407" lon="6.64796">
        <ele>362.5</ele>
        <time>2017-06-11T08:47:26.000Z</time>
      </trkpt>
      <trkpt lat="47.45411" lon="6.64795">
        <ele>362.9</ele>
        <time>2017-06-11T08:47:28.000Z</time>
      </trkpt>
      <trkpt lat="47.45414" lon="6.64794">
        <ele>363.1</ele>
        <time>2017-06-11T08:47:29.000Z</time>
      </trkpt>
      <trkpt lat="47.45416" lon="6.64794">
        <ele>363.3</ele>
        <time>2017-06-11T08:47:30.000Z</time>
      </trkpt>
      <trkpt lat="47.45418" lon="6.64794">
        <ele>363.5</ele>
        <time>2017-06-11T08:47:31.000Z</time>
      </trkpt>
      <trkpt lat="47.45421" lon="6.64794">
        <ele>363.8</ele>
        <time>2017-06-11T08:47:33.000Z</time>
      </trkpt>
      <trkpt lat="47.45424" lon="6.64794">
        <ele>364</ele>
        <time>2017-06-11T08:47:34.000Z</time>
      </trkpt>
      <trkpt lat="47.45428" lon="6.64793">
        <ele>364.2</ele>
        <time>2017-06-11T08:47:36.000Z</time>
      </trkpt>
      <trkpt lat="47.4543" lon="6.64792">
        <ele>364.4</ele>
        <time>2017-06-11T08:47:37.000Z</time>
      </trkpt>
      <trkpt lat="47.45434" lon="6.6479">
        <ele>364.7</ele>
        <time>2017-06-11T08:47:39.000Z</time>
      </trkpt>
      <trkpt lat="47.45437" lon="6.64789">
        <ele>364.9</ele>
        <time>2017-06-11T08:47:40.000Z</time>
      </trkpt>
      <trkpt lat="47.45439" lon="6.64788">
        <ele>365.1</ele>
        <time>2017-06-11T08:47:41.000Z</time>
      </trkpt>
      <trkpt lat="47.45441" lon="6.64786">
        <ele>365.2</ele>
        <time>2017-06-11T08:47:42.000Z</time>
      </trkpt>
      <trkpt lat="47.45445" lon="6.64784">
        <ele>365.7</ele>
        <time>2017-06-11T08:47:44.000Z</time>
      </trkpt>
      <trkpt lat="47.45447" lon="6.64783">
        <ele>365.9</ele>
        <time>2017-06-11T08:47:45.000Z</time>
      </trkpt>
      <trkpt lat="47.4545" lon="6.64781">
        <ele>366.1</ele>
        <time>2017-06-11T08:47:46.000Z</time>
      </trkpt>
      <trkpt lat="47.45452" lon="6.6478">
        <ele>366.3</ele>
        <time>2017-06-11T08:47:47.000Z</time>
      </trkpt>
      <trkpt lat="47.45454" lon="6.64778">
        <ele>366.5</ele>
        <time>2017-06-11T08:47:48.000Z</time>
      </trkpt>
      <trkpt lat="47.45456" lon="6.64775">
        <ele>366.7</ele>
        <time>2017-06-11T08:47:49.000Z</time>
      </trkpt>
      <trkpt lat="47.45457" lon="6.64773">
        <ele>366.9</ele>
        <time>2017-06-11T08:47:50.000Z</time>
      </trkpt>
      <trkpt lat="47.45459" lon="6.6477">
        <ele>367</ele>
        <time>2017-06-11T08:47:51.000Z</time>
      </trkpt>
      <trkpt lat="47.45461" lon="6.64767">
        <ele>367.2</ele>
        <time>2017-06-11T08:47:52.000Z</time>
      </trkpt>
      <trkpt lat="47.45463" lon="6.64765">
        <ele>367.4</ele>
        <time>2017-06-11T08:47:53.000Z</time>
      </trkpt>
      <trkpt lat="47.45465" lon="6.64762">
        <ele>367.6</ele>
        <time>2017-06-11T08:47:54.000Z</time>
      </trkpt>
      <trkpt lat="47.45467" lon="6.64759">
        <ele>367.8</ele>
        <time>2017-06-11T08:47:55.000Z</time>
      </trkpt>
      <trkpt lat="47.45469" lon="6.64755">
        <ele>368.1</ele>
        <time>2017-06-11T08:47:57.000Z</time>
      </trkpt>
      <trkpt lat="47.45471" lon="6.64753">
        <ele>368.3</ele>
        <time>2017-06-11T08:47:58.000Z</time>
      </trkpt>
      <trkpt lat="47.45473" lon="6.64749">
        <ele>368.8</ele>
        <time>2017-06-11T08:48:00.000Z</time>
      </trkpt>
      <trkpt lat="47.45475" lon="6.64747">
        <ele>369.1</ele>
        <time>2017-06-11T08:48:01.000Z</time>
      </trkpt>
      <trkpt lat="47.45476" lon="6.64744">
        <ele>369.3</ele>
        <time>2017-06-11T08:48:02.000Z</time>
      </trkpt>
      <trkpt lat="47.45478" lon="6.64741">
        <ele>369.6</ele>
        <time>2017-06-11T08:48:03.000Z</time>
      </trkpt>
      <trkpt lat="47.4548" lon="6.64739">
        <ele>369.8</ele>
        <time>2017-06-11T08:48:04.000Z</time>
      </trkpt>
      <trkpt lat="47.45482" lon="6.64736">
        <ele>370</ele>
        <time>2017-06-11T08:48:05.000Z</time>
      </trkpt>
      <trkpt lat="47.45484" lon="6.64731">
        <ele>370.4</ele>
        <time>2017-06-11T08:48:07.000Z</time>
      </trkpt>
      <trkpt lat="47.45485" lon="6.64729">
        <ele>370.6</ele>
        <time>2017-06-11T08:48:08.000Z</time>
      </trkpt>
      <trkpt lat="47.45488" lon="6.64725">
        <ele>371</ele>
        <time>2017-06-11T08:48:10.000Z</time>
      </trkpt>
      <trkpt lat="47.45489" lon="6.64723">
        <ele>371.2</ele>
        <time>2017-06-11T08:48:11.000Z</time>
      </trkpt>
      <trkpt lat="47.4549" lon="6.64719">
        <ele>371.6</ele>
        <time>2017-06-11T08:48:13.000Z</time>
      </trkpt>
      <trkpt lat="47.45491" lon="6.64717">
        <ele>371.9</ele>
        <time>2017-06-11T08:48:14.000Z</time>
      </trkpt>
      <trkpt lat="47.45493" lon="6.64714">
        <ele>372.1</ele>
        <time>2017-06-11T08:48:15.000Z</time>
      </trkpt>
      <trkpt lat="47.45494" lon="6.6471">
        <ele>372.3</ele>
        <time>2017-06-11T08:48:16.000Z</time>
      </trkpt>
      <trkpt lat="47.45496" lon="6.64707">
        <ele>372.5</ele>
        <time>2017-06-11T08:48:17.000Z</time>
      </trkpt>
      <trkpt lat="47.45498" lon="6.64704">
        <ele>372.7</ele>
        <time>2017-06-11T08:48:18.000Z</time>
      </trkpt>
      <trkpt lat="47.455" lon="6.64701">
        <ele>372.9</ele>
        <time>2017-06-11T08:48:19.000Z</time>
      </trkpt>
      <trkpt lat="47.45503" lon="6.64699">
        <ele>373.1</ele>
        <time>2017-06-11T08:48:20.000Z</time>
      </trkpt>
      <trkpt lat="47.45505" lon="6.64699">
        <ele>373.4</ele>
        <time>2017-06-11T08:48:21.000Z</time>
      </trkpt>
      <trkpt lat="47.45508" lon="6.64698">
        <ele>373.7</ele>
        <time>2017-06-11T08:48:22.000Z</time>
      </trkpt>
      <trkpt lat="47.4551" lon="6.64697">
        <ele>373.9</ele>
        <time>2017-06-11T08:48:23.000Z</time>
      </trkpt>
      <trkpt lat="47.45513" lon="6.64697">
        <ele>374.1</ele>
        <time>2017-06-11T08:48:24.000Z</time>
      </trkpt>
      <trkpt lat="47.45515" lon="6.64698">
        <ele>374.3</ele>
        <time>2017-06-11T08:48:25.000Z</time>
      </trkpt>
      <trkpt lat="47.45518" lon="6.64698">
        <ele>374.6</ele>
        <time>2017-06-11T08:48:26.000Z</time>
      </trkpt>
      <trkpt lat="47.45522" lon="6.64697">
        <ele>375.1</ele>
        <time>2017-06-11T08:48:28.000Z</time>
      </trkpt>
      <trkpt lat="47.45524" lon="6.64696">
        <ele>375.3</ele>
        <time>2017-06-11T08:48:29.000Z</time>
      </trkpt>
      <trkpt lat="47.45527" lon="6.64696">
        <ele>375.6</ele>
        <time>2017-06-11T08:48:30.000Z</time>
      </trkpt>
      <trkpt lat="47.45529" lon="6.64695">
        <ele>375.9</ele>
        <time>2017-06-11T08:48:31.000Z</time>
      </trkpt>
      <trkpt lat="47.45531" lon="6.64696">
        <ele>376.1</ele>
        <time>2017-06-11T08:48:32.000Z</time>
      </trkpt>
      <trkpt lat="47.45534" lon="6.64696">
        <ele>376.3</ele>
        <time>2017-06-11T08:48:33.000Z</time>
      </trkpt>
      <trkpt lat="47.45538" lon="6.64696">
        <ele>376.8</ele>
        <time>2017-06-11T08:48:35.000Z</time>
      </trkpt>
      <trkpt lat="47.45541" lon="6.64696">
        <ele>377</ele>
        <time>2017-06-11T08:48:36.000Z</time>
      </trkpt>
      <trkpt lat="47.45544" lon="6.64696">
        <ele>377.1</ele>
        <time>2017-06-11T08:48:37.000Z</time>
      </trkpt>
      <trkpt lat="47.45547" lon="6.64696">
        <ele>377.3</ele>
        <time>2017-06-11T08:48:38.000Z</time>
      </trkpt>
      <trkpt lat="47.45551" lon="6.64696">
        <ele>377.6</ele>
        <time>2017-06-11T08:48:40.000Z</time>
      </trkpt>
      <trkpt lat="47.45553" lon="6.64697">
        <ele>377.7</ele>
        <time>2017-06-11T08:48:41.000Z</time>
      </trkpt>
      <trkpt lat="47.45555" lon="6.64697">
        <ele>377.8</ele>
        <time>2017-06-11T08:48:42.000Z</time>
      </trkpt>
      <trkpt lat="47.45558" lon="6.64697">
        <ele>378</ele>
        <time>2017-06-11T08:48:43.000Z</time>
      </trkpt>
      <trkpt lat="47.45561" lon="6.64697">
        <ele>378.1</ele>
        <time>2017-06-11T08:48:44.000Z</time>
      </trkpt>
      <trkpt lat="47.45564" lon="6.64697">
        <ele>378.2</ele>
        <time>2017-06-11T08:48:45.000Z</time>
      </trkpt>
      <trkpt lat="47.45568" lon="6.64697">
        <ele>378.4</ele>
        <time>2017-06-11T08:48:47.000Z</time>
      </trkpt>
      <trkpt lat="47.45571" lon="6.64697">
        <ele>378.6</ele>
        <time>2017-06-11T08:48:48.000Z</time>
      </trkpt>
      <trkpt lat="47.45573" lon="6.64697">
        <ele>378.7</ele>
        <time>2017-06-11T08:48:49.000Z</time>
      </trkpt>
      <trkpt lat="47.45576" lon="6.64698">
        <ele>378.8</ele>
        <time>2017-06-11T08:48:50.000Z</time>
      </trkpt>
      <trkpt lat="47.45581" lon="6.64698">
        <ele>378.9</ele>
        <time>2017-06-11T08:48:52.000Z</time>
      </trkpt>
      <trkpt lat="47.45583" lon="6.64698">
        <ele>379</ele>
        <time>2017-06-11T08:48:53.000Z</time>
      </trkpt>
      <trkpt lat="47.45586" lon="6.64698">
        <ele>379.1</ele>
        <time>2017-06-11T08:48:54.000Z</time>
      </trkpt>
      <trkpt lat="47.45588" lon="6.64698">
        <ele>379.1</ele>
        <time>2017-06-11T08:48:55.000Z</time>
      </trkpt>
      <trkpt lat="47.45593" lon="6.64698">
        <ele>379.4</ele>
        <time>2017-06-11T08:48:57.000Z</time>
      </trkpt>
      <trkpt lat="47.45595" lon="6.64698">
        <ele>379.5</ele>
        <time>2017-06-11T08:48:58.000Z</time>
      </trkpt>
      <trkpt lat="47.45598" lon="6.64698">
        <ele>379.7</ele>
        <time>2017-06-11T08:48:59.000Z</time>
      </trkpt>
      <trkpt lat="47.45601" lon="6.64698">
        <ele>379.8</ele>
        <time>2017-06-11T08:49:00.000Z</time>
      </trkpt>
      <trkpt lat="47.45604" lon="6.64698">
        <ele>379.9</ele>
        <time>2017-06-11T08:49:01.000Z</time>
      </trkpt>
      <trkpt lat="47.45607" lon="6.64699">
        <ele>379.9</ele>
        <time>2017-06-11T08:49:02.000Z</time>
      </trkpt>
      <trkpt lat="47.4561" lon="6.64699">
        <ele>380</ele>
        <time>2017-06-11T08:49:03.000Z</time>
      </trkpt>
      <trkpt lat="47.45613" lon="6.64699">
        <ele>380.1</ele>
        <time>2017-06-11T08:49:04.000Z</time>
      </trkpt>
      <trkpt lat="47.45617" lon="6.64699">
        <ele>380.4</ele>
        <time>2017-06-11T08:49:06.000Z</time>
      </trkpt>
      <trkpt lat="47.45619" lon="6.64699">
        <ele>380.5</ele>
        <time>2017-06-11T08:49:07.000Z</time>
      </trkpt>
      <trkpt lat="47.45621" lon="6.64698">
        <ele>380.6</ele>
        <time>2017-06-11T08:49:08.000Z</time>
      </trkpt>
      <trkpt lat="47.45624" lon="6.64698">
        <ele>380.8</ele>
        <time>2017-06-11T08:49:09.000Z</time>
      </trkpt>
      <trkpt lat="47.45626" lon="6.64698">
        <ele>380.9</ele>
        <time>2017-06-11T08:49:10.000Z</time>
      </trkpt>
      <trkpt lat="47.45629" lon="6.64698">
        <ele>381.1</ele>
        <time>2017-06-11T08:49:11.000Z</time>
      </trkpt>
      <trkpt lat="47.45631" lon="6.64698">
        <ele>381.3</ele>
        <time>2017-06-11T08:49:12.000Z</time>
      </trkpt>
      <trkpt lat="47.45634" lon="6.64698">
        <ele>381.3</ele>
        <time>2017-06-11T08:49:13.000Z</time>
      </trkpt>
      <trkpt lat="47.45637" lon="6.64698">
        <ele>381.4</ele>
        <time>2017-06-11T08:49:14.000Z</time>
      </trkpt>
      <trkpt lat="47.4564" lon="6.64698">
        <ele>381.5</ele>
        <time>2017-06-11T08:49:15.000Z</time>
      </trkpt>
      <trkpt lat="47.45643" lon="6.64697">
        <ele>381.5</ele>
        <time>2017-06-11T08:49:16.000Z</time>
      </trkpt>
      <trkpt lat="47.45646" lon="6.64697">
        <ele>381.5</ele>
        <time>2017-06-11T08:49:17.000Z</time>
      </trkpt>
      <trkpt lat="47.45648" lon="6.64696">
        <ele>381.6</ele>
        <time>2017-06-11T08:49:18.000Z</time>
      </trkpt>
      <trkpt lat="47.45652" lon="6.64696">
        <ele>381.7</ele>
        <time>2017-06-11T08:49:19.000Z</time>
      </trkpt>
      <trkpt lat="47.45655" lon="6.64696">
        <ele>381.8</ele>
        <time>2017-06-11T08:49:20.000Z</time>
      </trkpt>
      <trkpt lat="47.45658" lon="6.64697">
        <ele>381.9</ele>
        <time>2017-06-11T08:49:21.000Z</time>
      </trkpt>
      <trkpt lat="47.4566" lon="6.64697">
        <ele>381.9</ele>
        <time>2017-06-11T08:49:22.000Z</time>
      </trkpt>
      <trkpt lat="47.45662" lon="6.64697">
        <ele>381.9</ele>
        <time>2017-06-11T08:49:23.000Z</time>
      </trkpt>
      <trkpt lat="47.45666" lon="6.64697">
        <ele>381.9</ele>
        <time>2017-06-11T08:49:25.000Z</time>
      </trkpt>
      <trkpt lat="47.45668" lon="6.64697">
        <ele>381.7</ele>
        <time>2017-06-11T08:49:26.000Z</time>
      </trkpt>
      <trkpt lat="47.45672" lon="6.64697">
        <ele>381.5</ele>
        <time>2017-06-11T08:49:28.000Z</time>
      </trkpt>
      <trkpt lat="47.45674" lon="6.64697">
        <ele>381.5</ele>
        <time>2017-06-11T08:49:29.000Z</time>
      </trkpt>
      <trkpt lat="47.45676" lon="6.64696">
        <ele>381.5</ele>
        <time>2017-06-11T08:49:30.000Z</time>
      </trkpt>
      <trkpt lat="47.45679" lon="6.64696">
        <ele>381.5</ele>
        <time>2017-06-11T08:49:31.000Z</time>
      </trkpt>
      <trkpt lat="47.45681" lon="6.64696">
        <ele>381.6</ele>
        <time>2017-06-11T08:49:32.000Z</time>
      </trkpt>
      <trkpt lat="47.45683" lon="6.64695">
        <ele>381.6</ele>
        <time>2017-06-11T08:49:33.000Z</time>
      </trkpt>
      <trkpt lat="47.45686" lon="6.64696">
        <ele>381.7</ele>
        <time>2017-06-11T08:49:34.000Z</time>
      </trkpt>
      <trkpt lat="47.45688" lon="6.64696">
        <ele>381.7</ele>
        <time>2017-06-11T08:49:35.000Z</time>
      </trkpt>
      <trkpt lat="47.45691" lon="6.64696">
        <ele>381.8</ele>
        <time>2017-06-11T08:49:36.000Z</time>
      </trkpt>
      <trkpt lat="47.45693" lon="6.64696">
        <ele>381.8</ele>
        <time>2017-06-11T08:49:37.000Z</time>
      </trkpt>
      <trkpt lat="47.45698" lon="6.64696">
        <ele>381.9</ele>
        <time>2017-06-11T08:49:39.000Z</time>
      </trkpt>
      <trkpt lat="47.457" lon="6.64696">
        <ele>382</ele>
        <time>2017-06-11T08:49:40.000Z</time>
      </trkpt>
      <trkpt lat="47.45704" lon="6.64696">
        <ele>382.1</ele>
        <time>2017-06-11T08:49:42.000Z</time>
      </trkpt>
      <trkpt lat="47.45706" lon="6.64696">
        <ele>382.1</ele>
        <time>2017-06-11T08:49:43.000Z</time>
      </trkpt>
      <trkpt lat="47.4571" lon="6.64696">
        <ele>382.2</ele>
        <time>2017-06-11T08:49:45.000Z</time>
      </trkpt>
      <trkpt lat="47.45712" lon="6.64696">
        <ele>382.3</ele>
        <time>2017-06-11T08:49:46.000Z</time>
      </trkpt>
      <trkpt lat="47.45716" lon="6.64696">
        <ele>382.5</ele>
        <time>2017-06-11T08:49:48.000Z</time>
      </trkpt>
      <trkpt lat="47.45719" lon="6.64696">
        <ele>382.5</ele>
        <time>2017-06-11T08:49:49.000Z</time>
      </trkpt>
      <trkpt lat="47.45722" lon="6.64696">
        <ele>382.7</ele>
        <time>2017-06-11T08:49:50.000Z</time>
      </trkpt>
      <trkpt lat="47.45724" lon="6.64696">
        <ele>382.7</ele>
        <time>2017-06-11T08:49:51.000Z</time>
      </trkpt>
      <trkpt lat="47.45726" lon="6.64696">
        <ele>382.8</ele>
        <time>2017-06-11T08:49:52.000Z</time>
      </trkpt>
      <trkpt lat="47.45729" lon="6.64695">
        <ele>382.8</ele>
        <time>2017-06-11T08:49:53.000Z</time>
      </trkpt>
      <trkpt lat="47.45731" lon="6.64695">
        <ele>382.9</ele>
        <time>2017-06-11T08:49:54.000Z</time>
      </trkpt>
      <trkpt lat="47.45733" lon="6.64694">
        <ele>382.9</ele>
        <time>2017-06-11T08:49:55.000Z</time>
      </trkpt>
      <trkpt lat="47.45736" lon="6.64694">
        <ele>383</ele>
        <time>2017-06-11T08:49:56.000Z</time>
      </trkpt>
      <trkpt lat="47.45738" lon="6.64694">
        <ele>383.1</ele>
        <time>2017-06-11T08:49:57.000Z</time>
      </trkpt>
      <trkpt lat="47.45743" lon="6.64694">
        <ele>383.3</ele>
        <time>2017-06-11T08:49:59.000Z</time>
      </trkpt>
      <trkpt lat="47.45745" lon="6.64694">
        <ele>383.4</ele>
        <time>2017-06-11T08:50:00.000Z</time>
      </trkpt>
      <trkpt lat="47.45748" lon="6.64694">
        <ele>383.4</ele>
        <time>2017-06-11T08:50:01.000Z</time>
      </trkpt>
      <trkpt lat="47.4575" lon="6.64694">
        <ele>383.4</ele>
        <time>2017-06-11T08:50:02.000Z</time>
      </trkpt>
      <trkpt lat="47.45754" lon="6.64694">
        <ele>383.4</ele>
        <time>2017-06-11T08:50:04.000Z</time>
      </trkpt>
      <trkpt lat="47.45756" lon="6.64695">
        <ele>383.5</ele>
        <time>2017-06-11T08:50:05.000Z</time>
      </trkpt>
      <trkpt lat="47.4576" lon="6.64695">
        <ele>383.6</ele>
        <time>2017-06-11T08:50:07.000Z</time>
      </trkpt>
      <trkpt lat="47.45761" lon="6.64694">
        <ele>383.7</ele>
        <time>2017-06-11T08:50:08.000Z</time>
      </trkpt>
      <trkpt lat="47.45764" lon="6.64695">
        <ele>383.8</ele>
        <time>2017-06-11T08:50:10.000Z</time>
      </trkpt>
      <trkpt lat="47.45766" lon="6.64695">
        <ele>383.9</ele>
        <time>2017-06-11T08:50:11.000Z</time>
      </trkpt>
      <trkpt lat="47.45769" lon="6.64695">
        <ele>384.1</ele>
        <time>2017-06-11T08:50:13.000Z</time>
      </trkpt>
      <trkpt lat="47.45771" lon="6.64695">
        <ele>384.2</ele>
        <time>2017-06-11T08:50:14.000Z</time>
      </trkpt>
      <trkpt lat="47.45774" lon="6.64695">
        <ele>384.3</ele>
        <time>2017-06-11T08:50:15.000Z</time>
      </trkpt>
      <trkpt lat="47.45776" lon="6.64695">
        <ele>384.3</ele>
        <time>2017-06-11T08:50:16.000Z</time>
      </trkpt>
      <trkpt lat="47.45778" lon="6.64695">
        <ele>384.5</ele>
        <time>2017-06-11T08:50:17.000Z</time>
      </trkpt>
      <trkpt lat="47.45781" lon="6.64695">
        <ele>384.6</ele>
        <time>2017-06-11T08:50:18.000Z</time>
      </trkpt>
      <trkpt lat="47.45785" lon="6.64696">
        <ele>385.2</ele>
        <time>2017-06-11T08:50:21.000Z</time>
      </trkpt>
      <trkpt lat="47.45786" lon="6.64695">
        <ele>385.4</ele>
        <time>2017-06-11T08:50:22.000Z</time>
      </trkpt>
      <trkpt lat="47.4579" lon="6.64696">
        <ele>385.8</ele>
        <time>2017-06-11T08:50:24.000Z</time>
      </trkpt>
      <trkpt lat="47.45792" lon="6.64697">
        <ele>386</ele>
        <time>2017-06-11T08:50:25.000Z</time>
      </trkpt>
      <trkpt lat="47.45795" lon="6.64697">
        <ele>386.3</ele>
        <time>2017-06-11T08:50:27.000Z</time>
      </trkpt>
      <trkpt lat="47.45798" lon="6.64696">
        <ele>386.5</ele>
        <time>2017-06-11T08:50:28.000Z</time>
      </trkpt>
      <trkpt lat="47.458" lon="6.64697">
        <ele>386.7</ele>
        <time>2017-06-11T08:50:29.000Z</time>
      </trkpt>
      <trkpt lat="47.45803" lon="6.64697">
        <ele>386.8</ele>
        <time>2017-06-11T08:50:30.000Z</time>
      </trkpt>
      <trkpt lat="47.45807" lon="6.64698">
        <ele>387.1</ele>
        <time>2017-06-11T08:50:32.000Z</time>
      </trkpt>
      <trkpt lat="47.45809" lon="6.64698">
        <ele>387.1</ele>
        <time>2017-06-11T08:50:33.000Z</time>
      </trkpt>
      <trkpt lat="47.45813" lon="6.647">
        <ele>387.1</ele>
        <time>2017-06-11T08:50:35.000Z</time>
      </trkpt>
      <trkpt lat="47.45815" lon="6.647">
        <ele>387.2</ele>
        <time>2017-06-11T08:50:36.000Z</time>
      </trkpt>
      <trkpt lat="47.45817" lon="6.64696">
        <ele>387.2</ele>
        <time>2017-06-11T08:50:38.000Z</time>
      </trkpt>
      <trkpt lat="47.45816" lon="6.64693">
        <ele>387.2</ele>
        <time>2017-06-11T08:50:39.000Z</time>
      </trkpt>
      <trkpt lat="47.45816" lon="6.64688">
        <ele>387.4</ele>
        <time>2017-06-11T08:50:41.000Z</time>
      </trkpt>
      <trkpt lat="47.45815" lon="6.64683">
        <ele>387.5</ele>
        <time>2017-06-11T08:50:42.000Z</time>
      </trkpt>
      <trkpt lat="47.45814" lon="6.64679">
        <ele>387.6</ele>
        <time>2017-06-11T08:50:43.000Z</time>
      </trkpt>
      <trkpt lat="47.45813" lon="6.64674">
        <ele>387.6</ele>
        <time>2017-06-11T08:50:44.000Z</time>
      </trkpt>
      <trkpt lat="47.45813" lon="6.64668">
        <ele>387.5</ele>
        <time>2017-06-11T08:50:45.000Z</time>
      </trkpt>
      <trkpt lat="47.45812" lon="6.64663">
        <ele>387.5</ele>
        <time>2017-06-11T08:50:46.000Z</time>
      </trkpt>
      <trkpt lat="47.4581" lon="6.64657">
        <ele>387.4</ele>
        <time>2017-06-11T08:50:47.000Z</time>
      </trkpt>
      <trkpt lat="47.45809" lon="6.64652">
        <ele>387.4</ele>
        <time>2017-06-11T08:50:48.000Z</time>
      </trkpt>
      <trkpt lat="47.45809" lon="6.64647">
        <ele>387.3</ele>
        <time>2017-06-11T08:50:49.000Z</time>
      </trkpt>
      <trkpt lat="47.45808" lon="6.64642">
        <ele>387.2</ele>
        <time>2017-06-11T08:50:50.000Z</time>
      </trkpt>
      <trkpt lat="47.45807" lon="6.64636">
        <ele>386.6</ele>
        <time>2017-06-11T08:50:51.000Z</time>
      </trkpt>
      <trkpt lat="47.45805" lon="6.6463">
        <ele>385.3</ele>
        <time>2017-06-11T08:50:52.000Z</time>
      </trkpt>
      <trkpt lat="47.45805" lon="6.64626">
        <ele>385.2</ele>
        <time>2017-06-11T08:50:53.000Z</time>
      </trkpt>
      <trkpt lat="47.45803" lon="6.64619">
        <ele>383.9</ele>
        <time>2017-06-11T08:50:54.000Z</time>
      </trkpt>
      <trkpt lat="47.45801" lon="6.64612">
        <ele>382.8</ele>
        <time>2017-06-11T08:50:55.000Z</time>
      </trkpt>
      <trkpt lat="47.45799" lon="6.64603">
        <ele>381.7</ele>
        <time>2017-06-11T08:50:56.000Z</time>
      </trkpt>
      <trkpt lat="47.45798" lon="6.64597">
        <ele>381.6</ele>
        <time>2017-06-11T08:50:57.000Z</time>
      </trkpt>
      <trkpt lat="47.45797" lon="6.64592">
        <ele>381.5</ele>
        <time>2017-06-11T08:50:58.000Z</time>
      </trkpt>
      <trkpt lat="47.45796" lon="6.64586">
        <ele>381.4</ele>
        <time>2017-06-11T08:50:59.000Z</time>
      </trkpt>
      <trkpt lat="47.45794" lon="6.6458">
        <ele>380</ele>
        <time>2017-06-11T08:51:00.000Z</time>
      </trkpt>
      <trkpt lat="47.45792" lon="6.64574">
        <ele>378.9</ele>
        <time>2017-06-11T08:51:01.000Z</time>
      </trkpt>
      <trkpt lat="47.45791" lon="6.64568">
        <ele>378.7</ele>
        <time>2017-06-11T08:51:02.000Z</time>
      </trkpt>
      <trkpt lat="47.45791" lon="6.64558">
        <ele>378.5</ele>
        <time>2017-06-11T08:51:03.000Z</time>
      </trkpt>
      <trkpt lat="47.45791" lon="6.64549">
        <ele>376.6</ele>
        <time>2017-06-11T08:51:04.000Z</time>
      </trkpt>
      <trkpt lat="47.4579" lon="6.64542">
        <ele>375.3</ele>
        <time>2017-06-11T08:51:05.000Z</time>
      </trkpt>
      <trkpt lat="47.45788" lon="6.64535">
        <ele>373.9</ele>
        <time>2017-06-11T08:51:06.000Z</time>
      </trkpt>
      <trkpt lat="47.45787" lon="6.64526">
        <ele>372.1</ele>
        <time>2017-06-11T08:51:07.000Z</time>
      </trkpt>
      <trkpt lat="47.45786" lon="6.64517">
        <ele>370.1</ele>
        <time>2017-06-11T08:51:08.000Z</time>
      </trkpt>
      <trkpt lat="47.45786" lon="6.64507">
        <ele>367.9</ele>
        <time>2017-06-11T08:51:09.000Z</time>
      </trkpt>
      <trkpt lat="47.45786" lon="6.64498">
        <ele>366.7</ele>
        <time>2017-06-11T08:51:10.000Z</time>
      </trkpt>
      <trkpt lat="47.45786" lon="6.64488">
        <ele>365.2</ele>
        <time>2017-06-11T08:51:11.000Z</time>
      </trkpt>
      <trkpt lat="47.45785" lon="6.64478">
        <ele>363.2</ele>
        <time>2017-06-11T08:51:12.000Z</time>
      </trkpt>
      <trkpt lat="47.45784" lon="6.6447">
        <ele>360.9</ele>
        <time>2017-06-11T08:51:13.000Z</time>
      </trkpt>
      <trkpt lat="47.4578" lon="6.6446">
        <ele>359.3</ele>
        <time>2017-06-11T08:51:14.000Z</time>
      </trkpt>
      <trkpt lat="47.45777" lon="6.64459">
        <ele>359.2</ele>
        <time>2017-06-11T08:51:15.000Z</time>
      </trkpt>
      <trkpt lat="47.45775" lon="6.64457">
        <ele>359.1</ele>
        <time>2017-06-11T08:51:16.000Z</time>
      </trkpt>
      <trkpt lat="47.45776" lon="6.64453">
        <ele>358.7</ele>
        <time>2017-06-11T08:51:18.000Z</time>
      </trkpt>
      <trkpt lat="47.45777" lon="6.6445">
        <ele>358.6</ele>
        <time>2017-06-11T08:51:19.000Z</time>
      </trkpt>
      <trkpt lat="47.45778" lon="6.64445">
        <ele>358.5</ele>
        <time>2017-06-11T08:51:20.000Z</time>
      </trkpt>
      <trkpt lat="47.4578" lon="6.64441">
        <ele>358.4</ele>
        <time>2017-06-11T08:51:21.000Z</time>
      </trkpt>
      <trkpt lat="47.45781" lon="6.64436">
        <ele>358.2</ele>
        <time>2017-06-11T08:51:22.000Z</time>
      </trkpt>
      <trkpt lat="47.45782" lon="6.6443">
        <ele>358.1</ele>
        <time>2017-06-11T08:51:23.000Z</time>
      </trkpt>
      <trkpt lat="47.45782" lon="6.64425">
        <ele>358.1</ele>
        <time>2017-06-11T08:51:24.000Z</time>
      </trkpt>
      <trkpt lat="47.45784" lon="6.6442">
        <ele>358</ele>
        <time>2017-06-11T08:51:25.000Z</time>
      </trkpt>
      <trkpt lat="47.45785" lon="6.64415">
        <ele>358.1</ele>
        <time>2017-06-11T08:51:26.000Z</time>
      </trkpt>
      <trkpt lat="47.45786" lon="6.64409">
        <ele>358.3</ele>
        <time>2017-06-11T08:51:27.000Z</time>
      </trkpt>
      <trkpt lat="47.45786" lon="6.64403">
        <ele>358.5</ele>
        <time>2017-06-11T08:51:28.000Z</time>
      </trkpt>
      <trkpt lat="47.45787" lon="6.64398">
        <ele>358.8</ele>
        <time>2017-06-11T08:51:29.000Z</time>
      </trkpt>
      <trkpt lat="47.45788" lon="6.64392">
        <ele>359.1</ele>
        <time>2017-06-11T08:51:30.000Z</time>
      </trkpt>
      <trkpt lat="47.45789" lon="6.64386">
        <ele>359.4</ele>
        <time>2017-06-11T08:51:31.000Z</time>
      </trkpt>
      <trkpt lat="47.45789" lon="6.6438">
        <ele>359.7</ele>
        <time>2017-06-11T08:51:32.000Z</time>
      </trkpt>
      <trkpt lat="47.4579" lon="6.64374">
        <ele>362.2</ele>
        <time>2017-06-11T08:51:33.000Z</time>
      </trkpt>
      <trkpt lat="47.45792" lon="6.64369">
        <ele>363.7</ele>
        <time>2017-06-11T08:51:34.000Z</time>
      </trkpt>
      <trkpt lat="47.45794" lon="6.64364">
        <ele>365.6</ele>
        <time>2017-06-11T08:51:35.000Z</time>
      </trkpt>
      <trkpt lat="47.45796" lon="6.64357">
        <ele>367</ele>
        <time>2017-06-11T08:51:36.000Z</time>
      </trkpt>
      <trkpt lat="47.45797" lon="6.64351">
        <ele>367.1</ele>
        <time>2017-06-11T08:51:37.000Z</time>
      </trkpt>
      <trkpt lat="47.45799" lon="6.64344">
        <ele>368.1</ele>
        <time>2017-06-11T08:51:38.000Z</time>
      </trkpt>
      <trkpt lat="47.458" lon="6.64337">
        <ele>369.8</ele>
        <time>2017-06-11T08:51:39.000Z</time>
      </trkpt>
      <trkpt lat="47.45801" lon="6.64331">
        <ele>369.9</ele>
        <time>2017-06-11T08:51:40.000Z</time>
      </trkpt>
      <trkpt lat="47.45802" lon="6.64327">
        <ele>370</ele>
        <time>2017-06-11T08:51:41.000Z</time>
      </trkpt>
      <trkpt lat="47.45803" lon="6.64323">
        <ele>370.2</ele>
        <time>2017-06-11T08:51:42.000Z</time>
      </trkpt>
      <trkpt lat="47.45803" lon="6.64318">
        <ele>370.5</ele>
        <time>2017-06-11T08:51:43.000Z</time>
      </trkpt>
      <trkpt lat="47.45804" lon="6.64314">
        <ele>370.6</ele>
        <time>2017-06-11T08:51:44.000Z</time>
      </trkpt>
      <trkpt lat="47.45806" lon="6.6431">
        <ele>370.8</ele>
        <time>2017-06-11T08:51:45.000Z</time>
      </trkpt>
      <trkpt lat="47.45806" lon="6.64305">
        <ele>371</ele>
        <time>2017-06-11T08:51:46.000Z</time>
      </trkpt>
      <trkpt lat="47.45806" lon="6.64301">
        <ele>371.2</ele>
        <time>2017-06-11T08:51:47.000Z</time>
      </trkpt>
      <trkpt lat="47.45807" lon="6.64295">
        <ele>371.4</ele>
        <time>2017-06-11T08:51:48.000Z</time>
      </trkpt>
      <trkpt lat="47.45808" lon="6.64287">
        <ele>371.7</ele>
        <time>2017-06-11T08:51:49.000Z</time>
      </trkpt>
      <trkpt lat="47.45809" lon="6.64283">
        <ele>371.9</ele>
        <time>2017-06-11T08:51:50.000Z</time>
      </trkpt>
      <trkpt lat="47.4581" lon="6.6428">
        <ele>372.2</ele>
        <time>2017-06-11T08:51:51.000Z</time>
      </trkpt>
      <trkpt lat="47.4581" lon="6.64278">
        <ele>372.4</ele>
        <time>2017-06-11T08:51:52.000Z</time>
      </trkpt>
      <trkpt lat="47.45809" lon="6.64272">
        <ele>372.6</ele>
        <time>2017-06-11T08:51:53.000Z</time>
      </trkpt>
      <trkpt lat="47.45811" lon="6.64268">
        <ele>372.8</ele>
        <time>2017-06-11T08:51:54.000Z</time>
      </trkpt>
      <trkpt lat="47.45813" lon="6.64264">
        <ele>373.1</ele>
        <time>2017-06-11T08:51:55.000Z</time>
      </trkpt>
      <trkpt lat="47.45815" lon="6.64258">
        <ele>373.5</ele>
        <time>2017-06-11T08:51:57.000Z</time>
      </trkpt>
      <trkpt lat="47.45816" lon="6.64255">
        <ele>373.7</ele>
        <time>2017-06-11T08:51:58.000Z</time>
      </trkpt>
      <trkpt lat="47.45817" lon="6.64252">
        <ele>374</ele>
        <time>2017-06-11T08:51:59.000Z</time>
      </trkpt>
      <trkpt lat="47.45818" lon="6.64249">
        <ele>374.3</ele>
        <time>2017-06-11T08:52:00.000Z</time>
      </trkpt>
      <trkpt lat="47.45819" lon="6.64246">
        <ele>374.5</ele>
        <time>2017-06-11T08:52:01.000Z</time>
      </trkpt>
      <trkpt lat="47.45821" lon="6.64243">
        <ele>374.8</ele>
        <time>2017-06-11T08:52:02.000Z</time>
      </trkpt>
      <trkpt lat="47.45822" lon="6.6424">
        <ele>375.1</ele>
        <time>2017-06-11T08:52:03.000Z</time>
      </trkpt>
      <trkpt lat="47.45823" lon="6.64236">
        <ele>375.3</ele>
        <time>2017-06-11T08:52:04.000Z</time>
      </trkpt>
      <trkpt lat="47.45824" lon="6.64232">
        <ele>375.5</ele>
        <time>2017-06-11T08:52:05.000Z</time>
      </trkpt>
      <trkpt lat="47.45825" lon="6.64228">
        <ele>375.7</ele>
        <time>2017-06-11T08:52:06.000Z</time>
      </trkpt>
      <trkpt lat="47.45826" lon="6.64225">
        <ele>375.9</ele>
        <time>2017-06-11T08:52:07.000Z</time>
      </trkpt>
      <trkpt lat="47.45826" lon="6.64221">
        <ele>376.2</ele>
        <time>2017-06-11T08:52:08.000Z</time>
      </trkpt>
      <trkpt lat="47.45827" lon="6.64218">
        <ele>376.6</ele>
        <time>2017-06-11T08:52:09.000Z</time>
      </trkpt>
      <trkpt lat="47.45828" lon="6.64215">
        <ele>376.9</ele>
        <time>2017-06-11T08:52:10.000Z</time>
      </trkpt>
      <trkpt lat="47.4583" lon="6.6421">
        <ele>377.6</ele>
        <time>2017-06-11T08:52:12.000Z</time>
      </trkpt>
      <trkpt lat="47.45831" lon="6.64207">
        <ele>377.9</ele>
        <time>2017-06-11T08:52:13.000Z</time>
      </trkpt>
      <trkpt lat="47.45831" lon="6.64204">
        <ele>378.2</ele>
        <time>2017-06-11T08:52:14.000Z</time>
      </trkpt>
      <trkpt lat="47.45831" lon="6.642">
        <ele>378.6</ele>
        <time>2017-06-11T08:52:15.000Z</time>
      </trkpt>
      <trkpt lat="47.45831" lon="6.64196">
        <ele>379</ele>
        <time>2017-06-11T08:52:16.000Z</time>
      </trkpt>
      <trkpt lat="47.45831" lon="6.64192">
        <ele>379.4</ele>
        <time>2017-06-11T08:52:17.000Z</time>
      </trkpt>
      <trkpt lat="47.4583" lon="6.64188">
        <ele>379.8</ele>
        <time>2017-06-11T08:52:18.000Z</time>
      </trkpt>
      <trkpt lat="47.45829" lon="6.64184">
        <ele>380.2</ele>
        <time>2017-06-11T08:52:19.000Z</time>
      </trkpt>
      <trkpt lat="47.45828" lon="6.6418">
        <ele>380.6</ele>
        <time>2017-06-11T08:52:20.000Z</time>
      </trkpt>
      <trkpt lat="47.45826" lon="6.64175">
        <ele>381</ele>
        <time>2017-06-11T08:52:21.000Z</time>
      </trkpt>
      <trkpt lat="47.45824" lon="6.64168">
        <ele>381.3</ele>
        <time>2017-06-11T08:52:22.000Z</time>
      </trkpt>
      <trkpt lat="47.45821" lon="6.64162">
        <ele>381.8</ele>
        <time>2017-06-11T08:52:23.000Z</time>
      </trkpt>
      <trkpt lat="47.45818" lon="6.64156">
        <ele>382.1</ele>
        <time>2017-06-11T08:52:24.000Z</time>
      </trkpt>
      <trkpt lat="47.45816" lon="6.64154">
        <ele>382.4</ele>
        <time>2017-06-11T08:52:25.000Z</time>
      </trkpt>
      <trkpt lat="47.45813" lon="6.6415">
        <ele>382.8</ele>
        <time>2017-06-11T08:52:26.000Z</time>
      </trkpt>
      <trkpt lat="47.45812" lon="6.64141">
        <ele>383.2</ele>
        <time>2017-06-11T08:52:27.000Z</time>
      </trkpt>
      <trkpt lat="47.45812" lon="6.64132">
        <ele>383.6</ele>
        <time>2017-06-11T08:52:28.000Z</time>
      </trkpt>
      <trkpt lat="47.45811" lon="6.64126">
        <ele>388</ele>
        <time>2017-06-11T08:52:29.000Z</time>
      </trkpt>
      <trkpt lat="47.45811" lon="6.6412">
        <ele>388.4</ele>
        <time>2017-06-11T08:52:30.000Z</time>
      </trkpt>
      <trkpt lat="47.45811" lon="6.64115">
        <ele>388.7</ele>
        <time>2017-06-11T08:52:31.000Z</time>
      </trkpt>
      <trkpt lat="47.45812" lon="6.64109">
        <ele>389.1</ele>
        <time>2017-06-11T08:52:32.000Z</time>
      </trkpt>
      <trkpt lat="47.45812" lon="6.641">
        <ele>389.4</ele>
        <time>2017-06-11T08:52:33.000Z</time>
      </trkpt>
      <trkpt lat="47.45812" lon="6.64094">
        <ele>389.8</ele>
        <time>2017-06-11T08:52:34.000Z</time>
      </trkpt>
      <trkpt lat="47.45812" lon="6.64089">
        <ele>393.7</ele>
        <time>2017-06-11T08:52:35.000Z</time>
      </trkpt>
      <trkpt lat="47.45812" lon="6.64083">
        <ele>394.1</ele>
        <time>2017-06-11T08:52:36.000Z</time>
      </trkpt>
      <trkpt lat="47.45811" lon="6.6408">
        <ele>394.5</ele>
        <time>2017-06-11T08:52:37.000Z</time>
      </trkpt>
      <trkpt lat="47.4581" lon="6.64075">
        <ele>394.9</ele>
        <time>2017-06-11T08:52:38.000Z</time>
      </trkpt>
      <trkpt lat="47.45809" lon="6.64069">
        <ele>395.2</ele>
        <time>2017-06-11T08:52:39.000Z</time>
      </trkpt>
      <trkpt lat="47.45807" lon="6.64064">
        <ele>395.7</ele>
        <time>2017-06-11T08:52:40.000Z</time>
      </trkpt>
      <trkpt lat="47.45806" lon="6.64059">
        <ele>396.2</ele>
        <time>2017-06-11T08:52:41.000Z</time>
      </trkpt>
      <trkpt lat="47.45803" lon="6.64051">
        <ele>396.6</ele>
        <time>2017-06-11T08:52:42.000Z</time>
      </trkpt>
      <trkpt lat="47.45802" lon="6.64043">
        <ele>397</ele>
        <time>2017-06-11T08:52:43.000Z</time>
      </trkpt>
      <trkpt lat="47.45801" lon="6.6404">
        <ele>397.3</ele>
        <time>2017-06-11T08:52:44.000Z</time>
      </trkpt>
      <trkpt lat="47.45799" lon="6.64037">
        <ele>397.7</ele>
        <time>2017-06-11T08:52:45.000Z</time>
      </trkpt>
      <trkpt lat="47.45797" lon="6.64032">
        <ele>398.1</ele>
        <time>2017-06-11T08:52:46.000Z</time>
      </trkpt>
      <trkpt lat="47.45798" lon="6.64026">
        <ele>398.3</ele>
        <time>2017-06-11T08:52:47.000Z</time>
      </trkpt>
      <trkpt lat="47.45799" lon="6.64021">
        <ele>398.6</ele>
        <time>2017-06-11T08:52:48.000Z</time>
      </trkpt>
      <trkpt lat="47.45799" lon="6.64014">
        <ele>398.9</ele>
        <time>2017-06-11T08:52:49.000Z</time>
      </trkpt>
      <trkpt lat="47.45799" lon="6.64007">
        <ele>401</ele>
        <time>2017-06-11T08:52:50.000Z</time>
      </trkpt>
      <trkpt lat="47.45799" lon="6.63997">
        <ele>402.7</ele>
        <time>2017-06-11T08:52:51.000Z</time>
      </trkpt>
      <trkpt lat="47.45799" lon="6.6399">
        <ele>405.2</ele>
        <time>2017-06-11T08:52:52.000Z</time>
      </trkpt>
      <trkpt lat="47.45799" lon="6.63984">
        <ele>406.8</ele>
        <time>2017-06-11T08:52:53.000Z</time>
      </trkpt>
      <trkpt lat="47.45799" lon="6.63977">
        <ele>408.8</ele>
        <time>2017-06-11T08:52:54.000Z</time>
      </trkpt>
      <trkpt lat="47.45799" lon="6.6397">
        <ele>411</ele>
        <time>2017-06-11T08:52:55.000Z</time>
      </trkpt>
      <trkpt lat="47.45798" lon="6.6396">
        <ele>412</ele>
        <time>2017-06-11T08:52:56.000Z</time>
      </trkpt>
      <trkpt lat="47.45799" lon="6.63955">
        <ele>412.1</ele>
        <time>2017-06-11T08:52:57.000Z</time>
      </trkpt>
      <trkpt lat="47.45801" lon="6.63946">
        <ele>412.1</ele>
        <time>2017-06-11T08:52:58.000Z</time>
      </trkpt>
      <trkpt lat="47.45801" lon="6.63941">
        <ele>411.5</ele>
        <time>2017-06-11T08:52:59.000Z</time>
      </trkpt>
      <trkpt lat="47.45801" lon="6.63936">
        <ele>411.4</ele>
        <time>2017-06-11T08:53:00.000Z</time>
      </trkpt>
      <trkpt lat="47.45802" lon="6.63931">
        <ele>411.4</ele>
        <time>2017-06-11T08:53:01.000Z</time>
      </trkpt>
      <trkpt lat="47.45803" lon="6.63927">
        <ele>411.4</ele>
        <time>2017-06-11T08:53:02.000Z</time>
      </trkpt>
      <trkpt lat="47.45803" lon="6.63922">
        <ele>411.5</ele>
        <time>2017-06-11T08:53:03.000Z</time>
      </trkpt>
      <trkpt lat="47.45803" lon="6.63918">
        <ele>411.4</ele>
        <time>2017-06-11T08:53:04.000Z</time>
      </trkpt>
      <trkpt lat="47.45802" lon="6.63913">
        <ele>411.3</ele>
        <time>2017-06-11T08:53:05.000Z</time>
      </trkpt>
      <trkpt lat="47.45802" lon="6.63902">
        <ele>409.7</ele>
        <time>2017-06-11T08:53:06.000Z</time>
      </trkpt>
      <trkpt lat="47.45803" lon="6.63897">
        <ele>408.5</ele>
        <time>2017-06-11T08:53:07.000Z</time>
      </trkpt>
      <trkpt lat="47.45805" lon="6.63892">
        <ele>408.5</ele>
        <time>2017-06-11T08:53:08.000Z</time>
      </trkpt>
      <trkpt lat="47.45805" lon="6.63884">
        <ele>408.3</ele>
        <time>2017-06-11T08:53:09.000Z</time>
      </trkpt>
      <trkpt lat="47.45805" lon="6.63881">
        <ele>408.1</ele>
        <time>2017-06-11T08:53:10.000Z</time>
      </trkpt>
      <trkpt lat="47.45806" lon="6.63876">
        <ele>407.8</ele>
        <time>2017-06-11T08:53:11.000Z</time>
      </trkpt>
      <trkpt lat="47.45809" lon="6.63869">
        <ele>407.6</ele>
        <time>2017-06-11T08:53:12.000Z</time>
      </trkpt>
      <trkpt lat="47.4581" lon="6.63866">
        <ele>407.3</ele>
        <time>2017-06-11T08:53:13.000Z</time>
      </trkpt>
      <trkpt lat="47.45811" lon="6.63862">
        <ele>407.2</ele>
        <time>2017-06-11T08:53:14.000Z</time>
      </trkpt>
      <trkpt lat="47.45813" lon="6.63856">
        <ele>406.7</ele>
        <time>2017-06-11T08:53:16.000Z</time>
      </trkpt>
      <trkpt lat="47.45814" lon="6.63853">
        <ele>406.5</ele>
        <time>2017-06-11T08:53:17.000Z</time>
      </trkpt>
      <trkpt lat="47.45815" lon="6.63848">
        <ele>406.3</ele>
        <time>2017-06-11T08:53:18.000Z</time>
      </trkpt>
      <trkpt lat="47.45817" lon="6.63841">
        <ele>406</ele>
        <time>2017-06-11T08:53:19.000Z</time>
      </trkpt>
      <trkpt lat="47.45817" lon="6.63838">
        <ele>405.6</ele>
        <time>2017-06-11T08:53:20.000Z</time>
      </trkpt>
      <trkpt lat="47.45816" lon="6.63831">
        <ele>405.3</ele>
        <time>2017-06-11T08:53:21.000Z</time>
      </trkpt>
      <trkpt lat="47.45814" lon="6.63825">
        <ele>405</ele>
        <time>2017-06-11T08:53:22.000Z</time>
      </trkpt>
      <trkpt lat="47.45813" lon="6.63822">
        <ele>404.7</ele>
        <time>2017-06-11T08:53:23.000Z</time>
      </trkpt>
      <trkpt lat="47.45811" lon="6.63819">
        <ele>404.4</ele>
        <time>2017-06-11T08:53:24.000Z</time>
      </trkpt>
      <trkpt lat="47.4581" lon="6.63814">
        <ele>404.1</ele>
        <time>2017-06-11T08:53:25.000Z</time>
      </trkpt>
      <trkpt lat="47.45808" lon="6.63807">
        <ele>401.4</ele>
        <time>2017-06-11T08:53:26.000Z</time>
      </trkpt>
      <trkpt lat="47.45806" lon="6.63799">
        <ele>399.5</ele>
        <time>2017-06-11T08:53:27.000Z</time>
      </trkpt>
      <trkpt lat="47.45803" lon="6.63792">
        <ele>396.8</ele>
        <time>2017-06-11T08:53:28.000Z</time>
      </trkpt>
      <trkpt lat="47.45799" lon="6.63784">
        <ele>393.7</ele>
        <time>2017-06-11T08:53:29.000Z</time>
      </trkpt>
      <trkpt lat="47.45797" lon="6.63778">
        <ele>391.4</ele>
        <time>2017-06-11T08:53:30.000Z</time>
      </trkpt>
      <trkpt lat="47.45795" lon="6.63768">
        <ele>389.9</ele>
        <time>2017-06-11T08:53:31.000Z</time>
      </trkpt>
      <trkpt lat="47.45792" lon="6.63758">
        <ele>387.6</ele>
        <time>2017-06-11T08:53:32.000Z</time>
      </trkpt>
      <trkpt lat="47.4579" lon="6.63749">
        <ele>385.5</ele>
        <time>2017-06-11T08:53:33.000Z</time>
      </trkpt>
      <trkpt lat="47.45788" lon="6.63742">
        <ele>384.2</ele>
        <time>2017-06-11T08:53:34.000Z</time>
      </trkpt>
      <trkpt lat="47.45787" lon="6.63733">
        <ele>383.1</ele>
        <time>2017-06-11T08:53:35.000Z</time>
      </trkpt>
      <trkpt lat="47.45785" lon="6.63723">
        <ele>382.2</ele>
        <time>2017-06-11T08:53:36.000Z</time>
      </trkpt>
      <trkpt lat="47.45784" lon="6.63715">
        <ele>381</ele>
        <time>2017-06-11T08:53:37.000Z</time>
      </trkpt>
      <trkpt lat="47.4578" lon="6.63707">
        <ele>380.9</ele>
        <time>2017-06-11T08:53:38.000Z</time>
      </trkpt>
      <trkpt lat="47.45777" lon="6.63705">
        <ele>380.8</ele>
        <time>2017-06-11T08:53:40.000Z</time>
      </trkpt>
      <trkpt lat="47.45773" lon="6.63702">
        <ele>380.7</ele>
        <time>2017-06-11T08:53:41.000Z</time>
      </trkpt>
      <trkpt lat="47.45769" lon="6.63697">
        <ele>380.7</ele>
        <time>2017-06-11T08:53:42.000Z</time>
      </trkpt>
      <trkpt lat="47.45765" lon="6.6369">
        <ele>380.6</ele>
        <time>2017-06-11T08:53:43.000Z</time>
      </trkpt>
      <trkpt lat="47.45761" lon="6.63684">
        <ele>380.5</ele>
        <time>2017-06-11T08:53:44.000Z</time>
      </trkpt>
      <trkpt lat="47.45757" lon="6.63682">
        <ele>380.4</ele>
        <time>2017-06-11T08:53:45.000Z</time>
      </trkpt>
      <trkpt lat="47.45752" lon="6.63684">
        <ele>380.2</ele>
        <time>2017-06-11T08:53:46.000Z</time>
      </trkpt>
      <trkpt lat="47.45745" lon="6.63686">
        <ele>380</ele>
        <time>2017-06-11T08:53:47.000Z</time>
      </trkpt>
      <trkpt lat="47.45738" lon="6.63682">
        <ele>379.8</ele>
        <time>2017-06-11T08:53:48.000Z</time>
      </trkpt>
      <trkpt lat="47.4573" lon="6.6368">
        <ele>379.5</ele>
        <time>2017-06-11T08:53:49.000Z</time>
      </trkpt>
      <trkpt lat="47.45722" lon="6.63675">
        <ele>378.2</ele>
        <time>2017-06-11T08:53:50.000Z</time>
      </trkpt>
      <trkpt lat="47.45715" lon="6.63669">
        <ele>376.7</ele>
        <time>2017-06-11T08:53:51.000Z</time>
      </trkpt>
      <trkpt lat="47.45709" lon="6.63662">
        <ele>376.2</ele>
        <time>2017-06-11T08:53:52.000Z</time>
      </trkpt>
      <trkpt lat="47.45706" lon="6.63657">
        <ele>376.2</ele>
        <time>2017-06-11T08:53:53.000Z</time>
      </trkpt>
      <trkpt lat="47.45701" lon="6.63653">
        <ele>376.7</ele>
        <time>2017-06-11T08:53:54.000Z</time>
      </trkpt>
      <trkpt lat="47.45696" lon="6.63649">
        <ele>376.9</ele>
        <time>2017-06-11T08:53:55.000Z</time>
      </trkpt>
      <trkpt lat="47.4569" lon="6.63646">
        <ele>376.7</ele>
        <time>2017-06-11T08:53:56.000Z</time>
      </trkpt>
      <trkpt lat="47.45684" lon="6.63642">
        <ele>376.4</ele>
        <time>2017-06-11T08:53:57.000Z</time>
      </trkpt>
      <trkpt lat="47.45676" lon="6.63637">
        <ele>376.4</ele>
        <time>2017-06-11T08:53:58.000Z</time>
      </trkpt>
      <trkpt lat="47.4567" lon="6.63635">
        <ele>376.5</ele>
        <time>2017-06-11T08:53:59.000Z</time>
      </trkpt>
      <trkpt lat="47.45663" lon="6.63632">
        <ele>376</ele>
        <time>2017-06-11T08:54:00.000Z</time>
      </trkpt>
      <trkpt lat="47.45655" lon="6.6363">
        <ele>375.7</ele>
        <time>2017-06-11T08:54:01.000Z</time>
      </trkpt>
      <trkpt lat="47.4565" lon="6.63627">
        <ele>375.6</ele>
        <time>2017-06-11T08:54:02.000Z</time>
      </trkpt>
      <trkpt lat="47.45644" lon="6.63624">
        <ele>375.6</ele>
        <time>2017-06-11T08:54:03.000Z</time>
      </trkpt>
      <trkpt lat="47.45641" lon="6.63625">
        <ele>375.4</ele>
        <time>2017-06-11T08:54:04.000Z</time>
      </trkpt>
      <trkpt lat="47.45634" lon="6.63625">
        <ele>375.2</ele>
        <time>2017-06-11T08:54:05.000Z</time>
      </trkpt>
      <trkpt lat="47.45627" lon="6.63625">
        <ele>375</ele>
        <time>2017-06-11T08:54:06.000Z</time>
      </trkpt>
      <trkpt lat="47.45621" lon="6.63624">
        <ele>374.8</ele>
        <time>2017-06-11T08:54:07.000Z</time>
      </trkpt>
      <trkpt lat="47.45613" lon="6.63623">
        <ele>374.6</ele>
        <time>2017-06-11T08:54:08.000Z</time>
      </trkpt>
      <trkpt lat="47.45606" lon="6.63623">
        <ele>371.8</ele>
        <time>2017-06-11T08:54:09.000Z</time>
      </trkpt>
      <trkpt lat="47.45601" lon="6.63625">
        <ele>369.6</ele>
        <time>2017-06-11T08:54:10.000Z</time>
      </trkpt>
      <trkpt lat="47.45596" lon="6.63626">
        <ele>367.5</ele>
        <time>2017-06-11T08:54:11.000Z</time>
      </trkpt>
      <trkpt lat="47.4559" lon="6.63625">
        <ele>365.1</ele>
        <time>2017-06-11T08:54:12.000Z</time>
      </trkpt>
      <trkpt lat="47.45584" lon="6.63625">
        <ele>365</ele>
        <time>2017-06-11T08:54:13.000Z</time>
      </trkpt>
      <trkpt lat="47.4558" lon="6.63625">
        <ele>364.8</ele>
        <time>2017-06-11T08:54:14.000Z</time>
      </trkpt>
      <trkpt lat="47.45575" lon="6.63622">
        <ele>362.1</ele>
        <time>2017-06-11T08:54:15.000Z</time>
      </trkpt>
      <trkpt lat="47.4557" lon="6.6362">
        <ele>360.9</ele>
        <time>2017-06-11T08:54:16.000Z</time>
      </trkpt>
      <trkpt lat="47.45565" lon="6.63619">
        <ele>358.6</ele>
        <time>2017-06-11T08:54:17.000Z</time>
      </trkpt>
      <trkpt lat="47.45558" lon="6.63618">
        <ele>356.2</ele>
        <time>2017-06-11T08:54:18.000Z</time>
      </trkpt>
      <trkpt lat="47.4555" lon="6.63615">
        <ele>355.2</ele>
        <time>2017-06-11T08:54:19.000Z</time>
      </trkpt>
      <trkpt lat="47.45544" lon="6.63612">
        <ele>354.4</ele>
        <time>2017-06-11T08:54:20.000Z</time>
      </trkpt>
      <trkpt lat="47.45539" lon="6.63611">
        <ele>353.5</ele>
        <time>2017-06-11T08:54:21.000Z</time>
      </trkpt>
      <trkpt lat="47.45532" lon="6.63611">
        <ele>353.5</ele>
        <time>2017-06-11T08:54:22.000Z</time>
      </trkpt>
      <trkpt lat="47.45527" lon="6.63612">
        <ele>353.4</ele>
        <time>2017-06-11T08:54:23.000Z</time>
      </trkpt>
      <trkpt lat="47.45521" lon="6.63613">
        <ele>353.4</ele>
        <time>2017-06-11T08:54:24.000Z</time>
      </trkpt>
      <trkpt lat="47.45516" lon="6.63612">
        <ele>352.9</ele>
        <time>2017-06-11T08:54:25.000Z</time>
      </trkpt>
      <trkpt lat="47.4551" lon="6.63612">
        <ele>353.2</ele>
        <time>2017-06-11T08:54:26.000Z</time>
      </trkpt>
      <trkpt lat="47.45504" lon="6.63613">
        <ele>352.4</ele>
        <time>2017-06-11T08:54:27.000Z</time>
      </trkpt>
      <trkpt lat="47.45499" lon="6.63617">
        <ele>352.2</ele>
        <time>2017-06-11T08:54:28.000Z</time>
      </trkpt>
      <trkpt lat="47.45495" lon="6.6362">
        <ele>352</ele>
        <time>2017-06-11T08:54:29.000Z</time>
      </trkpt>
      <trkpt lat="47.45491" lon="6.63623">
        <ele>351.8</ele>
        <time>2017-06-11T08:54:30.000Z</time>
      </trkpt>
      <trkpt lat="47.45488" lon="6.63622">
        <ele>352.9</ele>
        <time>2017-06-11T08:54:39.000Z</time>
      </trkpt>
      <trkpt lat="47.45485" lon="6.63618">
        <ele>353.1</ele>
        <time>2017-06-11T08:54:40.000Z</time>
      </trkpt>
      <trkpt lat="47.45483" lon="6.63608">
        <ele>355.2</ele>
        <time>2017-06-11T08:54:41.000Z</time>
      </trkpt>
      <trkpt lat="47.4548" lon="6.63599">
        <ele>355.3</ele>
        <time>2017-06-11T08:54:42.000Z</time>
      </trkpt>
      <trkpt lat="47.45479" lon="6.63593">
        <ele>356.3</ele>
        <time>2017-06-11T08:54:43.000Z</time>
      </trkpt>
      <trkpt lat="47.45475" lon="6.63589">
        <ele>357.8</ele>
        <time>2017-06-11T08:54:44.000Z</time>
      </trkpt>
      <trkpt lat="47.45471" lon="6.63586">
        <ele>359.6</ele>
        <time>2017-06-11T08:54:45.000Z</time>
      </trkpt>
      <trkpt lat="47.45466" lon="6.63584">
        <ele>359.7</ele>
        <time>2017-06-11T08:54:46.000Z</time>
      </trkpt>
      <trkpt lat="47.4546" lon="6.6358">
        <ele>360.4</ele>
        <time>2017-06-11T08:54:47.000Z</time>
      </trkpt>
      <trkpt lat="47.45455" lon="6.63577">
        <ele>360.7</ele>
        <time>2017-06-11T08:54:48.000Z</time>
      </trkpt>
      <trkpt lat="47.45447" lon="6.63572">
        <ele>358.8</ele>
        <time>2017-06-11T08:54:49.000Z</time>
      </trkpt>
      <trkpt lat="47.45441" lon="6.63572">
        <ele>357.5</ele>
        <time>2017-06-11T08:54:50.000Z</time>
      </trkpt>
      <trkpt lat="47.45435" lon="6.63575">
        <ele>356.9</ele>
        <time>2017-06-11T08:54:51.000Z</time>
      </trkpt>
      <trkpt lat="47.4543" lon="6.63576">
        <ele>356</ele>
        <time>2017-06-11T08:54:52.000Z</time>
      </trkpt>
      <trkpt lat="47.45427" lon="6.63577">
        <ele>355.9</ele>
        <time>2017-06-11T08:54:53.000Z</time>
      </trkpt>
      <trkpt lat="47.45425" lon="6.63579">
        <ele>355.9</ele>
        <time>2017-06-11T08:54:54.000Z</time>
      </trkpt>
      <trkpt lat="47.45422" lon="6.63583">
        <ele>355.9</ele>
        <time>2017-06-11T08:54:55.000Z</time>
      </trkpt>
      <trkpt lat="47.4542" lon="6.63586">
        <ele>355.9</ele>
        <time>2017-06-11T08:54:56.000Z</time>
      </trkpt>
      <trkpt lat="47.45415" lon="6.63591">
        <ele>355.8</ele>
        <time>2017-06-11T08:54:57.000Z</time>
      </trkpt>
      <trkpt lat="47.45412" lon="6.63594">
        <ele>354.6</ele>
        <time>2017-06-11T08:54:58.000Z</time>
      </trkpt>
      <trkpt lat="47.45409" lon="6.63598">
        <ele>352.7</ele>
        <time>2017-06-11T08:54:59.000Z</time>
      </trkpt>
      <trkpt lat="47.45406" lon="6.63601">
        <ele>352.5</ele>
        <time>2017-06-11T08:55:00.000Z</time>
      </trkpt>
      <trkpt lat="47.45403" lon="6.63603">
        <ele>352.4</ele>
        <time>2017-06-11T08:55:01.000Z</time>
      </trkpt>
      <trkpt lat="47.45399" lon="6.63605">
        <ele>352.3</ele>
        <time>2017-06-11T08:55:02.000Z</time>
      </trkpt>
      <trkpt lat="47.45396" lon="6.63607">
        <ele>352.4</ele>
        <time>2017-06-11T08:55:03.000Z</time>
      </trkpt>
      <trkpt lat="47.45393" lon="6.63609">
        <ele>352.4</ele>
        <time>2017-06-11T08:55:04.000Z</time>
      </trkpt>
      <trkpt lat="47.4539" lon="6.6361">
        <ele>352.4</ele>
        <time>2017-06-11T08:55:05.000Z</time>
      </trkpt>
      <trkpt lat="47.45388" lon="6.6361">
        <ele>352.3</ele>
        <time>2017-06-11T08:55:06.000Z</time>
      </trkpt>
      <trkpt lat="47.45385" lon="6.63612">
        <ele>352.3</ele>
        <time>2017-06-11T08:55:07.000Z</time>
      </trkpt>
      <trkpt lat="47.45382" lon="6.63615">
        <ele>352.3</ele>
        <time>2017-06-11T08:55:08.000Z</time>
      </trkpt>
      <trkpt lat="47.45378" lon="6.63617">
        <ele>352</ele>
        <time>2017-06-11T08:55:09.000Z</time>
      </trkpt>
      <trkpt lat="47.45374" lon="6.63619">
        <ele>351.3</ele>
        <time>2017-06-11T08:55:10.000Z</time>
      </trkpt>
      <trkpt lat="47.4537" lon="6.63621">
        <ele>350.4</ele>
        <time>2017-06-11T08:55:11.000Z</time>
      </trkpt>
      <trkpt lat="47.45366" lon="6.63623">
        <ele>349.4</ele>
        <time>2017-06-11T08:55:12.000Z</time>
      </trkpt>
      <trkpt lat="47.45362" lon="6.63625">
        <ele>348.2</ele>
        <time>2017-06-11T08:55:13.000Z</time>
      </trkpt>
      <trkpt lat="47.45358" lon="6.63626">
        <ele>347.7</ele>
        <time>2017-06-11T08:55:14.000Z</time>
      </trkpt>
      <trkpt lat="47.45353" lon="6.63627">
        <ele>347.2</ele>
        <time>2017-06-11T08:55:15.000Z</time>
      </trkpt>
      <trkpt lat="47.45349" lon="6.63628">
        <ele>346.8</ele>
        <time>2017-06-11T08:55:16.000Z</time>
      </trkpt>
      <trkpt lat="47.45345" lon="6.63628">
        <ele>346.8</ele>
        <time>2017-06-11T08:55:17.000Z</time>
      </trkpt>
      <trkpt lat="47.4534" lon="6.63629">
        <ele>347.1</ele>
        <time>2017-06-11T08:55:18.000Z</time>
      </trkpt>
      <trkpt lat="47.45336" lon="6.6363">
        <ele>347.5</ele>
        <time>2017-06-11T08:55:19.000Z</time>
      </trkpt>
      <trkpt lat="47.45333" lon="6.6363">
        <ele>347.5</ele>
        <time>2017-06-11T08:55:20.000Z</time>
      </trkpt>
      <trkpt lat="47.4533" lon="6.63631">
        <ele>347.6</ele>
        <time>2017-06-11T08:55:21.000Z</time>
      </trkpt>
      <trkpt lat="47.45327" lon="6.63632">
        <ele>347.6</ele>
        <time>2017-06-11T08:55:22.000Z</time>
      </trkpt>
      <trkpt lat="47.45324" lon="6.63633">
        <ele>347.5</ele>
        <time>2017-06-11T08:55:23.000Z</time>
      </trkpt>
      <trkpt lat="47.45321" lon="6.63634">
        <ele>347.6</ele>
        <time>2017-06-11T08:55:24.000Z</time>
      </trkpt>
      <trkpt lat="47.45318" lon="6.63634">
        <ele>347.6</ele>
        <time>2017-06-11T08:55:25.000Z</time>
      </trkpt>
      <trkpt lat="47.45315" lon="6.63635">
        <ele>347.6</ele>
        <time>2017-06-11T08:55:26.000Z</time>
      </trkpt>
      <trkpt lat="47.45313" lon="6.63636">
        <ele>347.6</ele>
        <time>2017-06-11T08:55:27.000Z</time>
      </trkpt>
      <trkpt lat="47.4531" lon="6.63637">
        <ele>347.6</ele>
        <time>2017-06-11T08:55:28.000Z</time>
      </trkpt>
      <trkpt lat="47.45307" lon="6.63636">
        <ele>347.6</ele>
        <time>2017-06-11T08:55:29.000Z</time>
      </trkpt>
      <trkpt lat="47.45305" lon="6.63634">
        <ele>347.7</ele>
        <time>2017-06-11T08:55:30.000Z</time>
      </trkpt>
      <trkpt lat="47.45304" lon="6.63631">
        <ele>347.8</ele>
        <time>2017-06-11T08:55:31.000Z</time>
      </trkpt>
      <trkpt lat="47.45303" lon="6.63627">
        <ele>347.8</ele>
        <time>2017-06-11T08:55:32.000Z</time>
      </trkpt>
      <trkpt lat="47.45303" lon="6.63623">
        <ele>347.7</ele>
        <time>2017-06-11T08:55:33.000Z</time>
      </trkpt>
      <trkpt lat="47.45304" lon="6.63618">
        <ele>347.6</ele>
        <time>2017-06-11T08:55:34.000Z</time>
      </trkpt>
      <trkpt lat="47.45304" lon="6.63613">
        <ele>347.6</ele>
        <time>2017-06-11T08:55:35.000Z</time>
      </trkpt>
      <trkpt lat="47.45305" lon="6.63609">
        <ele>347.5</ele>
        <time>2017-06-11T08:55:36.000Z</time>
      </trkpt>
      <trkpt lat="47.45306" lon="6.63604">
        <ele>347.5</ele>
        <time>2017-06-11T08:55:37.000Z</time>
      </trkpt>
      <trkpt lat="47.45307" lon="6.63599">
        <ele>347.5</ele>
        <time>2017-06-11T08:55:38.000Z</time>
      </trkpt>
      <trkpt lat="47.45309" lon="6.63595">
        <ele>347.6</ele>
        <time>2017-06-11T08:55:39.000Z</time>
      </trkpt>
      <trkpt lat="47.4531" lon="6.6359">
        <ele>347.6</ele>
        <time>2017-06-11T08:55:40.000Z</time>
      </trkpt>
      <trkpt lat="47.45311" lon="6.63586">
        <ele>347.6</ele>
        <time>2017-06-11T08:55:41.000Z</time>
      </trkpt>
      <trkpt lat="47.45313" lon="6.63582">
        <ele>347.7</ele>
        <time>2017-06-11T08:55:42.000Z</time>
      </trkpt>
      <trkpt lat="47.45314" lon="6.63576">
        <ele>347.6</ele>
        <time>2017-06-11T08:55:43.000Z</time>
      </trkpt>
      <trkpt lat="47.45316" lon="6.6357">
        <ele>347.2</ele>
        <time>2017-06-11T08:55:44.000Z</time>
      </trkpt>
      <trkpt lat="47.45318" lon="6.63564">
        <ele>347.4</ele>
        <time>2017-06-11T08:55:45.000Z</time>
      </trkpt>
      <trkpt lat="47.4532" lon="6.63559">
        <ele>347.3</ele>
        <time>2017-06-11T08:55:46.000Z</time>
      </trkpt>
      <trkpt lat="47.45321" lon="6.63554">
        <ele>347.3</ele>
        <time>2017-06-11T08:55:47.000Z</time>
      </trkpt>
      <trkpt lat="47.45323" lon="6.6355">
        <ele>347.3</ele>
        <time>2017-06-11T08:55:48.000Z</time>
      </trkpt>
      <trkpt lat="47.45325" lon="6.63545">
        <ele>347.3</ele>
        <time>2017-06-11T08:55:49.000Z</time>
      </trkpt>
      <trkpt lat="47.45327" lon="6.6354">
        <ele>347.3</ele>
        <time>2017-06-11T08:55:50.000Z</time>
      </trkpt>
      <trkpt lat="47.45328" lon="6.63536">
        <ele>347.3</ele>
        <time>2017-06-11T08:55:51.000Z</time>
      </trkpt>
      <trkpt lat="47.4533" lon="6.63531">
        <ele>347.3</ele>
        <time>2017-06-11T08:55:52.000Z</time>
      </trkpt>
      <trkpt lat="47.45332" lon="6.63526">
        <ele>347.4</ele>
        <time>2017-06-11T08:55:53.000Z</time>
      </trkpt>
      <trkpt lat="47.45335" lon="6.63521">
        <ele>347.5</ele>
        <time>2017-06-11T08:55:54.000Z</time>
      </trkpt>
      <trkpt lat="47.45337" lon="6.63517">
        <ele>347.5</ele>
        <time>2017-06-11T08:55:55.000Z</time>
      </trkpt>
      <trkpt lat="47.45339" lon="6.63512">
        <ele>347.6</ele>
        <time>2017-06-11T08:55:56.000Z</time>
      </trkpt>
      <trkpt lat="47.4534" lon="6.63508">
        <ele>347.7</ele>
        <time>2017-06-11T08:55:57.000Z</time>
      </trkpt>
      <trkpt lat="47.45342" lon="6.63503">
        <ele>347.8</ele>
        <time>2017-06-11T08:55:58.000Z</time>
      </trkpt>
      <trkpt lat="47.45344" lon="6.63499">
        <ele>347.8</ele>
        <time>2017-06-11T08:55:59.000Z</time>
      </trkpt>
      <trkpt lat="47.45345" lon="6.63495">
        <ele>347.9</ele>
        <time>2017-06-11T08:56:00.000Z</time>
      </trkpt>
      <trkpt lat="47.45348" lon="6.6349">
        <ele>348</ele>
        <time>2017-06-11T08:56:01.000Z</time>
      </trkpt>
      <trkpt lat="47.4535" lon="6.63485">
        <ele>348.1</ele>
        <time>2017-06-11T08:56:02.000Z</time>
      </trkpt>
      <trkpt lat="47.45352" lon="6.63479">
        <ele>348.2</ele>
        <time>2017-06-11T08:56:03.000Z</time>
      </trkpt>
      <trkpt lat="47.45354" lon="6.63474">
        <ele>348.3</ele>
        <time>2017-06-11T08:56:04.000Z</time>
      </trkpt>
      <trkpt lat="47.45356" lon="6.6347">
        <ele>349.9</ele>
        <time>2017-06-11T08:56:05.000Z</time>
      </trkpt>
      <trkpt lat="47.45359" lon="6.63465">
        <ele>350</ele>
        <time>2017-06-11T08:56:06.000Z</time>
      </trkpt>
      <trkpt lat="47.45361" lon="6.63462">
        <ele>350.2</ele>
        <time>2017-06-11T08:56:07.000Z</time>
      </trkpt>
      <trkpt lat="47.45362" lon="6.63458">
        <ele>350.4</ele>
        <time>2017-06-11T08:56:08.000Z</time>
      </trkpt>
      <trkpt lat="47.45364" lon="6.63454">
        <ele>350.7</ele>
        <time>2017-06-11T08:56:09.000Z</time>
      </trkpt>
      <trkpt lat="47.45365" lon="6.63449">
        <ele>350.9</ele>
        <time>2017-06-11T08:56:10.000Z</time>
      </trkpt>
      <trkpt lat="47.45367" lon="6.63444">
        <ele>351.2</ele>
        <time>2017-06-11T08:56:11.000Z</time>
      </trkpt>
      <trkpt lat="47.45369" lon="6.63441">
        <ele>351.3</ele>
        <time>2017-06-11T08:56:12.000Z</time>
      </trkpt>
      <trkpt lat="47.4537" lon="6.63438">
        <ele>351.4</ele>
        <time>2017-06-11T08:56:13.000Z</time>
      </trkpt>
      <trkpt lat="47.45372" lon="6.63433">
        <ele>351.4</ele>
        <time>2017-06-11T08:56:14.000Z</time>
      </trkpt>
      <trkpt lat="47.45373" lon="6.63429">
        <ele>351.6</ele>
        <time>2017-06-11T08:56:15.000Z</time>
      </trkpt>
      <trkpt lat="47.45375" lon="6.63425">
        <ele>351.6</ele>
        <time>2017-06-11T08:56:16.000Z</time>
      </trkpt>
      <trkpt lat="47.45377" lon="6.63421">
        <ele>351.7</ele>
        <time>2017-06-11T08:56:17.000Z</time>
      </trkpt>
      <trkpt lat="47.45378" lon="6.63417">
        <ele>351.8</ele>
        <time>2017-06-11T08:56:18.000Z</time>
      </trkpt>
      <trkpt lat="47.4538" lon="6.63414">
        <ele>351.9</ele>
        <time>2017-06-11T08:56:19.000Z</time>
      </trkpt>
      <trkpt lat="47.45381" lon="6.6341">
        <ele>352</ele>
        <time>2017-06-11T08:56:20.000Z</time>
      </trkpt>
      <trkpt lat="47.45382" lon="6.63406">
        <ele>352.1</ele>
        <time>2017-06-11T08:56:21.000Z</time>
      </trkpt>
      <trkpt lat="47.45384" lon="6.63402">
        <ele>352.1</ele>
        <time>2017-06-11T08:56:22.000Z</time>
      </trkpt>
      <trkpt lat="47.45386" lon="6.63398">
        <ele>352.1</ele>
        <time>2017-06-11T08:56:23.000Z</time>
      </trkpt>
      <trkpt lat="47.45387" lon="6.63393">
        <ele>352.1</ele>
        <time>2017-06-11T08:56:24.000Z</time>
      </trkpt>
      <trkpt lat="47.45389" lon="6.63388">
        <ele>352.1</ele>
        <time>2017-06-11T08:56:25.000Z</time>
      </trkpt>
      <trkpt lat="47.4539" lon="6.63383">
        <ele>352.1</ele>
        <time>2017-06-11T08:56:26.000Z</time>
      </trkpt>
      <trkpt lat="47.45392" lon="6.63379">
        <ele>352.1</ele>
        <time>2017-06-11T08:56:27.000Z</time>
      </trkpt>
      <trkpt lat="47.45393" lon="6.63375">
        <ele>352.2</ele>
        <time>2017-06-11T08:56:28.000Z</time>
      </trkpt>
      <trkpt lat="47.45394" lon="6.63371">
        <ele>352.2</ele>
        <time>2017-06-11T08:56:29.000Z</time>
      </trkpt>
      <trkpt lat="47.45396" lon="6.63367">
        <ele>352.3</ele>
        <time>2017-06-11T08:56:30.000Z</time>
      </trkpt>
      <trkpt lat="47.45398" lon="6.63362">
        <ele>352.3</ele>
        <time>2017-06-11T08:56:31.000Z</time>
      </trkpt>
      <trkpt lat="47.45399" lon="6.63358">
        <ele>352.2</ele>
        <time>2017-06-11T08:56:32.000Z</time>
      </trkpt>
      <trkpt lat="47.45401" lon="6.63354">
        <ele>352.2</ele>
        <time>2017-06-11T08:56:33.000Z</time>
      </trkpt>
      <trkpt lat="47.45402" lon="6.6335">
        <ele>352.2</ele>
        <time>2017-06-11T08:56:34.000Z</time>
      </trkpt>
      <trkpt lat="47.45404" lon="6.63346">
        <ele>352.3</ele>
        <time>2017-06-11T08:56:35.000Z</time>
      </trkpt>
      <trkpt lat="47.45405" lon="6.63342">
        <ele>352.4</ele>
        <time>2017-06-11T08:56:36.000Z</time>
      </trkpt>
      <trkpt lat="47.45406" lon="6.63338">
        <ele>352.4</ele>
        <time>2017-06-11T08:56:37.000Z</time>
      </trkpt>
      <trkpt lat="47.45408" lon="6.63334">
        <ele>352.5</ele>
        <time>2017-06-11T08:56:38.000Z</time>
      </trkpt>
      <trkpt lat="47.45412" lon="6.63332">
        <ele>352.6</ele>
        <time>2017-06-11T08:56:39.000Z</time>
      </trkpt>
      <trkpt lat="47.45416" lon="6.63332">
        <ele>352.6</ele>
        <time>2017-06-11T08:56:40.000Z</time>
      </trkpt>
      <trkpt lat="47.45419" lon="6.63331">
        <ele>353.1</ele>
        <time>2017-06-11T08:56:41.000Z</time>
      </trkpt>
      <trkpt lat="47.45421" lon="6.63329">
        <ele>353.2</ele>
        <time>2017-06-11T08:56:42.000Z</time>
      </trkpt>
      <trkpt lat="47.45425" lon="6.63328">
        <ele>353.2</ele>
        <time>2017-06-11T08:56:43.000Z</time>
      </trkpt>
      <trkpt lat="47.45429" lon="6.63327">
        <ele>353.2</ele>
        <time>2017-06-11T08:56:44.000Z</time>
      </trkpt>
      <trkpt lat="47.45433" lon="6.63326">
        <ele>353.2</ele>
        <time>2017-06-11T08:56:45.000Z</time>
      </trkpt>
      <trkpt lat="47.45436" lon="6.63325">
        <ele>353.1</ele>
        <time>2017-06-11T08:56:46.000Z</time>
      </trkpt>
      <trkpt lat="47.45439" lon="6.63323">
        <ele>353.1</ele>
        <time>2017-06-11T08:56:47.000Z</time>
      </trkpt>
      <trkpt lat="47.45442" lon="6.63321">
        <ele>353</ele>
        <time>2017-06-11T08:56:48.000Z</time>
      </trkpt>
      <trkpt lat="47.45444" lon="6.63318">
        <ele>352.9</ele>
        <time>2017-06-11T08:56:49.000Z</time>
      </trkpt>
      <trkpt lat="47.45447" lon="6.63316">
        <ele>352.8</ele>
        <time>2017-06-11T08:56:50.000Z</time>
      </trkpt>
      <trkpt lat="47.45449" lon="6.63312">
        <ele>352.7</ele>
        <time>2017-06-11T08:56:51.000Z</time>
      </trkpt>
      <trkpt lat="47.45452" lon="6.63308">
        <ele>352.7</ele>
        <time>2017-06-11T08:56:52.000Z</time>
      </trkpt>
      <trkpt lat="47.45452" lon="6.63303">
        <ele>352.6</ele>
        <time>2017-06-11T08:56:53.000Z</time>
      </trkpt>
      <trkpt lat="47.45452" lon="6.63299">
        <ele>352.6</ele>
        <time>2017-06-11T08:56:54.000Z</time>
      </trkpt>
      <trkpt lat="47.45452" lon="6.63296">
        <ele>352.6</ele>
        <time>2017-06-11T08:56:55.000Z</time>
      </trkpt>
      <trkpt lat="47.45453" lon="6.63292">
        <ele>352.6</ele>
        <time>2017-06-11T08:56:56.000Z</time>
      </trkpt>
      <trkpt lat="47.45454" lon="6.63288">
        <ele>352.7</ele>
        <time>2017-06-11T08:56:57.000Z</time>
      </trkpt>
      <trkpt lat="47.45455" lon="6.63284">
        <ele>352.7</ele>
        <time>2017-06-11T08:56:58.000Z</time>
      </trkpt>
      <trkpt lat="47.45456" lon="6.63281">
        <ele>352.7</ele>
        <time>2017-06-11T08:56:59.000Z</time>
      </trkpt>
      <trkpt lat="47.45458" lon="6.63276">
        <ele>352.7</ele>
        <time>2017-06-11T08:57:01.000Z</time>
      </trkpt>
      <trkpt lat="47.4546" lon="6.63274">
        <ele>352.6</ele>
        <time>2017-06-11T08:57:02.000Z</time>
      </trkpt>
      <trkpt lat="47.45462" lon="6.6327">
        <ele>352.6</ele>
        <time>2017-06-11T08:57:03.000Z</time>
      </trkpt>
      <trkpt lat="47.45463" lon="6.63267">
        <ele>352.6</ele>
        <time>2017-06-11T08:57:04.000Z</time>
      </trkpt>
      <trkpt lat="47.45466" lon="6.6326">
        <ele>352.7</ele>
        <time>2017-06-11T08:57:05.000Z</time>
      </trkpt>
      <trkpt lat="47.45468" lon="6.63256">
        <ele>352.8</ele>
        <time>2017-06-11T08:57:06.000Z</time>
      </trkpt>
      <trkpt lat="47.4547" lon="6.63252">
        <ele>352.9</ele>
        <time>2017-06-11T08:57:07.000Z</time>
      </trkpt>
      <trkpt lat="47.45473" lon="6.63248">
        <ele>353</ele>
        <time>2017-06-11T08:57:08.000Z</time>
      </trkpt>
      <trkpt lat="47.45475" lon="6.63245">
        <ele>353.1</ele>
        <time>2017-06-11T08:57:09.000Z</time>
      </trkpt>
      <trkpt lat="47.45476" lon="6.63242">
        <ele>353.2</ele>
        <time>2017-06-11T08:57:10.000Z</time>
      </trkpt>
      <trkpt lat="47.45478" lon="6.63239">
        <ele>353.2</ele>
        <time>2017-06-11T08:57:11.000Z</time>
      </trkpt>
      <trkpt lat="47.4548" lon="6.63237">
        <ele>353.2</ele>
        <time>2017-06-11T08:57:12.000Z</time>
      </trkpt>
      <trkpt lat="47.45481" lon="6.63234">
        <ele>353.2</ele>
        <time>2017-06-11T08:57:13.000Z</time>
      </trkpt>
      <trkpt lat="47.45483" lon="6.63231">
        <ele>353.2</ele>
        <time>2017-06-11T08:57:14.000Z</time>
      </trkpt>
      <trkpt lat="47.45484" lon="6.63228">
        <ele>353.2</ele>
        <time>2017-06-11T08:57:15.000Z</time>
      </trkpt>
      <trkpt lat="47.45486" lon="6.63225">
        <ele>353.3</ele>
        <time>2017-06-11T08:57:16.000Z</time>
      </trkpt>
      <trkpt lat="47.45487" lon="6.63223">
        <ele>353.3</ele>
        <time>2017-06-11T08:57:17.000Z</time>
      </trkpt>
      <trkpt lat="47.45489" lon="6.6322">
        <ele>353.4</ele>
        <time>2017-06-11T08:57:18.000Z</time>
      </trkpt>
      <trkpt lat="47.45491" lon="6.63218">
        <ele>353.6</ele>
        <time>2017-06-11T08:57:19.000Z</time>
      </trkpt>
      <trkpt lat="47.45493" lon="6.63216">
        <ele>353.8</ele>
        <time>2017-06-11T08:57:20.000Z</time>
      </trkpt>
      <trkpt lat="47.45495" lon="6.63213">
        <ele>353.9</ele>
        <time>2017-06-11T08:57:21.000Z</time>
      </trkpt>
      <trkpt lat="47.45497" lon="6.6321">
        <ele>354.1</ele>
        <time>2017-06-11T08:57:23.000Z</time>
      </trkpt>
      <trkpt lat="47.45499" lon="6.63209">
        <ele>354.1</ele>
        <time>2017-06-11T08:57:24.000Z</time>
      </trkpt>
      <trkpt lat="47.45502" lon="6.63205">
        <ele>354</ele>
        <time>2017-06-11T08:57:26.000Z</time>
      </trkpt>
      <trkpt lat="47.45503" lon="6.63203">
        <ele>354.2</ele>
        <time>2017-06-11T08:57:27.000Z</time>
      </trkpt>
      <trkpt lat="47.45505" lon="6.632">
        <ele>354.2</ele>
        <time>2017-06-11T08:57:28.000Z</time>
      </trkpt>
      <trkpt lat="47.45506" lon="6.63198">
        <ele>354.4</ele>
        <time>2017-06-11T08:57:29.000Z</time>
      </trkpt>
      <trkpt lat="47.45508" lon="6.63194">
        <ele>354.6</ele>
        <time>2017-06-11T08:57:31.000Z</time>
      </trkpt>
      <trkpt lat="47.45509" lon="6.63191">
        <ele>354.7</ele>
        <time>2017-06-11T08:57:32.000Z</time>
      </trkpt>
      <trkpt lat="47.4551" lon="6.63186">
        <ele>354.7</ele>
        <time>2017-06-11T08:57:33.000Z</time>
      </trkpt>
      <trkpt lat="47.45511" lon="6.63184">
        <ele>354.9</ele>
        <time>2017-06-11T08:57:34.000Z</time>
      </trkpt>
      <trkpt lat="47.45514" lon="6.6318">
        <ele>355.5</ele>
        <time>2017-06-11T08:57:38.000Z</time>
      </trkpt>
      <trkpt lat="47.45515" lon="6.63179">
        <ele>355.7</ele>
        <time>2017-06-11T08:57:39.000Z</time>
      </trkpt>
      <trkpt lat="47.45518" lon="6.63175">
        <ele>355.9</ele>
        <time>2017-06-11T08:57:40.000Z</time>
      </trkpt>
      <trkpt lat="47.4552" lon="6.6317">
        <ele>356.3</ele>
        <time>2017-06-11T08:57:41.000Z</time>
      </trkpt>
      <trkpt lat="47.45521" lon="6.63166">
        <ele>357.2</ele>
        <time>2017-06-11T08:57:44.000Z</time>
      </trkpt>
      <trkpt lat="47.45523" lon="6.63164">
        <ele>357.7</ele>
        <time>2017-06-11T08:57:45.000Z</time>
      </trkpt>
      <trkpt lat="47.45525" lon="6.6316">
        <ele>358.4</ele>
        <time>2017-06-11T08:57:47.000Z</time>
      </trkpt>
      <trkpt lat="47.45525" lon="6.63159">
        <ele>358.8</ele>
        <time>2017-06-11T08:57:48.000Z</time>
      </trkpt>
      <trkpt lat="47.45527" lon="6.63153">
        <ele>359.7</ele>
        <time>2017-06-11T08:57:51.000Z</time>
      </trkpt>
      <trkpt lat="47.45527" lon="6.63151">
        <ele>360.1</ele>
        <time>2017-06-11T08:57:52.000Z</time>
      </trkpt>
      <trkpt lat="47.45528" lon="6.63146">
        <ele>360.8</ele>
        <time>2017-06-11T08:57:54.000Z</time>
      </trkpt>
      <trkpt lat="47.45527" lon="6.63143">
        <ele>361.2</ele>
        <time>2017-06-11T08:57:55.000Z</time>
      </trkpt>
      <trkpt lat="47.45529" lon="6.63138">
        <ele>363.4</ele>
        <time>2017-06-11T08:58:01.000Z</time>
      </trkpt>
      <trkpt lat="47.45533" lon="6.63134">
        <ele>363.8</ele>
        <time>2017-06-11T08:58:02.000Z</time>
      </trkpt>
      <trkpt lat="47.45536" lon="6.6313">
        <ele>364.4</ele>
        <time>2017-06-11T08:58:04.000Z</time>
      </trkpt>
      <trkpt lat="47.45538" lon="6.63128">
        <ele>364.8</ele>
        <time>2017-06-11T08:58:05.000Z</time>
      </trkpt>
      <trkpt lat="47.45539" lon="6.63126">
        <ele>365.1</ele>
        <time>2017-06-11T08:58:06.000Z</time>
      </trkpt>
      <trkpt lat="47.45541" lon="6.63123">
        <ele>365.3</ele>
        <time>2017-06-11T08:58:07.000Z</time>
      </trkpt>
      <trkpt lat="47.45542" lon="6.63117">
        <ele>365.8</ele>
        <time>2017-06-11T08:58:09.000Z</time>
      </trkpt>
      <trkpt lat="47.45543" lon="6.63114">
        <ele>366</ele>
        <time>2017-06-11T08:58:10.000Z</time>
      </trkpt>
      <trkpt lat="47.45544" lon="6.63109">
        <ele>366.4</ele>
        <time>2017-06-11T08:58:13.000Z</time>
      </trkpt>
      <trkpt lat="47.45546" lon="6.63106">
        <ele>366.6</ele>
        <time>2017-06-11T08:58:14.000Z</time>
      </trkpt>
      <trkpt lat="47.45547" lon="6.631">
        <ele>366.9</ele>
        <time>2017-06-11T08:58:15.000Z</time>
      </trkpt>
      <trkpt lat="47.45548" lon="6.63095">
        <ele>367.2</ele>
        <time>2017-06-11T08:58:16.000Z</time>
      </trkpt>
      <trkpt lat="47.45547" lon="6.63089">
        <ele>367.9</ele>
        <time>2017-06-11T08:58:18.000Z</time>
      </trkpt>
      <trkpt lat="47.45548" lon="6.63087">
        <ele>368.1</ele>
        <time>2017-06-11T08:58:19.000Z</time>
      </trkpt>
      <trkpt lat="47.45549" lon="6.63082">
        <ele>368.8</ele>
        <time>2017-06-11T08:58:21.000Z</time>
      </trkpt>
      <trkpt lat="47.45549" lon="6.6308">
        <ele>369.1</ele>
        <time>2017-06-11T08:58:22.000Z</time>
      </trkpt>
      <trkpt lat="47.45549" lon="6.63075">
        <ele>370.2</ele>
        <time>2017-06-11T08:58:24.999Z</time>
      </trkpt>
      <trkpt lat="47.45549" lon="6.63072">
        <ele>370.5</ele>
        <time>2017-06-11T08:58:25.999Z</time>
      </trkpt>
      <trkpt lat="47.45548" lon="6.63066">
        <ele>371.4</ele>
        <time>2017-06-11T08:58:28.999Z</time>
      </trkpt>
      <trkpt lat="47.45546" lon="6.63061">
        <ele>371.6</ele>
        <time>2017-06-11T08:58:29.999Z</time>
      </trkpt>
      <trkpt lat="47.45545" lon="6.63055">
        <ele>372.1</ele>
        <time>2017-06-11T08:58:31.999Z</time>
      </trkpt>
      <trkpt lat="47.45545" lon="6.63052">
        <ele>372.3</ele>
        <time>2017-06-11T08:58:32.999Z</time>
      </trkpt>
      <trkpt lat="47.45544" lon="6.63048">
        <ele>372.8</ele>
        <time>2017-06-11T08:58:34.999Z</time>
      </trkpt>
      <trkpt lat="47.45543" lon="6.63043">
        <ele>373</ele>
        <time>2017-06-11T08:58:35.999Z</time>
      </trkpt>
      <trkpt lat="47.45543" lon="6.63042">
        <ele>373.1</ele>
        <time>2017-06-11T08:58:36.999Z</time>
      </trkpt>
      <trkpt lat="47.45546" lon="6.63037">
        <ele>373.4</ele>
        <time>2017-06-11T08:58:37.999Z</time>
      </trkpt>
      <trkpt lat="47.45549" lon="6.63034">
        <ele>373.6</ele>
        <time>2017-06-11T08:58:38.999Z</time>
      </trkpt>
      <trkpt lat="47.45549" lon="6.63032">
        <ele>373.9</ele>
        <time>2017-06-11T08:58:39.999Z</time>
      </trkpt>
      <trkpt lat="47.4555" lon="6.63027">
        <ele>374.1</ele>
        <time>2017-06-11T08:58:40.999Z</time>
      </trkpt>
      <trkpt lat="47.4555" lon="6.63025">
        <ele>374.3</ele>
        <time>2017-06-11T08:58:41.999Z</time>
      </trkpt>
      <trkpt lat="47.4555" lon="6.63023">
        <ele>374.4</ele>
        <time>2017-06-11T08:58:42.999Z</time>
      </trkpt>
      <trkpt lat="47.4555" lon="6.63018">
        <ele>374.6</ele>
        <time>2017-06-11T08:58:43.999Z</time>
      </trkpt>
      <trkpt lat="47.45549" lon="6.63013">
        <ele>375.1</ele>
        <time>2017-06-11T08:58:45.999Z</time>
      </trkpt>
      <trkpt lat="47.4555" lon="6.6301">
        <ele>375.4</ele>
        <time>2017-06-11T08:58:46.999Z</time>
      </trkpt>
      <trkpt lat="47.4555" lon="6.63007">
        <ele>375.6</ele>
        <time>2017-06-11T08:58:47.999Z</time>
      </trkpt>
      <trkpt lat="47.45552" lon="6.63001">
        <ele>375.8</ele>
        <time>2017-06-11T08:58:48.999Z</time>
      </trkpt>
      <trkpt lat="47.45554" lon="6.62997">
        <ele>376.2</ele>
        <time>2017-06-11T08:58:50.999Z</time>
      </trkpt>
      <trkpt lat="47.45557" lon="6.62993">
        <ele>376.4</ele>
        <time>2017-06-11T08:58:51.999Z</time>
      </trkpt>
      <trkpt lat="47.45559" lon="6.62989">
        <ele>376.9</ele>
        <time>2017-06-11T08:58:53.999Z</time>
      </trkpt>
      <trkpt lat="47.4556" lon="6.62988">
        <ele>377.1</ele>
        <time>2017-06-11T08:58:54.999Z</time>
      </trkpt>
      <trkpt lat="47.45563" lon="6.62986">
        <ele>377.5</ele>
        <time>2017-06-11T08:58:56.999Z</time>
      </trkpt>
      <trkpt lat="47.45566" lon="6.62983">
        <ele>377.7</ele>
        <time>2017-06-11T08:58:57.999Z</time>
      </trkpt>
      <trkpt lat="47.45568" lon="6.62981">
        <ele>378.3</ele>
        <time>2017-06-11T08:58:59.999Z</time>
      </trkpt>
      <trkpt lat="47.4557" lon="6.62979">
        <ele>378.6</ele>
        <time>2017-06-11T08:59:00.999Z</time>
      </trkpt>
      <trkpt lat="47.45573" lon="6.62977">
        <ele>378.8</ele>
        <time>2017-06-11T08:59:01.999Z</time>
      </trkpt>
      <trkpt lat="47.45575" lon="6.62976">
        <ele>379.1</ele>
        <time>2017-06-11T08:59:02.999Z</time>
      </trkpt>
      <trkpt lat="47.45578" lon="6.62974">
        <ele>379.6</ele>
        <time>2017-06-11T08:59:05.999Z</time>
      </trkpt>
      <trkpt lat="47.4558" lon="6.62974">
        <ele>379.6</ele>
        <time>2017-06-11T08:59:06.999Z</time>
      </trkpt>
      <trkpt lat="47.45582" lon="6.62971">
        <ele>379.9</ele>
        <time>2017-06-11T08:59:10.999Z</time>
      </trkpt>
      <trkpt lat="47.45584" lon="6.6297">
        <ele>379.9</ele>
        <time>2017-06-11T08:59:11.999Z</time>
      </trkpt>
      <trkpt lat="47.45588" lon="6.62968">
        <ele>380.5</ele>
        <time>2017-06-11T08:59:15.999Z</time>
      </trkpt>
      <trkpt lat="47.45591" lon="6.62968">
        <ele>380.8</ele>
        <time>2017-06-11T08:59:16.999Z</time>
      </trkpt>
      <trkpt lat="47.45595" lon="6.62966">
        <ele>381.8</ele>
        <time>2017-06-11T08:59:20.999Z</time>
      </trkpt>
      <trkpt lat="47.45598" lon="6.62964">
        <ele>381.9</ele>
        <time>2017-06-11T08:59:21.999Z</time>
      </trkpt>
      <trkpt lat="47.456" lon="6.62963">
        <ele>382.1</ele>
        <time>2017-06-11T08:59:22.999Z</time>
      </trkpt>
      <trkpt lat="47.45603" lon="6.62963">
        <ele>382.3</ele>
        <time>2017-06-11T08:59:23.999Z</time>
      </trkpt>
      <trkpt lat="47.45605" lon="6.62963">
        <ele>382.6</ele>
        <time>2017-06-11T08:59:24.999Z</time>
      </trkpt>
      <trkpt lat="47.45609" lon="6.62961">
        <ele>382.9</ele>
        <time>2017-06-11T08:59:25.999Z</time>
      </trkpt>
      <trkpt lat="47.45611" lon="6.62961">
        <ele>383.2</ele>
        <time>2017-06-11T08:59:27.999Z</time>
      </trkpt>
      <trkpt lat="47.45615" lon="6.62959">
        <ele>383.4</ele>
        <time>2017-06-11T08:59:28.999Z</time>
      </trkpt>
      <trkpt lat="47.45619" lon="6.62959">
        <ele>383.5</ele>
        <time>2017-06-11T08:59:29.999Z</time>
      </trkpt>
      <trkpt lat="47.4562" lon="6.62959">
        <ele>383.6</ele>
        <time>2017-06-11T08:59:30.999Z</time>
      </trkpt>
      <trkpt lat="47.45623" lon="6.62957">
        <ele>384.2</ele>
        <time>2017-06-11T08:59:34.999Z</time>
      </trkpt>
      <trkpt lat="47.45624" lon="6.62956">
        <ele>384.2</ele>
        <time>2017-06-11T08:59:35.999Z</time>
      </trkpt>
      <trkpt lat="47.45628" lon="6.62955">
        <ele>384.3</ele>
        <time>2017-06-11T08:59:39.999Z</time>
      </trkpt>
      <trkpt lat="47.45629" lon="6.62954">
        <ele>384.2</ele>
        <time>2017-06-11T08:59:40.999Z</time>
      </trkpt>
      <trkpt lat="47.45632" lon="6.62953">
        <ele>383.8</ele>
        <time>2017-06-11T08:59:43.999Z</time>
      </trkpt>
      <trkpt lat="47.45633" lon="6.62953">
        <ele>383.6</ele>
        <time>2017-06-11T08:59:44.999Z</time>
      </trkpt>
      <trkpt lat="47.45636" lon="6.62952">
        <ele>383.4</ele>
        <time>2017-06-11T08:59:46.999Z</time>
      </trkpt>
      <trkpt lat="47.45639" lon="6.62951">
        <ele>383.4</ele>
        <time>2017-06-11T08:59:47.999Z</time>
      </trkpt>
      <trkpt lat="47.45641" lon="6.6295">
        <ele>383.5</ele>
        <time>2017-06-11T08:59:49.999Z</time>
      </trkpt>
      <trkpt lat="47.45645" lon="6.6295">
        <ele>383.6</ele>
        <time>2017-06-11T08:59:50.999Z</time>
      </trkpt>
      <trkpt lat="47.45649" lon="6.62948">
        <ele>383.7</ele>
        <time>2017-06-11T08:59:53.999Z</time>
      </trkpt>
      <trkpt lat="47.4565" lon="6.62948">
        <ele>383.7</ele>
        <time>2017-06-11T08:59:54.999Z</time>
      </trkpt>
      <trkpt lat="47.45654" lon="6.62948">
        <ele>383.8</ele>
        <time>2017-06-11T08:59:57.999Z</time>
      </trkpt>
      <trkpt lat="47.45655" lon="6.62947">
        <ele>383.8</ele>
        <time>2017-06-11T08:59:58.999Z</time>
      </trkpt>
      <trkpt lat="47.45656" lon="6.62947">
        <ele>383.9</ele>
        <time>2017-06-11T08:59:59.999Z</time>
      </trkpt>
      <trkpt lat="47.4566" lon="6.62945">
        <ele>384</ele>
        <time>2017-06-11T09:00:00.999Z</time>
      </trkpt>
      <trkpt lat="47.45664" lon="6.62943">
        <ele>384.2</ele>
        <time>2017-06-11T09:00:02.999Z</time>
      </trkpt>
      <trkpt lat="47.45665" lon="6.62942">
        <ele>384.3</ele>
        <time>2017-06-11T09:00:03.999Z</time>
      </trkpt>
      <trkpt lat="47.45668" lon="6.6294">
        <ele>384.5</ele>
        <time>2017-06-11T09:00:05.999Z</time>
      </trkpt>
      <trkpt lat="47.45669" lon="6.62938">
        <ele>384.6</ele>
        <time>2017-06-11T09:00:06.999Z</time>
      </trkpt>
      <trkpt lat="47.45672" lon="6.62935">
        <ele>384.8</ele>
        <time>2017-06-11T09:00:08.999Z</time>
      </trkpt>
      <trkpt lat="47.45674" lon="6.62932">
        <ele>385</ele>
        <time>2017-06-11T09:00:09.999Z</time>
      </trkpt>
      <trkpt lat="47.45676" lon="6.62931">
        <ele>385.2</ele>
        <time>2017-06-11T09:00:10.999Z</time>
      </trkpt>
      <trkpt lat="47.4568" lon="6.62929">
        <ele>385.3</ele>
        <time>2017-06-11T09:00:11.999Z</time>
      </trkpt>
      <trkpt lat="47.45684" lon="6.62926">
        <ele>385.5</ele>
        <time>2017-06-11T09:00:13.999Z</time>
      </trkpt>
      <trkpt lat="47.45685" lon="6.62924">
        <ele>385.7</ele>
        <time>2017-06-11T09:00:14.999Z</time>
      </trkpt>
      <trkpt lat="47.45689" lon="6.62921">
        <ele>385.9</ele>
        <time>2017-06-11T09:00:16.999Z</time>
      </trkpt>
      <trkpt lat="47.4569" lon="6.6292">
        <ele>386</ele>
        <time>2017-06-11T09:00:17.999Z</time>
      </trkpt>
      <trkpt lat="47.45694" lon="6.62918">
        <ele>386</ele>
        <time>2017-06-11T09:00:18.999Z</time>
      </trkpt>
      <trkpt lat="47.45695" lon="6.62917">
        <ele>386.1</ele>
        <time>2017-06-11T09:00:19.999Z</time>
      </trkpt>
      <trkpt lat="47.45699" lon="6.62914">
        <ele>386.2</ele>
        <time>2017-06-11T09:00:21.999Z</time>
      </trkpt>
      <trkpt lat="47.45701" lon="6.62913">
        <ele>386.2</ele>
        <time>2017-06-11T09:00:22.999Z</time>
      </trkpt>
      <trkpt lat="47.45704" lon="6.62912">
        <ele>386.3</ele>
        <time>2017-06-11T09:00:24.999Z</time>
      </trkpt>
      <trkpt lat="47.45706" lon="6.62912">
        <ele>386.4</ele>
        <time>2017-06-11T09:00:25.999Z</time>
      </trkpt>
      <trkpt lat="47.45707" lon="6.6291">
        <ele>386.5</ele>
        <time>2017-06-11T09:00:26.999Z</time>
      </trkpt>
      <trkpt lat="47.4571" lon="6.62908">
        <ele>386.6</ele>
        <time>2017-06-11T09:00:27.999Z</time>
      </trkpt>
      <trkpt lat="47.45713" lon="6.62906">
        <ele>386.7</ele>
        <time>2017-06-11T09:00:29.999Z</time>
      </trkpt>
      <trkpt lat="47.45715" lon="6.62905">
        <ele>386.7</ele>
        <time>2017-06-11T09:00:30.999Z</time>
      </trkpt>
      <trkpt lat="47.45719" lon="6.62902">
        <ele>387</ele>
        <time>2017-06-11T09:00:32.999Z</time>
      </trkpt>
      <trkpt lat="47.45721" lon="6.62901">
        <ele>387.2</ele>
        <time>2017-06-11T09:00:33.999Z</time>
      </trkpt>
      <trkpt lat="47.45723" lon="6.62898">
        <ele>387.4</ele>
        <time>2017-06-11T09:00:34.999Z</time>
      </trkpt>
      <trkpt lat="47.45725" lon="6.62896">
        <ele>387.6</ele>
        <time>2017-06-11T09:00:35.999Z</time>
      </trkpt>
      <trkpt lat="47.45728" lon="6.62892">
        <ele>388</ele>
        <time>2017-06-11T09:00:37.999Z</time>
      </trkpt>
      <trkpt lat="47.4573" lon="6.62889">
        <ele>388.2</ele>
        <time>2017-06-11T09:00:38.999Z</time>
      </trkpt>
      <trkpt lat="47.45733" lon="6.62884">
        <ele>388.5</ele>
        <time>2017-06-11T09:00:39.999Z</time>
      </trkpt>
      <trkpt lat="47.45734" lon="6.62883">
        <ele>388.7</ele>
        <time>2017-06-11T09:00:40.999Z</time>
      </trkpt>
      <trkpt lat="47.45738" lon="6.62878">
        <ele>389.1</ele>
        <time>2017-06-11T09:00:42.999Z</time>
      </trkpt>
      <trkpt lat="47.45739" lon="6.62876">
        <ele>389.4</ele>
        <time>2017-06-11T09:00:43.999Z</time>
      </trkpt>
      <trkpt lat="47.45742" lon="6.62871">
        <ele>390</ele>
        <time>2017-06-11T09:00:45.999Z</time>
      </trkpt>
      <trkpt lat="47.45743" lon="6.62869">
        <ele>390.3</ele>
        <time>2017-06-11T09:00:46.999Z</time>
      </trkpt>
      <trkpt lat="47.45746" lon="6.62865">
        <ele>390.7</ele>
        <time>2017-06-11T09:00:48.999Z</time>
      </trkpt>
      <trkpt lat="47.45747" lon="6.62863">
        <ele>391</ele>
        <time>2017-06-11T09:00:49.999Z</time>
      </trkpt>
      <trkpt lat="47.45749" lon="6.62859">
        <ele>391.6</ele>
        <time>2017-06-11T09:00:51.999Z</time>
      </trkpt>
      <trkpt lat="47.45751" lon="6.62857">
        <ele>391.9</ele>
        <time>2017-06-11T09:00:52.999Z</time>
      </trkpt>
      <trkpt lat="47.45754" lon="6.62853">
        <ele>392.4</ele>
        <time>2017-06-11T09:00:55.999Z</time>
      </trkpt>
      <trkpt lat="47.45755" lon="6.62852">
        <ele>392.6</ele>
        <time>2017-06-11T09:00:56.999Z</time>
      </trkpt>
      <trkpt lat="47.45756" lon="6.62848">
        <ele>392.8</ele>
        <time>2017-06-11T09:00:58.999Z</time>
      </trkpt>
      <trkpt lat="47.45758" lon="6.62846">
        <ele>392.9</ele>
        <time>2017-06-11T09:00:59.999Z</time>
      </trkpt>
      <trkpt lat="47.4576" lon="6.62842">
        <ele>393.1</ele>
        <time>2017-06-11T09:01:01.999Z</time>
      </trkpt>
      <trkpt lat="47.45763" lon="6.62839">
        <ele>393.2</ele>
        <time>2017-06-11T09:01:02.999Z</time>
      </trkpt>
      <trkpt lat="47.45765" lon="6.62834">
        <ele>393.6</ele>
        <time>2017-06-11T09:01:04.999Z</time>
      </trkpt>
      <trkpt lat="47.45766" lon="6.62832">
        <ele>393.7</ele>
        <time>2017-06-11T09:01:05.999Z</time>
      </trkpt>
      <trkpt lat="47.45768" lon="6.62829">
        <ele>394.1</ele>
        <time>2017-06-11T09:01:07.999Z</time>
      </trkpt>
      <trkpt lat="47.45768" lon="6.62826">
        <ele>394.3</ele>
        <time>2017-06-11T09:01:08.999Z</time>
      </trkpt>
      <trkpt lat="47.4577" lon="6.62821">
        <ele>394.7</ele>
        <time>2017-06-11T09:01:11.999Z</time>
      </trkpt>
      <trkpt lat="47.45771" lon="6.62818">
        <ele>394.9</ele>
        <time>2017-06-11T09:01:12.999Z</time>
      </trkpt>
      <trkpt lat="47.45772" lon="6.62813">
        <ele>395.3</ele>
        <time>2017-06-11T09:01:14.999Z</time>
      </trkpt>
      <trkpt lat="47.45774" lon="6.62808">
        <ele>395.5</ele>
        <time>2017-06-11T09:01:15.999Z</time>
      </trkpt>
      <trkpt lat="47.45775" lon="6.62802">
        <ele>395.9</ele>
        <time>2017-06-11T09:01:17.999Z</time>
      </trkpt>
      <trkpt lat="47.45776" lon="6.62797">
        <ele>396</ele>
        <time>2017-06-11T09:01:18.999Z</time>
      </trkpt>
      <trkpt lat="47.45777" lon="6.62793">
        <ele>396.7</ele>
        <time>2017-06-11T09:01:21.999Z</time>
      </trkpt>
      <trkpt lat="47.45778" lon="6.62789">
        <ele>396.9</ele>
        <time>2017-06-11T09:01:22.999Z</time>
      </trkpt>
      <trkpt lat="47.45779" lon="6.62788">
        <ele>397.1</ele>
        <time>2017-06-11T09:01:23.999Z</time>
      </trkpt>
      <trkpt lat="47.45782" lon="6.62784">
        <ele>397.3</ele>
        <time>2017-06-11T09:01:24.999Z</time>
      </trkpt>
      <trkpt lat="47.45783" lon="6.62783">
        <ele>397.4</ele>
        <time>2017-06-11T09:01:25.999Z</time>
      </trkpt>
      <trkpt lat="47.45787" lon="6.62779">
        <ele>397.5</ele>
        <time>2017-06-11T09:01:26.999Z</time>
      </trkpt>
      <trkpt lat="47.4579" lon="6.62775">
        <ele>397.6</ele>
        <time>2017-06-11T09:01:27.999Z</time>
      </trkpt>
      <trkpt lat="47.4579" lon="6.62774">
        <ele>397.8</ele>
        <time>2017-06-11T09:01:28.999Z</time>
      </trkpt>
      <trkpt lat="47.45792" lon="6.62768">
        <ele>397.9</ele>
        <time>2017-06-11T09:01:31.999Z</time>
      </trkpt>
      <trkpt lat="47.45793" lon="6.62767">
        <ele>398</ele>
        <time>2017-06-11T09:01:32.999Z</time>
      </trkpt>
      <trkpt lat="47.45795" lon="6.62763">
        <ele>398.1</ele>
        <time>2017-06-11T09:01:33.999Z</time>
      </trkpt>
      <trkpt lat="47.45796" lon="6.62761">
        <ele>398.3</ele>
        <time>2017-06-11T09:01:34.999Z</time>
      </trkpt>
      <trkpt lat="47.45798" lon="6.62759">
        <ele>398.4</ele>
        <time>2017-06-11T09:01:35.999Z</time>
      </trkpt>
      <trkpt lat="47.458" lon="6.62754">
        <ele>398.6</ele>
        <time>2017-06-11T09:01:36.999Z</time>
      </trkpt>
      <trkpt lat="47.45803" lon="6.6275">
        <ele>399.1</ele>
        <time>2017-06-11T09:01:39.999Z</time>
      </trkpt>
      <trkpt lat="47.45804" lon="6.62748">
        <ele>399.2</ele>
        <time>2017-06-11T09:01:40.999Z</time>
      </trkpt>
      <trkpt lat="47.45806" lon="6.62743">
        <ele>399.8</ele>
        <time>2017-06-11T09:01:43.999Z</time>
      </trkpt>
      <trkpt lat="47.45808" lon="6.62739">
        <ele>400</ele>
        <time>2017-06-11T09:01:44.999Z</time>
      </trkpt>
      <trkpt lat="47.4581" lon="6.62735">
        <ele>400.3</ele>
        <time>2017-06-11T09:01:46.999Z</time>
      </trkpt>
      <trkpt lat="47.4581" lon="6.62732">
        <ele>400.5</ele>
        <time>2017-06-11T09:01:47.999Z</time>
      </trkpt>
      <trkpt lat="47.45811" lon="6.62728">
        <ele>401</ele>
        <time>2017-06-11T09:01:49.999Z</time>
      </trkpt>
      <trkpt lat="47.45812" lon="6.62726">
        <ele>401.2</ele>
        <time>2017-06-11T09:01:50.999Z</time>
      </trkpt>
      <trkpt lat="47.45815" lon="6.62722">
        <ele>401.8</ele>
        <time>2017-06-11T09:01:52.999Z</time>
      </trkpt>
      <trkpt lat="47.45816" lon="6.6272">
        <ele>402.1</ele>
        <time>2017-06-11T09:01:53.999Z</time>
      </trkpt>
      <trkpt lat="47.45817" lon="6.62717">
        <ele>402.5</ele>
        <time>2017-06-11T09:01:55.999Z</time>
      </trkpt>
      <trkpt lat="47.4582" lon="6.62713">
        <ele>402.8</ele>
        <time>2017-06-11T09:01:56.999Z</time>
      </trkpt>
      <trkpt lat="47.45821" lon="6.62708">
        <ele>403.3</ele>
        <time>2017-06-11T09:01:58.999Z</time>
      </trkpt>
      <trkpt lat="47.45822" lon="6.62706">
        <ele>403.6</ele>
        <time>2017-06-11T09:01:59.999Z</time>
      </trkpt>
      <trkpt lat="47.45824" lon="6.62702">
        <ele>403.8</ele>
        <time>2017-06-11T09:02:00.999Z</time>
      </trkpt>
      <trkpt lat="47.45824" lon="6.62699">
        <ele>404.1</ele>
        <time>2017-06-11T09:02:01.999Z</time>
      </trkpt>
      <trkpt lat="47.45826" lon="6.62695">
        <ele>404.7</ele>
        <time>2017-06-11T09:02:04.999Z</time>
      </trkpt>
      <trkpt lat="47.45827" lon="6.62693">
        <ele>404.8</ele>
        <time>2017-06-11T09:02:05.999Z</time>
      </trkpt>
      <trkpt lat="47.45829" lon="6.62688">
        <ele>405</ele>
        <time>2017-06-11T09:02:06.999Z</time>
      </trkpt>
      <trkpt lat="47.45829" lon="6.62688">
        <ele>405.1</ele>
        <time>2017-06-11T09:02:07.999Z</time>
      </trkpt>
      <trkpt lat="47.4583" lon="6.62685">
        <ele>405.2</ele>
        <time>2017-06-11T09:02:08.999Z</time>
      </trkpt>
      <trkpt lat="47.4583" lon="6.6268">
        <ele>405.5</ele>
        <time>2017-06-11T09:02:09.999Z</time>
      </trkpt>
      <trkpt lat="47.45834" lon="6.62676">
        <ele>405.8</ele>
        <time>2017-06-11T09:02:10.999Z</time>
      </trkpt>
      <trkpt lat="47.45835" lon="6.62676">
        <ele>406</ele>
        <time>2017-06-11T09:02:11.999Z</time>
      </trkpt>
      <trkpt lat="47.45836" lon="6.6267">
        <ele>407.4</ele>
        <time>2017-06-11T09:02:23.999Z</time>
      </trkpt>
      <trkpt lat="47.45836" lon="6.62669">
        <ele>407.5</ele>
        <time>2017-06-11T09:02:24.999Z</time>
      </trkpt>
      <trkpt lat="47.45836" lon="6.62667">
        <ele>407.4</ele>
        <time>2017-06-11T09:02:25.999Z</time>
      </trkpt>
      <trkpt lat="47.45838" lon="6.62661">
        <ele>407.3</ele>
        <time>2017-06-11T09:02:26.999Z</time>
      </trkpt>
      <trkpt lat="47.45842" lon="6.6266">
        <ele>407.3</ele>
        <time>2017-06-11T09:02:27.999Z</time>
      </trkpt>
      <trkpt lat="47.45844" lon="6.62657">
        <ele>407.3</ele>
        <time>2017-06-11T09:02:28.999Z</time>
      </trkpt>
      <trkpt lat="47.45847" lon="6.62653">
        <ele>407.5</ele>
        <time>2017-06-11T09:02:29.999Z</time>
      </trkpt>
      <trkpt lat="47.45847" lon="6.62649">
        <ele>407.5</ele>
        <time>2017-06-11T09:02:30.999Z</time>
      </trkpt>
      <trkpt lat="47.45847" lon="6.62648">
        <ele>407.7</ele>
        <time>2017-06-11T09:02:31.999Z</time>
      </trkpt>
      <trkpt lat="47.45847" lon="6.62642">
        <ele>408</ele>
        <time>2017-06-11T09:02:32.999Z</time>
      </trkpt>
      <trkpt lat="47.45847" lon="6.62637">
        <ele>408.2</ele>
        <time>2017-06-11T09:02:33.999Z</time>
      </trkpt>
      <trkpt lat="47.45847" lon="6.62635">
        <ele>408.5</ele>
        <time>2017-06-11T09:02:34.999Z</time>
      </trkpt>
      <trkpt lat="47.45848" lon="6.62628">
        <ele>410</ele>
        <time>2017-06-11T09:02:39.999Z</time>
      </trkpt>
      <trkpt lat="47.45848" lon="6.62628">
        <ele>410.3</ele>
        <time>2017-06-11T09:02:40.999Z</time>
      </trkpt>
      <trkpt lat="47.4585" lon="6.62624">
        <ele>411.9</ele>
        <time>2017-06-11T09:02:44.999Z</time>
      </trkpt>
      <trkpt lat="47.45851" lon="6.62622">
        <ele>412.3</ele>
        <time>2017-06-11T09:02:45.999Z</time>
      </trkpt>
      <trkpt lat="47.45853" lon="6.62616">
        <ele>413</ele>
        <time>2017-06-11T09:02:48.999Z</time>
      </trkpt>
      <trkpt lat="47.45852" lon="6.62614">
        <ele>413.4</ele>
        <time>2017-06-11T09:02:49.999Z</time>
      </trkpt>
      <trkpt lat="47.45854" lon="6.62608">
        <ele>413.8</ele>
        <time>2017-06-11T09:02:50.999Z</time>
      </trkpt>
      <trkpt lat="47.45855" lon="6.62607">
        <ele>414.2</ele>
        <time>2017-06-11T09:02:51.999Z</time>
      </trkpt>
      <trkpt lat="47.45857" lon="6.62603">
        <ele>415</ele>
        <time>2017-06-11T09:02:53.999Z</time>
      </trkpt>
      <trkpt lat="47.45859" lon="6.62601">
        <ele>415.4</ele>
        <time>2017-06-11T09:02:54.999Z</time>
      </trkpt>
      <trkpt lat="47.45862" lon="6.62596">
        <ele>416.3</ele>
        <time>2017-06-11T09:02:57.999Z</time>
      </trkpt>
      <trkpt lat="47.45862" lon="6.62595">
        <ele>416.7</ele>
        <time>2017-06-11T09:02:58.999Z</time>
      </trkpt>
      <trkpt lat="47.45864" lon="6.6259">
        <ele>417.4</ele>
        <time>2017-06-11T09:03:00.999Z</time>
      </trkpt>
      <trkpt lat="47.45865" lon="6.62588">
        <ele>417.7</ele>
        <time>2017-06-11T09:03:01.999Z</time>
      </trkpt>
      <trkpt lat="47.45866" lon="6.62585">
        <ele>418.9</ele>
        <time>2017-06-11T09:03:05.999Z</time>
      </trkpt>
      <trkpt lat="47.45868" lon="6.62582">
        <ele>419.3</ele>
        <time>2017-06-11T09:03:06.999Z</time>
      </trkpt>
      <trkpt lat="47.4587" lon="6.62576">
        <ele>420.2</ele>
        <time>2017-06-11T09:03:09.999Z</time>
      </trkpt>
      <trkpt lat="47.45872" lon="6.62573">
        <ele>420.6</ele>
        <time>2017-06-11T09:03:10.999Z</time>
      </trkpt>
      <trkpt lat="47.45873" lon="6.62567">
        <ele>423</ele>
        <time>2017-06-11T09:03:16.999Z</time>
      </trkpt>
      <trkpt lat="47.45874" lon="6.62566">
        <ele>423.3</ele>
        <time>2017-06-11T09:03:17.999Z</time>
      </trkpt>
      <trkpt lat="47.45874" lon="6.62564">
        <ele>423.7</ele>
        <time>2017-06-11T09:03:18.999Z</time>
      </trkpt>
      <trkpt lat="47.45876" lon="6.62559">
        <ele>424</ele>
        <time>2017-06-11T09:03:19.999Z</time>
      </trkpt>
      <trkpt lat="47.45877" lon="6.62554">
        <ele>425.3</ele>
        <time>2017-06-11T09:03:23.999Z</time>
      </trkpt>
      <trkpt lat="47.45876" lon="6.62551">
        <ele>425.5</ele>
        <time>2017-06-11T09:03:24.999Z</time>
      </trkpt>
      <trkpt lat="47.45878" lon="6.62544">
        <ele>425.7</ele>
        <time>2017-06-11T09:03:25.999Z</time>
      </trkpt>
      <trkpt lat="47.45875" lon="6.6254">
        <ele>426.8</ele>
        <time>2017-06-11T09:03:32.999Z</time>
      </trkpt>
      <trkpt lat="47.45873" lon="6.62536">
        <ele>426.8</ele>
        <time>2017-06-11T09:03:33.999Z</time>
      </trkpt>
      <trkpt lat="47.45872" lon="6.6253">
        <ele>427.3</ele>
        <time>2017-06-11T09:03:38.999Z</time>
      </trkpt>
      <trkpt lat="47.45871" lon="6.62527">
        <ele>427.3</ele>
        <time>2017-06-11T09:03:39.999Z</time>
      </trkpt>
      <trkpt lat="47.45872" lon="6.62521">
        <ele>427.7</ele>
        <time>2017-06-11T09:03:42.999Z</time>
      </trkpt>
      <trkpt lat="47.45872" lon="6.6252">
        <ele>427.8</ele>
        <time>2017-06-11T09:03:43.999Z</time>
      </trkpt>
      <trkpt lat="47.45874" lon="6.62516">
        <ele>427.9</ele>
        <time>2017-06-11T09:03:45.999Z</time>
      </trkpt>
      <trkpt lat="47.45876" lon="6.62513">
        <ele>427.9</ele>
        <time>2017-06-11T09:03:46.999Z</time>
      </trkpt>
      <trkpt lat="47.45876" lon="6.62508">
        <ele>427.9</ele>
        <time>2017-06-11T09:03:48.999Z</time>
      </trkpt>
      <trkpt lat="47.45878" lon="6.62506">
        <ele>427.9</ele>
        <time>2017-06-11T09:03:49.999Z</time>
      </trkpt>
      <trkpt lat="47.45879" lon="6.62501">
        <ele>427.7</ele>
        <time>2017-06-11T09:03:52.999Z</time>
      </trkpt>
      <trkpt lat="47.45879" lon="6.62499">
        <ele>427.8</ele>
        <time>2017-06-11T09:03:53.999Z</time>
      </trkpt>
      <trkpt lat="47.4588" lon="6.62494">
        <ele>428.1</ele>
        <time>2017-06-11T09:03:56.999Z</time>
      </trkpt>
      <trkpt lat="47.45881" lon="6.62488">
        <ele>428.3</ele>
        <time>2017-06-11T09:03:57.999Z</time>
      </trkpt>
      <trkpt lat="47.45882" lon="6.62483">
        <ele>428.5</ele>
        <time>2017-06-11T09:03:59.999Z</time>
      </trkpt>
      <trkpt lat="47.45883" lon="6.62482">
        <ele>428.6</ele>
        <time>2017-06-11T09:04:00.999Z</time>
      </trkpt>
      <trkpt lat="47.45884" lon="6.6248">
        <ele>428.7</ele>
        <time>2017-06-11T09:04:01.999Z</time>
      </trkpt>
      <trkpt lat="47.45886" lon="6.62476">
        <ele>428.7</ele>
        <time>2017-06-11T09:04:02.999Z</time>
      </trkpt>
      <trkpt lat="47.45889" lon="6.6247">
        <ele>429.5</ele>
        <time>2017-06-11T09:04:07.999Z</time>
      </trkpt>
      <trkpt lat="47.45889" lon="6.62468">
        <ele>429.6</ele>
        <time>2017-06-11T09:04:08.999Z</time>
      </trkpt>
      <trkpt lat="47.45888" lon="6.62466">
        <ele>429.9</ele>
        <time>2017-06-11T09:04:10.999Z</time>
      </trkpt>
      <trkpt lat="47.45889" lon="6.62459">
        <ele>430.1</ele>
        <time>2017-06-11T09:04:11.999Z</time>
      </trkpt>
      <trkpt lat="47.4589" lon="6.62458">
        <ele>430.2</ele>
        <time>2017-06-11T09:04:12.999Z</time>
      </trkpt>
      <trkpt lat="47.45893" lon="6.62454">
        <ele>430.3</ele>
        <time>2017-06-11T09:04:13.999Z</time>
      </trkpt>
      <trkpt lat="47.45895" lon="6.6245">
        <ele>430.5</ele>
        <time>2017-06-11T09:04:15.999Z</time>
      </trkpt>
      <trkpt lat="47.45899" lon="6.62447">
        <ele>430.6</ele>
        <time>2017-06-11T09:04:16.999Z</time>
      </trkpt>
      <trkpt lat="47.45901" lon="6.62443">
        <ele>430.9</ele>
        <time>2017-06-11T09:04:18.999Z</time>
      </trkpt>
      <trkpt lat="47.45902" lon="6.62437">
        <ele>431</ele>
        <time>2017-06-11T09:04:19.999Z</time>
      </trkpt>
      <trkpt lat="47.45904" lon="6.62434">
        <ele>431.4</ele>
        <time>2017-06-11T09:04:21.999Z</time>
      </trkpt>
      <trkpt lat="47.45906" lon="6.62433">
        <ele>431.5</ele>
        <time>2017-06-11T09:04:22.999Z</time>
      </trkpt>
      <trkpt lat="47.45908" lon="6.6243">
        <ele>431.8</ele>
        <time>2017-06-11T09:04:23.999Z</time>
      </trkpt>
      <trkpt lat="47.45909" lon="6.62429">
        <ele>432</ele>
        <time>2017-06-11T09:04:24.999Z</time>
      </trkpt>
      <trkpt lat="47.45912" lon="6.62426">
        <ele>432.4</ele>
        <time>2017-06-11T09:04:26.999Z</time>
      </trkpt>
      <trkpt lat="47.45915" lon="6.62423">
        <ele>432.6</ele>
        <time>2017-06-11T09:04:27.999Z</time>
      </trkpt>
      <trkpt lat="47.45917" lon="6.62421">
        <ele>432.7</ele>
        <time>2017-06-11T09:04:28.999Z</time>
      </trkpt>
      <trkpt lat="47.45919" lon="6.6242">
        <ele>432.8</ele>
        <time>2017-06-11T09:04:29.999Z</time>
      </trkpt>
      <trkpt lat="47.45923" lon="6.62418">
        <ele>433.2</ele>
        <time>2017-06-11T09:04:32.999Z</time>
      </trkpt>
      <trkpt lat="47.45924" lon="6.62418">
        <ele>433.4</ele>
        <time>2017-06-11T09:04:33.999Z</time>
      </trkpt>
      <trkpt lat="47.45927" lon="6.62417">
        <ele>433.7</ele>
        <time>2017-06-11T09:04:35.999Z</time>
      </trkpt>
      <trkpt lat="47.45929" lon="6.62415">
        <ele>433.8</ele>
        <time>2017-06-11T09:04:36.999Z</time>
      </trkpt>
      <trkpt lat="47.45931" lon="6.62412">
        <ele>434.1</ele>
        <time>2017-06-11T09:04:38.999Z</time>
      </trkpt>
      <trkpt lat="47.45932" lon="6.62411">
        <ele>434.2</ele>
        <time>2017-06-11T09:04:39.999Z</time>
      </trkpt>
      <trkpt lat="47.45934" lon="6.6241">
        <ele>434.3</ele>
        <time>2017-06-11T09:04:40.999Z</time>
      </trkpt>
      <trkpt lat="47.45936" lon="6.62405">
        <ele>434.4</ele>
        <time>2017-06-11T09:04:41.999Z</time>
      </trkpt>
      <trkpt lat="47.4594" lon="6.62402">
        <ele>434.7</ele>
        <time>2017-06-11T09:04:45.999Z</time>
      </trkpt>
      <trkpt lat="47.45942" lon="6.62401">
        <ele>434.9</ele>
        <time>2017-06-11T09:04:46.999Z</time>
      </trkpt>
      <trkpt lat="47.45945" lon="6.62398">
        <ele>435.4</ele>
        <time>2017-06-11T09:04:49.999Z</time>
      </trkpt>
      <trkpt lat="47.45946" lon="6.62397">
        <ele>435.7</ele>
        <time>2017-06-11T09:04:50.999Z</time>
      </trkpt>
      <trkpt lat="47.45949" lon="6.62394">
        <ele>436.2</ele>
        <time>2017-06-11T09:04:52.999Z</time>
      </trkpt>
      <trkpt lat="47.45951" lon="6.62392">
        <ele>436.5</ele>
        <time>2017-06-11T09:04:53.999Z</time>
      </trkpt>
      <trkpt lat="47.45952" lon="6.6239">
        <ele>436.6</ele>
        <time>2017-06-11T09:04:54.999Z</time>
      </trkpt>
      <trkpt lat="47.45955" lon="6.62386">
        <ele>436.8</ele>
        <time>2017-06-11T09:04:55.999Z</time>
      </trkpt>
      <trkpt lat="47.45957" lon="6.62383">
        <ele>437.1</ele>
        <time>2017-06-11T09:04:57.999Z</time>
      </trkpt>
      <trkpt lat="47.45959" lon="6.62382">
        <ele>437.3</ele>
        <time>2017-06-11T09:04:58.999Z</time>
      </trkpt>
      <trkpt lat="47.45962" lon="6.62379">
        <ele>437.7</ele>
        <time>2017-06-11T09:05:00.999Z</time>
      </trkpt>
      <trkpt lat="47.45964" lon="6.62377">
        <ele>437.9</ele>
        <time>2017-06-11T09:05:01.999Z</time>
      </trkpt>
      <trkpt lat="47.45966" lon="6.62375">
        <ele>438</ele>
        <time>2017-06-11T09:05:02.999Z</time>
      </trkpt>
      <trkpt lat="47.4597" lon="6.62372">
        <ele>438.2</ele>
        <time>2017-06-11T09:05:03.999Z</time>
      </trkpt>
      <trkpt lat="47.45973" lon="6.6237">
        <ele>438.9</ele>
        <time>2017-06-11T09:05:07.999Z</time>
      </trkpt>
      <trkpt lat="47.45978" lon="6.62367">
        <ele>439.1</ele>
        <time>2017-06-11T09:05:08.999Z</time>
      </trkpt>
      <trkpt lat="47.45979" lon="6.62366">
        <ele>439.3</ele>
        <time>2017-06-11T09:05:09.999Z</time>
      </trkpt>
      <trkpt lat="47.45982" lon="6.62362">
        <ele>439.4</ele>
        <time>2017-06-11T09:05:10.999Z</time>
      </trkpt>
      <trkpt lat="47.45984" lon="6.62359">
        <ele>439.5</ele>
        <time>2017-06-11T09:05:11.999Z</time>
      </trkpt>
      <trkpt lat="47.45988" lon="6.62357">
        <ele>439.6</ele>
        <time>2017-06-11T09:05:12.999Z</time>
      </trkpt>
      <trkpt lat="47.45991" lon="6.62354">
        <ele>439.7</ele>
        <time>2017-06-11T09:05:14.999Z</time>
      </trkpt>
      <trkpt lat="47.45993" lon="6.6235">
        <ele>439.8</ele>
        <time>2017-06-11T09:05:15.999Z</time>
      </trkpt>
      <trkpt lat="47.45995" lon="6.62349">
        <ele>439.7</ele>
        <time>2017-06-11T09:05:16.999Z</time>
      </trkpt>
      <trkpt lat="47.45999" lon="6.62348">
        <ele>439.8</ele>
        <time>2017-06-11T09:05:17.999Z</time>
      </trkpt>
      <trkpt lat="47.46002" lon="6.62345">
        <ele>439.9</ele>
        <time>2017-06-11T09:05:19.999Z</time>
      </trkpt>
      <trkpt lat="47.46004" lon="6.62343">
        <ele>439.9</ele>
        <time>2017-06-11T09:05:20.999Z</time>
      </trkpt>
      <trkpt lat="47.46008" lon="6.62341">
        <ele>439.9</ele>
        <time>2017-06-11T09:05:21.999Z</time>
      </trkpt>
      <trkpt lat="47.46009" lon="6.62341">
        <ele>439.9</ele>
        <time>2017-06-11T09:05:22.999Z</time>
      </trkpt>
      <trkpt lat="47.46012" lon="6.62338">
        <ele>440.2</ele>
        <time>2017-06-11T09:05:25.999Z</time>
      </trkpt>
      <trkpt lat="47.46015" lon="6.62335">
        <ele>440.2</ele>
        <time>2017-06-11T09:05:26.999Z</time>
      </trkpt>
      <trkpt lat="47.46019" lon="6.62332">
        <ele>440.7</ele>
        <time>2017-06-11T09:05:30.999Z</time>
      </trkpt>
      <trkpt lat="47.46023" lon="6.62329">
        <ele>440.8</ele>
        <time>2017-06-11T09:05:31.999Z</time>
      </trkpt>
      <trkpt lat="47.46025" lon="6.62325">
        <ele>441</ele>
        <time>2017-06-11T09:05:32.999Z</time>
      </trkpt>
      <trkpt lat="47.46026" lon="6.62323">
        <ele>441.2</ele>
        <time>2017-06-11T09:05:33.999Z</time>
      </trkpt>
      <trkpt lat="47.46028" lon="6.6232">
        <ele>441.5</ele>
        <time>2017-06-11T09:05:35.999Z</time>
      </trkpt>
      <trkpt lat="47.4603" lon="6.62319">
        <ele>441.7</ele>
        <time>2017-06-11T09:05:36.999Z</time>
      </trkpt>
      <trkpt lat="47.46033" lon="6.62316">
        <ele>442.1</ele>
        <time>2017-06-11T09:05:38.999Z</time>
      </trkpt>
      <trkpt lat="47.46034" lon="6.62314">
        <ele>442.2</ele>
        <time>2017-06-11T09:05:39.999Z</time>
      </trkpt>
      <trkpt lat="47.46037" lon="6.62311">
        <ele>442.4</ele>
        <time>2017-06-11T09:05:40.999Z</time>
      </trkpt>
      <trkpt lat="47.4604" lon="6.62307">
        <ele>442.5</ele>
        <time>2017-06-11T09:05:41.999Z</time>
      </trkpt>
      <trkpt lat="47.46043" lon="6.62304">
        <ele>443</ele>
        <time>2017-06-11T09:05:43.999Z</time>
      </trkpt>
      <trkpt lat="47.46046" lon="6.62301">
        <ele>443.2</ele>
        <time>2017-06-11T09:05:44.999Z</time>
      </trkpt>
      <trkpt lat="47.46049" lon="6.62297">
        <ele>443.4</ele>
        <time>2017-06-11T09:05:46.999Z</time>
      </trkpt>
      <trkpt lat="47.46051" lon="6.62295">
        <ele>443.5</ele>
        <time>2017-06-11T09:05:47.999Z</time>
      </trkpt>
      <trkpt lat="47.46054" lon="6.6229">
        <ele>443.7</ele>
        <time>2017-06-11T09:05:48.999Z</time>
      </trkpt>
      <trkpt lat="47.46057" lon="6.62285">
        <ele>443.9</ele>
        <time>2017-06-11T09:05:51.999Z</time>
      </trkpt>
      <trkpt lat="47.46058" lon="6.62283">
        <ele>443.9</ele>
        <time>2017-06-11T09:05:52.999Z</time>
      </trkpt>
      <trkpt lat="47.4606" lon="6.62282">
        <ele>444</ele>
        <time>2017-06-11T09:05:53.999Z</time>
      </trkpt>
      <trkpt lat="47.46062" lon="6.6228">
        <ele>444.1</ele>
        <time>2017-06-11T09:05:54.999Z</time>
      </trkpt>
      <trkpt lat="47.46065" lon="6.62275">
        <ele>444.4</ele>
        <time>2017-06-11T09:05:56.999Z</time>
      </trkpt>
      <trkpt lat="47.46066" lon="6.62272">
        <ele>444.4</ele>
        <time>2017-06-11T09:05:57.999Z</time>
      </trkpt>
      <trkpt lat="47.46067" lon="6.62269">
        <ele>444.4</ele>
        <time>2017-06-11T09:05:58.999Z</time>
      </trkpt>
      <trkpt lat="47.46068" lon="6.62266">
        <ele>444.4</ele>
        <time>2017-06-11T09:05:59.999Z</time>
      </trkpt>
      <trkpt lat="47.46068" lon="6.62263">
        <ele>444.4</ele>
        <time>2017-06-11T09:06:00.999Z</time>
      </trkpt>
      <trkpt lat="47.46069" lon="6.62257">
        <ele>444.5</ele>
        <time>2017-06-11T09:06:01.999Z</time>
      </trkpt>
      <trkpt lat="47.46069" lon="6.62251">
        <ele>444.5</ele>
        <time>2017-06-11T09:06:02.999Z</time>
      </trkpt>
      <trkpt lat="47.46069" lon="6.62248">
        <ele>444.6</ele>
        <time>2017-06-11T09:06:03.999Z</time>
      </trkpt>
      <trkpt lat="47.46068" lon="6.62242">
        <ele>444.8</ele>
        <time>2017-06-11T09:06:05.999Z</time>
      </trkpt>
      <trkpt lat="47.46068" lon="6.6224">
        <ele>444.8</ele>
        <time>2017-06-11T09:06:06.999Z</time>
      </trkpt>
      <trkpt lat="47.4607" lon="6.62235">
        <ele>444.9</ele>
        <time>2017-06-11T09:06:10.999Z</time>
      </trkpt>
      <trkpt lat="47.46074" lon="6.62231">
        <ele>444.9</ele>
        <time>2017-06-11T09:06:11.999Z</time>
      </trkpt>
      <trkpt lat="47.46076" lon="6.62226">
        <ele>444.9</ele>
        <time>2017-06-11T09:06:12.999Z</time>
      </trkpt>
      <trkpt lat="47.46077" lon="6.62224">
        <ele>444.9</ele>
        <time>2017-06-11T09:06:13.999Z</time>
      </trkpt>
      <trkpt lat="47.46079" lon="6.62219">
        <ele>445.1</ele>
        <time>2017-06-11T09:06:14.999Z</time>
      </trkpt>
      <trkpt lat="47.46079" lon="6.62218">
        <ele>445.2</ele>
        <time>2017-06-11T09:06:15.999Z</time>
      </trkpt>
      <trkpt lat="47.46082" lon="6.62216">
        <ele>445.3</ele>
        <time>2017-06-11T09:06:16.999Z</time>
      </trkpt>
      <trkpt lat="47.46084" lon="6.62214">
        <ele>445.5</ele>
        <time>2017-06-11T09:06:17.999Z</time>
      </trkpt>
      <trkpt lat="47.46085" lon="6.62208">
        <ele>445.8</ele>
        <time>2017-06-11T09:06:19.999Z</time>
      </trkpt>
      <trkpt lat="47.46087" lon="6.62205">
        <ele>446</ele>
        <time>2017-06-11T09:06:20.999Z</time>
      </trkpt>
      <trkpt lat="47.46088" lon="6.62199">
        <ele>446.2</ele>
        <time>2017-06-11T09:06:22.999Z</time>
      </trkpt>
      <trkpt lat="47.46089" lon="6.62195">
        <ele>446.3</ele>
        <time>2017-06-11T09:06:23.999Z</time>
      </trkpt>
      <trkpt lat="47.46089" lon="6.62189">
        <ele>446.6</ele>
        <time>2017-06-11T09:06:25.999Z</time>
      </trkpt>
      <trkpt lat="47.46089" lon="6.62187">
        <ele>446.6</ele>
        <time>2017-06-11T09:06:26.999Z</time>
      </trkpt>
      <trkpt lat="47.46087" lon="6.62182">
        <ele>446.4</ele>
        <time>2017-06-11T09:06:28.999Z</time>
      </trkpt>
      <trkpt lat="47.46086" lon="6.62177">
        <ele>446.3</ele>
        <time>2017-06-11T09:06:29.999Z</time>
      </trkpt>
      <trkpt lat="47.46084" lon="6.62173">
        <ele>446.3</ele>
        <time>2017-06-11T09:06:31.999Z</time>
      </trkpt>
      <trkpt lat="47.46084" lon="6.6217">
        <ele>446.3</ele>
        <time>2017-06-11T09:06:32.999Z</time>
      </trkpt>
      <trkpt lat="47.46082" lon="6.62165">
        <ele>446.2</ele>
        <time>2017-06-11T09:06:34.999Z</time>
      </trkpt>
      <trkpt lat="47.46081" lon="6.62163">
        <ele>446.1</ele>
        <time>2017-06-11T09:06:35.999Z</time>
      </trkpt>
      <trkpt lat="47.46079" lon="6.62161">
        <ele>446</ele>
        <time>2017-06-11T09:06:36.999Z</time>
      </trkpt>
      <trkpt lat="47.46075" lon="6.62161">
        <ele>445.9</ele>
        <time>2017-06-11T09:06:37.999Z</time>
      </trkpt>
      <trkpt lat="47.46073" lon="6.62161">
        <ele>445.9</ele>
        <time>2017-06-11T09:06:38.999Z</time>
      </trkpt>
      <trkpt lat="47.4607" lon="6.62161">
        <ele>445.9</ele>
        <time>2017-06-11T09:06:39.999Z</time>
      </trkpt>
      <trkpt lat="47.46067" lon="6.6216">
        <ele>445.7</ele>
        <time>2017-06-11T09:06:40.999Z</time>
      </trkpt>
      <trkpt lat="47.46064" lon="6.62158">
        <ele>445.5</ele>
        <time>2017-06-11T09:06:41.999Z</time>
      </trkpt>
      <trkpt lat="47.46061" lon="6.62157">
        <ele>445.4</ele>
        <time>2017-06-11T09:06:42.999Z</time>
      </trkpt>
      <trkpt lat="47.46059" lon="6.62156">
        <ele>445.3</ele>
        <time>2017-06-11T09:06:43.999Z</time>
      </trkpt>
      <trkpt lat="47.46056" lon="6.62152">
        <ele>444.9</ele>
        <time>2017-06-11T09:06:45.999Z</time>
      </trkpt>
      <trkpt lat="47.46052" lon="6.62149">
        <ele>444.7</ele>
        <time>2017-06-11T09:06:46.999Z</time>
      </trkpt>
      <trkpt lat="47.46048" lon="6.62146">
        <ele>443.9</ele>
        <time>2017-06-11T09:06:48.999Z</time>
      </trkpt>
      <trkpt lat="47.46046" lon="6.62144">
        <ele>443.5</ele>
        <time>2017-06-11T09:06:49.999Z</time>
      </trkpt>
      <trkpt lat="47.46043" lon="6.6214">
        <ele>443.2</ele>
        <time>2017-06-11T09:06:50.999Z</time>
      </trkpt>
      <trkpt lat="47.46041" lon="6.62139">
        <ele>442.9</ele>
        <time>2017-06-11T09:06:51.999Z</time>
      </trkpt>
      <trkpt lat="47.46037" lon="6.62137">
        <ele>442.5</ele>
        <time>2017-06-11T09:06:52.999Z</time>
      </trkpt>
      <trkpt lat="47.46035" lon="6.62132">
        <ele>441.7</ele>
        <time>2017-06-11T09:06:54.999Z</time>
      </trkpt>
      <trkpt lat="47.46033" lon="6.6213">
        <ele>441.2</ele>
        <time>2017-06-11T09:06:55.999Z</time>
      </trkpt>
      <trkpt lat="47.4603" lon="6.62129">
        <ele>440.9</ele>
        <time>2017-06-11T09:06:56.999Z</time>
      </trkpt>
      <trkpt lat="47.46026" lon="6.62129">
        <ele>440.7</ele>
        <time>2017-06-11T09:06:57.999Z</time>
      </trkpt>
      <trkpt lat="47.4602" lon="6.62128">
        <ele>440.4</ele>
        <time>2017-06-11T09:06:58.999Z</time>
      </trkpt>
      <trkpt lat="47.46014" lon="6.62126">
        <ele>440</ele>
        <time>2017-06-11T09:06:59.999Z</time>
      </trkpt>
      <trkpt lat="47.46008" lon="6.62124">
        <ele>439.6</ele>
        <time>2017-06-11T09:07:00.999Z</time>
      </trkpt>
      <trkpt lat="47.46005" lon="6.62123">
        <ele>439.3</ele>
        <time>2017-06-11T09:07:01.999Z</time>
      </trkpt>
      <trkpt lat="47.46002" lon="6.62121">
        <ele>439</ele>
        <time>2017-06-11T09:07:02.999Z</time>
      </trkpt>
      <trkpt lat="47.45998" lon="6.62119">
        <ele>438.7</ele>
        <time>2017-06-11T09:07:03.999Z</time>
      </trkpt>
      <trkpt lat="47.45992" lon="6.62116">
        <ele>438.3</ele>
        <time>2017-06-11T09:07:04.999Z</time>
      </trkpt>
      <trkpt lat="47.45986" lon="6.62114">
        <ele>438</ele>
        <time>2017-06-11T09:07:05.999Z</time>
      </trkpt>
      <trkpt lat="47.4598" lon="6.62114">
        <ele>437.7</ele>
        <time>2017-06-11T09:07:06.999Z</time>
      </trkpt>
      <trkpt lat="47.45979" lon="6.6211">
        <ele>437.5</ele>
        <time>2017-06-11T09:07:07.999Z</time>
      </trkpt>
      <trkpt lat="47.45981" lon="6.62102">
        <ele>437.4</ele>
        <time>2017-06-11T09:07:08.999Z</time>
      </trkpt>
      <trkpt lat="47.45981" lon="6.62097">
        <ele>437.3</ele>
        <time>2017-06-11T09:07:09.999Z</time>
      </trkpt>
      <trkpt lat="47.45978" lon="6.62095">
        <ele>437.2</ele>
        <time>2017-06-11T09:07:10.999Z</time>
      </trkpt>
      <trkpt lat="47.45973" lon="6.62096">
        <ele>437.6</ele>
        <time>2017-06-11T09:07:11.999Z</time>
      </trkpt>
      <trkpt lat="47.45967" lon="6.62094">
        <ele>437.6</ele>
        <time>2017-06-11T09:07:12.999Z</time>
      </trkpt>
      <trkpt lat="47.45964" lon="6.62088">
        <ele>437.6</ele>
        <time>2017-06-11T09:07:13.999Z</time>
      </trkpt>
      <trkpt lat="47.4596" lon="6.62083">
        <ele>437.7</ele>
        <time>2017-06-11T09:07:14.999Z</time>
      </trkpt>
      <trkpt lat="47.45954" lon="6.62082">
        <ele>437.8</ele>
        <time>2017-06-11T09:07:15.999Z</time>
      </trkpt>
      <trkpt lat="47.45948" lon="6.62082">
        <ele>437.9</ele>
        <time>2017-06-11T09:07:16.999Z</time>
      </trkpt>
      <trkpt lat="47.45946" lon="6.62082">
        <ele>438</ele>
        <time>2017-06-11T09:07:17.999Z</time>
      </trkpt>
      <trkpt lat="47.45941" lon="6.6208">
        <ele>438.2</ele>
        <time>2017-06-11T09:07:18.999Z</time>
      </trkpt>
      <trkpt lat="47.45935" lon="6.62079">
        <ele>438.4</ele>
        <time>2017-06-11T09:07:19.999Z</time>
      </trkpt>
      <trkpt lat="47.4593" lon="6.62079">
        <ele>439.9</ele>
        <time>2017-06-11T09:07:20.999Z</time>
      </trkpt>
      <trkpt lat="47.45925" lon="6.62079">
        <ele>441</ele>
        <time>2017-06-11T09:07:21.999Z</time>
      </trkpt>
      <trkpt lat="47.45922" lon="6.62075">
        <ele>441.4</ele>
        <time>2017-06-11T09:07:24.999Z</time>
      </trkpt>
      <trkpt lat="47.4592" lon="6.62075">
        <ele>441.6</ele>
        <time>2017-06-11T09:07:25.999Z</time>
      </trkpt>
      <trkpt lat="47.45917" lon="6.62075">
        <ele>441.6</ele>
        <time>2017-06-11T09:07:26.999Z</time>
      </trkpt>
      <trkpt lat="47.45915" lon="6.62074">
        <ele>441.7</ele>
        <time>2017-06-11T09:07:27.999Z</time>
      </trkpt>
      <trkpt lat="47.45911" lon="6.62071">
        <ele>442</ele>
        <time>2017-06-11T09:07:29.999Z</time>
      </trkpt>
      <trkpt lat="47.45907" lon="6.62071">
        <ele>442.1</ele>
        <time>2017-06-11T09:07:30.999Z</time>
      </trkpt>
      <trkpt lat="47.45902" lon="6.62072">
        <ele>442.1</ele>
        <time>2017-06-11T09:07:31.999Z</time>
      </trkpt>
      <trkpt lat="47.459" lon="6.62071">
        <ele>442.1</ele>
        <time>2017-06-11T09:07:32.999Z</time>
      </trkpt>
      <trkpt lat="47.45897" lon="6.6207">
        <ele>442.1</ele>
        <time>2017-06-11T09:07:33.999Z</time>
      </trkpt>
      <trkpt lat="47.45896" lon="6.6207">
        <ele>442.2</ele>
        <time>2017-06-11T09:07:34.999Z</time>
      </trkpt>
      <trkpt lat="47.45892" lon="6.6207">
        <ele>442.3</ele>
        <time>2017-06-11T09:07:35.999Z</time>
      </trkpt>
      <trkpt lat="47.45888" lon="6.62069">
        <ele>442.5</ele>
        <time>2017-06-11T09:07:36.999Z</time>
      </trkpt>
      <trkpt lat="47.45884" lon="6.62068">
        <ele>442.5</ele>
        <time>2017-06-11T09:07:37.999Z</time>
      </trkpt>
      <trkpt lat="47.45882" lon="6.62068">
        <ele>442.6</ele>
        <time>2017-06-11T09:07:38.999Z</time>
      </trkpt>
      <trkpt lat="47.45879" lon="6.62066">
        <ele>442.8</ele>
        <time>2017-06-11T09:07:40.999Z</time>
      </trkpt>
      <trkpt lat="47.45874" lon="6.62063">
        <ele>443</ele>
        <time>2017-06-11T09:07:41.999Z</time>
      </trkpt>
      <trkpt lat="47.4587" lon="6.6206">
        <ele>443.2</ele>
        <time>2017-06-11T09:07:42.999Z</time>
      </trkpt>
      <trkpt lat="47.45866" lon="6.62058">
        <ele>443.5</ele>
        <time>2017-06-11T09:07:44.999Z</time>
      </trkpt>
      <trkpt lat="47.45864" lon="6.62056">
        <ele>443.6</ele>
        <time>2017-06-11T09:07:45.999Z</time>
      </trkpt>
      <trkpt lat="47.4586" lon="6.62054">
        <ele>443.7</ele>
        <time>2017-06-11T09:07:46.999Z</time>
      </trkpt>
      <trkpt lat="47.45859" lon="6.62052">
        <ele>443.9</ele>
        <time>2017-06-11T09:07:47.999Z</time>
      </trkpt>
      <trkpt lat="47.45855" lon="6.62049">
        <ele>444.1</ele>
        <time>2017-06-11T09:07:49.999Z</time>
      </trkpt>
      <trkpt lat="47.45854" lon="6.62047">
        <ele>444.2</ele>
        <time>2017-06-11T09:07:50.999Z</time>
      </trkpt>
      <trkpt lat="47.45852" lon="6.62044">
        <ele>444.3</ele>
        <time>2017-06-11T09:07:52.999Z</time>
      </trkpt>
      <trkpt lat="47.4585" lon="6.62042">
        <ele>444.3</ele>
        <time>2017-06-11T09:07:53.999Z</time>
      </trkpt>
      <trkpt lat="47.45847" lon="6.62039">
        <ele>444.3</ele>
        <time>2017-06-11T09:07:54.999Z</time>
      </trkpt>
      <trkpt lat="47.45845" lon="6.62037">
        <ele>444.4</ele>
        <time>2017-06-11T09:07:55.999Z</time>
      </trkpt>
      <trkpt lat="47.45841" lon="6.62034">
        <ele>444.6</ele>
        <time>2017-06-11T09:07:57.999Z</time>
      </trkpt>
      <trkpt lat="47.45836" lon="6.62032">
        <ele>444.7</ele>
        <time>2017-06-11T09:07:58.999Z</time>
      </trkpt>
      <trkpt lat="47.45834" lon="6.62031">
        <ele>444.7</ele>
        <time>2017-06-11T09:07:59.999Z</time>
      </trkpt>
      <trkpt lat="47.45832" lon="6.6203">
        <ele>444.9</ele>
        <time>2017-06-11T09:08:00.999Z</time>
      </trkpt>
      <trkpt lat="47.45829" lon="6.62028">
        <ele>445.1</ele>
        <time>2017-06-11T09:08:01.999Z</time>
      </trkpt>
      <trkpt lat="47.45826" lon="6.62027">
        <ele>445.3</ele>
        <time>2017-06-11T09:08:02.999Z</time>
      </trkpt>
      <trkpt lat="47.45825" lon="6.62026">
        <ele>445.4</ele>
        <time>2017-06-11T09:08:03.999Z</time>
      </trkpt>
      <trkpt lat="47.45821" lon="6.62023">
        <ele>445.5</ele>
        <time>2017-06-11T09:08:04.999Z</time>
      </trkpt>
      <trkpt lat="47.45819" lon="6.62022">
        <ele>445.4</ele>
        <time>2017-06-11T09:08:06.999Z</time>
      </trkpt>
      <trkpt lat="47.45817" lon="6.62021">
        <ele>445.4</ele>
        <time>2017-06-11T09:08:07.999Z</time>
      </trkpt>
      <trkpt lat="47.45814" lon="6.62018">
        <ele>445.4</ele>
        <time>2017-06-11T09:08:09.999Z</time>
      </trkpt>
      <trkpt lat="47.45811" lon="6.62017">
        <ele>445.4</ele>
        <time>2017-06-11T09:08:10.999Z</time>
      </trkpt>
      <trkpt lat="47.45808" lon="6.62016">
        <ele>445.5</ele>
        <time>2017-06-11T09:08:11.999Z</time>
      </trkpt>
      <trkpt lat="47.45806" lon="6.62015">
        <ele>445.4</ele>
        <time>2017-06-11T09:08:12.999Z</time>
      </trkpt>
      <trkpt lat="47.45804" lon="6.62014">
        <ele>445.4</ele>
        <time>2017-06-11T09:08:13.999Z</time>
      </trkpt>
      <trkpt lat="47.458" lon="6.62012">
        <ele>445.4</ele>
        <time>2017-06-11T09:08:14.999Z</time>
      </trkpt>
      <trkpt lat="47.45797" lon="6.62011">
        <ele>445.4</ele>
        <time>2017-06-11T09:08:16.999Z</time>
      </trkpt>
      <trkpt lat="47.45795" lon="6.6201">
        <ele>445.4</ele>
        <time>2017-06-11T09:08:17.999Z</time>
      </trkpt>
      <trkpt lat="47.45793" lon="6.6201">
        <ele>445.5</ele>
        <time>2017-06-11T09:08:18.999Z</time>
      </trkpt>
      <trkpt lat="47.45789" lon="6.62008">
        <ele>445.5</ele>
        <time>2017-06-11T09:08:19.999Z</time>
      </trkpt>
      <trkpt lat="47.45784" lon="6.62006">
        <ele>445.4</ele>
        <time>2017-06-11T09:08:20.999Z</time>
      </trkpt>
      <trkpt lat="47.45778" lon="6.62004">
        <ele>445.4</ele>
        <time>2017-06-11T09:08:21.999Z</time>
      </trkpt>
      <trkpt lat="47.45776" lon="6.62003">
        <ele>445.3</ele>
        <time>2017-06-11T09:08:22.999Z</time>
      </trkpt>
      <trkpt lat="47.45771" lon="6.62001">
        <ele>445.2</ele>
        <time>2017-06-11T09:08:23.999Z</time>
      </trkpt>
      <trkpt lat="47.45769" lon="6.62">
        <ele>445.2</ele>
        <time>2017-06-11T09:08:24.999Z</time>
      </trkpt>
      <trkpt lat="47.45766" lon="6.61999">
        <ele>445.2</ele>
        <time>2017-06-11T09:08:25.999Z</time>
      </trkpt>
      <trkpt lat="47.45761" lon="6.61997">
        <ele>445.2</ele>
        <time>2017-06-11T09:08:26.999Z</time>
      </trkpt>
      <trkpt lat="47.45758" lon="6.61995">
        <ele>445.4</ele>
        <time>2017-06-11T09:08:27.999Z</time>
      </trkpt>
      <trkpt lat="47.45755" lon="6.61994">
        <ele>445.6</ele>
        <time>2017-06-11T09:08:28.999Z</time>
      </trkpt>
      <trkpt lat="47.45752" lon="6.6199">
        <ele>445.8</ele>
        <time>2017-06-11T09:08:29.999Z</time>
      </trkpt>
      <trkpt lat="47.45749" lon="6.61985">
        <ele>446.1</ele>
        <time>2017-06-11T09:08:30.999Z</time>
      </trkpt>
      <trkpt lat="47.45746" lon="6.61983">
        <ele>446.2</ele>
        <time>2017-06-11T09:08:31.999Z</time>
      </trkpt>
      <trkpt lat="47.45741" lon="6.6198">
        <ele>446.4</ele>
        <time>2017-06-11T09:08:32.999Z</time>
      </trkpt>
      <trkpt lat="47.45737" lon="6.61978">
        <ele>446.5</ele>
        <time>2017-06-11T09:08:33.999Z</time>
      </trkpt>
      <trkpt lat="47.45732" lon="6.61976">
        <ele>448</ele>
        <time>2017-06-11T09:08:34.999Z</time>
      </trkpt>
      <trkpt lat="47.45728" lon="6.61974">
        <ele>449.6</ele>
        <time>2017-06-11T09:08:35.999Z</time>
      </trkpt>
      <trkpt lat="47.45724" lon="6.61972">
        <ele>450.9</ele>
        <time>2017-06-11T09:08:36.999Z</time>
      </trkpt>
      <trkpt lat="47.4572" lon="6.6197">
        <ele>451</ele>
        <time>2017-06-11T09:08:37.999Z</time>
      </trkpt>
      <trkpt lat="47.45714" lon="6.61967">
        <ele>451.6</ele>
        <time>2017-06-11T09:08:38.999Z</time>
      </trkpt>
      <trkpt lat="47.45711" lon="6.61966">
        <ele>451.7</ele>
        <time>2017-06-11T09:08:39.999Z</time>
      </trkpt>
      <trkpt lat="47.45707" lon="6.61964">
        <ele>451.7</ele>
        <time>2017-06-11T09:08:40.999Z</time>
      </trkpt>
      <trkpt lat="47.45704" lon="6.61962">
        <ele>451.8</ele>
        <time>2017-06-11T09:08:41.999Z</time>
      </trkpt>
      <trkpt lat="47.45701" lon="6.61961">
        <ele>451.8</ele>
        <time>2017-06-11T09:08:42.999Z</time>
      </trkpt>
      <trkpt lat="47.45698" lon="6.6196">
        <ele>451.8</ele>
        <time>2017-06-11T09:08:43.999Z</time>
      </trkpt>
      <trkpt lat="47.45693" lon="6.6196">
        <ele>451.9</ele>
        <time>2017-06-11T09:08:44.999Z</time>
      </trkpt>
      <trkpt lat="47.45689" lon="6.61959">
        <ele>451.4</ele>
        <time>2017-06-11T09:08:45.999Z</time>
      </trkpt>
      <trkpt lat="47.45686" lon="6.61957">
        <ele>451.1</ele>
        <time>2017-06-11T09:08:46.999Z</time>
      </trkpt>
      <trkpt lat="47.45682" lon="6.61957">
        <ele>450.9</ele>
        <time>2017-06-11T09:08:47.999Z</time>
      </trkpt>
      <trkpt lat="47.45678" lon="6.61957">
        <ele>449.8</ele>
        <time>2017-06-11T09:08:48.999Z</time>
      </trkpt>
      <trkpt lat="47.45674" lon="6.61956">
        <ele>448.9</ele>
        <time>2017-06-11T09:08:49.999Z</time>
      </trkpt>
      <trkpt lat="47.45672" lon="6.61955">
        <ele>449</ele>
        <time>2017-06-11T09:08:50.999Z</time>
      </trkpt>
      <trkpt lat="47.4567" lon="6.61952">
        <ele>449.1</ele>
        <time>2017-06-11T09:08:51.999Z</time>
      </trkpt>
      <trkpt lat="47.4567" lon="6.61948">
        <ele>449.1</ele>
        <time>2017-06-11T09:08:52.999Z</time>
      </trkpt>
      <trkpt lat="47.45668" lon="6.61943">
        <ele>449.1</ele>
        <time>2017-06-11T09:08:53.999Z</time>
      </trkpt>
      <trkpt lat="47.45667" lon="6.61938">
        <ele>449</ele>
        <time>2017-06-11T09:08:54.999Z</time>
      </trkpt>
      <trkpt lat="47.45666" lon="6.61932">
        <ele>447.7</ele>
        <time>2017-06-11T09:08:55.999Z</time>
      </trkpt>
      <trkpt lat="47.45663" lon="6.61928">
        <ele>447</ele>
        <time>2017-06-11T09:08:56.999Z</time>
      </trkpt>
      <trkpt lat="47.45659" lon="6.61928">
        <ele>447</ele>
        <time>2017-06-11T09:08:57.999Z</time>
      </trkpt>
      <trkpt lat="47.45654" lon="6.6193">
        <ele>446.9</ele>
        <time>2017-06-11T09:08:58.999Z</time>
      </trkpt>
      <trkpt lat="47.45648" lon="6.61932">
        <ele>446.9</ele>
        <time>2017-06-11T09:08:59.999Z</time>
      </trkpt>
      <trkpt lat="47.45643" lon="6.61934">
        <ele>446.8</ele>
        <time>2017-06-11T09:09:00.999Z</time>
      </trkpt>
      <trkpt lat="47.45641" lon="6.61937">
        <ele>446.7</ele>
        <time>2017-06-11T09:09:01.999Z</time>
      </trkpt>
      <trkpt lat="47.45638" lon="6.61939">
        <ele>446.8</ele>
        <time>2017-06-11T09:09:02.999Z</time>
      </trkpt>
      <trkpt lat="47.45633" lon="6.61939">
        <ele>446.9</ele>
        <time>2017-06-11T09:09:03.999Z</time>
      </trkpt>
      <trkpt lat="47.4563" lon="6.61937">
        <ele>446.8</ele>
        <time>2017-06-11T09:09:04.999Z</time>
      </trkpt>
      <trkpt lat="47.45626" lon="6.61936">
        <ele>446.8</ele>
        <time>2017-06-11T09:09:05.999Z</time>
      </trkpt>
      <trkpt lat="47.45622" lon="6.61935">
        <ele>446.2</ele>
        <time>2017-06-11T09:09:06.999Z</time>
      </trkpt>
      <trkpt lat="47.45619" lon="6.61933">
        <ele>446.1</ele>
        <time>2017-06-11T09:09:07.999Z</time>
      </trkpt>
      <trkpt lat="47.45615" lon="6.6193">
        <ele>445.4</ele>
        <time>2017-06-11T09:09:08.999Z</time>
      </trkpt>
      <trkpt lat="47.45611" lon="6.61927">
        <ele>444.6</ele>
        <time>2017-06-11T09:09:09.999Z</time>
      </trkpt>
      <trkpt lat="47.45607" lon="6.61924">
        <ele>444.5</ele>
        <time>2017-06-11T09:09:10.999Z</time>
      </trkpt>
      <trkpt lat="47.45606" lon="6.6192">
        <ele>444.5</ele>
        <time>2017-06-11T09:09:11.999Z</time>
      </trkpt>
      <trkpt lat="47.45605" lon="6.61914">
        <ele>444.4</ele>
        <time>2017-06-11T09:09:12.999Z</time>
      </trkpt>
      <trkpt lat="47.45603" lon="6.6191">
        <ele>444.3</ele>
        <time>2017-06-11T09:09:13.999Z</time>
      </trkpt>
      <trkpt lat="47.456" lon="6.61907">
        <ele>444.2</ele>
        <time>2017-06-11T09:09:14.999Z</time>
      </trkpt>
      <trkpt lat="47.45597" lon="6.61905">
        <ele>444.1</ele>
        <time>2017-06-11T09:09:15.999Z</time>
      </trkpt>
      <trkpt lat="47.45596" lon="6.61905">
        <ele>444.1</ele>
        <time>2017-06-11T09:09:16.999Z</time>
      </trkpt>
      <trkpt lat="47.45593" lon="6.61903">
        <ele>443.6</ele>
        <time>2017-06-11T09:09:20.999Z</time>
      </trkpt>
      <trkpt lat="47.45589" lon="6.61899">
        <ele>443.4</ele>
        <time>2017-06-11T09:09:21.999Z</time>
      </trkpt>
      <trkpt lat="47.45585" lon="6.61896">
        <ele>443.2</ele>
        <time>2017-06-11T09:09:22.999Z</time>
      </trkpt>
      <trkpt lat="47.4558" lon="6.61894">
        <ele>443</ele>
        <time>2017-06-11T09:09:23.999Z</time>
      </trkpt>
      <trkpt lat="47.45573" lon="6.61892">
        <ele>441.5</ele>
        <time>2017-06-11T09:09:24.999Z</time>
      </trkpt>
      <trkpt lat="47.45566" lon="6.6189">
        <ele>439.9</ele>
        <time>2017-06-11T09:09:25.999Z</time>
      </trkpt>
      <trkpt lat="47.45562" lon="6.61888">
        <ele>438.6</ele>
        <time>2017-06-11T09:09:26.999Z</time>
      </trkpt>
      <trkpt lat="47.45555" lon="6.61885">
        <ele>437.4</ele>
        <time>2017-06-11T09:09:27.999Z</time>
      </trkpt>
      <trkpt lat="47.45548" lon="6.61882">
        <ele>436.8</ele>
        <time>2017-06-11T09:09:28.999Z</time>
      </trkpt>
      <trkpt lat="47.45543" lon="6.61882">
        <ele>435.9</ele>
        <time>2017-06-11T09:09:29.999Z</time>
      </trkpt>
      <trkpt lat="47.45536" lon="6.61881">
        <ele>434.3</ele>
        <time>2017-06-11T09:09:30.999Z</time>
      </trkpt>
      <trkpt lat="47.45528" lon="6.61877">
        <ele>432.9</ele>
        <time>2017-06-11T09:09:31.999Z</time>
      </trkpt>
      <trkpt lat="47.4552" lon="6.61874">
        <ele>431.6</ele>
        <time>2017-06-11T09:09:32.999Z</time>
      </trkpt>
      <trkpt lat="47.45514" lon="6.61875">
        <ele>430.1</ele>
        <time>2017-06-11T09:09:33.999Z</time>
      </trkpt>
      <trkpt lat="47.45507" lon="6.61875">
        <ele>430.1</ele>
        <time>2017-06-11T09:09:34.999Z</time>
      </trkpt>
      <trkpt lat="47.45498" lon="6.61877">
        <ele>429</ele>
        <time>2017-06-11T09:09:35.999Z</time>
      </trkpt>
      <trkpt lat="47.45489" lon="6.6188">
        <ele>428.2</ele>
        <time>2017-06-11T09:09:36.999Z</time>
      </trkpt>
      <trkpt lat="47.45481" lon="6.61884">
        <ele>427.9</ele>
        <time>2017-06-11T09:09:37.999Z</time>
      </trkpt>
      <trkpt lat="47.45473" lon="6.61888">
        <ele>427.5</ele>
        <time>2017-06-11T09:09:38.999Z</time>
      </trkpt>
      <trkpt lat="47.45463" lon="6.61891">
        <ele>426.6</ele>
        <time>2017-06-11T09:09:39.999Z</time>
      </trkpt>
      <trkpt lat="47.45453" lon="6.61893">
        <ele>425.4</ele>
        <time>2017-06-11T09:09:40.999Z</time>
      </trkpt>
      <trkpt lat="47.45447" lon="6.61892">
        <ele>423.9</ele>
        <time>2017-06-11T09:09:41.999Z</time>
      </trkpt>
      <trkpt lat="47.45442" lon="6.61892">
        <ele>422.9</ele>
        <time>2017-06-11T09:09:42.999Z</time>
      </trkpt>
      <trkpt lat="47.45437" lon="6.61893">
        <ele>422.7</ele>
        <time>2017-06-11T09:09:43.999Z</time>
      </trkpt>
      <trkpt lat="47.45429" lon="6.61893">
        <ele>422.1</ele>
        <time>2017-06-11T09:09:44.999Z</time>
      </trkpt>
      <trkpt lat="47.45421" lon="6.61894">
        <ele>421.1</ele>
        <time>2017-06-11T09:09:45.999Z</time>
      </trkpt>
      <trkpt lat="47.45413" lon="6.61895">
        <ele>419.6</ele>
        <time>2017-06-11T09:09:46.999Z</time>
      </trkpt>
      <trkpt lat="47.45405" lon="6.61898">
        <ele>419</ele>
        <time>2017-06-11T09:09:47.999Z</time>
      </trkpt>
      <trkpt lat="47.45398" lon="6.619">
        <ele>417.9</ele>
        <time>2017-06-11T09:09:48.999Z</time>
      </trkpt>
      <trkpt lat="47.4539" lon="6.61907">
        <ele>417</ele>
        <time>2017-06-11T09:09:49.999Z</time>
      </trkpt>
      <trkpt lat="47.45383" lon="6.61914">
        <ele>417.1</ele>
        <time>2017-06-11T09:09:50.999Z</time>
      </trkpt>
      <trkpt lat="47.45377" lon="6.61915">
        <ele>415.3</ele>
        <time>2017-06-11T09:09:51.999Z</time>
      </trkpt>
      <trkpt lat="47.45372" lon="6.61915">
        <ele>413.2</ele>
        <time>2017-06-11T09:09:52.999Z</time>
      </trkpt>
      <trkpt lat="47.45366" lon="6.61915">
        <ele>411.9</ele>
        <time>2017-06-11T09:09:53.999Z</time>
      </trkpt>
      <trkpt lat="47.45357" lon="6.61916">
        <ele>410.7</ele>
        <time>2017-06-11T09:09:54.999Z</time>
      </trkpt>
      <trkpt lat="47.45348" lon="6.61917">
        <ele>409.5</ele>
        <time>2017-06-11T09:09:55.999Z</time>
      </trkpt>
      <trkpt lat="47.45339" lon="6.61918">
        <ele>407.9</ele>
        <time>2017-06-11T09:09:56.999Z</time>
      </trkpt>
      <trkpt lat="47.45331" lon="6.61919">
        <ele>405.8</ele>
        <time>2017-06-11T09:09:57.999Z</time>
      </trkpt>
      <trkpt lat="47.45322" lon="6.61924">
        <ele>402.8</ele>
        <time>2017-06-11T09:09:58.999Z</time>
      </trkpt>
      <trkpt lat="47.45312" lon="6.61929">
        <ele>400</ele>
        <time>2017-06-11T09:09:59.999Z</time>
      </trkpt>
      <trkpt lat="47.45304" lon="6.61929">
        <ele>398.1</ele>
        <time>2017-06-11T09:10:00.999Z</time>
      </trkpt>
      <trkpt lat="47.45296" lon="6.61929">
        <ele>396.4</ele>
        <time>2017-06-11T09:10:01.999Z</time>
      </trkpt>
      <trkpt lat="47.45286" lon="6.6193">
        <ele>394.4</ele>
        <time>2017-06-11T09:10:02.999Z</time>
      </trkpt>
      <trkpt lat="47.45277" lon="6.6193">
        <ele>392.5</ele>
        <time>2017-06-11T09:10:03.999Z</time>
      </trkpt>
      <trkpt lat="47.45267" lon="6.61932">
        <ele>390.5</ele>
        <time>2017-06-11T09:10:04.999Z</time>
      </trkpt>
      <trkpt lat="47.45257" lon="6.61929">
        <ele>389</ele>
        <time>2017-06-11T09:10:05.999Z</time>
      </trkpt>
      <trkpt lat="47.45246" lon="6.61928">
        <ele>387.4</ele>
        <time>2017-06-11T09:10:06.999Z</time>
      </trkpt>
      <trkpt lat="47.45234" lon="6.61926">
        <ele>386</ele>
        <time>2017-06-11T09:10:07.999Z</time>
      </trkpt>
      <trkpt lat="47.45223" lon="6.61924">
        <ele>384.6</ele>
        <time>2017-06-11T09:10:08.999Z</time>
      </trkpt>
      <trkpt lat="47.45212" lon="6.61922">
        <ele>384</ele>
        <time>2017-06-11T09:10:09.999Z</time>
      </trkpt>
      <trkpt lat="47.45201" lon="6.61923">
        <ele>383.6</ele>
        <time>2017-06-11T09:10:10.999Z</time>
      </trkpt>
      <trkpt lat="47.45191" lon="6.61926">
        <ele>383.7</ele>
        <time>2017-06-11T09:10:11.999Z</time>
      </trkpt>
      <trkpt lat="47.45182" lon="6.61927">
        <ele>384.3</ele>
        <time>2017-06-11T09:10:12.999Z</time>
      </trkpt>
      <trkpt lat="47.45171" lon="6.61928">
        <ele>384.9</ele>
        <time>2017-06-11T09:10:13.999Z</time>
      </trkpt>
      <trkpt lat="47.45158" lon="6.61928">
        <ele>384.8</ele>
        <time>2017-06-11T09:10:14.999Z</time>
      </trkpt>
      <trkpt lat="47.45147" lon="6.61931">
        <ele>384.4</ele>
        <time>2017-06-11T09:10:15.999Z</time>
      </trkpt>
      <trkpt lat="47.45137" lon="6.61934">
        <ele>384.1</ele>
        <time>2017-06-11T09:10:16.999Z</time>
      </trkpt>
      <trkpt lat="47.45131" lon="6.61938">
        <ele>383.2</ele>
        <time>2017-06-11T09:10:17.999Z</time>
      </trkpt>
      <trkpt lat="47.45124" lon="6.61943">
        <ele>381.6</ele>
        <time>2017-06-11T09:10:18.999Z</time>
      </trkpt>
      <trkpt lat="47.45119" lon="6.61946">
        <ele>381.3</ele>
        <time>2017-06-11T09:10:19.999Z</time>
      </trkpt>
      <trkpt lat="47.45113" lon="6.61947">
        <ele>380.8</ele>
        <time>2017-06-11T09:10:20.999Z</time>
      </trkpt>
      <trkpt lat="47.45108" lon="6.61945">
        <ele>379.6</ele>
        <time>2017-06-11T09:10:21.999Z</time>
      </trkpt>
      <trkpt lat="47.45103" lon="6.61944">
        <ele>378.4</ele>
        <time>2017-06-11T09:10:22.999Z</time>
      </trkpt>
      <trkpt lat="47.45098" lon="6.61942">
        <ele>377.7</ele>
        <time>2017-06-11T09:10:23.999Z</time>
      </trkpt>
      <trkpt lat="47.45092" lon="6.6194">
        <ele>376.5</ele>
        <time>2017-06-11T09:10:24.999Z</time>
      </trkpt>
      <trkpt lat="47.45086" lon="6.61939">
        <ele>375.6</ele>
        <time>2017-06-11T09:10:25.999Z</time>
      </trkpt>
      <trkpt lat="47.45082" lon="6.61939">
        <ele>375.5</ele>
        <time>2017-06-11T09:10:26.999Z</time>
      </trkpt>
      <trkpt lat="47.45079" lon="6.61939">
        <ele>375.5</ele>
        <time>2017-06-11T09:10:27.999Z</time>
      </trkpt>
      <trkpt lat="47.45074" lon="6.61938">
        <ele>374.6</ele>
        <time>2017-06-11T09:10:28.999Z</time>
      </trkpt>
      <trkpt lat="47.45069" lon="6.61939">
        <ele>374.7</ele>
        <time>2017-06-11T09:10:29.999Z</time>
      </trkpt>
      <trkpt lat="47.45064" lon="6.6194">
        <ele>374.4</ele>
        <time>2017-06-11T09:10:30.999Z</time>
      </trkpt>
      <trkpt lat="47.45059" lon="6.61942">
        <ele>373.9</ele>
        <time>2017-06-11T09:10:31.999Z</time>
      </trkpt>
      <trkpt lat="47.45054" lon="6.61943">
        <ele>373.1</ele>
        <time>2017-06-11T09:10:32.999Z</time>
      </trkpt>
      <trkpt lat="47.45048" lon="6.61944">
        <ele>373.4</ele>
        <time>2017-06-11T09:10:33.999Z</time>
      </trkpt>
      <trkpt lat="47.45043" lon="6.61944">
        <ele>373.1</ele>
        <time>2017-06-11T09:10:34.999Z</time>
      </trkpt>
      <trkpt lat="47.45038" lon="6.61945">
        <ele>373.8</ele>
        <time>2017-06-11T09:10:35.999Z</time>
      </trkpt>
      <trkpt lat="47.45033" lon="6.61945">
        <ele>373.7</ele>
        <time>2017-06-11T09:10:36.999Z</time>
      </trkpt>
      <trkpt lat="47.45028" lon="6.61946">
        <ele>373.5</ele>
        <time>2017-06-11T09:10:37.999Z</time>
      </trkpt>
      <trkpt lat="47.45024" lon="6.61946">
        <ele>373.6</ele>
        <time>2017-06-11T09:10:38.999Z</time>
      </trkpt>
      <trkpt lat="47.45019" lon="6.61946">
        <ele>374.5</ele>
        <time>2017-06-11T09:10:39.999Z</time>
      </trkpt>
      <trkpt lat="47.45014" lon="6.61946">
        <ele>374.7</ele>
        <time>2017-06-11T09:10:40.999Z</time>
      </trkpt>
      <trkpt lat="47.4501" lon="6.61947">
        <ele>375.2</ele>
        <time>2017-06-11T09:10:41.999Z</time>
      </trkpt>
      <trkpt lat="47.45005" lon="6.61948">
        <ele>375.7</ele>
        <time>2017-06-11T09:10:42.999Z</time>
      </trkpt>
      <trkpt lat="47.45001" lon="6.61947">
        <ele>376.2</ele>
        <time>2017-06-11T09:10:43.999Z</time>
      </trkpt>
      <trkpt lat="47.44997" lon="6.61943">
        <ele>376.5</ele>
        <time>2017-06-11T09:10:44.999Z</time>
      </trkpt>
      <trkpt lat="47.44994" lon="6.61939">
        <ele>376.8</ele>
        <time>2017-06-11T09:10:45.999Z</time>
      </trkpt>
      <trkpt lat="47.44991" lon="6.61934">
        <ele>375.4</ele>
        <time>2017-06-11T09:10:46.999Z</time>
      </trkpt>
      <trkpt lat="47.44989" lon="6.61929">
        <ele>375.7</ele>
        <time>2017-06-11T09:10:47.999Z</time>
      </trkpt>
      <trkpt lat="47.44986" lon="6.61924">
        <ele>375.7</ele>
        <time>2017-06-11T09:10:48.999Z</time>
      </trkpt>
      <trkpt lat="47.44984" lon="6.61921">
        <ele>375.8</ele>
        <time>2017-06-11T09:10:49.999Z</time>
      </trkpt>
      <trkpt lat="47.44984" lon="6.61917">
        <ele>375.9</ele>
        <time>2017-06-11T09:10:50.999Z</time>
      </trkpt>
      <trkpt lat="47.44983" lon="6.61913">
        <ele>376.1</ele>
        <time>2017-06-11T09:10:51.999Z</time>
      </trkpt>
      <trkpt lat="47.44982" lon="6.61907">
        <ele>376.3</ele>
        <time>2017-06-11T09:10:52.999Z</time>
      </trkpt>
      <trkpt lat="47.4498" lon="6.61901">
        <ele>376.5</ele>
        <time>2017-06-11T09:10:53.999Z</time>
      </trkpt>
      <trkpt lat="47.44979" lon="6.61897">
        <ele>376.8</ele>
        <time>2017-06-11T09:10:54.999Z</time>
      </trkpt>
      <trkpt lat="47.44977" lon="6.61892">
        <ele>377</ele>
        <time>2017-06-11T09:10:55.999Z</time>
      </trkpt>
      <trkpt lat="47.44975" lon="6.61887">
        <ele>377.2</ele>
        <time>2017-06-11T09:10:56.999Z</time>
      </trkpt>
      <trkpt lat="47.44973" lon="6.61882">
        <ele>377.3</ele>
        <time>2017-06-11T09:10:57.999Z</time>
      </trkpt>
      <trkpt lat="47.44971" lon="6.61876">
        <ele>377.4</ele>
        <time>2017-06-11T09:10:58.999Z</time>
      </trkpt>
      <trkpt lat="47.44969" lon="6.61871">
        <ele>378.2</ele>
        <time>2017-06-11T09:10:59.999Z</time>
      </trkpt>
      <trkpt lat="47.44967" lon="6.61867">
        <ele>378.3</ele>
        <time>2017-06-11T09:11:00.999Z</time>
      </trkpt>
      <trkpt lat="47.44966" lon="6.61863">
        <ele>378.4</ele>
        <time>2017-06-11T09:11:01.999Z</time>
      </trkpt>
      <trkpt lat="47.44965" lon="6.61859">
        <ele>378.6</ele>
        <time>2017-06-11T09:11:02.999Z</time>
      </trkpt>
      <trkpt lat="47.44962" lon="6.61855">
        <ele>378.7</ele>
        <time>2017-06-11T09:11:03.999Z</time>
      </trkpt>
      <trkpt lat="47.4496" lon="6.61851">
        <ele>378.9</ele>
        <time>2017-06-11T09:11:04.999Z</time>
      </trkpt>
      <trkpt lat="47.44958" lon="6.61847">
        <ele>379</ele>
        <time>2017-06-11T09:11:05.999Z</time>
      </trkpt>
      <trkpt lat="47.44957" lon="6.61844">
        <ele>379.2</ele>
        <time>2017-06-11T09:11:06.999Z</time>
      </trkpt>
      <trkpt lat="47.44956" lon="6.6184">
        <ele>379.4</ele>
        <time>2017-06-11T09:11:07.999Z</time>
      </trkpt>
      <trkpt lat="47.44954" lon="6.61837">
        <ele>379.5</ele>
        <time>2017-06-11T09:11:08.999Z</time>
      </trkpt>
      <trkpt lat="47.44952" lon="6.61834">
        <ele>379.7</ele>
        <time>2017-06-11T09:11:09.999Z</time>
      </trkpt>
      <trkpt lat="47.44949" lon="6.61832">
        <ele>379.8</ele>
        <time>2017-06-11T09:11:10.999Z</time>
      </trkpt>
      <trkpt lat="47.44948" lon="6.61828">
        <ele>379.9</ele>
        <time>2017-06-11T09:11:11.999Z</time>
      </trkpt>
      <trkpt lat="47.44945" lon="6.61825">
        <ele>380</ele>
        <time>2017-06-11T09:11:12.999Z</time>
      </trkpt>
      <trkpt lat="47.44943" lon="6.61823">
        <ele>380</ele>
        <time>2017-06-11T09:11:13.999Z</time>
      </trkpt>
      <trkpt lat="47.4494" lon="6.61822">
        <ele>380.1</ele>
        <time>2017-06-11T09:11:14.999Z</time>
      </trkpt>
      <trkpt lat="47.44938" lon="6.61821">
        <ele>380.1</ele>
        <time>2017-06-11T09:11:15.999Z</time>
      </trkpt>
      <trkpt lat="47.44935" lon="6.61819">
        <ele>380.2</ele>
        <time>2017-06-11T09:11:16.999Z</time>
      </trkpt>
      <trkpt lat="47.44933" lon="6.61818">
        <ele>380.3</ele>
        <time>2017-06-11T09:11:17.999Z</time>
      </trkpt>
      <trkpt lat="47.44928" lon="6.61818">
        <ele>380.5</ele>
        <time>2017-06-11T09:11:19.999Z</time>
      </trkpt>
      <trkpt lat="47.44927" lon="6.61818">
        <ele>380.6</ele>
        <time>2017-06-11T09:11:20.999Z</time>
      </trkpt>
      <trkpt lat="47.44925" lon="6.61817">
        <ele>380.8</ele>
        <time>2017-06-11T09:11:21.999Z</time>
      </trkpt>
      <trkpt lat="47.44922" lon="6.61816">
        <ele>380.9</ele>
        <time>2017-06-11T09:11:22.999Z</time>
      </trkpt>
      <trkpt lat="47.44918" lon="6.61815">
        <ele>381.2</ele>
        <time>2017-06-11T09:11:23.999Z</time>
      </trkpt>
      <trkpt lat="47.44916" lon="6.61814">
        <ele>381.4</ele>
        <time>2017-06-11T09:11:24.999Z</time>
      </trkpt>
      <trkpt lat="47.44913" lon="6.61813">
        <ele>381.6</ele>
        <time>2017-06-11T09:11:25.999Z</time>
      </trkpt>
      <trkpt lat="47.44911" lon="6.61811">
        <ele>381.8</ele>
        <time>2017-06-11T09:11:26.999Z</time>
      </trkpt>
      <trkpt lat="47.44909" lon="6.61807">
        <ele>382.2</ele>
        <time>2017-06-11T09:11:28.999Z</time>
      </trkpt>
      <trkpt lat="47.44908" lon="6.61804">
        <ele>382.4</ele>
        <time>2017-06-11T09:11:29.999Z</time>
      </trkpt>
      <trkpt lat="47.44907" lon="6.618">
        <ele>382.5</ele>
        <time>2017-06-11T09:11:30.999Z</time>
      </trkpt>
      <trkpt lat="47.44906" lon="6.61796">
        <ele>382.6</ele>
        <time>2017-06-11T09:11:31.999Z</time>
      </trkpt>
      <trkpt lat="47.44905" lon="6.61791">
        <ele>382.8</ele>
        <time>2017-06-11T09:11:32.999Z</time>
      </trkpt>
      <trkpt lat="47.44904" lon="6.61788">
        <ele>382.9</ele>
        <time>2017-06-11T09:11:33.999Z</time>
      </trkpt>
      <trkpt lat="47.44903" lon="6.61783">
        <ele>383.1</ele>
        <time>2017-06-11T09:11:34.999Z</time>
      </trkpt>
      <trkpt lat="47.44901" lon="6.61778">
        <ele>383.2</ele>
        <time>2017-06-11T09:11:35.999Z</time>
      </trkpt>
      <trkpt lat="47.44899" lon="6.61774">
        <ele>383.3</ele>
        <time>2017-06-11T09:11:36.999Z</time>
      </trkpt>
      <trkpt lat="47.44898" lon="6.61771">
        <ele>383.4</ele>
        <time>2017-06-11T09:11:37.999Z</time>
      </trkpt>
      <trkpt lat="47.44897" lon="6.61768">
        <ele>383.6</ele>
        <time>2017-06-11T09:11:38.999Z</time>
      </trkpt>
      <trkpt lat="47.44896" lon="6.61763">
        <ele>383.8</ele>
        <time>2017-06-11T09:11:39.999Z</time>
      </trkpt>
      <trkpt lat="47.44896" lon="6.6176">
        <ele>384</ele>
        <time>2017-06-11T09:11:40.999Z</time>
      </trkpt>
      <trkpt lat="47.44895" lon="6.61756">
        <ele>384.2</ele>
        <time>2017-06-11T09:11:41.999Z</time>
      </trkpt>
      <trkpt lat="47.44895" lon="6.61752">
        <ele>384.4</ele>
        <time>2017-06-11T09:11:42.999Z</time>
      </trkpt>
      <trkpt lat="47.44895" lon="6.61748">
        <ele>384.6</ele>
        <time>2017-06-11T09:11:43.999Z</time>
      </trkpt>
      <trkpt lat="47.44894" lon="6.61741">
        <ele>384.8</ele>
        <time>2017-06-11T09:11:44.999Z</time>
      </trkpt>
      <trkpt lat="47.44894" lon="6.61734">
        <ele>384.9</ele>
        <time>2017-06-11T09:11:45.999Z</time>
      </trkpt>
      <trkpt lat="47.44895" lon="6.61728">
        <ele>385</ele>
        <time>2017-06-11T09:11:46.999Z</time>
      </trkpt>
      <trkpt lat="47.44895" lon="6.61725">
        <ele>385.2</ele>
        <time>2017-06-11T09:11:47.999Z</time>
      </trkpt>
      <trkpt lat="47.44896" lon="6.61722">
        <ele>385.2</ele>
        <time>2017-06-11T09:11:48.999Z</time>
      </trkpt>
      <trkpt lat="47.44897" lon="6.61719">
        <ele>385.3</ele>
        <time>2017-06-11T09:11:49.999Z</time>
      </trkpt>
      <trkpt lat="47.44899" lon="6.61717">
        <ele>385.3</ele>
        <time>2017-06-11T09:11:51.999Z</time>
      </trkpt>
      <trkpt lat="47.449" lon="6.61714">
        <ele>385.3</ele>
        <time>2017-06-11T09:11:52.999Z</time>
      </trkpt>
      <trkpt lat="47.44902" lon="6.6171">
        <ele>385.3</ele>
        <time>2017-06-11T09:11:53.999Z</time>
      </trkpt>
      <trkpt lat="47.44904" lon="6.61707">
        <ele>385.3</ele>
        <time>2017-06-11T09:11:54.999Z</time>
      </trkpt>
      <trkpt lat="47.44906" lon="6.61703">
        <ele>385.4</ele>
        <time>2017-06-11T09:11:55.999Z</time>
      </trkpt>
      <trkpt lat="47.44907" lon="6.617">
        <ele>385.4</ele>
        <time>2017-06-11T09:11:56.999Z</time>
      </trkpt>
      <trkpt lat="47.44909" lon="6.61697">
        <ele>385.4</ele>
        <time>2017-06-11T09:11:57.999Z</time>
      </trkpt>
      <trkpt lat="47.44911" lon="6.61694">
        <ele>385.3</ele>
        <time>2017-06-11T09:11:58.999Z</time>
      </trkpt>
      <trkpt lat="47.44913" lon="6.6169">
        <ele>385.2</ele>
        <time>2017-06-11T09:11:59.999Z</time>
      </trkpt>
      <trkpt lat="47.44915" lon="6.61687">
        <ele>385.1</ele>
        <time>2017-06-11T09:12:00.999Z</time>
      </trkpt>
      <trkpt lat="47.44917" lon="6.61681">
        <ele>385.1</ele>
        <time>2017-06-11T09:12:01.999Z</time>
      </trkpt>
      <trkpt lat="47.44918" lon="6.61676">
        <ele>385</ele>
        <time>2017-06-11T09:12:02.999Z</time>
      </trkpt>
      <trkpt lat="47.44918" lon="6.61672">
        <ele>384.7</ele>
        <time>2017-06-11T09:12:08.999Z</time>
      </trkpt>
      <trkpt lat="47.44912" lon="6.61665">
        <ele>384.6</ele>
        <time>2017-06-11T09:12:09.999Z</time>
      </trkpt>
      <trkpt lat="47.44909" lon="6.61664">
        <ele>384.3</ele>
        <time>2017-06-11T09:12:10.999Z</time>
      </trkpt>
      <trkpt lat="47.44906" lon="6.61663">
        <ele>384.2</ele>
        <time>2017-06-11T09:12:11.999Z</time>
      </trkpt>
      <trkpt lat="47.44905" lon="6.61661">
        <ele>384</ele>
        <time>2017-06-11T09:12:12.999Z</time>
      </trkpt>
      <trkpt lat="47.44903" lon="6.61659">
        <ele>383.9</ele>
        <time>2017-06-11T09:12:13.999Z</time>
      </trkpt>
      <trkpt lat="47.44899" lon="6.61654">
        <ele>383.7</ele>
        <time>2017-06-11T09:12:14.999Z</time>
      </trkpt>
      <trkpt lat="47.44896" lon="6.6165">
        <ele>383.7</ele>
        <time>2017-06-11T09:12:15.999Z</time>
      </trkpt>
      <trkpt lat="47.44893" lon="6.61646">
        <ele>383.7</ele>
        <time>2017-06-11T09:12:16.999Z</time>
      </trkpt>
      <trkpt lat="47.44891" lon="6.61642">
        <ele>383.6</ele>
        <time>2017-06-11T09:12:17.999Z</time>
      </trkpt>
      <trkpt lat="47.4489" lon="6.61638">
        <ele>383.6</ele>
        <time>2017-06-11T09:12:18.999Z</time>
      </trkpt>
      <trkpt lat="47.44888" lon="6.61632">
        <ele>383.6</ele>
        <time>2017-06-11T09:12:19.999Z</time>
      </trkpt>
      <trkpt lat="47.44886" lon="6.61627">
        <ele>383.6</ele>
        <time>2017-06-11T09:12:20.999Z</time>
      </trkpt>
      <trkpt lat="47.44883" lon="6.61621">
        <ele>383.5</ele>
        <time>2017-06-11T09:12:21.999Z</time>
      </trkpt>
      <trkpt lat="47.44881" lon="6.61615">
        <ele>383.4</ele>
        <time>2017-06-11T09:12:22.999Z</time>
      </trkpt>
      <trkpt lat="47.44879" lon="6.61607">
        <ele>383.3</ele>
        <time>2017-06-11T09:12:23.999Z</time>
      </trkpt>
      <trkpt lat="47.44875" lon="6.616">
        <ele>383</ele>
        <time>2017-06-11T09:12:24.999Z</time>
      </trkpt>
      <trkpt lat="47.44872" lon="6.61594">
        <ele>383.3</ele>
        <time>2017-06-11T09:12:25.999Z</time>
      </trkpt>
      <trkpt lat="47.44872" lon="6.61594">
        <ele>383.2</ele>
        <time>2017-06-11T09:12:27.999Z</time>
      </trkpt>
      <trkpt lat="47.44862" lon="6.61587">
        <ele>384.3</ele>
        <time>2017-06-11T09:12:28.999Z</time>
      </trkpt>
      <trkpt lat="47.44854" lon="6.61586">
        <ele>385.4</ele>
        <time>2017-06-11T09:12:29.999Z</time>
      </trkpt>
      <trkpt lat="47.44848" lon="6.61587">
        <ele>387.6</ele>
        <time>2017-06-11T09:12:30.999Z</time>
      </trkpt>
      <trkpt lat="47.44842" lon="6.61589">
        <ele>387.8</ele>
        <time>2017-06-11T09:12:31.999Z</time>
      </trkpt>
      <trkpt lat="47.44838" lon="6.61592">
        <ele>388.7</ele>
        <time>2017-06-11T09:12:32.999Z</time>
      </trkpt>
      <trkpt lat="47.44833" lon="6.61595">
        <ele>388.8</ele>
        <time>2017-06-11T09:12:33.999Z</time>
      </trkpt>
      <trkpt lat="47.44829" lon="6.61598">
        <ele>388.8</ele>
        <time>2017-06-11T09:12:34.999Z</time>
      </trkpt>
      <trkpt lat="47.44824" lon="6.61599">
        <ele>388.8</ele>
        <time>2017-06-11T09:12:35.999Z</time>
      </trkpt>
      <trkpt lat="47.4482" lon="6.616">
        <ele>388.7</ele>
        <time>2017-06-11T09:12:36.999Z</time>
      </trkpt>
      <trkpt lat="47.44815" lon="6.61594">
        <ele>387.1</ele>
        <time>2017-06-11T09:12:37.999Z</time>
      </trkpt>
      <trkpt lat="47.44811" lon="6.61588">
        <ele>385.5</ele>
        <time>2017-06-11T09:12:38.999Z</time>
      </trkpt>
      <trkpt lat="47.44807" lon="6.61582">
        <ele>384.7</ele>
        <time>2017-06-11T09:12:39.999Z</time>
      </trkpt>
      <trkpt lat="47.44805" lon="6.61573">
        <ele>384.2</ele>
        <time>2017-06-11T09:12:40.999Z</time>
      </trkpt>
      <trkpt lat="47.44802" lon="6.61565">
        <ele>383.3</ele>
        <time>2017-06-11T09:12:41.999Z</time>
      </trkpt>
      <trkpt lat="47.44799" lon="6.61555">
        <ele>382.7</ele>
        <time>2017-06-11T09:12:42.999Z</time>
      </trkpt>
      <trkpt lat="47.448" lon="6.61547">
        <ele>380.7</ele>
        <time>2017-06-11T09:12:43.999Z</time>
      </trkpt>
      <trkpt lat="47.448" lon="6.61541">
        <ele>380.5</ele>
        <time>2017-06-11T09:12:44.999Z</time>
      </trkpt>
      <trkpt lat="47.448" lon="6.61537">
        <ele>380.4</ele>
        <time>2017-06-11T09:12:45.999Z</time>
      </trkpt>
      <trkpt lat="47.44799" lon="6.61533">
        <ele>380.3</ele>
        <time>2017-06-11T09:12:46.999Z</time>
      </trkpt>
      <trkpt lat="47.44797" lon="6.61531">
        <ele>380.1</ele>
        <time>2017-06-11T09:12:47.999Z</time>
      </trkpt>
      <trkpt lat="47.44794" lon="6.61528">
        <ele>379.9</ele>
        <time>2017-06-11T09:12:48.999Z</time>
      </trkpt>
      <trkpt lat="47.44791" lon="6.61524">
        <ele>379.8</ele>
        <time>2017-06-11T09:12:49.999Z</time>
      </trkpt>
      <trkpt lat="47.44787" lon="6.61518">
        <ele>379.8</ele>
        <time>2017-06-11T09:12:50.999Z</time>
      </trkpt>
      <trkpt lat="47.44786" lon="6.61515">
        <ele>379.9</ele>
        <time>2017-06-11T09:12:51.999Z</time>
      </trkpt>
      <trkpt lat="47.44785" lon="6.61511">
        <ele>379.8</ele>
        <time>2017-06-11T09:12:52.999Z</time>
      </trkpt>
      <trkpt lat="47.44784" lon="6.61507">
        <ele>379.7</ele>
        <time>2017-06-11T09:12:53.999Z</time>
      </trkpt>
      <trkpt lat="47.44784" lon="6.61502">
        <ele>379.6</ele>
        <time>2017-06-11T09:12:54.999Z</time>
      </trkpt>
      <trkpt lat="47.44784" lon="6.61499">
        <ele>379.6</ele>
        <time>2017-06-11T09:12:55.999Z</time>
      </trkpt>
      <trkpt lat="47.44784" lon="6.61496">
        <ele>379.6</ele>
        <time>2017-06-11T09:12:56.999Z</time>
      </trkpt>
      <trkpt lat="47.44784" lon="6.61491">
        <ele>379.7</ele>
        <time>2017-06-11T09:12:57.999Z</time>
      </trkpt>
      <trkpt lat="47.44784" lon="6.61487">
        <ele>379.9</ele>
        <time>2017-06-11T09:12:58.999Z</time>
      </trkpt>
      <trkpt lat="47.44785" lon="6.61482">
        <ele>380.1</ele>
        <time>2017-06-11T09:13:00.999Z</time>
      </trkpt>
      <trkpt lat="47.44786" lon="6.61478">
        <ele>380.3</ele>
        <time>2017-06-11T09:13:01.999Z</time>
      </trkpt>
      <trkpt lat="47.44785" lon="6.61473">
        <ele>380.5</ele>
        <time>2017-06-11T09:13:03.999Z</time>
      </trkpt>
      <trkpt lat="47.44785" lon="6.61469">
        <ele>380.7</ele>
        <time>2017-06-11T09:13:04.999Z</time>
      </trkpt>
      <trkpt lat="47.44786" lon="6.61465">
        <ele>380.9</ele>
        <time>2017-06-11T09:13:05.999Z</time>
      </trkpt>
      <trkpt lat="47.44786" lon="6.61462">
        <ele>381.2</ele>
        <time>2017-06-11T09:13:06.999Z</time>
      </trkpt>
      <trkpt lat="47.44786" lon="6.61458">
        <ele>381.4</ele>
        <time>2017-06-11T09:13:07.999Z</time>
      </trkpt>
      <trkpt lat="47.44787" lon="6.61454">
        <ele>381.8</ele>
        <time>2017-06-11T09:13:08.999Z</time>
      </trkpt>
      <trkpt lat="47.44788" lon="6.61449">
        <ele>382</ele>
        <time>2017-06-11T09:13:09.999Z</time>
      </trkpt>
      <trkpt lat="47.44788" lon="6.61446">
        <ele>382.3</ele>
        <time>2017-06-11T09:13:10.999Z</time>
      </trkpt>
      <trkpt lat="47.44789" lon="6.61441">
        <ele>382.9</ele>
        <time>2017-06-11T09:13:12.999Z</time>
      </trkpt>
      <trkpt lat="47.4479" lon="6.61437">
        <ele>383.1</ele>
        <time>2017-06-11T09:13:13.999Z</time>
      </trkpt>
      <trkpt lat="47.44791" lon="6.61435">
        <ele>383.3</ele>
        <time>2017-06-11T09:13:14.999Z</time>
      </trkpt>
      <trkpt lat="47.44793" lon="6.61432">
        <ele>383.6</ele>
        <time>2017-06-11T09:13:15.999Z</time>
      </trkpt>
      <trkpt lat="47.44794" lon="6.6143">
        <ele>383.7</ele>
        <time>2017-06-11T09:13:16.999Z</time>
      </trkpt>
      <trkpt lat="47.44796" lon="6.61426">
        <ele>383.8</ele>
        <time>2017-06-11T09:13:17.999Z</time>
      </trkpt>
      <trkpt lat="47.44797" lon="6.61422">
        <ele>383.9</ele>
        <time>2017-06-11T09:13:18.999Z</time>
      </trkpt>
      <trkpt lat="47.44798" lon="6.61419">
        <ele>384</ele>
        <time>2017-06-11T09:13:19.999Z</time>
      </trkpt>
      <trkpt lat="47.44799" lon="6.61413">
        <ele>384.2</ele>
        <time>2017-06-11T09:13:21.999Z</time>
      </trkpt>
      <trkpt lat="47.44799" lon="6.61411">
        <ele>384.4</ele>
        <time>2017-06-11T09:13:22.999Z</time>
      </trkpt>
      <trkpt lat="47.448" lon="6.61406">
        <ele>384.6</ele>
        <time>2017-06-11T09:13:24.999Z</time>
      </trkpt>
      <trkpt lat="47.44801" lon="6.61403">
        <ele>384.6</ele>
        <time>2017-06-11T09:13:25.999Z</time>
      </trkpt>
      <trkpt lat="47.448" lon="6.61398">
        <ele>384.7</ele>
        <time>2017-06-11T09:13:27.999Z</time>
      </trkpt>
      <trkpt lat="47.448" lon="6.61393">
        <ele>384.8</ele>
        <time>2017-06-11T09:13:28.999Z</time>
      </trkpt>
      <trkpt lat="47.448" lon="6.61389">
        <ele>384.9</ele>
        <time>2017-06-11T09:13:29.999Z</time>
      </trkpt>
      <trkpt lat="47.448" lon="6.61386">
        <ele>384.9</ele>
        <time>2017-06-11T09:13:30.999Z</time>
      </trkpt>
      <trkpt lat="47.44802" lon="6.6138">
        <ele>384.8</ele>
        <time>2017-06-11T09:13:32.999Z</time>
      </trkpt>
      <trkpt lat="47.44803" lon="6.61377">
        <ele>384.9</ele>
        <time>2017-06-11T09:13:33.999Z</time>
      </trkpt>
      <trkpt lat="47.44804" lon="6.61371">
        <ele>385.1</ele>
        <time>2017-06-11T09:13:35.999Z</time>
      </trkpt>
      <trkpt lat="47.44806" lon="6.61368">
        <ele>385.2</ele>
        <time>2017-06-11T09:13:36.999Z</time>
      </trkpt>
      <trkpt lat="47.44808" lon="6.61366">
        <ele>385.3</ele>
        <time>2017-06-11T09:13:37.999Z</time>
      </trkpt>
      <trkpt lat="47.4481" lon="6.61363">
        <ele>385.4</ele>
        <time>2017-06-11T09:13:38.999Z</time>
      </trkpt>
      <trkpt lat="47.44811" lon="6.61361">
        <ele>385.6</ele>
        <time>2017-06-11T09:13:39.999Z</time>
      </trkpt>
      <trkpt lat="47.44813" lon="6.61358">
        <ele>385.6</ele>
        <time>2017-06-11T09:13:40.999Z</time>
      </trkpt>
      <trkpt lat="47.44817" lon="6.61355">
        <ele>385.5</ele>
        <time>2017-06-11T09:13:42.999Z</time>
      </trkpt>
      <trkpt lat="47.44819" lon="6.61354">
        <ele>385.5</ele>
        <time>2017-06-11T09:13:43.999Z</time>
      </trkpt>
      <trkpt lat="47.44821" lon="6.61353">
        <ele>385.5</ele>
        <time>2017-06-11T09:13:44.999Z</time>
      </trkpt>
      <trkpt lat="47.44823" lon="6.61351">
        <ele>385.5</ele>
        <time>2017-06-11T09:13:45.999Z</time>
      </trkpt>
      <trkpt lat="47.44825" lon="6.61349">
        <ele>385.5</ele>
        <time>2017-06-11T09:13:46.999Z</time>
      </trkpt>
      <trkpt lat="47.44827" lon="6.61348">
        <ele>385.4</ele>
        <time>2017-06-11T09:13:47.999Z</time>
      </trkpt>
      <trkpt lat="47.44829" lon="6.61347">
        <ele>385.4</ele>
        <time>2017-06-11T09:13:48.999Z</time>
      </trkpt>
      <trkpt lat="47.44832" lon="6.61345">
        <ele>385.4</ele>
        <time>2017-06-11T09:13:49.999Z</time>
      </trkpt>
      <trkpt lat="47.44835" lon="6.61341">
        <ele>385.3</ele>
        <time>2017-06-11T09:13:51.999Z</time>
      </trkpt>
      <trkpt lat="47.44837" lon="6.6134">
        <ele>385.3</ele>
        <time>2017-06-11T09:13:52.999Z</time>
      </trkpt>
      <trkpt lat="47.4484" lon="6.61337">
        <ele>385.3</ele>
        <time>2017-06-11T09:13:54.999Z</time>
      </trkpt>
      <trkpt lat="47.44841" lon="6.61336">
        <ele>385.3</ele>
        <time>2017-06-11T09:13:55.999Z</time>
      </trkpt>
      <trkpt lat="47.44845" lon="6.61332">
        <ele>385.4</ele>
        <time>2017-06-11T09:13:57.999Z</time>
      </trkpt>
      <trkpt lat="47.44847" lon="6.6133">
        <ele>385.5</ele>
        <time>2017-06-11T09:13:58.999Z</time>
      </trkpt>
      <trkpt lat="47.44848" lon="6.61328">
        <ele>385.6</ele>
        <time>2017-06-11T09:13:59.999Z</time>
      </trkpt>
      <trkpt lat="47.4485" lon="6.61325">
        <ele>385.6</ele>
        <time>2017-06-11T09:14:00.999Z</time>
      </trkpt>
      <trkpt lat="47.44853" lon="6.61322">
        <ele>386</ele>
        <time>2017-06-11T09:14:02.999Z</time>
      </trkpt>
      <trkpt lat="47.44855" lon="6.6132">
        <ele>386.2</ele>
        <time>2017-06-11T09:14:03.999Z</time>
      </trkpt>
      <trkpt lat="47.44856" lon="6.61318">
        <ele>386.5</ele>
        <time>2017-06-11T09:14:04.999Z</time>
      </trkpt>
      <trkpt lat="47.44858" lon="6.61315">
        <ele>386.8</ele>
        <time>2017-06-11T09:14:05.999Z</time>
      </trkpt>
      <trkpt lat="47.4486" lon="6.61313">
        <ele>387</ele>
        <time>2017-06-11T09:14:06.999Z</time>
      </trkpt>
      <trkpt lat="47.44862" lon="6.61311">
        <ele>387.2</ele>
        <time>2017-06-11T09:14:07.999Z</time>
      </trkpt>
      <trkpt lat="47.44864" lon="6.61308">
        <ele>387.4</ele>
        <time>2017-06-11T09:14:08.999Z</time>
      </trkpt>
      <trkpt lat="47.44865" lon="6.61305">
        <ele>387.6</ele>
        <time>2017-06-11T09:14:09.999Z</time>
      </trkpt>
      <trkpt lat="47.44867" lon="6.61302">
        <ele>387.7</ele>
        <time>2017-06-11T09:14:10.999Z</time>
      </trkpt>
      <trkpt lat="47.44869" lon="6.61299">
        <ele>387.8</ele>
        <time>2017-06-11T09:14:11.999Z</time>
      </trkpt>
      <trkpt lat="47.44871" lon="6.61296">
        <ele>388</ele>
        <time>2017-06-11T09:14:12.999Z</time>
      </trkpt>
      <trkpt lat="47.44873" lon="6.61292">
        <ele>388.2</ele>
        <time>2017-06-11T09:14:13.999Z</time>
      </trkpt>
      <trkpt lat="47.44874" lon="6.61289">
        <ele>388.4</ele>
        <time>2017-06-11T09:14:14.999Z</time>
      </trkpt>
      <trkpt lat="47.44876" lon="6.61287">
        <ele>388.5</ele>
        <time>2017-06-11T09:14:15.999Z</time>
      </trkpt>
      <trkpt lat="47.44878" lon="6.61285">
        <ele>388.8</ele>
        <time>2017-06-11T09:14:16.999Z</time>
      </trkpt>
      <trkpt lat="47.4488" lon="6.61282">
        <ele>388.9</ele>
        <time>2017-06-11T09:14:17.999Z</time>
      </trkpt>
      <trkpt lat="47.44882" lon="6.6128">
        <ele>389</ele>
        <time>2017-06-11T09:14:18.999Z</time>
      </trkpt>
      <trkpt lat="47.44883" lon="6.61278">
        <ele>389.1</ele>
        <time>2017-06-11T09:14:19.999Z</time>
      </trkpt>
      <trkpt lat="47.44885" lon="6.61275">
        <ele>389.2</ele>
        <time>2017-06-11T09:14:20.999Z</time>
      </trkpt>
      <trkpt lat="47.44886" lon="6.61272">
        <ele>389.3</ele>
        <time>2017-06-11T09:14:21.999Z</time>
      </trkpt>
      <trkpt lat="47.44888" lon="6.6127">
        <ele>389.3</ele>
        <time>2017-06-11T09:14:22.999Z</time>
      </trkpt>
      <trkpt lat="47.4489" lon="6.61267">
        <ele>389.4</ele>
        <time>2017-06-11T09:14:23.999Z</time>
      </trkpt>
      <trkpt lat="47.44892" lon="6.61265">
        <ele>389.4</ele>
        <time>2017-06-11T09:14:24.999Z</time>
      </trkpt>
      <trkpt lat="47.44894" lon="6.61263">
        <ele>389.5</ele>
        <time>2017-06-11T09:14:25.999Z</time>
      </trkpt>
      <trkpt lat="47.44897" lon="6.6126">
        <ele>389.5</ele>
        <time>2017-06-11T09:14:27.999Z</time>
      </trkpt>
      <trkpt lat="47.44899" lon="6.61258">
        <ele>389.4</ele>
        <time>2017-06-11T09:14:28.999Z</time>
      </trkpt>
      <trkpt lat="47.44901" lon="6.61253">
        <ele>389.5</ele>
        <time>2017-06-11T09:14:30.999Z</time>
      </trkpt>
      <trkpt lat="47.44902" lon="6.61251">
        <ele>389.5</ele>
        <time>2017-06-11T09:14:31.999Z</time>
      </trkpt>
      <trkpt lat="47.44904" lon="6.61247">
        <ele>389.6</ele>
        <time>2017-06-11T09:14:33.999Z</time>
      </trkpt>
      <trkpt lat="47.44905" lon="6.61243">
        <ele>389.7</ele>
        <time>2017-06-11T09:14:34.999Z</time>
      </trkpt>
      <trkpt lat="47.44908" lon="6.61238">
        <ele>389.8</ele>
        <time>2017-06-11T09:14:36.999Z</time>
      </trkpt>
      <trkpt lat="47.4491" lon="6.61235">
        <ele>389.8</ele>
        <time>2017-06-11T09:14:37.999Z</time>
      </trkpt>
      <trkpt lat="47.44911" lon="6.61232">
        <ele>389.8</ele>
        <time>2017-06-11T09:14:38.999Z</time>
      </trkpt>
      <trkpt lat="47.44913" lon="6.61228">
        <ele>389.8</ele>
        <time>2017-06-11T09:14:39.999Z</time>
      </trkpt>
      <trkpt lat="47.44915" lon="6.61225">
        <ele>389.9</ele>
        <time>2017-06-11T09:14:40.999Z</time>
      </trkpt>
      <trkpt lat="47.44917" lon="6.6122">
        <ele>390</ele>
        <time>2017-06-11T09:14:41.999Z</time>
      </trkpt>
      <trkpt lat="47.44918" lon="6.61215">
        <ele>390.1</ele>
        <time>2017-06-11T09:14:42.999Z</time>
      </trkpt>
      <trkpt lat="47.4492" lon="6.61211">
        <ele>390.2</ele>
        <time>2017-06-11T09:14:43.999Z</time>
      </trkpt>
      <trkpt lat="47.44921" lon="6.61207">
        <ele>390.2</ele>
        <time>2017-06-11T09:14:44.999Z</time>
      </trkpt>
      <trkpt lat="47.44923" lon="6.61205">
        <ele>390.2</ele>
        <time>2017-06-11T09:14:45.999Z</time>
      </trkpt>
      <trkpt lat="47.44924" lon="6.61202">
        <ele>390.3</ele>
        <time>2017-06-11T09:14:46.999Z</time>
      </trkpt>
      <trkpt lat="47.44925" lon="6.61199">
        <ele>390.3</ele>
        <time>2017-06-11T09:14:47.999Z</time>
      </trkpt>
      <trkpt lat="47.44928" lon="6.61193">
        <ele>390.4</ele>
        <time>2017-06-11T09:14:48.999Z</time>
      </trkpt>
      <trkpt lat="47.4493" lon="6.61188">
        <ele>390.6</ele>
        <time>2017-06-11T09:14:49.999Z</time>
      </trkpt>
      <trkpt lat="47.44931" lon="6.61184">
        <ele>390.7</ele>
        <time>2017-06-11T09:14:50.999Z</time>
      </trkpt>
      <trkpt lat="47.44932" lon="6.61181">
        <ele>390.8</ele>
        <time>2017-06-11T09:14:51.999Z</time>
      </trkpt>
      <trkpt lat="47.44934" lon="6.61176">
        <ele>390.8</ele>
        <time>2017-06-11T09:14:52.999Z</time>
      </trkpt>
      <trkpt lat="47.44934" lon="6.61172">
        <ele>391</ele>
        <time>2017-06-11T09:14:53.999Z</time>
      </trkpt>
      <trkpt lat="47.44936" lon="6.61169">
        <ele>391.2</ele>
        <time>2017-06-11T09:14:54.999Z</time>
      </trkpt>
      <trkpt lat="47.44937" lon="6.61166">
        <ele>391.4</ele>
        <time>2017-06-11T09:14:55.999Z</time>
      </trkpt>
      <trkpt lat="47.44939" lon="6.61163">
        <ele>391.5</ele>
        <time>2017-06-11T09:14:56.999Z</time>
      </trkpt>
      <trkpt lat="47.4494" lon="6.61161">
        <ele>391.7</ele>
        <time>2017-06-11T09:14:57.999Z</time>
      </trkpt>
      <trkpt lat="47.44942" lon="6.61157">
        <ele>391.8</ele>
        <time>2017-06-11T09:14:58.999Z</time>
      </trkpt>
      <trkpt lat="47.44943" lon="6.61153">
        <ele>391.9</ele>
        <time>2017-06-11T09:14:59.999Z</time>
      </trkpt>
      <trkpt lat="47.44944" lon="6.61148">
        <ele>392</ele>
        <time>2017-06-11T09:15:00.999Z</time>
      </trkpt>
      <trkpt lat="47.44944" lon="6.61145">
        <ele>392.2</ele>
        <time>2017-06-11T09:15:01.999Z</time>
      </trkpt>
      <trkpt lat="47.44944" lon="6.61142">
        <ele>392.3</ele>
        <time>2017-06-11T09:15:02.999Z</time>
      </trkpt>
      <trkpt lat="47.44947" lon="6.61136">
        <ele>392.5</ele>
        <time>2017-06-11T09:15:04.999Z</time>
      </trkpt>
      <trkpt lat="47.44948" lon="6.61134">
        <ele>392.6</ele>
        <time>2017-06-11T09:15:05.999Z</time>
      </trkpt>
      <trkpt lat="47.44951" lon="6.6113">
        <ele>393</ele>
        <time>2017-06-11T09:15:07.999Z</time>
      </trkpt>
      <trkpt lat="47.44951" lon="6.61128">
        <ele>393.2</ele>
        <time>2017-06-11T09:15:08.999Z</time>
      </trkpt>
      <trkpt lat="47.44953" lon="6.61122">
        <ele>393.7</ele>
        <time>2017-06-11T09:15:11.999Z</time>
      </trkpt>
      <trkpt lat="47.44954" lon="6.61121">
        <ele>394</ele>
        <time>2017-06-11T09:15:12.999Z</time>
      </trkpt>
      <trkpt lat="47.44956" lon="6.61116">
        <ele>394.4</ele>
        <time>2017-06-11T09:15:14.999Z</time>
      </trkpt>
      <trkpt lat="47.44957" lon="6.61113">
        <ele>394.5</ele>
        <time>2017-06-11T09:15:15.999Z</time>
      </trkpt>
      <trkpt lat="47.44959" lon="6.61109">
        <ele>394.7</ele>
        <time>2017-06-11T09:15:16.999Z</time>
      </trkpt>
      <trkpt lat="47.4496" lon="6.61106">
        <ele>394.9</ele>
        <time>2017-06-11T09:15:17.999Z</time>
      </trkpt>
      <trkpt lat="47.44963" lon="6.61102">
        <ele>395.2</ele>
        <time>2017-06-11T09:15:19.999Z</time>
      </trkpt>
      <trkpt lat="47.44965" lon="6.61099">
        <ele>395.4</ele>
        <time>2017-06-11T09:15:20.999Z</time>
      </trkpt>
      <trkpt lat="47.44968" lon="6.61096">
        <ele>395.7</ele>
        <time>2017-06-11T09:15:22.999Z</time>
      </trkpt>
      <trkpt lat="47.44968" lon="6.61094">
        <ele>395.9</ele>
        <time>2017-06-11T09:15:23.999Z</time>
      </trkpt>
      <trkpt lat="47.4497" lon="6.61089">
        <ele>396.4</ele>
        <time>2017-06-11T09:15:25.999Z</time>
      </trkpt>
      <trkpt lat="47.44973" lon="6.61086">
        <ele>396.8</ele>
        <time>2017-06-11T09:15:26.999Z</time>
      </trkpt>
      <trkpt lat="47.44975" lon="6.61081">
        <ele>397.1</ele>
        <time>2017-06-11T09:15:27.999Z</time>
      </trkpt>
      <trkpt lat="47.44975" lon="6.61078">
        <ele>397.4</ele>
        <time>2017-06-11T09:15:28.999Z</time>
      </trkpt>
      <trkpt lat="47.44978" lon="6.61077">
        <ele>397.7</ele>
        <time>2017-06-11T09:15:29.999Z</time>
      </trkpt>
      <trkpt lat="47.4498" lon="6.61075">
        <ele>398.1</ele>
        <time>2017-06-11T09:15:30.999Z</time>
      </trkpt>
      <trkpt lat="47.44981" lon="6.6107">
        <ele>398.6</ele>
        <time>2017-06-11T09:15:32.999Z</time>
      </trkpt>
      <trkpt lat="47.44982" lon="6.61068">
        <ele>398.8</ele>
        <time>2017-06-11T09:15:33.999Z</time>
      </trkpt>
      <trkpt lat="47.44984" lon="6.61066">
        <ele>399.1</ele>
        <time>2017-06-11T09:15:34.999Z</time>
      </trkpt>
      <trkpt lat="47.44986" lon="6.61064">
        <ele>399.4</ele>
        <time>2017-06-11T09:15:35.999Z</time>
      </trkpt>
      <trkpt lat="47.44989" lon="6.61059">
        <ele>399.8</ele>
        <time>2017-06-11T09:15:37.999Z</time>
      </trkpt>
      <trkpt lat="47.4499" lon="6.61058">
        <ele>399.9</ele>
        <time>2017-06-11T09:15:38.999Z</time>
      </trkpt>
      <trkpt lat="47.44994" lon="6.61055">
        <ele>400.1</ele>
        <time>2017-06-11T09:15:40.999Z</time>
      </trkpt>
      <trkpt lat="47.44995" lon="6.61053">
        <ele>400.2</ele>
        <time>2017-06-11T09:15:41.999Z</time>
      </trkpt>
      <trkpt lat="47.44997" lon="6.6105">
        <ele>400.5</ele>
        <time>2017-06-11T09:15:43.999Z</time>
      </trkpt>
      <trkpt lat="47.44998" lon="6.61047">
        <ele>400.6</ele>
        <time>2017-06-11T09:15:44.999Z</time>
      </trkpt>
      <trkpt lat="47.45001" lon="6.61043">
        <ele>400.8</ele>
        <time>2017-06-11T09:15:45.999Z</time>
      </trkpt>
      <trkpt lat="47.45003" lon="6.61041">
        <ele>400.9</ele>
        <time>2017-06-11T09:15:46.999Z</time>
      </trkpt>
      <trkpt lat="47.45006" lon="6.61038">
        <ele>401.3</ele>
        <time>2017-06-11T09:15:48.999Z</time>
      </trkpt>
      <trkpt lat="47.4501" lon="6.61035">
        <ele>401.4</ele>
        <time>2017-06-11T09:15:49.999Z</time>
      </trkpt>
      <trkpt lat="47.45012" lon="6.61034">
        <ele>401.4</ele>
        <time>2017-06-11T09:15:50.999Z</time>
      </trkpt>
      <trkpt lat="47.45014" lon="6.61033">
        <ele>401.3</ele>
        <time>2017-06-11T09:15:51.999Z</time>
      </trkpt>
      <trkpt lat="47.45018" lon="6.6103">
        <ele>401.3</ele>
        <time>2017-06-11T09:15:53.999Z</time>
      </trkpt>
      <trkpt lat="47.4502" lon="6.61029">
        <ele>401.2</ele>
        <time>2017-06-11T09:15:54.999Z</time>
      </trkpt>
      <trkpt lat="47.45023" lon="6.61026">
        <ele>401</ele>
        <time>2017-06-11T09:15:56.999Z</time>
      </trkpt>
      <trkpt lat="47.45025" lon="6.61025">
        <ele>400.9</ele>
        <time>2017-06-11T09:15:57.999Z</time>
      </trkpt>
      <trkpt lat="47.45028" lon="6.61023">
        <ele>400.6</ele>
        <time>2017-06-11T09:15:59.999Z</time>
      </trkpt>
      <trkpt lat="47.4503" lon="6.61023">
        <ele>400.5</ele>
        <time>2017-06-11T09:16:00.999Z</time>
      </trkpt>
      <trkpt lat="47.45032" lon="6.61022">
        <ele>400.3</ele>
        <time>2017-06-11T09:16:01.999Z</time>
      </trkpt>
      <trkpt lat="47.45037" lon="6.6102">
        <ele>400.2</ele>
        <time>2017-06-11T09:16:02.999Z</time>
      </trkpt>
      <trkpt lat="47.4504" lon="6.61017">
        <ele>400.1</ele>
        <time>2017-06-11T09:16:04.999Z</time>
      </trkpt>
      <trkpt lat="47.45043" lon="6.61013">
        <ele>399.9</ele>
        <time>2017-06-11T09:16:05.999Z</time>
      </trkpt>
      <trkpt lat="47.45045" lon="6.6101">
        <ele>399.9</ele>
        <time>2017-06-11T09:16:06.999Z</time>
      </trkpt>
      <trkpt lat="47.45045" lon="6.61007">
        <ele>399.8</ele>
        <time>2017-06-11T09:16:07.999Z</time>
      </trkpt>
      <trkpt lat="47.45046" lon="6.61005">
        <ele>399.7</ele>
        <time>2017-06-11T09:16:08.999Z</time>
      </trkpt>
      <trkpt lat="47.45047" lon="6.60999">
        <ele>399.6</ele>
        <time>2017-06-11T09:16:09.999Z</time>
      </trkpt>
      <trkpt lat="47.45048" lon="6.60996">
        <ele>399.7</ele>
        <time>2017-06-11T09:16:10.999Z</time>
      </trkpt>
      <trkpt lat="47.45048" lon="6.60989">
        <ele>399.8</ele>
        <time>2017-06-11T09:16:11.999Z</time>
      </trkpt>
      <trkpt lat="47.45048" lon="6.60986">
        <ele>399.8</ele>
        <time>2017-06-11T09:16:12.999Z</time>
      </trkpt>
      <trkpt lat="47.45049" lon="6.60982">
        <ele>399.8</ele>
        <time>2017-06-11T09:16:13.999Z</time>
      </trkpt>
      <trkpt lat="47.4505" lon="6.60975">
        <ele>399.8</ele>
        <time>2017-06-11T09:16:14.999Z</time>
      </trkpt>
      <trkpt lat="47.4505" lon="6.60971">
        <ele>399.8</ele>
        <time>2017-06-11T09:16:15.999Z</time>
      </trkpt>
      <trkpt lat="47.45051" lon="6.60967">
        <ele>399.9</ele>
        <time>2017-06-11T09:16:16.999Z</time>
      </trkpt>
      <trkpt lat="47.45054" lon="6.60961">
        <ele>399.9</ele>
        <time>2017-06-11T09:16:17.999Z</time>
      </trkpt>
      <trkpt lat="47.45057" lon="6.60958">
        <ele>400</ele>
        <time>2017-06-11T09:16:18.999Z</time>
      </trkpt>
      <trkpt lat="47.45063" lon="6.60954">
        <ele>400.1</ele>
        <time>2017-06-11T09:16:19.999Z</time>
      </trkpt>
      <trkpt lat="47.45065" lon="6.60949">
        <ele>400.3</ele>
        <time>2017-06-11T09:16:21.999Z</time>
      </trkpt>
      <trkpt lat="47.45068" lon="6.60948">
        <ele>400.4</ele>
        <time>2017-06-11T09:16:22.999Z</time>
      </trkpt>
      <trkpt lat="47.45071" lon="6.60945">
        <ele>400.5</ele>
        <time>2017-06-11T09:16:23.999Z</time>
      </trkpt>
      <trkpt lat="47.45075" lon="6.60942">
        <ele>400.6</ele>
        <time>2017-06-11T09:16:24.999Z</time>
      </trkpt>
      <trkpt lat="47.45077" lon="6.60938">
        <ele>400.8</ele>
        <time>2017-06-11T09:16:25.999Z</time>
      </trkpt>
      <trkpt lat="47.45079" lon="6.60934">
        <ele>400.9</ele>
        <time>2017-06-11T09:16:26.999Z</time>
      </trkpt>
      <trkpt lat="47.45082" lon="6.60929">
        <ele>401</ele>
        <time>2017-06-11T09:16:27.999Z</time>
      </trkpt>
      <trkpt lat="47.45085" lon="6.60926">
        <ele>401.1</ele>
        <time>2017-06-11T09:16:28.999Z</time>
      </trkpt>
      <trkpt lat="47.45087" lon="6.60924">
        <ele>401.2</ele>
        <time>2017-06-11T09:16:29.999Z</time>
      </trkpt>
      <trkpt lat="47.45089" lon="6.60921">
        <ele>401.2</ele>
        <time>2017-06-11T09:16:30.999Z</time>
      </trkpt>
      <trkpt lat="47.45091" lon="6.60918">
        <ele>401.2</ele>
        <time>2017-06-11T09:16:31.999Z</time>
      </trkpt>
      <trkpt lat="47.45094" lon="6.60915">
        <ele>401.3</ele>
        <time>2017-06-11T09:16:32.999Z</time>
      </trkpt>
      <trkpt lat="47.45096" lon="6.60912">
        <ele>401.3</ele>
        <time>2017-06-11T09:16:33.999Z</time>
      </trkpt>
      <trkpt lat="47.451" lon="6.60907">
        <ele>401.3</ele>
        <time>2017-06-11T09:16:34.999Z</time>
      </trkpt>
      <trkpt lat="47.45103" lon="6.60903">
        <ele>401.3</ele>
        <time>2017-06-11T09:16:35.999Z</time>
      </trkpt>
      <trkpt lat="47.45105" lon="6.609">
        <ele>401.1</ele>
        <time>2017-06-11T09:16:37.999Z</time>
      </trkpt>
      <trkpt lat="47.45109" lon="6.60895">
        <ele>401</ele>
        <time>2017-06-11T09:16:38.999Z</time>
      </trkpt>
      <trkpt lat="47.45111" lon="6.60893">
        <ele>400.9</ele>
        <time>2017-06-11T09:16:39.999Z</time>
      </trkpt>
      <trkpt lat="47.45114" lon="6.60891">
        <ele>400.8</ele>
        <time>2017-06-11T09:16:40.999Z</time>
      </trkpt>
      <trkpt lat="47.45116" lon="6.60889">
        <ele>400.8</ele>
        <time>2017-06-11T09:16:41.999Z</time>
      </trkpt>
      <trkpt lat="47.45119" lon="6.60887">
        <ele>400.8</ele>
        <time>2017-06-11T09:16:42.999Z</time>
      </trkpt>
      <trkpt lat="47.45122" lon="6.60882">
        <ele>400.7</ele>
        <time>2017-06-11T09:16:43.999Z</time>
      </trkpt>
      <trkpt lat="47.45126" lon="6.60876">
        <ele>400.7</ele>
        <time>2017-06-11T09:16:44.999Z</time>
      </trkpt>
      <trkpt lat="47.45129" lon="6.60873">
        <ele>400.6</ele>
        <time>2017-06-11T09:16:45.999Z</time>
      </trkpt>
      <trkpt lat="47.45133" lon="6.60871">
        <ele>400.2</ele>
        <time>2017-06-11T09:16:46.999Z</time>
      </trkpt>
      <trkpt lat="47.45136" lon="6.60868">
        <ele>400.2</ele>
        <time>2017-06-11T09:16:47.999Z</time>
      </trkpt>
      <trkpt lat="47.4514" lon="6.60863">
        <ele>400.2</ele>
        <time>2017-06-11T09:16:48.999Z</time>
      </trkpt>
      <trkpt lat="47.45143" lon="6.6086">
        <ele>400.3</ele>
        <time>2017-06-11T09:16:49.999Z</time>
      </trkpt>
      <trkpt lat="47.45148" lon="6.60857">
        <ele>400.4</ele>
        <time>2017-06-11T09:16:50.999Z</time>
      </trkpt>
      <trkpt lat="47.45152" lon="6.60855">
        <ele>400.5</ele>
        <time>2017-06-11T09:16:51.999Z</time>
      </trkpt>
      <trkpt lat="47.45154" lon="6.60851">
        <ele>400.6</ele>
        <time>2017-06-11T09:16:52.999Z</time>
      </trkpt>
      <trkpt lat="47.45157" lon="6.6085">
        <ele>400.7</ele>
        <time>2017-06-11T09:16:53.999Z</time>
      </trkpt>
      <trkpt lat="47.45161" lon="6.6085">
        <ele>400.8</ele>
        <time>2017-06-11T09:16:54.999Z</time>
      </trkpt>
      <trkpt lat="47.45164" lon="6.6085">
        <ele>400.9</ele>
        <time>2017-06-11T09:16:55.999Z</time>
      </trkpt>
      <trkpt lat="47.45167" lon="6.60846">
        <ele>401.1</ele>
        <time>2017-06-11T09:16:56.999Z</time>
      </trkpt>
      <trkpt lat="47.45171" lon="6.60841">
        <ele>401.3</ele>
        <time>2017-06-11T09:16:57.999Z</time>
      </trkpt>
      <trkpt lat="47.45177" lon="6.60837">
        <ele>401.4</ele>
        <time>2017-06-11T09:16:58.999Z</time>
      </trkpt>
      <trkpt lat="47.45183" lon="6.60833">
        <ele>401.6</ele>
        <time>2017-06-11T09:16:59.999Z</time>
      </trkpt>
      <trkpt lat="47.45187" lon="6.6083">
        <ele>401.8</ele>
        <time>2017-06-11T09:17:00.999Z</time>
      </trkpt>
      <trkpt lat="47.45192" lon="6.60827">
        <ele>401.9</ele>
        <time>2017-06-11T09:17:01.999Z</time>
      </trkpt>
      <trkpt lat="47.45194" lon="6.60826">
        <ele>401.9</ele>
        <time>2017-06-11T09:17:02.999Z</time>
      </trkpt>
      <trkpt lat="47.45196" lon="6.60824">
        <ele>401.9</ele>
        <time>2017-06-11T09:17:03.999Z</time>
      </trkpt>
      <trkpt lat="47.45198" lon="6.6082">
        <ele>401.9</ele>
        <time>2017-06-11T09:17:04.999Z</time>
      </trkpt>
      <trkpt lat="47.45201" lon="6.60817">
        <ele>401.9</ele>
        <time>2017-06-11T09:17:05.999Z</time>
      </trkpt>
      <trkpt lat="47.45204" lon="6.60814">
        <ele>401.8</ele>
        <time>2017-06-11T09:17:06.999Z</time>
      </trkpt>
      <trkpt lat="47.45208" lon="6.6081">
        <ele>401.8</ele>
        <time>2017-06-11T09:17:07.999Z</time>
      </trkpt>
      <trkpt lat="47.45212" lon="6.60805">
        <ele>401.7</ele>
        <time>2017-06-11T09:17:08.999Z</time>
      </trkpt>
      <trkpt lat="47.45215" lon="6.60798">
        <ele>400.9</ele>
        <time>2017-06-11T09:17:09.999Z</time>
      </trkpt>
      <trkpt lat="47.45217" lon="6.60795">
        <ele>400.8</ele>
        <time>2017-06-11T09:17:10.999Z</time>
      </trkpt>
      <trkpt lat="47.45221" lon="6.60792">
        <ele>400.7</ele>
        <time>2017-06-11T09:17:11.999Z</time>
      </trkpt>
      <trkpt lat="47.45224" lon="6.6079">
        <ele>400.7</ele>
        <time>2017-06-11T09:17:12.999Z</time>
      </trkpt>
      <trkpt lat="47.45227" lon="6.60788">
        <ele>400.6</ele>
        <time>2017-06-11T09:17:13.999Z</time>
      </trkpt>
      <trkpt lat="47.4523" lon="6.60786">
        <ele>400.6</ele>
        <time>2017-06-11T09:17:14.999Z</time>
      </trkpt>
      <trkpt lat="47.45232" lon="6.60784">
        <ele>400.5</ele>
        <time>2017-06-11T09:17:15.999Z</time>
      </trkpt>
      <trkpt lat="47.45234" lon="6.60782">
        <ele>400.5</ele>
        <time>2017-06-11T09:17:16.999Z</time>
      </trkpt>
      <trkpt lat="47.45236" lon="6.60779">
        <ele>400.4</ele>
        <time>2017-06-11T09:17:17.999Z</time>
      </trkpt>
      <trkpt lat="47.45238" lon="6.60776">
        <ele>400.3</ele>
        <time>2017-06-11T09:17:18.999Z</time>
      </trkpt>
      <trkpt lat="47.4524" lon="6.60773">
        <ele>400.2</ele>
        <time>2017-06-11T09:17:19.999Z</time>
      </trkpt>
      <trkpt lat="47.45244" lon="6.60772">
        <ele>400</ele>
        <time>2017-06-11T09:17:20.999Z</time>
      </trkpt>
      <trkpt lat="47.45246" lon="6.6077">
        <ele>399.9</ele>
        <time>2017-06-11T09:17:21.999Z</time>
      </trkpt>
      <trkpt lat="47.45247" lon="6.60768">
        <ele>399.7</ele>
        <time>2017-06-11T09:17:22.999Z</time>
      </trkpt>
      <trkpt lat="47.4525" lon="6.60766">
        <ele>399.6</ele>
        <time>2017-06-11T09:17:23.999Z</time>
      </trkpt>
      <trkpt lat="47.45254" lon="6.60764">
        <ele>399.4</ele>
        <time>2017-06-11T09:17:24.999Z</time>
      </trkpt>
      <trkpt lat="47.45257" lon="6.60762">
        <ele>399.2</ele>
        <time>2017-06-11T09:17:25.999Z</time>
      </trkpt>
      <trkpt lat="47.45261" lon="6.60761">
        <ele>399</ele>
        <time>2017-06-11T09:17:26.999Z</time>
      </trkpt>
      <trkpt lat="47.45266" lon="6.60759">
        <ele>398.9</ele>
        <time>2017-06-11T09:17:27.999Z</time>
      </trkpt>
      <trkpt lat="47.45268" lon="6.60756">
        <ele>398.8</ele>
        <time>2017-06-11T09:17:28.999Z</time>
      </trkpt>
      <trkpt lat="47.45272" lon="6.60753">
        <ele>398.6</ele>
        <time>2017-06-11T09:17:29.999Z</time>
      </trkpt>
      <trkpt lat="47.45277" lon="6.60751">
        <ele>397.5</ele>
        <time>2017-06-11T09:17:30.999Z</time>
      </trkpt>
      <trkpt lat="47.45282" lon="6.6075">
        <ele>396.5</ele>
        <time>2017-06-11T09:17:31.999Z</time>
      </trkpt>
      <trkpt lat="47.45288" lon="6.60748">
        <ele>395.3</ele>
        <time>2017-06-11T09:17:32.999Z</time>
      </trkpt>
      <trkpt lat="47.45292" lon="6.60745">
        <ele>393.5</ele>
        <time>2017-06-11T09:17:33.999Z</time>
      </trkpt>
      <trkpt lat="47.45296" lon="6.60741">
        <ele>392.2</ele>
        <time>2017-06-11T09:17:34.999Z</time>
      </trkpt>
      <trkpt lat="47.45301" lon="6.60738">
        <ele>391.8</ele>
        <time>2017-06-11T09:17:35.999Z</time>
      </trkpt>
      <trkpt lat="47.45304" lon="6.60734">
        <ele>391.8</ele>
        <time>2017-06-11T09:17:36.999Z</time>
      </trkpt>
      <trkpt lat="47.45307" lon="6.60729">
        <ele>391.9</ele>
        <time>2017-06-11T09:17:37.999Z</time>
      </trkpt>
      <trkpt lat="47.45311" lon="6.60724">
        <ele>391.2</ele>
        <time>2017-06-11T09:17:38.999Z</time>
      </trkpt>
      <trkpt lat="47.45314" lon="6.60721">
        <ele>391</ele>
        <time>2017-06-11T09:17:39.999Z</time>
      </trkpt>
      <trkpt lat="47.4532" lon="6.60713">
        <ele>388.8</ele>
        <time>2017-06-11T09:17:40.999Z</time>
      </trkpt>
      <trkpt lat="47.45325" lon="6.60707">
        <ele>387.3</ele>
        <time>2017-06-11T09:17:41.999Z</time>
      </trkpt>
      <trkpt lat="47.45331" lon="6.60703">
        <ele>387.1</ele>
        <time>2017-06-11T09:17:42.999Z</time>
      </trkpt>
      <trkpt lat="47.45333" lon="6.60701">
        <ele>387</ele>
        <time>2017-06-11T09:17:43.999Z</time>
      </trkpt>
      <trkpt lat="47.45335" lon="6.60698">
        <ele>386.9</ele>
        <time>2017-06-11T09:17:44.999Z</time>
      </trkpt>
      <trkpt lat="47.45338" lon="6.60696">
        <ele>386.8</ele>
        <time>2017-06-11T09:17:45.999Z</time>
      </trkpt>
      <trkpt lat="47.4534" lon="6.60694">
        <ele>386.6</ele>
        <time>2017-06-11T09:17:46.999Z</time>
      </trkpt>
      <trkpt lat="47.45342" lon="6.60691">
        <ele>386.4</ele>
        <time>2017-06-11T09:17:47.999Z</time>
      </trkpt>
      <trkpt lat="47.45345" lon="6.6069">
        <ele>386.3</ele>
        <time>2017-06-11T09:17:48.999Z</time>
      </trkpt>
      <trkpt lat="47.45347" lon="6.60688">
        <ele>386.4</ele>
        <time>2017-06-11T09:17:49.999Z</time>
      </trkpt>
      <trkpt lat="47.4535" lon="6.60687">
        <ele>386.5</ele>
        <time>2017-06-11T09:17:50.999Z</time>
      </trkpt>
      <trkpt lat="47.45353" lon="6.60685">
        <ele>386.5</ele>
        <time>2017-06-11T09:17:51.999Z</time>
      </trkpt>
      <trkpt lat="47.45355" lon="6.60683">
        <ele>386.6</ele>
        <time>2017-06-11T09:17:52.999Z</time>
      </trkpt>
      <trkpt lat="47.45358" lon="6.6068">
        <ele>386.6</ele>
        <time>2017-06-11T09:17:53.999Z</time>
      </trkpt>
      <trkpt lat="47.4536" lon="6.60677">
        <ele>386.7</ele>
        <time>2017-06-11T09:17:54.999Z</time>
      </trkpt>
      <trkpt lat="47.45363" lon="6.60675">
        <ele>386.8</ele>
        <time>2017-06-11T09:17:55.999Z</time>
      </trkpt>
      <trkpt lat="47.45365" lon="6.60672">
        <ele>386.9</ele>
        <time>2017-06-11T09:17:56.999Z</time>
      </trkpt>
      <trkpt lat="47.45368" lon="6.60669">
        <ele>387</ele>
        <time>2017-06-11T09:17:57.999Z</time>
      </trkpt>
      <trkpt lat="47.45371" lon="6.60667">
        <ele>387.1</ele>
        <time>2017-06-11T09:17:58.999Z</time>
      </trkpt>
      <trkpt lat="47.45374" lon="6.60665">
        <ele>387.3</ele>
        <time>2017-06-11T09:17:59.999Z</time>
      </trkpt>
      <trkpt lat="47.45377" lon="6.60662">
        <ele>387.4</ele>
        <time>2017-06-11T09:18:00.999Z</time>
      </trkpt>
      <trkpt lat="47.4538" lon="6.60659">
        <ele>387.7</ele>
        <time>2017-06-11T09:18:01.999Z</time>
      </trkpt>
      <trkpt lat="47.45384" lon="6.60657">
        <ele>389.9</ele>
        <time>2017-06-11T09:18:02.999Z</time>
      </trkpt>
      <trkpt lat="47.45388" lon="6.60655">
        <ele>390.9</ele>
        <time>2017-06-11T09:18:03.999Z</time>
      </trkpt>
      <trkpt lat="47.45392" lon="6.60653">
        <ele>392</ele>
        <time>2017-06-11T09:18:04.999Z</time>
      </trkpt>
      <trkpt lat="47.45396" lon="6.6065">
        <ele>393</ele>
        <time>2017-06-11T09:18:05.999Z</time>
      </trkpt>
      <trkpt lat="47.454" lon="6.60646">
        <ele>393.6</ele>
        <time>2017-06-11T09:18:06.999Z</time>
      </trkpt>
      <trkpt lat="47.45404" lon="6.60642">
        <ele>393.7</ele>
        <time>2017-06-11T09:18:07.999Z</time>
      </trkpt>
      <trkpt lat="47.45409" lon="6.60635">
        <ele>394</ele>
        <time>2017-06-11T09:18:08.999Z</time>
      </trkpt>
      <trkpt lat="47.45413" lon="6.60629">
        <ele>394.1</ele>
        <time>2017-06-11T09:18:09.999Z</time>
      </trkpt>
      <trkpt lat="47.45419" lon="6.60626">
        <ele>394.5</ele>
        <time>2017-06-11T09:18:10.999Z</time>
      </trkpt>
      <trkpt lat="47.45423" lon="6.6062">
        <ele>394.9</ele>
        <time>2017-06-11T09:18:11.999Z</time>
      </trkpt>
      <trkpt lat="47.45425" lon="6.60612">
        <ele>395.7</ele>
        <time>2017-06-11T09:18:12.999Z</time>
      </trkpt>
      <trkpt lat="47.45428" lon="6.60605">
        <ele>395.7</ele>
        <time>2017-06-11T09:18:13.999Z</time>
      </trkpt>
      <trkpt lat="47.4543" lon="6.60599">
        <ele>395.5</ele>
        <time>2017-06-11T09:18:14.999Z</time>
      </trkpt>
      <trkpt lat="47.45432" lon="6.60592">
        <ele>395.1</ele>
        <time>2017-06-11T09:18:15.999Z</time>
      </trkpt>
      <trkpt lat="47.45434" lon="6.60584">
        <ele>394</ele>
        <time>2017-06-11T09:18:16.999Z</time>
      </trkpt>
      <trkpt lat="47.45436" lon="6.60577">
        <ele>393.1</ele>
        <time>2017-06-11T09:18:17.999Z</time>
      </trkpt>
      <trkpt lat="47.4544" lon="6.60571">
        <ele>392.5</ele>
        <time>2017-06-11T09:18:18.999Z</time>
      </trkpt>
      <trkpt lat="47.45443" lon="6.60565">
        <ele>391.8</ele>
        <time>2017-06-11T09:18:19.999Z</time>
      </trkpt>
      <trkpt lat="47.45446" lon="6.6056">
        <ele>390.3</ele>
        <time>2017-06-11T09:18:20.999Z</time>
      </trkpt>
      <trkpt lat="47.45449" lon="6.60555">
        <ele>388.7</ele>
        <time>2017-06-11T09:18:21.999Z</time>
      </trkpt>
      <trkpt lat="47.45453" lon="6.60549">
        <ele>387.3</ele>
        <time>2017-06-11T09:18:22.999Z</time>
      </trkpt>
      <trkpt lat="47.45457" lon="6.60544">
        <ele>386.4</ele>
        <time>2017-06-11T09:18:23.999Z</time>
      </trkpt>
      <trkpt lat="47.4546" lon="6.6054">
        <ele>385.2</ele>
        <time>2017-06-11T09:18:24.999Z</time>
      </trkpt>
      <trkpt lat="47.45462" lon="6.60535">
        <ele>385.1</ele>
        <time>2017-06-11T09:18:25.999Z</time>
      </trkpt>
      <trkpt lat="47.45465" lon="6.60531">
        <ele>385</ele>
        <time>2017-06-11T09:18:26.999Z</time>
      </trkpt>
      <trkpt lat="47.45466" lon="6.60528">
        <ele>385.1</ele>
        <time>2017-06-11T09:18:27.999Z</time>
      </trkpt>
      <trkpt lat="47.45468" lon="6.60524">
        <ele>384.9</ele>
        <time>2017-06-11T09:18:29.999Z</time>
      </trkpt>
      <trkpt lat="47.45467" lon="6.60522">
        <ele>384.8</ele>
        <time>2017-06-11T09:18:30.999Z</time>
      </trkpt>
      <trkpt lat="47.45466" lon="6.60519">
        <ele>384.7</ele>
        <time>2017-06-11T09:18:31.999Z</time>
      </trkpt>
      <trkpt lat="47.45463" lon="6.60517">
        <ele>384.7</ele>
        <time>2017-06-11T09:18:32.999Z</time>
      </trkpt>
      <trkpt lat="47.45461" lon="6.60513">
        <ele>384.6</ele>
        <time>2017-06-11T09:18:33.999Z</time>
      </trkpt>
      <trkpt lat="47.45459" lon="6.60509">
        <ele>384.5</ele>
        <time>2017-06-11T09:18:34.999Z</time>
      </trkpt>
      <trkpt lat="47.45457" lon="6.60505">
        <ele>384.4</ele>
        <time>2017-06-11T09:18:35.999Z</time>
      </trkpt>
      <trkpt lat="47.45455" lon="6.60499">
        <ele>382.8</ele>
        <time>2017-06-11T09:18:36.999Z</time>
      </trkpt>
      <trkpt lat="47.45453" lon="6.60496">
        <ele>382.7</ele>
        <time>2017-06-11T09:18:37.999Z</time>
      </trkpt>
      <trkpt lat="47.45454" lon="6.60492">
        <ele>382.5</ele>
        <time>2017-06-11T09:18:38.999Z</time>
      </trkpt>
      <trkpt lat="47.45455" lon="6.60489">
        <ele>382.2</ele>
        <time>2017-06-11T09:18:39.999Z</time>
      </trkpt>
      <trkpt lat="47.45457" lon="6.60485">
        <ele>381.9</ele>
        <time>2017-06-11T09:18:40.999Z</time>
      </trkpt>
      <trkpt lat="47.45459" lon="6.60481">
        <ele>381.5</ele>
        <time>2017-06-11T09:18:41.999Z</time>
      </trkpt>
      <trkpt lat="47.45461" lon="6.60479">
        <ele>381.3</ele>
        <time>2017-06-11T09:18:42.999Z</time>
      </trkpt>
      <trkpt lat="47.45463" lon="6.60477">
        <ele>381.1</ele>
        <time>2017-06-11T09:18:43.999Z</time>
      </trkpt>
      <trkpt lat="47.45465" lon="6.60474">
        <ele>379.4</ele>
        <time>2017-06-11T09:18:44.999Z</time>
      </trkpt>
      <trkpt lat="47.45467" lon="6.60472">
        <ele>379.3</ele>
        <time>2017-06-11T09:18:45.999Z</time>
      </trkpt>
      <trkpt lat="47.4547" lon="6.60468">
        <ele>379.1</ele>
        <time>2017-06-11T09:18:46.999Z</time>
      </trkpt>
      <trkpt lat="47.45474" lon="6.60464">
        <ele>377.9</ele>
        <time>2017-06-11T09:18:47.999Z</time>
      </trkpt>
      <trkpt lat="47.45479" lon="6.60461">
        <ele>376.3</ele>
        <time>2017-06-11T09:18:48.999Z</time>
      </trkpt>
      <trkpt lat="47.45482" lon="6.60461">
        <ele>376.1</ele>
        <time>2017-06-11T09:18:49.999Z</time>
      </trkpt>
      <trkpt lat="47.45485" lon="6.60459">
        <ele>375.8</ele>
        <time>2017-06-11T09:18:50.999Z</time>
      </trkpt>
      <trkpt lat="47.45487" lon="6.6045">
        <ele>375.4</ele>
        <time>2017-06-11T09:18:51.999Z</time>
      </trkpt>
      <trkpt lat="47.45489" lon="6.60441">
        <ele>375.1</ele>
        <time>2017-06-11T09:18:52.999Z</time>
      </trkpt>
      <trkpt lat="47.4549" lon="6.6043">
        <ele>371.8</ele>
        <time>2017-06-11T09:18:53.999Z</time>
      </trkpt>
      <trkpt lat="47.45491" lon="6.60422">
        <ele>371.5</ele>
        <time>2017-06-11T09:18:54.999Z</time>
      </trkpt>
      <trkpt lat="47.45492" lon="6.60418">
        <ele>371.2</ele>
        <time>2017-06-11T09:18:55.999Z</time>
      </trkpt>
      <trkpt lat="47.45495" lon="6.60408">
        <ele>371</ele>
        <time>2017-06-11T09:18:56.999Z</time>
      </trkpt>
      <trkpt lat="47.45498" lon="6.60399">
        <ele>370.8</ele>
        <time>2017-06-11T09:18:57.999Z</time>
      </trkpt>
      <trkpt lat="47.45502" lon="6.60391">
        <ele>370.6</ele>
        <time>2017-06-11T09:18:58.999Z</time>
      </trkpt>
      <trkpt lat="47.45506" lon="6.60385">
        <ele>370.5</ele>
        <time>2017-06-11T09:18:59.999Z</time>
      </trkpt>
      <trkpt lat="47.4551" lon="6.60383">
        <ele>370.1</ele>
        <time>2017-06-11T09:19:01.999Z</time>
      </trkpt>
      <trkpt lat="47.45512" lon="6.60384">
        <ele>370</ele>
        <time>2017-06-11T09:19:02.999Z</time>
      </trkpt>
      <trkpt lat="47.45514" lon="6.60382">
        <ele>369.8</ele>
        <time>2017-06-11T09:19:04.999Z</time>
      </trkpt>
      <trkpt lat="47.45518" lon="6.60381">
        <ele>369.7</ele>
        <time>2017-06-11T09:19:05.999Z</time>
      </trkpt>
      <trkpt lat="47.45519" lon="6.6038">
        <ele>369.6</ele>
        <time>2017-06-11T09:19:06.999Z</time>
      </trkpt>
      <trkpt lat="47.45521" lon="6.60374">
        <ele>369.5</ele>
        <time>2017-06-11T09:19:07.999Z</time>
      </trkpt>
      <trkpt lat="47.45522" lon="6.60366">
        <ele>369.4</ele>
        <time>2017-06-11T09:19:08.999Z</time>
      </trkpt>
      <trkpt lat="47.45523" lon="6.60362">
        <ele>369.6</ele>
        <time>2017-06-11T09:19:10.999Z</time>
      </trkpt>
      <trkpt lat="47.45526" lon="6.60358">
        <ele>369.7</ele>
        <time>2017-06-11T09:19:11.999Z</time>
      </trkpt>
      <trkpt lat="47.45529" lon="6.60353">
        <ele>369.7</ele>
        <time>2017-06-11T09:19:12.999Z</time>
      </trkpt>
      <trkpt lat="47.45534" lon="6.60345">
        <ele>369.8</ele>
        <time>2017-06-11T09:19:13.999Z</time>
      </trkpt>
      <trkpt lat="47.45536" lon="6.60337">
        <ele>369.9</ele>
        <time>2017-06-11T09:19:14.999Z</time>
      </trkpt>
      <trkpt lat="47.45536" lon="6.60333">
        <ele>370</ele>
        <time>2017-06-11T09:19:15.999Z</time>
      </trkpt>
      <trkpt lat="47.45536" lon="6.60328">
        <ele>370.1</ele>
        <time>2017-06-11T09:19:16.999Z</time>
      </trkpt>
      <trkpt lat="47.45539" lon="6.6032">
        <ele>370.2</ele>
        <time>2017-06-11T09:19:17.999Z</time>
      </trkpt>
      <trkpt lat="47.45541" lon="6.60316">
        <ele>370.4</ele>
        <time>2017-06-11T09:19:18.999Z</time>
      </trkpt>
      <trkpt lat="47.45545" lon="6.60314">
        <ele>372.3</ele>
        <time>2017-06-11T09:19:19.999Z</time>
      </trkpt>
      <trkpt lat="47.45547" lon="6.60315">
        <ele>372.4</ele>
        <time>2017-06-11T09:19:20.999Z</time>
      </trkpt>
      <trkpt lat="47.45549" lon="6.60315">
        <ele>372.6</ele>
        <time>2017-06-11T09:19:21.999Z</time>
      </trkpt>
      <trkpt lat="47.45553" lon="6.60314">
        <ele>372.9</ele>
        <time>2017-06-11T09:19:23.999Z</time>
      </trkpt>
      <trkpt lat="47.45555" lon="6.60314">
        <ele>373</ele>
        <time>2017-06-11T09:19:24.999Z</time>
      </trkpt>
      <trkpt lat="47.45559" lon="6.60313">
        <ele>373.2</ele>
        <time>2017-06-11T09:19:26.999Z</time>
      </trkpt>
      <trkpt lat="47.45563" lon="6.60311">
        <ele>373.3</ele>
        <time>2017-06-11T09:19:27.999Z</time>
      </trkpt>
      <trkpt lat="47.45564" lon="6.60308">
        <ele>373.3</ele>
        <time>2017-06-11T09:19:28.999Z</time>
      </trkpt>
      <trkpt lat="47.45564" lon="6.60301">
        <ele>373.9</ele>
        <time>2017-06-11T09:19:29.999Z</time>
      </trkpt>
      <trkpt lat="47.45565" lon="6.60291">
        <ele>374.5</ele>
        <time>2017-06-11T09:19:30.999Z</time>
      </trkpt>
      <trkpt lat="47.45567" lon="6.60277">
        <ele>374.2</ele>
        <time>2017-06-11T09:19:31.999Z</time>
      </trkpt>
      <trkpt lat="47.45572" lon="6.60265">
        <ele>375.4</ele>
        <time>2017-06-11T09:19:32.999Z</time>
      </trkpt>
      <trkpt lat="47.45575" lon="6.60258">
        <ele>376.3</ele>
        <time>2017-06-11T09:19:33.999Z</time>
      </trkpt>
      <trkpt lat="47.4558" lon="6.60252">
        <ele>377</ele>
        <time>2017-06-11T09:19:34.999Z</time>
      </trkpt>
      <trkpt lat="47.45586" lon="6.60247">
        <ele>377.6</ele>
        <time>2017-06-11T09:19:35.999Z</time>
      </trkpt>
      <trkpt lat="47.45591" lon="6.60242">
        <ele>378.3</ele>
        <time>2017-06-11T09:19:36.999Z</time>
      </trkpt>
      <trkpt lat="47.45596" lon="6.60237">
        <ele>379.3</ele>
        <time>2017-06-11T09:19:37.999Z</time>
      </trkpt>
      <trkpt lat="47.45602" lon="6.60233">
        <ele>379.6</ele>
        <time>2017-06-11T09:19:38.999Z</time>
      </trkpt>
      <trkpt lat="47.45608" lon="6.6023">
        <ele>378.9</ele>
        <time>2017-06-11T09:19:39.999Z</time>
      </trkpt>
      <trkpt lat="47.45613" lon="6.60227">
        <ele>378.7</ele>
        <time>2017-06-11T09:19:40.999Z</time>
      </trkpt>
      <trkpt lat="47.45618" lon="6.60224">
        <ele>378</ele>
        <time>2017-06-11T09:19:41.999Z</time>
      </trkpt>
      <trkpt lat="47.45623" lon="6.60222">
        <ele>377.1</ele>
        <time>2017-06-11T09:19:42.999Z</time>
      </trkpt>
      <trkpt lat="47.45627" lon="6.60218">
        <ele>376.1</ele>
        <time>2017-06-11T09:19:43.999Z</time>
      </trkpt>
      <trkpt lat="47.45628" lon="6.60213">
        <ele>375.4</ele>
        <time>2017-06-11T09:19:44.999Z</time>
      </trkpt>
      <trkpt lat="47.45631" lon="6.60208">
        <ele>375.3</ele>
        <time>2017-06-11T09:19:45.999Z</time>
      </trkpt>
      <trkpt lat="47.45632" lon="6.60203">
        <ele>375.5</ele>
        <time>2017-06-11T09:19:46.999Z</time>
      </trkpt>
      <trkpt lat="47.45633" lon="6.60197">
        <ele>375</ele>
        <time>2017-06-11T09:19:47.999Z</time>
      </trkpt>
      <trkpt lat="47.45631" lon="6.6019">
        <ele>373.9</ele>
        <time>2017-06-11T09:19:48.999Z</time>
      </trkpt>
      <trkpt lat="47.4563" lon="6.60181">
        <ele>372.5</ele>
        <time>2017-06-11T09:19:49.999Z</time>
      </trkpt>
      <trkpt lat="47.45629" lon="6.60173">
        <ele>371.1</ele>
        <time>2017-06-11T09:19:50.999Z</time>
      </trkpt>
      <trkpt lat="47.45628" lon="6.60165">
        <ele>368.9</ele>
        <time>2017-06-11T09:19:51.999Z</time>
      </trkpt>
      <trkpt lat="47.45627" lon="6.60156">
        <ele>367.7</ele>
        <time>2017-06-11T09:19:52.999Z</time>
      </trkpt>
      <trkpt lat="47.45628" lon="6.60146">
        <ele>365.3</ele>
        <time>2017-06-11T09:19:53.999Z</time>
      </trkpt>
      <trkpt lat="47.45628" lon="6.60135">
        <ele>362.2</ele>
        <time>2017-06-11T09:19:54.999Z</time>
      </trkpt>
      <trkpt lat="47.45629" lon="6.60122">
        <ele>359.4</ele>
        <time>2017-06-11T09:19:55.999Z</time>
      </trkpt>
      <trkpt lat="47.45631" lon="6.60109">
        <ele>357.8</ele>
        <time>2017-06-11T09:19:56.999Z</time>
      </trkpt>
      <trkpt lat="47.45632" lon="6.60096">
        <ele>356.9</ele>
        <time>2017-06-11T09:19:57.999Z</time>
      </trkpt>
      <trkpt lat="47.45633" lon="6.60086">
        <ele>355.7</ele>
        <time>2017-06-11T09:19:58.999Z</time>
      </trkpt>
      <trkpt lat="47.45634" lon="6.60077">
        <ele>354.5</ele>
        <time>2017-06-11T09:19:59.999Z</time>
      </trkpt>
      <trkpt lat="47.45635" lon="6.60069">
        <ele>353.5</ele>
        <time>2017-06-11T09:20:00.999Z</time>
      </trkpt>
      <trkpt lat="47.45636" lon="6.60061">
        <ele>353.2</ele>
        <time>2017-06-11T09:20:01.999Z</time>
      </trkpt>
      <trkpt lat="47.45636" lon="6.60054">
        <ele>352.5</ele>
        <time>2017-06-11T09:20:02.999Z</time>
      </trkpt>
      <trkpt lat="47.45638" lon="6.60048">
        <ele>352.4</ele>
        <time>2017-06-11T09:20:03.999Z</time>
      </trkpt>
      <trkpt lat="47.45639" lon="6.60043">
        <ele>352.3</ele>
        <time>2017-06-11T09:20:04.999Z</time>
      </trkpt>
      <trkpt lat="47.4564" lon="6.60039">
        <ele>352.2</ele>
        <time>2017-06-11T09:20:05.999Z</time>
      </trkpt>
      <trkpt lat="47.45641" lon="6.60036">
        <ele>352.2</ele>
        <time>2017-06-11T09:20:06.999Z</time>
      </trkpt>
      <trkpt lat="47.45641" lon="6.60036">
        <ele>351.6</ele>
        <time>2017-06-11T09:20:26.999Z</time>
      </trkpt>
      <trkpt lat="47.45634" lon="6.60022">
        <ele>351.4</ele>
        <time>2017-06-11T09:20:27.999Z</time>
      </trkpt>
      <trkpt lat="47.45634" lon="6.60022">
        <ele>348.1</ele>
        <time>2017-06-11T09:24:59.999Z</time>
      </trkpt>
      <trkpt lat="47.45636" lon="6.60031">
        <ele>348.1</ele>
        <time>2017-06-11T09:25:00.999Z</time>
      </trkpt>
      <trkpt lat="47.45632" lon="6.6003">
        <ele>350.1</ele>
        <time>2017-06-11T09:25:33.999Z</time>
      </trkpt>
      <trkpt lat="47.45631" lon="6.60029">
        <ele>350.2</ele>
        <time>2017-06-11T09:25:34.999Z</time>
      </trkpt>
      <trkpt lat="47.45631" lon="6.60024">
        <ele>347.1</ele>
        <time>2017-06-11T09:27:08.999Z</time>
      </trkpt>
      <trkpt lat="47.45632" lon="6.60023">
        <ele>347.2</ele>
        <time>2017-06-11T09:27:09.999Z</time>
      </trkpt>
      <trkpt lat="47.45636" lon="6.6002">
        <ele>347.1</ele>
        <time>2017-06-11T09:27:36.999Z</time>
      </trkpt>
      <trkpt lat="47.45638" lon="6.60019">
        <ele>347.3</ele>
        <time>2017-06-11T09:27:37.999Z</time>
      </trkpt>
      <trkpt lat="47.45641" lon="6.60018">
        <ele>347.9</ele>
        <time>2017-06-11T09:27:40.999Z</time>
      </trkpt>
      <trkpt lat="47.45643" lon="6.60018">
        <ele>348</ele>
        <time>2017-06-11T09:27:41.999Z</time>
      </trkpt>
      <trkpt lat="47.45646" lon="6.60022">
        <ele>348</ele>
        <time>2017-06-11T09:27:42.999Z</time>
      </trkpt>
      <trkpt lat="47.45648" lon="6.60023">
        <ele>348.1</ele>
        <time>2017-06-11T09:27:43.999Z</time>
      </trkpt>
      <trkpt lat="47.4565" lon="6.60027">
        <ele>348.2</ele>
        <time>2017-06-11T09:27:45.999Z</time>
      </trkpt>
      <trkpt lat="47.4565" lon="6.60029">
        <ele>348.1</ele>
        <time>2017-06-11T09:27:46.999Z</time>
      </trkpt>
      <trkpt lat="47.45651" lon="6.60034">
        <ele>348</ele>
        <time>2017-06-11T09:27:48.999Z</time>
      </trkpt>
      <trkpt lat="47.45652" lon="6.60036">
        <ele>347.9</ele>
        <time>2017-06-11T09:27:49.999Z</time>
      </trkpt>
      <trkpt lat="47.45654" lon="6.6004">
        <ele>347.7</ele>
        <time>2017-06-11T09:27:51.999Z</time>
      </trkpt>
      <trkpt lat="47.45655" lon="6.60041">
        <ele>347.6</ele>
        <time>2017-06-11T09:27:52.999Z</time>
      </trkpt>
      <trkpt lat="47.45656" lon="6.60047">
        <ele>347.1</ele>
        <time>2017-06-11T09:27:55.999Z</time>
      </trkpt>
      <trkpt lat="47.45657" lon="6.6005">
        <ele>347</ele>
        <time>2017-06-11T09:27:56.999Z</time>
      </trkpt>
      <trkpt lat="47.45658" lon="6.60053">
        <ele>346.8</ele>
        <time>2017-06-11T09:27:57.999Z</time>
      </trkpt>
      <trkpt lat="47.4566" lon="6.60056">
        <ele>346.6</ele>
        <time>2017-06-11T09:27:58.999Z</time>
      </trkpt>
      <trkpt lat="47.45661" lon="6.60059">
        <ele>346.4</ele>
        <time>2017-06-11T09:27:59.999Z</time>
      </trkpt>
      <trkpt lat="47.45662" lon="6.60062">
        <ele>346.4</ele>
        <time>2017-06-11T09:28:00.999Z</time>
      </trkpt>
      <trkpt lat="47.45664" lon="6.60067">
        <ele>346.2</ele>
        <time>2017-06-11T09:28:03.999Z</time>
      </trkpt>
      <trkpt lat="47.45665" lon="6.60069">
        <ele>346.1</ele>
        <time>2017-06-11T09:28:04.999Z</time>
      </trkpt>
      <trkpt lat="47.45668" lon="6.60073">
        <ele>345.9</ele>
        <time>2017-06-11T09:28:11.999Z</time>
      </trkpt>
      <trkpt lat="47.45669" lon="6.60074">
        <ele>345.9</ele>
        <time>2017-06-11T09:28:12.999Z</time>
      </trkpt>
      <trkpt lat="47.45672" lon="6.60076">
        <ele>345.7</ele>
        <time>2017-06-11T09:28:14.999Z</time>
      </trkpt>
      <trkpt lat="47.45673" lon="6.60077">
        <ele>345.6</ele>
        <time>2017-06-11T09:28:15.999Z</time>
      </trkpt>
      <trkpt lat="47.45677" lon="6.60081">
        <ele>345.6</ele>
        <time>2017-06-11T09:28:17.999Z</time>
      </trkpt>
      <trkpt lat="47.45678" lon="6.60083">
        <ele>345.6</ele>
        <time>2017-06-11T09:28:18.999Z</time>
      </trkpt>
      <trkpt lat="47.45682" lon="6.60087">
        <ele>345.6</ele>
        <time>2017-06-11T09:28:20.999Z</time>
      </trkpt>
      <trkpt lat="47.45684" lon="6.6009">
        <ele>345.6</ele>
        <time>2017-06-11T09:28:21.999Z</time>
      </trkpt>
      <trkpt lat="47.45686" lon="6.60092">
        <ele>345.6</ele>
        <time>2017-06-11T09:28:22.999Z</time>
      </trkpt>
      <trkpt lat="47.45688" lon="6.60095">
        <ele>345.6</ele>
        <time>2017-06-11T09:28:23.999Z</time>
      </trkpt>
      <trkpt lat="47.45689" lon="6.60096">
        <ele>345.6</ele>
        <time>2017-06-11T09:28:24.999Z</time>
      </trkpt>
      <trkpt lat="47.45691" lon="6.60099">
        <ele>345.6</ele>
        <time>2017-06-11T09:28:25.999Z</time>
      </trkpt>
      <trkpt lat="47.45693" lon="6.60102">
        <ele>345.6</ele>
        <time>2017-06-11T09:28:26.999Z</time>
      </trkpt>
      <trkpt lat="47.45695" lon="6.60104">
        <ele>345.5</ele>
        <time>2017-06-11T09:28:27.999Z</time>
      </trkpt>
      <trkpt lat="47.45698" lon="6.60106">
        <ele>345.4</ele>
        <time>2017-06-11T09:28:28.999Z</time>
      </trkpt>
      <trkpt lat="47.457" lon="6.60108">
        <ele>345.3</ele>
        <time>2017-06-11T09:28:29.999Z</time>
      </trkpt>
      <trkpt lat="47.45704" lon="6.6011">
        <ele>345.3</ele>
        <time>2017-06-11T09:28:30.999Z</time>
      </trkpt>
      <trkpt lat="47.45707" lon="6.60112">
        <ele>345.4</ele>
        <time>2017-06-11T09:28:31.999Z</time>
      </trkpt>
      <trkpt lat="47.45709" lon="6.60114">
        <ele>345.4</ele>
        <time>2017-06-11T09:28:32.999Z</time>
      </trkpt>
      <trkpt lat="47.45711" lon="6.60115">
        <ele>345.4</ele>
        <time>2017-06-11T09:28:33.999Z</time>
      </trkpt>
      <trkpt lat="47.45714" lon="6.60117">
        <ele>345.4</ele>
        <time>2017-06-11T09:28:34.999Z</time>
      </trkpt>
      <trkpt lat="47.45716" lon="6.60117">
        <ele>345.3</ele>
        <time>2017-06-11T09:28:35.999Z</time>
      </trkpt>
      <trkpt lat="47.45718" lon="6.60119">
        <ele>345.2</ele>
        <time>2017-06-11T09:28:36.999Z</time>
      </trkpt>
      <trkpt lat="47.4572" lon="6.60121">
        <ele>345.2</ele>
        <time>2017-06-11T09:28:37.999Z</time>
      </trkpt>
      <trkpt lat="47.45723" lon="6.60124">
        <ele>345</ele>
        <time>2017-06-11T09:28:39.999Z</time>
      </trkpt>
      <trkpt lat="47.45725" lon="6.60127">
        <ele>344.9</ele>
        <time>2017-06-11T09:28:40.999Z</time>
      </trkpt>
      <trkpt lat="47.45727" lon="6.60132">
        <ele>344.8</ele>
        <time>2017-06-11T09:28:41.999Z</time>
      </trkpt>
      <trkpt lat="47.45729" lon="6.60135">
        <ele>344.7</ele>
        <time>2017-06-11T09:28:42.999Z</time>
      </trkpt>
      <trkpt lat="47.45732" lon="6.60139">
        <ele>344.6</ele>
        <time>2017-06-11T09:28:44.999Z</time>
      </trkpt>
      <trkpt lat="47.45734" lon="6.60139">
        <ele>344.5</ele>
        <time>2017-06-11T09:28:45.999Z</time>
      </trkpt>
      <trkpt lat="47.45736" lon="6.60142">
        <ele>344.3</ele>
        <time>2017-06-11T09:28:48.999Z</time>
      </trkpt>
      <trkpt lat="47.45737" lon="6.60144">
        <ele>344.3</ele>
        <time>2017-06-11T09:28:49.999Z</time>
      </trkpt>
      <trkpt lat="47.4574" lon="6.60148">
        <ele>344.3</ele>
        <time>2017-06-11T09:28:50.999Z</time>
      </trkpt>
      <trkpt lat="47.45741" lon="6.6015">
        <ele>344.3</ele>
        <time>2017-06-11T09:28:51.999Z</time>
      </trkpt>
      <trkpt lat="47.45744" lon="6.60154">
        <ele>344.4</ele>
        <time>2017-06-11T09:28:53.999Z</time>
      </trkpt>
      <trkpt lat="47.45746" lon="6.60158">
        <ele>344.4</ele>
        <time>2017-06-11T09:28:54.999Z</time>
      </trkpt>
      <trkpt lat="47.45748" lon="6.60161">
        <ele>344.4</ele>
        <time>2017-06-11T09:28:55.999Z</time>
      </trkpt>
      <trkpt lat="47.45749" lon="6.60163">
        <ele>344.4</ele>
        <time>2017-06-11T09:28:56.999Z</time>
      </trkpt>
      <trkpt lat="47.45751" lon="6.60165">
        <ele>344.4</ele>
        <time>2017-06-11T09:28:57.999Z</time>
      </trkpt>
      <trkpt lat="47.45753" lon="6.60168">
        <ele>344.4</ele>
        <time>2017-06-11T09:28:58.999Z</time>
      </trkpt>
      <trkpt lat="47.45755" lon="6.60171">
        <ele>344.3</ele>
        <time>2017-06-11T09:28:59.999Z</time>
      </trkpt>
      <trkpt lat="47.45757" lon="6.60174">
        <ele>344.3</ele>
        <time>2017-06-11T09:29:00.999Z</time>
      </trkpt>
      <trkpt lat="47.4576" lon="6.60176">
        <ele>344.2</ele>
        <time>2017-06-11T09:29:01.999Z</time>
      </trkpt>
      <trkpt lat="47.45762" lon="6.60178">
        <ele>344.2</ele>
        <time>2017-06-11T09:29:02.999Z</time>
      </trkpt>
      <trkpt lat="47.45764" lon="6.60181">
        <ele>344.3</ele>
        <time>2017-06-11T09:29:03.999Z</time>
      </trkpt>
      <trkpt lat="47.45766" lon="6.60183">
        <ele>344.3</ele>
        <time>2017-06-11T09:29:04.999Z</time>
      </trkpt>
      <trkpt lat="47.45768" lon="6.60186">
        <ele>344.3</ele>
        <time>2017-06-11T09:29:05.999Z</time>
      </trkpt>
      <trkpt lat="47.45771" lon="6.60188">
        <ele>344.3</ele>
        <time>2017-06-11T09:29:06.999Z</time>
      </trkpt>
      <trkpt lat="47.45773" lon="6.6019">
        <ele>344.3</ele>
        <time>2017-06-11T09:29:07.999Z</time>
      </trkpt>
      <trkpt lat="47.45776" lon="6.60192">
        <ele>344.3</ele>
        <time>2017-06-11T09:29:08.999Z</time>
      </trkpt>
      <trkpt lat="47.45778" lon="6.60194">
        <ele>344.3</ele>
        <time>2017-06-11T09:29:09.999Z</time>
      </trkpt>
      <trkpt lat="47.45781" lon="6.60196">
        <ele>344.2</ele>
        <time>2017-06-11T09:29:10.999Z</time>
      </trkpt>
      <trkpt lat="47.45783" lon="6.60198">
        <ele>344.2</ele>
        <time>2017-06-11T09:29:11.999Z</time>
      </trkpt>
      <trkpt lat="47.45785" lon="6.602">
        <ele>344.1</ele>
        <time>2017-06-11T09:29:12.999Z</time>
      </trkpt>
      <trkpt lat="47.45787" lon="6.60202">
        <ele>344</ele>
        <time>2017-06-11T09:29:13.999Z</time>
      </trkpt>
      <trkpt lat="47.4579" lon="6.60204">
        <ele>343.9</ele>
        <time>2017-06-11T09:29:14.999Z</time>
      </trkpt>
      <trkpt lat="47.45792" lon="6.60206">
        <ele>343.8</ele>
        <time>2017-06-11T09:29:15.999Z</time>
      </trkpt>
      <trkpt lat="47.45793" lon="6.60209">
        <ele>343.7</ele>
        <time>2017-06-11T09:29:16.999Z</time>
      </trkpt>
      <trkpt lat="47.45795" lon="6.6021">
        <ele>343.7</ele>
        <time>2017-06-11T09:29:17.999Z</time>
      </trkpt>
      <trkpt lat="47.45797" lon="6.60213">
        <ele>343.7</ele>
        <time>2017-06-11T09:29:18.999Z</time>
      </trkpt>
      <trkpt lat="47.45799" lon="6.60215">
        <ele>343.6</ele>
        <time>2017-06-11T09:29:19.999Z</time>
      </trkpt>
      <trkpt lat="47.45801" lon="6.60218">
        <ele>343.6</ele>
        <time>2017-06-11T09:29:20.999Z</time>
      </trkpt>
      <trkpt lat="47.45804" lon="6.60221">
        <ele>343.9</ele>
        <time>2017-06-11T09:29:22.999Z</time>
      </trkpt>
      <trkpt lat="47.45807" lon="6.60223">
        <ele>344</ele>
        <time>2017-06-11T09:29:23.999Z</time>
      </trkpt>
      <trkpt lat="47.45809" lon="6.60224">
        <ele>344.1</ele>
        <time>2017-06-11T09:29:24.999Z</time>
      </trkpt>
      <trkpt lat="47.45811" lon="6.60226">
        <ele>344.1</ele>
        <time>2017-06-11T09:29:25.999Z</time>
      </trkpt>
      <trkpt lat="47.45814" lon="6.60228">
        <ele>344.1</ele>
        <time>2017-06-11T09:29:26.999Z</time>
      </trkpt>
      <trkpt lat="47.45816" lon="6.60229">
        <ele>344.1</ele>
        <time>2017-06-11T09:29:27.999Z</time>
      </trkpt>
      <trkpt lat="47.45819" lon="6.6023">
        <ele>344.1</ele>
        <time>2017-06-11T09:29:28.999Z</time>
      </trkpt>
      <trkpt lat="47.45821" lon="6.60231">
        <ele>344.2</ele>
        <time>2017-06-11T09:29:29.999Z</time>
      </trkpt>
      <trkpt lat="47.45823" lon="6.60232">
        <ele>344.2</ele>
        <time>2017-06-11T09:29:30.999Z</time>
      </trkpt>
      <trkpt lat="47.45826" lon="6.60234">
        <ele>344.3</ele>
        <time>2017-06-11T09:29:31.999Z</time>
      </trkpt>
      <trkpt lat="47.45829" lon="6.60236">
        <ele>344.5</ele>
        <time>2017-06-11T09:29:33.999Z</time>
      </trkpt>
      <trkpt lat="47.45831" lon="6.60238">
        <ele>344.6</ele>
        <time>2017-06-11T09:29:34.999Z</time>
      </trkpt>
      <trkpt lat="47.45833" lon="6.60241">
        <ele>344.8</ele>
        <time>2017-06-11T09:29:36.999Z</time>
      </trkpt>
      <trkpt lat="47.45835" lon="6.60242">
        <ele>344.8</ele>
        <time>2017-06-11T09:29:37.999Z</time>
      </trkpt>
      <trkpt lat="47.45837" lon="6.60244">
        <ele>344.9</ele>
        <time>2017-06-11T09:29:38.999Z</time>
      </trkpt>
      <trkpt lat="47.45839" lon="6.60246">
        <ele>345</ele>
        <time>2017-06-11T09:29:39.999Z</time>
      </trkpt>
      <trkpt lat="47.45841" lon="6.60247">
        <ele>345.3</ele>
        <time>2017-06-11T09:29:41.999Z</time>
      </trkpt>
      <trkpt lat="47.45843" lon="6.60248">
        <ele>345.4</ele>
        <time>2017-06-11T09:29:42.999Z</time>
      </trkpt>
      <trkpt lat="47.45846" lon="6.60251">
        <ele>345.9</ele>
        <time>2017-06-11T09:29:45.999Z</time>
      </trkpt>
      <trkpt lat="47.45847" lon="6.60252">
        <ele>346.1</ele>
        <time>2017-06-11T09:29:46.999Z</time>
      </trkpt>
      <trkpt lat="47.45849" lon="6.60257">
        <ele>347.1</ele>
        <time>2017-06-11T09:29:50.999Z</time>
      </trkpt>
      <trkpt lat="47.45849" lon="6.60258">
        <ele>347.4</ele>
        <time>2017-06-11T09:29:51.999Z</time>
      </trkpt>
      <trkpt lat="47.45851" lon="6.60262">
        <ele>347.9</ele>
        <time>2017-06-11T09:29:54.999Z</time>
      </trkpt>
      <trkpt lat="47.45852" lon="6.60264">
        <ele>347.9</ele>
        <time>2017-06-11T09:29:55.999Z</time>
      </trkpt>
      <trkpt lat="47.45856" lon="6.60268">
        <ele>347.8</ele>
        <time>2017-06-11T09:29:59.999Z</time>
      </trkpt>
      <trkpt lat="47.45856" lon="6.60269">
        <ele>347.8</ele>
        <time>2017-06-11T09:30:00.999Z</time>
      </trkpt>
      <trkpt lat="47.4586" lon="6.60272">
        <ele>347.8</ele>
        <time>2017-06-11T09:30:02.999Z</time>
      </trkpt>
      <trkpt lat="47.45861" lon="6.60273">
        <ele>347.9</ele>
        <time>2017-06-11T09:30:03.999Z</time>
      </trkpt>
      <trkpt lat="47.45865" lon="6.60277">
        <ele>348.1</ele>
        <time>2017-06-11T09:30:06.999Z</time>
      </trkpt>
      <trkpt lat="47.45866" lon="6.60277">
        <ele>348.2</ele>
        <time>2017-06-11T09:30:07.999Z</time>
      </trkpt>
      <trkpt lat="47.45868" lon="6.60282">
        <ele>348.5</ele>
        <time>2017-06-11T09:30:11.999Z</time>
      </trkpt>
      <trkpt lat="47.45868" lon="6.60283">
        <ele>348.6</ele>
        <time>2017-06-11T09:30:12.999Z</time>
      </trkpt>
      <trkpt lat="47.4587" lon="6.60287">
        <ele>348.8</ele>
        <time>2017-06-11T09:30:15.999Z</time>
      </trkpt>
      <trkpt lat="47.45871" lon="6.60289">
        <ele>349</ele>
        <time>2017-06-11T09:30:16.999Z</time>
      </trkpt>
      <trkpt lat="47.45874" lon="6.60293">
        <ele>349.3</ele>
        <time>2017-06-11T09:30:18.999Z</time>
      </trkpt>
      <trkpt lat="47.45876" lon="6.60295">
        <ele>349.5</ele>
        <time>2017-06-11T09:30:19.999Z</time>
      </trkpt>
      <trkpt lat="47.45878" lon="6.60299">
        <ele>349.8</ele>
        <time>2017-06-11T09:30:22.999Z</time>
      </trkpt>
      <trkpt lat="47.45879" lon="6.603">
        <ele>350</ele>
        <time>2017-06-11T09:30:23.999Z</time>
      </trkpt>
      <trkpt lat="47.4588" lon="6.60305">
        <ele>350.5</ele>
        <time>2017-06-11T09:30:27.999Z</time>
      </trkpt>
      <trkpt lat="47.45881" lon="6.60307">
        <ele>350.6</ele>
        <time>2017-06-11T09:30:28.999Z</time>
      </trkpt>
      <trkpt lat="47.45883" lon="6.60312">
        <ele>350.7</ele>
        <time>2017-06-11T09:30:32.999Z</time>
      </trkpt>
      <trkpt lat="47.45884" lon="6.60314">
        <ele>350.8</ele>
        <time>2017-06-11T09:30:33.999Z</time>
      </trkpt>
      <trkpt lat="47.45886" lon="6.60317">
        <ele>351</ele>
        <time>2017-06-11T09:30:35.999Z</time>
      </trkpt>
      <trkpt lat="47.45887" lon="6.60319">
        <ele>351.1</ele>
        <time>2017-06-11T09:30:36.999Z</time>
      </trkpt>
      <trkpt lat="47.45889" lon="6.60324">
        <ele>351.4</ele>
        <time>2017-06-11T09:30:39.999Z</time>
      </trkpt>
      <trkpt lat="47.4589" lon="6.60325">
        <ele>351.6</ele>
        <time>2017-06-11T09:30:40.999Z</time>
      </trkpt>
      <trkpt lat="47.45892" lon="6.60331">
        <ele>351.9</ele>
        <time>2017-06-11T09:30:43.999Z</time>
      </trkpt>
      <trkpt lat="47.45893" lon="6.60333">
        <ele>352</ele>
        <time>2017-06-11T09:30:44.999Z</time>
      </trkpt>
      <trkpt lat="47.45895" lon="6.60338">
        <ele>352.3</ele>
        <time>2017-06-11T09:30:47.999Z</time>
      </trkpt>
      <trkpt lat="47.45895" lon="6.6034">
        <ele>352.5</ele>
        <time>2017-06-11T09:30:48.999Z</time>
      </trkpt>
      <trkpt lat="47.45897" lon="6.60345">
        <ele>353</ele>
        <time>2017-06-11T09:30:51.999Z</time>
      </trkpt>
      <trkpt lat="47.45898" lon="6.60346">
        <ele>353.1</ele>
        <time>2017-06-11T09:30:52.999Z</time>
      </trkpt>
      <trkpt lat="47.45899" lon="6.60351">
        <ele>353.2</ele>
        <time>2017-06-11T09:30:54.999Z</time>
      </trkpt>
      <trkpt lat="47.459" lon="6.60353">
        <ele>353.2</ele>
        <time>2017-06-11T09:30:55.999Z</time>
      </trkpt>
      <trkpt lat="47.45901" lon="6.60358">
        <ele>353.5</ele>
        <time>2017-06-11T09:30:58.999Z</time>
      </trkpt>
      <trkpt lat="47.45901" lon="6.60361">
        <ele>353.7</ele>
        <time>2017-06-11T09:30:59.999Z</time>
      </trkpt>
      <trkpt lat="47.45902" lon="6.60366">
        <ele>354.1</ele>
        <time>2017-06-11T09:31:02.999Z</time>
      </trkpt>
      <trkpt lat="47.45902" lon="6.60368">
        <ele>354.3</ele>
        <time>2017-06-11T09:31:03.999Z</time>
      </trkpt>
      <trkpt lat="47.45905" lon="6.60373">
        <ele>355</ele>
        <time>2017-06-11T09:31:06.999Z</time>
      </trkpt>
      <trkpt lat="47.45905" lon="6.60375">
        <ele>355.2</ele>
        <time>2017-06-11T09:31:07.999Z</time>
      </trkpt>
      <trkpt lat="47.45907" lon="6.6038">
        <ele>355.8</ele>
        <time>2017-06-11T09:31:10.999Z</time>
      </trkpt>
      <trkpt lat="47.45907" lon="6.60381">
        <ele>355.9</ele>
        <time>2017-06-11T09:31:11.999Z</time>
      </trkpt>
      <trkpt lat="47.45907" lon="6.60386">
        <ele>356.3</ele>
        <time>2017-06-11T09:31:14.999Z</time>
      </trkpt>
      <trkpt lat="47.45907" lon="6.60388">
        <ele>356.4</ele>
        <time>2017-06-11T09:31:15.999Z</time>
      </trkpt>
      <trkpt lat="47.45909" lon="6.60391">
        <ele>356.5</ele>
        <time>2017-06-11T09:31:17.999Z</time>
      </trkpt>
      <trkpt lat="47.4591" lon="6.60394">
        <ele>356.5</ele>
        <time>2017-06-11T09:31:18.999Z</time>
      </trkpt>
      <trkpt lat="47.45913" lon="6.60398">
        <ele>356.7</ele>
        <time>2017-06-11T09:31:20.999Z</time>
      </trkpt>
      <trkpt lat="47.45913" lon="6.60399">
        <ele>356.8</ele>
        <time>2017-06-11T09:31:21.999Z</time>
      </trkpt>
      <trkpt lat="47.45914" lon="6.60404">
        <ele>357.1</ele>
        <time>2017-06-11T09:31:24.999Z</time>
      </trkpt>
      <trkpt lat="47.45915" lon="6.60406">
        <ele>357.4</ele>
        <time>2017-06-11T09:31:25.999Z</time>
      </trkpt>
      <trkpt lat="47.45915" lon="6.60412">
        <ele>358.2</ele>
        <time>2017-06-11T09:31:29.999Z</time>
      </trkpt>
      <trkpt lat="47.45915" lon="6.60414">
        <ele>358.5</ele>
        <time>2017-06-11T09:31:30.999Z</time>
      </trkpt>
      <trkpt lat="47.45917" lon="6.60419">
        <ele>359.1</ele>
        <time>2017-06-11T09:31:33.999Z</time>
      </trkpt>
      <trkpt lat="47.45918" lon="6.60422">
        <ele>359.4</ele>
        <time>2017-06-11T09:31:34.999Z</time>
      </trkpt>
      <trkpt lat="47.45918" lon="6.60427">
        <ele>360</ele>
        <time>2017-06-11T09:31:37.999Z</time>
      </trkpt>
      <trkpt lat="47.45919" lon="6.60429">
        <ele>360.3</ele>
        <time>2017-06-11T09:31:38.999Z</time>
      </trkpt>
      <trkpt lat="47.4592" lon="6.60434">
        <ele>361.1</ele>
        <time>2017-06-11T09:31:41.999Z</time>
      </trkpt>
      <trkpt lat="47.4592" lon="6.60436">
        <ele>361.3</ele>
        <time>2017-06-11T09:31:42.999Z</time>
      </trkpt>
      <trkpt lat="47.4592" lon="6.60442">
        <ele>361.9</ele>
        <time>2017-06-11T09:31:45.999Z</time>
      </trkpt>
      <trkpt lat="47.4592" lon="6.60444">
        <ele>362.1</ele>
        <time>2017-06-11T09:31:46.999Z</time>
      </trkpt>
      <trkpt lat="47.45921" lon="6.60448">
        <ele>362.8</ele>
        <time>2017-06-11T09:31:49.999Z</time>
      </trkpt>
      <trkpt lat="47.45922" lon="6.6045">
        <ele>362.9</ele>
        <time>2017-06-11T09:31:50.999Z</time>
      </trkpt>
      <trkpt lat="47.45924" lon="6.60455">
        <ele>363.4</ele>
        <time>2017-06-11T09:31:52.999Z</time>
      </trkpt>
      <trkpt lat="47.45925" lon="6.60458">
        <ele>363.7</ele>
        <time>2017-06-11T09:31:53.999Z</time>
      </trkpt>
      <trkpt lat="47.45926" lon="6.60463">
        <ele>364.2</ele>
        <time>2017-06-11T09:31:56.999Z</time>
      </trkpt>
      <trkpt lat="47.45927" lon="6.60466">
        <ele>364.4</ele>
        <time>2017-06-11T09:31:57.999Z</time>
      </trkpt>
      <trkpt lat="47.45929" lon="6.6047">
        <ele>364.9</ele>
        <time>2017-06-11T09:31:59.999Z</time>
      </trkpt>
      <trkpt lat="47.45931" lon="6.60473">
        <ele>365.2</ele>
        <time>2017-06-11T09:32:00.999Z</time>
      </trkpt>
      <trkpt lat="47.45933" lon="6.60477">
        <ele>365.9</ele>
        <time>2017-06-11T09:32:03.999Z</time>
      </trkpt>
      <trkpt lat="47.45934" lon="6.60478">
        <ele>366.2</ele>
        <time>2017-06-11T09:32:04.999Z</time>
      </trkpt>
      <trkpt lat="47.45936" lon="6.60482">
        <ele>366.4</ele>
        <time>2017-06-11T09:32:06.999Z</time>
      </trkpt>
      <trkpt lat="47.45937" lon="6.60483">
        <ele>366.6</ele>
        <time>2017-06-11T09:32:07.999Z</time>
      </trkpt>
      <trkpt lat="47.45939" lon="6.60488">
        <ele>367.1</ele>
        <time>2017-06-11T09:32:10.999Z</time>
      </trkpt>
      <trkpt lat="47.4594" lon="6.60489">
        <ele>367.2</ele>
        <time>2017-06-11T09:32:11.999Z</time>
      </trkpt>
      <trkpt lat="47.45941" lon="6.60494">
        <ele>367.5</ele>
        <time>2017-06-11T09:32:14.999Z</time>
      </trkpt>
      <trkpt lat="47.45942" lon="6.60496">
        <ele>367.5</ele>
        <time>2017-06-11T09:32:15.999Z</time>
      </trkpt>
      <trkpt lat="47.45944" lon="6.60499">
        <ele>367.9</ele>
        <time>2017-06-11T09:32:18.999Z</time>
      </trkpt>
      <trkpt lat="47.45945" lon="6.60501">
        <ele>368</ele>
        <time>2017-06-11T09:32:19.999Z</time>
      </trkpt>
      <trkpt lat="47.45947" lon="6.60506">
        <ele>368.3</ele>
        <time>2017-06-11T09:32:21.999Z</time>
      </trkpt>
      <trkpt lat="47.45947" lon="6.60508">
        <ele>368.5</ele>
        <time>2017-06-11T09:32:22.999Z</time>
      </trkpt>
      <trkpt lat="47.45949" lon="6.60513">
        <ele>369.3</ele>
        <time>2017-06-11T09:32:25.999Z</time>
      </trkpt>
      <trkpt lat="47.4595" lon="6.60514">
        <ele>369.5</ele>
        <time>2017-06-11T09:32:26.999Z</time>
      </trkpt>
      <trkpt lat="47.45949" lon="6.6052">
        <ele>370.2</ele>
        <time>2017-06-11T09:32:30.999Z</time>
      </trkpt>
      <trkpt lat="47.45949" lon="6.60521">
        <ele>370.3</ele>
        <time>2017-06-11T09:32:31.999Z</time>
      </trkpt>
      <trkpt lat="47.45949" lon="6.60527">
        <ele>371.6</ele>
        <time>2017-06-11T09:32:36.999Z</time>
      </trkpt>
      <trkpt lat="47.4595" lon="6.60529">
        <ele>371.9</ele>
        <time>2017-06-11T09:32:37.999Z</time>
      </trkpt>
      <trkpt lat="47.45951" lon="6.60534">
        <ele>372.8</ele>
        <time>2017-06-11T09:32:39.999Z</time>
      </trkpt>
      <trkpt lat="47.45952" lon="6.60535">
        <ele>373.3</ele>
        <time>2017-06-11T09:32:40.999Z</time>
      </trkpt>
      <trkpt lat="47.45953" lon="6.60536">
        <ele>373.7</ele>
        <time>2017-06-11T09:32:41.999Z</time>
      </trkpt>
      <trkpt lat="47.45956" lon="6.6054">
        <ele>374.1</ele>
        <time>2017-06-11T09:32:42.999Z</time>
      </trkpt>
      <trkpt lat="47.45959" lon="6.60541">
        <ele>375.2</ele>
        <time>2017-06-11T09:32:45.999Z</time>
      </trkpt>
      <trkpt lat="47.45961" lon="6.60541">
        <ele>375.5</ele>
        <time>2017-06-11T09:32:46.999Z</time>
      </trkpt>
      <trkpt lat="47.45964" lon="6.60544">
        <ele>377.5</ele>
        <time>2017-06-11T09:32:53.999Z</time>
      </trkpt>
      <trkpt lat="47.45965" lon="6.60544">
        <ele>377.9</ele>
        <time>2017-06-11T09:32:54.999Z</time>
      </trkpt>
      <trkpt lat="47.4597" lon="6.60544">
        <ele>378.3</ele>
        <time>2017-06-11T09:32:55.999Z</time>
      </trkpt>
      <trkpt lat="47.45975" lon="6.60545">
        <ele>378.7</ele>
        <time>2017-06-11T09:32:56.999Z</time>
      </trkpt>
      <trkpt lat="47.45979" lon="6.60545">
        <ele>379.7</ele>
        <time>2017-06-11T09:32:59.999Z</time>
      </trkpt>
      <trkpt lat="47.45981" lon="6.60546">
        <ele>380</ele>
        <time>2017-06-11T09:33:00.999Z</time>
      </trkpt>
      <trkpt lat="47.45985" lon="6.60549">
        <ele>381.3</ele>
        <time>2017-06-11T09:33:05.999Z</time>
      </trkpt>
      <trkpt lat="47.45985" lon="6.60549">
        <ele>381.5</ele>
        <time>2017-06-11T09:33:06.999Z</time>
      </trkpt>
      <trkpt lat="47.45988" lon="6.60554">
        <ele>382</ele>
        <time>2017-06-11T09:33:10.999Z</time>
      </trkpt>
      <trkpt lat="47.45989" lon="6.60555">
        <ele>382</ele>
        <time>2017-06-11T09:33:11.999Z</time>
      </trkpt>
      <trkpt lat="47.45992" lon="6.60558">
        <ele>382.1</ele>
        <time>2017-06-11T09:33:15.999Z</time>
      </trkpt>
      <trkpt lat="47.45993" lon="6.6056">
        <ele>382.1</ele>
        <time>2017-06-11T09:33:16.999Z</time>
      </trkpt>
      <trkpt lat="47.45994" lon="6.60561">
        <ele>382</ele>
        <time>2017-06-11T09:33:17.999Z</time>
      </trkpt>
      <trkpt lat="47.45996" lon="6.60564">
        <ele>382</ele>
        <time>2017-06-11T09:33:18.999Z</time>
      </trkpt>
      <trkpt lat="47.45998" lon="6.60567">
        <ele>382.1</ele>
        <time>2017-06-11T09:33:21.999Z</time>
      </trkpt>
      <trkpt lat="47.46" lon="6.6057">
        <ele>382.2</ele>
        <time>2017-06-11T09:33:22.999Z</time>
      </trkpt>
      <trkpt lat="47.46001" lon="6.60571">
        <ele>382.3</ele>
        <time>2017-06-11T09:33:23.999Z</time>
      </trkpt>
      <trkpt lat="47.46005" lon="6.60574">
        <ele>382.4</ele>
        <time>2017-06-11T09:33:24.999Z</time>
      </trkpt>
      <trkpt lat="47.46008" lon="6.60579">
        <ele>382.8</ele>
        <time>2017-06-11T09:33:28.999Z</time>
      </trkpt>
      <trkpt lat="47.46009" lon="6.6058">
        <ele>383</ele>
        <time>2017-06-11T09:33:29.999Z</time>
      </trkpt>
      <trkpt lat="47.46009" lon="6.60584">
        <ele>383.6</ele>
        <time>2017-06-11T09:33:33.999Z</time>
      </trkpt>
      <trkpt lat="47.46011" lon="6.60586">
        <ele>383.8</ele>
        <time>2017-06-11T09:33:34.999Z</time>
      </trkpt>
      <trkpt lat="47.46012" lon="6.60591">
        <ele>385.4</ele>
        <time>2017-06-11T09:33:39.999Z</time>
      </trkpt>
      <trkpt lat="47.46016" lon="6.60594">
        <ele>385.7</ele>
        <time>2017-06-11T09:33:40.999Z</time>
      </trkpt>
      <trkpt lat="47.46019" lon="6.60597">
        <ele>386</ele>
        <time>2017-06-11T09:33:41.999Z</time>
      </trkpt>
      <trkpt lat="47.46022" lon="6.606">
        <ele>386.3</ele>
        <time>2017-06-11T09:33:42.999Z</time>
      </trkpt>
      <trkpt lat="47.46022" lon="6.60605">
        <ele>386.9</ele>
        <time>2017-06-11T09:33:44.999Z</time>
      </trkpt>
      <trkpt lat="47.46022" lon="6.60609">
        <ele>387.2</ele>
        <time>2017-06-11T09:33:45.999Z</time>
      </trkpt>
      <trkpt lat="47.46022" lon="6.60616">
        <ele>387.6</ele>
        <time>2017-06-11T09:33:48.999Z</time>
      </trkpt>
      <trkpt lat="47.46022" lon="6.60618">
        <ele>387.6</ele>
        <time>2017-06-11T09:33:49.999Z</time>
      </trkpt>
      <trkpt lat="47.46023" lon="6.60623">
        <ele>387.6</ele>
        <time>2017-06-11T09:33:51.999Z</time>
      </trkpt>
      <trkpt lat="47.46023" lon="6.60626">
        <ele>387.7</ele>
        <time>2017-06-11T09:33:52.999Z</time>
      </trkpt>
      <trkpt lat="47.46023" lon="6.60628">
        <ele>387.9</ele>
        <time>2017-06-11T09:33:54.999Z</time>
      </trkpt>
      <trkpt lat="47.46024" lon="6.60634">
        <ele>388</ele>
        <time>2017-06-11T09:33:55.999Z</time>
      </trkpt>
      <trkpt lat="47.46024" lon="6.60637">
        <ele>388.3</ele>
        <time>2017-06-11T09:33:56.999Z</time>
      </trkpt>
      <trkpt lat="47.46024" lon="6.60643">
        <ele>388.5</ele>
        <time>2017-06-11T09:33:57.999Z</time>
      </trkpt>
      <trkpt lat="47.46027" lon="6.60647">
        <ele>388.8</ele>
        <time>2017-06-11T09:33:58.999Z</time>
      </trkpt>
      <trkpt lat="47.46029" lon="6.60652">
        <ele>389.1</ele>
        <time>2017-06-11T09:33:59.999Z</time>
      </trkpt>
      <trkpt lat="47.46031" lon="6.60658">
        <ele>389.6</ele>
        <time>2017-06-11T09:34:01.999Z</time>
      </trkpt>
      <trkpt lat="47.46032" lon="6.60662">
        <ele>389.9</ele>
        <time>2017-06-11T09:34:02.999Z</time>
      </trkpt>
      <trkpt lat="47.46033" lon="6.60664">
        <ele>390.2</ele>
        <time>2017-06-11T09:34:03.999Z</time>
      </trkpt>
      <trkpt lat="47.46035" lon="6.60668">
        <ele>390.5</ele>
        <time>2017-06-11T09:34:04.999Z</time>
      </trkpt>
      <trkpt lat="47.46036" lon="6.60672">
        <ele>391</ele>
        <time>2017-06-11T09:34:06.999Z</time>
      </trkpt>
      <trkpt lat="47.46038" lon="6.60674">
        <ele>391.1</ele>
        <time>2017-06-11T09:34:07.999Z</time>
      </trkpt>
      <trkpt lat="47.4604" lon="6.60677">
        <ele>391.6</ele>
        <time>2017-06-11T09:34:09.999Z</time>
      </trkpt>
      <trkpt lat="47.4604" lon="6.60679">
        <ele>391.8</ele>
        <time>2017-06-11T09:34:10.999Z</time>
      </trkpt>
      <trkpt lat="47.46043" lon="6.60684">
        <ele>392.1</ele>
        <time>2017-06-11T09:34:12.999Z</time>
      </trkpt>
      <trkpt lat="47.46046" lon="6.60687">
        <ele>392.2</ele>
        <time>2017-06-11T09:34:13.999Z</time>
      </trkpt>
      <trkpt lat="47.46049" lon="6.60691">
        <ele>392.4</ele>
        <time>2017-06-11T09:34:14.999Z</time>
      </trkpt>
      <trkpt lat="47.46051" lon="6.60697">
        <ele>392.5</ele>
        <time>2017-06-11T09:34:15.999Z</time>
      </trkpt>
      <trkpt lat="47.46052" lon="6.60703">
        <ele>392.6</ele>
        <time>2017-06-11T09:34:16.999Z</time>
      </trkpt>
      <trkpt lat="47.46053" lon="6.60708">
        <ele>393.1</ele>
        <time>2017-06-11T09:34:18.999Z</time>
      </trkpt>
      <trkpt lat="47.46051" lon="6.60714">
        <ele>393.3</ele>
        <time>2017-06-11T09:34:19.999Z</time>
      </trkpt>
      <trkpt lat="47.46049" lon="6.60719">
        <ele>393.9</ele>
        <time>2017-06-11T09:34:21.999Z</time>
      </trkpt>
      <trkpt lat="47.46049" lon="6.60721">
        <ele>394.1</ele>
        <time>2017-06-11T09:34:22.999Z</time>
      </trkpt>
      <trkpt lat="47.46049" lon="6.60726">
        <ele>394.4</ele>
        <time>2017-06-11T09:34:23.999Z</time>
      </trkpt>
      <trkpt lat="47.46049" lon="6.60729">
        <ele>394.6</ele>
        <time>2017-06-11T09:34:24.999Z</time>
      </trkpt>
      <trkpt lat="47.46049" lon="6.60732">
        <ele>394.9</ele>
        <time>2017-06-11T09:34:25.999Z</time>
      </trkpt>
      <trkpt lat="47.4605" lon="6.60736">
        <ele>395.1</ele>
        <time>2017-06-11T09:34:26.999Z</time>
      </trkpt>
      <trkpt lat="47.4605" lon="6.60739">
        <ele>395.4</ele>
        <time>2017-06-11T09:34:27.999Z</time>
      </trkpt>
      <trkpt lat="47.46051" lon="6.60742">
        <ele>395.7</ele>
        <time>2017-06-11T09:34:28.999Z</time>
      </trkpt>
      <trkpt lat="47.46053" lon="6.60748">
        <ele>396.2</ele>
        <time>2017-06-11T09:34:30.999Z</time>
      </trkpt>
      <trkpt lat="47.46054" lon="6.6075">
        <ele>396.4</ele>
        <time>2017-06-11T09:34:31.999Z</time>
      </trkpt>
      <trkpt lat="47.46055" lon="6.60756">
        <ele>396.6</ele>
        <time>2017-06-11T09:34:33.999Z</time>
      </trkpt>
      <trkpt lat="47.46056" lon="6.60759">
        <ele>396.8</ele>
        <time>2017-06-11T09:34:34.999Z</time>
      </trkpt>
      <trkpt lat="47.46057" lon="6.60762">
        <ele>396.9</ele>
        <time>2017-06-11T09:34:35.999Z</time>
      </trkpt>
      <trkpt lat="47.46059" lon="6.60769">
        <ele>396.8</ele>
        <time>2017-06-11T09:34:36.999Z</time>
      </trkpt>
      <trkpt lat="47.46061" lon="6.60775">
        <ele>396.9</ele>
        <time>2017-06-11T09:34:37.999Z</time>
      </trkpt>
      <trkpt lat="47.46062" lon="6.60779">
        <ele>396.9</ele>
        <time>2017-06-11T09:34:38.999Z</time>
      </trkpt>
      <trkpt lat="47.46063" lon="6.60783">
        <ele>397</ele>
        <time>2017-06-11T09:34:39.999Z</time>
      </trkpt>
      <trkpt lat="47.46064" lon="6.60787">
        <ele>397.1</ele>
        <time>2017-06-11T09:34:40.999Z</time>
      </trkpt>
      <trkpt lat="47.46065" lon="6.60791">
        <ele>397.2</ele>
        <time>2017-06-11T09:34:41.999Z</time>
      </trkpt>
      <trkpt lat="47.46066" lon="6.60795">
        <ele>397.2</ele>
        <time>2017-06-11T09:34:42.999Z</time>
      </trkpt>
      <trkpt lat="47.46067" lon="6.60799">
        <ele>397.1</ele>
        <time>2017-06-11T09:34:43.999Z</time>
      </trkpt>
      <trkpt lat="47.46068" lon="6.60803">
        <ele>396.9</ele>
        <time>2017-06-11T09:34:44.999Z</time>
      </trkpt>
      <trkpt lat="47.46069" lon="6.60808">
        <ele>396.8</ele>
        <time>2017-06-11T09:34:45.999Z</time>
      </trkpt>
      <trkpt lat="47.4607" lon="6.60812">
        <ele>396.8</ele>
        <time>2017-06-11T09:34:46.999Z</time>
      </trkpt>
      <trkpt lat="47.46071" lon="6.60816">
        <ele>396.6</ele>
        <time>2017-06-11T09:34:47.999Z</time>
      </trkpt>
      <trkpt lat="47.46072" lon="6.6082">
        <ele>396.5</ele>
        <time>2017-06-11T09:34:48.999Z</time>
      </trkpt>
      <trkpt lat="47.46074" lon="6.60824">
        <ele>396.4</ele>
        <time>2017-06-11T09:34:49.999Z</time>
      </trkpt>
      <trkpt lat="47.46075" lon="6.60829">
        <ele>396.3</ele>
        <time>2017-06-11T09:34:50.999Z</time>
      </trkpt>
      <trkpt lat="47.46076" lon="6.60834">
        <ele>396.2</ele>
        <time>2017-06-11T09:34:51.999Z</time>
      </trkpt>
      <trkpt lat="47.46077" lon="6.6084">
        <ele>396.2</ele>
        <time>2017-06-11T09:34:52.999Z</time>
      </trkpt>
      <trkpt lat="47.46078" lon="6.60844">
        <ele>396.2</ele>
        <time>2017-06-11T09:34:53.999Z</time>
      </trkpt>
      <trkpt lat="47.46079" lon="6.60848">
        <ele>396.2</ele>
        <time>2017-06-11T09:34:54.999Z</time>
      </trkpt>
      <trkpt lat="47.46079" lon="6.60851">
        <ele>396.1</ele>
        <time>2017-06-11T09:34:55.999Z</time>
      </trkpt>
      <trkpt lat="47.4608" lon="6.60856">
        <ele>396.1</ele>
        <time>2017-06-11T09:34:56.999Z</time>
      </trkpt>
      <trkpt lat="47.46081" lon="6.60861">
        <ele>396</ele>
        <time>2017-06-11T09:34:57.999Z</time>
      </trkpt>
      <trkpt lat="47.46081" lon="6.60865">
        <ele>395.9</ele>
        <time>2017-06-11T09:34:58.999Z</time>
      </trkpt>
      <trkpt lat="47.46082" lon="6.6087">
        <ele>395.9</ele>
        <time>2017-06-11T09:34:59.999Z</time>
      </trkpt>
      <trkpt lat="47.46083" lon="6.60875">
        <ele>395.8</ele>
        <time>2017-06-11T09:35:00.999Z</time>
      </trkpt>
      <trkpt lat="47.46084" lon="6.60879">
        <ele>395.7</ele>
        <time>2017-06-11T09:35:01.999Z</time>
      </trkpt>
      <trkpt lat="47.46085" lon="6.60884">
        <ele>395.7</ele>
        <time>2017-06-11T09:35:02.999Z</time>
      </trkpt>
      <trkpt lat="47.46085" lon="6.60887">
        <ele>395.7</ele>
        <time>2017-06-11T09:35:03.999Z</time>
      </trkpt>
      <trkpt lat="47.46086" lon="6.6089">
        <ele>395.7</ele>
        <time>2017-06-11T09:35:04.999Z</time>
      </trkpt>
      <trkpt lat="47.46087" lon="6.60893">
        <ele>395.7</ele>
        <time>2017-06-11T09:35:05.999Z</time>
      </trkpt>
      <trkpt lat="47.46088" lon="6.60897">
        <ele>395.6</ele>
        <time>2017-06-11T09:35:06.999Z</time>
      </trkpt>
      <trkpt lat="47.46089" lon="6.60901">
        <ele>395.5</ele>
        <time>2017-06-11T09:35:07.999Z</time>
      </trkpt>
      <trkpt lat="47.46089" lon="6.60906">
        <ele>395.5</ele>
        <time>2017-06-11T09:35:08.999Z</time>
      </trkpt>
      <trkpt lat="47.4609" lon="6.6091">
        <ele>395.4</ele>
        <time>2017-06-11T09:35:09.999Z</time>
      </trkpt>
      <trkpt lat="47.4609" lon="6.60914">
        <ele>395.3</ele>
        <time>2017-06-11T09:35:10.999Z</time>
      </trkpt>
      <trkpt lat="47.4609" lon="6.60917">
        <ele>395.2</ele>
        <time>2017-06-11T09:35:11.999Z</time>
      </trkpt>
      <trkpt lat="47.46091" lon="6.6092">
        <ele>395.1</ele>
        <time>2017-06-11T09:35:12.999Z</time>
      </trkpt>
      <trkpt lat="47.46092" lon="6.60924">
        <ele>395.1</ele>
        <time>2017-06-11T09:35:13.999Z</time>
      </trkpt>
      <trkpt lat="47.46092" lon="6.60929">
        <ele>395</ele>
        <time>2017-06-11T09:35:14.999Z</time>
      </trkpt>
      <trkpt lat="47.46092" lon="6.60933">
        <ele>394.9</ele>
        <time>2017-06-11T09:35:15.999Z</time>
      </trkpt>
      <trkpt lat="47.46092" lon="6.60937">
        <ele>394.9</ele>
        <time>2017-06-11T09:35:16.999Z</time>
      </trkpt>
      <trkpt lat="47.46093" lon="6.60942">
        <ele>394.9</ele>
        <time>2017-06-11T09:35:17.999Z</time>
      </trkpt>
      <trkpt lat="47.46093" lon="6.60947">
        <ele>394.8</ele>
        <time>2017-06-11T09:35:18.999Z</time>
      </trkpt>
      <trkpt lat="47.46093" lon="6.60951">
        <ele>394.7</ele>
        <time>2017-06-11T09:35:19.999Z</time>
      </trkpt>
      <trkpt lat="47.46093" lon="6.60955">
        <ele>394.7</ele>
        <time>2017-06-11T09:35:20.999Z</time>
      </trkpt>
      <trkpt lat="47.46094" lon="6.60959">
        <ele>394.5</ele>
        <time>2017-06-11T09:35:21.999Z</time>
      </trkpt>
      <trkpt lat="47.46094" lon="6.60963">
        <ele>394.4</ele>
        <time>2017-06-11T09:35:22.999Z</time>
      </trkpt>
      <trkpt lat="47.46094" lon="6.60966">
        <ele>394.3</ele>
        <time>2017-06-11T09:35:23.999Z</time>
      </trkpt>
      <trkpt lat="47.46094" lon="6.60972">
        <ele>394</ele>
        <time>2017-06-11T09:35:25.999Z</time>
      </trkpt>
      <trkpt lat="47.46094" lon="6.60976">
        <ele>393.9</ele>
        <time>2017-06-11T09:35:26.999Z</time>
      </trkpt>
      <trkpt lat="47.46096" lon="6.60979">
        <ele>393.8</ele>
        <time>2017-06-11T09:35:27.999Z</time>
      </trkpt>
      <trkpt lat="47.46096" lon="6.60982">
        <ele>393.8</ele>
        <time>2017-06-11T09:35:28.999Z</time>
      </trkpt>
      <trkpt lat="47.46097" lon="6.60986">
        <ele>393.7</ele>
        <time>2017-06-11T09:35:29.999Z</time>
      </trkpt>
      <trkpt lat="47.46097" lon="6.60989">
        <ele>393.6</ele>
        <time>2017-06-11T09:35:30.999Z</time>
      </trkpt>
      <trkpt lat="47.46099" lon="6.60994">
        <ele>393.3</ele>
        <time>2017-06-11T09:35:32.999Z</time>
      </trkpt>
      <trkpt lat="47.461" lon="6.60998">
        <ele>393.2</ele>
        <time>2017-06-11T09:35:33.999Z</time>
      </trkpt>
      <trkpt lat="47.46102" lon="6.61002">
        <ele>393</ele>
        <time>2017-06-11T09:35:34.999Z</time>
      </trkpt>
      <trkpt lat="47.46103" lon="6.61005">
        <ele>392.8</ele>
        <time>2017-06-11T09:35:35.999Z</time>
      </trkpt>
      <trkpt lat="47.46105" lon="6.61008">
        <ele>392.7</ele>
        <time>2017-06-11T09:35:36.999Z</time>
      </trkpt>
      <trkpt lat="47.46106" lon="6.61012">
        <ele>392.6</ele>
        <time>2017-06-11T09:35:37.999Z</time>
      </trkpt>
      <trkpt lat="47.46107" lon="6.61016">
        <ele>392.4</ele>
        <time>2017-06-11T09:35:38.999Z</time>
      </trkpt>
      <trkpt lat="47.46108" lon="6.61019">
        <ele>392.2</ele>
        <time>2017-06-11T09:35:39.999Z</time>
      </trkpt>
      <trkpt lat="47.46109" lon="6.61023">
        <ele>392</ele>
        <time>2017-06-11T09:35:40.999Z</time>
      </trkpt>
      <trkpt lat="47.4611" lon="6.61026">
        <ele>391.9</ele>
        <time>2017-06-11T09:35:41.999Z</time>
      </trkpt>
      <trkpt lat="47.46111" lon="6.61029">
        <ele>391.9</ele>
        <time>2017-06-11T09:35:42.999Z</time>
      </trkpt>
      <trkpt lat="47.46113" lon="6.61033">
        <ele>391.7</ele>
        <time>2017-06-11T09:35:43.999Z</time>
      </trkpt>
      <trkpt lat="47.46114" lon="6.61037">
        <ele>391.5</ele>
        <time>2017-06-11T09:35:44.999Z</time>
      </trkpt>
      <trkpt lat="47.46116" lon="6.61041">
        <ele>391.4</ele>
        <time>2017-06-11T09:35:45.999Z</time>
      </trkpt>
      <trkpt lat="47.46118" lon="6.61045">
        <ele>391.4</ele>
        <time>2017-06-11T09:35:46.999Z</time>
      </trkpt>
      <trkpt lat="47.46119" lon="6.61049">
        <ele>391.4</ele>
        <time>2017-06-11T09:35:47.999Z</time>
      </trkpt>
      <trkpt lat="47.46121" lon="6.61054">
        <ele>391.5</ele>
        <time>2017-06-11T09:35:48.999Z</time>
      </trkpt>
      <trkpt lat="47.46122" lon="6.61059">
        <ele>391.6</ele>
        <time>2017-06-11T09:35:49.999Z</time>
      </trkpt>
      <trkpt lat="47.46124" lon="6.61064">
        <ele>391.8</ele>
        <time>2017-06-11T09:35:50.999Z</time>
      </trkpt>
      <trkpt lat="47.46125" lon="6.61068">
        <ele>391.9</ele>
        <time>2017-06-11T09:35:51.999Z</time>
      </trkpt>
      <trkpt lat="47.46126" lon="6.61072">
        <ele>392.1</ele>
        <time>2017-06-11T09:35:52.999Z</time>
      </trkpt>
      <trkpt lat="47.46126" lon="6.61074">
        <ele>392.1</ele>
        <time>2017-06-11T09:35:53.999Z</time>
      </trkpt>
      <trkpt lat="47.46128" lon="6.61078">
        <ele>392.2</ele>
        <time>2017-06-11T09:35:54.999Z</time>
      </trkpt>
      <trkpt lat="47.46129" lon="6.61081">
        <ele>392.3</ele>
        <time>2017-06-11T09:35:55.999Z</time>
      </trkpt>
      <trkpt lat="47.46129" lon="6.61083">
        <ele>392.3</ele>
        <time>2017-06-11T09:35:56.999Z</time>
      </trkpt>
      <trkpt lat="47.46131" lon="6.61087">
        <ele>392.4</ele>
        <time>2017-06-11T09:35:57.999Z</time>
      </trkpt>
      <trkpt lat="47.46132" lon="6.6109">
        <ele>392.4</ele>
        <time>2017-06-11T09:35:58.999Z</time>
      </trkpt>
      <trkpt lat="47.46132" lon="6.61093">
        <ele>392.6</ele>
        <time>2017-06-11T09:35:59.999Z</time>
      </trkpt>
      <trkpt lat="47.46133" lon="6.61096">
        <ele>392.8</ele>
        <time>2017-06-11T09:36:00.999Z</time>
      </trkpt>
      <trkpt lat="47.46133" lon="6.611">
        <ele>393</ele>
        <time>2017-06-11T09:36:01.999Z</time>
      </trkpt>
      <trkpt lat="47.46134" lon="6.61104">
        <ele>393.2</ele>
        <time>2017-06-11T09:36:02.999Z</time>
      </trkpt>
      <trkpt lat="47.46136" lon="6.61107">
        <ele>393.4</ele>
        <time>2017-06-11T09:36:03.999Z</time>
      </trkpt>
      <trkpt lat="47.46138" lon="6.6111">
        <ele>393.6</ele>
        <time>2017-06-11T09:36:04.999Z</time>
      </trkpt>
      <trkpt lat="47.46139" lon="6.61113">
        <ele>393.7</ele>
        <time>2017-06-11T09:36:05.999Z</time>
      </trkpt>
      <trkpt lat="47.4614" lon="6.61116">
        <ele>393.8</ele>
        <time>2017-06-11T09:36:06.999Z</time>
      </trkpt>
      <trkpt lat="47.46142" lon="6.6112">
        <ele>394</ele>
        <time>2017-06-11T09:36:07.999Z</time>
      </trkpt>
      <trkpt lat="47.46143" lon="6.61123">
        <ele>394.1</ele>
        <time>2017-06-11T09:36:08.999Z</time>
      </trkpt>
      <trkpt lat="47.46145" lon="6.61125">
        <ele>394.3</ele>
        <time>2017-06-11T09:36:09.999Z</time>
      </trkpt>
      <trkpt lat="47.46146" lon="6.61128">
        <ele>394.5</ele>
        <time>2017-06-11T09:36:10.999Z</time>
      </trkpt>
      <trkpt lat="47.46148" lon="6.61131">
        <ele>394.7</ele>
        <time>2017-06-11T09:36:11.999Z</time>
      </trkpt>
      <trkpt lat="47.46151" lon="6.61136">
        <ele>395.1</ele>
        <time>2017-06-11T09:36:13.999Z</time>
      </trkpt>
      <trkpt lat="47.46152" lon="6.61138">
        <ele>395.3</ele>
        <time>2017-06-11T09:36:14.999Z</time>
      </trkpt>
      <trkpt lat="47.46154" lon="6.61142">
        <ele>395.5</ele>
        <time>2017-06-11T09:36:16.999Z</time>
      </trkpt>
      <trkpt lat="47.46155" lon="6.61145">
        <ele>395.7</ele>
        <time>2017-06-11T09:36:17.999Z</time>
      </trkpt>
      <trkpt lat="47.46158" lon="6.61149">
        <ele>396</ele>
        <time>2017-06-11T09:36:19.999Z</time>
      </trkpt>
      <trkpt lat="47.46159" lon="6.61151">
        <ele>396.2</ele>
        <time>2017-06-11T09:36:20.999Z</time>
      </trkpt>
      <trkpt lat="47.4616" lon="6.61155">
        <ele>396.3</ele>
        <time>2017-06-11T09:36:22.999Z</time>
      </trkpt>
      <trkpt lat="47.46162" lon="6.61156">
        <ele>396.4</ele>
        <time>2017-06-11T09:36:23.999Z</time>
      </trkpt>
      <trkpt lat="47.46166" lon="6.61159">
        <ele>396.8</ele>
        <time>2017-06-11T09:36:25.999Z</time>
      </trkpt>
      <trkpt lat="47.46168" lon="6.61161">
        <ele>396.9</ele>
        <time>2017-06-11T09:36:27.000Z</time>
      </trkpt>
      <trkpt lat="47.46171" lon="6.61165">
        <ele>397.2</ele>
        <time>2017-06-11T09:36:28.999Z</time>
      </trkpt>
      <trkpt lat="47.46172" lon="6.61168">
        <ele>397.5</ele>
        <time>2017-06-11T09:36:30.000Z</time>
      </trkpt>
      <trkpt lat="47.46174" lon="6.61172">
        <ele>397.7</ele>
        <time>2017-06-11T09:36:32.000Z</time>
      </trkpt>
      <trkpt lat="47.46176" lon="6.61174">
        <ele>397.8</ele>
        <time>2017-06-11T09:36:33.000Z</time>
      </trkpt>
      <trkpt lat="47.46178" lon="6.61177">
        <ele>397.9</ele>
        <time>2017-06-11T09:36:34.000Z</time>
      </trkpt>
      <trkpt lat="47.4618" lon="6.61178">
        <ele>398</ele>
        <time>2017-06-11T09:36:35.000Z</time>
      </trkpt>
      <trkpt lat="47.46184" lon="6.61181">
        <ele>398.2</ele>
        <time>2017-06-11T09:36:37.000Z</time>
      </trkpt>
      <trkpt lat="47.46185" lon="6.61183">
        <ele>398.4</ele>
        <time>2017-06-11T09:36:38.000Z</time>
      </trkpt>
      <trkpt lat="47.46188" lon="6.61185">
        <ele>398.6</ele>
        <time>2017-06-11T09:36:40.000Z</time>
      </trkpt>
      <trkpt lat="47.4619" lon="6.61185">
        <ele>398.7</ele>
        <time>2017-06-11T09:36:41.000Z</time>
      </trkpt>
      <trkpt lat="47.46194" lon="6.61185">
        <ele>398.8</ele>
        <time>2017-06-11T09:36:43.000Z</time>
      </trkpt>
      <trkpt lat="47.46196" lon="6.61185">
        <ele>399</ele>
        <time>2017-06-11T09:36:44.000Z</time>
      </trkpt>
      <trkpt lat="47.462" lon="6.61184">
        <ele>399.5</ele>
        <time>2017-06-11T09:36:47.000Z</time>
      </trkpt>
      <trkpt lat="47.46201" lon="6.61184">
        <ele>399.7</ele>
        <time>2017-06-11T09:36:48.000Z</time>
      </trkpt>
      <trkpt lat="47.46206" lon="6.61184">
        <ele>399.9</ele>
        <time>2017-06-11T09:36:49.000Z</time>
      </trkpt>
      <trkpt lat="47.46208" lon="6.61184">
        <ele>400.1</ele>
        <time>2017-06-11T09:36:50.000Z</time>
      </trkpt>
      <trkpt lat="47.46213" lon="6.61187">
        <ele>400.2</ele>
        <time>2017-06-11T09:36:51.000Z</time>
      </trkpt>
      <trkpt lat="47.46216" lon="6.61191">
        <ele>400.4</ele>
        <time>2017-06-11T09:36:52.000Z</time>
      </trkpt>
      <trkpt lat="47.46218" lon="6.61194">
        <ele>400.5</ele>
        <time>2017-06-11T09:36:53.000Z</time>
      </trkpt>
      <trkpt lat="47.46221" lon="6.61197">
        <ele>400.6</ele>
        <time>2017-06-11T09:36:55.000Z</time>
      </trkpt>
      <trkpt lat="47.46222" lon="6.61198">
        <ele>400.7</ele>
        <time>2017-06-11T09:36:56.000Z</time>
      </trkpt>
      <trkpt lat="47.46224" lon="6.61203">
        <ele>401</ele>
        <time>2017-06-11T09:37:00.000Z</time>
      </trkpt>
      <trkpt lat="47.46224" lon="6.61204">
        <ele>401</ele>
        <time>2017-06-11T09:37:01.000Z</time>
      </trkpt>
      <trkpt lat="47.46224" lon="6.61205">
        <ele>400.9</ele>
        <time>2017-06-11T09:37:02.000Z</time>
      </trkpt>
      <trkpt lat="47.46226" lon="6.61211">
        <ele>400.9</ele>
        <time>2017-06-11T09:37:03.000Z</time>
      </trkpt>
      <trkpt lat="47.46227" lon="6.61217">
        <ele>401</ele>
        <time>2017-06-11T09:37:06.000Z</time>
      </trkpt>
      <trkpt lat="47.46227" lon="6.61218">
        <ele>401.1</ele>
        <time>2017-06-11T09:37:07.000Z</time>
      </trkpt>
      <trkpt lat="47.46224" lon="6.61223">
        <ele>401.2</ele>
        <time>2017-06-11T09:37:13.000Z</time>
      </trkpt>
      <trkpt lat="47.46223" lon="6.61224">
        <ele>401.2</ele>
        <time>2017-06-11T09:37:14.000Z</time>
      </trkpt>
      <trkpt lat="47.46225" lon="6.61225">
        <ele>401.4</ele>
        <time>2017-06-11T09:37:16.000Z</time>
      </trkpt>
      <trkpt lat="47.46226" lon="6.61229">
        <ele>401.4</ele>
        <time>2017-06-11T09:37:17.000Z</time>
      </trkpt>
      <trkpt lat="47.46226" lon="6.61235">
        <ele>401.6</ele>
        <time>2017-06-11T09:37:18.000Z</time>
      </trkpt>
      <trkpt lat="47.46226" lon="6.61236">
        <ele>401.8</ele>
        <time>2017-06-11T09:37:19.000Z</time>
      </trkpt>
      <trkpt lat="47.46228" lon="6.61242">
        <ele>402.3</ele>
        <time>2017-06-11T09:37:23.000Z</time>
      </trkpt>
      <trkpt lat="47.46228" lon="6.61244">
        <ele>402.5</ele>
        <time>2017-06-11T09:37:24.000Z</time>
      </trkpt>
      <trkpt lat="47.46227" lon="6.61246">
        <ele>403.1</ele>
        <time>2017-06-11T09:37:27.000Z</time>
      </trkpt>
      <trkpt lat="47.46229" lon="6.61252">
        <ele>403.3</ele>
        <time>2017-06-11T09:37:28.000Z</time>
      </trkpt>
      <trkpt lat="47.46229" lon="6.61259">
        <ele>403.5</ele>
        <time>2017-06-11T09:37:29.000Z</time>
      </trkpt>
      <trkpt lat="47.46231" lon="6.61264">
        <ele>404.4</ele>
        <time>2017-06-11T09:37:32.000Z</time>
      </trkpt>
      <trkpt lat="47.46231" lon="6.61265">
        <ele>404.7</ele>
        <time>2017-06-11T09:37:33.000Z</time>
      </trkpt>
      <trkpt lat="47.46231" lon="6.61271">
        <ele>406.1</ele>
        <time>2017-06-11T09:37:37.000Z</time>
      </trkpt>
      <trkpt lat="47.46232" lon="6.61272">
        <ele>406.4</ele>
        <time>2017-06-11T09:37:38.000Z</time>
      </trkpt>
      <trkpt lat="47.46235" lon="6.61275">
        <ele>407.9</ele>
        <time>2017-06-11T09:37:44.000Z</time>
      </trkpt>
      <trkpt lat="47.46236" lon="6.61276">
        <ele>408</ele>
        <time>2017-06-11T09:37:45.000Z</time>
      </trkpt>
      <trkpt lat="47.46238" lon="6.6128">
        <ele>408.2</ele>
        <time>2017-06-11T09:37:46.000Z</time>
      </trkpt>
      <trkpt lat="47.46238" lon="6.61282">
        <ele>408.2</ele>
        <time>2017-06-11T09:37:47.000Z</time>
      </trkpt>
      <trkpt lat="47.46241" lon="6.61286">
        <ele>408.4</ele>
        <time>2017-06-11T09:37:51.000Z</time>
      </trkpt>
      <trkpt lat="47.46241" lon="6.61289">
        <ele>408.6</ele>
        <time>2017-06-11T09:37:52.000Z</time>
      </trkpt>
      <trkpt lat="47.46245" lon="6.61292">
        <ele>409</ele>
        <time>2017-06-11T09:37:55.000Z</time>
      </trkpt>
      <trkpt lat="47.46246" lon="6.61293">
        <ele>409</ele>
        <time>2017-06-11T09:37:56.000Z</time>
      </trkpt>
      <trkpt lat="47.46247" lon="6.61294">
        <ele>409.1</ele>
        <time>2017-06-11T09:37:57.000Z</time>
      </trkpt>
      <trkpt lat="47.4625" lon="6.61298">
        <ele>409.1</ele>
        <time>2017-06-11T09:37:58.000Z</time>
      </trkpt>
      <trkpt lat="47.46251" lon="6.61303">
        <ele>409.6</ele>
        <time>2017-06-11T09:38:03.000Z</time>
      </trkpt>
      <trkpt lat="47.46252" lon="6.61305">
        <ele>409.8</ele>
        <time>2017-06-11T09:38:04.000Z</time>
      </trkpt>
      <trkpt lat="47.46256" lon="6.61308">
        <ele>410</ele>
        <time>2017-06-11T09:38:06.000Z</time>
      </trkpt>
      <trkpt lat="47.46257" lon="6.6131">
        <ele>410.1</ele>
        <time>2017-06-11T09:38:07.000Z</time>
      </trkpt>
      <trkpt lat="47.46257" lon="6.61312">
        <ele>410.4</ele>
        <time>2017-06-11T09:38:08.000Z</time>
      </trkpt>
      <trkpt lat="47.46258" lon="6.61316">
        <ele>410.6</ele>
        <time>2017-06-11T09:38:09.000Z</time>
      </trkpt>
      <trkpt lat="47.46255" lon="6.61318">
        <ele>411.6</ele>
        <time>2017-06-11T09:38:14.000Z</time>
      </trkpt>
      <trkpt lat="47.46253" lon="6.61323">
        <ele>411.9</ele>
        <time>2017-06-11T09:38:15.000Z</time>
      </trkpt>
      <trkpt lat="47.4625" lon="6.61328">
        <ele>412.3</ele>
        <time>2017-06-11T09:38:16.000Z</time>
      </trkpt>
      <trkpt lat="47.46247" lon="6.61331">
        <ele>412.8</ele>
        <time>2017-06-11T09:38:17.000Z</time>
      </trkpt>
      <trkpt lat="47.46246" lon="6.61338">
        <ele>415.5</ele>
        <time>2017-06-11T09:38:25.000Z</time>
      </trkpt>
      <trkpt lat="47.46244" lon="6.61339">
        <ele>415.8</ele>
        <time>2017-06-11T09:38:26.000Z</time>
      </trkpt>
      <trkpt lat="47.46241" lon="6.61342">
        <ele>416.2</ele>
        <time>2017-06-11T09:38:27.000Z</time>
      </trkpt>
      <trkpt lat="47.46238" lon="6.61344">
        <ele>416.6</ele>
        <time>2017-06-11T09:38:28.000Z</time>
      </trkpt>
      <trkpt lat="47.46238" lon="6.6135">
        <ele>417</ele>
        <time>2017-06-11T09:38:29.000Z</time>
      </trkpt>
      <trkpt lat="47.46235" lon="6.61355">
        <ele>417.5</ele>
        <time>2017-06-11T09:38:30.000Z</time>
      </trkpt>
      <trkpt lat="47.46234" lon="6.6136">
        <ele>418.9</ele>
        <time>2017-06-11T09:38:35.000Z</time>
      </trkpt>
      <trkpt lat="47.46233" lon="6.61363">
        <ele>419</ele>
        <time>2017-06-11T09:38:36.000Z</time>
      </trkpt>
      <trkpt lat="47.46232" lon="6.61364">
        <ele>419.8</ele>
        <time>2017-06-11T09:38:41.000Z</time>
      </trkpt>
      <trkpt lat="47.46229" lon="6.61375">
        <ele>420.1</ele>
        <time>2017-06-11T09:38:43.000Z</time>
      </trkpt>
      <trkpt lat="47.46226" lon="6.61379">
        <ele>420.3</ele>
        <time>2017-06-11T09:38:44.000Z</time>
      </trkpt>
      <trkpt lat="47.46224" lon="6.61384">
        <ele>420.3</ele>
        <time>2017-06-11T09:38:45.000Z</time>
      </trkpt>
      <trkpt lat="47.46222" lon="6.61391">
        <ele>420.3</ele>
        <time>2017-06-11T09:38:46.000Z</time>
      </trkpt>
      <trkpt lat="47.46223" lon="6.61395">
        <ele>420.8</ele>
        <time>2017-06-11T09:38:50.000Z</time>
      </trkpt>
      <trkpt lat="47.46225" lon="6.61405">
        <ele>421</ele>
        <time>2017-06-11T09:38:51.000Z</time>
      </trkpt>
      <trkpt lat="47.46226" lon="6.61411">
        <ele>421.4</ele>
        <time>2017-06-11T09:38:52.000Z</time>
      </trkpt>
      <trkpt lat="47.46223" lon="6.61415">
        <ele>421.6</ele>
        <time>2017-06-11T09:38:53.000Z</time>
      </trkpt>
      <trkpt lat="47.46221" lon="6.6142">
        <ele>423.1</ele>
        <time>2017-06-11T09:38:59.000Z</time>
      </trkpt>
      <trkpt lat="47.4622" lon="6.61421">
        <ele>423.3</ele>
        <time>2017-06-11T09:39:00.000Z</time>
      </trkpt>
      <trkpt lat="47.46221" lon="6.61425">
        <ele>424.1</ele>
        <time>2017-06-11T09:39:04.000Z</time>
      </trkpt>
      <trkpt lat="47.46219" lon="6.61431">
        <ele>424.3</ele>
        <time>2017-06-11T09:39:05.000Z</time>
      </trkpt>
      <trkpt lat="47.46217" lon="6.61439">
        <ele>424.5</ele>
        <time>2017-06-11T09:39:06.000Z</time>
      </trkpt>
      <trkpt lat="47.46219" lon="6.61447">
        <ele>424.7</ele>
        <time>2017-06-11T09:39:07.000Z</time>
      </trkpt>
      <trkpt lat="47.46221" lon="6.61453">
        <ele>424.8</ele>
        <time>2017-06-11T09:39:08.000Z</time>
      </trkpt>
      <trkpt lat="47.46224" lon="6.61458">
        <ele>424.9</ele>
        <time>2017-06-11T09:39:09.000Z</time>
      </trkpt>
      <trkpt lat="47.46222" lon="6.61465">
        <ele>425.1</ele>
        <time>2017-06-11T09:39:10.000Z</time>
      </trkpt>
      <trkpt lat="47.4622" lon="6.61473">
        <ele>425.4</ele>
        <time>2017-06-11T09:39:11.000Z</time>
      </trkpt>
      <trkpt lat="47.46218" lon="6.61482">
        <ele>425.6</ele>
        <time>2017-06-11T09:39:12.000Z</time>
      </trkpt>
      <trkpt lat="47.46218" lon="6.61483">
        <ele>425.8</ele>
        <time>2017-06-11T09:39:13.000Z</time>
      </trkpt>
      <trkpt lat="47.46217" lon="6.61488">
        <ele>426.1</ele>
        <time>2017-06-11T09:39:14.000Z</time>
      </trkpt>
      <trkpt lat="47.4622" lon="6.61492">
        <ele>426.3</ele>
        <time>2017-06-11T09:39:15.000Z</time>
      </trkpt>
      <trkpt lat="47.46219" lon="6.61494">
        <ele>426.6</ele>
        <time>2017-06-11T09:39:16.000Z</time>
      </trkpt>
      <trkpt lat="47.46219" lon="6.615">
        <ele>426.9</ele>
        <time>2017-06-11T09:39:17.000Z</time>
      </trkpt>
      <trkpt lat="47.46218" lon="6.61502">
        <ele>427.4</ele>
        <time>2017-06-11T09:39:18.000Z</time>
      </trkpt>
      <trkpt lat="47.46217" lon="6.61506">
        <ele>428</ele>
        <time>2017-06-11T09:39:20.000Z</time>
      </trkpt>
      <trkpt lat="47.4622" lon="6.61509">
        <ele>428.3</ele>
        <time>2017-06-11T09:39:21.000Z</time>
      </trkpt>
      <trkpt lat="47.46218" lon="6.61515">
        <ele>429.5</ele>
        <time>2017-06-11T09:39:24.000Z</time>
      </trkpt>
      <trkpt lat="47.46217" lon="6.61517">
        <ele>429.8</ele>
        <time>2017-06-11T09:39:25.000Z</time>
      </trkpt>
      <trkpt lat="47.46218" lon="6.61519">
        <ele>430.1</ele>
        <time>2017-06-11T09:39:26.000Z</time>
      </trkpt>
      <trkpt lat="47.46221" lon="6.61523">
        <ele>430.4</ele>
        <time>2017-06-11T09:39:27.000Z</time>
      </trkpt>
      <trkpt lat="47.46222" lon="6.61529">
        <ele>431</ele>
        <time>2017-06-11T09:39:29.000Z</time>
      </trkpt>
      <trkpt lat="47.46221" lon="6.61531">
        <ele>431.2</ele>
        <time>2017-06-11T09:39:30.000Z</time>
      </trkpt>
      <trkpt lat="47.4622" lon="6.61534">
        <ele>431.4</ele>
        <time>2017-06-11T09:39:31.000Z</time>
      </trkpt>
      <trkpt lat="47.4622" lon="6.61541">
        <ele>431.5</ele>
        <time>2017-06-11T09:39:32.000Z</time>
      </trkpt>
      <trkpt lat="47.46219" lon="6.61547">
        <ele>431.7</ele>
        <time>2017-06-11T09:39:33.000Z</time>
      </trkpt>
      <trkpt lat="47.46216" lon="6.61552">
        <ele>431.8</ele>
        <time>2017-06-11T09:39:34.000Z</time>
      </trkpt>
      <trkpt lat="47.46216" lon="6.61555">
        <ele>431.9</ele>
        <time>2017-06-11T09:39:35.000Z</time>
      </trkpt>
      <trkpt lat="47.46215" lon="6.6156">
        <ele>432.2</ele>
        <time>2017-06-11T09:39:38.000Z</time>
      </trkpt>
      <trkpt lat="47.46214" lon="6.61561">
        <ele>432.3</ele>
        <time>2017-06-11T09:39:39.000Z</time>
      </trkpt>
      <trkpt lat="47.46214" lon="6.61566">
        <ele>433.2</ele>
        <time>2017-06-11T09:39:45.000Z</time>
      </trkpt>
      <trkpt lat="47.46214" lon="6.61568">
        <ele>433.3</ele>
        <time>2017-06-11T09:39:46.000Z</time>
      </trkpt>
      <trkpt lat="47.46213" lon="6.61574">
        <ele>433.3</ele>
        <time>2017-06-11T09:39:47.000Z</time>
      </trkpt>
      <trkpt lat="47.46211" lon="6.61579">
        <ele>433.4</ele>
        <time>2017-06-11T09:39:48.000Z</time>
      </trkpt>
      <trkpt lat="47.46209" lon="6.61583">
        <ele>433.5</ele>
        <time>2017-06-11T09:39:49.000Z</time>
      </trkpt>
      <trkpt lat="47.46208" lon="6.61584">
        <ele>433.6</ele>
        <time>2017-06-11T09:39:50.000Z</time>
      </trkpt>
      <trkpt lat="47.46209" lon="6.61586">
        <ele>433.6</ele>
        <time>2017-06-11T09:39:51.000Z</time>
      </trkpt>
      <trkpt lat="47.4621" lon="6.61591">
        <ele>433.6</ele>
        <time>2017-06-11T09:39:52.000Z</time>
      </trkpt>
      <trkpt lat="47.46209" lon="6.61597">
        <ele>433.1</ele>
        <time>2017-06-11T09:39:57.000Z</time>
      </trkpt>
      <trkpt lat="47.46209" lon="6.616">
        <ele>433.1</ele>
        <time>2017-06-11T09:39:58.000Z</time>
      </trkpt>
      <trkpt lat="47.46207" lon="6.61605">
        <ele>434</ele>
        <time>2017-06-11T09:40:06.000Z</time>
      </trkpt>
      <trkpt lat="47.46203" lon="6.61608">
        <ele>434.2</ele>
        <time>2017-06-11T09:40:07.000Z</time>
      </trkpt>
      <trkpt lat="47.46202" lon="6.61613">
        <ele>434.5</ele>
        <time>2017-06-11T09:40:11.000Z</time>
      </trkpt>
      <trkpt lat="47.46203" lon="6.61619">
        <ele>434.4</ele>
        <time>2017-06-11T09:40:12.000Z</time>
      </trkpt>
      <trkpt lat="47.46205" lon="6.61626">
        <ele>434.4</ele>
        <time>2017-06-11T09:40:13.000Z</time>
      </trkpt>
      <trkpt lat="47.46206" lon="6.61632">
        <ele>434.1</ele>
        <time>2017-06-11T09:40:16.000Z</time>
      </trkpt>
      <trkpt lat="47.46207" lon="6.61634">
        <ele>433.8</ele>
        <time>2017-06-11T09:40:17.000Z</time>
      </trkpt>
      <trkpt lat="47.46208" lon="6.61635">
        <ele>433.8</ele>
        <time>2017-06-11T09:40:18.000Z</time>
      </trkpt>
      <trkpt lat="47.4621" lon="6.61641">
        <ele>433.7</ele>
        <time>2017-06-11T09:40:19.000Z</time>
      </trkpt>
      <trkpt lat="47.4621" lon="6.61648">
        <ele>433.6</ele>
        <time>2017-06-11T09:40:20.000Z</time>
      </trkpt>
      <trkpt lat="47.4621" lon="6.61655">
        <ele>433.5</ele>
        <time>2017-06-11T09:40:21.000Z</time>
      </trkpt>
      <trkpt lat="47.46208" lon="6.61661">
        <ele>433.3</ele>
        <time>2017-06-11T09:40:22.000Z</time>
      </trkpt>
      <trkpt lat="47.46205" lon="6.61667">
        <ele>433.2</ele>
        <time>2017-06-11T09:40:23.000Z</time>
      </trkpt>
      <trkpt lat="47.46203" lon="6.61673">
        <ele>433.1</ele>
        <time>2017-06-11T09:40:24.000Z</time>
      </trkpt>
      <trkpt lat="47.46201" lon="6.61678">
        <ele>432.9</ele>
        <time>2017-06-11T09:40:25.000Z</time>
      </trkpt>
      <trkpt lat="47.462" lon="6.61683">
        <ele>432.5</ele>
        <time>2017-06-11T09:40:28.000Z</time>
      </trkpt>
      <trkpt lat="47.46199" lon="6.61684">
        <ele>432.3</ele>
        <time>2017-06-11T09:40:29.000Z</time>
      </trkpt>
      <trkpt lat="47.46197" lon="6.61686">
        <ele>432.3</ele>
        <time>2017-06-11T09:40:31.000Z</time>
      </trkpt>
      <trkpt lat="47.46194" lon="6.61687">
        <ele>432.3</ele>
        <time>2017-06-11T09:40:32.000Z</time>
      </trkpt>
      <trkpt lat="47.46193" lon="6.61687">
        <ele>432.1</ele>
        <time>2017-06-11T09:40:33.000Z</time>
      </trkpt>
      <trkpt lat="47.46189" lon="6.61687">
        <ele>432</ele>
        <time>2017-06-11T09:40:34.000Z</time>
      </trkpt>
      <trkpt lat="47.46186" lon="6.61687">
        <ele>431.6</ele>
        <time>2017-06-11T09:40:38.000Z</time>
      </trkpt>
      <trkpt lat="47.46182" lon="6.61687">
        <ele>431.5</ele>
        <time>2017-06-11T09:40:39.000Z</time>
      </trkpt>
      <trkpt lat="47.46175" lon="6.61687">
        <ele>431.4</ele>
        <time>2017-06-11T09:40:40.000Z</time>
      </trkpt>
      <trkpt lat="47.46168" lon="6.61686">
        <ele>431.2</ele>
        <time>2017-06-11T09:40:41.000Z</time>
      </trkpt>
      <trkpt lat="47.4616" lon="6.61685">
        <ele>431.1</ele>
        <time>2017-06-11T09:40:42.000Z</time>
      </trkpt>
      <trkpt lat="47.46152" lon="6.61682">
        <ele>428.6</ele>
        <time>2017-06-11T09:40:43.000Z</time>
      </trkpt>
      <trkpt lat="47.46147" lon="6.6168">
        <ele>428.4</ele>
        <time>2017-06-11T09:40:44.000Z</time>
      </trkpt>
      <trkpt lat="47.4614" lon="6.61678">
        <ele>428.2</ele>
        <time>2017-06-11T09:40:45.000Z</time>
      </trkpt>
      <trkpt lat="47.46134" lon="6.61682">
        <ele>428.1</ele>
        <time>2017-06-11T09:40:46.000Z</time>
      </trkpt>
      <trkpt lat="47.4613" lon="6.61684">
        <ele>428</ele>
        <time>2017-06-11T09:40:47.000Z</time>
      </trkpt>
      <trkpt lat="47.46126" lon="6.61687">
        <ele>427.8</ele>
        <time>2017-06-11T09:40:48.000Z</time>
      </trkpt>
      <trkpt lat="47.46122" lon="6.61683">
        <ele>427.5</ele>
        <time>2017-06-11T09:40:49.000Z</time>
      </trkpt>
      <trkpt lat="47.46118" lon="6.61682">
        <ele>427.3</ele>
        <time>2017-06-11T09:40:50.000Z</time>
      </trkpt>
      <trkpt lat="47.46112" lon="6.6168">
        <ele>427</ele>
        <time>2017-06-11T09:40:51.000Z</time>
      </trkpt>
      <trkpt lat="47.46109" lon="6.61678">
        <ele>426.8</ele>
        <time>2017-06-11T09:40:52.000Z</time>
      </trkpt>
      <trkpt lat="47.46106" lon="6.61674">
        <ele>424.6</ele>
        <time>2017-06-11T09:40:53.000Z</time>
      </trkpt>
      <trkpt lat="47.46101" lon="6.61669">
        <ele>422.3</ele>
        <time>2017-06-11T09:40:54.000Z</time>
      </trkpt>
      <trkpt lat="47.46095" lon="6.61667">
        <ele>422.2</ele>
        <time>2017-06-11T09:40:55.000Z</time>
      </trkpt>
      <trkpt lat="47.46092" lon="6.61664">
        <ele>421.8</ele>
        <time>2017-06-11T09:40:57.000Z</time>
      </trkpt>
      <trkpt lat="47.46089" lon="6.61661">
        <ele>421.5</ele>
        <time>2017-06-11T09:40:58.000Z</time>
      </trkpt>
      <trkpt lat="47.46085" lon="6.61657">
        <ele>421.3</ele>
        <time>2017-06-11T09:40:59.000Z</time>
      </trkpt>
      <trkpt lat="47.46082" lon="6.6165">
        <ele>419.1</ele>
        <time>2017-06-11T09:41:00.000Z</time>
      </trkpt>
      <trkpt lat="47.46077" lon="6.61641">
        <ele>417.3</ele>
        <time>2017-06-11T09:41:01.000Z</time>
      </trkpt>
      <trkpt lat="47.46071" lon="6.61631">
        <ele>416</ele>
        <time>2017-06-11T09:41:02.000Z</time>
      </trkpt>
      <trkpt lat="47.4607" lon="6.61621">
        <ele>415.9</ele>
        <time>2017-06-11T09:41:03.000Z</time>
      </trkpt>
      <trkpt lat="47.46066" lon="6.61612">
        <ele>415.8</ele>
        <time>2017-06-11T09:41:04.000Z</time>
      </trkpt>
      <trkpt lat="47.46064" lon="6.61604">
        <ele>415.6</ele>
        <time>2017-06-11T09:41:05.000Z</time>
      </trkpt>
      <trkpt lat="47.46061" lon="6.61597">
        <ele>415.4</ele>
        <time>2017-06-11T09:41:06.000Z</time>
      </trkpt>
      <trkpt lat="47.4606" lon="6.61594">
        <ele>415.3</ele>
        <time>2017-06-11T09:41:08.000Z</time>
      </trkpt>
      <trkpt lat="47.4606" lon="6.61588">
        <ele>415.2</ele>
        <time>2017-06-11T09:41:09.000Z</time>
      </trkpt>
      <trkpt lat="47.46062" lon="6.61582">
        <ele>415</ele>
        <time>2017-06-11T09:41:10.000Z</time>
      </trkpt>
      <trkpt lat="47.46062" lon="6.61579">
        <ele>414.8</ele>
        <time>2017-06-11T09:41:11.000Z</time>
      </trkpt>
      <trkpt lat="47.46061" lon="6.61574">
        <ele>414.7</ele>
        <time>2017-06-11T09:41:12.000Z</time>
      </trkpt>
      <trkpt lat="47.4606" lon="6.61573">
        <ele>414.5</ele>
        <time>2017-06-11T09:41:13.000Z</time>
      </trkpt>
      <trkpt lat="47.46057" lon="6.61575">
        <ele>414.2</ele>
        <time>2017-06-11T09:41:14.000Z</time>
      </trkpt>
      <trkpt lat="47.46055" lon="6.61578">
        <ele>414.1</ele>
        <time>2017-06-11T09:41:15.000Z</time>
      </trkpt>
      <trkpt lat="47.46056" lon="6.61572">
        <ele>413.8</ele>
        <time>2017-06-11T09:41:17.000Z</time>
      </trkpt>
      <trkpt lat="47.46058" lon="6.61568">
        <ele>413.7</ele>
        <time>2017-06-11T09:41:18.000Z</time>
      </trkpt>
      <trkpt lat="47.4606" lon="6.61566">
        <ele>413.5</ele>
        <time>2017-06-11T09:41:19.000Z</time>
      </trkpt>
      <trkpt lat="47.46061" lon="6.61563">
        <ele>413.3</ele>
        <time>2017-06-11T09:41:20.000Z</time>
      </trkpt>
      <trkpt lat="47.46065" lon="6.6156">
        <ele>412.9</ele>
        <time>2017-06-11T09:41:23.000Z</time>
      </trkpt>
      <trkpt lat="47.46066" lon="6.61558">
        <ele>412.8</ele>
        <time>2017-06-11T09:41:24.000Z</time>
      </trkpt>
      <trkpt lat="47.46067" lon="6.61555">
        <ele>412.7</ele>
        <time>2017-06-11T09:41:25.000Z</time>
      </trkpt>
      <trkpt lat="47.46068" lon="6.61552">
        <ele>412.6</ele>
        <time>2017-06-11T09:41:26.000Z</time>
      </trkpt>
      <trkpt lat="47.46071" lon="6.6155">
        <ele>412.4</ele>
        <time>2017-06-11T09:41:27.000Z</time>
      </trkpt>
      <trkpt lat="47.46072" lon="6.61547">
        <ele>412.4</ele>
        <time>2017-06-11T09:41:28.000Z</time>
      </trkpt>
      <trkpt lat="47.46072" lon="6.61543">
        <ele>412.2</ele>
        <time>2017-06-11T09:41:29.000Z</time>
      </trkpt>
      <trkpt lat="47.46075" lon="6.61536">
        <ele>412.1</ele>
        <time>2017-06-11T09:41:30.000Z</time>
      </trkpt>
      <trkpt lat="47.46077" lon="6.6153">
        <ele>412</ele>
        <time>2017-06-11T09:41:31.000Z</time>
      </trkpt>
      <trkpt lat="47.46078" lon="6.61529">
        <ele>412</ele>
        <time>2017-06-11T09:41:32.000Z</time>
      </trkpt>
      <trkpt lat="47.46081" lon="6.61525">
        <ele>412.1</ele>
        <time>2017-06-11T09:41:35.000Z</time>
      </trkpt>
      <trkpt lat="47.46082" lon="6.61525">
        <ele>412.1</ele>
        <time>2017-06-11T09:41:36.000Z</time>
      </trkpt>
      <trkpt lat="47.46085" lon="6.6152">
        <ele>411.9</ele>
        <time>2017-06-11T09:41:39.000Z</time>
      </trkpt>
      <trkpt lat="47.46086" lon="6.61513">
        <ele>411.8</ele>
        <time>2017-06-11T09:41:40.000Z</time>
      </trkpt>
      <trkpt lat="47.46086" lon="6.61505">
        <ele>411.8</ele>
        <time>2017-06-11T09:41:41.000Z</time>
      </trkpt>
      <trkpt lat="47.46085" lon="6.61498">
        <ele>412</ele>
        <time>2017-06-11T09:41:42.000Z</time>
      </trkpt>
      <trkpt lat="47.46083" lon="6.615">
        <ele>412</ele>
        <time>2017-06-11T09:41:44.000Z</time>
      </trkpt>
      <trkpt lat="47.4608" lon="6.61503">
        <ele>412.1</ele>
        <time>2017-06-11T09:41:45.000Z</time>
      </trkpt>
      <trkpt lat="47.46076" lon="6.61506">
        <ele>413.2</ele>
        <time>2017-06-11T09:41:46.000Z</time>
      </trkpt>
      <trkpt lat="47.46072" lon="6.61508">
        <ele>414.4</ele>
        <time>2017-06-11T09:41:47.000Z</time>
      </trkpt>
      <trkpt lat="47.46067" lon="6.61506">
        <ele>414.6</ele>
        <time>2017-06-11T09:41:48.000Z</time>
      </trkpt>
      <trkpt lat="47.46062" lon="6.61505">
        <ele>414.8</ele>
        <time>2017-06-11T09:41:52.000Z</time>
      </trkpt>
      <trkpt lat="47.46061" lon="6.61503">
        <ele>414.8</ele>
        <time>2017-06-11T09:41:53.000Z</time>
      </trkpt>
      <trkpt lat="47.46059" lon="6.61498">
        <ele>414.8</ele>
        <time>2017-06-11T09:41:54.000Z</time>
      </trkpt>
      <trkpt lat="47.46057" lon="6.61494">
        <ele>414.8</ele>
        <time>2017-06-11T09:41:55.000Z</time>
      </trkpt>
      <trkpt lat="47.46058" lon="6.61492">
        <ele>414.8</ele>
        <time>2017-06-11T09:41:56.000Z</time>
      </trkpt>
      <trkpt lat="47.46059" lon="6.61486">
        <ele>414.8</ele>
        <time>2017-06-11T09:41:57.000Z</time>
      </trkpt>
      <trkpt lat="47.4606" lon="6.6148">
        <ele>414.9</ele>
        <time>2017-06-11T09:41:58.000Z</time>
      </trkpt>
      <trkpt lat="47.46058" lon="6.61473">
        <ele>414.9</ele>
        <time>2017-06-11T09:41:59.000Z</time>
      </trkpt>
      <trkpt lat="47.46057" lon="6.61467">
        <ele>415</ele>
        <time>2017-06-11T09:42:00.000Z</time>
      </trkpt>
      <trkpt lat="47.46058" lon="6.61462">
        <ele>415.3</ele>
        <time>2017-06-11T09:42:02.000Z</time>
      </trkpt>
      <trkpt lat="47.46058" lon="6.6146">
        <ele>415.4</ele>
        <time>2017-06-11T09:42:03.000Z</time>
      </trkpt>
      <trkpt lat="47.46055" lon="6.61457">
        <ele>415.2</ele>
        <time>2017-06-11T09:42:06.000Z</time>
      </trkpt>
      <trkpt lat="47.46054" lon="6.61455">
        <ele>415.1</ele>
        <time>2017-06-11T09:42:07.000Z</time>
      </trkpt>
      <trkpt lat="47.46056" lon="6.61451">
        <ele>414.8</ele>
        <time>2017-06-11T09:42:09.000Z</time>
      </trkpt>
      <trkpt lat="47.46057" lon="6.61449">
        <ele>414.6</ele>
        <time>2017-06-11T09:42:10.000Z</time>
      </trkpt>
      <trkpt lat="47.46057" lon="6.61446">
        <ele>414.4</ele>
        <time>2017-06-11T09:42:11.000Z</time>
      </trkpt>
      <trkpt lat="47.46056" lon="6.6144">
        <ele>414.3</ele>
        <time>2017-06-11T09:42:12.000Z</time>
      </trkpt>
      <trkpt lat="47.46057" lon="6.61434">
        <ele>413.8</ele>
        <time>2017-06-11T09:42:14.000Z</time>
      </trkpt>
      <trkpt lat="47.46056" lon="6.61428">
        <ele>413.6</ele>
        <time>2017-06-11T09:42:15.000Z</time>
      </trkpt>
      <trkpt lat="47.46054" lon="6.61422">
        <ele>413.5</ele>
        <time>2017-06-11T09:42:16.000Z</time>
      </trkpt>
      <trkpt lat="47.46051" lon="6.61416">
        <ele>413.3</ele>
        <time>2017-06-11T09:42:17.000Z</time>
      </trkpt>
      <trkpt lat="47.46048" lon="6.61406">
        <ele>413.2</ele>
        <time>2017-06-11T09:42:18.000Z</time>
      </trkpt>
      <trkpt lat="47.46046" lon="6.61395">
        <ele>413</ele>
        <time>2017-06-11T09:42:19.000Z</time>
      </trkpt>
      <trkpt lat="47.46045" lon="6.61387">
        <ele>413</ele>
        <time>2017-06-11T09:42:20.000Z</time>
      </trkpt>
      <trkpt lat="47.46045" lon="6.61379">
        <ele>412.8</ele>
        <time>2017-06-11T09:42:21.000Z</time>
      </trkpt>
      <trkpt lat="47.46042" lon="6.61372">
        <ele>412.7</ele>
        <time>2017-06-11T09:42:22.000Z</time>
      </trkpt>
      <trkpt lat="47.46037" lon="6.61364">
        <ele>411.4</ele>
        <time>2017-06-11T09:42:23.000Z</time>
      </trkpt>
      <trkpt lat="47.46034" lon="6.6136">
        <ele>410.2</ele>
        <time>2017-06-11T09:42:24.000Z</time>
      </trkpt>
      <trkpt lat="47.46032" lon="6.61356">
        <ele>410</ele>
        <time>2017-06-11T09:42:25.000Z</time>
      </trkpt>
      <trkpt lat="47.46031" lon="6.61351">
        <ele>409.9</ele>
        <time>2017-06-11T09:42:26.000Z</time>
      </trkpt>
      <trkpt lat="47.46032" lon="6.61348">
        <ele>409.8</ele>
        <time>2017-06-11T09:42:27.000Z</time>
      </trkpt>
      <trkpt lat="47.46033" lon="6.61343">
        <ele>409.4</ele>
        <time>2017-06-11T09:42:29.000Z</time>
      </trkpt>
      <trkpt lat="47.46035" lon="6.61339">
        <ele>409.2</ele>
        <time>2017-06-11T09:42:30.000Z</time>
      </trkpt>
      <trkpt lat="47.46035" lon="6.61337">
        <ele>409.1</ele>
        <time>2017-06-11T09:42:31.000Z</time>
      </trkpt>
      <trkpt lat="47.46036" lon="6.6133">
        <ele>409</ele>
        <time>2017-06-11T09:42:32.000Z</time>
      </trkpt>
      <trkpt lat="47.46036" lon="6.61321">
        <ele>409</ele>
        <time>2017-06-11T09:42:33.000Z</time>
      </trkpt>
      <trkpt lat="47.46035" lon="6.61311">
        <ele>408.9</ele>
        <time>2017-06-11T09:42:34.000Z</time>
      </trkpt>
      <trkpt lat="47.46032" lon="6.61304">
        <ele>408.8</ele>
        <time>2017-06-11T09:42:35.000Z</time>
      </trkpt>
      <trkpt lat="47.46028" lon="6.61298">
        <ele>408.7</ele>
        <time>2017-06-11T09:42:36.000Z</time>
      </trkpt>
      <trkpt lat="47.46026" lon="6.61294">
        <ele>408.3</ele>
        <time>2017-06-11T09:42:38.000Z</time>
      </trkpt>
      <trkpt lat="47.46023" lon="6.6129">
        <ele>408.2</ele>
        <time>2017-06-11T09:42:39.000Z</time>
      </trkpt>
      <trkpt lat="47.4602" lon="6.61285">
        <ele>406.7</ele>
        <time>2017-06-11T09:42:40.000Z</time>
      </trkpt>
      <trkpt lat="47.46019" lon="6.61281">
        <ele>406.7</ele>
        <time>2017-06-11T09:42:41.000Z</time>
      </trkpt>
      <trkpt lat="47.4602" lon="6.61278">
        <ele>406.6</ele>
        <time>2017-06-11T09:42:42.000Z</time>
      </trkpt>
      <trkpt lat="47.46018" lon="6.61269">
        <ele>406.5</ele>
        <time>2017-06-11T09:42:43.000Z</time>
      </trkpt>
      <trkpt lat="47.46015" lon="6.61261">
        <ele>406.3</ele>
        <time>2017-06-11T09:42:44.000Z</time>
      </trkpt>
      <trkpt lat="47.46014" lon="6.61254">
        <ele>406</ele>
        <time>2017-06-11T09:42:45.000Z</time>
      </trkpt>
      <trkpt lat="47.46013" lon="6.61247">
        <ele>405.8</ele>
        <time>2017-06-11T09:42:46.000Z</time>
      </trkpt>
      <trkpt lat="47.46011" lon="6.61242">
        <ele>405</ele>
        <time>2017-06-11T09:42:51.000Z</time>
      </trkpt>
      <trkpt lat="47.46008" lon="6.61242">
        <ele>404.9</ele>
        <time>2017-06-11T09:42:52.000Z</time>
      </trkpt>
      <trkpt lat="47.46006" lon="6.61245">
        <ele>404.6</ele>
        <time>2017-06-11T09:42:54.000Z</time>
      </trkpt>
      <trkpt lat="47.46004" lon="6.61245">
        <ele>404.6</ele>
        <time>2017-06-11T09:42:55.000Z</time>
      </trkpt>
      <trkpt lat="47.46002" lon="6.61245">
        <ele>404.4</ele>
        <time>2017-06-11T09:42:56.000Z</time>
      </trkpt>
      <trkpt lat="47.45997" lon="6.61245">
        <ele>404.3</ele>
        <time>2017-06-11T09:42:57.000Z</time>
      </trkpt>
      <trkpt lat="47.45996" lon="6.61244">
        <ele>404.2</ele>
        <time>2017-06-11T09:42:58.000Z</time>
      </trkpt>
      <trkpt lat="47.45991" lon="6.61243">
        <ele>404.1</ele>
        <time>2017-06-11T09:42:59.000Z</time>
      </trkpt>
      <trkpt lat="47.45987" lon="6.6124">
        <ele>404</ele>
        <time>2017-06-11T09:43:00.000Z</time>
      </trkpt>
      <trkpt lat="47.45983" lon="6.61239">
        <ele>403.5</ele>
        <time>2017-06-11T09:43:06.000Z</time>
      </trkpt>
      <trkpt lat="47.45982" lon="6.61239">
        <ele>403.4</ele>
        <time>2017-06-11T09:43:07.000Z</time>
      </trkpt>
      <trkpt lat="47.45978" lon="6.61238">
        <ele>403.4</ele>
        <time>2017-06-11T09:43:08.000Z</time>
      </trkpt>
      <trkpt lat="47.45974" lon="6.61236">
        <ele>403.3</ele>
        <time>2017-06-11T09:43:09.000Z</time>
      </trkpt>
      <trkpt lat="47.45973" lon="6.61235">
        <ele>403.3</ele>
        <time>2017-06-11T09:43:10.000Z</time>
      </trkpt>
      <trkpt lat="47.4597" lon="6.61233">
        <ele>403.2</ele>
        <time>2017-06-11T09:43:11.000Z</time>
      </trkpt>
      <trkpt lat="47.45967" lon="6.61233">
        <ele>403.1</ele>
        <time>2017-06-11T09:43:14.000Z</time>
      </trkpt>
      <trkpt lat="47.45963" lon="6.61232">
        <ele>403</ele>
        <time>2017-06-11T09:43:15.000Z</time>
      </trkpt>
      <trkpt lat="47.45958" lon="6.61231">
        <ele>403</ele>
        <time>2017-06-11T09:43:16.000Z</time>
      </trkpt>
      <trkpt lat="47.45955" lon="6.61235">
        <ele>403</ele>
        <time>2017-06-11T09:43:17.000Z</time>
      </trkpt>
      <trkpt lat="47.45952" lon="6.61241">
        <ele>403</ele>
        <time>2017-06-11T09:43:18.000Z</time>
      </trkpt>
      <trkpt lat="47.45951" lon="6.61247">
        <ele>403.4</ele>
        <time>2017-06-11T09:43:20.000Z</time>
      </trkpt>
      <trkpt lat="47.4595" lon="6.61249">
        <ele>403.7</ele>
        <time>2017-06-11T09:43:21.000Z</time>
      </trkpt>
      <trkpt lat="47.45948" lon="6.61253">
        <ele>404.2</ele>
        <time>2017-06-11T09:43:24.000Z</time>
      </trkpt>
      <trkpt lat="47.45947" lon="6.61254">
        <ele>404.4</ele>
        <time>2017-06-11T09:43:25.000Z</time>
      </trkpt>
      <trkpt lat="47.45944" lon="6.61258">
        <ele>405.4</ele>
        <time>2017-06-11T09:43:29.000Z</time>
      </trkpt>
      <trkpt lat="47.45943" lon="6.61259">
        <ele>405.7</ele>
        <time>2017-06-11T09:43:30.000Z</time>
      </trkpt>
      <trkpt lat="47.45939" lon="6.61259">
        <ele>406.6</ele>
        <time>2017-06-11T09:43:33.000Z</time>
      </trkpt>
      <trkpt lat="47.45939" lon="6.6126">
        <ele>406.8</ele>
        <time>2017-06-11T09:43:34.000Z</time>
      </trkpt>
      <trkpt lat="47.45936" lon="6.61264">
        <ele>407.2</ele>
        <time>2017-06-11T09:43:36.000Z</time>
      </trkpt>
      <trkpt lat="47.45935" lon="6.61265">
        <ele>407.4</ele>
        <time>2017-06-11T09:43:37.000Z</time>
      </trkpt>
      <trkpt lat="47.45931" lon="6.61267">
        <ele>407.9</ele>
        <time>2017-06-11T09:43:39.000Z</time>
      </trkpt>
      <trkpt lat="47.4593" lon="6.61269">
        <ele>408.2</ele>
        <time>2017-06-11T09:43:40.000Z</time>
      </trkpt>
      <trkpt lat="47.45926" lon="6.6127">
        <ele>409.2</ele>
        <time>2017-06-11T09:43:43.000Z</time>
      </trkpt>
      <trkpt lat="47.45924" lon="6.61271">
        <ele>409.4</ele>
        <time>2017-06-11T09:43:44.000Z</time>
      </trkpt>
      <trkpt lat="47.45921" lon="6.61273">
        <ele>409.6</ele>
        <time>2017-06-11T09:43:45.000Z</time>
      </trkpt>
      <trkpt lat="47.45919" lon="6.61273">
        <ele>409.8</ele>
        <time>2017-06-11T09:43:46.000Z</time>
      </trkpt>
      <trkpt lat="47.45915" lon="6.61272">
        <ele>410.2</ele>
        <time>2017-06-11T09:43:48.000Z</time>
      </trkpt>
      <trkpt lat="47.45913" lon="6.61271">
        <ele>410.5</ele>
        <time>2017-06-11T09:43:49.000Z</time>
      </trkpt>
      <trkpt lat="47.45909" lon="6.61273">
        <ele>411.1</ele>
        <time>2017-06-11T09:43:51.000Z</time>
      </trkpt>
      <trkpt lat="47.45909" lon="6.61274">
        <ele>411.5</ele>
        <time>2017-06-11T09:43:52.000Z</time>
      </trkpt>
      <trkpt lat="47.45907" lon="6.61275">
        <ele>411.9</ele>
        <time>2017-06-11T09:43:53.000Z</time>
      </trkpt>
      <trkpt lat="47.45903" lon="6.61276">
        <ele>412.2</ele>
        <time>2017-06-11T09:43:54.000Z</time>
      </trkpt>
      <trkpt lat="47.45901" lon="6.61276">
        <ele>412.6</ele>
        <time>2017-06-11T09:43:55.000Z</time>
      </trkpt>
      <trkpt lat="47.45897" lon="6.61277">
        <ele>412.8</ele>
        <time>2017-06-11T09:43:56.000Z</time>
      </trkpt>
      <trkpt lat="47.45894" lon="6.61278">
        <ele>413.4</ele>
        <time>2017-06-11T09:43:58.000Z</time>
      </trkpt>
      <trkpt lat="47.45892" lon="6.61278">
        <ele>413.7</ele>
        <time>2017-06-11T09:43:59.000Z</time>
      </trkpt>
      <trkpt lat="47.45889" lon="6.61279">
        <ele>414.3</ele>
        <time>2017-06-11T09:44:01.000Z</time>
      </trkpt>
      <trkpt lat="47.45886" lon="6.6128">
        <ele>414.5</ele>
        <time>2017-06-11T09:44:02.000Z</time>
      </trkpt>
      <trkpt lat="47.45883" lon="6.61281">
        <ele>414.9</ele>
        <time>2017-06-11T09:44:04.000Z</time>
      </trkpt>
      <trkpt lat="47.4588" lon="6.61282">
        <ele>415.1</ele>
        <time>2017-06-11T09:44:05.000Z</time>
      </trkpt>
      <trkpt lat="47.45876" lon="6.61285">
        <ele>415.1</ele>
        <time>2017-06-11T09:44:07.000Z</time>
      </trkpt>
      <trkpt lat="47.45873" lon="6.61288">
        <ele>415.1</ele>
        <time>2017-06-11T09:44:08.000Z</time>
      </trkpt>
      <trkpt lat="47.45869" lon="6.6129">
        <ele>415.1</ele>
        <time>2017-06-11T09:44:09.000Z</time>
      </trkpt>
      <trkpt lat="47.45867" lon="6.61293">
        <ele>415</ele>
        <time>2017-06-11T09:44:10.000Z</time>
      </trkpt>
      <trkpt lat="47.45865" lon="6.61295">
        <ele>415</ele>
        <time>2017-06-11T09:44:11.000Z</time>
      </trkpt>
      <trkpt lat="47.45859" lon="6.61297">
        <ele>414.9</ele>
        <time>2017-06-11T09:44:12.000Z</time>
      </trkpt>
      <trkpt lat="47.45853" lon="6.61299">
        <ele>414.9</ele>
        <time>2017-06-11T09:44:13.000Z</time>
      </trkpt>
      <trkpt lat="47.45849" lon="6.613">
        <ele>415.3</ele>
        <time>2017-06-11T09:44:14.000Z</time>
      </trkpt>
      <trkpt lat="47.45844" lon="6.61303">
        <ele>415.3</ele>
        <time>2017-06-11T09:44:15.000Z</time>
      </trkpt>
      <trkpt lat="47.45839" lon="6.61305">
        <ele>415.7</ele>
        <time>2017-06-11T09:44:16.000Z</time>
      </trkpt>
      <trkpt lat="47.45837" lon="6.61308">
        <ele>415.7</ele>
        <time>2017-06-11T09:44:17.000Z</time>
      </trkpt>
      <trkpt lat="47.45835" lon="6.6131">
        <ele>415.6</ele>
        <time>2017-06-11T09:44:18.000Z</time>
      </trkpt>
      <trkpt lat="47.45831" lon="6.61314">
        <ele>414.8</ele>
        <time>2017-06-11T09:44:19.000Z</time>
      </trkpt>
      <trkpt lat="47.45827" lon="6.61316">
        <ele>414.5</ele>
        <time>2017-06-11T09:44:20.000Z</time>
      </trkpt>
      <trkpt lat="47.45823" lon="6.6132">
        <ele>414.5</ele>
        <time>2017-06-11T09:44:21.000Z</time>
      </trkpt>
      <trkpt lat="47.45819" lon="6.61324">
        <ele>414.6</ele>
        <time>2017-06-11T09:44:22.000Z</time>
      </trkpt>
      <trkpt lat="47.45817" lon="6.61327">
        <ele>414.7</ele>
        <time>2017-06-11T09:44:23.000Z</time>
      </trkpt>
      <trkpt lat="47.45814" lon="6.61331">
        <ele>415.3</ele>
        <time>2017-06-11T09:44:24.000Z</time>
      </trkpt>
      <trkpt lat="47.45812" lon="6.61335">
        <ele>414.9</ele>
        <time>2017-06-11T09:44:25.000Z</time>
      </trkpt>
      <trkpt lat="47.45808" lon="6.61339">
        <ele>414.3</ele>
        <time>2017-06-11T09:44:26.000Z</time>
      </trkpt>
      <trkpt lat="47.45804" lon="6.61342">
        <ele>413.4</ele>
        <time>2017-06-11T09:44:27.000Z</time>
      </trkpt>
      <trkpt lat="47.45802" lon="6.61346">
        <ele>413.3</ele>
        <time>2017-06-11T09:44:28.000Z</time>
      </trkpt>
      <trkpt lat="47.45796" lon="6.61351">
        <ele>412.9</ele>
        <time>2017-06-11T09:44:29.000Z</time>
      </trkpt>
      <trkpt lat="47.45791" lon="6.61355">
        <ele>412.9</ele>
        <time>2017-06-11T09:44:30.000Z</time>
      </trkpt>
      <trkpt lat="47.45786" lon="6.61359">
        <ele>413</ele>
        <time>2017-06-11T09:44:31.000Z</time>
      </trkpt>
      <trkpt lat="47.45784" lon="6.61361">
        <ele>413</ele>
        <time>2017-06-11T09:44:32.000Z</time>
      </trkpt>
      <trkpt lat="47.45779" lon="6.61364">
        <ele>413.1</ele>
        <time>2017-06-11T09:44:33.000Z</time>
      </trkpt>
      <trkpt lat="47.45777" lon="6.61365">
        <ele>413.1</ele>
        <time>2017-06-11T09:44:34.000Z</time>
      </trkpt>
      <trkpt lat="47.45775" lon="6.61366">
        <ele>413.2</ele>
        <time>2017-06-11T09:44:35.000Z</time>
      </trkpt>
      <trkpt lat="47.4577" lon="6.61368">
        <ele>413.4</ele>
        <time>2017-06-11T09:44:37.000Z</time>
      </trkpt>
      <trkpt lat="47.45768" lon="6.61371">
        <ele>413.3</ele>
        <time>2017-06-11T09:44:38.000Z</time>
      </trkpt>
      <trkpt lat="47.45765" lon="6.61376">
        <ele>413.3</ele>
        <time>2017-06-11T09:44:39.000Z</time>
      </trkpt>
      <trkpt lat="47.45762" lon="6.6138">
        <ele>413.4</ele>
        <time>2017-06-11T09:44:40.000Z</time>
      </trkpt>
      <trkpt lat="47.45761" lon="6.61382">
        <ele>413.4</ele>
        <time>2017-06-11T09:44:41.000Z</time>
      </trkpt>
      <trkpt lat="47.45758" lon="6.61387">
        <ele>413.4</ele>
        <time>2017-06-11T09:44:42.000Z</time>
      </trkpt>
      <trkpt lat="47.45755" lon="6.61391">
        <ele>413.6</ele>
        <time>2017-06-11T09:44:44.000Z</time>
      </trkpt>
      <trkpt lat="47.45754" lon="6.61394">
        <ele>413.7</ele>
        <time>2017-06-11T09:44:45.000Z</time>
      </trkpt>
      <trkpt lat="47.45752" lon="6.61397">
        <ele>413.9</ele>
        <time>2017-06-11T09:44:46.000Z</time>
      </trkpt>
      <trkpt lat="47.45749" lon="6.61402">
        <ele>414</ele>
        <time>2017-06-11T09:44:47.000Z</time>
      </trkpt>
      <trkpt lat="47.45747" lon="6.61409">
        <ele>414.2</ele>
        <time>2017-06-11T09:44:48.000Z</time>
      </trkpt>
      <trkpt lat="47.45746" lon="6.61412">
        <ele>414.3</ele>
        <time>2017-06-11T09:44:49.000Z</time>
      </trkpt>
      <trkpt lat="47.45741" lon="6.61415">
        <ele>414.4</ele>
        <time>2017-06-11T09:44:50.000Z</time>
      </trkpt>
      <trkpt lat="47.45737" lon="6.61419">
        <ele>414.7</ele>
        <time>2017-06-11T09:44:52.000Z</time>
      </trkpt>
      <trkpt lat="47.45737" lon="6.61421">
        <ele>414.9</ele>
        <time>2017-06-11T09:44:53.000Z</time>
      </trkpt>
      <trkpt lat="47.45736" lon="6.61424">
        <ele>415.2</ele>
        <time>2017-06-11T09:44:54.000Z</time>
      </trkpt>
      <trkpt lat="47.45735" lon="6.61427">
        <ele>415.5</ele>
        <time>2017-06-11T09:44:55.000Z</time>
      </trkpt>
      <trkpt lat="47.45732" lon="6.61429">
        <ele>415.9</ele>
        <time>2017-06-11T09:44:56.000Z</time>
      </trkpt>
      <trkpt lat="47.45729" lon="6.61433">
        <ele>416.2</ele>
        <time>2017-06-11T09:44:57.000Z</time>
      </trkpt>
      <trkpt lat="47.45727" lon="6.61436">
        <ele>416.9</ele>
        <time>2017-06-11T09:44:59.000Z</time>
      </trkpt>
      <trkpt lat="47.45726" lon="6.61438">
        <ele>417.4</ele>
        <time>2017-06-11T09:45:00.000Z</time>
      </trkpt>
      <trkpt lat="47.45724" lon="6.61443">
        <ele>418.1</ele>
        <time>2017-06-11T09:45:02.000Z</time>
      </trkpt>
      <trkpt lat="47.45723" lon="6.61447">
        <ele>418.5</ele>
        <time>2017-06-11T09:45:03.000Z</time>
      </trkpt>
      <trkpt lat="47.45721" lon="6.6145">
        <ele>419.2</ele>
        <time>2017-06-11T09:45:05.000Z</time>
      </trkpt>
      <trkpt lat="47.45719" lon="6.61451">
        <ele>419.6</ele>
        <time>2017-06-11T09:45:06.000Z</time>
      </trkpt>
      <trkpt lat="47.45717" lon="6.61454">
        <ele>419.9</ele>
        <time>2017-06-11T09:45:07.000Z</time>
      </trkpt>
      <trkpt lat="47.45714" lon="6.61458">
        <ele>420.2</ele>
        <time>2017-06-11T09:45:08.000Z</time>
      </trkpt>
      <trkpt lat="47.45711" lon="6.61461">
        <ele>420.5</ele>
        <time>2017-06-11T09:45:09.000Z</time>
      </trkpt>
      <trkpt lat="47.45708" lon="6.61465">
        <ele>420.8</ele>
        <time>2017-06-11T09:45:10.000Z</time>
      </trkpt>
      <trkpt lat="47.45705" lon="6.6147">
        <ele>421</ele>
        <time>2017-06-11T09:45:11.000Z</time>
      </trkpt>
      <trkpt lat="47.45705" lon="6.61472">
        <ele>421.2</ele>
        <time>2017-06-11T09:45:12.000Z</time>
      </trkpt>
      <trkpt lat="47.45705" lon="6.61479">
        <ele>421.5</ele>
        <time>2017-06-11T09:45:13.000Z</time>
      </trkpt>
      <trkpt lat="47.45704" lon="6.61483">
        <ele>421.7</ele>
        <time>2017-06-11T09:45:15.000Z</time>
      </trkpt>
      <trkpt lat="47.45702" lon="6.61486">
        <ele>421.7</ele>
        <time>2017-06-11T09:45:16.000Z</time>
      </trkpt>
      <trkpt lat="47.45701" lon="6.61488">
        <ele>421.7</ele>
        <time>2017-06-11T09:45:17.000Z</time>
      </trkpt>
      <trkpt lat="47.45698" lon="6.61493">
        <ele>421.8</ele>
        <time>2017-06-11T09:45:18.000Z</time>
      </trkpt>
      <trkpt lat="47.45697" lon="6.61499">
        <ele>421.8</ele>
        <time>2017-06-11T09:45:19.000Z</time>
      </trkpt>
      <trkpt lat="47.45697" lon="6.61501">
        <ele>421.9</ele>
        <time>2017-06-11T09:45:20.000Z</time>
      </trkpt>
      <trkpt lat="47.45697" lon="6.61506">
        <ele>422.1</ele>
        <time>2017-06-11T09:45:22.000Z</time>
      </trkpt>
      <trkpt lat="47.45697" lon="6.61508">
        <ele>422.1</ele>
        <time>2017-06-11T09:45:23.000Z</time>
      </trkpt>
      <trkpt lat="47.45698" lon="6.61513">
        <ele>422.1</ele>
        <time>2017-06-11T09:45:25.000Z</time>
      </trkpt>
      <trkpt lat="47.45698" lon="6.61518">
        <ele>422.1</ele>
        <time>2017-06-11T09:45:26.000Z</time>
      </trkpt>
      <trkpt lat="47.45695" lon="6.61522">
        <ele>422.2</ele>
        <time>2017-06-11T09:45:34.000Z</time>
      </trkpt>
      <trkpt lat="47.45696" lon="6.61525">
        <ele>422.1</ele>
        <time>2017-06-11T09:45:35.000Z</time>
      </trkpt>
      <trkpt lat="47.45699" lon="6.61528">
        <ele>422.1</ele>
        <time>2017-06-11T09:45:36.000Z</time>
      </trkpt>
      <trkpt lat="47.45702" lon="6.61531">
        <ele>422</ele>
        <time>2017-06-11T09:45:37.000Z</time>
      </trkpt>
      <trkpt lat="47.45703" lon="6.61533">
        <ele>422</ele>
        <time>2017-06-11T09:45:38.000Z</time>
      </trkpt>
      <trkpt lat="47.45705" lon="6.61539">
        <ele>421.9</ele>
        <time>2017-06-11T09:45:39.000Z</time>
      </trkpt>
      <trkpt lat="47.45707" lon="6.61542">
        <ele>421.9</ele>
        <time>2017-06-11T09:45:42.000Z</time>
      </trkpt>
      <trkpt lat="47.45708" lon="6.61543">
        <ele>421.9</ele>
        <time>2017-06-11T09:45:43.000Z</time>
      </trkpt>
      <trkpt lat="47.4571" lon="6.61547">
        <ele>422</ele>
        <time>2017-06-11T09:45:45.000Z</time>
      </trkpt>
      <trkpt lat="47.45711" lon="6.61548">
        <ele>422</ele>
        <time>2017-06-11T09:45:46.000Z</time>
      </trkpt>
      <trkpt lat="47.45715" lon="6.61552">
        <ele>422</ele>
        <time>2017-06-11T09:45:50.000Z</time>
      </trkpt>
      <trkpt lat="47.45717" lon="6.61553">
        <ele>422.1</ele>
        <time>2017-06-11T09:45:51.000Z</time>
      </trkpt>
      <trkpt lat="47.45721" lon="6.61556">
        <ele>422.2</ele>
        <time>2017-06-11T09:45:54.000Z</time>
      </trkpt>
      <trkpt lat="47.45725" lon="6.6156">
        <ele>422.3</ele>
        <time>2017-06-11T09:45:55.000Z</time>
      </trkpt>
      <trkpt lat="47.45727" lon="6.61563">
        <ele>422.4</ele>
        <time>2017-06-11T09:45:56.000Z</time>
      </trkpt>
      <trkpt lat="47.4573" lon="6.61567">
        <ele>422.6</ele>
        <time>2017-06-11T09:45:57.000Z</time>
      </trkpt>
      <trkpt lat="47.45733" lon="6.61571">
        <ele>422.7</ele>
        <time>2017-06-11T09:45:58.000Z</time>
      </trkpt>
      <trkpt lat="47.45736" lon="6.61575">
        <ele>422.9</ele>
        <time>2017-06-11T09:46:02.000Z</time>
      </trkpt>
      <trkpt lat="47.4574" lon="6.61577">
        <ele>422.9</ele>
        <time>2017-06-11T09:46:03.000Z</time>
      </trkpt>
      <trkpt lat="47.45744" lon="6.6158">
        <ele>422.9</ele>
        <time>2017-06-11T09:46:06.000Z</time>
      </trkpt>
      <trkpt lat="47.45745" lon="6.61582">
        <ele>423.1</ele>
        <time>2017-06-11T09:46:07.000Z</time>
      </trkpt>
      <trkpt lat="47.45748" lon="6.61585">
        <ele>423.3</ele>
        <time>2017-06-11T09:46:08.000Z</time>
      </trkpt>
      <trkpt lat="47.4575" lon="6.61586">
        <ele>423.6</ele>
        <time>2017-06-11T09:46:09.000Z</time>
      </trkpt>
      <trkpt lat="47.45753" lon="6.61588">
        <ele>424.6</ele>
        <time>2017-06-11T09:46:13.000Z</time>
      </trkpt>
      <trkpt lat="47.45754" lon="6.6159">
        <ele>424.8</ele>
        <time>2017-06-11T09:46:14.000Z</time>
      </trkpt>
      <trkpt lat="47.45756" lon="6.61594">
        <ele>425</ele>
        <time>2017-06-11T09:46:16.000Z</time>
      </trkpt>
      <trkpt lat="47.45757" lon="6.61595">
        <ele>425.2</ele>
        <time>2017-06-11T09:46:17.000Z</time>
      </trkpt>
      <trkpt lat="47.45758" lon="6.61595">
        <ele>425.4</ele>
        <time>2017-06-11T09:46:18.000Z</time>
      </trkpt>
      <trkpt lat="47.45761" lon="6.61598">
        <ele>425.7</ele>
        <time>2017-06-11T09:46:19.000Z</time>
      </trkpt>
      <trkpt lat="47.45765" lon="6.61602">
        <ele>426.2</ele>
        <time>2017-06-11T09:46:22.000Z</time>
      </trkpt>
      <trkpt lat="47.45768" lon="6.61607">
        <ele>426.3</ele>
        <time>2017-06-11T09:46:23.000Z</time>
      </trkpt>
      <trkpt lat="47.45772" lon="6.6161">
        <ele>426.2</ele>
        <time>2017-06-11T09:46:24.000Z</time>
      </trkpt>
      <trkpt lat="47.45774" lon="6.61613">
        <ele>426.4</ele>
        <time>2017-06-11T09:46:26.000Z</time>
      </trkpt>
      <trkpt lat="47.45777" lon="6.61615">
        <ele>426.5</ele>
        <time>2017-06-11T09:46:27.000Z</time>
      </trkpt>
      <trkpt lat="47.45779" lon="6.61618">
        <ele>426.7</ele>
        <time>2017-06-11T09:46:29.000Z</time>
      </trkpt>
      <trkpt lat="47.45782" lon="6.61623">
        <ele>426.8</ele>
        <time>2017-06-11T09:46:30.000Z</time>
      </trkpt>
      <trkpt lat="47.45785" lon="6.61626">
        <ele>426.9</ele>
        <time>2017-06-11T09:46:32.000Z</time>
      </trkpt>
      <trkpt lat="47.45787" lon="6.61627">
        <ele>427</ele>
        <time>2017-06-11T09:46:33.000Z</time>
      </trkpt>
      <trkpt lat="47.45789" lon="6.61629">
        <ele>427.1</ele>
        <time>2017-06-11T09:46:34.000Z</time>
      </trkpt>
      <trkpt lat="47.45791" lon="6.61631">
        <ele>427.1</ele>
        <time>2017-06-11T09:46:35.000Z</time>
      </trkpt>
      <trkpt lat="47.45793" lon="6.61634">
        <ele>427.1</ele>
        <time>2017-06-11T09:46:36.000Z</time>
      </trkpt>
      <trkpt lat="47.45795" lon="6.61635">
        <ele>427.1</ele>
        <time>2017-06-11T09:46:37.000Z</time>
      </trkpt>
      <trkpt lat="47.45797" lon="6.61638">
        <ele>427.1</ele>
        <time>2017-06-11T09:46:38.000Z</time>
      </trkpt>
      <trkpt lat="47.45799" lon="6.61641">
        <ele>427</ele>
        <time>2017-06-11T09:46:39.000Z</time>
      </trkpt>
      <trkpt lat="47.45801" lon="6.61644">
        <ele>427</ele>
        <time>2017-06-11T09:46:40.000Z</time>
      </trkpt>
      <trkpt lat="47.45805" lon="6.61646">
        <ele>426.9</ele>
        <time>2017-06-11T09:46:41.000Z</time>
      </trkpt>
      <trkpt lat="47.45808" lon="6.61649">
        <ele>426.6</ele>
        <time>2017-06-11T09:46:43.000Z</time>
      </trkpt>
      <trkpt lat="47.4581" lon="6.61651">
        <ele>426.5</ele>
        <time>2017-06-11T09:46:44.000Z</time>
      </trkpt>
      <trkpt lat="47.45812" lon="6.61653">
        <ele>426.4</ele>
        <time>2017-06-11T09:46:45.000Z</time>
      </trkpt>
      <trkpt lat="47.45814" lon="6.61654">
        <ele>426.3</ele>
        <time>2017-06-11T09:46:46.000Z</time>
      </trkpt>
      <trkpt lat="47.45816" lon="6.61657">
        <ele>426.2</ele>
        <time>2017-06-11T09:46:47.000Z</time>
      </trkpt>
      <trkpt lat="47.45821" lon="6.61661">
        <ele>426.1</ele>
        <time>2017-06-11T09:46:48.000Z</time>
      </trkpt>
      <trkpt lat="47.45824" lon="6.61663">
        <ele>426</ele>
        <time>2017-06-11T09:46:49.000Z</time>
      </trkpt>
      <trkpt lat="47.45828" lon="6.61666">
        <ele>425.7</ele>
        <time>2017-06-11T09:46:50.000Z</time>
      </trkpt>
      <trkpt lat="47.4583" lon="6.61668">
        <ele>425.5</ele>
        <time>2017-06-11T09:46:51.000Z</time>
      </trkpt>
      <trkpt lat="47.45832" lon="6.6167">
        <ele>425.3</ele>
        <time>2017-06-11T09:46:52.000Z</time>
      </trkpt>
      <trkpt lat="47.45835" lon="6.61673">
        <ele>425</ele>
        <time>2017-06-11T09:46:53.000Z</time>
      </trkpt>
      <trkpt lat="47.45837" lon="6.61676">
        <ele>424.8</ele>
        <time>2017-06-11T09:46:54.000Z</time>
      </trkpt>
      <trkpt lat="47.45841" lon="6.6168">
        <ele>424.6</ele>
        <time>2017-06-11T09:46:55.000Z</time>
      </trkpt>
      <trkpt lat="47.45843" lon="6.61681">
        <ele>424.4</ele>
        <time>2017-06-11T09:46:56.000Z</time>
      </trkpt>
      <trkpt lat="47.45844" lon="6.61682">
        <ele>424.2</ele>
        <time>2017-06-11T09:46:57.000Z</time>
      </trkpt>
      <trkpt lat="47.45847" lon="6.61684">
        <ele>424</ele>
        <time>2017-06-11T09:46:58.000Z</time>
      </trkpt>
      <trkpt lat="47.45849" lon="6.61686">
        <ele>423.9</ele>
        <time>2017-06-11T09:46:59.000Z</time>
      </trkpt>
      <trkpt lat="47.45852" lon="6.61688">
        <ele>423.8</ele>
        <time>2017-06-11T09:47:00.000Z</time>
      </trkpt>
      <trkpt lat="47.45856" lon="6.61694">
        <ele>423.8</ele>
        <time>2017-06-11T09:47:01.000Z</time>
      </trkpt>
      <trkpt lat="47.45858" lon="6.61697">
        <ele>423.7</ele>
        <time>2017-06-11T09:47:02.000Z</time>
      </trkpt>
      <trkpt lat="47.4586" lon="6.617">
        <ele>423.7</ele>
        <time>2017-06-11T09:47:03.000Z</time>
      </trkpt>
      <trkpt lat="47.45863" lon="6.61704">
        <ele>423.6</ele>
        <time>2017-06-11T09:47:04.000Z</time>
      </trkpt>
      <trkpt lat="47.45867" lon="6.61709">
        <ele>423.5</ele>
        <time>2017-06-11T09:47:05.000Z</time>
      </trkpt>
      <trkpt lat="47.45868" lon="6.61711">
        <ele>423.4</ele>
        <time>2017-06-11T09:47:06.000Z</time>
      </trkpt>
      <trkpt lat="47.45871" lon="6.61714">
        <ele>423.4</ele>
        <time>2017-06-11T09:47:07.000Z</time>
      </trkpt>
      <trkpt lat="47.45876" lon="6.61718">
        <ele>423.3</ele>
        <time>2017-06-11T09:47:08.000Z</time>
      </trkpt>
      <trkpt lat="47.45879" lon="6.6172">
        <ele>423.2</ele>
        <time>2017-06-11T09:47:09.000Z</time>
      </trkpt>
      <trkpt lat="47.45881" lon="6.61722">
        <ele>423.2</ele>
        <time>2017-06-11T09:47:10.000Z</time>
      </trkpt>
      <trkpt lat="47.45883" lon="6.61724">
        <ele>423.2</ele>
        <time>2017-06-11T09:47:11.000Z</time>
      </trkpt>
      <trkpt lat="47.45888" lon="6.61729">
        <ele>423.1</ele>
        <time>2017-06-11T09:47:12.000Z</time>
      </trkpt>
      <trkpt lat="47.45891" lon="6.61731">
        <ele>422</ele>
        <time>2017-06-11T09:47:13.000Z</time>
      </trkpt>
      <trkpt lat="47.45893" lon="6.61733">
        <ele>421.9</ele>
        <time>2017-06-11T09:47:14.000Z</time>
      </trkpt>
      <trkpt lat="47.45895" lon="6.61736">
        <ele>421.9</ele>
        <time>2017-06-11T09:47:15.000Z</time>
      </trkpt>
      <trkpt lat="47.45898" lon="6.61741">
        <ele>421.8</ele>
        <time>2017-06-11T09:47:16.000Z</time>
      </trkpt>
      <trkpt lat="47.45902" lon="6.61747">
        <ele>421.8</ele>
        <time>2017-06-11T09:47:17.000Z</time>
      </trkpt>
      <trkpt lat="47.45904" lon="6.6175">
        <ele>421.8</ele>
        <time>2017-06-11T09:47:18.000Z</time>
      </trkpt>
      <trkpt lat="47.45905" lon="6.61753">
        <ele>421.9</ele>
        <time>2017-06-11T09:47:19.000Z</time>
      </trkpt>
      <trkpt lat="47.45906" lon="6.61756">
        <ele>421.9</ele>
        <time>2017-06-11T09:47:20.000Z</time>
      </trkpt>
      <trkpt lat="47.4591" lon="6.61761">
        <ele>422</ele>
        <time>2017-06-11T09:47:21.000Z</time>
      </trkpt>
      <trkpt lat="47.45913" lon="6.61764">
        <ele>422.2</ele>
        <time>2017-06-11T09:47:22.000Z</time>
      </trkpt>
      <trkpt lat="47.45917" lon="6.61767">
        <ele>422.3</ele>
        <time>2017-06-11T09:47:23.000Z</time>
      </trkpt>
      <trkpt lat="47.45919" lon="6.6177">
        <ele>422.4</ele>
        <time>2017-06-11T09:47:24.000Z</time>
      </trkpt>
      <trkpt lat="47.4592" lon="6.61773">
        <ele>422.5</ele>
        <time>2017-06-11T09:47:25.000Z</time>
      </trkpt>
      <trkpt lat="47.45922" lon="6.61777">
        <ele>422.7</ele>
        <time>2017-06-11T09:47:26.000Z</time>
      </trkpt>
      <trkpt lat="47.45923" lon="6.61781">
        <ele>422.9</ele>
        <time>2017-06-11T09:47:27.000Z</time>
      </trkpt>
      <trkpt lat="47.45926" lon="6.61783">
        <ele>423.1</ele>
        <time>2017-06-11T09:47:28.000Z</time>
      </trkpt>
      <trkpt lat="47.45928" lon="6.61785">
        <ele>423.1</ele>
        <time>2017-06-11T09:47:29.000Z</time>
      </trkpt>
      <trkpt lat="47.4593" lon="6.61789">
        <ele>423.4</ele>
        <time>2017-06-11T09:47:31.000Z</time>
      </trkpt>
      <trkpt lat="47.45932" lon="6.61792">
        <ele>423.4</ele>
        <time>2017-06-11T09:47:32.000Z</time>
      </trkpt>
      <trkpt lat="47.45935" lon="6.61796">
        <ele>423.4</ele>
        <time>2017-06-11T09:47:34.000Z</time>
      </trkpt>
      <trkpt lat="47.45939" lon="6.618">
        <ele>423.4</ele>
        <time>2017-06-11T09:47:35.000Z</time>
      </trkpt>
      <trkpt lat="47.45941" lon="6.61802">
        <ele>423.2</ele>
        <time>2017-06-11T09:47:36.000Z</time>
      </trkpt>
      <trkpt lat="47.45943" lon="6.61803">
        <ele>423</ele>
        <time>2017-06-11T09:47:37.000Z</time>
      </trkpt>
      <trkpt lat="47.45945" lon="6.61805">
        <ele>422.9</ele>
        <time>2017-06-11T09:47:38.000Z</time>
      </trkpt>
      <trkpt lat="47.45948" lon="6.61806">
        <ele>422.9</ele>
        <time>2017-06-11T09:47:39.000Z</time>
      </trkpt>
      <trkpt lat="47.4595" lon="6.61809">
        <ele>422.8</ele>
        <time>2017-06-11T09:47:40.000Z</time>
      </trkpt>
      <trkpt lat="47.45952" lon="6.61811">
        <ele>422.8</ele>
        <time>2017-06-11T09:47:41.000Z</time>
      </trkpt>
      <trkpt lat="47.45954" lon="6.61814">
        <ele>422.7</ele>
        <time>2017-06-11T09:47:42.000Z</time>
      </trkpt>
      <trkpt lat="47.45956" lon="6.61817">
        <ele>422.7</ele>
        <time>2017-06-11T09:47:43.000Z</time>
      </trkpt>
      <trkpt lat="47.45958" lon="6.61818">
        <ele>422.8</ele>
        <time>2017-06-11T09:47:44.000Z</time>
      </trkpt>
      <trkpt lat="47.45959" lon="6.61823">
        <ele>422.8</ele>
        <time>2017-06-11T09:47:45.000Z</time>
      </trkpt>
      <trkpt lat="47.45961" lon="6.61826">
        <ele>423.2</ele>
        <time>2017-06-11T09:47:47.000Z</time>
      </trkpt>
      <trkpt lat="47.45963" lon="6.61829">
        <ele>423.5</ele>
        <time>2017-06-11T09:47:48.000Z</time>
      </trkpt>
      <trkpt lat="47.45965" lon="6.61833">
        <ele>424</ele>
        <time>2017-06-11T09:47:50.000Z</time>
      </trkpt>
      <trkpt lat="47.45966" lon="6.61835">
        <ele>424.2</ele>
        <time>2017-06-11T09:47:51.000Z</time>
      </trkpt>
      <trkpt lat="47.4597" lon="6.61838">
        <ele>424.6</ele>
        <time>2017-06-11T09:47:53.000Z</time>
      </trkpt>
      <trkpt lat="47.45971" lon="6.61839">
        <ele>424.7</ele>
        <time>2017-06-11T09:47:54.000Z</time>
      </trkpt>
      <trkpt lat="47.45973" lon="6.61842">
        <ele>425.2</ele>
        <time>2017-06-11T09:47:56.000Z</time>
      </trkpt>
      <trkpt lat="47.45974" lon="6.61844">
        <ele>425.4</ele>
        <time>2017-06-11T09:47:57.000Z</time>
      </trkpt>
      <trkpt lat="47.45976" lon="6.61849">
        <ele>425.7</ele>
        <time>2017-06-11T09:47:58.000Z</time>
      </trkpt>
      <trkpt lat="47.45977" lon="6.61854">
        <ele>425.9</ele>
        <time>2017-06-11T09:47:59.000Z</time>
      </trkpt>
      <trkpt lat="47.45979" lon="6.61858">
        <ele>426.1</ele>
        <time>2017-06-11T09:48:01.000Z</time>
      </trkpt>
      <trkpt lat="47.45979" lon="6.6186">
        <ele>426.2</ele>
        <time>2017-06-11T09:48:02.000Z</time>
      </trkpt>
      <trkpt lat="47.45982" lon="6.61863">
        <ele>426.4</ele>
        <time>2017-06-11T09:48:04.000Z</time>
      </trkpt>
      <trkpt lat="47.45983" lon="6.61864">
        <ele>426.4</ele>
        <time>2017-06-11T09:48:05.000Z</time>
      </trkpt>
      <trkpt lat="47.45985" lon="6.61869">
        <ele>426.5</ele>
        <time>2017-06-11T09:48:08.000Z</time>
      </trkpt>
      <trkpt lat="47.45988" lon="6.61873">
        <ele>426.6</ele>
        <time>2017-06-11T09:48:09.000Z</time>
      </trkpt>
      <trkpt lat="47.45992" lon="6.61876">
        <ele>426.6</ele>
        <time>2017-06-11T09:48:10.000Z</time>
      </trkpt>
      <trkpt lat="47.45992" lon="6.61877">
        <ele>426.6</ele>
        <time>2017-06-11T09:48:11.000Z</time>
      </trkpt>
      <trkpt lat="47.45995" lon="6.61881">
        <ele>426.9</ele>
        <time>2017-06-11T09:48:13.000Z</time>
      </trkpt>
      <trkpt lat="47.45999" lon="6.61883">
        <ele>427.1</ele>
        <time>2017-06-11T09:48:14.000Z</time>
      </trkpt>
      <trkpt lat="47.46002" lon="6.61887">
        <ele>427.2</ele>
        <time>2017-06-11T09:48:15.000Z</time>
      </trkpt>
      <trkpt lat="47.46004" lon="6.61889">
        <ele>427.3</ele>
        <time>2017-06-11T09:48:16.000Z</time>
      </trkpt>
      <trkpt lat="47.46006" lon="6.61892">
        <ele>427.7</ele>
        <time>2017-06-11T09:48:19.000Z</time>
      </trkpt>
      <trkpt lat="47.46007" lon="6.61894">
        <ele>427.9</ele>
        <time>2017-06-11T09:48:20.000Z</time>
      </trkpt>
      <trkpt lat="47.46011" lon="6.61896">
        <ele>428.2</ele>
        <time>2017-06-11T09:48:23.000Z</time>
      </trkpt>
      <trkpt lat="47.46012" lon="6.61897">
        <ele>428.3</ele>
        <time>2017-06-11T09:48:24.000Z</time>
      </trkpt>
      <trkpt lat="47.46014" lon="6.619">
        <ele>428.7</ele>
        <time>2017-06-11T09:48:26.000Z</time>
      </trkpt>
      <trkpt lat="47.46016" lon="6.61901">
        <ele>428.9</ele>
        <time>2017-06-11T09:48:27.000Z</time>
      </trkpt>
      <trkpt lat="47.46019" lon="6.61904">
        <ele>429.4</ele>
        <time>2017-06-11T09:48:29.000Z</time>
      </trkpt>
      <trkpt lat="47.4602" lon="6.61905">
        <ele>429.7</ele>
        <time>2017-06-11T09:48:30.000Z</time>
      </trkpt>
      <trkpt lat="47.46022" lon="6.61909">
        <ele>430</ele>
        <time>2017-06-11T09:48:33.000Z</time>
      </trkpt>
      <trkpt lat="47.46024" lon="6.6191">
        <ele>430</ele>
        <time>2017-06-11T09:48:34.000Z</time>
      </trkpt>
      <trkpt lat="47.46026" lon="6.61914">
        <ele>429.8</ele>
        <time>2017-06-11T09:48:36.000Z</time>
      </trkpt>
      <trkpt lat="47.46028" lon="6.61915">
        <ele>429.8</ele>
        <time>2017-06-11T09:48:37.000Z</time>
      </trkpt>
      <trkpt lat="47.4603" lon="6.6192">
        <ele>429.7</ele>
        <time>2017-06-11T09:48:40.000Z</time>
      </trkpt>
      <trkpt lat="47.46033" lon="6.61924">
        <ele>429.7</ele>
        <time>2017-06-11T09:48:41.000Z</time>
      </trkpt>
      <trkpt lat="47.46036" lon="6.61928">
        <ele>429.8</ele>
        <time>2017-06-11T09:48:42.000Z</time>
      </trkpt>
      <trkpt lat="47.46037" lon="6.61929">
        <ele>429.9</ele>
        <time>2017-06-11T09:48:43.000Z</time>
      </trkpt>
      <trkpt lat="47.4604" lon="6.61933">
        <ele>430.2</ele>
        <time>2017-06-11T09:48:45.000Z</time>
      </trkpt>
      <trkpt lat="47.46041" lon="6.61934">
        <ele>430.2</ele>
        <time>2017-06-11T09:48:46.000Z</time>
      </trkpt>
      <trkpt lat="47.46044" lon="6.61938">
        <ele>430.4</ele>
        <time>2017-06-11T09:48:50.000Z</time>
      </trkpt>
      <trkpt lat="47.46045" lon="6.61939">
        <ele>430.4</ele>
        <time>2017-06-11T09:48:51.000Z</time>
      </trkpt>
      <trkpt lat="47.46047" lon="6.61945">
        <ele>430.1</ele>
        <time>2017-06-11T09:48:57.000Z</time>
      </trkpt>
      <trkpt lat="47.46048" lon="6.61945">
        <ele>430.1</ele>
        <time>2017-06-11T09:48:58.000Z</time>
      </trkpt>
      <trkpt lat="47.46049" lon="6.61946">
        <ele>430</ele>
        <time>2017-06-11T09:48:59.000Z</time>
      </trkpt>
      <trkpt lat="47.46052" lon="6.6195">
        <ele>430</ele>
        <time>2017-06-11T09:49:00.000Z</time>
      </trkpt>
      <trkpt lat="47.46056" lon="6.61951">
        <ele>430.1</ele>
        <time>2017-06-11T09:49:01.000Z</time>
      </trkpt>
      <trkpt lat="47.46059" lon="6.61953">
        <ele>430.1</ele>
        <time>2017-06-11T09:49:02.000Z</time>
      </trkpt>
      <trkpt lat="47.46061" lon="6.61958">
        <ele>430.5</ele>
        <time>2017-06-11T09:49:06.000Z</time>
      </trkpt>
      <trkpt lat="47.46062" lon="6.61959">
        <ele>430.6</ele>
        <time>2017-06-11T09:49:07.000Z</time>
      </trkpt>
      <trkpt lat="47.46063" lon="6.61961">
        <ele>430.9</ele>
        <time>2017-06-11T09:49:09.000Z</time>
      </trkpt>
      <trkpt lat="47.46067" lon="6.61963">
        <ele>431.1</ele>
        <time>2017-06-11T09:49:10.000Z</time>
      </trkpt>
      <trkpt lat="47.46068" lon="6.61964">
        <ele>431.5</ele>
        <time>2017-06-11T09:49:11.000Z</time>
      </trkpt>
      <trkpt lat="47.46071" lon="6.61967">
        <ele>431.8</ele>
        <time>2017-06-11T09:49:12.000Z</time>
      </trkpt>
      <trkpt lat="47.46074" lon="6.6197">
        <ele>432.7</ele>
        <time>2017-06-11T09:49:16.000Z</time>
      </trkpt>
      <trkpt lat="47.46075" lon="6.61971">
        <ele>432.8</ele>
        <time>2017-06-11T09:49:17.000Z</time>
      </trkpt>
      <trkpt lat="47.46078" lon="6.61973">
        <ele>433.7</ele>
        <time>2017-06-11T09:49:21.000Z</time>
      </trkpt>
      <trkpt lat="47.46081" lon="6.61977">
        <ele>434</ele>
        <time>2017-06-11T09:49:22.000Z</time>
      </trkpt>
      <trkpt lat="47.46081" lon="6.61978">
        <ele>434.3</ele>
        <time>2017-06-11T09:49:23.000Z</time>
      </trkpt>
      <trkpt lat="47.46084" lon="6.61981">
        <ele>434.6</ele>
        <time>2017-06-11T09:49:24.000Z</time>
      </trkpt>
      <trkpt lat="47.46087" lon="6.61985">
        <ele>435.7</ele>
        <time>2017-06-11T09:49:29.000Z</time>
      </trkpt>
      <trkpt lat="47.46089" lon="6.61986">
        <ele>435.8</ele>
        <time>2017-06-11T09:49:30.000Z</time>
      </trkpt>
      <trkpt lat="47.46092" lon="6.61989">
        <ele>436.1</ele>
        <time>2017-06-11T09:49:34.000Z</time>
      </trkpt>
      <trkpt lat="47.46093" lon="6.6199">
        <ele>436.3</ele>
        <time>2017-06-11T09:49:35.000Z</time>
      </trkpt>
      <trkpt lat="47.46095" lon="6.6199">
        <ele>436.5</ele>
        <time>2017-06-11T09:49:36.000Z</time>
      </trkpt>
      <trkpt lat="47.46099" lon="6.61989">
        <ele>436.6</ele>
        <time>2017-06-11T09:49:37.000Z</time>
      </trkpt>
      <trkpt lat="47.46102" lon="6.61991">
        <ele>438.2</ele>
        <time>2017-06-11T09:49:44.000Z</time>
      </trkpt>
      <trkpt lat="47.46104" lon="6.61992">
        <ele>438.5</ele>
        <time>2017-06-11T09:49:45.000Z</time>
      </trkpt>
      <trkpt lat="47.46105" lon="6.61994">
        <ele>439.6</ele>
        <time>2017-06-11T09:49:48.000Z</time>
      </trkpt>
      <trkpt lat="47.46108" lon="6.61997">
        <ele>439.9</ele>
        <time>2017-06-11T09:49:49.000Z</time>
      </trkpt>
      <trkpt lat="47.46112" lon="6.61998">
        <ele>440.2</ele>
        <time>2017-06-11T09:49:50.000Z</time>
      </trkpt>
      <trkpt lat="47.46114" lon="6.61998">
        <ele>440.4</ele>
        <time>2017-06-11T09:49:51.000Z</time>
      </trkpt>
      <trkpt lat="47.46117" lon="6.62">
        <ele>440.8</ele>
        <time>2017-06-11T09:49:54.000Z</time>
      </trkpt>
      <trkpt lat="47.46118" lon="6.62001">
        <ele>441</ele>
        <time>2017-06-11T09:49:55.000Z</time>
      </trkpt>
      <trkpt lat="47.46122" lon="6.62002">
        <ele>441.6</ele>
        <time>2017-06-11T09:49:58.000Z</time>
      </trkpt>
      <trkpt lat="47.46126" lon="6.62003">
        <ele>441.8</ele>
        <time>2017-06-11T09:49:59.000Z</time>
      </trkpt>
      <trkpt lat="47.4613" lon="6.62004">
        <ele>441.9</ele>
        <time>2017-06-11T09:50:00.000Z</time>
      </trkpt>
      <trkpt lat="47.4613" lon="6.62005">
        <ele>442</ele>
        <time>2017-06-11T09:50:01.000Z</time>
      </trkpt>
      <trkpt lat="47.46133" lon="6.62009">
        <ele>442.2</ele>
        <time>2017-06-11T09:50:03.000Z</time>
      </trkpt>
      <trkpt lat="47.46136" lon="6.6201">
        <ele>442.4</ele>
        <time>2017-06-11T09:50:04.000Z</time>
      </trkpt>
      <trkpt lat="47.46139" lon="6.62011">
        <ele>442.8</ele>
        <time>2017-06-11T09:50:07.000Z</time>
      </trkpt>
      <trkpt lat="47.46141" lon="6.62012">
        <ele>442.8</ele>
        <time>2017-06-11T09:50:08.000Z</time>
      </trkpt>
      <trkpt lat="47.46144" lon="6.62015">
        <ele>442.8</ele>
        <time>2017-06-11T09:50:13.000Z</time>
      </trkpt>
      <trkpt lat="47.46147" lon="6.62019">
        <ele>442.9</ele>
        <time>2017-06-11T09:50:14.000Z</time>
      </trkpt>
      <trkpt lat="47.4615" lon="6.6202">
        <ele>443.1</ele>
        <time>2017-06-11T09:50:16.000Z</time>
      </trkpt>
      <trkpt lat="47.46152" lon="6.6202">
        <ele>443.2</ele>
        <time>2017-06-11T09:50:17.000Z</time>
      </trkpt>
      <trkpt lat="47.46153" lon="6.6202">
        <ele>443.5</ele>
        <time>2017-06-11T09:50:19.000Z</time>
      </trkpt>
      <trkpt lat="47.46157" lon="6.62022">
        <ele>443.6</ele>
        <time>2017-06-11T09:50:20.000Z</time>
      </trkpt>
      <trkpt lat="47.46161" lon="6.62024">
        <ele>444.2</ele>
        <time>2017-06-11T09:50:24.000Z</time>
      </trkpt>
      <trkpt lat="47.46163" lon="6.62025">
        <ele>444.4</ele>
        <time>2017-06-11T09:50:25.000Z</time>
      </trkpt>
      <trkpt lat="47.46167" lon="6.62026">
        <ele>444.5</ele>
        <time>2017-06-11T09:50:28.000Z</time>
      </trkpt>
      <trkpt lat="47.46171" lon="6.62027">
        <ele>444.4</ele>
        <time>2017-06-11T09:50:29.000Z</time>
      </trkpt>
      <trkpt lat="47.46174" lon="6.62029">
        <ele>444.3</ele>
        <time>2017-06-11T09:50:31.000Z</time>
      </trkpt>
      <trkpt lat="47.46176" lon="6.6203">
        <ele>444.4</ele>
        <time>2017-06-11T09:50:32.000Z</time>
      </trkpt>
      <trkpt lat="47.4618" lon="6.62033">
        <ele>444.4</ele>
        <time>2017-06-11T09:50:34.000Z</time>
      </trkpt>
      <trkpt lat="47.46181" lon="6.62034">
        <ele>444.3</ele>
        <time>2017-06-11T09:50:35.000Z</time>
      </trkpt>
      <trkpt lat="47.46184" lon="6.62037">
        <ele>444.2</ele>
        <time>2017-06-11T09:50:37.000Z</time>
      </trkpt>
      <trkpt lat="47.46186" lon="6.62038">
        <ele>444.2</ele>
        <time>2017-06-11T09:50:38.000Z</time>
      </trkpt>
      <trkpt lat="47.46189" lon="6.6204">
        <ele>444.3</ele>
        <time>2017-06-11T09:50:41.000Z</time>
      </trkpt>
      <trkpt lat="47.46191" lon="6.62041">
        <ele>444.3</ele>
        <time>2017-06-11T09:50:42.000Z</time>
      </trkpt>
      <trkpt lat="47.46194" lon="6.62042">
        <ele>444.6</ele>
        <time>2017-06-11T09:50:45.000Z</time>
      </trkpt>
      <trkpt lat="47.46195" lon="6.62042">
        <ele>444.6</ele>
        <time>2017-06-11T09:50:46.000Z</time>
      </trkpt>
      <trkpt lat="47.46199" lon="6.62043">
        <ele>445.1</ele>
        <time>2017-06-11T09:50:50.000Z</time>
      </trkpt>
      <trkpt lat="47.462" lon="6.62044">
        <ele>445.3</ele>
        <time>2017-06-11T09:50:51.000Z</time>
      </trkpt>
      <trkpt lat="47.46203" lon="6.62046">
        <ele>445.9</ele>
        <time>2017-06-11T09:50:53.000Z</time>
      </trkpt>
      <trkpt lat="47.46207" lon="6.62047">
        <ele>446.1</ele>
        <time>2017-06-11T09:50:54.000Z</time>
      </trkpt>
      <trkpt lat="47.4621" lon="6.62048">
        <ele>446.7</ele>
        <time>2017-06-11T09:50:58.000Z</time>
      </trkpt>
      <trkpt lat="47.46213" lon="6.6205">
        <ele>446.8</ele>
        <time>2017-06-11T09:50:59.000Z</time>
      </trkpt>
      <trkpt lat="47.46217" lon="6.62052">
        <ele>447.3</ele>
        <time>2017-06-11T09:51:03.000Z</time>
      </trkpt>
      <trkpt lat="47.46218" lon="6.62052">
        <ele>447.7</ele>
        <time>2017-06-11T09:51:04.000Z</time>
      </trkpt>
      <trkpt lat="47.46223" lon="6.62052">
        <ele>448.4</ele>
        <time>2017-06-11T09:51:08.000Z</time>
      </trkpt>
      <trkpt lat="47.46226" lon="6.62054">
        <ele>448.6</ele>
        <time>2017-06-11T09:51:09.000Z</time>
      </trkpt>
      <trkpt lat="47.4623" lon="6.62055">
        <ele>448.9</ele>
        <time>2017-06-11T09:51:14.000Z</time>
      </trkpt>
      <trkpt lat="47.46234" lon="6.62055">
        <ele>449</ele>
        <time>2017-06-11T09:51:15.000Z</time>
      </trkpt>
      <trkpt lat="47.46238" lon="6.62057">
        <ele>449.5</ele>
        <time>2017-06-11T09:51:19.000Z</time>
      </trkpt>
      <trkpt lat="47.46239" lon="6.62058">
        <ele>449.6</ele>
        <time>2017-06-11T09:51:20.000Z</time>
      </trkpt>
      <trkpt lat="47.46242" lon="6.6206">
        <ele>449.9</ele>
        <time>2017-06-11T09:51:23.000Z</time>
      </trkpt>
      <trkpt lat="47.46245" lon="6.62062">
        <ele>450</ele>
        <time>2017-06-11T09:51:24.000Z</time>
      </trkpt>
      <trkpt lat="47.46246" lon="6.62063">
        <ele>450.2</ele>
        <time>2017-06-11T09:51:25.000Z</time>
      </trkpt>
      <trkpt lat="47.4625" lon="6.62065">
        <ele>450.3</ele>
        <time>2017-06-11T09:51:26.000Z</time>
      </trkpt>
      <trkpt lat="47.46254" lon="6.62066">
        <ele>450.3</ele>
        <time>2017-06-11T09:51:27.000Z</time>
      </trkpt>
      <trkpt lat="47.46255" lon="6.62066">
        <ele>450.3</ele>
        <time>2017-06-11T09:51:28.000Z</time>
      </trkpt>
      <trkpt lat="47.46259" lon="6.62067">
        <ele>450.8</ele>
        <time>2017-06-11T09:51:31.000Z</time>
      </trkpt>
      <trkpt lat="47.46263" lon="6.62067">
        <ele>451</ele>
        <time>2017-06-11T09:51:32.000Z</time>
      </trkpt>
      <trkpt lat="47.46266" lon="6.62067">
        <ele>451.8</ele>
        <time>2017-06-11T09:51:35.000Z</time>
      </trkpt>
      <trkpt lat="47.46267" lon="6.62067">
        <ele>452</ele>
        <time>2017-06-11T09:51:36.000Z</time>
      </trkpt>
      <trkpt lat="47.46271" lon="6.62068">
        <ele>453</ele>
        <time>2017-06-11T09:51:39.000Z</time>
      </trkpt>
      <trkpt lat="47.46272" lon="6.62068">
        <ele>453.3</ele>
        <time>2017-06-11T09:51:40.000Z</time>
      </trkpt>
      <trkpt lat="47.46276" lon="6.62067">
        <ele>453.9</ele>
        <time>2017-06-11T09:51:42.000Z</time>
      </trkpt>
      <trkpt lat="47.4628" lon="6.62066">
        <ele>454.2</ele>
        <time>2017-06-11T09:51:43.000Z</time>
      </trkpt>
      <trkpt lat="47.46285" lon="6.62066">
        <ele>454.5</ele>
        <time>2017-06-11T09:51:44.000Z</time>
      </trkpt>
      <trkpt lat="47.46287" lon="6.62065">
        <ele>454.9</ele>
        <time>2017-06-11T09:51:45.000Z</time>
      </trkpt>
      <trkpt lat="47.46291" lon="6.62065">
        <ele>455.3</ele>
        <time>2017-06-11T09:51:46.000Z</time>
      </trkpt>
      <trkpt lat="47.46294" lon="6.62066">
        <ele>455.6</ele>
        <time>2017-06-11T09:51:47.000Z</time>
      </trkpt>
      <trkpt lat="47.46296" lon="6.62066">
        <ele>455.9</ele>
        <time>2017-06-11T09:51:48.000Z</time>
      </trkpt>
      <trkpt lat="47.46299" lon="6.62066">
        <ele>456.5</ele>
        <time>2017-06-11T09:51:50.000Z</time>
      </trkpt>
      <trkpt lat="47.46301" lon="6.62067">
        <ele>456.8</ele>
        <time>2017-06-11T09:51:51.000Z</time>
      </trkpt>
      <trkpt lat="47.46305" lon="6.62068">
        <ele>457</ele>
        <time>2017-06-11T09:51:52.000Z</time>
      </trkpt>
      <trkpt lat="47.46307" lon="6.62067">
        <ele>457.4</ele>
        <time>2017-06-11T09:51:53.000Z</time>
      </trkpt>
      <trkpt lat="47.4631" lon="6.62069">
        <ele>457.9</ele>
        <time>2017-06-11T09:51:55.000Z</time>
      </trkpt>
      <trkpt lat="47.46311" lon="6.6207">
        <ele>458.2</ele>
        <time>2017-06-11T09:51:56.000Z</time>
      </trkpt>
      <trkpt lat="47.46315" lon="6.6207">
        <ele>458.8</ele>
        <time>2017-06-11T09:51:58.000Z</time>
      </trkpt>
      <trkpt lat="47.46316" lon="6.62071">
        <ele>459.1</ele>
        <time>2017-06-11T09:51:59.000Z</time>
      </trkpt>
      <trkpt lat="47.46321" lon="6.62073">
        <ele>459.8</ele>
        <time>2017-06-11T09:52:03.000Z</time>
      </trkpt>
      <trkpt lat="47.46323" lon="6.62074">
        <ele>460.2</ele>
        <time>2017-06-11T09:52:04.000Z</time>
      </trkpt>
      <trkpt lat="47.46326" lon="6.62075">
        <ele>460.7</ele>
        <time>2017-06-11T09:52:07.000Z</time>
      </trkpt>
      <trkpt lat="47.46328" lon="6.62075">
        <ele>460.9</ele>
        <time>2017-06-11T09:52:08.000Z</time>
      </trkpt>
      <trkpt lat="47.46332" lon="6.62076">
        <ele>461.2</ele>
        <time>2017-06-11T09:52:12.000Z</time>
      </trkpt>
      <trkpt lat="47.46333" lon="6.62076">
        <ele>461.3</ele>
        <time>2017-06-11T09:52:13.000Z</time>
      </trkpt>
      <trkpt lat="47.46336" lon="6.62077">
        <ele>461.4</ele>
        <time>2017-06-11T09:52:15.000Z</time>
      </trkpt>
      <trkpt lat="47.46338" lon="6.62077">
        <ele>461.4</ele>
        <time>2017-06-11T09:52:16.000Z</time>
      </trkpt>
      <trkpt lat="47.46341" lon="6.62078">
        <ele>461.5</ele>
        <time>2017-06-11T09:52:18.000Z</time>
      </trkpt>
      <trkpt lat="47.46343" lon="6.62078">
        <ele>461.5</ele>
        <time>2017-06-11T09:52:19.000Z</time>
      </trkpt>
      <trkpt lat="47.46347" lon="6.62079">
        <ele>461.8</ele>
        <time>2017-06-11T09:52:22.000Z</time>
      </trkpt>
      <trkpt lat="47.46348" lon="6.62078">
        <ele>461.9</ele>
        <time>2017-06-11T09:52:23.000Z</time>
      </trkpt>
      <trkpt lat="47.46351" lon="6.62079">
        <ele>462</ele>
        <time>2017-06-11T09:52:25.000Z</time>
      </trkpt>
      <trkpt lat="47.46353" lon="6.62079">
        <ele>462</ele>
        <time>2017-06-11T09:52:26.000Z</time>
      </trkpt>
      <trkpt lat="47.46355" lon="6.62078">
        <ele>462.1</ele>
        <time>2017-06-11T09:52:27.000Z</time>
      </trkpt>
      <trkpt lat="47.46359" lon="6.62079">
        <ele>462.1</ele>
        <time>2017-06-11T09:52:28.000Z</time>
      </trkpt>
      <trkpt lat="47.46361" lon="6.62079">
        <ele>462.2</ele>
        <time>2017-06-11T09:52:29.000Z</time>
      </trkpt>
      <trkpt lat="47.46364" lon="6.62078">
        <ele>462.2</ele>
        <time>2017-06-11T09:52:30.000Z</time>
      </trkpt>
      <trkpt lat="47.46368" lon="6.62077">
        <ele>462.6</ele>
        <time>2017-06-11T09:52:33.000Z</time>
      </trkpt>
      <trkpt lat="47.4637" lon="6.62077">
        <ele>462.6</ele>
        <time>2017-06-11T09:52:34.000Z</time>
      </trkpt>
      <trkpt lat="47.46373" lon="6.62077">
        <ele>462.6</ele>
        <time>2017-06-11T09:52:36.000Z</time>
      </trkpt>
      <trkpt lat="47.46376" lon="6.62077">
        <ele>462.7</ele>
        <time>2017-06-11T09:52:37.000Z</time>
      </trkpt>
      <trkpt lat="47.46378" lon="6.62078">
        <ele>462.8</ele>
        <time>2017-06-11T09:52:38.000Z</time>
      </trkpt>
      <trkpt lat="47.46382" lon="6.6208">
        <ele>462.9</ele>
        <time>2017-06-11T09:52:39.000Z</time>
      </trkpt>
      <trkpt lat="47.46385" lon="6.62079">
        <ele>463.3</ele>
        <time>2017-06-11T09:52:41.000Z</time>
      </trkpt>
      <trkpt lat="47.46389" lon="6.62079">
        <ele>463.6</ele>
        <time>2017-06-11T09:52:43.000Z</time>
      </trkpt>
      <trkpt lat="47.46393" lon="6.62078">
        <ele>464.1</ele>
        <time>2017-06-11T09:52:45.000Z</time>
      </trkpt>
      <trkpt lat="47.46395" lon="6.62078">
        <ele>464.3</ele>
        <time>2017-06-11T09:52:46.000Z</time>
      </trkpt>
      <trkpt lat="47.46398" lon="6.62077">
        <ele>465.2</ele>
        <time>2017-06-11T09:52:49.000Z</time>
      </trkpt>
      <trkpt lat="47.46399" lon="6.62076">
        <ele>465.5</ele>
        <time>2017-06-11T09:52:50.000Z</time>
      </trkpt>
      <trkpt lat="47.46403" lon="6.62077">
        <ele>465.8</ele>
        <time>2017-06-11T09:52:51.000Z</time>
      </trkpt>
      <trkpt lat="47.46407" lon="6.62078">
        <ele>466.1</ele>
        <time>2017-06-11T09:52:52.000Z</time>
      </trkpt>
      <trkpt lat="47.46411" lon="6.62076">
        <ele>466.4</ele>
        <time>2017-06-11T09:52:53.000Z</time>
      </trkpt>
      <trkpt lat="47.46412" lon="6.62076">
        <ele>466.7</ele>
        <time>2017-06-11T09:52:54.000Z</time>
      </trkpt>
      <trkpt lat="47.46416" lon="6.62075">
        <ele>467.4</ele>
        <time>2017-06-11T09:52:56.000Z</time>
      </trkpt>
      <trkpt lat="47.46417" lon="6.62075">
        <ele>467.8</ele>
        <time>2017-06-11T09:52:57.000Z</time>
      </trkpt>
      <trkpt lat="47.4642" lon="6.62075">
        <ele>468.6</ele>
        <time>2017-06-11T09:52:59.000Z</time>
      </trkpt>
      <trkpt lat="47.46423" lon="6.62075">
        <ele>469</ele>
        <time>2017-06-11T09:53:00.000Z</time>
      </trkpt>
      <trkpt lat="47.46426" lon="6.62075">
        <ele>469.3</ele>
        <time>2017-06-11T09:53:01.000Z</time>
      </trkpt>
      <trkpt lat="47.46428" lon="6.62076">
        <ele>469.6</ele>
        <time>2017-06-11T09:53:02.000Z</time>
      </trkpt>
      <trkpt lat="47.4643" lon="6.62077">
        <ele>469.9</ele>
        <time>2017-06-11T09:53:03.000Z</time>
      </trkpt>
      <trkpt lat="47.46432" lon="6.62078">
        <ele>470.2</ele>
        <time>2017-06-11T09:53:04.000Z</time>
      </trkpt>
      <trkpt lat="47.46436" lon="6.62079">
        <ele>470.6</ele>
        <time>2017-06-11T09:53:06.000Z</time>
      </trkpt>
      <trkpt lat="47.46438" lon="6.62079">
        <ele>470.8</ele>
        <time>2017-06-11T09:53:07.000Z</time>
      </trkpt>
      <trkpt lat="47.46442" lon="6.6208">
        <ele>471.2</ele>
        <time>2017-06-11T09:53:09.000Z</time>
      </trkpt>
      <trkpt lat="47.46444" lon="6.6208">
        <ele>471.3</ele>
        <time>2017-06-11T09:53:10.000Z</time>
      </trkpt>
      <trkpt lat="47.46447" lon="6.62081">
        <ele>471.7</ele>
        <time>2017-06-11T09:53:12.000Z</time>
      </trkpt>
      <trkpt lat="47.46449" lon="6.62082">
        <ele>471.9</ele>
        <time>2017-06-11T09:53:13.000Z</time>
      </trkpt>
      <trkpt lat="47.46452" lon="6.62085">
        <ele>472.3</ele>
        <time>2017-06-11T09:53:15.000Z</time>
      </trkpt>
      <trkpt lat="47.46454" lon="6.62086">
        <ele>472.4</ele>
        <time>2017-06-11T09:53:16.000Z</time>
      </trkpt>
      <trkpt lat="47.46457" lon="6.62087">
        <ele>472.9</ele>
        <time>2017-06-11T09:53:19.000Z</time>
      </trkpt>
      <trkpt lat="47.46459" lon="6.62087">
        <ele>472.9</ele>
        <time>2017-06-11T09:53:20.000Z</time>
      </trkpt>
      <trkpt lat="47.46464" lon="6.62087">
        <ele>472.9</ele>
        <time>2017-06-11T09:53:23.000Z</time>
      </trkpt>
      <trkpt lat="47.46465" lon="6.62088">
        <ele>472.9</ele>
        <time>2017-06-11T09:53:24.000Z</time>
      </trkpt>
      <trkpt lat="47.46469" lon="6.62088">
        <ele>472.9</ele>
        <time>2017-06-11T09:53:26.000Z</time>
      </trkpt>
      <trkpt lat="47.46471" lon="6.62088">
        <ele>472.9</ele>
        <time>2017-06-11T09:53:27.000Z</time>
      </trkpt>
      <trkpt lat="47.46475" lon="6.62089">
        <ele>473</ele>
        <time>2017-06-11T09:53:29.000Z</time>
      </trkpt>
      <trkpt lat="47.46477" lon="6.62089">
        <ele>473</ele>
        <time>2017-06-11T09:53:30.000Z</time>
      </trkpt>
      <trkpt lat="47.46481" lon="6.6209">
        <ele>473.3</ele>
        <time>2017-06-11T09:53:32.000Z</time>
      </trkpt>
      <trkpt lat="47.46483" lon="6.62091">
        <ele>473.4</ele>
        <time>2017-06-11T09:53:33.000Z</time>
      </trkpt>
      <trkpt lat="47.46485" lon="6.62091">
        <ele>473.5</ele>
        <time>2017-06-11T09:53:34.000Z</time>
      </trkpt>
      <trkpt lat="47.46487" lon="6.62093">
        <ele>473.6</ele>
        <time>2017-06-11T09:53:35.000Z</time>
      </trkpt>
      <trkpt lat="47.46491" lon="6.62092">
        <ele>473.9</ele>
        <time>2017-06-11T09:53:37.000Z</time>
      </trkpt>
      <trkpt lat="47.46492" lon="6.62092">
        <ele>473.9</ele>
        <time>2017-06-11T09:53:38.000Z</time>
      </trkpt>
      <trkpt lat="47.46496" lon="6.62092">
        <ele>474.1</ele>
        <time>2017-06-11T09:53:40.000Z</time>
      </trkpt>
      <trkpt lat="47.46497" lon="6.62092">
        <ele>474.2</ele>
        <time>2017-06-11T09:53:41.000Z</time>
      </trkpt>
      <trkpt lat="47.46501" lon="6.62091">
        <ele>474.3</ele>
        <time>2017-06-11T09:53:45.000Z</time>
      </trkpt>
      <trkpt lat="47.46502" lon="6.62091">
        <ele>474.4</ele>
        <time>2017-06-11T09:53:46.000Z</time>
      </trkpt>
      <trkpt lat="47.46506" lon="6.62092">
        <ele>474.4</ele>
        <time>2017-06-11T09:53:48.000Z</time>
      </trkpt>
      <trkpt lat="47.46508" lon="6.62092">
        <ele>474.4</ele>
        <time>2017-06-11T09:53:49.000Z</time>
      </trkpt>
      <trkpt lat="47.4651" lon="6.62092">
        <ele>474.3</ele>
        <time>2017-06-11T09:53:50.000Z</time>
      </trkpt>
      <trkpt lat="47.46513" lon="6.62092">
        <ele>474.3</ele>
        <time>2017-06-11T09:53:51.000Z</time>
      </trkpt>
      <trkpt lat="47.46515" lon="6.62092">
        <ele>474.4</ele>
        <time>2017-06-11T09:53:52.000Z</time>
      </trkpt>
      <trkpt lat="47.46519" lon="6.62092">
        <ele>474.4</ele>
        <time>2017-06-11T09:53:53.000Z</time>
      </trkpt>
      <trkpt lat="47.46523" lon="6.62091">
        <ele>474.5</ele>
        <time>2017-06-11T09:53:56.000Z</time>
      </trkpt>
      <trkpt lat="47.46525" lon="6.6209">
        <ele>474.5</ele>
        <time>2017-06-11T09:53:57.000Z</time>
      </trkpt>
      <trkpt lat="47.46529" lon="6.62089">
        <ele>474.3</ele>
        <time>2017-06-11T09:53:59.000Z</time>
      </trkpt>
      <trkpt lat="47.46531" lon="6.62089">
        <ele>474.3</ele>
        <time>2017-06-11T09:54:00.000Z</time>
      </trkpt>
      <trkpt lat="47.46534" lon="6.62089">
        <ele>474.2</ele>
        <time>2017-06-11T09:54:01.000Z</time>
      </trkpt>
      <trkpt lat="47.46536" lon="6.6209">
        <ele>474.1</ele>
        <time>2017-06-11T09:54:02.000Z</time>
      </trkpt>
      <trkpt lat="47.46541" lon="6.62091">
        <ele>474</ele>
        <time>2017-06-11T09:54:04.000Z</time>
      </trkpt>
      <trkpt lat="47.46543" lon="6.62092">
        <ele>474.1</ele>
        <time>2017-06-11T09:54:05.000Z</time>
      </trkpt>
      <trkpt lat="47.46546" lon="6.62093">
        <ele>474.1</ele>
        <time>2017-06-11T09:54:06.000Z</time>
      </trkpt>
      <trkpt lat="47.46548" lon="6.62094">
        <ele>474.2</ele>
        <time>2017-06-11T09:54:07.000Z</time>
      </trkpt>
      <trkpt lat="47.46551" lon="6.62095">
        <ele>474.3</ele>
        <time>2017-06-11T09:54:08.000Z</time>
      </trkpt>
      <trkpt lat="47.46554" lon="6.62095">
        <ele>474.2</ele>
        <time>2017-06-11T09:54:09.000Z</time>
      </trkpt>
      <trkpt lat="47.46557" lon="6.62096">
        <ele>474.3</ele>
        <time>2017-06-11T09:54:10.000Z</time>
      </trkpt>
      <trkpt lat="47.46559" lon="6.62097">
        <ele>474.4</ele>
        <time>2017-06-11T09:54:11.000Z</time>
      </trkpt>
      <trkpt lat="47.46564" lon="6.62097">
        <ele>474.3</ele>
        <time>2017-06-11T09:54:13.000Z</time>
      </trkpt>
      <trkpt lat="47.46565" lon="6.62099">
        <ele>474.3</ele>
        <time>2017-06-11T09:54:14.000Z</time>
      </trkpt>
      <trkpt lat="47.46567" lon="6.62103">
        <ele>474.4</ele>
        <time>2017-06-11T09:54:16.000Z</time>
      </trkpt>
      <trkpt lat="47.46567" lon="6.62105">
        <ele>474.5</ele>
        <time>2017-06-11T09:54:17.000Z</time>
      </trkpt>
      <trkpt lat="47.46568" lon="6.62112">
        <ele>474.5</ele>
        <time>2017-06-11T09:54:19.000Z</time>
      </trkpt>
      <trkpt lat="47.4657" lon="6.62116">
        <ele>474.5</ele>
        <time>2017-06-11T09:54:20.000Z</time>
      </trkpt>
      <trkpt lat="47.46572" lon="6.62119">
        <ele>474.6</ele>
        <time>2017-06-11T09:54:21.000Z</time>
      </trkpt>
      <trkpt lat="47.46575" lon="6.62122">
        <ele>474.7</ele>
        <time>2017-06-11T09:54:22.000Z</time>
      </trkpt>
      <trkpt lat="47.46577" lon="6.62125">
        <ele>474.8</ele>
        <time>2017-06-11T09:54:23.000Z</time>
      </trkpt>
      <trkpt lat="47.46578" lon="6.62128">
        <ele>474.9</ele>
        <time>2017-06-11T09:54:24.000Z</time>
      </trkpt>
      <trkpt lat="47.4658" lon="6.62131">
        <ele>474.9</ele>
        <time>2017-06-11T09:54:25.000Z</time>
      </trkpt>
      <trkpt lat="47.46582" lon="6.62133">
        <ele>475</ele>
        <time>2017-06-11T09:54:26.000Z</time>
      </trkpt>
      <trkpt lat="47.46585" lon="6.62137">
        <ele>474.9</ele>
        <time>2017-06-11T09:54:28.000Z</time>
      </trkpt>
      <trkpt lat="47.46586" lon="6.62138">
        <ele>474.9</ele>
        <time>2017-06-11T09:54:29.000Z</time>
      </trkpt>
      <trkpt lat="47.46588" lon="6.62139">
        <ele>474.8</ele>
        <time>2017-06-11T09:54:30.000Z</time>
      </trkpt>
      <trkpt lat="47.46591" lon="6.62141">
        <ele>474.9</ele>
        <time>2017-06-11T09:54:31.000Z</time>
      </trkpt>
      <trkpt lat="47.46593" lon="6.62143">
        <ele>475</ele>
        <time>2017-06-11T09:54:32.000Z</time>
      </trkpt>
      <trkpt lat="47.46595" lon="6.62143">
        <ele>475.2</ele>
        <time>2017-06-11T09:54:33.000Z</time>
      </trkpt>
      <trkpt lat="47.46598" lon="6.62142">
        <ele>475.4</ele>
        <time>2017-06-11T09:54:34.000Z</time>
      </trkpt>
      <trkpt lat="47.46599" lon="6.6214">
        <ele>475.6</ele>
        <time>2017-06-11T09:54:35.000Z</time>
      </trkpt>
      <trkpt lat="47.46601" lon="6.62138">
        <ele>475.6</ele>
        <time>2017-06-11T09:54:36.000Z</time>
      </trkpt>
      <trkpt lat="47.46603" lon="6.62137">
        <ele>475.7</ele>
        <time>2017-06-11T09:54:37.000Z</time>
      </trkpt>
      <trkpt lat="47.46606" lon="6.62135">
        <ele>475.7</ele>
        <time>2017-06-11T09:54:38.000Z</time>
      </trkpt>
      <trkpt lat="47.46608" lon="6.62134">
        <ele>475.8</ele>
        <time>2017-06-11T09:54:39.000Z</time>
      </trkpt>
      <trkpt lat="47.4661" lon="6.62132">
        <ele>475.8</ele>
        <time>2017-06-11T09:54:40.000Z</time>
      </trkpt>
      <trkpt lat="47.46612" lon="6.62131">
        <ele>475.8</ele>
        <time>2017-06-11T09:54:41.000Z</time>
      </trkpt>
      <trkpt lat="47.46615" lon="6.62129">
        <ele>475.9</ele>
        <time>2017-06-11T09:54:42.000Z</time>
      </trkpt>
      <trkpt lat="47.46617" lon="6.62128">
        <ele>476</ele>
        <time>2017-06-11T09:54:43.000Z</time>
      </trkpt>
      <trkpt lat="47.4662" lon="6.62126">
        <ele>476</ele>
        <time>2017-06-11T09:54:44.000Z</time>
      </trkpt>
      <trkpt lat="47.46622" lon="6.62124">
        <ele>476.1</ele>
        <time>2017-06-11T09:54:45.000Z</time>
      </trkpt>
      <trkpt lat="47.46625" lon="6.6212">
        <ele>476.1</ele>
        <time>2017-06-11T09:54:46.000Z</time>
      </trkpt>
      <trkpt lat="47.46627" lon="6.62117">
        <ele>476.1</ele>
        <time>2017-06-11T09:54:47.000Z</time>
      </trkpt>
      <trkpt lat="47.46629" lon="6.62115">
        <ele>476.2</ele>
        <time>2017-06-11T09:54:48.000Z</time>
      </trkpt>
      <trkpt lat="47.46633" lon="6.62112">
        <ele>476.2</ele>
        <time>2017-06-11T09:54:49.000Z</time>
      </trkpt>
      <trkpt lat="47.46637" lon="6.62109">
        <ele>476.3</ele>
        <time>2017-06-11T09:54:50.000Z</time>
      </trkpt>
      <trkpt lat="47.4664" lon="6.62107">
        <ele>476.4</ele>
        <time>2017-06-11T09:54:51.000Z</time>
      </trkpt>
      <trkpt lat="47.46642" lon="6.62105">
        <ele>476.4</ele>
        <time>2017-06-11T09:54:52.000Z</time>
      </trkpt>
      <trkpt lat="47.46644" lon="6.62104">
        <ele>476.4</ele>
        <time>2017-06-11T09:54:53.000Z</time>
      </trkpt>
      <trkpt lat="47.46646" lon="6.62104">
        <ele>476.4</ele>
        <time>2017-06-11T09:54:54.000Z</time>
      </trkpt>
      <trkpt lat="47.46649" lon="6.62101">
        <ele>476.4</ele>
        <time>2017-06-11T09:54:55.000Z</time>
      </trkpt>
      <trkpt lat="47.46653" lon="6.62098">
        <ele>476.5</ele>
        <time>2017-06-11T09:54:56.000Z</time>
      </trkpt>
      <trkpt lat="47.46656" lon="6.62093">
        <ele>476.5</ele>
        <time>2017-06-11T09:54:57.000Z</time>
      </trkpt>
      <trkpt lat="47.46659" lon="6.6209">
        <ele>476.6</ele>
        <time>2017-06-11T09:54:58.000Z</time>
      </trkpt>
      <trkpt lat="47.46662" lon="6.62088">
        <ele>476.6</ele>
        <time>2017-06-11T09:54:59.000Z</time>
      </trkpt>
      <trkpt lat="47.46665" lon="6.62085">
        <ele>476.7</ele>
        <time>2017-06-11T09:55:00.000Z</time>
      </trkpt>
      <trkpt lat="47.46669" lon="6.62081">
        <ele>476.7</ele>
        <time>2017-06-11T09:55:01.000Z</time>
      </trkpt>
      <trkpt lat="47.46672" lon="6.62079">
        <ele>476.6</ele>
        <time>2017-06-11T09:55:02.000Z</time>
      </trkpt>
      <trkpt lat="47.46675" lon="6.62078">
        <ele>476.6</ele>
        <time>2017-06-11T09:55:03.000Z</time>
      </trkpt>
      <trkpt lat="47.46679" lon="6.62077">
        <ele>476.5</ele>
        <time>2017-06-11T09:55:04.000Z</time>
      </trkpt>
      <trkpt lat="47.46682" lon="6.62076">
        <ele>476.5</ele>
        <time>2017-06-11T09:55:05.000Z</time>
      </trkpt>
      <trkpt lat="47.46685" lon="6.62074">
        <ele>476.4</ele>
        <time>2017-06-11T09:55:06.000Z</time>
      </trkpt>
      <trkpt lat="47.46687" lon="6.62073">
        <ele>476.3</ele>
        <time>2017-06-11T09:55:07.000Z</time>
      </trkpt>
      <trkpt lat="47.4669" lon="6.62071">
        <ele>476.3</ele>
        <time>2017-06-11T09:55:08.000Z</time>
      </trkpt>
      <trkpt lat="47.46693" lon="6.62068">
        <ele>476.2</ele>
        <time>2017-06-11T09:55:09.000Z</time>
      </trkpt>
      <trkpt lat="47.46697" lon="6.62064">
        <ele>476.1</ele>
        <time>2017-06-11T09:55:10.000Z</time>
      </trkpt>
      <trkpt lat="47.467" lon="6.62062">
        <ele>476.1</ele>
        <time>2017-06-11T09:55:11.000Z</time>
      </trkpt>
      <trkpt lat="47.46703" lon="6.62059">
        <ele>476.1</ele>
        <time>2017-06-11T09:55:12.000Z</time>
      </trkpt>
      <trkpt lat="47.46706" lon="6.62055">
        <ele>476</ele>
        <time>2017-06-11T09:55:13.000Z</time>
      </trkpt>
      <trkpt lat="47.46712" lon="6.62052">
        <ele>475.9</ele>
        <time>2017-06-11T09:55:14.000Z</time>
      </trkpt>
      <trkpt lat="47.46716" lon="6.6205">
        <ele>474.9</ele>
        <time>2017-06-11T09:55:15.000Z</time>
      </trkpt>
      <trkpt lat="47.46719" lon="6.62048">
        <ele>475</ele>
        <time>2017-06-11T09:55:16.000Z</time>
      </trkpt>
      <trkpt lat="47.46721" lon="6.62046">
        <ele>474.9</ele>
        <time>2017-06-11T09:55:17.000Z</time>
      </trkpt>
      <trkpt lat="47.46723" lon="6.62043">
        <ele>474.9</ele>
        <time>2017-06-11T09:55:18.000Z</time>
      </trkpt>
      <trkpt lat="47.46726" lon="6.62038">
        <ele>474.8</ele>
        <time>2017-06-11T09:55:19.000Z</time>
      </trkpt>
      <trkpt lat="47.46729" lon="6.62036">
        <ele>474.7</ele>
        <time>2017-06-11T09:55:20.000Z</time>
      </trkpt>
      <trkpt lat="47.46733" lon="6.62034">
        <ele>474.5</ele>
        <time>2017-06-11T09:55:21.000Z</time>
      </trkpt>
      <trkpt lat="47.46736" lon="6.62032">
        <ele>474.4</ele>
        <time>2017-06-11T09:55:22.000Z</time>
      </trkpt>
      <trkpt lat="47.46739" lon="6.62029">
        <ele>474.2</ele>
        <time>2017-06-11T09:55:23.000Z</time>
      </trkpt>
      <trkpt lat="47.46743" lon="6.62026">
        <ele>474.1</ele>
        <time>2017-06-11T09:55:24.000Z</time>
      </trkpt>
      <trkpt lat="47.46746" lon="6.62024">
        <ele>473.8</ele>
        <time>2017-06-11T09:55:25.000Z</time>
      </trkpt>
      <trkpt lat="47.4675" lon="6.62021">
        <ele>473.7</ele>
        <time>2017-06-11T09:55:26.000Z</time>
      </trkpt>
      <trkpt lat="47.46753" lon="6.62018">
        <ele>473.4</ele>
        <time>2017-06-11T09:55:27.000Z</time>
      </trkpt>
      <trkpt lat="47.46756" lon="6.62014">
        <ele>473.1</ele>
        <time>2017-06-11T09:55:28.000Z</time>
      </trkpt>
      <trkpt lat="47.4676" lon="6.6201">
        <ele>472.9</ele>
        <time>2017-06-11T09:55:29.000Z</time>
      </trkpt>
      <trkpt lat="47.46764" lon="6.62006">
        <ele>472.7</ele>
        <time>2017-06-11T09:55:30.000Z</time>
      </trkpt>
      <trkpt lat="47.46767" lon="6.62003">
        <ele>472.5</ele>
        <time>2017-06-11T09:55:31.000Z</time>
      </trkpt>
      <trkpt lat="47.4677" lon="6.62">
        <ele>472.3</ele>
        <time>2017-06-11T09:55:32.000Z</time>
      </trkpt>
      <trkpt lat="47.46774" lon="6.61996">
        <ele>472.1</ele>
        <time>2017-06-11T09:55:33.000Z</time>
      </trkpt>
      <trkpt lat="47.4678" lon="6.61995">
        <ele>472</ele>
        <time>2017-06-11T09:55:34.000Z</time>
      </trkpt>
      <trkpt lat="47.46785" lon="6.61992">
        <ele>471.9</ele>
        <time>2017-06-11T09:55:35.000Z</time>
      </trkpt>
      <trkpt lat="47.46789" lon="6.61988">
        <ele>471.6</ele>
        <time>2017-06-11T09:55:36.000Z</time>
      </trkpt>
      <trkpt lat="47.46793" lon="6.61985">
        <ele>471.5</ele>
        <time>2017-06-11T09:55:37.000Z</time>
      </trkpt>
      <trkpt lat="47.46797" lon="6.6198">
        <ele>471.5</ele>
        <time>2017-06-11T09:55:38.000Z</time>
      </trkpt>
      <trkpt lat="47.46801" lon="6.61975">
        <ele>471.5</ele>
        <time>2017-06-11T09:55:39.000Z</time>
      </trkpt>
      <trkpt lat="47.46805" lon="6.61969">
        <ele>471.6</ele>
        <time>2017-06-11T09:55:40.000Z</time>
      </trkpt>
      <trkpt lat="47.46807" lon="6.61967">
        <ele>471.5</ele>
        <time>2017-06-11T09:55:41.000Z</time>
      </trkpt>
      <trkpt lat="47.4681" lon="6.61964">
        <ele>471.6</ele>
        <time>2017-06-11T09:55:42.000Z</time>
      </trkpt>
      <trkpt lat="47.46812" lon="6.61961">
        <ele>471.6</ele>
        <time>2017-06-11T09:55:43.000Z</time>
      </trkpt>
      <trkpt lat="47.46815" lon="6.61958">
        <ele>471.6</ele>
        <time>2017-06-11T09:55:44.000Z</time>
      </trkpt>
      <trkpt lat="47.4682" lon="6.61956">
        <ele>471.5</ele>
        <time>2017-06-11T09:55:45.000Z</time>
      </trkpt>
      <trkpt lat="47.46825" lon="6.61951">
        <ele>471.3</ele>
        <time>2017-06-11T09:55:46.000Z</time>
      </trkpt>
      <trkpt lat="47.4683" lon="6.61948">
        <ele>470.9</ele>
        <time>2017-06-11T09:55:47.000Z</time>
      </trkpt>
      <trkpt lat="47.46834" lon="6.61945">
        <ele>470</ele>
        <time>2017-06-11T09:55:48.000Z</time>
      </trkpt>
      <trkpt lat="47.46837" lon="6.6194">
        <ele>468.6</ele>
        <time>2017-06-11T09:55:49.000Z</time>
      </trkpt>
      <trkpt lat="47.46841" lon="6.61937">
        <ele>467.9</ele>
        <time>2017-06-11T09:55:50.000Z</time>
      </trkpt>
      <trkpt lat="47.46847" lon="6.61931">
        <ele>466.9</ele>
        <time>2017-06-11T09:55:51.000Z</time>
      </trkpt>
      <trkpt lat="47.46854" lon="6.61928">
        <ele>465.6</ele>
        <time>2017-06-11T09:55:52.000Z</time>
      </trkpt>
      <trkpt lat="47.46861" lon="6.61923">
        <ele>463.4</ele>
        <time>2017-06-11T09:55:53.000Z</time>
      </trkpt>
      <trkpt lat="47.46869" lon="6.61918">
        <ele>462.8</ele>
        <time>2017-06-11T09:55:54.000Z</time>
      </trkpt>
      <trkpt lat="47.46878" lon="6.61914">
        <ele>462.8</ele>
        <time>2017-06-11T09:55:55.000Z</time>
      </trkpt>
      <trkpt lat="47.46887" lon="6.61909">
        <ele>463</ele>
        <time>2017-06-11T09:55:56.000Z</time>
      </trkpt>
      <trkpt lat="47.46896" lon="6.61903">
        <ele>463.4</ele>
        <time>2017-06-11T09:55:57.000Z</time>
      </trkpt>
      <trkpt lat="47.46902" lon="6.61899">
        <ele>463.9</ele>
        <time>2017-06-11T09:55:58.000Z</time>
      </trkpt>
      <trkpt lat="47.46907" lon="6.61894">
        <ele>464.4</ele>
        <time>2017-06-11T09:55:59.000Z</time>
      </trkpt>
      <trkpt lat="47.46914" lon="6.61887">
        <ele>464</ele>
        <time>2017-06-11T09:56:00.000Z</time>
      </trkpt>
      <trkpt lat="47.46921" lon="6.61879">
        <ele>463.6</ele>
        <time>2017-06-11T09:56:01.000Z</time>
      </trkpt>
      <trkpt lat="47.46928" lon="6.61872">
        <ele>463.4</ele>
        <time>2017-06-11T09:56:02.000Z</time>
      </trkpt>
      <trkpt lat="47.46934" lon="6.61862">
        <ele>463.1</ele>
        <time>2017-06-11T09:56:03.000Z</time>
      </trkpt>
      <trkpt lat="47.46941" lon="6.61851">
        <ele>462.7</ele>
        <time>2017-06-11T09:56:04.000Z</time>
      </trkpt>
      <trkpt lat="47.4695" lon="6.61844">
        <ele>461.7</ele>
        <time>2017-06-11T09:56:05.000Z</time>
      </trkpt>
      <trkpt lat="47.46959" lon="6.61837">
        <ele>460.7</ele>
        <time>2017-06-11T09:56:06.000Z</time>
      </trkpt>
      <trkpt lat="47.46968" lon="6.6183">
        <ele>460.8</ele>
        <time>2017-06-11T09:56:07.000Z</time>
      </trkpt>
      <trkpt lat="47.46979" lon="6.61822">
        <ele>460.2</ele>
        <time>2017-06-11T09:56:08.000Z</time>
      </trkpt>
      <trkpt lat="47.46988" lon="6.61815">
        <ele>458.8</ele>
        <time>2017-06-11T09:56:09.000Z</time>
      </trkpt>
      <trkpt lat="47.46998" lon="6.61808">
        <ele>457.1</ele>
        <time>2017-06-11T09:56:10.000Z</time>
      </trkpt>
      <trkpt lat="47.4701" lon="6.618">
        <ele>455.5</ele>
        <time>2017-06-11T09:56:11.000Z</time>
      </trkpt>
      <trkpt lat="47.47023" lon="6.61792">
        <ele>454.1</ele>
        <time>2017-06-11T09:56:12.000Z</time>
      </trkpt>
      <trkpt lat="47.47034" lon="6.61785">
        <ele>452.7</ele>
        <time>2017-06-11T09:56:13.000Z</time>
      </trkpt>
      <trkpt lat="47.47041" lon="6.6178">
        <ele>451.8</ele>
        <time>2017-06-11T09:56:14.000Z</time>
      </trkpt>
      <trkpt lat="47.47048" lon="6.61773">
        <ele>451.2</ele>
        <time>2017-06-11T09:56:15.000Z</time>
      </trkpt>
      <trkpt lat="47.47054" lon="6.61765">
        <ele>449.9</ele>
        <time>2017-06-11T09:56:16.000Z</time>
      </trkpt>
      <trkpt lat="47.47063" lon="6.61759">
        <ele>448.9</ele>
        <time>2017-06-11T09:56:17.000Z</time>
      </trkpt>
      <trkpt lat="47.47071" lon="6.61753">
        <ele>447</ele>
        <time>2017-06-11T09:56:18.000Z</time>
      </trkpt>
      <trkpt lat="47.47074" lon="6.6175">
        <ele>446.9</ele>
        <time>2017-06-11T09:56:19.000Z</time>
      </trkpt>
      <trkpt lat="47.47076" lon="6.61749">
        <ele>446.8</ele>
        <time>2017-06-11T09:56:20.000Z</time>
      </trkpt>
      <trkpt lat="47.47079" lon="6.61747">
        <ele>446.2</ele>
        <time>2017-06-11T09:56:21.000Z</time>
      </trkpt>
      <trkpt lat="47.47081" lon="6.61745">
        <ele>446.1</ele>
        <time>2017-06-11T09:56:22.000Z</time>
      </trkpt>
      <trkpt lat="47.47085" lon="6.61743">
        <ele>446</ele>
        <time>2017-06-11T09:56:24.000Z</time>
      </trkpt>
      <trkpt lat="47.47086" lon="6.61741">
        <ele>446</ele>
        <time>2017-06-11T09:56:25.000Z</time>
      </trkpt>
      <trkpt lat="47.47087" lon="6.61738">
        <ele>446</ele>
        <time>2017-06-11T09:56:26.000Z</time>
      </trkpt>
      <trkpt lat="47.47089" lon="6.61735">
        <ele>446</ele>
        <time>2017-06-11T09:56:27.000Z</time>
      </trkpt>
      <trkpt lat="47.47092" lon="6.61732">
        <ele>446</ele>
        <time>2017-06-11T09:56:28.000Z</time>
      </trkpt>
      <trkpt lat="47.47095" lon="6.61729">
        <ele>446</ele>
        <time>2017-06-11T09:56:29.000Z</time>
      </trkpt>
      <trkpt lat="47.47099" lon="6.61726">
        <ele>446</ele>
        <time>2017-06-11T09:56:30.000Z</time>
      </trkpt>
      <trkpt lat="47.47102" lon="6.61723">
        <ele>446</ele>
        <time>2017-06-11T09:56:31.000Z</time>
      </trkpt>
      <trkpt lat="47.47104" lon="6.61721">
        <ele>446.1</ele>
        <time>2017-06-11T09:56:32.000Z</time>
      </trkpt>
      <trkpt lat="47.47107" lon="6.61719">
        <ele>446.1</ele>
        <time>2017-06-11T09:56:33.000Z</time>
      </trkpt>
      <trkpt lat="47.47111" lon="6.61718">
        <ele>446.1</ele>
        <time>2017-06-11T09:56:35.000Z</time>
      </trkpt>
      <trkpt lat="47.47113" lon="6.61717">
        <ele>446.1</ele>
        <time>2017-06-11T09:56:36.000Z</time>
      </trkpt>
      <trkpt lat="47.47116" lon="6.61715">
        <ele>446</ele>
        <time>2017-06-11T09:56:37.000Z</time>
      </trkpt>
      <trkpt lat="47.47119" lon="6.61713">
        <ele>446.1</ele>
        <time>2017-06-11T09:56:38.000Z</time>
      </trkpt>
      <trkpt lat="47.47121" lon="6.61711">
        <ele>446.1</ele>
        <time>2017-06-11T09:56:39.000Z</time>
      </trkpt>
      <trkpt lat="47.47124" lon="6.6171">
        <ele>446.3</ele>
        <time>2017-06-11T09:56:40.000Z</time>
      </trkpt>
      <trkpt lat="47.47126" lon="6.61708">
        <ele>446.5</ele>
        <time>2017-06-11T09:56:41.000Z</time>
      </trkpt>
      <trkpt lat="47.47129" lon="6.61705">
        <ele>446.7</ele>
        <time>2017-06-11T09:56:43.000Z</time>
      </trkpt>
      <trkpt lat="47.47132" lon="6.61702">
        <ele>446.8</ele>
        <time>2017-06-11T09:56:45.000Z</time>
      </trkpt>
      <trkpt lat="47.47133" lon="6.617">
        <ele>446.9</ele>
        <time>2017-06-11T09:56:46.000Z</time>
      </trkpt>
      <trkpt lat="47.47136" lon="6.61697">
        <ele>447.2</ele>
        <time>2017-06-11T09:56:48.000Z</time>
      </trkpt>
      <trkpt lat="47.47137" lon="6.61696">
        <ele>447.3</ele>
        <time>2017-06-11T09:56:49.000Z</time>
      </trkpt>
      <trkpt lat="47.47141" lon="6.61694">
        <ele>447.6</ele>
        <time>2017-06-11T09:56:51.000Z</time>
      </trkpt>
      <trkpt lat="47.47142" lon="6.61692">
        <ele>447.7</ele>
        <time>2017-06-11T09:56:52.000Z</time>
      </trkpt>
      <trkpt lat="47.47145" lon="6.61691">
        <ele>447.8</ele>
        <time>2017-06-11T09:56:53.000Z</time>
      </trkpt>
      <trkpt lat="47.47147" lon="6.61689">
        <ele>447.9</ele>
        <time>2017-06-11T09:56:54.000Z</time>
      </trkpt>
      <trkpt lat="47.4715" lon="6.61685">
        <ele>448.1</ele>
        <time>2017-06-11T09:56:56.000Z</time>
      </trkpt>
      <trkpt lat="47.47151" lon="6.61684">
        <ele>448</ele>
        <time>2017-06-11T09:56:57.000Z</time>
      </trkpt>
      <trkpt lat="47.47153" lon="6.61681">
        <ele>447.8</ele>
        <time>2017-06-11T09:56:58.000Z</time>
      </trkpt>
      <trkpt lat="47.47156" lon="6.61678">
        <ele>447.7</ele>
        <time>2017-06-11T09:56:59.000Z</time>
      </trkpt>
      <trkpt lat="47.47158" lon="6.61675">
        <ele>447.6</ele>
        <time>2017-06-11T09:57:00.000Z</time>
      </trkpt>
      <trkpt lat="47.4716" lon="6.61671">
        <ele>447.4</ele>
        <time>2017-06-11T09:57:01.000Z</time>
      </trkpt>
      <trkpt lat="47.47164" lon="6.61667">
        <ele>446.5</ele>
        <time>2017-06-11T09:57:02.000Z</time>
      </trkpt>
      <trkpt lat="47.47168" lon="6.61663">
        <ele>445.3</ele>
        <time>2017-06-11T09:57:03.000Z</time>
      </trkpt>
      <trkpt lat="47.47173" lon="6.6166">
        <ele>443.9</ele>
        <time>2017-06-11T09:57:04.000Z</time>
      </trkpt>
      <trkpt lat="47.47178" lon="6.61656">
        <ele>443.4</ele>
        <time>2017-06-11T09:57:05.000Z</time>
      </trkpt>
      <trkpt lat="47.47183" lon="6.61651">
        <ele>441.9</ele>
        <time>2017-06-11T09:57:06.000Z</time>
      </trkpt>
      <trkpt lat="47.47189" lon="6.61645">
        <ele>440.5</ele>
        <time>2017-06-11T09:57:07.000Z</time>
      </trkpt>
      <trkpt lat="47.47196" lon="6.61638">
        <ele>440.3</ele>
        <time>2017-06-11T09:57:08.000Z</time>
      </trkpt>
      <trkpt lat="47.47202" lon="6.61631">
        <ele>440.4</ele>
        <time>2017-06-11T09:57:09.000Z</time>
      </trkpt>
      <trkpt lat="47.47207" lon="6.61628">
        <ele>440</ele>
        <time>2017-06-11T09:57:10.000Z</time>
      </trkpt>
      <trkpt lat="47.4721" lon="6.61627">
        <ele>440</ele>
        <time>2017-06-11T09:57:11.000Z</time>
      </trkpt>
      <trkpt lat="47.47213" lon="6.61626">
        <ele>440</ele>
        <time>2017-06-11T09:57:12.000Z</time>
      </trkpt>
      <trkpt lat="47.47216" lon="6.61623">
        <ele>440.1</ele>
        <time>2017-06-11T09:57:13.000Z</time>
      </trkpt>
      <trkpt lat="47.47219" lon="6.6162">
        <ele>440.1</ele>
        <time>2017-06-11T09:57:14.000Z</time>
      </trkpt>
      <trkpt lat="47.47222" lon="6.61617">
        <ele>440.1</ele>
        <time>2017-06-11T09:57:15.000Z</time>
      </trkpt>
      <trkpt lat="47.47225" lon="6.61615">
        <ele>440.1</ele>
        <time>2017-06-11T09:57:16.000Z</time>
      </trkpt>
      <trkpt lat="47.47229" lon="6.61615">
        <ele>440.1</ele>
        <time>2017-06-11T09:57:17.000Z</time>
      </trkpt>
      <trkpt lat="47.47232" lon="6.61616">
        <ele>440.2</ele>
        <time>2017-06-11T09:57:18.000Z</time>
      </trkpt>
      <trkpt lat="47.47235" lon="6.61617">
        <ele>440.3</ele>
        <time>2017-06-11T09:57:19.000Z</time>
      </trkpt>
      <trkpt lat="47.47237" lon="6.61618">
        <ele>440.4</ele>
        <time>2017-06-11T09:57:20.000Z</time>
      </trkpt>
      <trkpt lat="47.47239" lon="6.61618">
        <ele>440.4</ele>
        <time>2017-06-11T09:57:21.000Z</time>
      </trkpt>
      <trkpt lat="47.47241" lon="6.61618">
        <ele>440.5</ele>
        <time>2017-06-11T09:57:22.000Z</time>
      </trkpt>
      <trkpt lat="47.47245" lon="6.6162">
        <ele>440.6</ele>
        <time>2017-06-11T09:57:23.000Z</time>
      </trkpt>
      <trkpt lat="47.47247" lon="6.6162">
        <ele>440.6</ele>
        <time>2017-06-11T09:57:24.000Z</time>
      </trkpt>
      <trkpt lat="47.4725" lon="6.61622">
        <ele>440.6</ele>
        <time>2017-06-11T09:57:25.000Z</time>
      </trkpt>
      <trkpt lat="47.47253" lon="6.61623">
        <ele>440.7</ele>
        <time>2017-06-11T09:57:26.000Z</time>
      </trkpt>
      <trkpt lat="47.47257" lon="6.61625">
        <ele>440.9</ele>
        <time>2017-06-11T09:57:28.000Z</time>
      </trkpt>
      <trkpt lat="47.47259" lon="6.61626">
        <ele>440.9</ele>
        <time>2017-06-11T09:57:29.000Z</time>
      </trkpt>
      <trkpt lat="47.47263" lon="6.61626">
        <ele>441.1</ele>
        <time>2017-06-11T09:57:31.000Z</time>
      </trkpt>
      <trkpt lat="47.47266" lon="6.61628">
        <ele>441.2</ele>
        <time>2017-06-11T09:57:32.000Z</time>
      </trkpt>
      <trkpt lat="47.47268" lon="6.6163">
        <ele>441.3</ele>
        <time>2017-06-11T09:57:33.000Z</time>
      </trkpt>
      <trkpt lat="47.4727" lon="6.61632">
        <ele>441.4</ele>
        <time>2017-06-11T09:57:34.000Z</time>
      </trkpt>
      <trkpt lat="47.47272" lon="6.61634">
        <ele>441.4</ele>
        <time>2017-06-11T09:57:35.000Z</time>
      </trkpt>
      <trkpt lat="47.47276" lon="6.61635">
        <ele>441.5</ele>
        <time>2017-06-11T09:57:36.000Z</time>
      </trkpt>
      <trkpt lat="47.4728" lon="6.61637">
        <ele>442</ele>
        <time>2017-06-11T09:57:37.000Z</time>
      </trkpt>
      <trkpt lat="47.47284" lon="6.61638">
        <ele>442.1</ele>
        <time>2017-06-11T09:57:38.000Z</time>
      </trkpt>
      <trkpt lat="47.47288" lon="6.6164">
        <ele>442.3</ele>
        <time>2017-06-11T09:57:39.000Z</time>
      </trkpt>
      <trkpt lat="47.47292" lon="6.61642">
        <ele>442.2</ele>
        <time>2017-06-11T09:57:40.000Z</time>
      </trkpt>
      <trkpt lat="47.47297" lon="6.61643">
        <ele>441.7</ele>
        <time>2017-06-11T09:57:41.000Z</time>
      </trkpt>
      <trkpt lat="47.47302" lon="6.61645">
        <ele>441.5</ele>
        <time>2017-06-11T09:57:42.000Z</time>
      </trkpt>
      <trkpt lat="47.47306" lon="6.61646">
        <ele>441.4</ele>
        <time>2017-06-11T09:57:43.000Z</time>
      </trkpt>
      <trkpt lat="47.4731" lon="6.61647">
        <ele>441.3</ele>
        <time>2017-06-11T09:57:44.000Z</time>
      </trkpt>
      <trkpt lat="47.47317" lon="6.61648">
        <ele>441</ele>
        <time>2017-06-11T09:57:45.000Z</time>
      </trkpt>
      <trkpt lat="47.47322" lon="6.61649">
        <ele>440.8</ele>
        <time>2017-06-11T09:57:46.000Z</time>
      </trkpt>
      <trkpt lat="47.47327" lon="6.6165">
        <ele>441</ele>
        <time>2017-06-11T09:57:47.000Z</time>
      </trkpt>
      <trkpt lat="47.47332" lon="6.61651">
        <ele>441.4</ele>
        <time>2017-06-11T09:57:48.000Z</time>
      </trkpt>
      <trkpt lat="47.47336" lon="6.61652">
        <ele>441.8</ele>
        <time>2017-06-11T09:57:49.000Z</time>
      </trkpt>
      <trkpt lat="47.4734" lon="6.61653">
        <ele>441.7</ele>
        <time>2017-06-11T09:57:50.000Z</time>
      </trkpt>
      <trkpt lat="47.47345" lon="6.61654">
        <ele>441.8</ele>
        <time>2017-06-11T09:57:51.000Z</time>
      </trkpt>
      <trkpt lat="47.4735" lon="6.61655">
        <ele>441.7</ele>
        <time>2017-06-11T09:57:52.000Z</time>
      </trkpt>
      <trkpt lat="47.47354" lon="6.61656">
        <ele>442</ele>
        <time>2017-06-11T09:57:53.000Z</time>
      </trkpt>
      <trkpt lat="47.47359" lon="6.61657">
        <ele>441.7</ele>
        <time>2017-06-11T09:57:54.000Z</time>
      </trkpt>
      <trkpt lat="47.47364" lon="6.61658">
        <ele>441.3</ele>
        <time>2017-06-11T09:57:55.000Z</time>
      </trkpt>
      <trkpt lat="47.47369" lon="6.61658">
        <ele>440.9</ele>
        <time>2017-06-11T09:57:56.000Z</time>
      </trkpt>
      <trkpt lat="47.47373" lon="6.61658">
        <ele>440.6</ele>
        <time>2017-06-11T09:57:57.000Z</time>
      </trkpt>
      <trkpt lat="47.47377" lon="6.61657">
        <ele>440.2</ele>
        <time>2017-06-11T09:57:58.000Z</time>
      </trkpt>
      <trkpt lat="47.47383" lon="6.61657">
        <ele>439.7</ele>
        <time>2017-06-11T09:57:59.000Z</time>
      </trkpt>
      <trkpt lat="47.47389" lon="6.61655">
        <ele>438.8</ele>
        <time>2017-06-11T09:58:00.000Z</time>
      </trkpt>
      <trkpt lat="47.47395" lon="6.61654">
        <ele>438.2</ele>
        <time>2017-06-11T09:58:01.000Z</time>
      </trkpt>
      <trkpt lat="47.47402" lon="6.61651">
        <ele>436.8</ele>
        <time>2017-06-11T09:58:02.000Z</time>
      </trkpt>
      <trkpt lat="47.47408" lon="6.6165">
        <ele>434.8</ele>
        <time>2017-06-11T09:58:03.000Z</time>
      </trkpt>
      <trkpt lat="47.47413" lon="6.61648">
        <ele>432.7</ele>
        <time>2017-06-11T09:58:04.000Z</time>
      </trkpt>
      <trkpt lat="47.47417" lon="6.6165">
        <ele>432.4</ele>
        <time>2017-06-11T09:58:05.000Z</time>
      </trkpt>
      <trkpt lat="47.47418" lon="6.61652">
        <ele>432.2</ele>
        <time>2017-06-11T09:58:06.000Z</time>
      </trkpt>
      <trkpt lat="47.47419" lon="6.61657">
        <ele>431.6</ele>
        <time>2017-06-11T09:58:09.000Z</time>
      </trkpt>
      <trkpt lat="47.47418" lon="6.61659">
        <ele>431.4</ele>
        <time>2017-06-11T09:58:10.000Z</time>
      </trkpt>
      <trkpt lat="47.47417" lon="6.61663">
        <ele>431.3</ele>
        <time>2017-06-11T09:58:11.000Z</time>
      </trkpt>
      <trkpt lat="47.47416" lon="6.61671">
        <ele>429.8</ele>
        <time>2017-06-11T09:58:12.000Z</time>
      </trkpt>
      <trkpt lat="47.47418" lon="6.61678">
        <ele>427.9</ele>
        <time>2017-06-11T09:58:13.000Z</time>
      </trkpt>
      <trkpt lat="47.47421" lon="6.61686">
        <ele>427.2</ele>
        <time>2017-06-11T09:58:14.000Z</time>
      </trkpt>
      <trkpt lat="47.47424" lon="6.61692">
        <ele>426.5</ele>
        <time>2017-06-11T09:58:15.000Z</time>
      </trkpt>
      <trkpt lat="47.47429" lon="6.617">
        <ele>425.3</ele>
        <time>2017-06-11T09:58:16.000Z</time>
      </trkpt>
      <trkpt lat="47.47435" lon="6.61705">
        <ele>424.2</ele>
        <time>2017-06-11T09:58:17.000Z</time>
      </trkpt>
      <trkpt lat="47.47442" lon="6.61712">
        <ele>423.9</ele>
        <time>2017-06-11T09:58:18.000Z</time>
      </trkpt>
      <trkpt lat="47.47449" lon="6.61716">
        <ele>423.3</ele>
        <time>2017-06-11T09:58:19.000Z</time>
      </trkpt>
      <trkpt lat="47.47455" lon="6.61718">
        <ele>422.9</ele>
        <time>2017-06-11T09:58:20.000Z</time>
      </trkpt>
      <trkpt lat="47.4746" lon="6.6172">
        <ele>422.7</ele>
        <time>2017-06-11T09:58:21.000Z</time>
      </trkpt>
      <trkpt lat="47.47465" lon="6.61723">
        <ele>422.6</ele>
        <time>2017-06-11T09:58:22.000Z</time>
      </trkpt>
      <trkpt lat="47.47472" lon="6.61727">
        <ele>422.5</ele>
        <time>2017-06-11T09:58:23.000Z</time>
      </trkpt>
      <trkpt lat="47.47478" lon="6.61731">
        <ele>422.5</ele>
        <time>2017-06-11T09:58:24.000Z</time>
      </trkpt>
      <trkpt lat="47.47484" lon="6.61736">
        <ele>422.4</ele>
        <time>2017-06-11T09:58:25.000Z</time>
      </trkpt>
      <trkpt lat="47.4749" lon="6.6174">
        <ele>421.6</ele>
        <time>2017-06-11T09:58:26.000Z</time>
      </trkpt>
      <trkpt lat="47.47495" lon="6.61744">
        <ele>420.2</ele>
        <time>2017-06-11T09:58:27.000Z</time>
      </trkpt>
      <trkpt lat="47.47499" lon="6.61747">
        <ele>418.9</ele>
        <time>2017-06-11T09:58:28.000Z</time>
      </trkpt>
      <trkpt lat="47.47504" lon="6.61751">
        <ele>417.3</ele>
        <time>2017-06-11T09:58:29.000Z</time>
      </trkpt>
      <trkpt lat="47.47508" lon="6.61755">
        <ele>416.8</ele>
        <time>2017-06-11T09:58:30.000Z</time>
      </trkpt>
      <trkpt lat="47.47514" lon="6.6176">
        <ele>416.6</ele>
        <time>2017-06-11T09:58:31.000Z</time>
      </trkpt>
      <trkpt lat="47.47519" lon="6.61765">
        <ele>416.4</ele>
        <time>2017-06-11T09:58:32.000Z</time>
      </trkpt>
      <trkpt lat="47.47526" lon="6.6177">
        <ele>417.4</ele>
        <time>2017-06-11T09:58:33.000Z</time>
      </trkpt>
      <trkpt lat="47.4753" lon="6.61774">
        <ele>417.8</ele>
        <time>2017-06-11T09:58:34.000Z</time>
      </trkpt>
      <trkpt lat="47.47535" lon="6.61776">
        <ele>417.9</ele>
        <time>2017-06-11T09:58:35.000Z</time>
      </trkpt>
      <trkpt lat="47.47542" lon="6.61777">
        <ele>417.6</ele>
        <time>2017-06-11T09:58:36.000Z</time>
      </trkpt>
      <trkpt lat="47.47548" lon="6.61778">
        <ele>417.5</ele>
        <time>2017-06-11T09:58:37.000Z</time>
      </trkpt>
      <trkpt lat="47.47556" lon="6.6178">
        <ele>417.6</ele>
        <time>2017-06-11T09:58:38.000Z</time>
      </trkpt>
      <trkpt lat="47.47563" lon="6.61782">
        <ele>417.5</ele>
        <time>2017-06-11T09:58:39.000Z</time>
      </trkpt>
      <trkpt lat="47.47568" lon="6.61784">
        <ele>417</ele>
        <time>2017-06-11T09:58:40.000Z</time>
      </trkpt>
      <trkpt lat="47.47574" lon="6.61785">
        <ele>416.8</ele>
        <time>2017-06-11T09:58:41.000Z</time>
      </trkpt>
      <trkpt lat="47.4758" lon="6.61787">
        <ele>415.4</ele>
        <time>2017-06-11T09:58:42.000Z</time>
      </trkpt>
      <trkpt lat="47.47585" lon="6.61788">
        <ele>413.3</ele>
        <time>2017-06-11T09:58:43.000Z</time>
      </trkpt>
      <trkpt lat="47.47589" lon="6.61791">
        <ele>412.1</ele>
        <time>2017-06-11T09:58:44.000Z</time>
      </trkpt>
      <trkpt lat="47.47594" lon="6.61795">
        <ele>410.6</ele>
        <time>2017-06-11T09:58:45.000Z</time>
      </trkpt>
      <trkpt lat="47.47598" lon="6.61801">
        <ele>409</ele>
        <time>2017-06-11T09:58:46.000Z</time>
      </trkpt>
      <trkpt lat="47.47602" lon="6.61806">
        <ele>407.1</ele>
        <time>2017-06-11T09:58:47.000Z</time>
      </trkpt>
      <trkpt lat="47.47606" lon="6.61812">
        <ele>405.6</ele>
        <time>2017-06-11T09:58:48.000Z</time>
      </trkpt>
      <trkpt lat="47.4761" lon="6.61818">
        <ele>403.9</ele>
        <time>2017-06-11T09:58:49.000Z</time>
      </trkpt>
      <trkpt lat="47.47613" lon="6.61824">
        <ele>401.7</ele>
        <time>2017-06-11T09:58:50.000Z</time>
      </trkpt>
      <trkpt lat="47.47618" lon="6.61829">
        <ele>399.6</ele>
        <time>2017-06-11T09:58:51.000Z</time>
      </trkpt>
      <trkpt lat="47.47623" lon="6.61834">
        <ele>397.6</ele>
        <time>2017-06-11T09:58:52.000Z</time>
      </trkpt>
      <trkpt lat="47.47627" lon="6.61838">
        <ele>396.3</ele>
        <time>2017-06-11T09:58:53.000Z</time>
      </trkpt>
      <trkpt lat="47.4763" lon="6.61842">
        <ele>396.2</ele>
        <time>2017-06-11T09:58:54.000Z</time>
      </trkpt>
      <trkpt lat="47.47634" lon="6.61845">
        <ele>396.1</ele>
        <time>2017-06-11T09:58:55.000Z</time>
      </trkpt>
      <trkpt lat="47.47638" lon="6.61849">
        <ele>395.9</ele>
        <time>2017-06-11T09:58:56.000Z</time>
      </trkpt>
      <trkpt lat="47.47641" lon="6.61852">
        <ele>395.7</ele>
        <time>2017-06-11T09:58:57.000Z</time>
      </trkpt>
      <trkpt lat="47.47643" lon="6.61854">
        <ele>395.5</ele>
        <time>2017-06-11T09:58:58.000Z</time>
      </trkpt>
      <trkpt lat="47.47647" lon="6.61857">
        <ele>395.1</ele>
        <time>2017-06-11T09:59:00.000Z</time>
      </trkpt>
      <trkpt lat="47.47649" lon="6.61859">
        <ele>394.8</ele>
        <time>2017-06-11T09:59:01.000Z</time>
      </trkpt>
      <trkpt lat="47.47652" lon="6.61861">
        <ele>394.6</ele>
        <time>2017-06-11T09:59:02.000Z</time>
      </trkpt>
      <trkpt lat="47.47655" lon="6.61864">
        <ele>394.4</ele>
        <time>2017-06-11T09:59:03.000Z</time>
      </trkpt>
      <trkpt lat="47.47658" lon="6.61866">
        <ele>394.3</ele>
        <time>2017-06-11T09:59:04.000Z</time>
      </trkpt>
      <trkpt lat="47.47662" lon="6.61868">
        <ele>394.1</ele>
        <time>2017-06-11T09:59:05.000Z</time>
      </trkpt>
      <trkpt lat="47.47666" lon="6.6187">
        <ele>393.9</ele>
        <time>2017-06-11T09:59:06.000Z</time>
      </trkpt>
      <trkpt lat="47.47669" lon="6.61871">
        <ele>393.7</ele>
        <time>2017-06-11T09:59:07.000Z</time>
      </trkpt>
      <trkpt lat="47.47671" lon="6.61874">
        <ele>393.5</ele>
        <time>2017-06-11T09:59:08.000Z</time>
      </trkpt>
      <trkpt lat="47.47673" lon="6.61877">
        <ele>393.3</ele>
        <time>2017-06-11T09:59:09.000Z</time>
      </trkpt>
      <trkpt lat="47.47676" lon="6.61883">
        <ele>393</ele>
        <time>2017-06-11T09:59:10.000Z</time>
      </trkpt>
      <trkpt lat="47.4768" lon="6.61889">
        <ele>392.7</ele>
        <time>2017-06-11T09:59:11.000Z</time>
      </trkpt>
      <trkpt lat="47.47682" lon="6.61893">
        <ele>392.4</ele>
        <time>2017-06-11T09:59:12.000Z</time>
      </trkpt>
      <trkpt lat="47.47685" lon="6.61896">
        <ele>392.1</ele>
        <time>2017-06-11T09:59:13.000Z</time>
      </trkpt>
      <trkpt lat="47.47689" lon="6.61902">
        <ele>390.1</ele>
        <time>2017-06-11T09:59:14.000Z</time>
      </trkpt>
      <trkpt lat="47.47695" lon="6.61908">
        <ele>388.3</ele>
        <time>2017-06-11T09:59:15.000Z</time>
      </trkpt>
      <trkpt lat="47.47701" lon="6.61912">
        <ele>388</ele>
        <time>2017-06-11T09:59:16.000Z</time>
      </trkpt>
      <trkpt lat="47.47704" lon="6.61916">
        <ele>388</ele>
        <time>2017-06-11T09:59:17.000Z</time>
      </trkpt>
      <trkpt lat="47.47709" lon="6.61923">
        <ele>387.8</ele>
        <time>2017-06-11T09:59:18.000Z</time>
      </trkpt>
      <trkpt lat="47.47713" lon="6.61932">
        <ele>386.2</ele>
        <time>2017-06-11T09:59:19.000Z</time>
      </trkpt>
      <trkpt lat="47.47714" lon="6.61937">
        <ele>384.8</ele>
        <time>2017-06-11T09:59:20.000Z</time>
      </trkpt>
      <trkpt lat="47.47711" lon="6.61943">
        <ele>383.2</ele>
        <time>2017-06-11T09:59:21.000Z</time>
      </trkpt>
      <trkpt lat="47.47708" lon="6.6195">
        <ele>382.1</ele>
        <time>2017-06-11T09:59:22.000Z</time>
      </trkpt>
      <trkpt lat="47.47706" lon="6.61957">
        <ele>381.1</ele>
        <time>2017-06-11T09:59:23.000Z</time>
      </trkpt>
      <trkpt lat="47.47704" lon="6.61962">
        <ele>381</ele>
        <time>2017-06-11T09:59:24.000Z</time>
      </trkpt>
      <trkpt lat="47.47703" lon="6.61966">
        <ele>380.7</ele>
        <time>2017-06-11T09:59:25.000Z</time>
      </trkpt>
      <trkpt lat="47.47702" lon="6.61972">
        <ele>380.5</ele>
        <time>2017-06-11T09:59:26.000Z</time>
      </trkpt>
      <trkpt lat="47.47703" lon="6.61982">
        <ele>378.3</ele>
        <time>2017-06-11T09:59:27.000Z</time>
      </trkpt>
      <trkpt lat="47.47706" lon="6.61987">
        <ele>377.2</ele>
        <time>2017-06-11T09:59:28.000Z</time>
      </trkpt>
      <trkpt lat="47.47712" lon="6.61995">
        <ele>375.9</ele>
        <time>2017-06-11T09:59:29.000Z</time>
      </trkpt>
      <trkpt lat="47.47717" lon="6.62003">
        <ele>374.7</ele>
        <time>2017-06-11T09:59:30.000Z</time>
      </trkpt>
      <trkpt lat="47.47722" lon="6.62008">
        <ele>373.5</ele>
        <time>2017-06-11T09:59:31.000Z</time>
      </trkpt>
      <trkpt lat="47.47728" lon="6.62014">
        <ele>372.6</ele>
        <time>2017-06-11T09:59:32.000Z</time>
      </trkpt>
      <trkpt lat="47.47732" lon="6.62019">
        <ele>371.8</ele>
        <time>2017-06-11T09:59:33.000Z</time>
      </trkpt>
      <trkpt lat="47.47735" lon="6.62025">
        <ele>371.8</ele>
        <time>2017-06-11T09:59:34.000Z</time>
      </trkpt>
      <trkpt lat="47.47739" lon="6.6203">
        <ele>371.4</ele>
        <time>2017-06-11T09:59:35.000Z</time>
      </trkpt>
      <trkpt lat="47.47742" lon="6.62034">
        <ele>371.5</ele>
        <time>2017-06-11T09:59:36.000Z</time>
      </trkpt>
      <trkpt lat="47.47746" lon="6.62039">
        <ele>371.8</ele>
        <time>2017-06-11T09:59:37.000Z</time>
      </trkpt>
      <trkpt lat="47.47748" lon="6.62041">
        <ele>371.8</ele>
        <time>2017-06-11T09:59:38.000Z</time>
      </trkpt>
      <trkpt lat="47.47751" lon="6.62045">
        <ele>371.8</ele>
        <time>2017-06-11T09:59:39.000Z</time>
      </trkpt>
      <trkpt lat="47.47754" lon="6.62049">
        <ele>371.8</ele>
        <time>2017-06-11T09:59:40.000Z</time>
      </trkpt>
      <trkpt lat="47.47757" lon="6.62053">
        <ele>371.5</ele>
        <time>2017-06-11T09:59:41.000Z</time>
      </trkpt>
      <trkpt lat="47.47761" lon="6.62057">
        <ele>370.4</ele>
        <time>2017-06-11T09:59:42.000Z</time>
      </trkpt>
      <trkpt lat="47.47764" lon="6.62061">
        <ele>370</ele>
        <time>2017-06-11T09:59:43.000Z</time>
      </trkpt>
      <trkpt lat="47.47767" lon="6.62065">
        <ele>369.6</ele>
        <time>2017-06-11T09:59:44.000Z</time>
      </trkpt>
      <trkpt lat="47.4777" lon="6.62068">
        <ele>369.5</ele>
        <time>2017-06-11T09:59:45.000Z</time>
      </trkpt>
      <trkpt lat="47.47773" lon="6.62072">
        <ele>369.5</ele>
        <time>2017-06-11T09:59:46.000Z</time>
      </trkpt>
      <trkpt lat="47.47775" lon="6.62075">
        <ele>369.5</ele>
        <time>2017-06-11T09:59:47.000Z</time>
      </trkpt>
      <trkpt lat="47.47777" lon="6.62079">
        <ele>369.6</ele>
        <time>2017-06-11T09:59:48.000Z</time>
      </trkpt>
      <trkpt lat="47.47779" lon="6.62081">
        <ele>369.6</ele>
        <time>2017-06-11T09:59:49.000Z</time>
      </trkpt>
      <trkpt lat="47.47781" lon="6.62084">
        <ele>369.7</ele>
        <time>2017-06-11T09:59:50.000Z</time>
      </trkpt>
      <trkpt lat="47.47783" lon="6.62087">
        <ele>369.8</ele>
        <time>2017-06-11T09:59:51.000Z</time>
      </trkpt>
      <trkpt lat="47.47787" lon="6.6209">
        <ele>369.8</ele>
        <time>2017-06-11T09:59:52.000Z</time>
      </trkpt>
      <trkpt lat="47.4779" lon="6.62094">
        <ele>369.9</ele>
        <time>2017-06-11T09:59:53.000Z</time>
      </trkpt>
      <trkpt lat="47.47792" lon="6.62097">
        <ele>370</ele>
        <time>2017-06-11T09:59:54.000Z</time>
      </trkpt>
      <trkpt lat="47.47794" lon="6.621">
        <ele>370.2</ele>
        <time>2017-06-11T09:59:56.000Z</time>
      </trkpt>
      <trkpt lat="47.47796" lon="6.62102">
        <ele>370.3</ele>
        <time>2017-06-11T09:59:57.000Z</time>
      </trkpt>
      <trkpt lat="47.47799" lon="6.62107">
        <ele>370.6</ele>
        <time>2017-06-11T09:59:59.000Z</time>
      </trkpt>
      <trkpt lat="47.47802" lon="6.6211">
        <ele>370.8</ele>
        <time>2017-06-11T10:00:00.000Z</time>
      </trkpt>
      <trkpt lat="47.47805" lon="6.62112">
        <ele>371.1</ele>
        <time>2017-06-11T10:00:01.000Z</time>
      </trkpt>
      <trkpt lat="47.47807" lon="6.62113">
        <ele>371.5</ele>
        <time>2017-06-11T10:00:02.000Z</time>
      </trkpt>
      <trkpt lat="47.47807" lon="6.62113">
        <ele>373.1</ele>
        <time>2017-06-11T10:00:14.000Z</time>
      </trkpt>
      <trkpt lat="47.4782" lon="6.62119">
        <ele>373.4</ele>
        <time>2017-06-11T10:00:15.000Z</time>
      </trkpt>
      <trkpt lat="47.4782" lon="6.62119">
        <ele>375.3</ele>
        <time>2017-06-11T10:00:22.000Z</time>
      </trkpt>
      <trkpt lat="47.47828" lon="6.62114">
        <ele>375.7</ele>
        <time>2017-06-11T10:00:23.000Z</time>
      </trkpt>
      <trkpt lat="47.47828" lon="6.62114">
        <ele>378.3</ele>
        <time>2017-06-11T10:00:38.000Z</time>
      </trkpt>
      <trkpt lat="47.47841" lon="6.62103">
        <ele>378.5</ele>
        <time>2017-06-11T10:00:39.000Z</time>
      </trkpt>
      <trkpt lat="47.47841" lon="6.62103">
        <ele>379.4</ele>
        <time>2017-06-11T10:00:51.000Z</time>
      </trkpt>
      <trkpt lat="47.47851" lon="6.62098">
        <ele>379.4</ele>
        <time>2017-06-11T10:00:52.000Z</time>
      </trkpt>
      <trkpt lat="47.47851" lon="6.62098">
        <ele>379.6</ele>
        <time>2017-06-11T10:01:01.000Z</time>
      </trkpt>
      <trkpt lat="47.47862" lon="6.62095">
        <ele>379.6</ele>
        <time>2017-06-11T10:01:02.000Z</time>
      </trkpt>
      <trkpt lat="47.47862" lon="6.62095">
        <ele>379.5</ele>
        <time>2017-06-11T10:01:10.000Z</time>
      </trkpt>
      <trkpt lat="47.4787" lon="6.62093">
        <ele>379.4</ele>
        <time>2017-06-11T10:01:11.000Z</time>
      </trkpt>
      <trkpt lat="47.4787" lon="6.62093">
        <ele>379.8</ele>
        <time>2017-06-11T10:01:25.000Z</time>
      </trkpt>
      <trkpt lat="47.47879" lon="6.62093">
        <ele>379.9</ele>
        <time>2017-06-11T10:01:26.000Z</time>
      </trkpt>
      <trkpt lat="47.47879" lon="6.62093">
        <ele>380.7</ele>
        <time>2017-06-11T10:01:32.000Z</time>
      </trkpt>
      <trkpt lat="47.47892" lon="6.62091">
        <ele>380.9</ele>
        <time>2017-06-11T10:01:33.000Z</time>
      </trkpt>
      <trkpt lat="47.47892" lon="6.62091">
        <ele>381.4</ele>
        <time>2017-06-11T10:01:39.000Z</time>
      </trkpt>
      <trkpt lat="47.47902" lon="6.62084">
        <ele>381.5</ele>
        <time>2017-06-11T10:01:40.000Z</time>
      </trkpt>
      <trkpt lat="47.47902" lon="6.62084">
        <ele>382.9</ele>
        <time>2017-06-11T10:01:47.000Z</time>
      </trkpt>
      <trkpt lat="47.47912" lon="6.62071">
        <ele>383.2</ele>
        <time>2017-06-11T10:01:48.000Z</time>
      </trkpt>
      <trkpt lat="47.47912" lon="6.62071">
        <ele>385.2</ele>
        <time>2017-06-11T10:02:00.000Z</time>
      </trkpt>
      <trkpt lat="47.47925" lon="6.62062">
        <ele>385.2</ele>
        <time>2017-06-11T10:02:01.000Z</time>
      </trkpt>
      <trkpt lat="47.47928" lon="6.6206">
        <ele>385.3</ele>
        <time>2017-06-11T10:02:03.000Z</time>
      </trkpt>
      <trkpt lat="47.4793" lon="6.6206">
        <ele>385.2</ele>
        <time>2017-06-11T10:02:04.000Z</time>
      </trkpt>
      <trkpt lat="47.47935" lon="6.6206">
        <ele>384.9</ele>
        <time>2017-06-11T10:02:06.000Z</time>
      </trkpt>
      <trkpt lat="47.47936" lon="6.62061">
        <ele>384.9</ele>
        <time>2017-06-11T10:02:07.000Z</time>
      </trkpt>
      <trkpt lat="47.4794" lon="6.62063">
        <ele>384.9</ele>
        <time>2017-06-11T10:02:09.000Z</time>
      </trkpt>
      <trkpt lat="47.47943" lon="6.62064">
        <ele>384.8</ele>
        <time>2017-06-11T10:02:10.000Z</time>
      </trkpt>
      <trkpt lat="47.47945" lon="6.62062">
        <ele>384.7</ele>
        <time>2017-06-11T10:02:11.000Z</time>
      </trkpt>
      <trkpt lat="47.4795" lon="6.62059">
        <ele>384.6</ele>
        <time>2017-06-11T10:02:12.000Z</time>
      </trkpt>
      <trkpt lat="47.47955" lon="6.62055">
        <ele>383.3</ele>
        <time>2017-06-11T10:02:13.000Z</time>
      </trkpt>
      <trkpt lat="47.47962" lon="6.62048">
        <ele>381.9</ele>
        <time>2017-06-11T10:02:14.000Z</time>
      </trkpt>
      <trkpt lat="47.47969" lon="6.62044">
        <ele>381</ele>
        <time>2017-06-11T10:02:15.000Z</time>
      </trkpt>
      <trkpt lat="47.47975" lon="6.62042">
        <ele>379.5</ele>
        <time>2017-06-11T10:02:16.000Z</time>
      </trkpt>
      <trkpt lat="47.47983" lon="6.62039">
        <ele>378.5</ele>
        <time>2017-06-11T10:02:17.000Z</time>
      </trkpt>
      <trkpt lat="47.47988" lon="6.62037">
        <ele>378.4</ele>
        <time>2017-06-11T10:02:18.000Z</time>
      </trkpt>
      <trkpt lat="47.47991" lon="6.62037">
        <ele>378.3</ele>
        <time>2017-06-11T10:02:19.000Z</time>
      </trkpt>
      <trkpt lat="47.47992" lon="6.6204">
        <ele>378.2</ele>
        <time>2017-06-11T10:02:20.000Z</time>
      </trkpt>
      <trkpt lat="47.47995" lon="6.62045">
        <ele>378.2</ele>
        <time>2017-06-11T10:02:26.000Z</time>
      </trkpt>
      <trkpt lat="47.47998" lon="6.62054">
        <ele>378.3</ele>
        <time>2017-06-11T10:02:27.000Z</time>
      </trkpt>
      <trkpt lat="47.47999" lon="6.62058">
        <ele>378.5</ele>
        <time>2017-06-11T10:02:28.000Z</time>
      </trkpt>
      <trkpt lat="47.48001" lon="6.62061">
        <ele>378.7</ele>
        <time>2017-06-11T10:02:29.000Z</time>
      </trkpt>
      <trkpt lat="47.48002" lon="6.62063">
        <ele>378.9</ele>
        <time>2017-06-11T10:02:30.000Z</time>
      </trkpt>
      <trkpt lat="47.48003" lon="6.62066">
        <ele>379.2</ele>
        <time>2017-06-11T10:02:31.000Z</time>
      </trkpt>
      <trkpt lat="47.48005" lon="6.62071">
        <ele>379.8</ele>
        <time>2017-06-11T10:02:34.000Z</time>
      </trkpt>
      <trkpt lat="47.48005" lon="6.62072">
        <ele>380.1</ele>
        <time>2017-06-11T10:02:35.000Z</time>
      </trkpt>
      <trkpt lat="47.48008" lon="6.62075">
        <ele>384.3</ele>
        <time>2017-06-11T10:02:59.000Z</time>
      </trkpt>
      <trkpt lat="47.48017" lon="6.62054">
        <ele>384.6</ele>
        <time>2017-06-11T10:03:00.000Z</time>
      </trkpt>
      <trkpt lat="47.48017" lon="6.62054">
        <ele>385.8</ele>
        <time>2017-06-11T10:03:05.000Z</time>
      </trkpt>
      <trkpt lat="47.48017" lon="6.62037">
        <ele>386.2</ele>
        <time>2017-06-11T10:03:06.000Z</time>
      </trkpt>
      <trkpt lat="47.48017" lon="6.62037">
        <ele>387.1</ele>
        <time>2017-06-11T10:03:11.000Z</time>
      </trkpt>
      <trkpt lat="47.48018" lon="6.6203">
        <ele>387.5</ele>
        <time>2017-06-11T10:03:12.000Z</time>
      </trkpt>
      <trkpt lat="47.48018" lon="6.62027">
        <ele>390.9</ele>
        <time>2017-06-11T10:03:29.000Z</time>
      </trkpt>
      <trkpt lat="47.4803" lon="6.61999">
        <ele>391</ele>
        <time>2017-06-11T10:03:30.000Z</time>
      </trkpt>
      <trkpt lat="47.4803" lon="6.61999">
        <ele>392.2</ele>
        <time>2017-06-11T10:03:38.000Z</time>
      </trkpt>
      <trkpt lat="47.4804" lon="6.61983">
        <ele>392.4</ele>
        <time>2017-06-11T10:03:39.000Z</time>
      </trkpt>
      <trkpt lat="47.4804" lon="6.61983">
        <ele>393.3</ele>
        <time>2017-06-11T10:03:44.000Z</time>
      </trkpt>
      <trkpt lat="47.48047" lon="6.61965">
        <ele>393.4</ele>
        <time>2017-06-11T10:03:45.000Z</time>
      </trkpt>
      <trkpt lat="47.48048" lon="6.61962">
        <ele>393.6</ele>
        <time>2017-06-11T10:03:46.000Z</time>
      </trkpt>
      <trkpt lat="47.48049" lon="6.61959">
        <ele>393.7</ele>
        <time>2017-06-11T10:03:47.000Z</time>
      </trkpt>
      <trkpt lat="47.4805" lon="6.61953">
        <ele>394.1</ele>
        <time>2017-06-11T10:03:49.000Z</time>
      </trkpt>
      <trkpt lat="47.48051" lon="6.6195">
        <ele>394.3</ele>
        <time>2017-06-11T10:03:50.000Z</time>
      </trkpt>
      <trkpt lat="47.48053" lon="6.61945">
        <ele>394.6</ele>
        <time>2017-06-11T10:03:52.000Z</time>
      </trkpt>
      <trkpt lat="47.48055" lon="6.61942">
        <ele>394.7</ele>
        <time>2017-06-11T10:03:53.000Z</time>
      </trkpt>
      <trkpt lat="47.48057" lon="6.61938">
        <ele>394.9</ele>
        <time>2017-06-11T10:03:55.000Z</time>
      </trkpt>
      <trkpt lat="47.48058" lon="6.61934">
        <ele>394.9</ele>
        <time>2017-06-11T10:03:56.000Z</time>
      </trkpt>
      <trkpt lat="47.4806" lon="6.6193">
        <ele>395</ele>
        <time>2017-06-11T10:03:57.000Z</time>
      </trkpt>
      <trkpt lat="47.48062" lon="6.61925">
        <ele>395.2</ele>
        <time>2017-06-11T10:03:58.000Z</time>
      </trkpt>
      <trkpt lat="47.48063" lon="6.61921">
        <ele>395.3</ele>
        <time>2017-06-11T10:03:59.000Z</time>
      </trkpt>
      <trkpt lat="47.48064" lon="6.61919">
        <ele>395.4</ele>
        <time>2017-06-11T10:04:00.000Z</time>
      </trkpt>
      <trkpt lat="47.48065" lon="6.61914">
        <ele>395.5</ele>
        <time>2017-06-11T10:04:01.000Z</time>
      </trkpt>
      <trkpt lat="47.48066" lon="6.61911">
        <ele>395.5</ele>
        <time>2017-06-11T10:04:02.000Z</time>
      </trkpt>
      <trkpt lat="47.48068" lon="6.61907">
        <ele>395.7</ele>
        <time>2017-06-11T10:04:03.000Z</time>
      </trkpt>
      <trkpt lat="47.48069" lon="6.61904">
        <ele>396</ele>
        <time>2017-06-11T10:04:04.000Z</time>
      </trkpt>
      <trkpt lat="47.4807" lon="6.61902">
        <ele>396.3</ele>
        <time>2017-06-11T10:04:05.000Z</time>
      </trkpt>
      <trkpt lat="47.48072" lon="6.61899">
        <ele>396.4</ele>
        <time>2017-06-11T10:04:06.000Z</time>
      </trkpt>
      <trkpt lat="47.48075" lon="6.61897">
        <ele>396.5</ele>
        <time>2017-06-11T10:04:07.000Z</time>
      </trkpt>
      <trkpt lat="47.48078" lon="6.61895">
        <ele>396.7</ele>
        <time>2017-06-11T10:04:08.000Z</time>
      </trkpt>
      <trkpt lat="47.4808" lon="6.61893">
        <ele>396.8</ele>
        <time>2017-06-11T10:04:09.000Z</time>
      </trkpt>
      <trkpt lat="47.48083" lon="6.6189">
        <ele>397.1</ele>
        <time>2017-06-11T10:04:10.000Z</time>
      </trkpt>
      <trkpt lat="47.48086" lon="6.61887">
        <ele>397.2</ele>
        <time>2017-06-11T10:04:11.000Z</time>
      </trkpt>
      <trkpt lat="47.48088" lon="6.61885">
        <ele>397.5</ele>
        <time>2017-06-11T10:04:12.000Z</time>
      </trkpt>
      <trkpt lat="47.4809" lon="6.61882">
        <ele>397.7</ele>
        <time>2017-06-11T10:04:13.000Z</time>
      </trkpt>
      <trkpt lat="47.48092" lon="6.61878">
        <ele>397.8</ele>
        <time>2017-06-11T10:04:14.000Z</time>
      </trkpt>
      <trkpt lat="47.48094" lon="6.61874">
        <ele>397.9</ele>
        <time>2017-06-11T10:04:15.000Z</time>
      </trkpt>
      <trkpt lat="47.48095" lon="6.6187">
        <ele>398.1</ele>
        <time>2017-06-11T10:04:16.000Z</time>
      </trkpt>
      <trkpt lat="47.48094" lon="6.61866">
        <ele>398.3</ele>
        <time>2017-06-11T10:04:17.000Z</time>
      </trkpt>
      <trkpt lat="47.48093" lon="6.61861">
        <ele>400.6</ele>
        <time>2017-06-11T10:04:18.000Z</time>
      </trkpt>
      <trkpt lat="47.48091" lon="6.61856">
        <ele>402.7</ele>
        <time>2017-06-11T10:04:19.000Z</time>
      </trkpt>
      <trkpt lat="47.4809" lon="6.6185">
        <ele>404.6</ele>
        <time>2017-06-11T10:04:20.000Z</time>
      </trkpt>
      <trkpt lat="47.48089" lon="6.61844">
        <ele>407</ele>
        <time>2017-06-11T10:04:21.000Z</time>
      </trkpt>
      <trkpt lat="47.48087" lon="6.61837">
        <ele>408.5</ele>
        <time>2017-06-11T10:04:22.000Z</time>
      </trkpt>
      <trkpt lat="47.48085" lon="6.61829">
        <ele>409.1</ele>
        <time>2017-06-11T10:04:23.000Z</time>
      </trkpt>
      <trkpt lat="47.48084" lon="6.61822">
        <ele>409.8</ele>
        <time>2017-06-11T10:04:24.000Z</time>
      </trkpt>
      <trkpt lat="47.48085" lon="6.61816">
        <ele>409.4</ele>
        <time>2017-06-11T10:04:25.000Z</time>
      </trkpt>
      <trkpt lat="47.48086" lon="6.61809">
        <ele>408.5</ele>
        <time>2017-06-11T10:04:26.000Z</time>
      </trkpt>
      <trkpt lat="47.48088" lon="6.61803">
        <ele>408.2</ele>
        <time>2017-06-11T10:04:27.000Z</time>
      </trkpt>
      <trkpt lat="47.48091" lon="6.61797">
        <ele>407.4</ele>
        <time>2017-06-11T10:04:28.000Z</time>
      </trkpt>
      <trkpt lat="47.48095" lon="6.61793">
        <ele>405.8</ele>
        <time>2017-06-11T10:04:29.000Z</time>
      </trkpt>
      <trkpt lat="47.48099" lon="6.6179">
        <ele>404.9</ele>
        <time>2017-06-11T10:04:30.000Z</time>
      </trkpt>
      <trkpt lat="47.48103" lon="6.61787">
        <ele>404.4</ele>
        <time>2017-06-11T10:04:31.000Z</time>
      </trkpt>
      <trkpt lat="47.48109" lon="6.61785">
        <ele>403.1</ele>
        <time>2017-06-11T10:04:32.000Z</time>
      </trkpt>
      <trkpt lat="47.48114" lon="6.61787">
        <ele>402.2</ele>
        <time>2017-06-11T10:04:33.000Z</time>
      </trkpt>
      <trkpt lat="47.48119" lon="6.61789">
        <ele>401</ele>
        <time>2017-06-11T10:04:34.000Z</time>
      </trkpt>
      <trkpt lat="47.48125" lon="6.61791">
        <ele>400.1</ele>
        <time>2017-06-11T10:04:35.000Z</time>
      </trkpt>
      <trkpt lat="47.4813" lon="6.61793">
        <ele>399.2</ele>
        <time>2017-06-11T10:04:36.000Z</time>
      </trkpt>
      <trkpt lat="47.48135" lon="6.61796">
        <ele>398.3</ele>
        <time>2017-06-11T10:04:37.000Z</time>
      </trkpt>
      <trkpt lat="47.4814" lon="6.61799">
        <ele>397.9</ele>
        <time>2017-06-11T10:04:38.000Z</time>
      </trkpt>
      <trkpt lat="47.48145" lon="6.61801">
        <ele>397.8</ele>
        <time>2017-06-11T10:04:39.000Z</time>
      </trkpt>
      <trkpt lat="47.48149" lon="6.61803">
        <ele>398</ele>
        <time>2017-06-11T10:04:40.000Z</time>
      </trkpt>
      <trkpt lat="47.48154" lon="6.61805">
        <ele>397.9</ele>
        <time>2017-06-11T10:04:41.000Z</time>
      </trkpt>
      <trkpt lat="47.48158" lon="6.61807">
        <ele>397.6</ele>
        <time>2017-06-11T10:04:42.000Z</time>
      </trkpt>
      <trkpt lat="47.48163" lon="6.61809">
        <ele>397.4</ele>
        <time>2017-06-11T10:04:43.000Z</time>
      </trkpt>
      <trkpt lat="47.48168" lon="6.61812">
        <ele>397.7</ele>
        <time>2017-06-11T10:04:44.000Z</time>
      </trkpt>
      <trkpt lat="47.48173" lon="6.61814">
        <ele>397.8</ele>
        <time>2017-06-11T10:04:45.000Z</time>
      </trkpt>
      <trkpt lat="47.48177" lon="6.61816">
        <ele>398</ele>
        <time>2017-06-11T10:04:46.000Z</time>
      </trkpt>
      <trkpt lat="47.48181" lon="6.61817">
        <ele>398</ele>
        <time>2017-06-11T10:04:47.000Z</time>
      </trkpt>
      <trkpt lat="47.48185" lon="6.61818">
        <ele>398.4</ele>
        <time>2017-06-11T10:04:48.000Z</time>
      </trkpt>
      <trkpt lat="47.48188" lon="6.61819">
        <ele>398.2</ele>
        <time>2017-06-11T10:04:49.000Z</time>
      </trkpt>
      <trkpt lat="47.48192" lon="6.61819">
        <ele>398</ele>
        <time>2017-06-11T10:04:50.000Z</time>
      </trkpt>
      <trkpt lat="47.48195" lon="6.6182">
        <ele>398</ele>
        <time>2017-06-11T10:04:51.000Z</time>
      </trkpt>
      <trkpt lat="47.48198" lon="6.6182">
        <ele>398</ele>
        <time>2017-06-11T10:04:52.000Z</time>
      </trkpt>
      <trkpt lat="47.482" lon="6.6182">
        <ele>398</ele>
        <time>2017-06-11T10:04:53.000Z</time>
      </trkpt>
      <trkpt lat="47.48204" lon="6.61819">
        <ele>398</ele>
        <time>2017-06-11T10:04:54.000Z</time>
      </trkpt>
      <trkpt lat="47.48207" lon="6.61819">
        <ele>398</ele>
        <time>2017-06-11T10:04:55.000Z</time>
      </trkpt>
      <trkpt lat="47.4821" lon="6.61818">
        <ele>398.1</ele>
        <time>2017-06-11T10:04:56.000Z</time>
      </trkpt>
      <trkpt lat="47.48214" lon="6.61817">
        <ele>398.2</ele>
        <time>2017-06-11T10:04:57.000Z</time>
      </trkpt>
      <trkpt lat="47.48218" lon="6.61815">
        <ele>398.3</ele>
        <time>2017-06-11T10:04:58.000Z</time>
      </trkpt>
      <trkpt lat="47.48222" lon="6.61813">
        <ele>398.3</ele>
        <time>2017-06-11T10:04:59.000Z</time>
      </trkpt>
      <trkpt lat="47.48225" lon="6.6181">
        <ele>398.4</ele>
        <time>2017-06-11T10:05:00.000Z</time>
      </trkpt>
      <trkpt lat="47.48227" lon="6.61806">
        <ele>398.4</ele>
        <time>2017-06-11T10:05:01.000Z</time>
      </trkpt>
      <trkpt lat="47.48228" lon="6.61804">
        <ele>398.5</ele>
        <time>2017-06-11T10:05:02.000Z</time>
      </trkpt>
      <trkpt lat="47.48228" lon="6.61802">
        <ele>399</ele>
        <time>2017-06-11T10:05:11.000Z</time>
      </trkpt>
      <trkpt lat="47.48231" lon="6.61793">
        <ele>399</ele>
        <time>2017-06-11T10:05:12.000Z</time>
      </trkpt>
      <trkpt lat="47.48231" lon="6.6179">
        <ele>399.1</ele>
        <time>2017-06-11T10:05:13.000Z</time>
      </trkpt>
      <trkpt lat="47.48232" lon="6.61785">
        <ele>399.1</ele>
        <time>2017-06-11T10:05:14.000Z</time>
      </trkpt>
      <trkpt lat="47.48233" lon="6.61779">
        <ele>398.7</ele>
        <time>2017-06-11T10:05:15.000Z</time>
      </trkpt>
      <trkpt lat="47.48238" lon="6.61773">
        <ele>398.1</ele>
        <time>2017-06-11T10:05:16.000Z</time>
      </trkpt>
      <trkpt lat="47.48242" lon="6.61771">
        <ele>397.4</ele>
        <time>2017-06-11T10:05:17.000Z</time>
      </trkpt>
      <trkpt lat="47.48246" lon="6.61771">
        <ele>396.6</ele>
        <time>2017-06-11T10:05:18.000Z</time>
      </trkpt>
      <trkpt lat="47.4825" lon="6.6177">
        <ele>395.6</ele>
        <time>2017-06-11T10:05:19.000Z</time>
      </trkpt>
      <trkpt lat="47.48255" lon="6.61769">
        <ele>394.9</ele>
        <time>2017-06-11T10:05:20.000Z</time>
      </trkpt>
      <trkpt lat="47.4826" lon="6.61768">
        <ele>394.5</ele>
        <time>2017-06-11T10:05:21.000Z</time>
      </trkpt>
      <trkpt lat="47.48265" lon="6.61768">
        <ele>394.4</ele>
        <time>2017-06-11T10:05:22.000Z</time>
      </trkpt>
      <trkpt lat="47.48271" lon="6.61768">
        <ele>394.3</ele>
        <time>2017-06-11T10:05:23.000Z</time>
      </trkpt>
      <trkpt lat="47.48277" lon="6.61767">
        <ele>394.2</ele>
        <time>2017-06-11T10:05:24.000Z</time>
      </trkpt>
      <trkpt lat="47.48283" lon="6.61766">
        <ele>393.9</ele>
        <time>2017-06-11T10:05:25.000Z</time>
      </trkpt>
      <trkpt lat="47.48289" lon="6.61765">
        <ele>393.8</ele>
        <time>2017-06-11T10:05:26.000Z</time>
      </trkpt>
      <trkpt lat="47.48294" lon="6.61765">
        <ele>393.8</ele>
        <time>2017-06-11T10:05:27.000Z</time>
      </trkpt>
      <trkpt lat="47.48299" lon="6.61765">
        <ele>393.6</ele>
        <time>2017-06-11T10:05:28.000Z</time>
      </trkpt>
      <trkpt lat="47.48304" lon="6.61764">
        <ele>393.8</ele>
        <time>2017-06-11T10:05:29.000Z</time>
      </trkpt>
      <trkpt lat="47.48308" lon="6.61763">
        <ele>394</ele>
        <time>2017-06-11T10:05:30.000Z</time>
      </trkpt>
      <trkpt lat="47.48314" lon="6.61762">
        <ele>394.3</ele>
        <time>2017-06-11T10:05:31.000Z</time>
      </trkpt>
      <trkpt lat="47.48319" lon="6.61761">
        <ele>394.4</ele>
        <time>2017-06-11T10:05:32.000Z</time>
      </trkpt>
      <trkpt lat="47.48325" lon="6.61761">
        <ele>394.4</ele>
        <time>2017-06-11T10:05:33.000Z</time>
      </trkpt>
      <trkpt lat="47.48331" lon="6.6176">
        <ele>394.4</ele>
        <time>2017-06-11T10:05:34.000Z</time>
      </trkpt>
      <trkpt lat="47.48337" lon="6.61759">
        <ele>394.4</ele>
        <time>2017-06-11T10:05:35.000Z</time>
      </trkpt>
      <trkpt lat="47.48342" lon="6.61758">
        <ele>394.2</ele>
        <time>2017-06-11T10:05:36.000Z</time>
      </trkpt>
      <trkpt lat="47.48347" lon="6.61757">
        <ele>393.9</ele>
        <time>2017-06-11T10:05:37.000Z</time>
      </trkpt>
      <trkpt lat="47.48352" lon="6.61756">
        <ele>393.1</ele>
        <time>2017-06-11T10:05:38.000Z</time>
      </trkpt>
      <trkpt lat="47.48357" lon="6.61754">
        <ele>392.1</ele>
        <time>2017-06-11T10:05:39.000Z</time>
      </trkpt>
      <trkpt lat="47.48361" lon="6.61752">
        <ele>391.3</ele>
        <time>2017-06-11T10:05:40.000Z</time>
      </trkpt>
      <trkpt lat="47.48366" lon="6.6175">
        <ele>391</ele>
        <time>2017-06-11T10:05:41.000Z</time>
      </trkpt>
      <trkpt lat="47.48372" lon="6.61748">
        <ele>391.2</ele>
        <time>2017-06-11T10:05:42.000Z</time>
      </trkpt>
      <trkpt lat="47.48376" lon="6.61746">
        <ele>391</ele>
        <time>2017-06-11T10:05:43.000Z</time>
      </trkpt>
      <trkpt lat="47.48379" lon="6.61743">
        <ele>390.2</ele>
        <time>2017-06-11T10:05:44.000Z</time>
      </trkpt>
      <trkpt lat="47.48382" lon="6.61739">
        <ele>389.4</ele>
        <time>2017-06-11T10:05:45.000Z</time>
      </trkpt>
      <trkpt lat="47.48385" lon="6.61734">
        <ele>388.6</ele>
        <time>2017-06-11T10:05:46.000Z</time>
      </trkpt>
      <trkpt lat="47.48388" lon="6.61729">
        <ele>387.8</ele>
        <time>2017-06-11T10:05:47.000Z</time>
      </trkpt>
      <trkpt lat="47.48391" lon="6.61724">
        <ele>386.9</ele>
        <time>2017-06-11T10:05:48.000Z</time>
      </trkpt>
      <trkpt lat="47.48395" lon="6.61717">
        <ele>386.2</ele>
        <time>2017-06-11T10:05:49.000Z</time>
      </trkpt>
      <trkpt lat="47.48398" lon="6.61711">
        <ele>385.5</ele>
        <time>2017-06-11T10:05:50.000Z</time>
      </trkpt>
      <trkpt lat="47.484" lon="6.61706">
        <ele>385.2</ele>
        <time>2017-06-11T10:05:51.000Z</time>
      </trkpt>
      <trkpt lat="47.48402" lon="6.61701">
        <ele>385.6</ele>
        <time>2017-06-11T10:05:52.000Z</time>
      </trkpt>
      <trkpt lat="47.48404" lon="6.61697">
        <ele>385.6</ele>
        <time>2017-06-11T10:05:53.000Z</time>
      </trkpt>
      <trkpt lat="47.48405" lon="6.61694">
        <ele>385.6</ele>
        <time>2017-06-11T10:05:54.000Z</time>
      </trkpt>
      <trkpt lat="47.48407" lon="6.61689">
        <ele>385.6</ele>
        <time>2017-06-11T10:05:55.000Z</time>
      </trkpt>
      <trkpt lat="47.48409" lon="6.61684">
        <ele>385.7</ele>
        <time>2017-06-11T10:05:56.000Z</time>
      </trkpt>
      <trkpt lat="47.48412" lon="6.6168">
        <ele>385.7</ele>
        <time>2017-06-11T10:05:57.000Z</time>
      </trkpt>
      <trkpt lat="47.48413" lon="6.61676">
        <ele>385.7</ele>
        <time>2017-06-11T10:05:58.000Z</time>
      </trkpt>
      <trkpt lat="47.48414" lon="6.61669">
        <ele>385.8</ele>
        <time>2017-06-11T10:05:59.000Z</time>
      </trkpt>
      <trkpt lat="47.48415" lon="6.61663">
        <ele>385.8</ele>
        <time>2017-06-11T10:06:00.000Z</time>
      </trkpt>
      <trkpt lat="47.48416" lon="6.61659">
        <ele>385.8</ele>
        <time>2017-06-11T10:06:01.000Z</time>
      </trkpt>
      <trkpt lat="47.48415" lon="6.61653">
        <ele>385.9</ele>
        <time>2017-06-11T10:06:02.000Z</time>
      </trkpt>
      <trkpt lat="47.48414" lon="6.61648">
        <ele>386.1</ele>
        <time>2017-06-11T10:06:03.000Z</time>
      </trkpt>
      <trkpt lat="47.48412" lon="6.61644">
        <ele>386.2</ele>
        <time>2017-06-11T10:06:04.000Z</time>
      </trkpt>
      <trkpt lat="47.48411" lon="6.61639">
        <ele>386.3</ele>
        <time>2017-06-11T10:06:05.000Z</time>
      </trkpt>
      <trkpt lat="47.4841" lon="6.61636">
        <ele>386.4</ele>
        <time>2017-06-11T10:06:06.000Z</time>
      </trkpt>
      <trkpt lat="47.48407" lon="6.61633">
        <ele>386.4</ele>
        <time>2017-06-11T10:06:07.000Z</time>
      </trkpt>
      <trkpt lat="47.48403" lon="6.6163">
        <ele>386.5</ele>
        <time>2017-06-11T10:06:08.000Z</time>
      </trkpt>
      <trkpt lat="47.484" lon="6.61626">
        <ele>387.2</ele>
        <time>2017-06-11T10:06:09.000Z</time>
      </trkpt>
      <trkpt lat="47.484" lon="6.61621">
        <ele>387.1</ele>
        <time>2017-06-11T10:06:11.000Z</time>
      </trkpt>
      <trkpt lat="47.48401" lon="6.61615">
        <ele>387</ele>
        <time>2017-06-11T10:06:12.000Z</time>
      </trkpt>
      <trkpt lat="47.484" lon="6.61607">
        <ele>386.8</ele>
        <time>2017-06-11T10:06:13.000Z</time>
      </trkpt>
      <trkpt lat="47.484" lon="6.61602">
        <ele>386.7</ele>
        <time>2017-06-11T10:06:14.000Z</time>
      </trkpt>
      <trkpt lat="47.48402" lon="6.61596">
        <ele>386.6</ele>
        <time>2017-06-11T10:06:15.000Z</time>
      </trkpt>
      <trkpt lat="47.48404" lon="6.61591">
        <ele>386.5</ele>
        <time>2017-06-11T10:06:16.000Z</time>
      </trkpt>
      <trkpt lat="47.48404" lon="6.61585">
        <ele>386.4</ele>
        <time>2017-06-11T10:06:17.000Z</time>
      </trkpt>
      <trkpt lat="47.48404" lon="6.61581">
        <ele>386.2</ele>
        <time>2017-06-11T10:06:18.000Z</time>
      </trkpt>
      <trkpt lat="47.48405" lon="6.61576">
        <ele>386</ele>
        <time>2017-06-11T10:06:19.000Z</time>
      </trkpt>
      <trkpt lat="47.48406" lon="6.61571">
        <ele>385.8</ele>
        <time>2017-06-11T10:06:20.000Z</time>
      </trkpt>
      <trkpt lat="47.48406" lon="6.61567">
        <ele>385.7</ele>
        <time>2017-06-11T10:06:21.000Z</time>
      </trkpt>
      <trkpt lat="47.48407" lon="6.61561">
        <ele>384.2</ele>
        <time>2017-06-11T10:06:22.000Z</time>
      </trkpt>
      <trkpt lat="47.48408" lon="6.61555">
        <ele>384.2</ele>
        <time>2017-06-11T10:06:23.000Z</time>
      </trkpt>
      <trkpt lat="47.48408" lon="6.6155">
        <ele>384</ele>
        <time>2017-06-11T10:06:24.000Z</time>
      </trkpt>
      <trkpt lat="47.48409" lon="6.61545">
        <ele>383.8</ele>
        <time>2017-06-11T10:06:25.000Z</time>
      </trkpt>
      <trkpt lat="47.48409" lon="6.61538">
        <ele>383.6</ele>
        <time>2017-06-11T10:06:26.000Z</time>
      </trkpt>
      <trkpt lat="47.48409" lon="6.6153">
        <ele>380.9</ele>
        <time>2017-06-11T10:06:27.000Z</time>
      </trkpt>
      <trkpt lat="47.48408" lon="6.61522">
        <ele>379.3</ele>
        <time>2017-06-11T10:06:28.000Z</time>
      </trkpt>
      <trkpt lat="47.48408" lon="6.61515">
        <ele>378.3</ele>
        <time>2017-06-11T10:06:29.000Z</time>
      </trkpt>
      <trkpt lat="47.48408" lon="6.61506">
        <ele>378.3</ele>
        <time>2017-06-11T10:06:30.000Z</time>
      </trkpt>
      <trkpt lat="47.48409" lon="6.61499">
        <ele>378.2</ele>
        <time>2017-06-11T10:06:31.000Z</time>
      </trkpt>
      <trkpt lat="47.4841" lon="6.61488">
        <ele>378.1</ele>
        <time>2017-06-11T10:06:32.000Z</time>
      </trkpt>
      <trkpt lat="47.4841" lon="6.61478">
        <ele>376.5</ele>
        <time>2017-06-11T10:06:33.000Z</time>
      </trkpt>
      <trkpt lat="47.48409" lon="6.6147">
        <ele>376</ele>
        <time>2017-06-11T10:06:34.000Z</time>
      </trkpt>
      <trkpt lat="47.48409" lon="6.61463">
        <ele>375.9</ele>
        <time>2017-06-11T10:06:35.000Z</time>
      </trkpt>
      <trkpt lat="47.48408" lon="6.61455">
        <ele>375.7</ele>
        <time>2017-06-11T10:06:36.000Z</time>
      </trkpt>
      <trkpt lat="47.48408" lon="6.61447">
        <ele>375.7</ele>
        <time>2017-06-11T10:06:37.000Z</time>
      </trkpt>
      <trkpt lat="47.48408" lon="6.61439">
        <ele>376.3</ele>
        <time>2017-06-11T10:06:38.000Z</time>
      </trkpt>
      <trkpt lat="47.48408" lon="6.61429">
        <ele>376.8</ele>
        <time>2017-06-11T10:06:39.000Z</time>
      </trkpt>
      <trkpt lat="47.48408" lon="6.61419">
        <ele>378.2</ele>
        <time>2017-06-11T10:06:40.000Z</time>
      </trkpt>
      <trkpt lat="47.48408" lon="6.61411">
        <ele>379</ele>
        <time>2017-06-11T10:06:41.000Z</time>
      </trkpt>
      <trkpt lat="47.48407" lon="6.61403">
        <ele>380.6</ele>
        <time>2017-06-11T10:06:42.000Z</time>
      </trkpt>
      <trkpt lat="47.48408" lon="6.61396">
        <ele>381</ele>
        <time>2017-06-11T10:06:43.000Z</time>
      </trkpt>
      <trkpt lat="47.48408" lon="6.61387">
        <ele>381.1</ele>
        <time>2017-06-11T10:06:44.000Z</time>
      </trkpt>
      <trkpt lat="47.48407" lon="6.61376">
        <ele>381.6</ele>
        <time>2017-06-11T10:06:45.000Z</time>
      </trkpt>
      <trkpt lat="47.48407" lon="6.61366">
        <ele>381.3</ele>
        <time>2017-06-11T10:06:46.000Z</time>
      </trkpt>
      <trkpt lat="47.48406" lon="6.61355">
        <ele>381.5</ele>
        <time>2017-06-11T10:06:47.000Z</time>
      </trkpt>
      <trkpt lat="47.48406" lon="6.61344">
        <ele>381.5</ele>
        <time>2017-06-11T10:06:48.000Z</time>
      </trkpt>
      <trkpt lat="47.48405" lon="6.61335">
        <ele>381.6</ele>
        <time>2017-06-11T10:06:49.000Z</time>
      </trkpt>
      <trkpt lat="47.48405" lon="6.61326">
        <ele>382.5</ele>
        <time>2017-06-11T10:06:50.000Z</time>
      </trkpt>
      <trkpt lat="47.48404" lon="6.61319">
        <ele>382.2</ele>
        <time>2017-06-11T10:06:51.000Z</time>
      </trkpt>
      <trkpt lat="47.48402" lon="6.61314">
        <ele>382.2</ele>
        <time>2017-06-11T10:06:52.000Z</time>
      </trkpt>
      <trkpt lat="47.484" lon="6.61308">
        <ele>382.1</ele>
        <time>2017-06-11T10:06:53.000Z</time>
      </trkpt>
      <trkpt lat="47.484" lon="6.61301">
        <ele>381.2</ele>
        <time>2017-06-11T10:06:54.000Z</time>
      </trkpt>
      <trkpt lat="47.48401" lon="6.61295">
        <ele>381.1</ele>
        <time>2017-06-11T10:06:55.000Z</time>
      </trkpt>
      <trkpt lat="47.48403" lon="6.61289">
        <ele>381</ele>
        <time>2017-06-11T10:06:56.000Z</time>
      </trkpt>
      <trkpt lat="47.48406" lon="6.61285">
        <ele>381</ele>
        <time>2017-06-11T10:06:57.000Z</time>
      </trkpt>
      <trkpt lat="47.48409" lon="6.61284">
        <ele>380.9</ele>
        <time>2017-06-11T10:06:58.000Z</time>
      </trkpt>
      <trkpt lat="47.48413" lon="6.61284">
        <ele>380.3</ele>
        <time>2017-06-11T10:06:59.000Z</time>
      </trkpt>
      <trkpt lat="47.48417" lon="6.61284">
        <ele>380</ele>
        <time>2017-06-11T10:07:00.000Z</time>
      </trkpt>
      <trkpt lat="47.48422" lon="6.61284">
        <ele>379.6</ele>
        <time>2017-06-11T10:07:01.000Z</time>
      </trkpt>
      <trkpt lat="47.48426" lon="6.61284">
        <ele>379.3</ele>
        <time>2017-06-11T10:07:02.000Z</time>
      </trkpt>
      <trkpt lat="47.48429" lon="6.61285">
        <ele>379.4</ele>
        <time>2017-06-11T10:07:03.000Z</time>
      </trkpt>
      <trkpt lat="47.48433" lon="6.61285">
        <ele>379.4</ele>
        <time>2017-06-11T10:07:04.000Z</time>
      </trkpt>
      <trkpt lat="47.48437" lon="6.61284">
        <ele>379.1</ele>
        <time>2017-06-11T10:07:05.000Z</time>
      </trkpt>
      <trkpt lat="47.48441" lon="6.61284">
        <ele>379.2</ele>
        <time>2017-06-11T10:07:06.000Z</time>
      </trkpt>
      <trkpt lat="47.48445" lon="6.61284">
        <ele>379.1</ele>
        <time>2017-06-11T10:07:07.000Z</time>
      </trkpt>
      <trkpt lat="47.48448" lon="6.61285">
        <ele>379.1</ele>
        <time>2017-06-11T10:07:08.000Z</time>
      </trkpt>
      <trkpt lat="47.48452" lon="6.61284">
        <ele>379.2</ele>
        <time>2017-06-11T10:07:09.000Z</time>
      </trkpt>
      <trkpt lat="47.48455" lon="6.61284">
        <ele>379.2</ele>
        <time>2017-06-11T10:07:10.000Z</time>
      </trkpt>
      <trkpt lat="47.48459" lon="6.61284">
        <ele>379.3</ele>
        <time>2017-06-11T10:07:11.000Z</time>
      </trkpt>
      <trkpt lat="47.48462" lon="6.61284">
        <ele>379.4</ele>
        <time>2017-06-11T10:07:12.000Z</time>
      </trkpt>
      <trkpt lat="47.48465" lon="6.61285">
        <ele>379.4</ele>
        <time>2017-06-11T10:07:13.000Z</time>
      </trkpt>
      <trkpt lat="47.48468" lon="6.61286">
        <ele>379.5</ele>
        <time>2017-06-11T10:07:14.000Z</time>
      </trkpt>
      <trkpt lat="47.48473" lon="6.61287">
        <ele>380.6</ele>
        <time>2017-06-11T10:07:15.000Z</time>
      </trkpt>
      <trkpt lat="47.48477" lon="6.61288">
        <ele>381.7</ele>
        <time>2017-06-11T10:07:16.000Z</time>
      </trkpt>
      <trkpt lat="47.48482" lon="6.61288">
        <ele>381.8</ele>
        <time>2017-06-11T10:07:17.000Z</time>
      </trkpt>
      <trkpt lat="47.48486" lon="6.61288">
        <ele>381.9</ele>
        <time>2017-06-11T10:07:18.000Z</time>
      </trkpt>
      <trkpt lat="47.48491" lon="6.61288">
        <ele>383.6</ele>
        <time>2017-06-11T10:07:19.000Z</time>
      </trkpt>
      <trkpt lat="47.48495" lon="6.61288">
        <ele>383.6</ele>
        <time>2017-06-11T10:07:20.000Z</time>
      </trkpt>
      <trkpt lat="47.485" lon="6.61288">
        <ele>383.7</ele>
        <time>2017-06-11T10:07:21.000Z</time>
      </trkpt>
      <trkpt lat="47.48506" lon="6.61288">
        <ele>383.8</ele>
        <time>2017-06-11T10:07:22.000Z</time>
      </trkpt>
      <trkpt lat="47.48512" lon="6.61288">
        <ele>383.9</ele>
        <time>2017-06-11T10:07:23.000Z</time>
      </trkpt>
      <trkpt lat="47.48517" lon="6.61288">
        <ele>385.5</ele>
        <time>2017-06-11T10:07:24.000Z</time>
      </trkpt>
      <trkpt lat="47.48523" lon="6.61287">
        <ele>387.7</ele>
        <time>2017-06-11T10:07:25.000Z</time>
      </trkpt>
      <trkpt lat="47.48528" lon="6.61286">
        <ele>389.7</ele>
        <time>2017-06-11T10:07:26.000Z</time>
      </trkpt>
      <trkpt lat="47.48533" lon="6.61285">
        <ele>390.9</ele>
        <time>2017-06-11T10:07:27.000Z</time>
      </trkpt>
      <trkpt lat="47.48537" lon="6.61284">
        <ele>392.1</ele>
        <time>2017-06-11T10:07:28.000Z</time>
      </trkpt>
      <trkpt lat="47.48542" lon="6.61284">
        <ele>392.6</ele>
        <time>2017-06-11T10:07:29.000Z</time>
      </trkpt>
      <trkpt lat="47.48545" lon="6.61285">
        <ele>392.7</ele>
        <time>2017-06-11T10:07:30.000Z</time>
      </trkpt>
      <trkpt lat="47.48548" lon="6.61286">
        <ele>392.7</ele>
        <time>2017-06-11T10:07:31.000Z</time>
      </trkpt>
      <trkpt lat="47.48551" lon="6.61289">
        <ele>392.6</ele>
        <time>2017-06-11T10:07:32.000Z</time>
      </trkpt>
      <trkpt lat="47.48553" lon="6.61292">
        <ele>392.5</ele>
        <time>2017-06-11T10:07:33.000Z</time>
      </trkpt>
      <trkpt lat="47.48555" lon="6.61296">
        <ele>392.4</ele>
        <time>2017-06-11T10:07:34.000Z</time>
      </trkpt>
      <trkpt lat="47.48557" lon="6.61299">
        <ele>392.4</ele>
        <time>2017-06-11T10:07:35.000Z</time>
      </trkpt>
      <trkpt lat="47.48559" lon="6.61303">
        <ele>392.4</ele>
        <time>2017-06-11T10:07:36.000Z</time>
      </trkpt>
      <trkpt lat="47.4856" lon="6.61308">
        <ele>392.3</ele>
        <time>2017-06-11T10:07:37.000Z</time>
      </trkpt>
      <trkpt lat="47.48561" lon="6.61313">
        <ele>392.3</ele>
        <time>2017-06-11T10:07:38.000Z</time>
      </trkpt>
      <trkpt lat="47.48563" lon="6.61318">
        <ele>392.3</ele>
        <time>2017-06-11T10:07:39.000Z</time>
      </trkpt>
      <trkpt lat="47.48565" lon="6.61321">
        <ele>392.2</ele>
        <time>2017-06-11T10:07:40.000Z</time>
      </trkpt>
      <trkpt lat="47.48567" lon="6.61325">
        <ele>392.3</ele>
        <time>2017-06-11T10:07:41.000Z</time>
      </trkpt>
      <trkpt lat="47.48569" lon="6.61329">
        <ele>392.3</ele>
        <time>2017-06-11T10:07:42.000Z</time>
      </trkpt>
      <trkpt lat="47.4857" lon="6.61333">
        <ele>392.4</ele>
        <time>2017-06-11T10:07:43.000Z</time>
      </trkpt>
      <trkpt lat="47.48572" lon="6.61336">
        <ele>392.5</ele>
        <time>2017-06-11T10:07:44.000Z</time>
      </trkpt>
      <trkpt lat="47.48573" lon="6.61341">
        <ele>392.4</ele>
        <time>2017-06-11T10:07:45.000Z</time>
      </trkpt>
      <trkpt lat="47.48575" lon="6.61344">
        <ele>392.3</ele>
        <time>2017-06-11T10:07:46.000Z</time>
      </trkpt>
      <trkpt lat="47.48576" lon="6.61348">
        <ele>392.3</ele>
        <time>2017-06-11T10:07:47.000Z</time>
      </trkpt>
      <trkpt lat="47.48578" lon="6.61351">
        <ele>392.4</ele>
        <time>2017-06-11T10:07:48.000Z</time>
      </trkpt>
      <trkpt lat="47.4858" lon="6.61354">
        <ele>392.4</ele>
        <time>2017-06-11T10:07:49.000Z</time>
      </trkpt>
      <trkpt lat="47.48583" lon="6.61356">
        <ele>392.3</ele>
        <time>2017-06-11T10:07:50.000Z</time>
      </trkpt>
      <trkpt lat="47.48586" lon="6.61359">
        <ele>392.3</ele>
        <time>2017-06-11T10:07:53.000Z</time>
      </trkpt>
      <trkpt lat="47.48589" lon="6.61361">
        <ele>392.3</ele>
        <time>2017-06-11T10:07:54.000Z</time>
      </trkpt>
      <trkpt lat="47.48593" lon="6.61359">
        <ele>392.4</ele>
        <time>2017-06-11T10:07:55.000Z</time>
      </trkpt>
      <trkpt lat="47.48596" lon="6.61356">
        <ele>392.5</ele>
        <time>2017-06-11T10:07:56.000Z</time>
      </trkpt>
      <trkpt lat="47.486" lon="6.61353">
        <ele>392.6</ele>
        <time>2017-06-11T10:07:57.000Z</time>
      </trkpt>
      <trkpt lat="47.48603" lon="6.61348">
        <ele>393.8</ele>
        <time>2017-06-11T10:07:58.000Z</time>
      </trkpt>
      <trkpt lat="47.48607" lon="6.61343">
        <ele>394.5</ele>
        <time>2017-06-11T10:07:59.000Z</time>
      </trkpt>
      <trkpt lat="47.48611" lon="6.61339">
        <ele>394.8</ele>
        <time>2017-06-11T10:08:00.000Z</time>
      </trkpt>
      <trkpt lat="47.48615" lon="6.61334">
        <ele>394.9</ele>
        <time>2017-06-11T10:08:01.000Z</time>
      </trkpt>
      <trkpt lat="47.48619" lon="6.61328">
        <ele>394.5</ele>
        <time>2017-06-11T10:08:02.000Z</time>
      </trkpt>
      <trkpt lat="47.48624" lon="6.61322">
        <ele>393.7</ele>
        <time>2017-06-11T10:08:03.000Z</time>
      </trkpt>
      <trkpt lat="47.48629" lon="6.61316">
        <ele>392.6</ele>
        <time>2017-06-11T10:08:04.000Z</time>
      </trkpt>
      <trkpt lat="47.48633" lon="6.6131">
        <ele>391.8</ele>
        <time>2017-06-11T10:08:05.000Z</time>
      </trkpt>
      <trkpt lat="47.48639" lon="6.61305">
        <ele>391.4</ele>
        <time>2017-06-11T10:08:06.000Z</time>
      </trkpt>
      <trkpt lat="47.48644" lon="6.613">
        <ele>391.1</ele>
        <time>2017-06-11T10:08:07.000Z</time>
      </trkpt>
      <trkpt lat="47.4865" lon="6.61296">
        <ele>390.9</ele>
        <time>2017-06-11T10:08:08.000Z</time>
      </trkpt>
      <trkpt lat="47.48655" lon="6.61293">
        <ele>390.7</ele>
        <time>2017-06-11T10:08:09.000Z</time>
      </trkpt>
      <trkpt lat="47.4866" lon="6.6129">
        <ele>390</ele>
        <time>2017-06-11T10:08:10.000Z</time>
      </trkpt>
      <trkpt lat="47.48666" lon="6.6129">
        <ele>389.2</ele>
        <time>2017-06-11T10:08:11.000Z</time>
      </trkpt>
      <trkpt lat="47.48671" lon="6.6129">
        <ele>389</ele>
        <time>2017-06-11T10:08:12.000Z</time>
      </trkpt>
      <trkpt lat="47.48677" lon="6.61289">
        <ele>389.8</ele>
        <time>2017-06-11T10:08:13.000Z</time>
      </trkpt>
      <trkpt lat="47.48682" lon="6.6129">
        <ele>389.9</ele>
        <time>2017-06-11T10:08:14.000Z</time>
      </trkpt>
      <trkpt lat="47.48687" lon="6.61291">
        <ele>389.4</ele>
        <time>2017-06-11T10:08:15.000Z</time>
      </trkpt>
      <trkpt lat="47.48692" lon="6.61292">
        <ele>388.8</ele>
        <time>2017-06-11T10:08:16.000Z</time>
      </trkpt>
      <trkpt lat="47.48696" lon="6.61293">
        <ele>388</ele>
        <time>2017-06-11T10:08:17.000Z</time>
      </trkpt>
      <trkpt lat="47.48701" lon="6.61294">
        <ele>387.6</ele>
        <time>2017-06-11T10:08:18.000Z</time>
      </trkpt>
      <trkpt lat="47.48706" lon="6.61295">
        <ele>388</ele>
        <time>2017-06-11T10:08:19.000Z</time>
      </trkpt>
      <trkpt lat="47.48711" lon="6.61297">
        <ele>387.7</ele>
        <time>2017-06-11T10:08:20.000Z</time>
      </trkpt>
      <trkpt lat="47.48716" lon="6.61299">
        <ele>387.6</ele>
        <time>2017-06-11T10:08:21.000Z</time>
      </trkpt>
      <trkpt lat="47.48721" lon="6.613">
        <ele>387.4</ele>
        <time>2017-06-11T10:08:22.000Z</time>
      </trkpt>
      <trkpt lat="47.48725" lon="6.61302">
        <ele>387.3</ele>
        <time>2017-06-11T10:08:23.000Z</time>
      </trkpt>
      <trkpt lat="47.48731" lon="6.61304">
        <ele>386.8</ele>
        <time>2017-06-11T10:08:24.000Z</time>
      </trkpt>
      <trkpt lat="47.48737" lon="6.61307">
        <ele>386.7</ele>
        <time>2017-06-11T10:08:25.000Z</time>
      </trkpt>
      <trkpt lat="47.48742" lon="6.61311">
        <ele>386.6</ele>
        <time>2017-06-11T10:08:26.000Z</time>
      </trkpt>
      <trkpt lat="47.48746" lon="6.61315">
        <ele>385.8</ele>
        <time>2017-06-11T10:08:27.000Z</time>
      </trkpt>
      <trkpt lat="47.4875" lon="6.6132">
        <ele>385.2</ele>
        <time>2017-06-11T10:08:28.000Z</time>
      </trkpt>
      <trkpt lat="47.48753" lon="6.61325">
        <ele>384.7</ele>
        <time>2017-06-11T10:08:29.000Z</time>
      </trkpt>
      <trkpt lat="47.48756" lon="6.6133">
        <ele>383.7</ele>
        <time>2017-06-11T10:08:30.000Z</time>
      </trkpt>
      <trkpt lat="47.48759" lon="6.61334">
        <ele>383.6</ele>
        <time>2017-06-11T10:08:31.000Z</time>
      </trkpt>
      <trkpt lat="47.48762" lon="6.61339">
        <ele>382.9</ele>
        <time>2017-06-11T10:08:32.000Z</time>
      </trkpt>
      <trkpt lat="47.48765" lon="6.61344">
        <ele>382.7</ele>
        <time>2017-06-11T10:08:33.000Z</time>
      </trkpt>
      <trkpt lat="47.48768" lon="6.61348">
        <ele>382.7</ele>
        <time>2017-06-11T10:08:34.000Z</time>
      </trkpt>
      <trkpt lat="47.4877" lon="6.61352">
        <ele>382.7</ele>
        <time>2017-06-11T10:08:35.000Z</time>
      </trkpt>
      <trkpt lat="47.48773" lon="6.61357">
        <ele>382.7</ele>
        <time>2017-06-11T10:08:36.000Z</time>
      </trkpt>
      <trkpt lat="47.48776" lon="6.6136">
        <ele>381.9</ele>
        <time>2017-06-11T10:08:37.000Z</time>
      </trkpt>
      <trkpt lat="47.48778" lon="6.61364">
        <ele>381.7</ele>
        <time>2017-06-11T10:08:38.000Z</time>
      </trkpt>
      <trkpt lat="47.48782" lon="6.61367">
        <ele>382</ele>
        <time>2017-06-11T10:08:39.000Z</time>
      </trkpt>
      <trkpt lat="47.48785" lon="6.6137">
        <ele>381.9</ele>
        <time>2017-06-11T10:08:40.000Z</time>
      </trkpt>
      <trkpt lat="47.48789" lon="6.61372">
        <ele>382.1</ele>
        <time>2017-06-11T10:08:41.000Z</time>
      </trkpt>
      <trkpt lat="47.48794" lon="6.61374">
        <ele>382.2</ele>
        <time>2017-06-11T10:08:42.000Z</time>
      </trkpt>
      <trkpt lat="47.48798" lon="6.61373">
        <ele>382.1</ele>
        <time>2017-06-11T10:08:43.000Z</time>
      </trkpt>
      <trkpt lat="47.48802" lon="6.61372">
        <ele>382.1</ele>
        <time>2017-06-11T10:08:44.000Z</time>
      </trkpt>
      <trkpt lat="47.48805" lon="6.61369">
        <ele>382.7</ele>
        <time>2017-06-11T10:08:45.000Z</time>
      </trkpt>
      <trkpt lat="47.48807" lon="6.61366">
        <ele>383.5</ele>
        <time>2017-06-11T10:08:46.000Z</time>
      </trkpt>
      <trkpt lat="47.4881" lon="6.61362">
        <ele>384.3</ele>
        <time>2017-06-11T10:08:47.000Z</time>
      </trkpt>
      <trkpt lat="47.48814" lon="6.61359">
        <ele>384.3</ele>
        <time>2017-06-11T10:08:48.000Z</time>
      </trkpt>
      <trkpt lat="47.48816" lon="6.61353">
        <ele>384.1</ele>
        <time>2017-06-11T10:08:49.000Z</time>
      </trkpt>
      <trkpt lat="47.48819" lon="6.61348">
        <ele>384.1</ele>
        <time>2017-06-11T10:08:50.000Z</time>
      </trkpt>
      <trkpt lat="47.48822" lon="6.61342">
        <ele>383.7</ele>
        <time>2017-06-11T10:08:51.000Z</time>
      </trkpt>
      <trkpt lat="47.48824" lon="6.61336">
        <ele>383.7</ele>
        <time>2017-06-11T10:08:52.000Z</time>
      </trkpt>
      <trkpt lat="47.48827" lon="6.6133">
        <ele>383</ele>
        <time>2017-06-11T10:08:53.000Z</time>
      </trkpt>
      <trkpt lat="47.48828" lon="6.61325">
        <ele>382.5</ele>
        <time>2017-06-11T10:08:54.000Z</time>
      </trkpt>
      <trkpt lat="47.4883" lon="6.6132">
        <ele>382.6</ele>
        <time>2017-06-11T10:08:55.000Z</time>
      </trkpt>
      <trkpt lat="47.48832" lon="6.61314">
        <ele>382.7</ele>
        <time>2017-06-11T10:08:56.000Z</time>
      </trkpt>
      <trkpt lat="47.48834" lon="6.61309">
        <ele>382.9</ele>
        <time>2017-06-11T10:08:57.000Z</time>
      </trkpt>
      <trkpt lat="47.48836" lon="6.61304">
        <ele>383.6</ele>
        <time>2017-06-11T10:08:58.000Z</time>
      </trkpt>
      <trkpt lat="47.48837" lon="6.61299">
        <ele>383.5</ele>
        <time>2017-06-11T10:08:59.000Z</time>
      </trkpt>
      <trkpt lat="47.48839" lon="6.61294">
        <ele>383.5</ele>
        <time>2017-06-11T10:09:00.000Z</time>
      </trkpt>
      <trkpt lat="47.48841" lon="6.61289">
        <ele>383.4</ele>
        <time>2017-06-11T10:09:01.000Z</time>
      </trkpt>
      <trkpt lat="47.48843" lon="6.61283">
        <ele>383.4</ele>
        <time>2017-06-11T10:09:02.000Z</time>
      </trkpt>
      <trkpt lat="47.48844" lon="6.61278">
        <ele>383.4</ele>
        <time>2017-06-11T10:09:03.000Z</time>
      </trkpt>
      <trkpt lat="47.48845" lon="6.61274">
        <ele>383.4</ele>
        <time>2017-06-11T10:09:04.000Z</time>
      </trkpt>
      <trkpt lat="47.48846" lon="6.61271">
        <ele>383.3</ele>
        <time>2017-06-11T10:09:05.000Z</time>
      </trkpt>
      <trkpt lat="47.48847" lon="6.61265">
        <ele>383.2</ele>
        <time>2017-06-11T10:09:07.000Z</time>
      </trkpt>
      <trkpt lat="47.48847" lon="6.61263">
        <ele>383.1</ele>
        <time>2017-06-11T10:09:08.000Z</time>
      </trkpt>
      <trkpt lat="47.48848" lon="6.61259">
        <ele>382.9</ele>
        <time>2017-06-11T10:09:10.000Z</time>
      </trkpt>
      <trkpt lat="47.48848" lon="6.61256">
        <ele>382.8</ele>
        <time>2017-06-11T10:09:11.000Z</time>
      </trkpt>
      <trkpt lat="47.4885" lon="6.61252">
        <ele>382.4</ele>
        <time>2017-06-11T10:09:13.000Z</time>
      </trkpt>
      <trkpt lat="47.48852" lon="6.61249">
        <ele>382.2</ele>
        <time>2017-06-11T10:09:14.000Z</time>
      </trkpt>
      <trkpt lat="47.48855" lon="6.61246">
        <ele>382</ele>
        <time>2017-06-11T10:09:15.000Z</time>
      </trkpt>
      <trkpt lat="47.48856" lon="6.61241">
        <ele>381.7</ele>
        <time>2017-06-11T10:09:16.000Z</time>
      </trkpt>
      <trkpt lat="47.48857" lon="6.61236">
        <ele>381.5</ele>
        <time>2017-06-11T10:09:17.000Z</time>
      </trkpt>
      <trkpt lat="47.48858" lon="6.61231">
        <ele>379.8</ele>
        <time>2017-06-11T10:09:18.000Z</time>
      </trkpt>
      <trkpt lat="47.48861" lon="6.61226">
        <ele>378.5</ele>
        <time>2017-06-11T10:09:19.000Z</time>
      </trkpt>
      <trkpt lat="47.48863" lon="6.61221">
        <ele>377.3</ele>
        <time>2017-06-11T10:09:20.000Z</time>
      </trkpt>
      <trkpt lat="47.48866" lon="6.61216">
        <ele>377.1</ele>
        <time>2017-06-11T10:09:21.000Z</time>
      </trkpt>
      <trkpt lat="47.48868" lon="6.6121">
        <ele>377.2</ele>
        <time>2017-06-11T10:09:22.000Z</time>
      </trkpt>
      <trkpt lat="47.4887" lon="6.61204">
        <ele>376.9</ele>
        <time>2017-06-11T10:09:23.000Z</time>
      </trkpt>
      <trkpt lat="47.48872" lon="6.61199">
        <ele>376.4</ele>
        <time>2017-06-11T10:09:24.000Z</time>
      </trkpt>
      <trkpt lat="47.48874" lon="6.61194">
        <ele>376.9</ele>
        <time>2017-06-11T10:09:25.000Z</time>
      </trkpt>
      <trkpt lat="47.48876" lon="6.61189">
        <ele>377.1</ele>
        <time>2017-06-11T10:09:26.000Z</time>
      </trkpt>
      <trkpt lat="47.48877" lon="6.61182">
        <ele>377.7</ele>
        <time>2017-06-11T10:09:27.000Z</time>
      </trkpt>
      <trkpt lat="47.48879" lon="6.61176">
        <ele>378.5</ele>
        <time>2017-06-11T10:09:28.000Z</time>
      </trkpt>
      <trkpt lat="47.48879" lon="6.6117">
        <ele>379.3</ele>
        <time>2017-06-11T10:09:29.000Z</time>
      </trkpt>
      <trkpt lat="47.4888" lon="6.61165">
        <ele>379.4</ele>
        <time>2017-06-11T10:09:30.000Z</time>
      </trkpt>
      <trkpt lat="47.4888" lon="6.61162">
        <ele>379.4</ele>
        <time>2017-06-11T10:09:31.000Z</time>
      </trkpt>
      <trkpt lat="47.48879" lon="6.61158">
        <ele>379.4</ele>
        <time>2017-06-11T10:09:32.000Z</time>
      </trkpt>
      <trkpt lat="47.48879" lon="6.61152">
        <ele>379.5</ele>
        <time>2017-06-11T10:09:33.000Z</time>
      </trkpt>
      <trkpt lat="47.48878" lon="6.6115">
        <ele>379.4</ele>
        <time>2017-06-11T10:09:34.000Z</time>
      </trkpt>
      <trkpt lat="47.48878" lon="6.6115">
        <ele>378.9</ele>
        <time>2017-06-11T10:09:52.000Z</time>
      </trkpt>
      <trkpt lat="47.48879" lon="6.6114">
        <ele>378.7</ele>
        <time>2017-06-11T10:09:53.000Z</time>
      </trkpt>
      <trkpt lat="47.48879" lon="6.61135">
        <ele>378.6</ele>
        <time>2017-06-11T10:09:55.000Z</time>
      </trkpt>
      <trkpt lat="47.48881" lon="6.61133">
        <ele>378.4</ele>
        <time>2017-06-11T10:09:56.000Z</time>
      </trkpt>
      <trkpt lat="47.48881" lon="6.61127">
        <ele>378.3</ele>
        <time>2017-06-11T10:09:58.000Z</time>
      </trkpt>
      <trkpt lat="47.48881" lon="6.61121">
        <ele>378.2</ele>
        <time>2017-06-11T10:09:59.000Z</time>
      </trkpt>
      <trkpt lat="47.48881" lon="6.61117">
        <ele>378.1</ele>
        <time>2017-06-11T10:10:00.000Z</time>
      </trkpt>
      <trkpt lat="47.48881" lon="6.61111">
        <ele>378.1</ele>
        <time>2017-06-11T10:10:01.000Z</time>
      </trkpt>
      <trkpt lat="47.48881" lon="6.61107">
        <ele>378.1</ele>
        <time>2017-06-11T10:10:02.000Z</time>
      </trkpt>
      <trkpt lat="47.4888" lon="6.61103">
        <ele>378.1</ele>
        <time>2017-06-11T10:10:03.000Z</time>
      </trkpt>
      <trkpt lat="47.4888" lon="6.61098">
        <ele>378.1</ele>
        <time>2017-06-11T10:10:04.000Z</time>
      </trkpt>
      <trkpt lat="47.4888" lon="6.61093">
        <ele>378.1</ele>
        <time>2017-06-11T10:10:05.000Z</time>
      </trkpt>
      <trkpt lat="47.4888" lon="6.61087">
        <ele>378.2</ele>
        <time>2017-06-11T10:10:06.000Z</time>
      </trkpt>
      <trkpt lat="47.48879" lon="6.61084">
        <ele>378.2</ele>
        <time>2017-06-11T10:10:07.000Z</time>
      </trkpt>
      <trkpt lat="47.48879" lon="6.6108">
        <ele>378.2</ele>
        <time>2017-06-11T10:10:09.000Z</time>
      </trkpt>
      <trkpt lat="47.48879" lon="6.61077">
        <ele>378.3</ele>
        <time>2017-06-11T10:10:10.000Z</time>
      </trkpt>
      <trkpt lat="47.4888" lon="6.6107">
        <ele>378.5</ele>
        <time>2017-06-11T10:10:12.000Z</time>
      </trkpt>
      <trkpt lat="47.48881" lon="6.61068">
        <ele>378.6</ele>
        <time>2017-06-11T10:10:13.000Z</time>
      </trkpt>
      <trkpt lat="47.48882" lon="6.61064">
        <ele>378.8</ele>
        <time>2017-06-11T10:10:15.000Z</time>
      </trkpt>
      <trkpt lat="47.48883" lon="6.61061">
        <ele>378.8</ele>
        <time>2017-06-11T10:10:16.000Z</time>
      </trkpt>
      <trkpt lat="47.48886" lon="6.61057">
        <ele>378.9</ele>
        <time>2017-06-11T10:10:18.000Z</time>
      </trkpt>
      <trkpt lat="47.48888" lon="6.61055">
        <ele>378.9</ele>
        <time>2017-06-11T10:10:19.000Z</time>
      </trkpt>
      <trkpt lat="47.4889" lon="6.61051">
        <ele>378.9</ele>
        <time>2017-06-11T10:10:21.000Z</time>
      </trkpt>
      <trkpt lat="47.4889" lon="6.61049">
        <ele>378.9</ele>
        <time>2017-06-11T10:10:22.000Z</time>
      </trkpt>
      <trkpt lat="47.4889" lon="6.61045">
        <ele>379.1</ele>
        <time>2017-06-11T10:10:24.000Z</time>
      </trkpt>
      <trkpt lat="47.4889" lon="6.61042">
        <ele>379.2</ele>
        <time>2017-06-11T10:10:25.000Z</time>
      </trkpt>
      <trkpt lat="47.4889" lon="6.61038">
        <ele>379.4</ele>
        <time>2017-06-11T10:10:27.000Z</time>
      </trkpt>
      <trkpt lat="47.48892" lon="6.61035">
        <ele>379.4</ele>
        <time>2017-06-11T10:10:28.000Z</time>
      </trkpt>
      <trkpt lat="47.48893" lon="6.61029">
        <ele>379.6</ele>
        <time>2017-06-11T10:10:31.000Z</time>
      </trkpt>
      <trkpt lat="47.48893" lon="6.61027">
        <ele>379.7</ele>
        <time>2017-06-11T10:10:32.000Z</time>
      </trkpt>
      <trkpt lat="47.48895" lon="6.61022">
        <ele>380</ele>
        <time>2017-06-11T10:10:36.000Z</time>
      </trkpt>
      <trkpt lat="47.48896" lon="6.6102">
        <ele>380.1</ele>
        <time>2017-06-11T10:10:37.000Z</time>
      </trkpt>
      <trkpt lat="47.48897" lon="6.61017">
        <ele>380.7</ele>
        <time>2017-06-11T10:10:42.000Z</time>
      </trkpt>
      <trkpt lat="47.48899" lon="6.61009">
        <ele>380.8</ele>
        <time>2017-06-11T10:10:43.000Z</time>
      </trkpt>
      <trkpt lat="47.48901" lon="6.61005">
        <ele>380.9</ele>
        <time>2017-06-11T10:10:45.000Z</time>
      </trkpt>
      <trkpt lat="47.48902" lon="6.61003">
        <ele>380.9</ele>
        <time>2017-06-11T10:10:46.000Z</time>
      </trkpt>
      <trkpt lat="47.48904" lon="6.60999">
        <ele>381.7</ele>
        <time>2017-06-11T10:11:01.000Z</time>
      </trkpt>
      <trkpt lat="47.48912" lon="6.60992">
        <ele>381.8</ele>
        <time>2017-06-11T10:11:02.000Z</time>
      </trkpt>
      <trkpt lat="47.48912" lon="6.60992">
        <ele>382.8</ele>
        <time>2017-06-11T10:11:13.000Z</time>
      </trkpt>
      <trkpt lat="47.48923" lon="6.60979">
        <ele>383.1</ele>
        <time>2017-06-11T10:11:14.000Z</time>
      </trkpt>
      <trkpt lat="47.48923" lon="6.60979">
        <ele>384.1</ele>
        <time>2017-06-11T10:11:18.000Z</time>
      </trkpt>
      <trkpt lat="47.48927" lon="6.60967">
        <ele>384.4</ele>
        <time>2017-06-11T10:11:19.000Z</time>
      </trkpt>
      <trkpt lat="47.48929" lon="6.60962">
        <ele>384.9</ele>
        <time>2017-06-11T10:11:21.000Z</time>
      </trkpt>
      <trkpt lat="47.4893" lon="6.60959">
        <ele>385.2</ele>
        <time>2017-06-11T10:11:22.000Z</time>
      </trkpt>
      <trkpt lat="47.48929" lon="6.60954">
        <ele>385.6</ele>
        <time>2017-06-11T10:11:24.000Z</time>
      </trkpt>
      <trkpt lat="47.48929" lon="6.60951">
        <ele>385.8</ele>
        <time>2017-06-11T10:11:25.000Z</time>
      </trkpt>
      <trkpt lat="47.48929" lon="6.60945">
        <ele>386.1</ele>
        <time>2017-06-11T10:11:27.000Z</time>
      </trkpt>
      <trkpt lat="47.48929" lon="6.60943">
        <ele>386.4</ele>
        <time>2017-06-11T10:11:28.000Z</time>
      </trkpt>
      <trkpt lat="47.48929" lon="6.60937">
        <ele>386.8</ele>
        <time>2017-06-11T10:11:30.000Z</time>
      </trkpt>
      <trkpt lat="47.48928" lon="6.60935">
        <ele>387</ele>
        <time>2017-06-11T10:11:31.000Z</time>
      </trkpt>
      <trkpt lat="47.48928" lon="6.60932">
        <ele>387.3</ele>
        <time>2017-06-11T10:11:32.000Z</time>
      </trkpt>
      <trkpt lat="47.48927" lon="6.60928">
        <ele>387.5</ele>
        <time>2017-06-11T10:11:33.000Z</time>
      </trkpt>
      <trkpt lat="47.48927" lon="6.60923">
        <ele>388</ele>
        <time>2017-06-11T10:11:35.000Z</time>
      </trkpt>
      <trkpt lat="47.48927" lon="6.60921">
        <ele>388.1</ele>
        <time>2017-06-11T10:11:36.000Z</time>
      </trkpt>
      <trkpt lat="47.48928" lon="6.60917">
        <ele>388.4</ele>
        <time>2017-06-11T10:11:37.000Z</time>
      </trkpt>
      <trkpt lat="47.48928" lon="6.60913">
        <ele>388.6</ele>
        <time>2017-06-11T10:11:38.000Z</time>
      </trkpt>
      <trkpt lat="47.48927" lon="6.60909">
        <ele>388.7</ele>
        <time>2017-06-11T10:11:39.000Z</time>
      </trkpt>
      <trkpt lat="47.48927" lon="6.60905">
        <ele>388.9</ele>
        <time>2017-06-11T10:11:40.000Z</time>
      </trkpt>
      <trkpt lat="47.48927" lon="6.609">
        <ele>389.1</ele>
        <time>2017-06-11T10:11:41.000Z</time>
      </trkpt>
      <trkpt lat="47.48926" lon="6.60895">
        <ele>389.2</ele>
        <time>2017-06-11T10:11:42.000Z</time>
      </trkpt>
      <trkpt lat="47.48926" lon="6.60889">
        <ele>389.3</ele>
        <time>2017-06-11T10:11:43.000Z</time>
      </trkpt>
      <trkpt lat="47.48926" lon="6.60884">
        <ele>389.4</ele>
        <time>2017-06-11T10:11:44.000Z</time>
      </trkpt>
      <trkpt lat="47.48926" lon="6.60878">
        <ele>389.3</ele>
        <time>2017-06-11T10:11:45.000Z</time>
      </trkpt>
      <trkpt lat="47.48926" lon="6.60872">
        <ele>389.4</ele>
        <time>2017-06-11T10:11:46.000Z</time>
      </trkpt>
      <trkpt lat="47.48926" lon="6.60867">
        <ele>389.4</ele>
        <time>2017-06-11T10:11:47.000Z</time>
      </trkpt>
      <trkpt lat="47.48926" lon="6.60862">
        <ele>389.4</ele>
        <time>2017-06-11T10:11:48.000Z</time>
      </trkpt>
      <trkpt lat="47.48926" lon="6.60857">
        <ele>389.2</ele>
        <time>2017-06-11T10:11:49.000Z</time>
      </trkpt>
      <trkpt lat="47.48927" lon="6.60852">
        <ele>389.2</ele>
        <time>2017-06-11T10:11:50.000Z</time>
      </trkpt>
      <trkpt lat="47.48926" lon="6.60847">
        <ele>389.2</ele>
        <time>2017-06-11T10:11:51.000Z</time>
      </trkpt>
      <trkpt lat="47.48926" lon="6.60842">
        <ele>389.1</ele>
        <time>2017-06-11T10:11:52.000Z</time>
      </trkpt>
      <trkpt lat="47.48926" lon="6.60836">
        <ele>389.1</ele>
        <time>2017-06-11T10:11:53.000Z</time>
      </trkpt>
      <trkpt lat="47.48925" lon="6.6083">
        <ele>389.1</ele>
        <time>2017-06-11T10:11:54.000Z</time>
      </trkpt>
      <trkpt lat="47.48924" lon="6.60824">
        <ele>389</ele>
        <time>2017-06-11T10:11:55.000Z</time>
      </trkpt>
      <trkpt lat="47.48923" lon="6.60818">
        <ele>389.1</ele>
        <time>2017-06-11T10:11:56.000Z</time>
      </trkpt>
      <trkpt lat="47.48923" lon="6.60812">
        <ele>389.1</ele>
        <time>2017-06-11T10:11:57.000Z</time>
      </trkpt>
      <trkpt lat="47.48922" lon="6.60807">
        <ele>389.1</ele>
        <time>2017-06-11T10:11:58.000Z</time>
      </trkpt>
      <trkpt lat="47.48921" lon="6.608">
        <ele>388.5</ele>
        <time>2017-06-11T10:11:59.000Z</time>
      </trkpt>
      <trkpt lat="47.4892" lon="6.60795">
        <ele>388.2</ele>
        <time>2017-06-11T10:12:00.000Z</time>
      </trkpt>
      <trkpt lat="47.48919" lon="6.6079">
        <ele>388.7</ele>
        <time>2017-06-11T10:12:01.000Z</time>
      </trkpt>
      <trkpt lat="47.48919" lon="6.60787">
        <ele>388.7</ele>
        <time>2017-06-11T10:12:02.000Z</time>
      </trkpt>
      <trkpt lat="47.48918" lon="6.60783">
        <ele>388.7</ele>
        <time>2017-06-11T10:12:03.000Z</time>
      </trkpt>
      <trkpt lat="47.48917" lon="6.60776">
        <ele>388.7</ele>
        <time>2017-06-11T10:12:04.000Z</time>
      </trkpt>
      <trkpt lat="47.48916" lon="6.60772">
        <ele>388.7</ele>
        <time>2017-06-11T10:12:05.000Z</time>
      </trkpt>
      <trkpt lat="47.48915" lon="6.60766">
        <ele>390.3</ele>
        <time>2017-06-11T10:12:06.000Z</time>
      </trkpt>
      <trkpt lat="47.48913" lon="6.60762">
        <ele>391</ele>
        <time>2017-06-11T10:12:07.000Z</time>
      </trkpt>
      <trkpt lat="47.48911" lon="6.60758">
        <ele>391.1</ele>
        <time>2017-06-11T10:12:08.000Z</time>
      </trkpt>
      <trkpt lat="47.48909" lon="6.60753">
        <ele>391.2</ele>
        <time>2017-06-11T10:12:09.000Z</time>
      </trkpt>
      <trkpt lat="47.48907" lon="6.60749">
        <ele>391.3</ele>
        <time>2017-06-11T10:12:10.000Z</time>
      </trkpt>
      <trkpt lat="47.48905" lon="6.60744">
        <ele>391.4</ele>
        <time>2017-06-11T10:12:11.000Z</time>
      </trkpt>
      <trkpt lat="47.48903" lon="6.60739">
        <ele>391.4</ele>
        <time>2017-06-11T10:12:12.000Z</time>
      </trkpt>
      <trkpt lat="47.48902" lon="6.60734">
        <ele>391.5</ele>
        <time>2017-06-11T10:12:13.000Z</time>
      </trkpt>
      <trkpt lat="47.48901" lon="6.60729">
        <ele>391.5</ele>
        <time>2017-06-11T10:12:14.000Z</time>
      </trkpt>
      <trkpt lat="47.489" lon="6.60724">
        <ele>391.6</ele>
        <time>2017-06-11T10:12:15.000Z</time>
      </trkpt>
      <trkpt lat="47.48899" lon="6.60718">
        <ele>391.7</ele>
        <time>2017-06-11T10:12:16.000Z</time>
      </trkpt>
      <trkpt lat="47.48898" lon="6.60712">
        <ele>391.8</ele>
        <time>2017-06-11T10:12:17.000Z</time>
      </trkpt>
      <trkpt lat="47.48897" lon="6.60707">
        <ele>392</ele>
        <time>2017-06-11T10:12:18.000Z</time>
      </trkpt>
      <trkpt lat="47.48897" lon="6.60702">
        <ele>392</ele>
        <time>2017-06-11T10:12:19.000Z</time>
      </trkpt>
      <trkpt lat="47.48897" lon="6.60696">
        <ele>392.1</ele>
        <time>2017-06-11T10:12:20.000Z</time>
      </trkpt>
      <trkpt lat="47.48896" lon="6.6069">
        <ele>392.1</ele>
        <time>2017-06-11T10:12:21.000Z</time>
      </trkpt>
      <trkpt lat="47.48896" lon="6.60686">
        <ele>392.2</ele>
        <time>2017-06-11T10:12:22.000Z</time>
      </trkpt>
      <trkpt lat="47.48895" lon="6.60682">
        <ele>392.3</ele>
        <time>2017-06-11T10:12:23.000Z</time>
      </trkpt>
      <trkpt lat="47.48894" lon="6.60676">
        <ele>393.5</ele>
        <time>2017-06-11T10:12:24.000Z</time>
      </trkpt>
      <trkpt lat="47.48892" lon="6.60671">
        <ele>393.6</ele>
        <time>2017-06-11T10:12:25.000Z</time>
      </trkpt>
      <trkpt lat="47.48891" lon="6.60666">
        <ele>393.7</ele>
        <time>2017-06-11T10:12:26.000Z</time>
      </trkpt>
      <trkpt lat="47.48892" lon="6.60663">
        <ele>393.9</ele>
        <time>2017-06-11T10:12:27.000Z</time>
      </trkpt>
      <trkpt lat="47.48892" lon="6.60658">
        <ele>394.1</ele>
        <time>2017-06-11T10:12:28.000Z</time>
      </trkpt>
      <trkpt lat="47.48891" lon="6.60655">
        <ele>394.3</ele>
        <time>2017-06-11T10:12:29.000Z</time>
      </trkpt>
      <trkpt lat="47.48888" lon="6.60652">
        <ele>394.4</ele>
        <time>2017-06-11T10:12:30.000Z</time>
      </trkpt>
      <trkpt lat="47.48884" lon="6.60651">
        <ele>394.4</ele>
        <time>2017-06-11T10:12:31.000Z</time>
      </trkpt>
      <trkpt lat="47.4888" lon="6.6065">
        <ele>394.5</ele>
        <time>2017-06-11T10:12:32.000Z</time>
      </trkpt>
      <trkpt lat="47.48876" lon="6.60649">
        <ele>394.6</ele>
        <time>2017-06-11T10:12:33.000Z</time>
      </trkpt>
      <trkpt lat="47.48872" lon="6.60648">
        <ele>395.3</ele>
        <time>2017-06-11T10:12:34.000Z</time>
      </trkpt>
      <trkpt lat="47.48868" lon="6.60647">
        <ele>396</ele>
        <time>2017-06-11T10:12:35.000Z</time>
      </trkpt>
      <trkpt lat="47.48864" lon="6.60646">
        <ele>396.2</ele>
        <time>2017-06-11T10:12:36.000Z</time>
      </trkpt>
      <trkpt lat="47.48859" lon="6.60645">
        <ele>395.8</ele>
        <time>2017-06-11T10:12:37.000Z</time>
      </trkpt>
      <trkpt lat="47.48855" lon="6.60644">
        <ele>395.1</ele>
        <time>2017-06-11T10:12:38.000Z</time>
      </trkpt>
      <trkpt lat="47.48851" lon="6.60642">
        <ele>395.1</ele>
        <time>2017-06-11T10:12:39.000Z</time>
      </trkpt>
      <trkpt lat="47.48847" lon="6.6064">
        <ele>395</ele>
        <time>2017-06-11T10:12:40.000Z</time>
      </trkpt>
      <trkpt lat="47.48843" lon="6.60638">
        <ele>395</ele>
        <time>2017-06-11T10:12:41.000Z</time>
      </trkpt>
      <trkpt lat="47.48839" lon="6.60636">
        <ele>395</ele>
        <time>2017-06-11T10:12:42.000Z</time>
      </trkpt>
      <trkpt lat="47.48835" lon="6.60634">
        <ele>396.1</ele>
        <time>2017-06-11T10:12:43.000Z</time>
      </trkpt>
      <trkpt lat="47.48832" lon="6.60631">
        <ele>396.2</ele>
        <time>2017-06-11T10:12:44.000Z</time>
      </trkpt>
      <trkpt lat="47.48829" lon="6.60627">
        <ele>396.3</ele>
        <time>2017-06-11T10:12:45.000Z</time>
      </trkpt>
      <trkpt lat="47.48825" lon="6.60624">
        <ele>396.3</ele>
        <time>2017-06-11T10:12:46.000Z</time>
      </trkpt>
      <trkpt lat="47.48822" lon="6.60621">
        <ele>396.4</ele>
        <time>2017-06-11T10:12:47.000Z</time>
      </trkpt>
      <trkpt lat="47.48819" lon="6.60618">
        <ele>396.5</ele>
        <time>2017-06-11T10:12:48.000Z</time>
      </trkpt>
      <trkpt lat="47.48817" lon="6.60616">
        <ele>396.5</ele>
        <time>2017-06-11T10:12:49.000Z</time>
      </trkpt>
      <trkpt lat="47.48816" lon="6.60613">
        <ele>396.5</ele>
        <time>2017-06-11T10:12:50.000Z</time>
      </trkpt>
      <trkpt lat="47.48813" lon="6.60611">
        <ele>396.4</ele>
        <time>2017-06-11T10:12:51.000Z</time>
      </trkpt>
      <trkpt lat="47.48811" lon="6.60606">
        <ele>396.3</ele>
        <time>2017-06-11T10:12:52.000Z</time>
      </trkpt>
      <trkpt lat="47.48807" lon="6.60602">
        <ele>396.2</ele>
        <time>2017-06-11T10:12:53.000Z</time>
      </trkpt>
      <trkpt lat="47.48804" lon="6.60599">
        <ele>396.1</ele>
        <time>2017-06-11T10:12:54.000Z</time>
      </trkpt>
      <trkpt lat="47.48801" lon="6.60596">
        <ele>396</ele>
        <time>2017-06-11T10:12:55.000Z</time>
      </trkpt>
      <trkpt lat="47.48798" lon="6.60592">
        <ele>396</ele>
        <time>2017-06-11T10:12:56.000Z</time>
      </trkpt>
      <trkpt lat="47.48794" lon="6.60585">
        <ele>394.7</ele>
        <time>2017-06-11T10:12:57.000Z</time>
      </trkpt>
      <trkpt lat="47.4879" lon="6.60579">
        <ele>394.5</ele>
        <time>2017-06-11T10:12:58.000Z</time>
      </trkpt>
      <trkpt lat="47.48785" lon="6.60573">
        <ele>394.4</ele>
        <time>2017-06-11T10:12:59.000Z</time>
      </trkpt>
      <trkpt lat="47.4878" lon="6.60567">
        <ele>394.6</ele>
        <time>2017-06-11T10:13:00.000Z</time>
      </trkpt>
      <trkpt lat="47.48774" lon="6.60561">
        <ele>395.4</ele>
        <time>2017-06-11T10:13:01.000Z</time>
      </trkpt>
      <trkpt lat="47.48768" lon="6.60556">
        <ele>395.6</ele>
        <time>2017-06-11T10:13:02.000Z</time>
      </trkpt>
      <trkpt lat="47.48763" lon="6.60551">
        <ele>395.4</ele>
        <time>2017-06-11T10:13:03.000Z</time>
      </trkpt>
      <trkpt lat="47.48758" lon="6.60546">
        <ele>395.3</ele>
        <time>2017-06-11T10:13:04.000Z</time>
      </trkpt>
      <trkpt lat="47.48754" lon="6.60542">
        <ele>395.2</ele>
        <time>2017-06-11T10:13:05.000Z</time>
      </trkpt>
      <trkpt lat="47.48751" lon="6.60539">
        <ele>394.4</ele>
        <time>2017-06-11T10:13:06.000Z</time>
      </trkpt>
      <trkpt lat="47.48747" lon="6.60537">
        <ele>393.4</ele>
        <time>2017-06-11T10:13:07.000Z</time>
      </trkpt>
      <trkpt lat="47.48743" lon="6.60535">
        <ele>393.3</ele>
        <time>2017-06-11T10:13:08.000Z</time>
      </trkpt>
      <trkpt lat="47.4874" lon="6.60534">
        <ele>393.2</ele>
        <time>2017-06-11T10:13:09.000Z</time>
      </trkpt>
      <trkpt lat="47.48736" lon="6.60533">
        <ele>393.1</ele>
        <time>2017-06-11T10:13:10.000Z</time>
      </trkpt>
      <trkpt lat="47.48734" lon="6.60532">
        <ele>393.1</ele>
        <time>2017-06-11T10:13:11.000Z</time>
      </trkpt>
      <trkpt lat="47.48729" lon="6.60531">
        <ele>392.9</ele>
        <time>2017-06-11T10:13:13.000Z</time>
      </trkpt>
      <trkpt lat="47.48728" lon="6.60531">
        <ele>392.7</ele>
        <time>2017-06-11T10:13:14.000Z</time>
      </trkpt>
      <trkpt lat="47.48725" lon="6.60531">
        <ele>392.6</ele>
        <time>2017-06-11T10:13:15.000Z</time>
      </trkpt>
      <trkpt lat="47.48723" lon="6.60531">
        <ele>392.5</ele>
        <time>2017-06-11T10:13:16.000Z</time>
      </trkpt>
      <trkpt lat="47.4872" lon="6.60532">
        <ele>392.2</ele>
        <time>2017-06-11T10:13:18.000Z</time>
      </trkpt>
      <trkpt lat="47.48718" lon="6.60532">
        <ele>392.2</ele>
        <time>2017-06-11T10:13:19.000Z</time>
      </trkpt>
      <trkpt lat="47.48715" lon="6.60533">
        <ele>392</ele>
        <time>2017-06-11T10:13:21.000Z</time>
      </trkpt>
      <trkpt lat="47.48713" lon="6.60534">
        <ele>391.9</ele>
        <time>2017-06-11T10:13:22.000Z</time>
      </trkpt>
      <trkpt lat="47.48709" lon="6.60534">
        <ele>391.8</ele>
        <time>2017-06-11T10:13:24.000Z</time>
      </trkpt>
      <trkpt lat="47.48706" lon="6.60534">
        <ele>391.7</ele>
        <time>2017-06-11T10:13:25.000Z</time>
      </trkpt>
      <trkpt lat="47.48702" lon="6.60531">
        <ele>391.6</ele>
        <time>2017-06-11T10:13:27.000Z</time>
      </trkpt>
      <trkpt lat="47.487" lon="6.60529">
        <ele>391.6</ele>
        <time>2017-06-11T10:13:28.000Z</time>
      </trkpt>
      <trkpt lat="47.48697" lon="6.60528">
        <ele>391.5</ele>
        <time>2017-06-11T10:13:29.000Z</time>
      </trkpt>
      <trkpt lat="47.48695" lon="6.60526">
        <ele>391.5</ele>
        <time>2017-06-11T10:13:30.000Z</time>
      </trkpt>
      <trkpt lat="47.48691" lon="6.60524">
        <ele>391.5</ele>
        <time>2017-06-11T10:13:32.000Z</time>
      </trkpt>
      <trkpt lat="47.48689" lon="6.60523">
        <ele>391.6</ele>
        <time>2017-06-11T10:13:33.000Z</time>
      </trkpt>
      <trkpt lat="47.48687" lon="6.60523">
        <ele>391.6</ele>
        <time>2017-06-11T10:13:34.000Z</time>
      </trkpt>
      <trkpt lat="47.48685" lon="6.60522">
        <ele>391.6</ele>
        <time>2017-06-11T10:13:35.000Z</time>
      </trkpt>
      <trkpt lat="47.48682" lon="6.60521">
        <ele>391.6</ele>
        <time>2017-06-11T10:13:36.000Z</time>
      </trkpt>
      <trkpt lat="47.4868" lon="6.60521">
        <ele>391.6</ele>
        <time>2017-06-11T10:13:37.000Z</time>
      </trkpt>
      <trkpt lat="47.48676" lon="6.60521">
        <ele>391.6</ele>
        <time>2017-06-11T10:13:39.000Z</time>
      </trkpt>
      <trkpt lat="47.48674" lon="6.60521">
        <ele>391.7</ele>
        <time>2017-06-11T10:13:40.000Z</time>
      </trkpt>
      <trkpt lat="47.48671" lon="6.6052">
        <ele>391.7</ele>
        <time>2017-06-11T10:13:42.000Z</time>
      </trkpt>
      <trkpt lat="47.48668" lon="6.6052">
        <ele>391.8</ele>
        <time>2017-06-11T10:13:43.000Z</time>
      </trkpt>
      <trkpt lat="47.48666" lon="6.6052">
        <ele>391.9</ele>
        <time>2017-06-11T10:13:44.000Z</time>
      </trkpt>
      <trkpt lat="47.48664" lon="6.60521">
        <ele>392</ele>
        <time>2017-06-11T10:13:45.000Z</time>
      </trkpt>
      <trkpt lat="47.48662" lon="6.60521">
        <ele>392.1</ele>
        <time>2017-06-11T10:13:46.000Z</time>
      </trkpt>
      <trkpt lat="47.48659" lon="6.60521">
        <ele>392.2</ele>
        <time>2017-06-11T10:13:47.000Z</time>
      </trkpt>
      <trkpt lat="47.48656" lon="6.60522">
        <ele>392.4</ele>
        <time>2017-06-11T10:13:49.000Z</time>
      </trkpt>
      <trkpt lat="47.48654" lon="6.60523">
        <ele>392.6</ele>
        <time>2017-06-11T10:13:50.000Z</time>
      </trkpt>
      <trkpt lat="47.4865" lon="6.60524">
        <ele>392.9</ele>
        <time>2017-06-11T10:13:52.000Z</time>
      </trkpt>
      <trkpt lat="47.48647" lon="6.60525">
        <ele>393</ele>
        <time>2017-06-11T10:13:53.000Z</time>
      </trkpt>
      <trkpt lat="47.48644" lon="6.60526">
        <ele>393.1</ele>
        <time>2017-06-11T10:13:54.000Z</time>
      </trkpt>
      <trkpt lat="47.48642" lon="6.60526">
        <ele>393.3</ele>
        <time>2017-06-11T10:13:55.000Z</time>
      </trkpt>
      <trkpt lat="47.48639" lon="6.60526">
        <ele>393.6</ele>
        <time>2017-06-11T10:13:57.000Z</time>
      </trkpt>
      <trkpt lat="47.48636" lon="6.60527">
        <ele>393.8</ele>
        <time>2017-06-11T10:13:58.000Z</time>
      </trkpt>
      <trkpt lat="47.48633" lon="6.60527">
        <ele>393.9</ele>
        <time>2017-06-11T10:13:59.000Z</time>
      </trkpt>
      <trkpt lat="47.48631" lon="6.60527">
        <ele>394</ele>
        <time>2017-06-11T10:14:00.000Z</time>
      </trkpt>
      <trkpt lat="47.48629" lon="6.60527">
        <ele>394</ele>
        <time>2017-06-11T10:14:01.000Z</time>
      </trkpt>
      <trkpt lat="47.48626" lon="6.60528">
        <ele>394</ele>
        <time>2017-06-11T10:14:02.000Z</time>
      </trkpt>
      <trkpt lat="47.48623" lon="6.60528">
        <ele>394.1</ele>
        <time>2017-06-11T10:14:03.000Z</time>
      </trkpt>
      <trkpt lat="47.4862" lon="6.60527">
        <ele>394.2</ele>
        <time>2017-06-11T10:14:04.000Z</time>
      </trkpt>
      <trkpt lat="47.48617" lon="6.60528">
        <ele>394.3</ele>
        <time>2017-06-11T10:14:05.000Z</time>
      </trkpt>
      <trkpt lat="47.48615" lon="6.60528">
        <ele>394.4</ele>
        <time>2017-06-11T10:14:06.000Z</time>
      </trkpt>
      <trkpt lat="47.48612" lon="6.60528">
        <ele>394.5</ele>
        <time>2017-06-11T10:14:07.000Z</time>
      </trkpt>
      <trkpt lat="47.48608" lon="6.60529">
        <ele>394.5</ele>
        <time>2017-06-11T10:14:08.000Z</time>
      </trkpt>
      <trkpt lat="47.48605" lon="6.60529">
        <ele>394.6</ele>
        <time>2017-06-11T10:14:09.000Z</time>
      </trkpt>
      <trkpt lat="47.48602" lon="6.60529">
        <ele>394.7</ele>
        <time>2017-06-11T10:14:10.000Z</time>
      </trkpt>
      <trkpt lat="47.486" lon="6.6053">
        <ele>394.8</ele>
        <time>2017-06-11T10:14:11.000Z</time>
      </trkpt>
      <trkpt lat="47.48597" lon="6.6053">
        <ele>395</ele>
        <time>2017-06-11T10:14:12.000Z</time>
      </trkpt>
      <trkpt lat="47.48594" lon="6.60531">
        <ele>395.1</ele>
        <time>2017-06-11T10:14:13.000Z</time>
      </trkpt>
      <trkpt lat="47.48592" lon="6.60531">
        <ele>395.2</ele>
        <time>2017-06-11T10:14:14.000Z</time>
      </trkpt>
      <trkpt lat="47.48588" lon="6.60532">
        <ele>395.3</ele>
        <time>2017-06-11T10:14:15.000Z</time>
      </trkpt>
      <trkpt lat="47.48586" lon="6.60533">
        <ele>395.4</ele>
        <time>2017-06-11T10:14:16.000Z</time>
      </trkpt>
      <trkpt lat="47.48583" lon="6.60533">
        <ele>395.5</ele>
        <time>2017-06-11T10:14:17.000Z</time>
      </trkpt>
      <trkpt lat="47.48579" lon="6.60533">
        <ele>395.6</ele>
        <time>2017-06-11T10:14:18.000Z</time>
      </trkpt>
      <trkpt lat="47.48576" lon="6.60533">
        <ele>395.7</ele>
        <time>2017-06-11T10:14:19.000Z</time>
      </trkpt>
      <trkpt lat="47.48573" lon="6.60534">
        <ele>395.8</ele>
        <time>2017-06-11T10:14:20.000Z</time>
      </trkpt>
      <trkpt lat="47.4857" lon="6.60535">
        <ele>395.9</ele>
        <time>2017-06-11T10:14:21.000Z</time>
      </trkpt>
      <trkpt lat="47.48566" lon="6.60535">
        <ele>396</ele>
        <time>2017-06-11T10:14:22.000Z</time>
      </trkpt>
      <trkpt lat="47.48563" lon="6.60536">
        <ele>396.1</ele>
        <time>2017-06-11T10:14:23.000Z</time>
      </trkpt>
      <trkpt lat="47.48559" lon="6.60536">
        <ele>396.2</ele>
        <time>2017-06-11T10:14:24.000Z</time>
      </trkpt>
      <trkpt lat="47.48556" lon="6.60536">
        <ele>396.3</ele>
        <time>2017-06-11T10:14:25.000Z</time>
      </trkpt>
      <trkpt lat="47.48552" lon="6.60536">
        <ele>396.5</ele>
        <time>2017-06-11T10:14:26.000Z</time>
      </trkpt>
      <trkpt lat="47.48549" lon="6.60536">
        <ele>396.6</ele>
        <time>2017-06-11T10:14:27.000Z</time>
      </trkpt>
      <trkpt lat="47.48547" lon="6.60535">
        <ele>396.7</ele>
        <time>2017-06-11T10:14:28.000Z</time>
      </trkpt>
      <trkpt lat="47.48545" lon="6.60534">
        <ele>396.8</ele>
        <time>2017-06-11T10:14:29.000Z</time>
      </trkpt>
      <trkpt lat="47.48542" lon="6.60533">
        <ele>396.9</ele>
        <time>2017-06-11T10:14:30.000Z</time>
      </trkpt>
      <trkpt lat="47.48539" lon="6.60532">
        <ele>396.9</ele>
        <time>2017-06-11T10:14:31.000Z</time>
      </trkpt>
      <trkpt lat="47.48536" lon="6.60531">
        <ele>396.9</ele>
        <time>2017-06-11T10:14:32.000Z</time>
      </trkpt>
      <trkpt lat="47.48533" lon="6.6053">
        <ele>396.9</ele>
        <time>2017-06-11T10:14:33.000Z</time>
      </trkpt>
      <trkpt lat="47.48531" lon="6.60529">
        <ele>397</ele>
        <time>2017-06-11T10:14:34.000Z</time>
      </trkpt>
      <trkpt lat="47.48528" lon="6.60529">
        <ele>397.1</ele>
        <time>2017-06-11T10:14:35.000Z</time>
      </trkpt>
      <trkpt lat="47.48525" lon="6.60528">
        <ele>397.2</ele>
        <time>2017-06-11T10:14:36.000Z</time>
      </trkpt>
      <trkpt lat="47.48523" lon="6.60527">
        <ele>397.3</ele>
        <time>2017-06-11T10:14:37.000Z</time>
      </trkpt>
      <trkpt lat="47.4852" lon="6.60526">
        <ele>397.4</ele>
        <time>2017-06-11T10:14:38.000Z</time>
      </trkpt>
      <trkpt lat="47.48518" lon="6.60524">
        <ele>397.4</ele>
        <time>2017-06-11T10:14:39.000Z</time>
      </trkpt>
      <trkpt lat="47.48514" lon="6.60523">
        <ele>397.5</ele>
        <time>2017-06-11T10:14:40.000Z</time>
      </trkpt>
      <trkpt lat="47.4851" lon="6.60521">
        <ele>397.5</ele>
        <time>2017-06-11T10:14:41.000Z</time>
      </trkpt>
      <trkpt lat="47.48507" lon="6.60519">
        <ele>397.5</ele>
        <time>2017-06-11T10:14:42.000Z</time>
      </trkpt>
      <trkpt lat="47.48505" lon="6.60518">
        <ele>397.5</ele>
        <time>2017-06-11T10:14:43.000Z</time>
      </trkpt>
      <trkpt lat="47.48501" lon="6.60516">
        <ele>397.6</ele>
        <time>2017-06-11T10:14:44.000Z</time>
      </trkpt>
      <trkpt lat="47.48497" lon="6.60515">
        <ele>397.6</ele>
        <time>2017-06-11T10:14:45.000Z</time>
      </trkpt>
      <trkpt lat="47.48493" lon="6.60513">
        <ele>397.6</ele>
        <time>2017-06-11T10:14:46.000Z</time>
      </trkpt>
      <trkpt lat="47.4849" lon="6.60512">
        <ele>397.6</ele>
        <time>2017-06-11T10:14:47.000Z</time>
      </trkpt>
      <trkpt lat="47.48488" lon="6.60512">
        <ele>397.7</ele>
        <time>2017-06-11T10:14:48.000Z</time>
      </trkpt>
      <trkpt lat="47.48485" lon="6.6051">
        <ele>397.7</ele>
        <time>2017-06-11T10:14:49.000Z</time>
      </trkpt>
      <trkpt lat="47.4848" lon="6.60508">
        <ele>397.7</ele>
        <time>2017-06-11T10:14:50.000Z</time>
      </trkpt>
      <trkpt lat="47.48477" lon="6.60507">
        <ele>397.6</ele>
        <time>2017-06-11T10:14:51.000Z</time>
      </trkpt>
      <trkpt lat="47.48473" lon="6.60506">
        <ele>397.6</ele>
        <time>2017-06-11T10:14:52.000Z</time>
      </trkpt>
      <trkpt lat="47.48469" lon="6.60505">
        <ele>397.1</ele>
        <time>2017-06-11T10:14:53.000Z</time>
      </trkpt>
      <trkpt lat="47.48466" lon="6.60504">
        <ele>397.2</ele>
        <time>2017-06-11T10:14:54.000Z</time>
      </trkpt>
      <trkpt lat="47.48462" lon="6.60502">
        <ele>397.2</ele>
        <time>2017-06-11T10:14:55.000Z</time>
      </trkpt>
      <trkpt lat="47.4846" lon="6.60502">
        <ele>397.1</ele>
        <time>2017-06-11T10:14:56.000Z</time>
      </trkpt>
      <trkpt lat="47.48456" lon="6.60501">
        <ele>397.1</ele>
        <time>2017-06-11T10:14:57.000Z</time>
      </trkpt>
      <trkpt lat="47.48453" lon="6.605">
        <ele>397.1</ele>
        <time>2017-06-11T10:14:58.000Z</time>
      </trkpt>
      <trkpt lat="47.4845" lon="6.60499">
        <ele>397</ele>
        <time>2017-06-11T10:14:59.000Z</time>
      </trkpt>
      <trkpt lat="47.48448" lon="6.60498">
        <ele>396.9</ele>
        <time>2017-06-11T10:15:00.000Z</time>
      </trkpt>
      <trkpt lat="47.48445" lon="6.60497">
        <ele>397</ele>
        <time>2017-06-11T10:15:01.000Z</time>
      </trkpt>
      <trkpt lat="47.48442" lon="6.60496">
        <ele>397.1</ele>
        <time>2017-06-11T10:15:02.000Z</time>
      </trkpt>
      <trkpt lat="47.48437" lon="6.60495">
        <ele>397.1</ele>
        <time>2017-06-11T10:15:03.000Z</time>
      </trkpt>
      <trkpt lat="47.48433" lon="6.60493">
        <ele>397.2</ele>
        <time>2017-06-11T10:15:04.000Z</time>
      </trkpt>
      <trkpt lat="47.48429" lon="6.60492">
        <ele>398.3</ele>
        <time>2017-06-11T10:15:05.000Z</time>
      </trkpt>
      <trkpt lat="47.48426" lon="6.6049">
        <ele>398.3</ele>
        <time>2017-06-11T10:15:06.000Z</time>
      </trkpt>
      <trkpt lat="47.48423" lon="6.60489">
        <ele>399.6</ele>
        <time>2017-06-11T10:15:07.000Z</time>
      </trkpt>
      <trkpt lat="47.48419" lon="6.60487">
        <ele>399.9</ele>
        <time>2017-06-11T10:15:08.000Z</time>
      </trkpt>
      <trkpt lat="47.48415" lon="6.60485">
        <ele>400.5</ele>
        <time>2017-06-11T10:15:09.000Z</time>
      </trkpt>
      <trkpt lat="47.48412" lon="6.60484">
        <ele>400.6</ele>
        <time>2017-06-11T10:15:10.000Z</time>
      </trkpt>
      <trkpt lat="47.48408" lon="6.60482">
        <ele>400.6</ele>
        <time>2017-06-11T10:15:11.000Z</time>
      </trkpt>
      <trkpt lat="47.48404" lon="6.60481">
        <ele>400.7</ele>
        <time>2017-06-11T10:15:12.000Z</time>
      </trkpt>
      <trkpt lat="47.484" lon="6.6048">
        <ele>400.7</ele>
        <time>2017-06-11T10:15:13.000Z</time>
      </trkpt>
      <trkpt lat="47.48397" lon="6.60479">
        <ele>400.6</ele>
        <time>2017-06-11T10:15:14.000Z</time>
      </trkpt>
      <trkpt lat="47.48394" lon="6.60479">
        <ele>400.5</ele>
        <time>2017-06-11T10:15:15.000Z</time>
      </trkpt>
      <trkpt lat="47.48391" lon="6.60478">
        <ele>400.4</ele>
        <time>2017-06-11T10:15:16.000Z</time>
      </trkpt>
      <trkpt lat="47.48387" lon="6.60478">
        <ele>400.4</ele>
        <time>2017-06-11T10:15:17.000Z</time>
      </trkpt>
      <trkpt lat="47.48384" lon="6.60477">
        <ele>400.2</ele>
        <time>2017-06-11T10:15:18.000Z</time>
      </trkpt>
      <trkpt lat="47.48381" lon="6.60476">
        <ele>399.9</ele>
        <time>2017-06-11T10:15:20.000Z</time>
      </trkpt>
      <trkpt lat="47.4838" lon="6.60476">
        <ele>399.7</ele>
        <time>2017-06-11T10:15:21.000Z</time>
      </trkpt>
      <trkpt lat="47.48379" lon="6.60476">
        <ele>399.5</ele>
        <time>2017-06-11T10:15:22.000Z</time>
      </trkpt>
      <trkpt lat="47.48375" lon="6.60476">
        <ele>399.3</ele>
        <time>2017-06-11T10:15:23.000Z</time>
      </trkpt>
      <trkpt lat="47.48371" lon="6.60476">
        <ele>399</ele>
        <time>2017-06-11T10:15:24.000Z</time>
      </trkpt>
      <trkpt lat="47.4837" lon="6.60475">
        <ele>398.7</ele>
        <time>2017-06-11T10:15:25.000Z</time>
      </trkpt>
      <trkpt lat="47.48365" lon="6.60472">
        <ele>398.5</ele>
        <time>2017-06-11T10:15:26.000Z</time>
      </trkpt>
      <trkpt lat="47.48362" lon="6.6047">
        <ele>398.3</ele>
        <time>2017-06-11T10:15:27.000Z</time>
      </trkpt>
      <trkpt lat="47.4836" lon="6.60468">
        <ele>398.1</ele>
        <time>2017-06-11T10:15:28.000Z</time>
      </trkpt>
      <trkpt lat="47.48358" lon="6.60467">
        <ele>397.9</ele>
        <time>2017-06-11T10:15:29.000Z</time>
      </trkpt>
      <trkpt lat="47.48355" lon="6.60465">
        <ele>397.7</ele>
        <time>2017-06-11T10:15:30.000Z</time>
      </trkpt>
      <trkpt lat="47.48353" lon="6.60463">
        <ele>397.6</ele>
        <time>2017-06-11T10:15:31.000Z</time>
      </trkpt>
      <trkpt lat="47.4835" lon="6.6046">
        <ele>397.4</ele>
        <time>2017-06-11T10:15:32.000Z</time>
      </trkpt>
      <trkpt lat="47.48346" lon="6.60458">
        <ele>397.2</ele>
        <time>2017-06-11T10:15:33.000Z</time>
      </trkpt>
      <trkpt lat="47.48343" lon="6.60456">
        <ele>396.9</ele>
        <time>2017-06-11T10:15:34.000Z</time>
      </trkpt>
      <trkpt lat="47.48341" lon="6.60454">
        <ele>396.7</ele>
        <time>2017-06-11T10:15:35.000Z</time>
      </trkpt>
      <trkpt lat="47.48338" lon="6.6045">
        <ele>396.5</ele>
        <time>2017-06-11T10:15:36.000Z</time>
      </trkpt>
      <trkpt lat="47.48336" lon="6.60447">
        <ele>396.2</ele>
        <time>2017-06-11T10:15:37.000Z</time>
      </trkpt>
      <trkpt lat="47.48335" lon="6.60445">
        <ele>395.9</ele>
        <time>2017-06-11T10:15:38.000Z</time>
      </trkpt>
      <trkpt lat="47.48333" lon="6.60443">
        <ele>395.7</ele>
        <time>2017-06-11T10:15:39.000Z</time>
      </trkpt>
      <trkpt lat="47.4833" lon="6.60442">
        <ele>395.4</ele>
        <time>2017-06-11T10:15:40.000Z</time>
      </trkpt>
      <trkpt lat="47.48326" lon="6.60439">
        <ele>395</ele>
        <time>2017-06-11T10:15:42.000Z</time>
      </trkpt>
      <trkpt lat="47.48323" lon="6.60438">
        <ele>394.9</ele>
        <time>2017-06-11T10:15:43.000Z</time>
      </trkpt>
      <trkpt lat="47.4832" lon="6.60439">
        <ele>394.8</ele>
        <time>2017-06-11T10:15:44.000Z</time>
      </trkpt>
      <trkpt lat="47.48315" lon="6.6044">
        <ele>394.7</ele>
        <time>2017-06-11T10:15:45.000Z</time>
      </trkpt>
      <trkpt lat="47.48311" lon="6.60443">
        <ele>394.4</ele>
        <time>2017-06-11T10:15:47.000Z</time>
      </trkpt>
      <trkpt lat="47.4831" lon="6.60445">
        <ele>394.4</ele>
        <time>2017-06-11T10:15:48.000Z</time>
      </trkpt>
      <trkpt lat="47.48305" lon="6.60446">
        <ele>394</ele>
        <time>2017-06-11T10:15:51.000Z</time>
      </trkpt>
      <trkpt lat="47.48304" lon="6.60446">
        <ele>394</ele>
        <time>2017-06-11T10:15:52.000Z</time>
      </trkpt>
      <trkpt lat="47.48301" lon="6.60449">
        <ele>393.9</ele>
        <time>2017-06-11T10:15:54.000Z</time>
      </trkpt>
      <trkpt lat="47.483" lon="6.60449">
        <ele>393.9</ele>
        <time>2017-06-11T10:15:55.000Z</time>
      </trkpt>
      <trkpt lat="47.48299" lon="6.6045">
        <ele>393.9</ele>
        <time>2017-06-11T10:15:56.000Z</time>
      </trkpt>
      <trkpt lat="47.48294" lon="6.60451">
        <ele>393.9</ele>
        <time>2017-06-11T10:15:57.000Z</time>
      </trkpt>
      <trkpt lat="47.48289" lon="6.60453">
        <ele>394</ele>
        <time>2017-06-11T10:15:58.000Z</time>
      </trkpt>
      <trkpt lat="47.48287" lon="6.60454">
        <ele>394.1</ele>
        <time>2017-06-11T10:15:59.000Z</time>
      </trkpt>
      <trkpt lat="47.48284" lon="6.60455">
        <ele>394.2</ele>
        <time>2017-06-11T10:16:00.000Z</time>
      </trkpt>
      <trkpt lat="47.48282" lon="6.60457">
        <ele>394.3</ele>
        <time>2017-06-11T10:16:01.000Z</time>
      </trkpt>
      <trkpt lat="47.4828" lon="6.60457">
        <ele>394.3</ele>
        <time>2017-06-11T10:16:02.000Z</time>
      </trkpt>
      <trkpt lat="47.48278" lon="6.60458">
        <ele>394.4</ele>
        <time>2017-06-11T10:16:02.999Z</time>
      </trkpt>
      <trkpt lat="47.48276" lon="6.60462">
        <ele>394.4</ele>
        <time>2017-06-11T10:16:03.999Z</time>
      </trkpt>
      <trkpt lat="47.48272" lon="6.6047">
        <ele>394.4</ele>
        <time>2017-06-11T10:16:04.999Z</time>
      </trkpt>
      <trkpt lat="47.4827" lon="6.60472">
        <ele>394.4</ele>
        <time>2017-06-11T10:16:06.999Z</time>
      </trkpt>
      <trkpt lat="47.48268" lon="6.60472">
        <ele>394.4</ele>
        <time>2017-06-11T10:16:07.999Z</time>
      </trkpt>
      <trkpt lat="47.48264" lon="6.60475">
        <ele>394.4</ele>
        <time>2017-06-11T10:16:10.999Z</time>
      </trkpt>
      <trkpt lat="47.48262" lon="6.60475">
        <ele>394.5</ele>
        <time>2017-06-11T10:16:11.999Z</time>
      </trkpt>
      <trkpt lat="47.48261" lon="6.60476">
        <ele>394.5</ele>
        <time>2017-06-11T10:16:12.999Z</time>
      </trkpt>
      <trkpt lat="47.48257" lon="6.60478">
        <ele>394.5</ele>
        <time>2017-06-11T10:16:13.999Z</time>
      </trkpt>
      <trkpt lat="47.48256" lon="6.60478">
        <ele>394.5</ele>
        <time>2017-06-11T10:16:14.999Z</time>
      </trkpt>
      <trkpt lat="47.48253" lon="6.60482">
        <ele>394.4</ele>
        <time>2017-06-11T10:16:15.999Z</time>
      </trkpt>
      <trkpt lat="47.48253" lon="6.60483">
        <ele>394.3</ele>
        <time>2017-06-11T10:16:16.999Z</time>
      </trkpt>
      <trkpt lat="47.48249" lon="6.60486">
        <ele>394.2</ele>
        <time>2017-06-11T10:16:17.999Z</time>
      </trkpt>
      <trkpt lat="47.48246" lon="6.60488">
        <ele>393.9</ele>
        <time>2017-06-11T10:16:19.999Z</time>
      </trkpt>
      <trkpt lat="47.48245" lon="6.60489">
        <ele>393.8</ele>
        <time>2017-06-11T10:16:20.999Z</time>
      </trkpt>
      <trkpt lat="47.48243" lon="6.60489">
        <ele>393.8</ele>
        <time>2017-06-11T10:16:21.999Z</time>
      </trkpt>
      <trkpt lat="47.48239" lon="6.6049">
        <ele>393.7</ele>
        <time>2017-06-11T10:16:22.999Z</time>
      </trkpt>
      <trkpt lat="47.48235" lon="6.60491">
        <ele>393.5</ele>
        <time>2017-06-11T10:16:25.999Z</time>
      </trkpt>
      <trkpt lat="47.48234" lon="6.60492">
        <ele>393.5</ele>
        <time>2017-06-11T10:16:26.999Z</time>
      </trkpt>
      <trkpt lat="47.4823" lon="6.60494">
        <ele>393.6</ele>
        <time>2017-06-11T10:16:28.999Z</time>
      </trkpt>
      <trkpt lat="47.48228" lon="6.60493">
        <ele>393.7</ele>
        <time>2017-06-11T10:16:29.999Z</time>
      </trkpt>
      <trkpt lat="47.48225" lon="6.60491">
        <ele>394</ele>
        <time>2017-06-11T10:16:31.999Z</time>
      </trkpt>
      <trkpt lat="47.48223" lon="6.6049">
        <ele>394.3</ele>
        <time>2017-06-11T10:16:32.999Z</time>
      </trkpt>
      <trkpt lat="47.48219" lon="6.60488">
        <ele>395</ele>
        <time>2017-06-11T10:16:35.999Z</time>
      </trkpt>
      <trkpt lat="47.48216" lon="6.60485">
        <ele>395.3</ele>
        <time>2017-06-11T10:16:36.999Z</time>
      </trkpt>
      <trkpt lat="47.48214" lon="6.60481">
        <ele>395.8</ele>
        <time>2017-06-11T10:16:38.999Z</time>
      </trkpt>
      <trkpt lat="47.48211" lon="6.60479">
        <ele>396.1</ele>
        <time>2017-06-11T10:16:39.999Z</time>
      </trkpt>
      <trkpt lat="47.48207" lon="6.60478">
        <ele>396.5</ele>
        <time>2017-06-11T10:16:40.999Z</time>
      </trkpt>
      <trkpt lat="47.48206" lon="6.60478">
        <ele>396.8</ele>
        <time>2017-06-11T10:16:41.999Z</time>
      </trkpt>
      <trkpt lat="47.48204" lon="6.60476">
        <ele>397.6</ele>
        <time>2017-06-11T10:16:44.999Z</time>
      </trkpt>
      <trkpt lat="47.48202" lon="6.60473">
        <ele>398</ele>
        <time>2017-06-11T10:16:45.999Z</time>
      </trkpt>
      <trkpt lat="47.48199" lon="6.60468">
        <ele>398.2</ele>
        <time>2017-06-11T10:16:46.999Z</time>
      </trkpt>
      <trkpt lat="47.48194" lon="6.60463">
        <ele>398.5</ele>
        <time>2017-06-11T10:16:47.999Z</time>
      </trkpt>
      <trkpt lat="47.48192" lon="6.60458">
        <ele>399.1</ele>
        <time>2017-06-11T10:16:49.999Z</time>
      </trkpt>
      <trkpt lat="47.4819" lon="6.60457">
        <ele>399.4</ele>
        <time>2017-06-11T10:16:50.999Z</time>
      </trkpt>
      <trkpt lat="47.48189" lon="6.60455">
        <ele>399.6</ele>
        <time>2017-06-11T10:16:51.999Z</time>
      </trkpt>
      <trkpt lat="47.48187" lon="6.60453">
        <ele>399.9</ele>
        <time>2017-06-11T10:16:52.999Z</time>
      </trkpt>
      <trkpt lat="47.48185" lon="6.6045">
        <ele>400.2</ele>
        <time>2017-06-11T10:16:53.999Z</time>
      </trkpt>
      <trkpt lat="47.48184" lon="6.60445">
        <ele>400.6</ele>
        <time>2017-06-11T10:16:54.999Z</time>
      </trkpt>
      <trkpt lat="47.48182" lon="6.6044">
        <ele>401.7</ele>
        <time>2017-06-11T10:16:57.999Z</time>
      </trkpt>
      <trkpt lat="47.48181" lon="6.60439">
        <ele>402</ele>
        <time>2017-06-11T10:16:58.999Z</time>
      </trkpt>
      <trkpt lat="47.48178" lon="6.60435">
        <ele>403</ele>
        <time>2017-06-11T10:17:02.999Z</time>
      </trkpt>
      <trkpt lat="47.48176" lon="6.60434">
        <ele>403.2</ele>
        <time>2017-06-11T10:17:03.999Z</time>
      </trkpt>
      <trkpt lat="47.48173" lon="6.60431">
        <ele>403.8</ele>
        <time>2017-06-11T10:17:05.999Z</time>
      </trkpt>
      <trkpt lat="47.48171" lon="6.6043">
        <ele>404.1</ele>
        <time>2017-06-11T10:17:06.999Z</time>
      </trkpt>
      <trkpt lat="47.48167" lon="6.60429">
        <ele>404.6</ele>
        <time>2017-06-11T10:17:08.999Z</time>
      </trkpt>
      <trkpt lat="47.48164" lon="6.60429">
        <ele>404.9</ele>
        <time>2017-06-11T10:17:09.999Z</time>
      </trkpt>
      <trkpt lat="47.4816" lon="6.6043">
        <ele>405.3</ele>
        <time>2017-06-11T10:17:11.999Z</time>
      </trkpt>
      <trkpt lat="47.48158" lon="6.60431">
        <ele>405.5</ele>
        <time>2017-06-11T10:17:12.999Z</time>
      </trkpt>
      <trkpt lat="47.48154" lon="6.60433">
        <ele>406.2</ele>
        <time>2017-06-11T10:17:14.999Z</time>
      </trkpt>
      <trkpt lat="47.48151" lon="6.60434">
        <ele>406.5</ele>
        <time>2017-06-11T10:17:15.999Z</time>
      </trkpt>
      <trkpt lat="47.48147" lon="6.60436">
        <ele>407</ele>
        <time>2017-06-11T10:17:17.999Z</time>
      </trkpt>
      <trkpt lat="47.48145" lon="6.60437">
        <ele>407.3</ele>
        <time>2017-06-11T10:17:18.999Z</time>
      </trkpt>
      <trkpt lat="47.48142" lon="6.60437">
        <ele>407.5</ele>
        <time>2017-06-11T10:17:19.999Z</time>
      </trkpt>
      <trkpt lat="47.4814" lon="6.60438">
        <ele>407.7</ele>
        <time>2017-06-11T10:17:20.999Z</time>
      </trkpt>
      <trkpt lat="47.48137" lon="6.60441">
        <ele>408.2</ele>
        <time>2017-06-11T10:17:22.999Z</time>
      </trkpt>
      <trkpt lat="47.48132" lon="6.60442">
        <ele>408.5</ele>
        <time>2017-06-11T10:17:23.999Z</time>
      </trkpt>
      <trkpt lat="47.48131" lon="6.60442">
        <ele>408.7</ele>
        <time>2017-06-11T10:17:24.999Z</time>
      </trkpt>
      <trkpt lat="47.48126" lon="6.6044">
        <ele>408.8</ele>
        <time>2017-06-11T10:17:25.999Z</time>
      </trkpt>
      <trkpt lat="47.48123" lon="6.60441">
        <ele>409</ele>
        <time>2017-06-11T10:17:27.999Z</time>
      </trkpt>
      <trkpt lat="47.48121" lon="6.60441">
        <ele>409.2</ele>
        <time>2017-06-11T10:17:28.999Z</time>
      </trkpt>
      <trkpt lat="47.48117" lon="6.60439">
        <ele>409.6</ele>
        <time>2017-06-11T10:17:30.999Z</time>
      </trkpt>
      <trkpt lat="47.48114" lon="6.6044">
        <ele>409.9</ele>
        <time>2017-06-11T10:17:31.999Z</time>
      </trkpt>
      <trkpt lat="47.4811" lon="6.60441">
        <ele>410.6</ele>
        <time>2017-06-11T10:17:33.999Z</time>
      </trkpt>
      <trkpt lat="47.48108" lon="6.6044">
        <ele>410.9</ele>
        <time>2017-06-11T10:17:34.999Z</time>
      </trkpt>
      <trkpt lat="47.48105" lon="6.60442">
        <ele>411.6</ele>
        <time>2017-06-11T10:17:36.999Z</time>
      </trkpt>
      <trkpt lat="47.48103" lon="6.60443">
        <ele>411.8</ele>
        <time>2017-06-11T10:17:37.999Z</time>
      </trkpt>
      <trkpt lat="47.48099" lon="6.60442">
        <ele>412.4</ele>
        <time>2017-06-11T10:17:39.999Z</time>
      </trkpt>
      <trkpt lat="47.48097" lon="6.60442">
        <ele>412.8</ele>
        <time>2017-06-11T10:17:40.999Z</time>
      </trkpt>
      <trkpt lat="47.48091" lon="6.60445">
        <ele>413.5</ele>
        <time>2017-06-11T10:17:42.999Z</time>
      </trkpt>
      <trkpt lat="47.48088" lon="6.60447">
        <ele>414.1</ele>
        <time>2017-06-11T10:17:44.999Z</time>
      </trkpt>
      <trkpt lat="47.48086" lon="6.60447">
        <ele>414.4</ele>
        <time>2017-06-11T10:17:45.999Z</time>
      </trkpt>
      <trkpt lat="47.48083" lon="6.60447">
        <ele>414.9</ele>
        <time>2017-06-11T10:17:47.999Z</time>
      </trkpt>
      <trkpt lat="47.48081" lon="6.60448">
        <ele>415</ele>
        <time>2017-06-11T10:17:48.999Z</time>
      </trkpt>
      <trkpt lat="47.48077" lon="6.6045">
        <ele>415.5</ele>
        <time>2017-06-11T10:17:51.999Z</time>
      </trkpt>
      <trkpt lat="47.48073" lon="6.60451">
        <ele>415.7</ele>
        <time>2017-06-11T10:17:52.999Z</time>
      </trkpt>
      <trkpt lat="47.48069" lon="6.60451">
        <ele>416.1</ele>
        <time>2017-06-11T10:17:55.999Z</time>
      </trkpt>
      <trkpt lat="47.48068" lon="6.60451">
        <ele>416.2</ele>
        <time>2017-06-11T10:17:56.999Z</time>
      </trkpt>
      <trkpt lat="47.48064" lon="6.60452">
        <ele>416.2</ele>
        <time>2017-06-11T10:17:58.999Z</time>
      </trkpt>
      <trkpt lat="47.48062" lon="6.60452">
        <ele>416.2</ele>
        <time>2017-06-11T10:17:59.999Z</time>
      </trkpt>
      <trkpt lat="47.48061" lon="6.60452">
        <ele>416.1</ele>
        <time>2017-06-11T10:18:00.999Z</time>
      </trkpt>
      <trkpt lat="47.48056" lon="6.60453">
        <ele>415.9</ele>
        <time>2017-06-11T10:18:01.999Z</time>
      </trkpt>
      <trkpt lat="47.48053" lon="6.60455">
        <ele>415.8</ele>
        <time>2017-06-11T10:18:03.999Z</time>
      </trkpt>
      <trkpt lat="47.48052" lon="6.60456">
        <ele>415.7</ele>
        <time>2017-06-11T10:18:04.999Z</time>
      </trkpt>
      <trkpt lat="47.48049" lon="6.60455">
        <ele>415.6</ele>
        <time>2017-06-11T10:18:06.999Z</time>
      </trkpt>
      <trkpt lat="47.48047" lon="6.60455">
        <ele>415.6</ele>
        <time>2017-06-11T10:18:07.999Z</time>
      </trkpt>
      <trkpt lat="47.48043" lon="6.60455">
        <ele>415.5</ele>
        <time>2017-06-11T10:18:08.999Z</time>
      </trkpt>
      <trkpt lat="47.48042" lon="6.60455">
        <ele>415.4</ele>
        <time>2017-06-11T10:18:09.999Z</time>
      </trkpt>
      <trkpt lat="47.48038" lon="6.60454">
        <ele>415.3</ele>
        <time>2017-06-11T10:18:10.999Z</time>
      </trkpt>
      <trkpt lat="47.48037" lon="6.60454">
        <ele>415.3</ele>
        <time>2017-06-11T10:18:11.999Z</time>
      </trkpt>
      <trkpt lat="47.48032" lon="6.60454">
        <ele>415.1</ele>
        <time>2017-06-11T10:18:13.999Z</time>
      </trkpt>
      <trkpt lat="47.48032" lon="6.60454">
        <ele>414.9</ele>
        <time>2017-06-11T10:18:14.999Z</time>
      </trkpt>
      <trkpt lat="47.48027" lon="6.60454">
        <ele>414.4</ele>
        <time>2017-06-11T10:18:16.999Z</time>
      </trkpt>
      <trkpt lat="47.48026" lon="6.60455">
        <ele>414.1</ele>
        <time>2017-06-11T10:18:17.999Z</time>
      </trkpt>
      <trkpt lat="47.48022" lon="6.60458">
        <ele>413.5</ele>
        <time>2017-06-11T10:18:19.999Z</time>
      </trkpt>
      <trkpt lat="47.48021" lon="6.60458">
        <ele>413.2</ele>
        <time>2017-06-11T10:18:20.999Z</time>
      </trkpt>
      <trkpt lat="47.48016" lon="6.6046">
        <ele>412.7</ele>
        <time>2017-06-11T10:18:23.999Z</time>
      </trkpt>
      <trkpt lat="47.48015" lon="6.6046">
        <ele>412.7</ele>
        <time>2017-06-11T10:18:24.999Z</time>
      </trkpt>
      <trkpt lat="47.48012" lon="6.60461">
        <ele>412.9</ele>
        <time>2017-06-11T10:18:28.999Z</time>
      </trkpt>
      <trkpt lat="47.48009" lon="6.60464">
        <ele>413</ele>
        <time>2017-06-11T10:18:29.999Z</time>
      </trkpt>
      <trkpt lat="47.48006" lon="6.60464">
        <ele>413.6</ele>
        <time>2017-06-11T10:18:32.999Z</time>
      </trkpt>
      <trkpt lat="47.48005" lon="6.60464">
        <ele>413.8</ele>
        <time>2017-06-11T10:18:33.999Z</time>
      </trkpt>
      <trkpt lat="47.48001" lon="6.60466">
        <ele>414.5</ele>
        <time>2017-06-11T10:18:36.999Z</time>
      </trkpt>
      <trkpt lat="47.48" lon="6.60466">
        <ele>414.8</ele>
        <time>2017-06-11T10:18:37.999Z</time>
      </trkpt>
      <trkpt lat="47.47996" lon="6.60466">
        <ele>415.2</ele>
        <time>2017-06-11T10:18:39.999Z</time>
      </trkpt>
      <trkpt lat="47.47995" lon="6.60466">
        <ele>415.3</ele>
        <time>2017-06-11T10:18:40.999Z</time>
      </trkpt>
      <trkpt lat="47.47991" lon="6.60468">
        <ele>415.5</ele>
        <time>2017-06-11T10:18:41.999Z</time>
      </trkpt>
      <trkpt lat="47.47989" lon="6.60468">
        <ele>415.7</ele>
        <time>2017-06-11T10:18:42.999Z</time>
      </trkpt>
      <trkpt lat="47.47987" lon="6.60467">
        <ele>415.9</ele>
        <time>2017-06-11T10:18:43.999Z</time>
      </trkpt>
      <trkpt lat="47.47985" lon="6.60467">
        <ele>416.3</ele>
        <time>2017-06-11T10:18:44.999Z</time>
      </trkpt>
      <trkpt lat="47.4798" lon="6.60468">
        <ele>417</ele>
        <time>2017-06-11T10:18:47.999Z</time>
      </trkpt>
      <trkpt lat="47.47979" lon="6.60469">
        <ele>417.2</ele>
        <time>2017-06-11T10:18:48.999Z</time>
      </trkpt>
      <trkpt lat="47.47976" lon="6.60468">
        <ele>417.4</ele>
        <time>2017-06-11T10:18:50.999Z</time>
      </trkpt>
      <trkpt lat="47.47974" lon="6.60467">
        <ele>417.5</ele>
        <time>2017-06-11T10:18:51.999Z</time>
      </trkpt>
      <trkpt lat="47.4797" lon="6.60466">
        <ele>417.6</ele>
        <time>2017-06-11T10:18:53.999Z</time>
      </trkpt>
      <trkpt lat="47.47969" lon="6.60465">
        <ele>417.7</ele>
        <time>2017-06-11T10:18:54.999Z</time>
      </trkpt>
      <trkpt lat="47.47966" lon="6.60462">
        <ele>417.9</ele>
        <time>2017-06-11T10:18:55.999Z</time>
      </trkpt>
      <trkpt lat="47.47965" lon="6.60462">
        <ele>418.1</ele>
        <time>2017-06-11T10:18:56.999Z</time>
      </trkpt>
      <trkpt lat="47.47961" lon="6.60461">
        <ele>418.6</ele>
        <time>2017-06-11T10:18:58.999Z</time>
      </trkpt>
      <trkpt lat="47.4796" lon="6.6046">
        <ele>418.9</ele>
        <time>2017-06-11T10:18:59.999Z</time>
      </trkpt>
      <trkpt lat="47.47956" lon="6.60457">
        <ele>419.3</ele>
        <time>2017-06-11T10:19:01.999Z</time>
      </trkpt>
      <trkpt lat="47.47954" lon="6.60456">
        <ele>419.5</ele>
        <time>2017-06-11T10:19:02.999Z</time>
      </trkpt>
      <trkpt lat="47.4795" lon="6.60455">
        <ele>419.6</ele>
        <time>2017-06-11T10:19:04.999Z</time>
      </trkpt>
      <trkpt lat="47.47946" lon="6.60452">
        <ele>419.7</ele>
        <time>2017-06-11T10:19:05.999Z</time>
      </trkpt>
      <trkpt lat="47.47943" lon="6.60449">
        <ele>419.9</ele>
        <time>2017-06-11T10:19:07.999Z</time>
      </trkpt>
      <trkpt lat="47.4794" lon="6.60447">
        <ele>420</ele>
        <time>2017-06-11T10:19:08.999Z</time>
      </trkpt>
      <trkpt lat="47.47937" lon="6.60445">
        <ele>420.1</ele>
        <time>2017-06-11T10:19:10.999Z</time>
      </trkpt>
      <trkpt lat="47.47934" lon="6.60444">
        <ele>420.4</ele>
        <time>2017-06-11T10:19:11.999Z</time>
      </trkpt>
      <trkpt lat="47.47933" lon="6.60441">
        <ele>420.6</ele>
        <time>2017-06-11T10:19:12.999Z</time>
      </trkpt>
      <trkpt lat="47.4793" lon="6.60436">
        <ele>420.7</ele>
        <time>2017-06-11T10:19:13.999Z</time>
      </trkpt>
      <trkpt lat="47.47927" lon="6.60432">
        <ele>420.7</ele>
        <time>2017-06-11T10:19:17.999Z</time>
      </trkpt>
      <trkpt lat="47.47925" lon="6.60428">
        <ele>420.6</ele>
        <time>2017-06-11T10:19:18.999Z</time>
      </trkpt>
      <trkpt lat="47.47922" lon="6.60423">
        <ele>420.5</ele>
        <time>2017-06-11T10:19:19.999Z</time>
      </trkpt>
      <trkpt lat="47.47921" lon="6.60421">
        <ele>420.4</ele>
        <time>2017-06-11T10:19:20.999Z</time>
      </trkpt>
      <trkpt lat="47.47919" lon="6.60418">
        <ele>420.4</ele>
        <time>2017-06-11T10:19:22.999Z</time>
      </trkpt>
      <trkpt lat="47.47918" lon="6.60416">
        <ele>420.4</ele>
        <time>2017-06-11T10:19:23.999Z</time>
      </trkpt>
      <trkpt lat="47.47917" lon="6.6041">
        <ele>420.6</ele>
        <time>2017-06-11T10:19:27.999Z</time>
      </trkpt>
      <trkpt lat="47.47917" lon="6.60409">
        <ele>420.6</ele>
        <time>2017-06-11T10:19:28.999Z</time>
      </trkpt>
      <trkpt lat="47.47917" lon="6.60403">
        <ele>420.9</ele>
        <time>2017-06-11T10:19:31.999Z</time>
      </trkpt>
      <trkpt lat="47.47917" lon="6.60402">
        <ele>421.1</ele>
        <time>2017-06-11T10:19:32.999Z</time>
      </trkpt>
      <trkpt lat="47.47916" lon="6.60397">
        <ele>421</ele>
        <time>2017-06-11T10:19:36.999Z</time>
      </trkpt>
      <trkpt lat="47.47915" lon="6.60394">
        <ele>421</ele>
        <time>2017-06-11T10:19:37.999Z</time>
      </trkpt>
      <trkpt lat="47.47914" lon="6.60388">
        <ele>420.7</ele>
        <time>2017-06-11T10:19:40.999Z</time>
      </trkpt>
      <trkpt lat="47.47913" lon="6.60384">
        <ele>420.5</ele>
        <time>2017-06-11T10:19:41.999Z</time>
      </trkpt>
      <trkpt lat="47.47913" lon="6.60378">
        <ele>420.5</ele>
        <time>2017-06-11T10:19:42.999Z</time>
      </trkpt>
      <trkpt lat="47.47911" lon="6.60372">
        <ele>420.6</ele>
        <time>2017-06-11T10:19:43.999Z</time>
      </trkpt>
      <trkpt lat="47.47911" lon="6.60369">
        <ele>420.8</ele>
        <time>2017-06-11T10:19:44.999Z</time>
      </trkpt>
      <trkpt lat="47.47909" lon="6.60364">
        <ele>421.2</ele>
        <time>2017-06-11T10:19:46.999Z</time>
      </trkpt>
      <trkpt lat="47.47909" lon="6.60362">
        <ele>421.3</ele>
        <time>2017-06-11T10:19:47.999Z</time>
      </trkpt>
      <trkpt lat="47.47907" lon="6.60358">
        <ele>421.5</ele>
        <time>2017-06-11T10:19:49.999Z</time>
      </trkpt>
      <trkpt lat="47.47905" lon="6.60356">
        <ele>421.6</ele>
        <time>2017-06-11T10:19:50.999Z</time>
      </trkpt>
      <trkpt lat="47.47904" lon="6.60352">
        <ele>421.8</ele>
        <time>2017-06-11T10:19:51.999Z</time>
      </trkpt>
      <trkpt lat="47.47903" lon="6.6035">
        <ele>422</ele>
        <time>2017-06-11T10:19:52.999Z</time>
      </trkpt>
      <trkpt lat="47.47902" lon="6.60348">
        <ele>422.2</ele>
        <time>2017-06-11T10:19:53.999Z</time>
      </trkpt>
      <trkpt lat="47.479" lon="6.60344">
        <ele>422.4</ele>
        <time>2017-06-11T10:19:54.999Z</time>
      </trkpt>
      <trkpt lat="47.47899" lon="6.6034">
        <ele>422.5</ele>
        <time>2017-06-11T10:19:57.999Z</time>
      </trkpt>
      <trkpt lat="47.47898" lon="6.60337">
        <ele>422.6</ele>
        <time>2017-06-11T10:19:58.999Z</time>
      </trkpt>
      <trkpt lat="47.47895" lon="6.60332">
        <ele>422.9</ele>
        <time>2017-06-11T10:20:01.999Z</time>
      </trkpt>
      <trkpt lat="47.47895" lon="6.6033">
        <ele>422.9</ele>
        <time>2017-06-11T10:20:02.999Z</time>
      </trkpt>
      <trkpt lat="47.47893" lon="6.60325">
        <ele>423.2</ele>
        <time>2017-06-11T10:20:04.999Z</time>
      </trkpt>
      <trkpt lat="47.47891" lon="6.60322">
        <ele>423.4</ele>
        <time>2017-06-11T10:20:05.999Z</time>
      </trkpt>
      <trkpt lat="47.47889" lon="6.60318">
        <ele>423.6</ele>
        <time>2017-06-11T10:20:06.999Z</time>
      </trkpt>
      <trkpt lat="47.47887" lon="6.60313">
        <ele>424.9</ele>
        <time>2017-06-11T10:20:07.999Z</time>
      </trkpt>
      <trkpt lat="47.47885" lon="6.60308">
        <ele>424.9</ele>
        <time>2017-06-11T10:20:08.999Z</time>
      </trkpt>
      <trkpt lat="47.47882" lon="6.60304">
        <ele>424.9</ele>
        <time>2017-06-11T10:20:09.999Z</time>
      </trkpt>
      <trkpt lat="47.47877" lon="6.60298">
        <ele>424.8</ele>
        <time>2017-06-11T10:20:10.999Z</time>
      </trkpt>
      <trkpt lat="47.47872" lon="6.60293">
        <ele>424.7</ele>
        <time>2017-06-11T10:20:11.999Z</time>
      </trkpt>
      <trkpt lat="47.47865" lon="6.60287">
        <ele>424.6</ele>
        <time>2017-06-11T10:20:12.999Z</time>
      </trkpt>
      <trkpt lat="47.47862" lon="6.60283">
        <ele>422.6</ele>
        <time>2017-06-11T10:20:13.999Z</time>
      </trkpt>
      <trkpt lat="47.47858" lon="6.6028">
        <ele>421.7</ele>
        <time>2017-06-11T10:20:14.999Z</time>
      </trkpt>
      <trkpt lat="47.47855" lon="6.60277">
        <ele>421.5</ele>
        <time>2017-06-11T10:20:15.999Z</time>
      </trkpt>
      <trkpt lat="47.47851" lon="6.60272">
        <ele>421.5</ele>
        <time>2017-06-11T10:20:16.999Z</time>
      </trkpt>
      <trkpt lat="47.47845" lon="6.60268">
        <ele>421.3</ele>
        <time>2017-06-11T10:20:17.999Z</time>
      </trkpt>
      <trkpt lat="47.47839" lon="6.60265">
        <ele>421.3</ele>
        <time>2017-06-11T10:20:18.999Z</time>
      </trkpt>
      <trkpt lat="47.47833" lon="6.60262">
        <ele>421.2</ele>
        <time>2017-06-11T10:20:19.999Z</time>
      </trkpt>
      <trkpt lat="47.47831" lon="6.60259">
        <ele>421.1</ele>
        <time>2017-06-11T10:20:20.999Z</time>
      </trkpt>
      <trkpt lat="47.47827" lon="6.60256">
        <ele>421</ele>
        <time>2017-06-11T10:20:21.999Z</time>
      </trkpt>
      <trkpt lat="47.47825" lon="6.60254">
        <ele>421</ele>
        <time>2017-06-11T10:20:22.999Z</time>
      </trkpt>
      <trkpt lat="47.47823" lon="6.60253">
        <ele>420.9</ele>
        <time>2017-06-11T10:20:23.999Z</time>
      </trkpt>
      <trkpt lat="47.4782" lon="6.60249">
        <ele>420.8</ele>
        <time>2017-06-11T10:20:25.999Z</time>
      </trkpt>
      <trkpt lat="47.47818" lon="6.60248">
        <ele>420.7</ele>
        <time>2017-06-11T10:20:26.999Z</time>
      </trkpt>
      <trkpt lat="47.47814" lon="6.60248">
        <ele>420.7</ele>
        <time>2017-06-11T10:20:28.999Z</time>
      </trkpt>
      <trkpt lat="47.47812" lon="6.60248">
        <ele>420.7</ele>
        <time>2017-06-11T10:20:29.999Z</time>
      </trkpt>
      <trkpt lat="47.4781" lon="6.60249">
        <ele>420.8</ele>
        <time>2017-06-11T10:20:30.999Z</time>
      </trkpt>
      <trkpt lat="47.47807" lon="6.60252">
        <ele>421</ele>
        <time>2017-06-11T10:20:31.999Z</time>
      </trkpt>
      <trkpt lat="47.47803" lon="6.60254">
        <ele>421.4</ele>
        <time>2017-06-11T10:20:34.999Z</time>
      </trkpt>
      <trkpt lat="47.47799" lon="6.60254">
        <ele>421.6</ele>
        <time>2017-06-11T10:20:35.999Z</time>
      </trkpt>
      <trkpt lat="47.47798" lon="6.60255">
        <ele>421.7</ele>
        <time>2017-06-11T10:20:36.999Z</time>
      </trkpt>
      <trkpt lat="47.47794" lon="6.60257">
        <ele>421.8</ele>
        <time>2017-06-11T10:20:37.999Z</time>
      </trkpt>
      <trkpt lat="47.47793" lon="6.60257">
        <ele>422</ele>
        <time>2017-06-11T10:20:38.999Z</time>
      </trkpt>
      <trkpt lat="47.47789" lon="6.60259">
        <ele>422.2</ele>
        <time>2017-06-11T10:20:39.999Z</time>
      </trkpt>
      <trkpt lat="47.47787" lon="6.60259">
        <ele>422.5</ele>
        <time>2017-06-11T10:20:41.999Z</time>
      </trkpt>
      <trkpt lat="47.47784" lon="6.60262">
        <ele>422.6</ele>
        <time>2017-06-11T10:20:42.999Z</time>
      </trkpt>
      <trkpt lat="47.4778" lon="6.60263">
        <ele>423.3</ele>
        <time>2017-06-11T10:20:46.999Z</time>
      </trkpt>
      <trkpt lat="47.47778" lon="6.60263">
        <ele>423.6</ele>
        <time>2017-06-11T10:20:47.999Z</time>
      </trkpt>
      <trkpt lat="47.47775" lon="6.60265">
        <ele>424.2</ele>
        <time>2017-06-11T10:20:49.999Z</time>
      </trkpt>
      <trkpt lat="47.47774" lon="6.60265">
        <ele>424.6</ele>
        <time>2017-06-11T10:20:50.999Z</time>
      </trkpt>
      <trkpt lat="47.47771" lon="6.60267">
        <ele>425.4</ele>
        <time>2017-06-11T10:20:52.999Z</time>
      </trkpt>
      <trkpt lat="47.47767" lon="6.60269">
        <ele>425.8</ele>
        <time>2017-06-11T10:20:53.999Z</time>
      </trkpt>
      <trkpt lat="47.47764" lon="6.60273">
        <ele>426.6</ele>
        <time>2017-06-11T10:20:55.999Z</time>
      </trkpt>
      <trkpt lat="47.47762" lon="6.60278">
        <ele>427</ele>
        <time>2017-06-11T10:20:56.999Z</time>
      </trkpt>
      <trkpt lat="47.47759" lon="6.60279">
        <ele>429</ele>
        <time>2017-06-11T10:21:01.999Z</time>
      </trkpt>
      <trkpt lat="47.47757" lon="6.6028">
        <ele>429.4</ele>
        <time>2017-06-11T10:21:02.999Z</time>
      </trkpt>
      <trkpt lat="47.47755" lon="6.6028">
        <ele>429.8</ele>
        <time>2017-06-11T10:21:03.999Z</time>
      </trkpt>
      <trkpt lat="47.4775" lon="6.60281">
        <ele>430.1</ele>
        <time>2017-06-11T10:21:04.999Z</time>
      </trkpt>
      <trkpt lat="47.47745" lon="6.60281">
        <ele>430.4</ele>
        <time>2017-06-11T10:21:05.999Z</time>
      </trkpt>
      <trkpt lat="47.47742" lon="6.60281">
        <ele>430.8</ele>
        <time>2017-06-11T10:21:06.999Z</time>
      </trkpt>
      <trkpt lat="47.4774" lon="6.60281">
        <ele>431</ele>
        <time>2017-06-11T10:21:07.999Z</time>
      </trkpt>
      <trkpt lat="47.47737" lon="6.60282">
        <ele>431.3</ele>
        <time>2017-06-11T10:21:09.999Z</time>
      </trkpt>
      <trkpt lat="47.47735" lon="6.60284">
        <ele>431.5</ele>
        <time>2017-06-11T10:21:10.999Z</time>
      </trkpt>
      <trkpt lat="47.47732" lon="6.60286">
        <ele>431.9</ele>
        <time>2017-06-11T10:21:12.999Z</time>
      </trkpt>
      <trkpt lat="47.4773" lon="6.60287">
        <ele>432</ele>
        <time>2017-06-11T10:21:13.999Z</time>
      </trkpt>
      <trkpt lat="47.47728" lon="6.60289">
        <ele>432</ele>
        <time>2017-06-11T10:21:15.999Z</time>
      </trkpt>
      <trkpt lat="47.47724" lon="6.6029">
        <ele>432.1</ele>
        <time>2017-06-11T10:21:16.999Z</time>
      </trkpt>
      <trkpt lat="47.4772" lon="6.60293">
        <ele>432</ele>
        <time>2017-06-11T10:21:17.999Z</time>
      </trkpt>
      <trkpt lat="47.47716" lon="6.60297">
        <ele>432</ele>
        <time>2017-06-11T10:21:18.999Z</time>
      </trkpt>
      <trkpt lat="47.47715" lon="6.60299">
        <ele>432</ele>
        <time>2017-06-11T10:21:19.999Z</time>
      </trkpt>
      <trkpt lat="47.47712" lon="6.60303">
        <ele>432</ele>
        <time>2017-06-11T10:21:20.999Z</time>
      </trkpt>
      <trkpt lat="47.4771" lon="6.60306">
        <ele>432.1</ele>
        <time>2017-06-11T10:21:22.999Z</time>
      </trkpt>
      <trkpt lat="47.47707" lon="6.60307">
        <ele>432.1</ele>
        <time>2017-06-11T10:21:23.999Z</time>
      </trkpt>
      <trkpt lat="47.47706" lon="6.60308">
        <ele>432.1</ele>
        <time>2017-06-11T10:21:24.999Z</time>
      </trkpt>
      <trkpt lat="47.47703" lon="6.60309">
        <ele>432.1</ele>
        <time>2017-06-11T10:21:25.999Z</time>
      </trkpt>
      <trkpt lat="47.477" lon="6.60309">
        <ele>432.3</ele>
        <time>2017-06-11T10:21:26.999Z</time>
      </trkpt>
      <trkpt lat="47.47699" lon="6.60313">
        <ele>432.4</ele>
        <time>2017-06-11T10:21:27.999Z</time>
      </trkpt>
      <trkpt lat="47.47697" lon="6.60313">
        <ele>432.5</ele>
        <time>2017-06-11T10:21:28.999Z</time>
      </trkpt>
      <trkpt lat="47.47693" lon="6.6031">
        <ele>432.6</ele>
        <time>2017-06-11T10:21:29.999Z</time>
      </trkpt>
      <trkpt lat="47.47689" lon="6.60312">
        <ele>432.7</ele>
        <time>2017-06-11T10:21:31.999Z</time>
      </trkpt>
      <trkpt lat="47.47688" lon="6.60312">
        <ele>432.7</ele>
        <time>2017-06-11T10:21:32.999Z</time>
      </trkpt>
      <trkpt lat="47.47686" lon="6.60314">
        <ele>432.9</ele>
        <time>2017-06-11T10:21:34.999Z</time>
      </trkpt>
      <trkpt lat="47.47682" lon="6.60318">
        <ele>433</ele>
        <time>2017-06-11T10:21:35.999Z</time>
      </trkpt>
      <trkpt lat="47.47678" lon="6.60322">
        <ele>433.1</ele>
        <time>2017-06-11T10:21:36.999Z</time>
      </trkpt>
      <trkpt lat="47.47673" lon="6.60325">
        <ele>433.2</ele>
        <time>2017-06-11T10:21:37.999Z</time>
      </trkpt>
      <trkpt lat="47.4767" lon="6.60329">
        <ele>433.4</ele>
        <time>2017-06-11T10:21:38.999Z</time>
      </trkpt>
      <trkpt lat="47.47669" lon="6.60331">
        <ele>433.5</ele>
        <time>2017-06-11T10:21:39.999Z</time>
      </trkpt>
      <trkpt lat="47.47667" lon="6.60333">
        <ele>433.6</ele>
        <time>2017-06-11T10:21:41.999Z</time>
      </trkpt>
      <trkpt lat="47.47665" lon="6.60334">
        <ele>433.6</ele>
        <time>2017-06-11T10:21:42.999Z</time>
      </trkpt>
      <trkpt lat="47.47664" lon="6.60335">
        <ele>433.6</ele>
        <time>2017-06-11T10:21:43.999Z</time>
      </trkpt>
      <trkpt lat="47.47661" lon="6.60339">
        <ele>433.7</ele>
        <time>2017-06-11T10:21:44.999Z</time>
      </trkpt>
      <trkpt lat="47.47657" lon="6.60341">
        <ele>434</ele>
        <time>2017-06-11T10:21:46.999Z</time>
      </trkpt>
      <trkpt lat="47.47655" lon="6.60341">
        <ele>434.1</ele>
        <time>2017-06-11T10:21:47.999Z</time>
      </trkpt>
      <trkpt lat="47.47651" lon="6.60343">
        <ele>434.4</ele>
        <time>2017-06-11T10:21:50.999Z</time>
      </trkpt>
      <trkpt lat="47.47647" lon="6.60344">
        <ele>434.5</ele>
        <time>2017-06-11T10:21:51.999Z</time>
      </trkpt>
      <trkpt lat="47.47646" lon="6.60345">
        <ele>434.6</ele>
        <time>2017-06-11T10:21:52.999Z</time>
      </trkpt>
      <trkpt lat="47.47643" lon="6.60347">
        <ele>434.7</ele>
        <time>2017-06-11T10:21:53.999Z</time>
      </trkpt>
      <trkpt lat="47.47639" lon="6.60349">
        <ele>434.4</ele>
        <time>2017-06-11T10:21:57.999Z</time>
      </trkpt>
      <trkpt lat="47.47638" lon="6.6035">
        <ele>434.4</ele>
        <time>2017-06-11T10:21:58.999Z</time>
      </trkpt>
      <trkpt lat="47.47635" lon="6.60354">
        <ele>434.2</ele>
        <time>2017-06-11T10:21:59.999Z</time>
      </trkpt>
      <trkpt lat="47.47634" lon="6.60355">
        <ele>434.1</ele>
        <time>2017-06-11T10:22:00.999Z</time>
      </trkpt>
      <trkpt lat="47.47631" lon="6.60358">
        <ele>433.8</ele>
        <time>2017-06-11T10:22:02.999Z</time>
      </trkpt>
      <trkpt lat="47.4763" lon="6.60359">
        <ele>433.7</ele>
        <time>2017-06-11T10:22:03.999Z</time>
      </trkpt>
      <trkpt lat="47.47626" lon="6.6036">
        <ele>433.4</ele>
        <time>2017-06-11T10:22:06.999Z</time>
      </trkpt>
      <trkpt lat="47.47623" lon="6.6036">
        <ele>433.2</ele>
        <time>2017-06-11T10:22:07.999Z</time>
      </trkpt>
      <trkpt lat="47.4762" lon="6.60362">
        <ele>432.9</ele>
        <time>2017-06-11T10:22:08.999Z</time>
      </trkpt>
      <trkpt lat="47.47619" lon="6.60363">
        <ele>432.6</ele>
        <time>2017-06-11T10:22:09.999Z</time>
      </trkpt>
      <trkpt lat="47.47615" lon="6.60367">
        <ele>432.4</ele>
        <time>2017-06-11T10:22:10.999Z</time>
      </trkpt>
      <trkpt lat="47.47614" lon="6.60368">
        <ele>432.3</ele>
        <time>2017-06-11T10:22:11.999Z</time>
      </trkpt>
      <trkpt lat="47.47611" lon="6.6037">
        <ele>431.6</ele>
        <time>2017-06-11T10:22:14.999Z</time>
      </trkpt>
      <trkpt lat="47.47609" lon="6.60372">
        <ele>431.4</ele>
        <time>2017-06-11T10:22:15.999Z</time>
      </trkpt>
      <trkpt lat="47.47606" lon="6.60374">
        <ele>431</ele>
        <time>2017-06-11T10:22:18.999Z</time>
      </trkpt>
      <trkpt lat="47.47605" lon="6.60376">
        <ele>430.9</ele>
        <time>2017-06-11T10:22:19.999Z</time>
      </trkpt>
      <trkpt lat="47.47602" lon="6.60379">
        <ele>430.8</ele>
        <time>2017-06-11T10:22:20.999Z</time>
      </trkpt>
      <trkpt lat="47.47598" lon="6.60381">
        <ele>430.7</ele>
        <time>2017-06-11T10:22:21.999Z</time>
      </trkpt>
      <trkpt lat="47.47595" lon="6.60385">
        <ele>430.7</ele>
        <time>2017-06-11T10:22:22.999Z</time>
      </trkpt>
      <trkpt lat="47.47592" lon="6.60389">
        <ele>430.7</ele>
        <time>2017-06-11T10:22:23.999Z</time>
      </trkpt>
      <trkpt lat="47.47591" lon="6.60391">
        <ele>430.7</ele>
        <time>2017-06-11T10:22:24.999Z</time>
      </trkpt>
      <trkpt lat="47.47588" lon="6.60395">
        <ele>430.7</ele>
        <time>2017-06-11T10:22:25.999Z</time>
      </trkpt>
      <trkpt lat="47.47586" lon="6.60399">
        <ele>430.6</ele>
        <time>2017-06-11T10:22:28.999Z</time>
      </trkpt>
      <trkpt lat="47.47584" lon="6.60401">
        <ele>430.6</ele>
        <time>2017-06-11T10:22:29.999Z</time>
      </trkpt>
      <trkpt lat="47.47581" lon="6.60401">
        <ele>431.1</ele>
        <time>2017-06-11T10:22:33.999Z</time>
      </trkpt>
      <trkpt lat="47.47579" lon="6.60403">
        <ele>431.1</ele>
        <time>2017-06-11T10:22:34.999Z</time>
      </trkpt>
      <trkpt lat="47.47577" lon="6.60409">
        <ele>431.2</ele>
        <time>2017-06-11T10:22:38.999Z</time>
      </trkpt>
      <trkpt lat="47.47573" lon="6.60412">
        <ele>431.2</ele>
        <time>2017-06-11T10:22:39.999Z</time>
      </trkpt>
      <trkpt lat="47.47569" lon="6.60417">
        <ele>431.4</ele>
        <time>2017-06-11T10:22:40.999Z</time>
      </trkpt>
      <trkpt lat="47.47566" lon="6.60422">
        <ele>431.5</ele>
        <time>2017-06-11T10:22:41.999Z</time>
      </trkpt>
      <trkpt lat="47.47563" lon="6.60427">
        <ele>431.5</ele>
        <time>2017-06-11T10:22:42.999Z</time>
      </trkpt>
      <trkpt lat="47.47562" lon="6.60434">
        <ele>431.6</ele>
        <time>2017-06-11T10:22:43.999Z</time>
      </trkpt>
      <trkpt lat="47.47561" lon="6.60435">
        <ele>431.7</ele>
        <time>2017-06-11T10:22:44.999Z</time>
      </trkpt>
      <trkpt lat="47.47557" lon="6.60437">
        <ele>432.2</ele>
        <time>2017-06-11T10:22:47.999Z</time>
      </trkpt>
      <trkpt lat="47.47556" lon="6.60438">
        <ele>432.2</ele>
        <time>2017-06-11T10:22:48.999Z</time>
      </trkpt>
      <trkpt lat="47.47554" lon="6.60441">
        <ele>432.3</ele>
        <time>2017-06-11T10:22:50.999Z</time>
      </trkpt>
      <trkpt lat="47.47552" lon="6.60443">
        <ele>432.5</ele>
        <time>2017-06-11T10:22:51.999Z</time>
      </trkpt>
      <trkpt lat="47.47548" lon="6.60448">
        <ele>432.8</ele>
        <time>2017-06-11T10:22:54.999Z</time>
      </trkpt>
      <trkpt lat="47.47545" lon="6.60452">
        <ele>433</ele>
        <time>2017-06-11T10:22:55.999Z</time>
      </trkpt>
      <trkpt lat="47.47542" lon="6.60455">
        <ele>433.7</ele>
        <time>2017-06-11T10:22:58.999Z</time>
      </trkpt>
      <trkpt lat="47.47541" lon="6.60458">
        <ele>433.9</ele>
        <time>2017-06-11T10:22:59.999Z</time>
      </trkpt>
      <trkpt lat="47.47538" lon="6.60467">
        <ele>434.1</ele>
        <time>2017-06-11T10:23:00.999Z</time>
      </trkpt>
      <trkpt lat="47.47536" lon="6.60471">
        <ele>434.4</ele>
        <time>2017-06-11T10:23:01.999Z</time>
      </trkpt>
      <trkpt lat="47.47534" lon="6.60474">
        <ele>434.6</ele>
        <time>2017-06-11T10:23:02.999Z</time>
      </trkpt>
      <trkpt lat="47.47531" lon="6.60478">
        <ele>435.3</ele>
        <time>2017-06-11T10:23:05.999Z</time>
      </trkpt>
      <trkpt lat="47.47529" lon="6.60478">
        <ele>435.6</ele>
        <time>2017-06-11T10:23:06.999Z</time>
      </trkpt>
      <trkpt lat="47.47525" lon="6.60481">
        <ele>435.9</ele>
        <time>2017-06-11T10:23:07.999Z</time>
      </trkpt>
      <trkpt lat="47.47523" lon="6.60483">
        <ele>436.2</ele>
        <time>2017-06-11T10:23:08.999Z</time>
      </trkpt>
      <trkpt lat="47.47521" lon="6.60485">
        <ele>436.9</ele>
        <time>2017-06-11T10:23:11.999Z</time>
      </trkpt>
      <trkpt lat="47.47519" lon="6.60488">
        <ele>437.1</ele>
        <time>2017-06-11T10:23:12.999Z</time>
      </trkpt>
      <trkpt lat="47.47517" lon="6.60491">
        <ele>437.7</ele>
        <time>2017-06-11T10:23:15.999Z</time>
      </trkpt>
      <trkpt lat="47.47515" lon="6.60492">
        <ele>438</ele>
        <time>2017-06-11T10:23:16.999Z</time>
      </trkpt>
      <trkpt lat="47.47514" lon="6.60494">
        <ele>438.3</ele>
        <time>2017-06-11T10:23:17.999Z</time>
      </trkpt>
      <trkpt lat="47.47511" lon="6.605">
        <ele>438.5</ele>
        <time>2017-06-11T10:23:18.999Z</time>
      </trkpt>
      <trkpt lat="47.47508" lon="6.60504">
        <ele>439.1</ele>
        <time>2017-06-11T10:23:20.999Z</time>
      </trkpt>
      <trkpt lat="47.47504" lon="6.60507">
        <ele>439.5</ele>
        <time>2017-06-11T10:23:21.999Z</time>
      </trkpt>
      <trkpt lat="47.47501" lon="6.6051">
        <ele>440.2</ele>
        <time>2017-06-11T10:23:23.999Z</time>
      </trkpt>
      <trkpt lat="47.475" lon="6.60512">
        <ele>440.7</ele>
        <time>2017-06-11T10:23:24.999Z</time>
      </trkpt>
      <trkpt lat="47.47496" lon="6.60514">
        <ele>442.2</ele>
        <time>2017-06-11T10:23:27.999Z</time>
      </trkpt>
      <trkpt lat="47.47494" lon="6.60514">
        <ele>442.8</ele>
        <time>2017-06-11T10:23:28.999Z</time>
      </trkpt>
      <trkpt lat="47.47492" lon="6.60517">
        <ele>444.1</ele>
        <time>2017-06-11T10:23:30.999Z</time>
      </trkpt>
      <trkpt lat="47.47491" lon="6.6052">
        <ele>444.7</ele>
        <time>2017-06-11T10:23:31.999Z</time>
      </trkpt>
      <trkpt lat="47.47487" lon="6.60522">
        <ele>446.1</ele>
        <time>2017-06-11T10:23:34.999Z</time>
      </trkpt>
      <trkpt lat="47.47486" lon="6.60523">
        <ele>446.5</ele>
        <time>2017-06-11T10:23:35.999Z</time>
      </trkpt>
      <trkpt lat="47.47482" lon="6.60525">
        <ele>448.3</ele>
        <time>2017-06-11T10:23:39.999Z</time>
      </trkpt>
      <trkpt lat="47.47479" lon="6.60526">
        <ele>448.7</ele>
        <time>2017-06-11T10:23:40.999Z</time>
      </trkpt>
      <trkpt lat="47.47476" lon="6.60529">
        <ele>449.7</ele>
        <time>2017-06-11T10:23:43.999Z</time>
      </trkpt>
      <trkpt lat="47.47475" lon="6.60529">
        <ele>450</ele>
        <time>2017-06-11T10:23:44.999Z</time>
      </trkpt>
      <trkpt lat="47.47471" lon="6.60531">
        <ele>451.1</ele>
        <time>2017-06-11T10:23:48.999Z</time>
      </trkpt>
      <trkpt lat="47.47469" lon="6.60533">
        <ele>451.4</ele>
        <time>2017-06-11T10:23:49.999Z</time>
      </trkpt>
      <trkpt lat="47.47466" lon="6.60535">
        <ele>451.9</ele>
        <time>2017-06-11T10:23:51.999Z</time>
      </trkpt>
      <trkpt lat="47.47465" lon="6.60536">
        <ele>452</ele>
        <time>2017-06-11T10:23:52.999Z</time>
      </trkpt>
      <trkpt lat="47.47462" lon="6.60539">
        <ele>452.4</ele>
        <time>2017-06-11T10:23:55.999Z</time>
      </trkpt>
      <trkpt lat="47.47461" lon="6.60539">
        <ele>452.4</ele>
        <time>2017-06-11T10:23:56.999Z</time>
      </trkpt>
      <trkpt lat="47.47459" lon="6.6054">
        <ele>452.6</ele>
        <time>2017-06-11T10:23:57.999Z</time>
      </trkpt>
      <trkpt lat="47.47456" lon="6.60541">
        <ele>452.9</ele>
        <time>2017-06-11T10:23:58.999Z</time>
      </trkpt>
      <trkpt lat="47.47455" lon="6.60547">
        <ele>453.2</ele>
        <time>2017-06-11T10:23:59.999Z</time>
      </trkpt>
      <trkpt lat="47.47455" lon="6.60553">
        <ele>453.4</ele>
        <time>2017-06-11T10:24:00.999Z</time>
      </trkpt>
      <trkpt lat="47.47453" lon="6.60558">
        <ele>454</ele>
        <time>2017-06-11T10:24:02.999Z</time>
      </trkpt>
      <trkpt lat="47.47452" lon="6.60558">
        <ele>454.2</ele>
        <time>2017-06-11T10:24:03.999Z</time>
      </trkpt>
      <trkpt lat="47.47448" lon="6.60562">
        <ele>455.8</ele>
        <time>2017-06-11T10:24:08.999Z</time>
      </trkpt>
      <trkpt lat="47.47446" lon="6.60566">
        <ele>456.2</ele>
        <time>2017-06-11T10:24:09.999Z</time>
      </trkpt>
      <trkpt lat="47.47443" lon="6.6057">
        <ele>456.9</ele>
        <time>2017-06-11T10:24:11.999Z</time>
      </trkpt>
      <trkpt lat="47.47442" lon="6.6057">
        <ele>457.2</ele>
        <time>2017-06-11T10:24:12.999Z</time>
      </trkpt>
      <trkpt lat="47.47438" lon="6.60573">
        <ele>457.8</ele>
        <time>2017-06-11T10:24:15.999Z</time>
      </trkpt>
      <trkpt lat="47.47435" lon="6.60576">
        <ele>458</ele>
        <time>2017-06-11T10:24:16.999Z</time>
      </trkpt>
      <trkpt lat="47.47432" lon="6.6058">
        <ele>458.2</ele>
        <time>2017-06-11T10:24:17.999Z</time>
      </trkpt>
      <trkpt lat="47.47431" lon="6.60581">
        <ele>458.4</ele>
        <time>2017-06-11T10:24:18.999Z</time>
      </trkpt>
      <trkpt lat="47.47428" lon="6.60586">
        <ele>459.1</ele>
        <time>2017-06-11T10:24:23.999Z</time>
      </trkpt>
      <trkpt lat="47.47427" lon="6.60588">
        <ele>459.3</ele>
        <time>2017-06-11T10:24:24.999Z</time>
      </trkpt>
      <trkpt lat="47.47423" lon="6.6059">
        <ele>459.5</ele>
        <time>2017-06-11T10:24:26.999Z</time>
      </trkpt>
      <trkpt lat="47.47422" lon="6.60591">
        <ele>459.5</ele>
        <time>2017-06-11T10:24:27.999Z</time>
      </trkpt>
      <trkpt lat="47.47422" lon="6.60597">
        <ele>459.8</ele>
        <time>2017-06-11T10:24:30.999Z</time>
      </trkpt>
      <trkpt lat="47.47422" lon="6.60598">
        <ele>460</ele>
        <time>2017-06-11T10:24:31.999Z</time>
      </trkpt>
      <trkpt lat="47.47423" lon="6.60604">
        <ele>460.2</ele>
        <time>2017-06-11T10:24:33.999Z</time>
      </trkpt>
      <trkpt lat="47.47423" lon="6.6061">
        <ele>460.3</ele>
        <time>2017-06-11T10:24:34.999Z</time>
      </trkpt>
      <trkpt lat="47.47421" lon="6.60615">
        <ele>460.4</ele>
        <time>2017-06-11T10:24:35.999Z</time>
      </trkpt>
      <trkpt lat="47.47421" lon="6.60616">
        <ele>460.6</ele>
        <time>2017-06-11T10:24:36.999Z</time>
      </trkpt>
      <trkpt lat="47.47422" lon="6.60622">
        <ele>461.1</ele>
        <time>2017-06-11T10:24:39.999Z</time>
      </trkpt>
      <trkpt lat="47.47426" lon="6.60626">
        <ele>461.1</ele>
        <time>2017-06-11T10:24:40.999Z</time>
      </trkpt>
      <trkpt lat="47.47432" lon="6.60635">
        <ele>461.3</ele>
        <time>2017-06-11T10:24:42.999Z</time>
      </trkpt>
      <trkpt lat="47.47432" lon="6.60639">
        <ele>461.5</ele>
        <time>2017-06-11T10:24:43.999Z</time>
      </trkpt>
      <trkpt lat="47.47432" lon="6.60645">
        <ele>461.6</ele>
        <time>2017-06-11T10:24:44.999Z</time>
      </trkpt>
      <trkpt lat="47.47434" lon="6.60648">
        <ele>462</ele>
        <time>2017-06-11T10:24:47.999Z</time>
      </trkpt>
      <trkpt lat="47.47435" lon="6.60651">
        <ele>462.1</ele>
        <time>2017-06-11T10:24:48.999Z</time>
      </trkpt>
      <trkpt lat="47.47437" lon="6.60657">
        <ele>462.4</ele>
        <time>2017-06-11T10:24:53.999Z</time>
      </trkpt>
      <trkpt lat="47.47438" lon="6.60657">
        <ele>462.6</ele>
        <time>2017-06-11T10:24:54.999Z</time>
      </trkpt>
      <trkpt lat="47.47439" lon="6.60659">
        <ele>462.8</ele>
        <time>2017-06-11T10:24:55.999Z</time>
      </trkpt>
      <trkpt lat="47.47442" lon="6.60667">
        <ele>462.9</ele>
        <time>2017-06-11T10:24:56.999Z</time>
      </trkpt>
      <trkpt lat="47.47444" lon="6.60678">
        <ele>464</ele>
        <time>2017-06-11T10:24:57.999Z</time>
      </trkpt>
      <trkpt lat="47.47447" lon="6.60693">
        <ele>462.9</ele>
        <time>2017-06-11T10:24:58.999Z</time>
      </trkpt>
      <trkpt lat="47.47442" lon="6.607">
        <ele>462.9</ele>
        <time>2017-06-11T10:24:59.999Z</time>
      </trkpt>
      <trkpt lat="47.47437" lon="6.60705">
        <ele>462.7</ele>
        <time>2017-06-11T10:25:00.999Z</time>
      </trkpt>
      <trkpt lat="47.47434" lon="6.60707">
        <ele>462.5</ele>
        <time>2017-06-11T10:25:01.999Z</time>
      </trkpt>
      <trkpt lat="47.4743" lon="6.60708">
        <ele>462.3</ele>
        <time>2017-06-11T10:25:02.999Z</time>
      </trkpt>
      <trkpt lat="47.47426" lon="6.60708">
        <ele>462</ele>
        <time>2017-06-11T10:25:04.999Z</time>
      </trkpt>
      <trkpt lat="47.47425" lon="6.60708">
        <ele>461.9</ele>
        <time>2017-06-11T10:25:05.999Z</time>
      </trkpt>
      <trkpt lat="47.47422" lon="6.6071">
        <ele>461.7</ele>
        <time>2017-06-11T10:25:09.999Z</time>
      </trkpt>
      <trkpt lat="47.47419" lon="6.60715">
        <ele>461.5</ele>
        <time>2017-06-11T10:25:10.999Z</time>
      </trkpt>
      <trkpt lat="47.47416" lon="6.6072">
        <ele>461.2</ele>
        <time>2017-06-11T10:25:11.999Z</time>
      </trkpt>
      <trkpt lat="47.47413" lon="6.60725">
        <ele>460.9</ele>
        <time>2017-06-11T10:25:12.999Z</time>
      </trkpt>
      <trkpt lat="47.47409" lon="6.60727">
        <ele>460.1</ele>
        <time>2017-06-11T10:25:14.999Z</time>
      </trkpt>
      <trkpt lat="47.47408" lon="6.60728">
        <ele>459.7</ele>
        <time>2017-06-11T10:25:15.999Z</time>
      </trkpt>
      <trkpt lat="47.47405" lon="6.60729">
        <ele>459</ele>
        <time>2017-06-11T10:25:17.999Z</time>
      </trkpt>
      <trkpt lat="47.47404" lon="6.6073">
        <ele>458.7</ele>
        <time>2017-06-11T10:25:18.999Z</time>
      </trkpt>
      <trkpt lat="47.474" lon="6.6073">
        <ele>458.3</ele>
        <time>2017-06-11T10:25:20.999Z</time>
      </trkpt>
      <trkpt lat="47.47396" lon="6.60728">
        <ele>458.1</ele>
        <time>2017-06-11T10:25:21.999Z</time>
      </trkpt>
      <trkpt lat="47.47392" lon="6.60728">
        <ele>457.6</ele>
        <time>2017-06-11T10:25:23.999Z</time>
      </trkpt>
      <trkpt lat="47.4739" lon="6.60729">
        <ele>457.4</ele>
        <time>2017-06-11T10:25:24.999Z</time>
      </trkpt>
      <trkpt lat="47.47388" lon="6.6073">
        <ele>457.1</ele>
        <time>2017-06-11T10:25:25.999Z</time>
      </trkpt>
      <trkpt lat="47.47385" lon="6.60732">
        <ele>456.8</ele>
        <time>2017-06-11T10:25:26.999Z</time>
      </trkpt>
      <trkpt lat="47.47382" lon="6.60735">
        <ele>456.7</ele>
        <time>2017-06-11T10:25:27.999Z</time>
      </trkpt>
      <trkpt lat="47.47381" lon="6.60737">
        <ele>456.5</ele>
        <time>2017-06-11T10:25:28.999Z</time>
      </trkpt>
      <trkpt lat="47.4738" lon="6.60738">
        <ele>456.4</ele>
        <time>2017-06-11T10:25:29.999Z</time>
      </trkpt>
      <trkpt lat="47.4738" lon="6.60743">
        <ele>456.2</ele>
        <time>2017-06-11T10:25:30.999Z</time>
      </trkpt>
      <trkpt lat="47.47379" lon="6.6075">
        <ele>456.1</ele>
        <time>2017-06-11T10:25:31.999Z</time>
      </trkpt>
      <trkpt lat="47.47379" lon="6.60757">
        <ele>456.1</ele>
        <time>2017-06-11T10:25:32.999Z</time>
      </trkpt>
      <trkpt lat="47.47376" lon="6.60758">
        <ele>456.1</ele>
        <time>2017-06-11T10:25:33.999Z</time>
      </trkpt>
      <trkpt lat="47.47374" lon="6.6076">
        <ele>456.2</ele>
        <time>2017-06-11T10:25:34.999Z</time>
      </trkpt>
      <trkpt lat="47.47372" lon="6.60759">
        <ele>456.2</ele>
        <time>2017-06-11T10:25:36.999Z</time>
      </trkpt>
      <trkpt lat="47.47369" lon="6.60765">
        <ele>456.2</ele>
        <time>2017-06-11T10:25:37.999Z</time>
      </trkpt>
      <trkpt lat="47.47366" lon="6.60768">
        <ele>456</ele>
        <time>2017-06-11T10:25:38.999Z</time>
      </trkpt>
      <trkpt lat="47.47362" lon="6.60768">
        <ele>455.9</ele>
        <time>2017-06-11T10:25:39.999Z</time>
      </trkpt>
      <trkpt lat="47.47357" lon="6.60769">
        <ele>455.7</ele>
        <time>2017-06-11T10:25:40.999Z</time>
      </trkpt>
      <trkpt lat="47.47353" lon="6.60771">
        <ele>455.6</ele>
        <time>2017-06-11T10:25:41.999Z</time>
      </trkpt>
      <trkpt lat="47.47349" lon="6.60773">
        <ele>455.5</ele>
        <time>2017-06-11T10:25:42.999Z</time>
      </trkpt>
      <trkpt lat="47.47347" lon="6.60774">
        <ele>455.4</ele>
        <time>2017-06-11T10:25:43.999Z</time>
      </trkpt>
      <trkpt lat="47.47344" lon="6.60776">
        <ele>455.2</ele>
        <time>2017-06-11T10:25:45.999Z</time>
      </trkpt>
      <trkpt lat="47.47341" lon="6.60781">
        <ele>455.1</ele>
        <time>2017-06-11T10:25:46.999Z</time>
      </trkpt>
      <trkpt lat="47.47339" lon="6.60783">
        <ele>454.9</ele>
        <time>2017-06-11T10:25:47.999Z</time>
      </trkpt>
      <trkpt lat="47.47337" lon="6.60784">
        <ele>454.9</ele>
        <time>2017-06-11T10:25:48.999Z</time>
      </trkpt>
      <trkpt lat="47.47334" lon="6.60787">
        <ele>454.8</ele>
        <time>2017-06-11T10:25:49.999Z</time>
      </trkpt>
      <trkpt lat="47.47332" lon="6.60789">
        <ele>454.7</ele>
        <time>2017-06-11T10:25:50.999Z</time>
      </trkpt>
      <trkpt lat="47.47329" lon="6.60792">
        <ele>454.6</ele>
        <time>2017-06-11T10:25:51.999Z</time>
      </trkpt>
      <trkpt lat="47.47328" lon="6.60794">
        <ele>454.5</ele>
        <time>2017-06-11T10:25:52.999Z</time>
      </trkpt>
      <trkpt lat="47.47326" lon="6.60796">
        <ele>454.4</ele>
        <time>2017-06-11T10:25:53.999Z</time>
      </trkpt>
      <trkpt lat="47.47324" lon="6.60799">
        <ele>454.3</ele>
        <time>2017-06-11T10:25:54.999Z</time>
      </trkpt>
      <trkpt lat="47.4732" lon="6.60803">
        <ele>454.1</ele>
        <time>2017-06-11T10:25:55.999Z</time>
      </trkpt>
      <trkpt lat="47.47318" lon="6.60805">
        <ele>454</ele>
        <time>2017-06-11T10:25:56.999Z</time>
      </trkpt>
      <trkpt lat="47.47316" lon="6.60805">
        <ele>453.9</ele>
        <time>2017-06-11T10:25:57.999Z</time>
      </trkpt>
      <trkpt lat="47.4731" lon="6.60808">
        <ele>453.9</ele>
        <time>2017-06-11T10:25:58.999Z</time>
      </trkpt>
      <trkpt lat="47.47307" lon="6.60811">
        <ele>454</ele>
        <time>2017-06-11T10:25:59.999Z</time>
      </trkpt>
      <trkpt lat="47.47305" lon="6.60812">
        <ele>454</ele>
        <time>2017-06-11T10:26:00.999Z</time>
      </trkpt>
      <trkpt lat="47.47302" lon="6.60813">
        <ele>453.9</ele>
        <time>2017-06-11T10:26:01.999Z</time>
      </trkpt>
      <trkpt lat="47.473" lon="6.60814">
        <ele>453.7</ele>
        <time>2017-06-11T10:26:02.999Z</time>
      </trkpt>
      <trkpt lat="47.47297" lon="6.60815">
        <ele>453.5</ele>
        <time>2017-06-11T10:26:03.999Z</time>
      </trkpt>
      <trkpt lat="47.47293" lon="6.60818">
        <ele>453.2</ele>
        <time>2017-06-11T10:26:04.999Z</time>
      </trkpt>
      <trkpt lat="47.4729" lon="6.60819">
        <ele>453</ele>
        <time>2017-06-11T10:26:05.999Z</time>
      </trkpt>
      <trkpt lat="47.47287" lon="6.6082">
        <ele>452.7</ele>
        <time>2017-06-11T10:26:06.999Z</time>
      </trkpt>
      <trkpt lat="47.47282" lon="6.60824">
        <ele>452.5</ele>
        <time>2017-06-11T10:26:07.999Z</time>
      </trkpt>
      <trkpt lat="47.47277" lon="6.60829">
        <ele>450</ele>
        <time>2017-06-11T10:26:08.999Z</time>
      </trkpt>
      <trkpt lat="47.47271" lon="6.60837">
        <ele>447.6</ele>
        <time>2017-06-11T10:26:09.999Z</time>
      </trkpt>
      <trkpt lat="47.47268" lon="6.60842">
        <ele>446.2</ele>
        <time>2017-06-11T10:26:10.999Z</time>
      </trkpt>
      <trkpt lat="47.47265" lon="6.60847">
        <ele>445.7</ele>
        <time>2017-06-11T10:26:11.999Z</time>
      </trkpt>
      <trkpt lat="47.47262" lon="6.60854">
        <ele>446</ele>
        <time>2017-06-11T10:26:12.999Z</time>
      </trkpt>
      <trkpt lat="47.4726" lon="6.60862">
        <ele>446.4</ele>
        <time>2017-06-11T10:26:13.999Z</time>
      </trkpt>
      <trkpt lat="47.47256" lon="6.60873">
        <ele>445.9</ele>
        <time>2017-06-11T10:26:14.999Z</time>
      </trkpt>
      <trkpt lat="47.4725" lon="6.60886">
        <ele>444.5</ele>
        <time>2017-06-11T10:26:15.999Z</time>
      </trkpt>
      <trkpt lat="47.47245" lon="6.60891">
        <ele>442.7</ele>
        <time>2017-06-11T10:26:16.999Z</time>
      </trkpt>
      <trkpt lat="47.4724" lon="6.60896">
        <ele>442.5</ele>
        <time>2017-06-11T10:26:17.999Z</time>
      </trkpt>
      <trkpt lat="47.47234" lon="6.60901">
        <ele>441.6</ele>
        <time>2017-06-11T10:26:18.999Z</time>
      </trkpt>
      <trkpt lat="47.4723" lon="6.60907">
        <ele>441</ele>
        <time>2017-06-11T10:26:19.999Z</time>
      </trkpt>
      <trkpt lat="47.47225" lon="6.6091">
        <ele>440.2</ele>
        <time>2017-06-11T10:26:20.999Z</time>
      </trkpt>
      <trkpt lat="47.47219" lon="6.60914">
        <ele>439.6</ele>
        <time>2017-06-11T10:26:21.999Z</time>
      </trkpt>
      <trkpt lat="47.47213" lon="6.60919">
        <ele>438.7</ele>
        <time>2017-06-11T10:26:22.999Z</time>
      </trkpt>
      <trkpt lat="47.47206" lon="6.60925">
        <ele>438.6</ele>
        <time>2017-06-11T10:26:23.999Z</time>
      </trkpt>
      <trkpt lat="47.472" lon="6.60927">
        <ele>438.2</ele>
        <time>2017-06-11T10:26:24.999Z</time>
      </trkpt>
      <trkpt lat="47.47192" lon="6.60929">
        <ele>437.4</ele>
        <time>2017-06-11T10:26:25.999Z</time>
      </trkpt>
      <trkpt lat="47.47185" lon="6.60927">
        <ele>437.2</ele>
        <time>2017-06-11T10:26:26.999Z</time>
      </trkpt>
      <trkpt lat="47.47181" lon="6.60926">
        <ele>437</ele>
        <time>2017-06-11T10:26:27.999Z</time>
      </trkpt>
      <trkpt lat="47.4718" lon="6.60926">
        <ele>436.7</ele>
        <time>2017-06-11T10:26:28.999Z</time>
      </trkpt>
      <trkpt lat="47.47183" lon="6.60924">
        <ele>438.6</ele>
        <time>2017-06-11T10:26:48.999Z</time>
      </trkpt>
      <trkpt lat="47.47184" lon="6.60923">
        <ele>438.9</ele>
        <time>2017-06-11T10:26:49.999Z</time>
      </trkpt>
      <trkpt lat="47.47187" lon="6.6092">
        <ele>439.7</ele>
        <time>2017-06-11T10:26:51.999Z</time>
      </trkpt>
      <trkpt lat="47.4719" lon="6.60914">
        <ele>440.1</ele>
        <time>2017-06-11T10:26:52.999Z</time>
      </trkpt>
      <trkpt lat="47.47191" lon="6.60911">
        <ele>440.6</ele>
        <time>2017-06-11T10:26:53.999Z</time>
      </trkpt>
      <trkpt lat="47.47194" lon="6.60907">
        <ele>441</ele>
        <time>2017-06-11T10:26:54.999Z</time>
      </trkpt>
      <trkpt lat="47.47196" lon="6.60903">
        <ele>441.4</ele>
        <time>2017-06-11T10:26:57.999Z</time>
      </trkpt>
      <trkpt lat="47.47197" lon="6.60902">
        <ele>441.9</ele>
        <time>2017-06-11T10:26:58.999Z</time>
      </trkpt>
      <trkpt lat="47.47198" lon="6.60902">
        <ele>442.3</ele>
        <time>2017-06-11T10:26:59.999Z</time>
      </trkpt>
      <trkpt lat="47.472" lon="6.60897">
        <ele>442.7</ele>
        <time>2017-06-11T10:27:00.999Z</time>
      </trkpt>
      <trkpt lat="47.47202" lon="6.60893">
        <ele>443</ele>
        <time>2017-06-11T10:27:01.999Z</time>
      </trkpt>
      <trkpt lat="47.47202" lon="6.60891">
        <ele>443.4</ele>
        <time>2017-06-11T10:27:02.999Z</time>
      </trkpt>
      <trkpt lat="47.47205" lon="6.60887">
        <ele>444.6</ele>
        <time>2017-06-11T10:27:05.999Z</time>
      </trkpt>
      <trkpt lat="47.47206" lon="6.60886">
        <ele>444.8</ele>
        <time>2017-06-11T10:27:06.999Z</time>
      </trkpt>
      <trkpt lat="47.47208" lon="6.60882">
        <ele>445.7</ele>
        <time>2017-06-11T10:27:09.999Z</time>
      </trkpt>
      <trkpt lat="47.4721" lon="6.60877">
        <ele>445.9</ele>
        <time>2017-06-11T10:27:10.999Z</time>
      </trkpt>
      <trkpt lat="47.4721" lon="6.60872">
        <ele>446.1</ele>
        <time>2017-06-11T10:27:11.999Z</time>
      </trkpt>
      <trkpt lat="47.4721" lon="6.60866">
        <ele>446.3</ele>
        <time>2017-06-11T10:27:12.999Z</time>
      </trkpt>
      <trkpt lat="47.47209" lon="6.6086">
        <ele>447.1</ele>
        <time>2017-06-11T10:27:18.999Z</time>
      </trkpt>
      <trkpt lat="47.47209" lon="6.60858">
        <ele>447.2</ele>
        <time>2017-06-11T10:27:19.999Z</time>
      </trkpt>
      <trkpt lat="47.47209" lon="6.60855">
        <ele>447.4</ele>
        <time>2017-06-11T10:27:20.999Z</time>
      </trkpt>
      <trkpt lat="47.47208" lon="6.60849">
        <ele>447.6</ele>
        <time>2017-06-11T10:27:21.999Z</time>
      </trkpt>
      <trkpt lat="47.47208" lon="6.60843">
        <ele>447.6</ele>
        <time>2017-06-11T10:27:22.999Z</time>
      </trkpt>
      <trkpt lat="47.47207" lon="6.60842">
        <ele>447.7</ele>
        <time>2017-06-11T10:27:23.999Z</time>
      </trkpt>
      <trkpt lat="47.47207" lon="6.60837">
        <ele>447.9</ele>
        <time>2017-06-11T10:27:25.999Z</time>
      </trkpt>
      <trkpt lat="47.47207" lon="6.60831">
        <ele>447.8</ele>
        <time>2017-06-11T10:27:26.999Z</time>
      </trkpt>
      <trkpt lat="47.47205" lon="6.60827">
        <ele>447.6</ele>
        <time>2017-06-11T10:27:29.999Z</time>
      </trkpt>
      <trkpt lat="47.47204" lon="6.60825">
        <ele>447.6</ele>
        <time>2017-06-11T10:27:30.999Z</time>
      </trkpt>
      <trkpt lat="47.47201" lon="6.60821">
        <ele>447.4</ele>
        <time>2017-06-11T10:27:32.999Z</time>
      </trkpt>
      <trkpt lat="47.47201" lon="6.6082">
        <ele>447.3</ele>
        <time>2017-06-11T10:27:33.999Z</time>
      </trkpt>
      <trkpt lat="47.47199" lon="6.60815">
        <ele>446.8</ele>
        <time>2017-06-11T10:27:36.999Z</time>
      </trkpt>
      <trkpt lat="47.47197" lon="6.6081">
        <ele>446.6</ele>
        <time>2017-06-11T10:27:37.999Z</time>
      </trkpt>
      <trkpt lat="47.47194" lon="6.60805">
        <ele>446.4</ele>
        <time>2017-06-11T10:27:38.999Z</time>
      </trkpt>
      <trkpt lat="47.47193" lon="6.60803">
        <ele>446.2</ele>
        <time>2017-06-11T10:27:39.999Z</time>
      </trkpt>
      <trkpt lat="47.47191" lon="6.608">
        <ele>445.7</ele>
        <time>2017-06-11T10:27:41.999Z</time>
      </trkpt>
      <trkpt lat="47.4719" lon="6.60798">
        <ele>445.4</ele>
        <time>2017-06-11T10:27:42.999Z</time>
      </trkpt>
      <trkpt lat="47.47188" lon="6.60793">
        <ele>445</ele>
        <time>2017-06-11T10:27:44.999Z</time>
      </trkpt>
      <trkpt lat="47.47187" lon="6.60787">
        <ele>444.6</ele>
        <time>2017-06-11T10:27:45.999Z</time>
      </trkpt>
      <trkpt lat="47.47186" lon="6.60782">
        <ele>443.8</ele>
        <time>2017-06-11T10:27:48.999Z</time>
      </trkpt>
      <trkpt lat="47.47185" lon="6.6078">
        <ele>443.5</ele>
        <time>2017-06-11T10:27:49.999Z</time>
      </trkpt>
      <trkpt lat="47.47183" lon="6.60776">
        <ele>443.3</ele>
        <time>2017-06-11T10:27:50.999Z</time>
      </trkpt>
      <trkpt lat="47.47182" lon="6.60773">
        <ele>443.2</ele>
        <time>2017-06-11T10:27:51.999Z</time>
      </trkpt>
      <trkpt lat="47.47181" lon="6.60769">
        <ele>443.1</ele>
        <time>2017-06-11T10:27:53.999Z</time>
      </trkpt>
      <trkpt lat="47.4718" lon="6.60767">
        <ele>443</ele>
        <time>2017-06-11T10:27:54.999Z</time>
      </trkpt>
      <trkpt lat="47.47179" lon="6.60762">
        <ele>442.7</ele>
        <time>2017-06-11T10:27:56.999Z</time>
      </trkpt>
      <trkpt lat="47.47179" lon="6.6076">
        <ele>442.5</ele>
        <time>2017-06-11T10:27:57.999Z</time>
      </trkpt>
      <trkpt lat="47.47177" lon="6.60755">
        <ele>442.4</ele>
        <time>2017-06-11T10:27:58.999Z</time>
      </trkpt>
      <trkpt lat="47.47177" lon="6.60753">
        <ele>442.2</ele>
        <time>2017-06-11T10:27:59.999Z</time>
      </trkpt>
      <trkpt lat="47.47175" lon="6.60748">
        <ele>441.9</ele>
        <time>2017-06-11T10:28:01.999Z</time>
      </trkpt>
      <trkpt lat="47.47174" lon="6.60745">
        <ele>441.8</ele>
        <time>2017-06-11T10:28:02.999Z</time>
      </trkpt>
      <trkpt lat="47.47172" lon="6.6074">
        <ele>441.6</ele>
        <time>2017-06-11T10:28:04.999Z</time>
      </trkpt>
      <trkpt lat="47.47171" lon="6.60738">
        <ele>441.6</ele>
        <time>2017-06-11T10:28:05.999Z</time>
      </trkpt>
      <trkpt lat="47.4717" lon="6.60735">
        <ele>441.6</ele>
        <time>2017-06-11T10:28:06.999Z</time>
      </trkpt>
      <trkpt lat="47.47169" lon="6.6073">
        <ele>441.6</ele>
        <time>2017-06-11T10:28:07.999Z</time>
      </trkpt>
      <trkpt lat="47.47167" lon="6.60725">
        <ele>442</ele>
        <time>2017-06-11T10:28:10.999Z</time>
      </trkpt>
      <trkpt lat="47.47167" lon="6.60723">
        <ele>442.1</ele>
        <time>2017-06-11T10:28:11.999Z</time>
      </trkpt>
      <trkpt lat="47.47166" lon="6.60721">
        <ele>442.2</ele>
        <time>2017-06-11T10:28:12.999Z</time>
      </trkpt>
      <trkpt lat="47.47164" lon="6.60716">
        <ele>442.3</ele>
        <time>2017-06-11T10:28:13.999Z</time>
      </trkpt>
      <trkpt lat="47.47162" lon="6.60712">
        <ele>442.5</ele>
        <time>2017-06-11T10:28:15.999Z</time>
      </trkpt>
      <trkpt lat="47.47162" lon="6.60707">
        <ele>442.5</ele>
        <time>2017-06-11T10:28:16.999Z</time>
      </trkpt>
      <trkpt lat="47.47161" lon="6.60705">
        <ele>442.7</ele>
        <time>2017-06-11T10:28:17.999Z</time>
      </trkpt>
      <trkpt lat="47.4716" lon="6.607">
        <ele>442.9</ele>
        <time>2017-06-11T10:28:18.999Z</time>
      </trkpt>
      <trkpt lat="47.47157" lon="6.60697">
        <ele>443.3</ele>
        <time>2017-06-11T10:28:20.999Z</time>
      </trkpt>
      <trkpt lat="47.47155" lon="6.60693">
        <ele>443.4</ele>
        <time>2017-06-11T10:28:21.999Z</time>
      </trkpt>
      <trkpt lat="47.47152" lon="6.60691">
        <ele>444.4</ele>
        <time>2017-06-11T10:28:32.999Z</time>
      </trkpt>
      <trkpt lat="47.47147" lon="6.60692">
        <ele>444.6</ele>
        <time>2017-06-11T10:28:33.999Z</time>
      </trkpt>
      <trkpt lat="47.47143" lon="6.60694">
        <ele>445</ele>
        <time>2017-06-11T10:28:35.999Z</time>
      </trkpt>
      <trkpt lat="47.47142" lon="6.60693">
        <ele>445</ele>
        <time>2017-06-11T10:28:36.999Z</time>
      </trkpt>
      <trkpt lat="47.4714" lon="6.60694">
        <ele>445.1</ele>
        <time>2017-06-11T10:28:37.999Z</time>
      </trkpt>
      <trkpt lat="47.47137" lon="6.60699">
        <ele>445.2</ele>
        <time>2017-06-11T10:28:38.999Z</time>
      </trkpt>
      <trkpt lat="47.47136" lon="6.60701">
        <ele>445.4</ele>
        <time>2017-06-11T10:28:39.999Z</time>
      </trkpt>
      <trkpt lat="47.47133" lon="6.60704">
        <ele>445.5</ele>
        <time>2017-06-11T10:28:40.999Z</time>
      </trkpt>
      <trkpt lat="47.4713" lon="6.60706">
        <ele>445.5</ele>
        <time>2017-06-11T10:28:41.999Z</time>
      </trkpt>
      <trkpt lat="47.47125" lon="6.60708">
        <ele>445.5</ele>
        <time>2017-06-11T10:28:42.999Z</time>
      </trkpt>
      <trkpt lat="47.47118" lon="6.6071">
        <ele>445.3</ele>
        <time>2017-06-11T10:28:43.999Z</time>
      </trkpt>
      <trkpt lat="47.47111" lon="6.60713">
        <ele>444.1</ele>
        <time>2017-06-11T10:28:44.999Z</time>
      </trkpt>
      <trkpt lat="47.47104" lon="6.60716">
        <ele>442.6</ele>
        <time>2017-06-11T10:28:45.999Z</time>
      </trkpt>
      <trkpt lat="47.471" lon="6.60718">
        <ele>442.6</ele>
        <time>2017-06-11T10:28:46.999Z</time>
      </trkpt>
      <trkpt lat="47.47096" lon="6.6072">
        <ele>442.9</ele>
        <time>2017-06-11T10:28:47.999Z</time>
      </trkpt>
      <trkpt lat="47.47092" lon="6.60722">
        <ele>443.7</ele>
        <time>2017-06-11T10:28:48.999Z</time>
      </trkpt>
      <trkpt lat="47.47087" lon="6.60724">
        <ele>443</ele>
        <time>2017-06-11T10:28:49.999Z</time>
      </trkpt>
      <trkpt lat="47.47082" lon="6.60727">
        <ele>441.8</ele>
        <time>2017-06-11T10:28:50.999Z</time>
      </trkpt>
      <trkpt lat="47.47076" lon="6.60727">
        <ele>441.7</ele>
        <time>2017-06-11T10:28:51.999Z</time>
      </trkpt>
      <trkpt lat="47.47072" lon="6.60728">
        <ele>441.5</ele>
        <time>2017-06-11T10:28:52.999Z</time>
      </trkpt>
      <trkpt lat="47.47066" lon="6.60729">
        <ele>441.2</ele>
        <time>2017-06-11T10:28:53.999Z</time>
      </trkpt>
      <trkpt lat="47.4706" lon="6.6073">
        <ele>440.1</ele>
        <time>2017-06-11T10:28:54.999Z</time>
      </trkpt>
      <trkpt lat="47.47056" lon="6.60733">
        <ele>440</ele>
        <time>2017-06-11T10:28:55.999Z</time>
      </trkpt>
      <trkpt lat="47.47051" lon="6.60732">
        <ele>439.7</ele>
        <time>2017-06-11T10:28:56.999Z</time>
      </trkpt>
      <trkpt lat="47.47047" lon="6.60731">
        <ele>439.5</ele>
        <time>2017-06-11T10:28:57.999Z</time>
      </trkpt>
      <trkpt lat="47.47044" lon="6.6073">
        <ele>439.2</ele>
        <time>2017-06-11T10:28:58.999Z</time>
      </trkpt>
      <trkpt lat="47.4704" lon="6.60729">
        <ele>438.9</ele>
        <time>2017-06-11T10:28:59.999Z</time>
      </trkpt>
      <trkpt lat="47.47036" lon="6.60726">
        <ele>438.5</ele>
        <time>2017-06-11T10:29:00.999Z</time>
      </trkpt>
      <trkpt lat="47.47033" lon="6.60727">
        <ele>438.1</ele>
        <time>2017-06-11T10:29:01.999Z</time>
      </trkpt>
      <trkpt lat="47.47029" lon="6.60728">
        <ele>437.7</ele>
        <time>2017-06-11T10:29:02.999Z</time>
      </trkpt>
      <trkpt lat="47.47022" lon="6.60732">
        <ele>434.7</ele>
        <time>2017-06-11T10:29:03.999Z</time>
      </trkpt>
      <trkpt lat="47.47018" lon="6.60734">
        <ele>434.3</ele>
        <time>2017-06-11T10:29:04.999Z</time>
      </trkpt>
      <trkpt lat="47.47015" lon="6.60735">
        <ele>434.2</ele>
        <time>2017-06-11T10:29:05.999Z</time>
      </trkpt>
      <trkpt lat="47.47011" lon="6.60737">
        <ele>434</ele>
        <time>2017-06-11T10:29:06.999Z</time>
      </trkpt>
      <trkpt lat="47.47007" lon="6.60738">
        <ele>433.9</ele>
        <time>2017-06-11T10:29:07.999Z</time>
      </trkpt>
      <trkpt lat="47.47003" lon="6.60737">
        <ele>433.1</ele>
        <time>2017-06-11T10:29:08.999Z</time>
      </trkpt>
      <trkpt lat="47.46999" lon="6.60736">
        <ele>433</ele>
        <time>2017-06-11T10:29:09.999Z</time>
      </trkpt>
      <trkpt lat="47.46992" lon="6.60736">
        <ele>431.4</ele>
        <time>2017-06-11T10:29:10.999Z</time>
      </trkpt>
      <trkpt lat="47.46987" lon="6.60737">
        <ele>429.4</ele>
        <time>2017-06-11T10:29:11.999Z</time>
      </trkpt>
      <trkpt lat="47.46983" lon="6.60737">
        <ele>429.2</ele>
        <time>2017-06-11T10:29:12.999Z</time>
      </trkpt>
      <trkpt lat="47.46979" lon="6.60734">
        <ele>427.8</ele>
        <time>2017-06-11T10:29:13.999Z</time>
      </trkpt>
      <trkpt lat="47.46975" lon="6.60731">
        <ele>427.3</ele>
        <time>2017-06-11T10:29:14.999Z</time>
      </trkpt>
      <trkpt lat="47.46968" lon="6.60726">
        <ele>427</ele>
        <time>2017-06-11T10:29:15.999Z</time>
      </trkpt>
      <trkpt lat="47.46963" lon="6.60722">
        <ele>426.9</ele>
        <time>2017-06-11T10:29:16.999Z</time>
      </trkpt>
      <trkpt lat="47.46959" lon="6.60719">
        <ele>426.7</ele>
        <time>2017-06-11T10:29:18.999Z</time>
      </trkpt>
      <trkpt lat="47.46956" lon="6.60717">
        <ele>426.5</ele>
        <time>2017-06-11T10:29:19.999Z</time>
      </trkpt>
      <trkpt lat="47.46953" lon="6.60713">
        <ele>425.5</ele>
        <time>2017-06-11T10:29:20.999Z</time>
      </trkpt>
      <trkpt lat="47.46951" lon="6.6071">
        <ele>425.3</ele>
        <time>2017-06-11T10:29:21.999Z</time>
      </trkpt>
      <trkpt lat="47.46948" lon="6.60706">
        <ele>425.1</ele>
        <time>2017-06-11T10:29:22.999Z</time>
      </trkpt>
      <trkpt lat="47.46944" lon="6.60705">
        <ele>425</ele>
        <time>2017-06-11T10:29:23.999Z</time>
      </trkpt>
      <trkpt lat="47.46941" lon="6.60702">
        <ele>425</ele>
        <time>2017-06-11T10:29:24.999Z</time>
      </trkpt>
      <trkpt lat="47.46937" lon="6.607">
        <ele>425</ele>
        <time>2017-06-11T10:29:25.999Z</time>
      </trkpt>
      <trkpt lat="47.46933" lon="6.60697">
        <ele>425</ele>
        <time>2017-06-11T10:29:26.999Z</time>
      </trkpt>
      <trkpt lat="47.4693" lon="6.60696">
        <ele>424.8</ele>
        <time>2017-06-11T10:29:27.999Z</time>
      </trkpt>
      <trkpt lat="47.46923" lon="6.60693">
        <ele>424.7</ele>
        <time>2017-06-11T10:29:28.999Z</time>
      </trkpt>
      <trkpt lat="47.46918" lon="6.6069">
        <ele>424.6</ele>
        <time>2017-06-11T10:29:29.999Z</time>
      </trkpt>
      <trkpt lat="47.46916" lon="6.60687">
        <ele>424.5</ele>
        <time>2017-06-11T10:29:30.999Z</time>
      </trkpt>
      <trkpt lat="47.46912" lon="6.60681">
        <ele>424.4</ele>
        <time>2017-06-11T10:29:31.999Z</time>
      </trkpt>
      <trkpt lat="47.46909" lon="6.60678">
        <ele>424.4</ele>
        <time>2017-06-11T10:29:32.999Z</time>
      </trkpt>
      <trkpt lat="47.46906" lon="6.60675">
        <ele>424.4</ele>
        <time>2017-06-11T10:29:33.999Z</time>
      </trkpt>
      <trkpt lat="47.46901" lon="6.60671">
        <ele>424.6</ele>
        <time>2017-06-11T10:29:34.999Z</time>
      </trkpt>
      <trkpt lat="47.46897" lon="6.60667">
        <ele>424.8</ele>
        <time>2017-06-11T10:29:35.999Z</time>
      </trkpt>
      <trkpt lat="47.46894" lon="6.60662">
        <ele>425</ele>
        <time>2017-06-11T10:29:36.999Z</time>
      </trkpt>
      <trkpt lat="47.46893" lon="6.6066">
        <ele>425.2</ele>
        <time>2017-06-11T10:29:37.999Z</time>
      </trkpt>
      <trkpt lat="47.46891" lon="6.60657">
        <ele>425.4</ele>
        <time>2017-06-11T10:29:38.999Z</time>
      </trkpt>
      <trkpt lat="47.46886" lon="6.60652">
        <ele>425.6</ele>
        <time>2017-06-11T10:29:39.999Z</time>
      </trkpt>
      <trkpt lat="47.46885" lon="6.6065">
        <ele>425.8</ele>
        <time>2017-06-11T10:29:40.999Z</time>
      </trkpt>
      <trkpt lat="47.46881" lon="6.60644">
        <ele>426.1</ele>
        <time>2017-06-11T10:29:42.999Z</time>
      </trkpt>
      <trkpt lat="47.4688" lon="6.60641">
        <ele>426.2</ele>
        <time>2017-06-11T10:29:43.999Z</time>
      </trkpt>
      <trkpt lat="47.46877" lon="6.60635">
        <ele>426.3</ele>
        <time>2017-06-11T10:29:44.999Z</time>
      </trkpt>
      <trkpt lat="47.46876" lon="6.60633">
        <ele>426.4</ele>
        <time>2017-06-11T10:29:45.999Z</time>
      </trkpt>
      <trkpt lat="47.46872" lon="6.60628">
        <ele>426.4</ele>
        <time>2017-06-11T10:29:46.999Z</time>
      </trkpt>
      <trkpt lat="47.46869" lon="6.60624">
        <ele>426.3</ele>
        <time>2017-06-11T10:29:47.999Z</time>
      </trkpt>
      <trkpt lat="47.46866" lon="6.60621">
        <ele>426.3</ele>
        <time>2017-06-11T10:29:48.999Z</time>
      </trkpt>
      <trkpt lat="47.46863" lon="6.60616">
        <ele>426.3</ele>
        <time>2017-06-11T10:29:49.999Z</time>
      </trkpt>
      <trkpt lat="47.4686" lon="6.60613">
        <ele>426.4</ele>
        <time>2017-06-11T10:29:50.999Z</time>
      </trkpt>
      <trkpt lat="47.46857" lon="6.6061">
        <ele>426.6</ele>
        <time>2017-06-11T10:29:51.999Z</time>
      </trkpt>
      <trkpt lat="47.46856" lon="6.60606">
        <ele>426.7</ele>
        <time>2017-06-11T10:29:52.999Z</time>
      </trkpt>
      <trkpt lat="47.46853" lon="6.60602">
        <ele>426.8</ele>
        <time>2017-06-11T10:29:53.999Z</time>
      </trkpt>
      <trkpt lat="47.46849" lon="6.60597">
        <ele>426.8</ele>
        <time>2017-06-11T10:29:54.999Z</time>
      </trkpt>
      <trkpt lat="47.46843" lon="6.60592">
        <ele>428</ele>
        <time>2017-06-11T10:29:55.999Z</time>
      </trkpt>
      <trkpt lat="47.46839" lon="6.60589">
        <ele>428.2</ele>
        <time>2017-06-11T10:29:56.999Z</time>
      </trkpt>
      <trkpt lat="47.46834" lon="6.60584">
        <ele>428.1</ele>
        <time>2017-06-11T10:29:57.999Z</time>
      </trkpt>
      <trkpt lat="47.46831" lon="6.60582">
        <ele>428.1</ele>
        <time>2017-06-11T10:29:58.999Z</time>
      </trkpt>
      <trkpt lat="47.46827" lon="6.60578">
        <ele>428.2</ele>
        <time>2017-06-11T10:29:59.999Z</time>
      </trkpt>
      <trkpt lat="47.46823" lon="6.60576">
        <ele>428.5</ele>
        <time>2017-06-11T10:30:00.999Z</time>
      </trkpt>
      <trkpt lat="47.4682" lon="6.60572">
        <ele>427.5</ele>
        <time>2017-06-11T10:30:01.999Z</time>
      </trkpt>
      <trkpt lat="47.46816" lon="6.60569">
        <ele>427.5</ele>
        <time>2017-06-11T10:30:02.999Z</time>
      </trkpt>
      <trkpt lat="47.46812" lon="6.60567">
        <ele>427.5</ele>
        <time>2017-06-11T10:30:03.999Z</time>
      </trkpt>
      <trkpt lat="47.46807" lon="6.60566">
        <ele>427.3</ele>
        <time>2017-06-11T10:30:04.999Z</time>
      </trkpt>
      <trkpt lat="47.46801" lon="6.60563">
        <ele>427</ele>
        <time>2017-06-11T10:30:05.999Z</time>
      </trkpt>
      <trkpt lat="47.46796" lon="6.60556">
        <ele>426.9</ele>
        <time>2017-06-11T10:30:06.999Z</time>
      </trkpt>
      <trkpt lat="47.46792" lon="6.60549">
        <ele>426.9</ele>
        <time>2017-06-11T10:30:07.999Z</time>
      </trkpt>
      <trkpt lat="47.46787" lon="6.60543">
        <ele>426.8</ele>
        <time>2017-06-11T10:30:08.999Z</time>
      </trkpt>
      <trkpt lat="47.46783" lon="6.60538">
        <ele>426.7</ele>
        <time>2017-06-11T10:30:09.999Z</time>
      </trkpt>
      <trkpt lat="47.46779" lon="6.60533">
        <ele>426.6</ele>
        <time>2017-06-11T10:30:10.999Z</time>
      </trkpt>
      <trkpt lat="47.46776" lon="6.6053">
        <ele>426.5</ele>
        <time>2017-06-11T10:30:11.999Z</time>
      </trkpt>
      <trkpt lat="47.46772" lon="6.60527">
        <ele>425.6</ele>
        <time>2017-06-11T10:30:12.999Z</time>
      </trkpt>
      <trkpt lat="47.46766" lon="6.60524">
        <ele>425.6</ele>
        <time>2017-06-11T10:30:13.999Z</time>
      </trkpt>
      <trkpt lat="47.46762" lon="6.60521">
        <ele>426.1</ele>
        <time>2017-06-11T10:30:14.999Z</time>
      </trkpt>
      <trkpt lat="47.46759" lon="6.60519">
        <ele>426.2</ele>
        <time>2017-06-11T10:30:15.999Z</time>
      </trkpt>
      <trkpt lat="47.46756" lon="6.60517">
        <ele>426.4</ele>
        <time>2017-06-11T10:30:16.999Z</time>
      </trkpt>
      <trkpt lat="47.46754" lon="6.60514">
        <ele>426.6</ele>
        <time>2017-06-11T10:30:17.999Z</time>
      </trkpt>
      <trkpt lat="47.46751" lon="6.6051">
        <ele>426.8</ele>
        <time>2017-06-11T10:30:18.999Z</time>
      </trkpt>
      <trkpt lat="47.4675" lon="6.60505">
        <ele>426.9</ele>
        <time>2017-06-11T10:30:19.999Z</time>
      </trkpt>
      <trkpt lat="47.46749" lon="6.60501">
        <ele>427</ele>
        <time>2017-06-11T10:30:20.999Z</time>
      </trkpt>
      <trkpt lat="47.46746" lon="6.60499">
        <ele>427.2</ele>
        <time>2017-06-11T10:30:21.999Z</time>
      </trkpt>
      <trkpt lat="47.46741" lon="6.60495">
        <ele>427.3</ele>
        <time>2017-06-11T10:30:22.999Z</time>
      </trkpt>
      <trkpt lat="47.46736" lon="6.60491">
        <ele>427.4</ele>
        <time>2017-06-11T10:30:23.999Z</time>
      </trkpt>
      <trkpt lat="47.4673" lon="6.60488">
        <ele>427.5</ele>
        <time>2017-06-11T10:30:24.999Z</time>
      </trkpt>
      <trkpt lat="47.46727" lon="6.60486">
        <ele>427.6</ele>
        <time>2017-06-11T10:30:25.999Z</time>
      </trkpt>
      <trkpt lat="47.46723" lon="6.60484">
        <ele>427.7</ele>
        <time>2017-06-11T10:30:26.999Z</time>
      </trkpt>
      <trkpt lat="47.46721" lon="6.60481">
        <ele>427.8</ele>
        <time>2017-06-11T10:30:27.999Z</time>
      </trkpt>
      <trkpt lat="47.46721" lon="6.60473">
        <ele>427.9</ele>
        <time>2017-06-11T10:30:28.999Z</time>
      </trkpt>
      <trkpt lat="47.46722" lon="6.60467">
        <ele>428.6</ele>
        <time>2017-06-11T10:30:30.999Z</time>
      </trkpt>
      <trkpt lat="47.46722" lon="6.60464">
        <ele>428.9</ele>
        <time>2017-06-11T10:30:31.999Z</time>
      </trkpt>
      <trkpt lat="47.46721" lon="6.60457">
        <ele>430</ele>
        <time>2017-06-11T10:30:33.999Z</time>
      </trkpt>
      <trkpt lat="47.46721" lon="6.60454">
        <ele>430.5</ele>
        <time>2017-06-11T10:30:34.999Z</time>
      </trkpt>
      <trkpt lat="47.46718" lon="6.60451">
        <ele>431.9</ele>
        <time>2017-06-11T10:30:37.999Z</time>
      </trkpt>
      <trkpt lat="47.46717" lon="6.6045">
        <ele>432.2</ele>
        <time>2017-06-11T10:30:38.999Z</time>
      </trkpt>
      <trkpt lat="47.46716" lon="6.60445">
        <ele>433.4</ele>
        <time>2017-06-11T10:30:42.999Z</time>
      </trkpt>
      <trkpt lat="47.46716" lon="6.60443">
        <ele>433.8</ele>
        <time>2017-06-11T10:30:43.999Z</time>
      </trkpt>
      <trkpt lat="47.46714" lon="6.60437">
        <ele>434.6</ele>
        <time>2017-06-11T10:30:46.999Z</time>
      </trkpt>
      <trkpt lat="47.46714" lon="6.60435">
        <ele>434.9</ele>
        <time>2017-06-11T10:30:47.999Z</time>
      </trkpt>
      <trkpt lat="47.46714" lon="6.60432">
        <ele>435</ele>
        <time>2017-06-11T10:30:48.999Z</time>
      </trkpt>
      <trkpt lat="47.46715" lon="6.60428">
        <ele>435.1</ele>
        <time>2017-06-11T10:30:49.999Z</time>
      </trkpt>
      <trkpt lat="47.46713" lon="6.60422">
        <ele>435.6</ele>
        <time>2017-06-11T10:30:52.999Z</time>
      </trkpt>
      <trkpt lat="47.46714" lon="6.6042">
        <ele>435.7</ele>
        <time>2017-06-11T10:30:53.999Z</time>
      </trkpt>
      <trkpt lat="47.46715" lon="6.60415">
        <ele>435.8</ele>
        <time>2017-06-11T10:30:54.999Z</time>
      </trkpt>
      <trkpt lat="47.46716" lon="6.60413">
        <ele>435.9</ele>
        <time>2017-06-11T10:30:55.999Z</time>
      </trkpt>
      <trkpt lat="47.46714" lon="6.60407">
        <ele>436.3</ele>
        <time>2017-06-11T10:30:57.999Z</time>
      </trkpt>
      <trkpt lat="47.46714" lon="6.60405">
        <ele>436.4</ele>
        <time>2017-06-11T10:30:58.999Z</time>
      </trkpt>
      <trkpt lat="47.46714" lon="6.60399">
        <ele>436.5</ele>
        <time>2017-06-11T10:30:59.999Z</time>
      </trkpt>
      <trkpt lat="47.46714" lon="6.60397">
        <ele>436.7</ele>
        <time>2017-06-11T10:31:00.999Z</time>
      </trkpt>
      <trkpt lat="47.46715" lon="6.60393">
        <ele>437.1</ele>
        <time>2017-06-11T10:31:02.999Z</time>
      </trkpt>
      <trkpt lat="47.46715" lon="6.60389">
        <ele>437.3</ele>
        <time>2017-06-11T10:31:03.999Z</time>
      </trkpt>
      <trkpt lat="47.46715" lon="6.60385">
        <ele>437.8</ele>
        <time>2017-06-11T10:31:05.999Z</time>
      </trkpt>
      <trkpt lat="47.46716" lon="6.6038">
        <ele>438.2</ele>
        <time>2017-06-11T10:31:06.999Z</time>
      </trkpt>
      <trkpt lat="47.46717" lon="6.60376">
        <ele>438.7</ele>
        <time>2017-06-11T10:31:08.999Z</time>
      </trkpt>
      <trkpt lat="47.46718" lon="6.60374">
        <ele>439.1</ele>
        <time>2017-06-11T10:31:09.999Z</time>
      </trkpt>
      <trkpt lat="47.46721" lon="6.60371">
        <ele>439.4</ele>
        <time>2017-06-11T10:31:10.999Z</time>
      </trkpt>
      <trkpt lat="47.46722" lon="6.6037">
        <ele>439.7</ele>
        <time>2017-06-11T10:31:11.999Z</time>
      </trkpt>
      <trkpt lat="47.46723" lon="6.60366">
        <ele>440</ele>
        <time>2017-06-11T10:31:13.999Z</time>
      </trkpt>
      <trkpt lat="47.46724" lon="6.60363">
        <ele>440.1</ele>
        <time>2017-06-11T10:31:14.999Z</time>
      </trkpt>
      <trkpt lat="47.46726" lon="6.60358">
        <ele>440.3</ele>
        <time>2017-06-11T10:31:16.999Z</time>
      </trkpt>
      <trkpt lat="47.46727" lon="6.60356">
        <ele>440.3</ele>
        <time>2017-06-11T10:31:17.999Z</time>
      </trkpt>
      <trkpt lat="47.46729" lon="6.60351">
        <ele>440.4</ele>
        <time>2017-06-11T10:31:19.999Z</time>
      </trkpt>
      <trkpt lat="47.46729" lon="6.60348">
        <ele>440.5</ele>
        <time>2017-06-11T10:31:20.999Z</time>
      </trkpt>
      <trkpt lat="47.4673" lon="6.60344">
        <ele>440.5</ele>
        <time>2017-06-11T10:31:22.999Z</time>
      </trkpt>
      <trkpt lat="47.46732" lon="6.60341">
        <ele>440.6</ele>
        <time>2017-06-11T10:31:23.999Z</time>
      </trkpt>
      <trkpt lat="47.46733" lon="6.60339">
        <ele>440.6</ele>
        <time>2017-06-11T10:31:24.999Z</time>
      </trkpt>
      <trkpt lat="47.46734" lon="6.60334">
        <ele>440.7</ele>
        <time>2017-06-11T10:31:25.999Z</time>
      </trkpt>
      <trkpt lat="47.46734" lon="6.60331">
        <ele>440.8</ele>
        <time>2017-06-11T10:31:26.999Z</time>
      </trkpt>
      <trkpt lat="47.46735" lon="6.60327">
        <ele>440.9</ele>
        <time>2017-06-11T10:31:27.999Z</time>
      </trkpt>
      <trkpt lat="47.46736" lon="6.60324">
        <ele>441.1</ele>
        <time>2017-06-11T10:31:28.999Z</time>
      </trkpt>
      <trkpt lat="47.46737" lon="6.60321">
        <ele>441.3</ele>
        <time>2017-06-11T10:31:29.999Z</time>
      </trkpt>
      <trkpt lat="47.46738" lon="6.60316">
        <ele>441.4</ele>
        <time>2017-06-11T10:31:30.999Z</time>
      </trkpt>
      <trkpt lat="47.46739" lon="6.60313">
        <ele>441.6</ele>
        <time>2017-06-11T10:31:31.999Z</time>
      </trkpt>
      <trkpt lat="47.46739" lon="6.60306">
        <ele>441.8</ele>
        <time>2017-06-11T10:31:32.999Z</time>
      </trkpt>
      <trkpt lat="47.46739" lon="6.603">
        <ele>442.2</ele>
        <time>2017-06-11T10:31:33.999Z</time>
      </trkpt>
      <trkpt lat="47.46741" lon="6.60293">
        <ele>442.5</ele>
        <time>2017-06-11T10:31:34.999Z</time>
      </trkpt>
      <trkpt lat="47.46742" lon="6.6029">
        <ele>442.9</ele>
        <time>2017-06-11T10:31:35.999Z</time>
      </trkpt>
      <trkpt lat="47.46744" lon="6.60288">
        <ele>443.3</ele>
        <time>2017-06-11T10:31:36.999Z</time>
      </trkpt>
      <trkpt lat="47.46748" lon="6.60284">
        <ele>443.9</ele>
        <time>2017-06-11T10:31:38.999Z</time>
      </trkpt>
      <trkpt lat="47.46749" lon="6.60282">
        <ele>444.2</ele>
        <time>2017-06-11T10:31:39.999Z</time>
      </trkpt>
      <trkpt lat="47.46751" lon="6.6028">
        <ele>444.5</ele>
        <time>2017-06-11T10:31:40.999Z</time>
      </trkpt>
      <trkpt lat="47.46753" lon="6.60278">
        <ele>444.9</ele>
        <time>2017-06-11T10:31:41.999Z</time>
      </trkpt>
      <trkpt lat="47.46757" lon="6.60274">
        <ele>445.7</ele>
        <time>2017-06-11T10:31:43.999Z</time>
      </trkpt>
      <trkpt lat="47.46762" lon="6.60271">
        <ele>446.1</ele>
        <time>2017-06-11T10:31:44.999Z</time>
      </trkpt>
      <trkpt lat="47.46767" lon="6.60265">
        <ele>446.6</ele>
        <time>2017-06-11T10:31:45.999Z</time>
      </trkpt>
      <trkpt lat="47.46771" lon="6.60261">
        <ele>446.9</ele>
        <time>2017-06-11T10:31:46.999Z</time>
      </trkpt>
      <trkpt lat="47.46776" lon="6.60255">
        <ele>447.2</ele>
        <time>2017-06-11T10:31:47.999Z</time>
      </trkpt>
      <trkpt lat="47.46779" lon="6.60255">
        <ele>447.5</ele>
        <time>2017-06-11T10:31:48.999Z</time>
      </trkpt>
      <trkpt lat="47.46785" lon="6.60254">
        <ele>447.8</ele>
        <time>2017-06-11T10:31:49.999Z</time>
      </trkpt>
      <trkpt lat="47.46788" lon="6.60252">
        <ele>448.1</ele>
        <time>2017-06-11T10:31:50.999Z</time>
      </trkpt>
      <trkpt lat="47.46789" lon="6.6025">
        <ele>448.3</ele>
        <time>2017-06-11T10:31:51.999Z</time>
      </trkpt>
      <trkpt lat="47.46791" lon="6.60246">
        <ele>448.4</ele>
        <time>2017-06-11T10:31:52.999Z</time>
      </trkpt>
      <trkpt lat="47.46793" lon="6.60244">
        <ele>448.6</ele>
        <time>2017-06-11T10:31:53.999Z</time>
      </trkpt>
      <trkpt lat="47.46795" lon="6.60242">
        <ele>448.7</ele>
        <time>2017-06-11T10:31:54.999Z</time>
      </trkpt>
      <trkpt lat="47.46797" lon="6.60241">
        <ele>448.8</ele>
        <time>2017-06-11T10:31:55.999Z</time>
      </trkpt>
      <trkpt lat="47.46798" lon="6.6024">
        <ele>449</ele>
        <time>2017-06-11T10:31:56.999Z</time>
      </trkpt>
      <trkpt lat="47.468" lon="6.60236">
        <ele>449.1</ele>
        <time>2017-06-11T10:31:57.999Z</time>
      </trkpt>
      <trkpt lat="47.46801" lon="6.60232">
        <ele>449.2</ele>
        <time>2017-06-11T10:31:58.999Z</time>
      </trkpt>
      <trkpt lat="47.46801" lon="6.60224">
        <ele>449.3</ele>
        <time>2017-06-11T10:31:59.999Z</time>
      </trkpt>
      <trkpt lat="47.46803" lon="6.60218">
        <ele>449.3</ele>
        <time>2017-06-11T10:32:00.999Z</time>
      </trkpt>
      <trkpt lat="47.46802" lon="6.60215">
        <ele>449.4</ele>
        <time>2017-06-11T10:32:01.999Z</time>
      </trkpt>
      <trkpt lat="47.46804" lon="6.60212">
        <ele>449.6</ele>
        <time>2017-06-11T10:32:02.999Z</time>
      </trkpt>
      <trkpt lat="47.46805" lon="6.6021">
        <ele>449.6</ele>
        <time>2017-06-11T10:32:03.999Z</time>
      </trkpt>
      <trkpt lat="47.46806" lon="6.60207">
        <ele>449.8</ele>
        <time>2017-06-11T10:32:04.999Z</time>
      </trkpt>
      <trkpt lat="47.46806" lon="6.60202">
        <ele>449.9</ele>
        <time>2017-06-11T10:32:05.999Z</time>
      </trkpt>
      <trkpt lat="47.46807" lon="6.60197">
        <ele>450</ele>
        <time>2017-06-11T10:32:06.999Z</time>
      </trkpt>
      <trkpt lat="47.4681" lon="6.60191">
        <ele>450</ele>
        <time>2017-06-11T10:32:07.999Z</time>
      </trkpt>
      <trkpt lat="47.46812" lon="6.60188">
        <ele>450</ele>
        <time>2017-06-11T10:32:08.999Z</time>
      </trkpt>
      <trkpt lat="47.46814" lon="6.60182">
        <ele>450</ele>
        <time>2017-06-11T10:32:09.999Z</time>
      </trkpt>
      <trkpt lat="47.46816" lon="6.60177">
        <ele>450.2</ele>
        <time>2017-06-11T10:32:11.999Z</time>
      </trkpt>
      <trkpt lat="47.46817" lon="6.6017">
        <ele>450.3</ele>
        <time>2017-06-11T10:32:12.999Z</time>
      </trkpt>
      <trkpt lat="47.46818" lon="6.60165">
        <ele>450.4</ele>
        <time>2017-06-11T10:32:13.999Z</time>
      </trkpt>
      <trkpt lat="47.46819" lon="6.60161">
        <ele>450.6</ele>
        <time>2017-06-11T10:32:14.999Z</time>
      </trkpt>
      <trkpt lat="47.4682" lon="6.60155">
        <ele>450.7</ele>
        <time>2017-06-11T10:32:15.999Z</time>
      </trkpt>
      <trkpt lat="47.4682" lon="6.60149">
        <ele>451</ele>
        <time>2017-06-11T10:32:16.999Z</time>
      </trkpt>
      <trkpt lat="47.4682" lon="6.60142">
        <ele>451.2</ele>
        <time>2017-06-11T10:32:17.999Z</time>
      </trkpt>
      <trkpt lat="47.46821" lon="6.60136">
        <ele>452.9</ele>
        <time>2017-06-11T10:32:18.999Z</time>
      </trkpt>
      <trkpt lat="47.46821" lon="6.6013">
        <ele>453</ele>
        <time>2017-06-11T10:32:19.999Z</time>
      </trkpt>
      <trkpt lat="47.46821" lon="6.60123">
        <ele>455</ele>
        <time>2017-06-11T10:32:20.999Z</time>
      </trkpt>
      <trkpt lat="47.46821" lon="6.60115">
        <ele>456.1</ele>
        <time>2017-06-11T10:32:21.999Z</time>
      </trkpt>
      <trkpt lat="47.46823" lon="6.60103">
        <ele>456.7</ele>
        <time>2017-06-11T10:32:22.999Z</time>
      </trkpt>
      <trkpt lat="47.46824" lon="6.60095">
        <ele>457.3</ele>
        <time>2017-06-11T10:32:23.999Z</time>
      </trkpt>
      <trkpt lat="47.46825" lon="6.60087">
        <ele>457.8</ele>
        <time>2017-06-11T10:32:24.999Z</time>
      </trkpt>
      <trkpt lat="47.46824" lon="6.6008">
        <ele>459.1</ele>
        <time>2017-06-11T10:32:25.999Z</time>
      </trkpt>
      <trkpt lat="47.46823" lon="6.60074">
        <ele>460.3</ele>
        <time>2017-06-11T10:32:26.999Z</time>
      </trkpt>
      <trkpt lat="47.46822" lon="6.60068">
        <ele>460.8</ele>
        <time>2017-06-11T10:32:27.999Z</time>
      </trkpt>
      <trkpt lat="47.46822" lon="6.60062">
        <ele>461.2</ele>
        <time>2017-06-11T10:32:28.999Z</time>
      </trkpt>
      <trkpt lat="47.46821" lon="6.60055">
        <ele>461.6</ele>
        <time>2017-06-11T10:32:29.999Z</time>
      </trkpt>
      <trkpt lat="47.4682" lon="6.60047">
        <ele>462.1</ele>
        <time>2017-06-11T10:32:30.999Z</time>
      </trkpt>
      <trkpt lat="47.46818" lon="6.60039">
        <ele>462.7</ele>
        <time>2017-06-11T10:32:31.999Z</time>
      </trkpt>
      <trkpt lat="47.46817" lon="6.60031">
        <ele>462.8</ele>
        <time>2017-06-11T10:32:32.999Z</time>
      </trkpt>
      <trkpt lat="47.46816" lon="6.60024">
        <ele>462.8</ele>
        <time>2017-06-11T10:32:33.999Z</time>
      </trkpt>
      <trkpt lat="47.46815" lon="6.60015">
        <ele>462.9</ele>
        <time>2017-06-11T10:32:34.999Z</time>
      </trkpt>
      <trkpt lat="47.46814" lon="6.60007">
        <ele>463.1</ele>
        <time>2017-06-11T10:32:35.999Z</time>
      </trkpt>
      <trkpt lat="47.46815" lon="6.59999">
        <ele>462.4</ele>
        <time>2017-06-11T10:32:36.999Z</time>
      </trkpt>
      <trkpt lat="47.46815" lon="6.59991">
        <ele>461.6</ele>
        <time>2017-06-11T10:32:37.999Z</time>
      </trkpt>
      <trkpt lat="47.46815" lon="6.5998">
        <ele>460.5</ele>
        <time>2017-06-11T10:32:38.999Z</time>
      </trkpt>
      <trkpt lat="47.46816" lon="6.5997">
        <ele>458.9</ele>
        <time>2017-06-11T10:32:39.999Z</time>
      </trkpt>
      <trkpt lat="47.46817" lon="6.59962">
        <ele>457.4</ele>
        <time>2017-06-11T10:32:40.999Z</time>
      </trkpt>
      <trkpt lat="47.46818" lon="6.59954">
        <ele>455.5</ele>
        <time>2017-06-11T10:32:41.999Z</time>
      </trkpt>
      <trkpt lat="47.46819" lon="6.59945">
        <ele>454.2</ele>
        <time>2017-06-11T10:32:42.999Z</time>
      </trkpt>
      <trkpt lat="47.46821" lon="6.59936">
        <ele>453.1</ele>
        <time>2017-06-11T10:32:43.999Z</time>
      </trkpt>
      <trkpt lat="47.46822" lon="6.59926">
        <ele>452</ele>
        <time>2017-06-11T10:32:44.999Z</time>
      </trkpt>
      <trkpt lat="47.46824" lon="6.59915">
        <ele>450.1</ele>
        <time>2017-06-11T10:32:45.999Z</time>
      </trkpt>
      <trkpt lat="47.46826" lon="6.59905">
        <ele>448</ele>
        <time>2017-06-11T10:32:46.999Z</time>
      </trkpt>
      <trkpt lat="47.46826" lon="6.59898">
        <ele>446.1</ele>
        <time>2017-06-11T10:32:47.999Z</time>
      </trkpt>
      <trkpt lat="47.46828" lon="6.59893">
        <ele>446</ele>
        <time>2017-06-11T10:32:48.999Z</time>
      </trkpt>
      <trkpt lat="47.46829" lon="6.59888">
        <ele>445.2</ele>
        <time>2017-06-11T10:32:49.999Z</time>
      </trkpt>
      <trkpt lat="47.46828" lon="6.59883">
        <ele>444.9</ele>
        <time>2017-06-11T10:32:52.999Z</time>
      </trkpt>
      <trkpt lat="47.46825" lon="6.59883">
        <ele>444.7</ele>
        <time>2017-06-11T10:32:53.999Z</time>
      </trkpt>
      <trkpt lat="47.4682" lon="6.59883">
        <ele>444.5</ele>
        <time>2017-06-11T10:32:54.999Z</time>
      </trkpt>
      <trkpt lat="47.46815" lon="6.59885">
        <ele>444.3</ele>
        <time>2017-06-11T10:32:55.999Z</time>
      </trkpt>
      <trkpt lat="47.46813" lon="6.59884">
        <ele>444.1</ele>
        <time>2017-06-11T10:32:56.999Z</time>
      </trkpt>
      <trkpt lat="47.4681" lon="6.59884">
        <ele>443.9</ele>
        <time>2017-06-11T10:32:57.999Z</time>
      </trkpt>
      <trkpt lat="47.46807" lon="6.59885">
        <ele>443.7</ele>
        <time>2017-06-11T10:32:58.999Z</time>
      </trkpt>
      <trkpt lat="47.46802" lon="6.59887">
        <ele>443.5</ele>
        <time>2017-06-11T10:32:59.999Z</time>
      </trkpt>
      <trkpt lat="47.46798" lon="6.59888">
        <ele>443.4</ele>
        <time>2017-06-11T10:33:00.999Z</time>
      </trkpt>
      <trkpt lat="47.46795" lon="6.59887">
        <ele>443.2</ele>
        <time>2017-06-11T10:33:01.999Z</time>
      </trkpt>
      <trkpt lat="47.46791" lon="6.59886">
        <ele>443.1</ele>
        <time>2017-06-11T10:33:02.999Z</time>
      </trkpt>
      <trkpt lat="47.46787" lon="6.59886">
        <ele>442.3</ele>
        <time>2017-06-11T10:33:03.999Z</time>
      </trkpt>
      <trkpt lat="47.46781" lon="6.59886">
        <ele>442.2</ele>
        <time>2017-06-11T10:33:04.999Z</time>
      </trkpt>
      <trkpt lat="47.46778" lon="6.59885">
        <ele>442.2</ele>
        <time>2017-06-11T10:33:05.999Z</time>
      </trkpt>
      <trkpt lat="47.46773" lon="6.59884">
        <ele>442.1</ele>
        <time>2017-06-11T10:33:06.999Z</time>
      </trkpt>
      <trkpt lat="47.46768" lon="6.59885">
        <ele>441.9</ele>
        <time>2017-06-11T10:33:07.999Z</time>
      </trkpt>
      <trkpt lat="47.46763" lon="6.59884">
        <ele>441.7</ele>
        <time>2017-06-11T10:33:08.999Z</time>
      </trkpt>
      <trkpt lat="47.46761" lon="6.59884">
        <ele>441.4</ele>
        <time>2017-06-11T10:33:09.999Z</time>
      </trkpt>
      <trkpt lat="47.46757" lon="6.59884">
        <ele>441.1</ele>
        <time>2017-06-11T10:33:10.999Z</time>
      </trkpt>
      <trkpt lat="47.46754" lon="6.59885">
        <ele>440.8</ele>
        <time>2017-06-11T10:33:11.999Z</time>
      </trkpt>
      <trkpt lat="47.46748" lon="6.59887">
        <ele>440.5</ele>
        <time>2017-06-11T10:33:12.999Z</time>
      </trkpt>
      <trkpt lat="47.46745" lon="6.59886">
        <ele>440.2</ele>
        <time>2017-06-11T10:33:13.999Z</time>
      </trkpt>
      <trkpt lat="47.46739" lon="6.59885">
        <ele>440</ele>
        <time>2017-06-11T10:33:14.999Z</time>
      </trkpt>
      <trkpt lat="47.46734" lon="6.59885">
        <ele>439.7</ele>
        <time>2017-06-11T10:33:15.999Z</time>
      </trkpt>
      <trkpt lat="47.46731" lon="6.59886">
        <ele>439.4</ele>
        <time>2017-06-11T10:33:16.999Z</time>
      </trkpt>
      <trkpt lat="47.46727" lon="6.59884">
        <ele>439.2</ele>
        <time>2017-06-11T10:33:17.999Z</time>
      </trkpt>
      <trkpt lat="47.46724" lon="6.59884">
        <ele>438.9</ele>
        <time>2017-06-11T10:33:18.999Z</time>
      </trkpt>
      <trkpt lat="47.46718" lon="6.59882">
        <ele>438.5</ele>
        <time>2017-06-11T10:33:19.999Z</time>
      </trkpt>
      <trkpt lat="47.46715" lon="6.59883">
        <ele>438.1</ele>
        <time>2017-06-11T10:33:20.999Z</time>
      </trkpt>
      <trkpt lat="47.4671" lon="6.5988">
        <ele>437.7</ele>
        <time>2017-06-11T10:33:21.999Z</time>
      </trkpt>
      <trkpt lat="47.46707" lon="6.59878">
        <ele>437.3</ele>
        <time>2017-06-11T10:33:22.999Z</time>
      </trkpt>
      <trkpt lat="47.46704" lon="6.59877">
        <ele>437</ele>
        <time>2017-06-11T10:33:23.999Z</time>
      </trkpt>
      <trkpt lat="47.46702" lon="6.59875">
        <ele>436.7</ele>
        <time>2017-06-11T10:33:24.999Z</time>
      </trkpt>
      <trkpt lat="47.467" lon="6.59873">
        <ele>436.4</ele>
        <time>2017-06-11T10:33:25.999Z</time>
      </trkpt>
      <trkpt lat="47.46698" lon="6.5987">
        <ele>436.1</ele>
        <time>2017-06-11T10:33:26.999Z</time>
      </trkpt>
      <trkpt lat="47.46696" lon="6.59867">
        <ele>435.7</ele>
        <time>2017-06-11T10:33:27.999Z</time>
      </trkpt>
      <trkpt lat="47.46694" lon="6.59865">
        <ele>435.5</ele>
        <time>2017-06-11T10:33:28.999Z</time>
      </trkpt>
      <trkpt lat="47.4669" lon="6.5986">
        <ele>435.2</ele>
        <time>2017-06-11T10:33:29.999Z</time>
      </trkpt>
      <trkpt lat="47.46688" lon="6.59857">
        <ele>434.9</ele>
        <time>2017-06-11T10:33:30.999Z</time>
      </trkpt>
      <trkpt lat="47.46685" lon="6.59853">
        <ele>434.7</ele>
        <time>2017-06-11T10:33:31.999Z</time>
      </trkpt>
      <trkpt lat="47.46682" lon="6.59851">
        <ele>434.4</ele>
        <time>2017-06-11T10:33:32.999Z</time>
      </trkpt>
      <trkpt lat="47.46681" lon="6.59844">
        <ele>434.2</ele>
        <time>2017-06-11T10:33:33.999Z</time>
      </trkpt>
      <trkpt lat="47.4668" lon="6.5984">
        <ele>434</ele>
        <time>2017-06-11T10:33:34.999Z</time>
      </trkpt>
      <trkpt lat="47.4668" lon="6.59834">
        <ele>433.8</ele>
        <time>2017-06-11T10:33:35.999Z</time>
      </trkpt>
      <trkpt lat="47.4668" lon="6.59831">
        <ele>433.6</ele>
        <time>2017-06-11T10:33:36.999Z</time>
      </trkpt>
      <trkpt lat="47.46679" lon="6.59825">
        <ele>433.5</ele>
        <time>2017-06-11T10:33:37.999Z</time>
      </trkpt>
      <trkpt lat="47.46678" lon="6.59823">
        <ele>433.4</ele>
        <time>2017-06-11T10:33:38.999Z</time>
      </trkpt>
      <trkpt lat="47.46676" lon="6.59817">
        <ele>433.4</ele>
        <time>2017-06-11T10:33:39.999Z</time>
      </trkpt>
      <trkpt lat="47.46674" lon="6.59812">
        <ele>433.4</ele>
        <time>2017-06-11T10:33:42.999Z</time>
      </trkpt>
      <trkpt lat="47.46676" lon="6.59809">
        <ele>433.4</ele>
        <time>2017-06-11T10:33:43.999Z</time>
      </trkpt>
      <trkpt lat="47.4668" lon="6.59807">
        <ele>433.6</ele>
        <time>2017-06-11T10:33:45.999Z</time>
      </trkpt>
      <trkpt lat="47.46681" lon="6.59805">
        <ele>433.7</ele>
        <time>2017-06-11T10:33:46.999Z</time>
      </trkpt>
      <trkpt lat="47.46682" lon="6.59801">
        <ele>433.9</ele>
        <time>2017-06-11T10:33:47.999Z</time>
      </trkpt>
      <trkpt lat="47.46685" lon="6.59795">
        <ele>434.1</ele>
        <time>2017-06-11T10:33:48.999Z</time>
      </trkpt>
      <trkpt lat="47.46686" lon="6.59792">
        <ele>434.5</ele>
        <time>2017-06-11T10:33:49.999Z</time>
      </trkpt>
      <trkpt lat="47.46689" lon="6.59787">
        <ele>434.7</ele>
        <time>2017-06-11T10:33:50.999Z</time>
      </trkpt>
      <trkpt lat="47.4669" lon="6.59784">
        <ele>435</ele>
        <time>2017-06-11T10:33:51.999Z</time>
      </trkpt>
      <trkpt lat="47.46691" lon="6.5978">
        <ele>435.3</ele>
        <time>2017-06-11T10:33:52.999Z</time>
      </trkpt>
      <trkpt lat="47.46693" lon="6.59777">
        <ele>435.6</ele>
        <time>2017-06-11T10:33:53.999Z</time>
      </trkpt>
      <trkpt lat="47.46694" lon="6.59775">
        <ele>436.1</ele>
        <time>2017-06-11T10:33:54.999Z</time>
      </trkpt>
      <trkpt lat="47.46697" lon="6.5977">
        <ele>436.8</ele>
        <time>2017-06-11T10:33:56.999Z</time>
      </trkpt>
      <trkpt lat="47.46698" lon="6.59768">
        <ele>437.1</ele>
        <time>2017-06-11T10:33:57.999Z</time>
      </trkpt>
      <trkpt lat="47.467" lon="6.59765">
        <ele>437.5</ele>
        <time>2017-06-11T10:33:58.999Z</time>
      </trkpt>
      <trkpt lat="47.46702" lon="6.59763">
        <ele>437.8</ele>
        <time>2017-06-11T10:33:59.999Z</time>
      </trkpt>
      <trkpt lat="47.46705" lon="6.59759">
        <ele>438.5</ele>
        <time>2017-06-11T10:34:01.999Z</time>
      </trkpt>
      <trkpt lat="47.46707" lon="6.59758">
        <ele>438.8</ele>
        <time>2017-06-11T10:34:02.999Z</time>
      </trkpt>
      <trkpt lat="47.4671" lon="6.59755">
        <ele>439.2</ele>
        <time>2017-06-11T10:34:03.999Z</time>
      </trkpt>
      <trkpt lat="47.46712" lon="6.59751">
        <ele>439.6</ele>
        <time>2017-06-11T10:34:04.999Z</time>
      </trkpt>
      <trkpt lat="47.46713" lon="6.5975">
        <ele>440</ele>
        <time>2017-06-11T10:34:05.999Z</time>
      </trkpt>
      <trkpt lat="47.46717" lon="6.5975">
        <ele>440.4</ele>
        <time>2017-06-11T10:34:06.999Z</time>
      </trkpt>
      <trkpt lat="47.46721" lon="6.59747">
        <ele>441</ele>
        <time>2017-06-11T10:34:08.999Z</time>
      </trkpt>
      <trkpt lat="47.46723" lon="6.59745">
        <ele>441.3</ele>
        <time>2017-06-11T10:34:09.999Z</time>
      </trkpt>
      <trkpt lat="47.46726" lon="6.59744">
        <ele>441.6</ele>
        <time>2017-06-11T10:34:10.999Z</time>
      </trkpt>
      <trkpt lat="47.46728" lon="6.59743">
        <ele>441.9</ele>
        <time>2017-06-11T10:34:11.999Z</time>
      </trkpt>
      <trkpt lat="47.46729" lon="6.59742">
        <ele>442.1</ele>
        <time>2017-06-11T10:34:12.999Z</time>
      </trkpt>
      <trkpt lat="47.46731" lon="6.59739">
        <ele>442.4</ele>
        <time>2017-06-11T10:34:13.999Z</time>
      </trkpt>
      <trkpt lat="47.46729" lon="6.59734">
        <ele>442.7</ele>
        <time>2017-06-11T10:34:15.999Z</time>
      </trkpt>
      <trkpt lat="47.46727" lon="6.59734">
        <ele>442.8</ele>
        <time>2017-06-11T10:34:16.999Z</time>
      </trkpt>
      <trkpt lat="47.46724" lon="6.59734">
        <ele>442.9</ele>
        <time>2017-06-11T10:34:17.999Z</time>
      </trkpt>
      <trkpt lat="47.46721" lon="6.59734">
        <ele>443</ele>
        <time>2017-06-11T10:34:18.999Z</time>
      </trkpt>
      <trkpt lat="47.46719" lon="6.59734">
        <ele>443.1</ele>
        <time>2017-06-11T10:34:19.999Z</time>
      </trkpt>
      <trkpt lat="47.46716" lon="6.59735">
        <ele>443.3</ele>
        <time>2017-06-11T10:34:20.999Z</time>
      </trkpt>
      <trkpt lat="47.46712" lon="6.59734">
        <ele>443.6</ele>
        <time>2017-06-11T10:34:22.999Z</time>
      </trkpt>
      <trkpt lat="47.4671" lon="6.59733">
        <ele>443.6</ele>
        <time>2017-06-11T10:34:23.999Z</time>
      </trkpt>
      <trkpt lat="47.46706" lon="6.59733">
        <ele>444</ele>
        <time>2017-06-11T10:34:25.999Z</time>
      </trkpt>
      <trkpt lat="47.46701" lon="6.59733">
        <ele>444</ele>
        <time>2017-06-11T10:34:26.999Z</time>
      </trkpt>
      <trkpt lat="47.46699" lon="6.59732">
        <ele>444.1</ele>
        <time>2017-06-11T10:34:28.999Z</time>
      </trkpt>
      <trkpt lat="47.46696" lon="6.59731">
        <ele>444.2</ele>
        <time>2017-06-11T10:34:29.999Z</time>
      </trkpt>
      <trkpt lat="47.46692" lon="6.59731">
        <ele>444.5</ele>
        <time>2017-06-11T10:34:32.999Z</time>
      </trkpt>
      <trkpt lat="47.46691" lon="6.59733">
        <ele>444.6</ele>
        <time>2017-06-11T10:34:33.999Z</time>
      </trkpt>
      <trkpt lat="47.46689" lon="6.59737">
        <ele>444.8</ele>
        <time>2017-06-11T10:34:35.999Z</time>
      </trkpt>
      <trkpt lat="47.46688" lon="6.59738">
        <ele>444.8</ele>
        <time>2017-06-11T10:34:36.999Z</time>
      </trkpt>
      <trkpt lat="47.46687" lon="6.59743">
        <ele>445.1</ele>
        <time>2017-06-11T10:34:39.999Z</time>
      </trkpt>
      <trkpt lat="47.46684" lon="6.59748">
        <ele>445.3</ele>
        <time>2017-06-11T10:34:40.999Z</time>
      </trkpt>
      <trkpt lat="47.46682" lon="6.59753">
        <ele>445.6</ele>
        <time>2017-06-11T10:34:42.999Z</time>
      </trkpt>
      <trkpt lat="47.4668" lon="6.59758">
        <ele>445.8</ele>
        <time>2017-06-11T10:34:43.999Z</time>
      </trkpt>
      <trkpt lat="47.46677" lon="6.59763">
        <ele>446.3</ele>
        <time>2017-06-11T10:34:46.999Z</time>
      </trkpt>
      <trkpt lat="47.46677" lon="6.59765">
        <ele>446.5</ele>
        <time>2017-06-11T10:34:47.999Z</time>
      </trkpt>
      <trkpt lat="47.46674" lon="6.59767">
        <ele>446.8</ele>
        <time>2017-06-11T10:34:49.999Z</time>
      </trkpt>
      <trkpt lat="47.46672" lon="6.59768">
        <ele>446.9</ele>
        <time>2017-06-11T10:34:50.999Z</time>
      </trkpt>
      <trkpt lat="47.46669" lon="6.5977">
        <ele>447.1</ele>
        <time>2017-06-11T10:34:52.999Z</time>
      </trkpt>
      <trkpt lat="47.46667" lon="6.59772">
        <ele>447.3</ele>
        <time>2017-06-11T10:34:53.999Z</time>
      </trkpt>
      <trkpt lat="47.46665" lon="6.59775">
        <ele>447.4</ele>
        <time>2017-06-11T10:34:54.999Z</time>
      </trkpt>
      <trkpt lat="47.46663" lon="6.59777">
        <ele>447.6</ele>
        <time>2017-06-11T10:34:55.999Z</time>
      </trkpt>
      <trkpt lat="47.46662" lon="6.59778">
        <ele>447.8</ele>
        <time>2017-06-11T10:34:56.999Z</time>
      </trkpt>
      <trkpt lat="47.46658" lon="6.59782">
        <ele>448</ele>
        <time>2017-06-11T10:34:57.999Z</time>
      </trkpt>
      <trkpt lat="47.46656" lon="6.59783">
        <ele>448.1</ele>
        <time>2017-06-11T10:34:58.999Z</time>
      </trkpt>
      <trkpt lat="47.46653" lon="6.59782">
        <ele>448.2</ele>
        <time>2017-06-11T10:34:59.999Z</time>
      </trkpt>
      <trkpt lat="47.4665" lon="6.59782">
        <ele>448.5</ele>
        <time>2017-06-11T10:35:01.999Z</time>
      </trkpt>
      <trkpt lat="47.46646" lon="6.59781">
        <ele>448.6</ele>
        <time>2017-06-11T10:35:02.999Z</time>
      </trkpt>
      <trkpt lat="47.46641" lon="6.5978">
        <ele>448.7</ele>
        <time>2017-06-11T10:35:03.999Z</time>
      </trkpt>
      <trkpt lat="47.46636" lon="6.59779">
        <ele>448.7</ele>
        <time>2017-06-11T10:35:04.999Z</time>
      </trkpt>
      <trkpt lat="47.46632" lon="6.5978">
        <ele>449</ele>
        <time>2017-06-11T10:35:06.999Z</time>
      </trkpt>
      <trkpt lat="47.4663" lon="6.59781">
        <ele>449</ele>
        <time>2017-06-11T10:35:07.999Z</time>
      </trkpt>
      <trkpt lat="47.46626" lon="6.59781">
        <ele>449.1</ele>
        <time>2017-06-11T10:35:08.999Z</time>
      </trkpt>
      <trkpt lat="47.46624" lon="6.59781">
        <ele>449</ele>
        <time>2017-06-11T10:35:09.999Z</time>
      </trkpt>
      <trkpt lat="47.46622" lon="6.59782">
        <ele>449</ele>
        <time>2017-06-11T10:35:10.999Z</time>
      </trkpt>
      <trkpt lat="47.4662" lon="6.59781">
        <ele>449</ele>
        <time>2017-06-11T10:35:11.999Z</time>
      </trkpt>
      <trkpt lat="47.46618" lon="6.5978">
        <ele>448.9</ele>
        <time>2017-06-11T10:35:12.999Z</time>
      </trkpt>
      <trkpt lat="47.46614" lon="6.59781">
        <ele>448.8</ele>
        <time>2017-06-11T10:35:13.999Z</time>
      </trkpt>
      <trkpt lat="47.46609" lon="6.59781">
        <ele>448.8</ele>
        <time>2017-06-11T10:35:14.999Z</time>
      </trkpt>
      <trkpt lat="47.46603" lon="6.59782">
        <ele>449</ele>
        <time>2017-06-11T10:35:15.999Z</time>
      </trkpt>
      <trkpt lat="47.46599" lon="6.59786">
        <ele>448.9</ele>
        <time>2017-06-11T10:35:16.999Z</time>
      </trkpt>
      <trkpt lat="47.46598" lon="6.59789">
        <ele>448.8</ele>
        <time>2017-06-11T10:35:17.999Z</time>
      </trkpt>
      <trkpt lat="47.46596" lon="6.59791">
        <ele>448.8</ele>
        <time>2017-06-11T10:35:18.999Z</time>
      </trkpt>
      <trkpt lat="47.46593" lon="6.59792">
        <ele>448.7</ele>
        <time>2017-06-11T10:35:19.999Z</time>
      </trkpt>
      <trkpt lat="47.46588" lon="6.59795">
        <ele>448.6</ele>
        <time>2017-06-11T10:35:20.999Z</time>
      </trkpt>
      <trkpt lat="47.46585" lon="6.59796">
        <ele>448.5</ele>
        <time>2017-06-11T10:35:21.999Z</time>
      </trkpt>
      <trkpt lat="47.46579" lon="6.59799">
        <ele>447.6</ele>
        <time>2017-06-11T10:35:22.999Z</time>
      </trkpt>
      <trkpt lat="47.46573" lon="6.59802">
        <ele>447</ele>
        <time>2017-06-11T10:35:23.999Z</time>
      </trkpt>
      <trkpt lat="47.4657" lon="6.59803">
        <ele>446.9</ele>
        <time>2017-06-11T10:35:24.999Z</time>
      </trkpt>
      <trkpt lat="47.46565" lon="6.59804">
        <ele>446.9</ele>
        <time>2017-06-11T10:35:25.999Z</time>
      </trkpt>
      <trkpt lat="47.46562" lon="6.59804">
        <ele>446.8</ele>
        <time>2017-06-11T10:35:26.999Z</time>
      </trkpt>
      <trkpt lat="47.46559" lon="6.59808">
        <ele>446.6</ele>
        <time>2017-06-11T10:35:27.999Z</time>
      </trkpt>
      <trkpt lat="47.46555" lon="6.59811">
        <ele>446.5</ele>
        <time>2017-06-11T10:35:28.999Z</time>
      </trkpt>
      <trkpt lat="47.46551" lon="6.59812">
        <ele>446.3</ele>
        <time>2017-06-11T10:35:29.999Z</time>
      </trkpt>
      <trkpt lat="47.46548" lon="6.59813">
        <ele>445.5</ele>
        <time>2017-06-11T10:35:34.999Z</time>
      </trkpt>
      <trkpt lat="47.46543" lon="6.59815">
        <ele>445.4</ele>
        <time>2017-06-11T10:35:35.999Z</time>
      </trkpt>
      <trkpt lat="47.46539" lon="6.59815">
        <ele>445.2</ele>
        <time>2017-06-11T10:35:36.999Z</time>
      </trkpt>
      <trkpt lat="47.46537" lon="6.59815">
        <ele>445</ele>
        <time>2017-06-11T10:35:37.999Z</time>
      </trkpt>
      <trkpt lat="47.46533" lon="6.5982">
        <ele>444.8</ele>
        <time>2017-06-11T10:35:38.999Z</time>
      </trkpt>
      <trkpt lat="47.46529" lon="6.59825">
        <ele>444.6</ele>
        <time>2017-06-11T10:35:39.999Z</time>
      </trkpt>
      <trkpt lat="47.46526" lon="6.59828">
        <ele>444.2</ele>
        <time>2017-06-11T10:35:41.999Z</time>
      </trkpt>
      <trkpt lat="47.46525" lon="6.59829">
        <ele>444.1</ele>
        <time>2017-06-11T10:35:42.999Z</time>
      </trkpt>
      <trkpt lat="47.46523" lon="6.59833">
        <ele>443.9</ele>
        <time>2017-06-11T10:35:43.999Z</time>
      </trkpt>
      <trkpt lat="47.4652" lon="6.59834">
        <ele>443.8</ele>
        <time>2017-06-11T10:35:44.999Z</time>
      </trkpt>
      <trkpt lat="47.46514" lon="6.59836">
        <ele>443.6</ele>
        <time>2017-06-11T10:35:45.999Z</time>
      </trkpt>
      <trkpt lat="47.46511" lon="6.59838">
        <ele>443.5</ele>
        <time>2017-06-11T10:35:46.999Z</time>
      </trkpt>
      <trkpt lat="47.46505" lon="6.59841">
        <ele>443.3</ele>
        <time>2017-06-11T10:35:47.999Z</time>
      </trkpt>
      <trkpt lat="47.46501" lon="6.59844">
        <ele>443.1</ele>
        <time>2017-06-11T10:35:48.999Z</time>
      </trkpt>
      <trkpt lat="47.46496" lon="6.59846">
        <ele>442.9</ele>
        <time>2017-06-11T10:35:49.999Z</time>
      </trkpt>
      <trkpt lat="47.46492" lon="6.5985">
        <ele>442.8</ele>
        <time>2017-06-11T10:35:50.999Z</time>
      </trkpt>
      <trkpt lat="47.46489" lon="6.59854">
        <ele>441</ele>
        <time>2017-06-11T10:35:51.999Z</time>
      </trkpt>
      <trkpt lat="47.46485" lon="6.59854">
        <ele>440.8</ele>
        <time>2017-06-11T10:35:52.999Z</time>
      </trkpt>
      <trkpt lat="47.46482" lon="6.59855">
        <ele>440.5</ele>
        <time>2017-06-11T10:35:53.999Z</time>
      </trkpt>
      <trkpt lat="47.46479" lon="6.59857">
        <ele>440.2</ele>
        <time>2017-06-11T10:35:54.999Z</time>
      </trkpt>
      <trkpt lat="47.46477" lon="6.59861">
        <ele>439.9</ele>
        <time>2017-06-11T10:35:55.999Z</time>
      </trkpt>
      <trkpt lat="47.46474" lon="6.59864">
        <ele>439.6</ele>
        <time>2017-06-11T10:35:56.999Z</time>
      </trkpt>
      <trkpt lat="47.4647" lon="6.59867">
        <ele>437.7</ele>
        <time>2017-06-11T10:35:57.999Z</time>
      </trkpt>
      <trkpt lat="47.46465" lon="6.59867">
        <ele>437.4</ele>
        <time>2017-06-11T10:35:58.999Z</time>
      </trkpt>
      <trkpt lat="47.46462" lon="6.59866">
        <ele>437.3</ele>
        <time>2017-06-11T10:35:59.999Z</time>
      </trkpt>
      <trkpt lat="47.46459" lon="6.59868">
        <ele>437.1</ele>
        <time>2017-06-11T10:36:00.999Z</time>
      </trkpt>
      <trkpt lat="47.46454" lon="6.59873">
        <ele>435.2</ele>
        <time>2017-06-11T10:36:01.999Z</time>
      </trkpt>
      <trkpt lat="47.4645" lon="6.5988">
        <ele>433.5</ele>
        <time>2017-06-11T10:36:02.999Z</time>
      </trkpt>
      <trkpt lat="47.46446" lon="6.59882">
        <ele>433.4</ele>
        <time>2017-06-11T10:36:03.999Z</time>
      </trkpt>
      <trkpt lat="47.46441" lon="6.59884">
        <ele>433.3</ele>
        <time>2017-06-11T10:36:04.999Z</time>
      </trkpt>
      <trkpt lat="47.46438" lon="6.59885">
        <ele>433.2</ele>
        <time>2017-06-11T10:36:05.999Z</time>
      </trkpt>
      <trkpt lat="47.46435" lon="6.59887">
        <ele>433.1</ele>
        <time>2017-06-11T10:36:06.999Z</time>
      </trkpt>
      <trkpt lat="47.46432" lon="6.59889">
        <ele>433</ele>
        <time>2017-06-11T10:36:07.999Z</time>
      </trkpt>
      <trkpt lat="47.46427" lon="6.59891">
        <ele>432.9</ele>
        <time>2017-06-11T10:36:08.999Z</time>
      </trkpt>
      <trkpt lat="47.46425" lon="6.59894">
        <ele>432.8</ele>
        <time>2017-06-11T10:36:09.999Z</time>
      </trkpt>
      <trkpt lat="47.46421" lon="6.59898">
        <ele>432.7</ele>
        <time>2017-06-11T10:36:10.999Z</time>
      </trkpt>
      <trkpt lat="47.4642" lon="6.599">
        <ele>432.5</ele>
        <time>2017-06-11T10:36:11.999Z</time>
      </trkpt>
      <trkpt lat="47.46417" lon="6.59905">
        <ele>432.4</ele>
        <time>2017-06-11T10:36:12.999Z</time>
      </trkpt>
      <trkpt lat="47.46414" lon="6.59911">
        <ele>432.4</ele>
        <time>2017-06-11T10:36:13.999Z</time>
      </trkpt>
      <trkpt lat="47.4641" lon="6.59913">
        <ele>432.5</ele>
        <time>2017-06-11T10:36:14.999Z</time>
      </trkpt>
      <trkpt lat="47.46407" lon="6.59916">
        <ele>432.8</ele>
        <time>2017-06-11T10:36:15.999Z</time>
      </trkpt>
      <trkpt lat="47.46403" lon="6.59918">
        <ele>432</ele>
        <time>2017-06-11T10:36:16.999Z</time>
      </trkpt>
      <trkpt lat="47.46398" lon="6.59919">
        <ele>431.4</ele>
        <time>2017-06-11T10:36:17.999Z</time>
      </trkpt>
      <trkpt lat="47.46395" lon="6.59921">
        <ele>431.3</ele>
        <time>2017-06-11T10:36:18.999Z</time>
      </trkpt>
      <trkpt lat="47.46392" lon="6.59923">
        <ele>431.1</ele>
        <time>2017-06-11T10:36:19.999Z</time>
      </trkpt>
      <trkpt lat="47.46386" lon="6.59924">
        <ele>430.8</ele>
        <time>2017-06-11T10:36:20.999Z</time>
      </trkpt>
      <trkpt lat="47.46385" lon="6.59931">
        <ele>430.3</ele>
        <time>2017-06-11T10:36:22.999Z</time>
      </trkpt>
      <trkpt lat="47.46383" lon="6.59933">
        <ele>429.9</ele>
        <time>2017-06-11T10:36:23.999Z</time>
      </trkpt>
      <trkpt lat="47.46382" lon="6.59935">
        <ele>429.7</ele>
        <time>2017-06-11T10:36:24.999Z</time>
      </trkpt>
      <trkpt lat="47.46377" lon="6.5994">
        <ele>429.4</ele>
        <time>2017-06-11T10:36:25.999Z</time>
      </trkpt>
      <trkpt lat="47.46374" lon="6.59947">
        <ele>429.3</ele>
        <time>2017-06-11T10:36:26.999Z</time>
      </trkpt>
      <trkpt lat="47.46372" lon="6.59954">
        <ele>429.2</ele>
        <time>2017-06-11T10:36:27.999Z</time>
      </trkpt>
      <trkpt lat="47.4637" lon="6.59958">
        <ele>429.1</ele>
        <time>2017-06-11T10:36:28.999Z</time>
      </trkpt>
      <trkpt lat="47.46367" lon="6.5996">
        <ele>428.9</ele>
        <time>2017-06-11T10:36:29.999Z</time>
      </trkpt>
      <trkpt lat="47.46363" lon="6.59962">
        <ele>428.4</ele>
        <time>2017-06-11T10:36:31.999Z</time>
      </trkpt>
      <trkpt lat="47.46358" lon="6.59966">
        <ele>428.2</ele>
        <time>2017-06-11T10:36:32.999Z</time>
      </trkpt>
      <trkpt lat="47.46354" lon="6.5997">
        <ele>426.2</ele>
        <time>2017-06-11T10:36:33.999Z</time>
      </trkpt>
      <trkpt lat="47.46349" lon="6.59973">
        <ele>424.8</ele>
        <time>2017-06-11T10:36:34.999Z</time>
      </trkpt>
      <trkpt lat="47.46345" lon="6.59974">
        <ele>424.2</ele>
        <time>2017-06-11T10:36:35.999Z</time>
      </trkpt>
      <trkpt lat="47.46343" lon="6.59975">
        <ele>424.1</ele>
        <time>2017-06-11T10:36:36.999Z</time>
      </trkpt>
      <trkpt lat="47.4634" lon="6.59976">
        <ele>424</ele>
        <time>2017-06-11T10:36:37.999Z</time>
      </trkpt>
      <trkpt lat="47.46335" lon="6.59979">
        <ele>423.1</ele>
        <time>2017-06-11T10:36:38.999Z</time>
      </trkpt>
      <trkpt lat="47.46329" lon="6.59982">
        <ele>422.6</ele>
        <time>2017-06-11T10:36:39.999Z</time>
      </trkpt>
      <trkpt lat="47.46321" lon="6.59986">
        <ele>421.1</ele>
        <time>2017-06-11T10:36:40.999Z</time>
      </trkpt>
      <trkpt lat="47.46315" lon="6.59988">
        <ele>420</ele>
        <time>2017-06-11T10:36:41.999Z</time>
      </trkpt>
      <trkpt lat="47.46309" lon="6.5999">
        <ele>419.7</ele>
        <time>2017-06-11T10:36:42.999Z</time>
      </trkpt>
      <trkpt lat="47.46306" lon="6.59991">
        <ele>419.6</ele>
        <time>2017-06-11T10:36:43.999Z</time>
      </trkpt>
      <trkpt lat="47.46305" lon="6.59992">
        <ele>419.5</ele>
        <time>2017-06-11T10:36:44.999Z</time>
      </trkpt>
      <trkpt lat="47.46301" lon="6.59992">
        <ele>418.3</ele>
        <time>2017-06-11T10:36:55.999Z</time>
      </trkpt>
      <trkpt lat="47.463" lon="6.59991">
        <ele>418.2</ele>
        <time>2017-06-11T10:36:56.999Z</time>
      </trkpt>
      <trkpt lat="47.46297" lon="6.59992">
        <ele>417.7</ele>
        <time>2017-06-11T10:36:58.999Z</time>
      </trkpt>
      <trkpt lat="47.46294" lon="6.59994">
        <ele>417.5</ele>
        <time>2017-06-11T10:36:59.999Z</time>
      </trkpt>
      <trkpt lat="47.46291" lon="6.59995">
        <ele>416.7</ele>
        <time>2017-06-11T10:37:02.999Z</time>
      </trkpt>
      <trkpt lat="47.46289" lon="6.59996">
        <ele>416.5</ele>
        <time>2017-06-11T10:37:03.999Z</time>
      </trkpt>
      <trkpt lat="47.46287" lon="6.59998">
        <ele>416.4</ele>
        <time>2017-06-11T10:37:04.999Z</time>
      </trkpt>
      <trkpt lat="47.46283" lon="6.6">
        <ele>416.3</ele>
        <time>2017-06-11T10:37:05.999Z</time>
      </trkpt>
      <trkpt lat="47.46281" lon="6.60002">
        <ele>416.3</ele>
        <time>2017-06-11T10:37:06.999Z</time>
      </trkpt>
      <trkpt lat="47.46275" lon="6.60005">
        <ele>416.3</ele>
        <time>2017-06-11T10:37:07.999Z</time>
      </trkpt>
      <trkpt lat="47.46273" lon="6.60008">
        <ele>416.2</ele>
        <time>2017-06-11T10:37:08.999Z</time>
      </trkpt>
      <trkpt lat="47.4627" lon="6.60011">
        <ele>416.1</ele>
        <time>2017-06-11T10:37:09.999Z</time>
      </trkpt>
      <trkpt lat="47.46266" lon="6.60014">
        <ele>416.2</ele>
        <time>2017-06-11T10:37:10.999Z</time>
      </trkpt>
      <trkpt lat="47.46264" lon="6.60015">
        <ele>416.2</ele>
        <time>2017-06-11T10:37:11.999Z</time>
      </trkpt>
      <trkpt lat="47.46261" lon="6.60014">
        <ele>416.1</ele>
        <time>2017-06-11T10:37:12.999Z</time>
      </trkpt>
      <trkpt lat="47.46256" lon="6.60014">
        <ele>415.9</ele>
        <time>2017-06-11T10:37:13.999Z</time>
      </trkpt>
      <trkpt lat="47.46254" lon="6.60017">
        <ele>415.8</ele>
        <time>2017-06-11T10:37:14.999Z</time>
      </trkpt>
      <trkpt lat="47.46252" lon="6.60019">
        <ele>415.6</ele>
        <time>2017-06-11T10:37:15.999Z</time>
      </trkpt>
      <trkpt lat="47.46248" lon="6.6002">
        <ele>415.3</ele>
        <time>2017-06-11T10:37:16.999Z</time>
      </trkpt>
      <trkpt lat="47.46242" lon="6.6002">
        <ele>415.2</ele>
        <time>2017-06-11T10:37:17.999Z</time>
      </trkpt>
      <trkpt lat="47.46236" lon="6.60023">
        <ele>414.9</ele>
        <time>2017-06-11T10:37:18.999Z</time>
      </trkpt>
      <trkpt lat="47.46233" lon="6.60026">
        <ele>414.7</ele>
        <time>2017-06-11T10:37:19.999Z</time>
      </trkpt>
      <trkpt lat="47.4623" lon="6.60028">
        <ele>414.4</ele>
        <time>2017-06-11T10:37:20.999Z</time>
      </trkpt>
      <trkpt lat="47.46227" lon="6.60029">
        <ele>414.1</ele>
        <time>2017-06-11T10:37:21.999Z</time>
      </trkpt>
      <trkpt lat="47.46224" lon="6.60031">
        <ele>413.9</ele>
        <time>2017-06-11T10:37:22.999Z</time>
      </trkpt>
      <trkpt lat="47.4622" lon="6.60033">
        <ele>413.6</ele>
        <time>2017-06-11T10:37:23.999Z</time>
      </trkpt>
      <trkpt lat="47.46216" lon="6.60035">
        <ele>411.3</ele>
        <time>2017-06-11T10:37:24.999Z</time>
      </trkpt>
      <trkpt lat="47.46212" lon="6.60039">
        <ele>408.7</ele>
        <time>2017-06-11T10:37:25.999Z</time>
      </trkpt>
      <trkpt lat="47.46207" lon="6.60043">
        <ele>407.2</ele>
        <time>2017-06-11T10:37:26.999Z</time>
      </trkpt>
      <trkpt lat="47.46201" lon="6.60046">
        <ele>405.6</ele>
        <time>2017-06-11T10:37:27.999Z</time>
      </trkpt>
      <trkpt lat="47.46195" lon="6.6005">
        <ele>403.6</ele>
        <time>2017-06-11T10:37:28.999Z</time>
      </trkpt>
      <trkpt lat="47.46188" lon="6.60055">
        <ele>402.3</ele>
        <time>2017-06-11T10:37:29.999Z</time>
      </trkpt>
      <trkpt lat="47.46186" lon="6.60058">
        <ele>402.2</ele>
        <time>2017-06-11T10:37:30.999Z</time>
      </trkpt>
      <trkpt lat="47.46181" lon="6.60063">
        <ele>402</ele>
        <time>2017-06-11T10:37:31.999Z</time>
      </trkpt>
      <trkpt lat="47.46174" lon="6.60063">
        <ele>401.8</ele>
        <time>2017-06-11T10:37:32.999Z</time>
      </trkpt>
      <trkpt lat="47.4617" lon="6.60057">
        <ele>401.5</ele>
        <time>2017-06-11T10:37:33.999Z</time>
      </trkpt>
      <trkpt lat="47.46171" lon="6.6005">
        <ele>401.2</ele>
        <time>2017-06-11T10:37:34.999Z</time>
      </trkpt>
      <trkpt lat="47.46172" lon="6.60046">
        <ele>401</ele>
        <time>2017-06-11T10:37:35.999Z</time>
      </trkpt>
      <trkpt lat="47.46172" lon="6.60042">
        <ele>400.7</ele>
        <time>2017-06-11T10:37:36.999Z</time>
      </trkpt>
      <trkpt lat="47.4617" lon="6.60038">
        <ele>400.3</ele>
        <time>2017-06-11T10:37:38.999Z</time>
      </trkpt>
      <trkpt lat="47.46167" lon="6.60033">
        <ele>400.2</ele>
        <time>2017-06-11T10:37:39.999Z</time>
      </trkpt>
      <trkpt lat="47.46165" lon="6.60028">
        <ele>400</ele>
        <time>2017-06-11T10:37:41.999Z</time>
      </trkpt>
      <trkpt lat="47.46165" lon="6.60024">
        <ele>399.9</ele>
        <time>2017-06-11T10:37:42.999Z</time>
      </trkpt>
      <trkpt lat="47.46165" lon="6.6002">
        <ele>399.8</ele>
        <time>2017-06-11T10:37:43.999Z</time>
      </trkpt>
      <trkpt lat="47.46164" lon="6.60017">
        <ele>399.9</ele>
        <time>2017-06-11T10:37:44.999Z</time>
      </trkpt>
      <trkpt lat="47.46164" lon="6.60013">
        <ele>399.8</ele>
        <time>2017-06-11T10:37:45.999Z</time>
      </trkpt>
      <trkpt lat="47.46164" lon="6.60009">
        <ele>399.8</ele>
        <time>2017-06-11T10:37:46.999Z</time>
      </trkpt>
      <trkpt lat="47.46164" lon="6.60005">
        <ele>399.8</ele>
        <time>2017-06-11T10:37:47.999Z</time>
      </trkpt>
      <trkpt lat="47.46164" lon="6.60001">
        <ele>399.7</ele>
        <time>2017-06-11T10:37:48.999Z</time>
      </trkpt>
      <trkpt lat="47.46164" lon="6.59997">
        <ele>399.7</ele>
        <time>2017-06-11T10:37:49.999Z</time>
      </trkpt>
      <trkpt lat="47.46163" lon="6.59993">
        <ele>399.6</ele>
        <time>2017-06-11T10:37:50.999Z</time>
      </trkpt>
      <trkpt lat="47.46162" lon="6.59989">
        <ele>399.8</ele>
        <time>2017-06-11T10:37:51.999Z</time>
      </trkpt>
      <trkpt lat="47.46162" lon="6.59986">
        <ele>399.9</ele>
        <time>2017-06-11T10:37:52.999Z</time>
      </trkpt>
      <trkpt lat="47.4616" lon="6.59982">
        <ele>400</ele>
        <time>2017-06-11T10:37:53.999Z</time>
      </trkpt>
      <trkpt lat="47.46157" lon="6.59978">
        <ele>400</ele>
        <time>2017-06-11T10:37:54.999Z</time>
      </trkpt>
      <trkpt lat="47.46155" lon="6.59975">
        <ele>400.1</ele>
        <time>2017-06-11T10:37:55.999Z</time>
      </trkpt>
      <trkpt lat="47.46153" lon="6.5997">
        <ele>400.1</ele>
        <time>2017-06-11T10:37:56.999Z</time>
      </trkpt>
      <trkpt lat="47.46151" lon="6.59964">
        <ele>399.9</ele>
        <time>2017-06-11T10:37:57.999Z</time>
      </trkpt>
      <trkpt lat="47.4615" lon="6.59958">
        <ele>399.9</ele>
        <time>2017-06-11T10:37:58.999Z</time>
      </trkpt>
      <trkpt lat="47.46149" lon="6.59953">
        <ele>399.9</ele>
        <time>2017-06-11T10:37:59.999Z</time>
      </trkpt>
      <trkpt lat="47.46145" lon="6.59947">
        <ele>399.9</ele>
        <time>2017-06-11T10:38:00.999Z</time>
      </trkpt>
      <trkpt lat="47.46142" lon="6.59944">
        <ele>399.7</ele>
        <time>2017-06-11T10:38:02.999Z</time>
      </trkpt>
      <trkpt lat="47.46141" lon="6.59941">
        <ele>399.5</ele>
        <time>2017-06-11T10:38:03.999Z</time>
      </trkpt>
      <trkpt lat="47.46142" lon="6.59936">
        <ele>399.1</ele>
        <time>2017-06-11T10:38:05.999Z</time>
      </trkpt>
      <trkpt lat="47.46141" lon="6.59933">
        <ele>398.9</ele>
        <time>2017-06-11T10:38:06.999Z</time>
      </trkpt>
      <trkpt lat="47.46141" lon="6.59931">
        <ele>398.7</ele>
        <time>2017-06-11T10:38:07.999Z</time>
      </trkpt>
      <trkpt lat="47.46142" lon="6.59926">
        <ele>398.6</ele>
        <time>2017-06-11T10:38:08.999Z</time>
      </trkpt>
      <trkpt lat="47.46143" lon="6.59923">
        <ele>398.4</ele>
        <time>2017-06-11T10:38:09.999Z</time>
      </trkpt>
      <trkpt lat="47.46144" lon="6.59917">
        <ele>398.2</ele>
        <time>2017-06-11T10:38:10.999Z</time>
      </trkpt>
      <trkpt lat="47.46144" lon="6.59912">
        <ele>398</ele>
        <time>2017-06-11T10:38:11.999Z</time>
      </trkpt>
      <trkpt lat="47.46144" lon="6.59909">
        <ele>397.8</ele>
        <time>2017-06-11T10:38:12.999Z</time>
      </trkpt>
      <trkpt lat="47.46144" lon="6.59904">
        <ele>397.4</ele>
        <time>2017-06-11T10:38:14.999Z</time>
      </trkpt>
      <trkpt lat="47.46143" lon="6.59902">
        <ele>397.2</ele>
        <time>2017-06-11T10:38:15.999Z</time>
      </trkpt>
      <trkpt lat="47.46143" lon="6.59895">
        <ele>397</ele>
        <time>2017-06-11T10:38:16.999Z</time>
      </trkpt>
      <trkpt lat="47.46145" lon="6.59889">
        <ele>396.8</ele>
        <time>2017-06-11T10:38:17.999Z</time>
      </trkpt>
      <trkpt lat="47.46146" lon="6.59883">
        <ele>396.6</ele>
        <time>2017-06-11T10:38:18.999Z</time>
      </trkpt>
      <trkpt lat="47.46148" lon="6.5988">
        <ele>396</ele>
        <time>2017-06-11T10:38:21.999Z</time>
      </trkpt>
      <trkpt lat="47.4615" lon="6.59874">
        <ele>395.8</ele>
        <time>2017-06-11T10:38:22.999Z</time>
      </trkpt>
      <trkpt lat="47.46151" lon="6.59868">
        <ele>395.7</ele>
        <time>2017-06-11T10:38:24.999Z</time>
      </trkpt>
      <trkpt lat="47.46152" lon="6.59864">
        <ele>395.6</ele>
        <time>2017-06-11T10:38:25.999Z</time>
      </trkpt>
      <trkpt lat="47.46152" lon="6.59859">
        <ele>395.5</ele>
        <time>2017-06-11T10:38:26.999Z</time>
      </trkpt>
      <trkpt lat="47.46151" lon="6.59853">
        <ele>395.4</ele>
        <time>2017-06-11T10:38:27.999Z</time>
      </trkpt>
      <trkpt lat="47.46154" lon="6.5985">
        <ele>395.1</ele>
        <time>2017-06-11T10:38:29.999Z</time>
      </trkpt>
      <trkpt lat="47.46156" lon="6.59849">
        <ele>395</ele>
        <time>2017-06-11T10:38:30.999Z</time>
      </trkpt>
      <trkpt lat="47.46158" lon="6.59846">
        <ele>394.6</ele>
        <time>2017-06-11T10:38:32.999Z</time>
      </trkpt>
      <trkpt lat="47.46159" lon="6.59839">
        <ele>394.5</ele>
        <time>2017-06-11T10:38:33.999Z</time>
      </trkpt>
      <trkpt lat="47.46157" lon="6.59832">
        <ele>394.3</ele>
        <time>2017-06-11T10:38:34.999Z</time>
      </trkpt>
      <trkpt lat="47.46155" lon="6.59828">
        <ele>394.2</ele>
        <time>2017-06-11T10:38:35.999Z</time>
      </trkpt>
      <trkpt lat="47.46149" lon="6.59826">
        <ele>393.9</ele>
        <time>2017-06-11T10:38:36.999Z</time>
      </trkpt>
      <trkpt lat="47.46145" lon="6.5982">
        <ele>393.7</ele>
        <time>2017-06-11T10:38:37.999Z</time>
      </trkpt>
      <trkpt lat="47.46141" lon="6.59814">
        <ele>393.4</ele>
        <time>2017-06-11T10:38:38.999Z</time>
      </trkpt>
      <trkpt lat="47.46137" lon="6.59809">
        <ele>393</ele>
        <time>2017-06-11T10:38:39.999Z</time>
      </trkpt>
      <trkpt lat="47.46135" lon="6.59805">
        <ele>389.2</ele>
        <time>2017-06-11T10:38:40.999Z</time>
      </trkpt>
      <trkpt lat="47.46131" lon="6.59803">
        <ele>388.9</ele>
        <time>2017-06-11T10:38:41.999Z</time>
      </trkpt>
      <trkpt lat="47.4613" lon="6.59802">
        <ele>388.6</ele>
        <time>2017-06-11T10:38:42.999Z</time>
      </trkpt>
      <trkpt lat="47.46126" lon="6.59798">
        <ele>388.2</ele>
        <time>2017-06-11T10:38:43.999Z</time>
      </trkpt>
      <trkpt lat="47.46123" lon="6.59793">
        <ele>387.7</ele>
        <time>2017-06-11T10:38:44.999Z</time>
      </trkpt>
      <trkpt lat="47.4612" lon="6.59789">
        <ele>387.2</ele>
        <time>2017-06-11T10:38:45.999Z</time>
      </trkpt>
      <trkpt lat="47.46117" lon="6.59782">
        <ele>386.8</ele>
        <time>2017-06-11T10:38:46.999Z</time>
      </trkpt>
      <trkpt lat="47.46113" lon="6.59777">
        <ele>386.5</ele>
        <time>2017-06-11T10:38:47.999Z</time>
      </trkpt>
      <trkpt lat="47.46111" lon="6.59771">
        <ele>385.8</ele>
        <time>2017-06-11T10:38:49.999Z</time>
      </trkpt>
      <trkpt lat="47.46112" lon="6.59769">
        <ele>385.5</ele>
        <time>2017-06-11T10:38:50.999Z</time>
      </trkpt>
      <trkpt lat="47.46111" lon="6.59763">
        <ele>384.7</ele>
        <time>2017-06-11T10:38:54.999Z</time>
      </trkpt>
      <trkpt lat="47.46111" lon="6.59761">
        <ele>384.6</ele>
        <time>2017-06-11T10:38:55.999Z</time>
      </trkpt>
      <trkpt lat="47.46111" lon="6.59756">
        <ele>384.4</ele>
        <time>2017-06-11T10:38:56.999Z</time>
      </trkpt>
      <trkpt lat="47.46111" lon="6.5975">
        <ele>384.2</ele>
        <time>2017-06-11T10:38:57.999Z</time>
      </trkpt>
      <trkpt lat="47.46113" lon="6.59744">
        <ele>383.9</ele>
        <time>2017-06-11T10:39:02.999Z</time>
      </trkpt>
      <trkpt lat="47.46113" lon="6.59741">
        <ele>383.9</ele>
        <time>2017-06-11T10:39:03.999Z</time>
      </trkpt>
      <trkpt lat="47.46113" lon="6.59738">
        <ele>383.9</ele>
        <time>2017-06-11T10:39:06.999Z</time>
      </trkpt>
      <trkpt lat="47.46114" lon="6.59733">
        <ele>383.9</ele>
        <time>2017-06-11T10:39:07.999Z</time>
      </trkpt>
      <trkpt lat="47.46115" lon="6.59727">
        <ele>383.7</ele>
        <time>2017-06-11T10:39:11.999Z</time>
      </trkpt>
      <trkpt lat="47.46116" lon="6.59726">
        <ele>383.7</ele>
        <time>2017-06-11T10:39:12.999Z</time>
      </trkpt>
      <trkpt lat="47.46116" lon="6.5972">
        <ele>383.8</ele>
        <time>2017-06-11T10:39:14.999Z</time>
      </trkpt>
      <trkpt lat="47.46117" lon="6.59718">
        <ele>383.9</ele>
        <time>2017-06-11T10:39:15.999Z</time>
      </trkpt>
      <trkpt lat="47.46119" lon="6.59712">
        <ele>384.2</ele>
        <time>2017-06-11T10:39:19.999Z</time>
      </trkpt>
      <trkpt lat="47.46119" lon="6.59711">
        <ele>384.1</ele>
        <time>2017-06-11T10:39:20.999Z</time>
      </trkpt>
      <trkpt lat="47.4612" lon="6.59705">
        <ele>384.2</ele>
        <time>2017-06-11T10:39:25.999Z</time>
      </trkpt>
      <trkpt lat="47.4612" lon="6.59703">
        <ele>384.2</ele>
        <time>2017-06-11T10:39:26.999Z</time>
      </trkpt>
      <trkpt lat="47.4612" lon="6.59696">
        <ele>384.6</ele>
        <time>2017-06-11T10:39:30.999Z</time>
      </trkpt>
      <trkpt lat="47.46119" lon="6.5969">
        <ele>384.8</ele>
        <time>2017-06-11T10:39:31.999Z</time>
      </trkpt>
      <trkpt lat="47.46119" lon="6.59689">
        <ele>385</ele>
        <time>2017-06-11T10:39:32.999Z</time>
      </trkpt>
      <trkpt lat="47.4612" lon="6.59683">
        <ele>385.1</ele>
        <time>2017-06-11T10:39:33.999Z</time>
      </trkpt>
      <trkpt lat="47.46119" lon="6.59678">
        <ele>385.7</ele>
        <time>2017-06-11T10:39:37.999Z</time>
      </trkpt>
      <trkpt lat="47.46118" lon="6.59677">
        <ele>385.8</ele>
        <time>2017-06-11T10:39:38.999Z</time>
      </trkpt>
      <trkpt lat="47.46118" lon="6.5967">
        <ele>386.5</ele>
        <time>2017-06-11T10:39:43.999Z</time>
      </trkpt>
      <trkpt lat="47.46118" lon="6.59668">
        <ele>386.7</ele>
        <time>2017-06-11T10:39:44.999Z</time>
      </trkpt>
      <trkpt lat="47.46116" lon="6.59663">
        <ele>387</ele>
        <time>2017-06-11T10:39:47.999Z</time>
      </trkpt>
      <trkpt lat="47.46116" lon="6.59661">
        <ele>387.2</ele>
        <time>2017-06-11T10:39:48.999Z</time>
      </trkpt>
      <trkpt lat="47.46114" lon="6.59655">
        <ele>387.6</ele>
        <time>2017-06-11T10:39:52.999Z</time>
      </trkpt>
      <trkpt lat="47.46112" lon="6.5965">
        <ele>387.7</ele>
        <time>2017-06-11T10:39:53.999Z</time>
      </trkpt>
      <trkpt lat="47.46111" lon="6.59645">
        <ele>388.1</ele>
        <time>2017-06-11T10:39:57.999Z</time>
      </trkpt>
      <trkpt lat="47.4611" lon="6.59644">
        <ele>388.1</ele>
        <time>2017-06-11T10:39:58.999Z</time>
      </trkpt>
      <trkpt lat="47.46108" lon="6.59639">
        <ele>388.2</ele>
        <time>2017-06-11T10:40:01.999Z</time>
      </trkpt>
      <trkpt lat="47.46108" lon="6.59637">
        <ele>388.2</ele>
        <time>2017-06-11T10:40:02.999Z</time>
      </trkpt>
      <trkpt lat="47.46107" lon="6.59631">
        <ele>388.3</ele>
        <time>2017-06-11T10:40:05.999Z</time>
      </trkpt>
      <trkpt lat="47.46107" lon="6.59629">
        <ele>388.2</ele>
        <time>2017-06-11T10:40:06.999Z</time>
      </trkpt>
      <trkpt lat="47.46107" lon="6.59624">
        <ele>388.3</ele>
        <time>2017-06-11T10:40:09.999Z</time>
      </trkpt>
      <trkpt lat="47.46107" lon="6.59622">
        <ele>388.5</ele>
        <time>2017-06-11T10:40:10.999Z</time>
      </trkpt>
      <trkpt lat="47.46106" lon="6.59618">
        <ele>388.6</ele>
        <time>2017-06-11T10:40:12.999Z</time>
      </trkpt>
      <trkpt lat="47.46106" lon="6.59615">
        <ele>388.7</ele>
        <time>2017-06-11T10:40:13.999Z</time>
      </trkpt>
      <trkpt lat="47.46107" lon="6.59609">
        <ele>389.3</ele>
        <time>2017-06-11T10:40:17.999Z</time>
      </trkpt>
      <trkpt lat="47.46107" lon="6.59608">
        <ele>389.4</ele>
        <time>2017-06-11T10:40:18.999Z</time>
      </trkpt>
      <trkpt lat="47.46107" lon="6.59606">
        <ele>389.6</ele>
        <time>2017-06-11T10:40:19.999Z</time>
      </trkpt>
      <trkpt lat="47.46108" lon="6.59601">
        <ele>389.8</ele>
        <time>2017-06-11T10:40:20.999Z</time>
      </trkpt>
      <trkpt lat="47.46108" lon="6.59594">
        <ele>390.5</ele>
        <time>2017-06-11T10:40:24.999Z</time>
      </trkpt>
      <trkpt lat="47.46108" lon="6.59593">
        <ele>390.7</ele>
        <time>2017-06-11T10:40:25.999Z</time>
      </trkpt>
      <trkpt lat="47.46108" lon="6.59588">
        <ele>391.1</ele>
        <time>2017-06-11T10:40:27.999Z</time>
      </trkpt>
      <trkpt lat="47.46107" lon="6.59586">
        <ele>391.3</ele>
        <time>2017-06-11T10:40:28.999Z</time>
      </trkpt>
      <trkpt lat="47.46106" lon="6.59582">
        <ele>391.7</ele>
        <time>2017-06-11T10:40:31.999Z</time>
      </trkpt>
      <trkpt lat="47.46105" lon="6.5958">
        <ele>391.8</ele>
        <time>2017-06-11T10:40:32.999Z</time>
      </trkpt>
      <trkpt lat="47.46101" lon="6.59576">
        <ele>392.1</ele>
        <time>2017-06-11T10:40:36.999Z</time>
      </trkpt>
      <trkpt lat="47.46101" lon="6.59576">
        <ele>392.1</ele>
        <time>2017-06-11T10:40:37.999Z</time>
      </trkpt>
      <trkpt lat="47.46098" lon="6.59571">
        <ele>391.9</ele>
        <time>2017-06-11T10:40:42.999Z</time>
      </trkpt>
      <trkpt lat="47.46097" lon="6.59569">
        <ele>391.8</ele>
        <time>2017-06-11T10:40:43.999Z</time>
      </trkpt>
      <trkpt lat="47.46095" lon="6.59565">
        <ele>391.7</ele>
        <time>2017-06-11T10:40:44.999Z</time>
      </trkpt>
      <trkpt lat="47.46094" lon="6.59563">
        <ele>391.6</ele>
        <time>2017-06-11T10:40:45.999Z</time>
      </trkpt>
      <trkpt lat="47.46092" lon="6.59559">
        <ele>391.4</ele>
        <time>2017-06-11T10:40:48.999Z</time>
      </trkpt>
      <trkpt lat="47.46091" lon="6.59557">
        <ele>391.3</ele>
        <time>2017-06-11T10:40:49.999Z</time>
      </trkpt>
      <trkpt lat="47.46088" lon="6.59554">
        <ele>391</ele>
        <time>2017-06-11T10:40:51.999Z</time>
      </trkpt>
      <trkpt lat="47.46087" lon="6.59553">
        <ele>390.9</ele>
        <time>2017-06-11T10:40:52.999Z</time>
      </trkpt>
      <trkpt lat="47.46085" lon="6.5955">
        <ele>390.7</ele>
        <time>2017-06-11T10:40:54.999Z</time>
      </trkpt>
      <trkpt lat="47.46083" lon="6.59548">
        <ele>390.5</ele>
        <time>2017-06-11T10:40:55.999Z</time>
      </trkpt>
      <trkpt lat="47.4608" lon="6.59546">
        <ele>390.1</ele>
        <time>2017-06-11T10:40:57.999Z</time>
      </trkpt>
      <trkpt lat="47.46079" lon="6.59544">
        <ele>390</ele>
        <time>2017-06-11T10:40:58.999Z</time>
      </trkpt>
      <trkpt lat="47.46076" lon="6.59541">
        <ele>389.6</ele>
        <time>2017-06-11T10:41:01.999Z</time>
      </trkpt>
      <trkpt lat="47.46074" lon="6.59541">
        <ele>389.5</ele>
        <time>2017-06-11T10:41:02.999Z</time>
      </trkpt>
      <trkpt lat="47.46071" lon="6.59538">
        <ele>389.4</ele>
        <time>2017-06-11T10:41:07.999Z</time>
      </trkpt>
      <trkpt lat="47.4607" lon="6.59537">
        <ele>389.6</ele>
        <time>2017-06-11T10:41:08.999Z</time>
      </trkpt>
      <trkpt lat="47.46067" lon="6.59533">
        <ele>390</ele>
        <time>2017-06-11T10:41:11.999Z</time>
      </trkpt>
      <trkpt lat="47.46066" lon="6.59532">
        <ele>390.2</ele>
        <time>2017-06-11T10:41:12.999Z</time>
      </trkpt>
      <trkpt lat="47.46065" lon="6.59527">
        <ele>390.6</ele>
        <time>2017-06-11T10:41:14.999Z</time>
      </trkpt>
      <trkpt lat="47.46064" lon="6.59525">
        <ele>390.7</ele>
        <time>2017-06-11T10:41:15.999Z</time>
      </trkpt>
      <trkpt lat="47.46062" lon="6.59522">
        <ele>391</ele>
        <time>2017-06-11T10:41:17.999Z</time>
      </trkpt>
      <trkpt lat="47.46061" lon="6.59518">
        <ele>391.2</ele>
        <time>2017-06-11T10:41:18.999Z</time>
      </trkpt>
      <trkpt lat="47.4606" lon="6.59516">
        <ele>391.2</ele>
        <time>2017-06-11T10:41:19.999Z</time>
      </trkpt>
      <trkpt lat="47.46059" lon="6.59512">
        <ele>391.3</ele>
        <time>2017-06-11T10:41:20.999Z</time>
      </trkpt>
      <trkpt lat="47.46059" lon="6.59507">
        <ele>391.5</ele>
        <time>2017-06-11T10:41:22.999Z</time>
      </trkpt>
      <trkpt lat="47.46059" lon="6.59504">
        <ele>391.5</ele>
        <time>2017-06-11T10:41:23.999Z</time>
      </trkpt>
      <trkpt lat="47.46062" lon="6.59499">
        <ele>391.6</ele>
        <time>2017-06-11T10:41:24.999Z</time>
      </trkpt>
      <trkpt lat="47.46062" lon="6.59497">
        <ele>391.8</ele>
        <time>2017-06-11T10:41:25.999Z</time>
      </trkpt>
      <trkpt lat="47.46062" lon="6.59491">
        <ele>392.4</ele>
        <time>2017-06-11T10:41:28.999Z</time>
      </trkpt>
      <trkpt lat="47.46062" lon="6.59489">
        <ele>392.5</ele>
        <time>2017-06-11T10:41:29.999Z</time>
      </trkpt>
      <trkpt lat="47.46064" lon="6.59483">
        <ele>393.4</ele>
        <time>2017-06-11T10:41:33.999Z</time>
      </trkpt>
      <trkpt lat="47.46065" lon="6.59482">
        <ele>393.6</ele>
        <time>2017-06-11T10:41:34.999Z</time>
      </trkpt>
      <trkpt lat="47.46065" lon="6.59481">
        <ele>393.8</ele>
        <time>2017-06-11T10:41:35.999Z</time>
      </trkpt>
      <trkpt lat="47.46066" lon="6.59475">
        <ele>394.1</ele>
        <time>2017-06-11T10:41:36.999Z</time>
      </trkpt>
      <trkpt lat="47.46068" lon="6.5947">
        <ele>395.1</ele>
        <time>2017-06-11T10:41:40.999Z</time>
      </trkpt>
      <trkpt lat="47.46068" lon="6.59469">
        <ele>395.3</ele>
        <time>2017-06-11T10:41:41.999Z</time>
      </trkpt>
      <trkpt lat="47.46068" lon="6.59462">
        <ele>396.3</ele>
        <time>2017-06-11T10:41:45.999Z</time>
      </trkpt>
      <trkpt lat="47.4607" lon="6.59461">
        <ele>396.5</ele>
        <time>2017-06-11T10:41:46.999Z</time>
      </trkpt>
      <trkpt lat="47.46073" lon="6.59457">
        <ele>397.3</ele>
        <time>2017-06-11T10:41:49.999Z</time>
      </trkpt>
      <trkpt lat="47.46073" lon="6.59455">
        <ele>397.5</ele>
        <time>2017-06-11T10:41:50.999Z</time>
      </trkpt>
      <trkpt lat="47.46076" lon="6.59451">
        <ele>398.3</ele>
        <time>2017-06-11T10:41:53.999Z</time>
      </trkpt>
      <trkpt lat="47.46079" lon="6.59449">
        <ele>398.6</ele>
        <time>2017-06-11T10:41:54.999Z</time>
      </trkpt>
      <trkpt lat="47.46082" lon="6.59446">
        <ele>398.9</ele>
        <time>2017-06-11T10:41:55.999Z</time>
      </trkpt>
      <trkpt lat="47.46083" lon="6.59444">
        <ele>399.2</ele>
        <time>2017-06-11T10:41:56.999Z</time>
      </trkpt>
      <trkpt lat="47.46085" lon="6.5944">
        <ele>400.4</ele>
        <time>2017-06-11T10:42:01.999Z</time>
      </trkpt>
      <trkpt lat="47.46085" lon="6.59438">
        <ele>400.6</ele>
        <time>2017-06-11T10:42:02.999Z</time>
      </trkpt>
      <trkpt lat="47.46087" lon="6.59432">
        <ele>401.6</ele>
        <time>2017-06-11T10:42:05.999Z</time>
      </trkpt>
      <trkpt lat="47.46089" lon="6.59427">
        <ele>401.9</ele>
        <time>2017-06-11T10:42:06.999Z</time>
      </trkpt>
      <trkpt lat="47.4609" lon="6.59423">
        <ele>402.4</ele>
        <time>2017-06-11T10:42:09.999Z</time>
      </trkpt>
      <trkpt lat="47.46091" lon="6.59421">
        <ele>402.5</ele>
        <time>2017-06-11T10:42:10.999Z</time>
      </trkpt>
      <trkpt lat="47.46091" lon="6.59419">
        <ele>402.7</ele>
        <time>2017-06-11T10:42:11.999Z</time>
      </trkpt>
      <trkpt lat="47.46091" lon="6.59413">
        <ele>402.9</ele>
        <time>2017-06-11T10:42:12.999Z</time>
      </trkpt>
      <trkpt lat="47.4609" lon="6.59407">
        <ele>403.5</ele>
        <time>2017-06-11T10:42:16.999Z</time>
      </trkpt>
      <trkpt lat="47.46089" lon="6.59402">
        <ele>403.6</ele>
        <time>2017-06-11T10:42:17.999Z</time>
      </trkpt>
      <trkpt lat="47.46089" lon="6.594">
        <ele>403.7</ele>
        <time>2017-06-11T10:42:18.999Z</time>
      </trkpt>
      <trkpt lat="47.46089" lon="6.59394">
        <ele>403.8</ele>
        <time>2017-06-11T10:42:19.999Z</time>
      </trkpt>
      <trkpt lat="47.46088" lon="6.59389">
        <ele>403.9</ele>
        <time>2017-06-11T10:42:20.999Z</time>
      </trkpt>
      <trkpt lat="47.46088" lon="6.59387">
        <ele>404.1</ele>
        <time>2017-06-11T10:42:21.999Z</time>
      </trkpt>
      <trkpt lat="47.46087" lon="6.59384">
        <ele>404.3</ele>
        <time>2017-06-11T10:42:24.999Z</time>
      </trkpt>
      <trkpt lat="47.46086" lon="6.59381">
        <ele>404.4</ele>
        <time>2017-06-11T10:42:25.999Z</time>
      </trkpt>
      <trkpt lat="47.46085" lon="6.59375">
        <ele>404.2</ele>
        <time>2017-06-11T10:42:29.999Z</time>
      </trkpt>
      <trkpt lat="47.46084" lon="6.59373">
        <ele>404.2</ele>
        <time>2017-06-11T10:42:30.999Z</time>
      </trkpt>
      <trkpt lat="47.46083" lon="6.59367">
        <ele>404.1</ele>
        <time>2017-06-11T10:42:32.999Z</time>
      </trkpt>
      <trkpt lat="47.46084" lon="6.59365">
        <ele>404.1</ele>
        <time>2017-06-11T10:42:33.999Z</time>
      </trkpt>
      <trkpt lat="47.46083" lon="6.59361">
        <ele>404.1</ele>
        <time>2017-06-11T10:42:35.999Z</time>
      </trkpt>
      <trkpt lat="47.46081" lon="6.59356">
        <ele>404.3</ele>
        <time>2017-06-11T10:42:36.999Z</time>
      </trkpt>
      <trkpt lat="47.46081" lon="6.59353">
        <ele>404.5</ele>
        <time>2017-06-11T10:42:37.999Z</time>
      </trkpt>
      <trkpt lat="47.4608" lon="6.59347">
        <ele>404.7</ele>
        <time>2017-06-11T10:42:38.999Z</time>
      </trkpt>
      <trkpt lat="47.46081" lon="6.59342">
        <ele>405.2</ele>
        <time>2017-06-11T10:42:40.999Z</time>
      </trkpt>
      <trkpt lat="47.4608" lon="6.59339">
        <ele>405.6</ele>
        <time>2017-06-11T10:42:41.999Z</time>
      </trkpt>
      <trkpt lat="47.4608" lon="6.59334">
        <ele>406.3</ele>
        <time>2017-06-11T10:42:43.999Z</time>
      </trkpt>
      <trkpt lat="47.4608" lon="6.59331">
        <ele>406.7</ele>
        <time>2017-06-11T10:42:44.999Z</time>
      </trkpt>
      <trkpt lat="47.4608" lon="6.59327">
        <ele>407.3</ele>
        <time>2017-06-11T10:42:46.999Z</time>
      </trkpt>
      <trkpt lat="47.4608" lon="6.59325">
        <ele>407.6</ele>
        <time>2017-06-11T10:42:47.999Z</time>
      </trkpt>
      <trkpt lat="47.46079" lon="6.5932">
        <ele>408</ele>
        <time>2017-06-11T10:42:49.999Z</time>
      </trkpt>
      <trkpt lat="47.46078" lon="6.59318">
        <ele>408.2</ele>
        <time>2017-06-11T10:42:50.999Z</time>
      </trkpt>
      <trkpt lat="47.46079" lon="6.59312">
        <ele>408.6</ele>
        <time>2017-06-11T10:42:52.999Z</time>
      </trkpt>
      <trkpt lat="47.46079" lon="6.5931">
        <ele>408.8</ele>
        <time>2017-06-11T10:42:53.999Z</time>
      </trkpt>
      <trkpt lat="47.46077" lon="6.59304">
        <ele>409.1</ele>
        <time>2017-06-11T10:42:56.999Z</time>
      </trkpt>
      <trkpt lat="47.46076" lon="6.59303">
        <ele>409.1</ele>
        <time>2017-06-11T10:42:57.999Z</time>
      </trkpt>
      <trkpt lat="47.46075" lon="6.59297">
        <ele>409.5</ele>
        <time>2017-06-11T10:43:00.999Z</time>
      </trkpt>
      <trkpt lat="47.46075" lon="6.59292">
        <ele>409.6</ele>
        <time>2017-06-11T10:43:01.999Z</time>
      </trkpt>
      <trkpt lat="47.46074" lon="6.59286">
        <ele>410</ele>
        <time>2017-06-11T10:43:04.999Z</time>
      </trkpt>
      <trkpt lat="47.46074" lon="6.59284">
        <ele>410.1</ele>
        <time>2017-06-11T10:43:05.999Z</time>
      </trkpt>
      <trkpt lat="47.46074" lon="6.59279">
        <ele>410.2</ele>
        <time>2017-06-11T10:43:07.999Z</time>
      </trkpt>
      <trkpt lat="47.46073" lon="6.59275">
        <ele>410.2</ele>
        <time>2017-06-11T10:43:08.999Z</time>
      </trkpt>
      <trkpt lat="47.46073" lon="6.5927">
        <ele>410.3</ele>
        <time>2017-06-11T10:43:10.999Z</time>
      </trkpt>
      <trkpt lat="47.46071" lon="6.59265">
        <ele>410.3</ele>
        <time>2017-06-11T10:43:11.999Z</time>
      </trkpt>
      <trkpt lat="47.46071" lon="6.59262">
        <ele>410.2</ele>
        <time>2017-06-11T10:43:13.999Z</time>
      </trkpt>
      <trkpt lat="47.46071" lon="6.59257">
        <ele>410.3</ele>
        <time>2017-06-11T10:43:14.999Z</time>
      </trkpt>
      <trkpt lat="47.46068" lon="6.59252">
        <ele>410.6</ele>
        <time>2017-06-11T10:43:16.999Z</time>
      </trkpt>
      <trkpt lat="47.46068" lon="6.59251">
        <ele>410.7</ele>
        <time>2017-06-11T10:43:17.999Z</time>
      </trkpt>
      <trkpt lat="47.46067" lon="6.59245">
        <ele>411</ele>
        <time>2017-06-11T10:43:19.999Z</time>
      </trkpt>
      <trkpt lat="47.46067" lon="6.5924">
        <ele>411.1</ele>
        <time>2017-06-11T10:43:20.999Z</time>
      </trkpt>
      <trkpt lat="47.46066" lon="6.59238">
        <ele>411.2</ele>
        <time>2017-06-11T10:43:21.999Z</time>
      </trkpt>
      <trkpt lat="47.46065" lon="6.59233">
        <ele>411.6</ele>
        <time>2017-06-11T10:43:24.999Z</time>
      </trkpt>
      <trkpt lat="47.46062" lon="6.5922">
        <ele>411.8</ele>
        <time>2017-06-11T10:43:27.999Z</time>
      </trkpt>
      <trkpt lat="47.46061" lon="6.59215">
        <ele>412.2</ele>
        <time>2017-06-11T10:43:29.999Z</time>
      </trkpt>
      <trkpt lat="47.46059" lon="6.5921">
        <ele>412.3</ele>
        <time>2017-06-11T10:43:30.999Z</time>
      </trkpt>
      <trkpt lat="47.46057" lon="6.59204">
        <ele>413</ele>
        <time>2017-06-11T10:43:33.999Z</time>
      </trkpt>
      <trkpt lat="47.46057" lon="6.59201">
        <ele>413.2</ele>
        <time>2017-06-11T10:43:36.999Z</time>
      </trkpt>
      <trkpt lat="47.46056" lon="6.59195">
        <ele>412.9</ele>
        <time>2017-06-11T10:43:39.999Z</time>
      </trkpt>
      <trkpt lat="47.46055" lon="6.59192">
        <ele>412.9</ele>
        <time>2017-06-11T10:43:40.999Z</time>
      </trkpt>
      <trkpt lat="47.46054" lon="6.59188">
        <ele>413</ele>
        <time>2017-06-11T10:43:41.999Z</time>
      </trkpt>
      <trkpt lat="47.46052" lon="6.59181">
        <ele>413.2</ele>
        <time>2017-06-11T10:43:43.999Z</time>
      </trkpt>
      <trkpt lat="47.4605" lon="6.59174">
        <ele>413.4</ele>
        <time>2017-06-11T10:43:45.999Z</time>
      </trkpt>
      <trkpt lat="47.46049" lon="6.59169">
        <ele>413.4</ele>
        <time>2017-06-11T10:43:46.999Z</time>
      </trkpt>
      <trkpt lat="47.46049" lon="6.59166">
        <ele>413.4</ele>
        <time>2017-06-11T10:43:47.999Z</time>
      </trkpt>
      <trkpt lat="47.46047" lon="6.59164">
        <ele>413.4</ele>
        <time>2017-06-11T10:43:48.999Z</time>
      </trkpt>
      <trkpt lat="47.46043" lon="6.59154">
        <ele>413.3</ele>
        <time>2017-06-11T10:43:51.999Z</time>
      </trkpt>
      <trkpt lat="47.46042" lon="6.5915">
        <ele>413.3</ele>
        <time>2017-06-11T10:43:52.999Z</time>
      </trkpt>
      <trkpt lat="47.46041" lon="6.59146">
        <ele>413.3</ele>
        <time>2017-06-11T10:43:53.999Z</time>
      </trkpt>
      <trkpt lat="47.4604" lon="6.59142">
        <ele>413.2</ele>
        <time>2017-06-11T10:43:54.999Z</time>
      </trkpt>
      <trkpt lat="47.46038" lon="6.59138">
        <ele>413.2</ele>
        <time>2017-06-11T10:43:55.999Z</time>
      </trkpt>
      <trkpt lat="47.46036" lon="6.59133">
        <ele>413.2</ele>
        <time>2017-06-11T10:43:56.999Z</time>
      </trkpt>
      <trkpt lat="47.46035" lon="6.5913">
        <ele>413.1</ele>
        <time>2017-06-11T10:43:57.999Z</time>
      </trkpt>
      <trkpt lat="47.46034" lon="6.59127">
        <ele>412.9</ele>
        <time>2017-06-11T10:43:58.999Z</time>
      </trkpt>
      <trkpt lat="47.46032" lon="6.59123">
        <ele>412.8</ele>
        <time>2017-06-11T10:43:59.999Z</time>
      </trkpt>
      <trkpt lat="47.46031" lon="6.59118">
        <ele>412.5</ele>
        <time>2017-06-11T10:44:00.999Z</time>
      </trkpt>
      <trkpt lat="47.46029" lon="6.59114">
        <ele>412.4</ele>
        <time>2017-06-11T10:44:01.999Z</time>
      </trkpt>
      <trkpt lat="47.46028" lon="6.59109">
        <ele>412.4</ele>
        <time>2017-06-11T10:44:02.999Z</time>
      </trkpt>
      <trkpt lat="47.46025" lon="6.59099">
        <ele>412.4</ele>
        <time>2017-06-11T10:44:04.999Z</time>
      </trkpt>
      <trkpt lat="47.46019" lon="6.59082">
        <ele>411.2</ele>
        <time>2017-06-11T10:44:07.999Z</time>
      </trkpt>
      <trkpt lat="47.46016" lon="6.59072">
        <ele>410.2</ele>
        <time>2017-06-11T10:44:09.999Z</time>
      </trkpt>
      <trkpt lat="47.46011" lon="6.5906">
        <ele>408.2</ele>
        <time>2017-06-11T10:44:11.999Z</time>
      </trkpt>
      <trkpt lat="47.46009" lon="6.59055">
        <ele>408.1</ele>
        <time>2017-06-11T10:44:12.999Z</time>
      </trkpt>
      <trkpt lat="47.46008" lon="6.59051">
        <ele>407.9</ele>
        <time>2017-06-11T10:44:13.999Z</time>
      </trkpt>
      <trkpt lat="47.46004" lon="6.59042">
        <ele>407.8</ele>
        <time>2017-06-11T10:44:14.999Z</time>
      </trkpt>
      <trkpt lat="47.46001" lon="6.59035">
        <ele>407.7</ele>
        <time>2017-06-11T10:44:15.999Z</time>
      </trkpt>
      <trkpt lat="47.45962" lon="6.58941">
        <ele>402.8</ele>
        <time>2017-06-11T10:44:31.999Z</time>
      </trkpt>
      <trkpt lat="47.45956" lon="6.58934">
        <ele>403.6</ele>
        <time>2017-06-11T10:44:33.999Z</time>
      </trkpt>
      <trkpt lat="47.45943" lon="6.58923">
        <ele>404.7</ele>
        <time>2017-06-11T10:44:37.999Z</time>
      </trkpt>
      <trkpt lat="47.45931" lon="6.58911">
        <ele>405.9</ele>
        <time>2017-06-11T10:44:40.999Z</time>
      </trkpt>
      <trkpt lat="47.4592" lon="6.58894">
        <ele>406</ele>
        <time>2017-06-11T10:44:45.999Z</time>
      </trkpt>
      <trkpt lat="47.45918" lon="6.58889">
        <ele>405.6</ele>
        <time>2017-06-11T10:44:46.999Z</time>
      </trkpt>
      <trkpt lat="47.45915" lon="6.58883">
        <ele>404.5</ele>
        <time>2017-06-11T10:44:47.999Z</time>
      </trkpt>
      <trkpt lat="47.45909" lon="6.58868">
        <ele>402.7</ele>
        <time>2017-06-11T10:44:49.999Z</time>
      </trkpt>
      <trkpt lat="47.45906" lon="6.58862">
        <ele>401</ele>
        <time>2017-06-11T10:44:50.999Z</time>
      </trkpt>
      <trkpt lat="47.45904" lon="6.58856">
        <ele>399.5</ele>
        <time>2017-06-11T10:44:51.999Z</time>
      </trkpt>
      <trkpt lat="47.45894" lon="6.58829">
        <ele>397</ele>
        <time>2017-06-11T10:44:55.999Z</time>
      </trkpt>
      <trkpt lat="47.45875" lon="6.58754">
        <ele>395.3</ele>
        <time>2017-06-11T10:45:05.999Z</time>
      </trkpt>
      <trkpt lat="47.45872" lon="6.5873">
        <ele>393.9</ele>
        <time>2017-06-11T10:45:08.999Z</time>
      </trkpt>
      <trkpt lat="47.45872" lon="6.58724">
        <ele>393.1</ele>
        <time>2017-06-11T10:45:09.999Z</time>
      </trkpt>
      <trkpt lat="47.45862" lon="6.58675">
        <ele>395.6</ele>
        <time>2017-06-11T10:45:17.999Z</time>
      </trkpt>
      <trkpt lat="47.45787" lon="6.58517">
        <ele>428.1</ele>
        <time>2017-06-11T10:45:44.517Z</time>
      </trkpt>
      <trkpt lat="47.45785" lon="6.58514">
        <ele>424.7</ele>
        <time>2017-06-11T10:45:46.528Z</time>
      </trkpt>
      <trkpt lat="47.4578" lon="6.58508">
        <ele>414.9</ele>
        <time>2017-06-11T10:45:50.529Z</time>
      </trkpt>
      <trkpt lat="47.45777" lon="6.58506">
        <ele>413.7</ele>
        <time>2017-06-11T10:45:51.529Z</time>
      </trkpt>
      <trkpt lat="47.45773" lon="6.58504">
        <ele>411.7</ele>
        <time>2017-06-11T10:45:52.529Z</time>
      </trkpt>
      <trkpt lat="47.4577" lon="6.58498">
        <ele>406.9</ele>
        <time>2017-06-11T10:45:53.529Z</time>
      </trkpt>
      <trkpt lat="47.45763" lon="6.58478">
        <ele>402.9</ele>
        <time>2017-06-11T10:45:56.529Z</time>
      </trkpt>
      <trkpt lat="47.45759" lon="6.58473">
        <ele>404.2</ele>
        <time>2017-06-11T10:45:57.529Z</time>
      </trkpt>
      <trkpt lat="47.45754" lon="6.58458">
        <ele>401.6</ele>
        <time>2017-06-11T10:45:59.529Z</time>
      </trkpt>
      <trkpt lat="47.45737" lon="6.58424">
        <ele>398.8</ele>
        <time>2017-06-11T10:46:05.000Z</time>
      </trkpt>
      <trkpt lat="47.4572" lon="6.584">
        <ele>396.1</ele>
        <time>2017-06-11T10:46:08.000Z</time>
      </trkpt>
      <trkpt lat="47.45587" lon="6.58234">
        <ele>402.8</ele>
        <time>2017-06-11T10:46:37.000Z</time>
      </trkpt>
      <trkpt lat="47.45513" lon="6.58102">
        <ele>392.3</ele>
        <time>2017-06-11T10:46:56.000Z</time>
      </trkpt>
      <trkpt lat="47.45443" lon="6.57982">
        <ele>388.5</ele>
        <time>2017-06-11T10:47:15.000Z</time>
      </trkpt>
      <trkpt lat="47.45258" lon="6.57764">
        <ele>379.5</ele>
        <time>2017-06-11T10:48:14.000Z</time>
      </trkpt>
      <trkpt lat="47.4533" lon="6.57905">
        <ele>370.9</ele>
        <time>2017-06-11T10:48:35.000Z</time>
      </trkpt>
      <trkpt lat="47.45408" lon="6.58053">
        <ele>362.8</ele>
        <time>2017-06-11T10:48:49.000Z</time>
      </trkpt>
      <trkpt lat="47.45266" lon="6.57925">
        <ele>339.4</ele>
        <time>2017-06-11T10:49:54.000Z</time>
      </trkpt>
      <trkpt lat="47.45064" lon="6.58092">
        <ele>343.2</ele>
        <time>2017-06-11T10:53:20.808Z</time>
      </trkpt>
      <trkpt lat="47.45065" lon="6.58097">
        <ele>343.1</ele>
        <time>2017-06-11T10:53:21.824Z</time>
      </trkpt>
      <trkpt lat="47.45068" lon="6.58102">
        <ele>348</ele>
        <time>2017-06-11T10:53:22.819Z</time>
      </trkpt>
      <trkpt lat="47.45066" lon="6.58109">
        <ele>347</ele>
        <time>2017-06-11T10:53:23.819Z</time>
      </trkpt>
      <trkpt lat="47.45068" lon="6.5811">
        <ele>349.2</ele>
        <time>2017-06-11T10:53:24.819Z</time>
      </trkpt>
      <trkpt lat="47.4507" lon="6.58114">
        <ele>346.7</ele>
        <time>2017-06-11T10:53:25.819Z</time>
      </trkpt>
      <trkpt lat="47.45073" lon="6.58119">
        <ele>347.5</ele>
        <time>2017-06-11T10:53:26.819Z</time>
      </trkpt>
      <trkpt lat="47.45073" lon="6.58124">
        <ele>345.5</ele>
        <time>2017-06-11T10:53:27.819Z</time>
      </trkpt>
      <trkpt lat="47.45073" lon="6.58129">
        <ele>348.2</ele>
        <time>2017-06-11T10:53:28.819Z</time>
      </trkpt>
      <trkpt lat="47.45073" lon="6.58132">
        <ele>344.9</ele>
        <time>2017-06-11T10:53:29.819Z</time>
      </trkpt>
      <trkpt lat="47.45077" lon="6.58135">
        <ele>339.3</ele>
        <time>2017-06-11T10:53:30.819Z</time>
      </trkpt>
    </trkseg>
  </trk>
</gpx>